<?xml version='1.0' encoding='UTF-8'?><gpx version="1.1" creator="JPX - https://github.com/jenetics/jpx" xmlns="http://www.topografix.com/GPX/1/1"><trk><trkseg><trkpt lat="39.77231" lon="8.7455067"><ele>777.9999999999999</ele><time>2026-04-23T12:01:15.513Z</time></trkpt><trkpt lat="39.77223" lon="8.745485"><ele>778.0</ele><time>2026-04-23T12:01:17.513Z</time></trkpt><trkpt lat="39.7721417" lon="8.7455117"><ele>778.0</ele><time>2026-04-23T12:01:20.514Z</time></trkpt><trkpt lat="39.7720767" lon="8.7454967"><ele>778.0</ele><time>2026-04-23T12:01:23.514Z</time></trkpt><trkpt lat="39.772035" lon="8.7453967"><ele>777.9999999999999</ele><time>2026-04-23T12:01:27.514Z</time></trkpt><trkpt lat="39.7720117" lon="8.7453167"><ele>778.0</ele><time>2026-04-23T12:01:29.514Z</time></trkpt><trkpt lat="39.77198" lon="8.7452217"><ele>778.0</ele><time>2026-04-23T12:01:32.513Z</time></trkpt><trkpt lat="39.7719767" lon="8.7451367"><ele>778.0</ele><time>2026-04-23T12:01:35.514Z</time></trkpt><trkpt lat="39.771985" lon="8.745055"><ele>778.0</ele><time>2026-04-23T12:01:38.513Z</time></trkpt><trkpt lat="39.7719133" lon="8.7450883"><ele>778.0</ele><time>2026-04-23T12:01:43.514Z</time></trkpt><trkpt lat="39.7718983" lon="8.7451917"><ele>778.0</ele><time>2026-04-23T12:01:47.513Z</time></trkpt><trkpt lat="39.771955" lon="8.745285"><ele>778.0</ele><time>2026-04-23T12:01:49.513Z</time></trkpt><trkpt lat="39.7719967" lon="8.7453617"><ele>778.0</ele><time>2026-04-23T12:01:51.513Z</time></trkpt><trkpt lat="39.77203" lon="8.745455"><ele>777.9999999999999</ele><time>2026-04-23T12:01:53.513Z</time></trkpt><trkpt lat="39.77202" lon="8.7455467"><ele>778.0</ele><time>2026-04-23T12:01:55.514Z</time></trkpt><trkpt lat="39.7719633" lon="8.7456533"><ele>778.0</ele><time>2026-04-23T12:01:58.514Z</time></trkpt><trkpt lat="39.7719067" lon="8.7457267"><ele>778.0</ele><time>2026-04-23T12:02:00.513Z</time></trkpt><trkpt lat="39.7718467" lon="8.7457883"><ele>777.9999999999999</ele><time>2026-04-23T12:02:02.513Z</time></trkpt><trkpt lat="39.7717967" lon="8.7458517"><ele>778.0</ele><time>2026-04-23T12:02:04.513Z</time></trkpt><trkpt lat="39.7717483" lon="8.74593"><ele>776.9999999999999</ele><time>2026-04-23T12:02:06.514Z</time></trkpt><trkpt lat="39.771705" lon="8.746015"><ele>776.0</ele><time>2026-04-23T12:02:08.513Z</time></trkpt><trkpt lat="39.7716683" lon="8.7461083"><ele>775.0</ele><time>2026-04-23T12:02:10.514Z</time></trkpt><trkpt lat="39.7716467" lon="8.746205"><ele>774.0</ele><time>2026-04-23T12:02:12.513Z</time></trkpt><trkpt lat="39.7716233" lon="8.7462983"><ele>772.9999999999999</ele><time>2026-04-23T12:02:14.513Z</time></trkpt><trkpt lat="39.771595" lon="8.7464183"><ele>772.0</ele><time>2026-04-23T12:02:16.514Z</time></trkpt><trkpt lat="39.7715633" lon="8.74655"><ele>771.1666666666666</ele><time>2026-04-23T12:02:18.514Z</time></trkpt><trkpt lat="39.77153" lon="8.7466567"><ele>770.3333333333333</ele><time>2026-04-23T12:02:20.514Z</time></trkpt><trkpt lat="39.7714833" lon="8.74678"><ele>769.5</ele><time>2026-04-23T12:02:22.513Z</time></trkpt><trkpt lat="39.7714583" lon="8.7468633"><ele>768.6666666666666</ele><time>2026-04-23T12:02:23.513Z</time></trkpt><trkpt lat="39.7714217" lon="8.74696"><ele>767.8333333333333</ele><time>2026-04-23T12:02:24.514Z</time></trkpt><trkpt lat="39.7713667" lon="8.74707"><ele>767.0</ele><time>2026-04-23T12:02:25.513Z</time></trkpt><trkpt lat="39.7712983" lon="8.7471967"><ele>765.0</ele><time>2026-04-23T12:02:26.513Z</time></trkpt><trkpt lat="39.7712133" lon="8.74731"><ele>763.0</ele><time>2026-04-23T12:02:27.513Z</time></trkpt><trkpt lat="39.7711283" lon="8.74742"><ele>761.0</ele><time>2026-04-23T12:02:28.513Z</time></trkpt><trkpt lat="39.7710417" lon="8.7475267"><ele>759.0</ele><time>2026-04-23T12:02:29.513Z</time></trkpt><trkpt lat="39.770965" lon="8.7476433"><ele>756.8000000000001</ele><time>2026-04-23T12:02:30.514Z</time></trkpt><trkpt lat="39.7709117" lon="8.7477533"><ele>754.6</ele><time>2026-04-23T12:02:31.514Z</time></trkpt><trkpt lat="39.7708667" lon="8.74787"><ele>752.4</ele><time>2026-04-23T12:02:32.513Z</time></trkpt><trkpt lat="39.770825" lon="8.7479767"><ele>750.2</ele><time>2026-04-23T12:02:33.513Z</time></trkpt><trkpt lat="39.7707933" lon="8.7480867"><ele>748.0</ele><time>2026-04-23T12:02:34.514Z</time></trkpt><trkpt lat="39.770775" lon="8.748205"><ele>748.0</ele><time>2026-04-23T12:02:35.513Z</time></trkpt><trkpt lat="39.770765" lon="8.7483233"><ele>748.0</ele><time>2026-04-23T12:02:36.514Z</time></trkpt><trkpt lat="39.77074" lon="8.748445"><ele>748.0</ele><time>2026-04-23T12:02:37.513Z</time></trkpt><trkpt lat="39.7707083" lon="8.74856"><ele>748.0</ele><time>2026-04-23T12:02:38.513Z</time></trkpt><trkpt lat="39.7706683" lon="8.748665"><ele>748.0</ele><time>2026-04-23T12:02:39.514Z</time></trkpt><trkpt lat="39.770615" lon="8.74876"><ele>746.5</ele><time>2026-04-23T12:02:40.513Z</time></trkpt><trkpt lat="39.7705567" lon="8.7488583"><ele>745.0</ele><time>2026-04-23T12:02:41.514Z</time></trkpt><trkpt lat="39.7705" lon="8.7489533"><ele>743.5</ele><time>2026-04-23T12:02:42.514Z</time></trkpt><trkpt lat="39.7704433" lon="8.749045"><ele>742.0</ele><time>2026-04-23T12:02:43.513Z</time></trkpt><trkpt lat="39.7703917" lon="8.7491267"><ele>740.5</ele><time>2026-04-23T12:02:44.514Z</time></trkpt><trkpt lat="39.7703483" lon="8.7492017"><ele>739.0</ele><time>2026-04-23T12:02:45.514Z</time></trkpt><trkpt lat="39.7702867" lon="8.7493083"><ele>739.0</ele><time>2026-04-23T12:02:47.514Z</time></trkpt><trkpt lat="39.7702483" lon="8.7493733"><ele>739.0</ele><time>2026-04-23T12:02:49.513Z</time></trkpt><trkpt lat="39.7701867" lon="8.749485"><ele>739.0</ele><time>2026-04-23T12:03:43.513Z</time></trkpt><trkpt lat="39.7700983" lon="8.74962"><ele>739.0</ele><time>2026-04-23T12:03:45.513Z</time></trkpt><trkpt lat="39.7700517" lon="8.749715"><ele>739.0</ele><time>2026-04-23T12:03:46.514Z</time></trkpt><trkpt lat="39.7700117" lon="8.7498317"><ele>737.0</ele><time>2026-04-23T12:03:47.513Z</time></trkpt><trkpt lat="39.7699667" lon="8.749965"><ele>735.0</ele><time>2026-04-23T12:03:48.513Z</time></trkpt><trkpt lat="39.76992" lon="8.7501"><ele>733.0</ele><time>2026-04-23T12:03:49.513Z</time></trkpt><trkpt lat="39.7698783" lon="8.7502467"><ele>731.0</ele><time>2026-04-23T12:03:50.513Z</time></trkpt><trkpt lat="39.7698317" lon="8.7503983"><ele>729.0</ele><time>2026-04-23T12:03:51.513Z</time></trkpt><trkpt lat="39.76979" lon="8.750545"><ele>727.0</ele><time>2026-04-23T12:03:52.513Z</time></trkpt><trkpt lat="39.769755" lon="8.7506717"><ele>725.0</ele><time>2026-04-23T12:03:53.514Z</time></trkpt><trkpt lat="39.7697233" lon="8.7507917"><ele>723.0</ele><time>2026-04-23T12:03:54.513Z</time></trkpt><trkpt lat="39.7696917" lon="8.7509067"><ele>721.0</ele><time>2026-04-23T12:03:55.514Z</time></trkpt><trkpt lat="39.7696633" lon="8.75101"><ele>719.8</ele><time>2026-04-23T12:03:56.513Z</time></trkpt><trkpt lat="39.769635" lon="8.751115"><ele>718.5999999999999</ele><time>2026-04-23T12:03:57.513Z</time></trkpt><trkpt lat="39.7696083" lon="8.7512217"><ele>717.4</ele><time>2026-04-23T12:03:58.514Z</time></trkpt><trkpt lat="39.7695717" lon="8.7513333"><ele>716.2</ele><time>2026-04-23T12:03:59.513Z</time></trkpt><trkpt lat="39.7695283" lon="8.7514617"><ele>715.0</ele><time>2026-04-23T12:04:00.513Z</time></trkpt><trkpt lat="39.7694683" lon="8.7515767"><ele>715.0</ele><time>2026-04-23T12:04:01.513Z</time></trkpt><trkpt lat="39.7693917" lon="8.751685"><ele>715.0</ele><time>2026-04-23T12:04:02.514Z</time></trkpt><trkpt lat="39.7693083" lon="8.7517883"><ele>715.0</ele><time>2026-04-23T12:04:03.513Z</time></trkpt><trkpt lat="39.769235" lon="8.7518933"><ele>715.0</ele><time>2026-04-23T12:04:04.513Z</time></trkpt><trkpt lat="39.769165" lon="8.75201"><ele>715.0</ele><time>2026-04-23T12:04:05.513Z</time></trkpt><trkpt lat="39.7691" lon="8.752135"><ele>715.0</ele><time>2026-04-23T12:04:06.514Z</time></trkpt><trkpt lat="39.7690483" lon="8.7522667"><ele>715.0</ele><time>2026-04-23T12:04:07.514Z</time></trkpt><trkpt lat="39.769005" lon="8.752405"><ele>715.0</ele><time>2026-04-23T12:04:08.514Z</time></trkpt><trkpt lat="39.7689717" lon="8.75254"><ele>715.0</ele><time>2026-04-23T12:04:09.513Z</time></trkpt><trkpt lat="39.7689483" lon="8.752675"><ele>715.0</ele><time>2026-04-23T12:04:10.513Z</time></trkpt><trkpt lat="39.7689283" lon="8.75281"><ele>715.0</ele><time>2026-04-23T12:04:11.514Z</time></trkpt><trkpt lat="39.7689017" lon="8.752945"><ele>715.0</ele><time>2026-04-23T12:04:12.514Z</time></trkpt><trkpt lat="39.7688717" lon="8.75308"><ele>715.0</ele><time>2026-04-23T12:04:13.513Z</time></trkpt><trkpt lat="39.7688317" lon="8.7532083"><ele>713.6</ele><time>2026-04-23T12:04:14.513Z</time></trkpt><trkpt lat="39.7687833" lon="8.753335"><ele>712.2</ele><time>2026-04-23T12:04:15.514Z</time></trkpt><trkpt lat="39.7687467" lon="8.7534567"><ele>710.8</ele><time>2026-04-23T12:04:16.513Z</time></trkpt><trkpt lat="39.7687367" lon="8.7535783"><ele>709.4</ele><time>2026-04-23T12:04:17.513Z</time></trkpt><trkpt lat="39.768755" lon="8.7536967"><ele>708.0</ele><time>2026-04-23T12:04:18.513Z</time></trkpt><trkpt lat="39.7687817" lon="8.753825"><ele>706.5999999999999</ele><time>2026-04-23T12:04:19.514Z</time></trkpt><trkpt lat="39.7688117" lon="8.7539517"><ele>705.1999999999999</ele><time>2026-04-23T12:04:20.513Z</time></trkpt><trkpt lat="39.76884" lon="8.7540783"><ele>703.8</ele><time>2026-04-23T12:04:21.514Z</time></trkpt><trkpt lat="39.768865" lon="8.7542033"><ele>702.4</ele><time>2026-04-23T12:04:22.513Z</time></trkpt><trkpt lat="39.768895" lon="8.75433"><ele>701.0</ele><time>2026-04-23T12:04:23.513Z</time></trkpt><trkpt lat="39.76894" lon="8.75445"><ele>699.5999999999999</ele><time>2026-04-23T12:04:24.513Z</time></trkpt><trkpt lat="39.7690033" lon="8.7545617"><ele>698.2</ele><time>2026-04-23T12:04:25.513Z</time></trkpt><trkpt lat="39.769075" lon="8.7546567"><ele>696.8</ele><time>2026-04-23T12:04:26.513Z</time></trkpt><trkpt lat="39.7691483" lon="8.7547433"><ele>695.4000000000001</ele><time>2026-04-23T12:04:27.513Z</time></trkpt><trkpt lat="39.7692067" lon="8.75485"><ele>694.0</ele><time>2026-04-23T12:04:28.514Z</time></trkpt><trkpt lat="39.769245" lon="8.754985"><ele>694.0</ele><time>2026-04-23T12:04:29.513Z</time></trkpt><trkpt lat="39.76928" lon="8.75513"><ele>694.0</ele><time>2026-04-23T12:04:30.513Z</time></trkpt><trkpt lat="39.76932" lon="8.7552733"><ele>694.0</ele><time>2026-04-23T12:04:31.513Z</time></trkpt><trkpt lat="39.76936" lon="8.7553983"><ele>694.0</ele><time>2026-04-23T12:04:32.514Z</time></trkpt><trkpt lat="39.7694117" lon="8.7555117"><ele>694.0</ele><time>2026-04-23T12:04:33.513Z</time></trkpt><trkpt lat="39.7694767" lon="8.7556017"><ele>691.8000000000001</ele><time>2026-04-23T12:04:34.514Z</time></trkpt><trkpt lat="39.7695567" lon="8.7556767"><ele>689.6</ele><time>2026-04-23T12:04:35.513Z</time></trkpt><trkpt lat="39.7696467" lon="8.7557283"><ele>687.4</ele><time>2026-04-23T12:04:36.513Z</time></trkpt><trkpt lat="39.769735" lon="8.7557717"><ele>685.2</ele><time>2026-04-23T12:04:37.514Z</time></trkpt><trkpt lat="39.7698067" lon="8.755815"><ele>683.0</ele><time>2026-04-23T12:04:38.514Z</time></trkpt><trkpt lat="39.76987" lon="8.7559"><ele>683.0</ele><time>2026-04-23T12:04:39.513Z</time></trkpt><trkpt lat="39.76991" lon="8.7560067"><ele>683.0</ele><time>2026-04-23T12:04:40.514Z</time></trkpt><trkpt lat="39.7699267" lon="8.7561333"><ele>683.0</ele><time>2026-04-23T12:04:41.513Z</time></trkpt><trkpt lat="39.7699033" lon="8.75626"><ele>683.0</ele><time>2026-04-23T12:04:42.514Z</time></trkpt><trkpt lat="39.7698683" lon="8.7563717"><ele>683.0</ele><time>2026-04-23T12:04:43.514Z</time></trkpt><trkpt lat="39.769805" lon="8.7564633"><ele>680.75</ele><time>2026-04-23T12:04:44.514Z</time></trkpt><trkpt lat="39.7697067" lon="8.7565617"><ele>678.5</ele><time>2026-04-23T12:04:45.514Z</time></trkpt><trkpt lat="39.7695983" lon="8.756685"><ele>676.25</ele><time>2026-04-23T12:04:46.513Z</time></trkpt><trkpt lat="39.7695067" lon="8.7568317"><ele>674.0</ele><time>2026-04-23T12:04:47.513Z</time></trkpt><trkpt lat="39.7694317" lon="8.757"><ele>672.3333333333333</ele><time>2026-04-23T12:04:48.513Z</time></trkpt><trkpt lat="39.7693683" lon="8.75719"><ele>670.6666666666666</ele><time>2026-04-23T12:04:49.513Z</time></trkpt><trkpt lat="39.769315" lon="8.757375"><ele>669.0</ele><time>2026-04-23T12:04:50.514Z</time></trkpt><trkpt lat="39.7692617" lon="8.757555"><ele>665.75</ele><time>2026-04-23T12:04:51.514Z</time></trkpt><trkpt lat="39.7692067" lon="8.75773"><ele>662.5</ele><time>2026-04-23T12:04:52.513Z</time></trkpt><trkpt lat="39.7691483" lon="8.7579017"><ele>659.25</ele><time>2026-04-23T12:04:53.514Z</time></trkpt><trkpt lat="39.769095" lon="8.7580683"><ele>656.0</ele><time>2026-04-23T12:04:54.513Z</time></trkpt><trkpt lat="39.7690333" lon="8.758225"><ele>656.0</ele><time>2026-04-23T12:04:55.514Z</time></trkpt><trkpt lat="39.76896" lon="8.7583867"><ele>656.0</ele><time>2026-04-23T12:04:56.513Z</time></trkpt><trkpt lat="39.7688817" lon="8.7585433"><ele>656.0</ele><time>2026-04-23T12:04:57.514Z</time></trkpt><trkpt lat="39.768785" lon="8.7586917"><ele>656.0</ele><time>2026-04-23T12:04:58.514Z</time></trkpt><trkpt lat="39.7686817" lon="8.758835"><ele>655.75</ele><time>2026-04-23T12:04:59.514Z</time></trkpt><trkpt lat="39.7685833" lon="8.7589767"><ele>655.5</ele><time>2026-04-23T12:05:00.513Z</time></trkpt><trkpt lat="39.768485" lon="8.7591067"><ele>655.25</ele><time>2026-04-23T12:05:01.513Z</time></trkpt><trkpt lat="39.76839" lon="8.75924"><ele>655.0</ele><time>2026-04-23T12:05:02.514Z</time></trkpt><trkpt lat="39.7682933" lon="8.75936"><ele>653.0</ele><time>2026-04-23T12:05:03.514Z</time></trkpt><trkpt lat="39.7682" lon="8.75948"><ele>651.0</ele><time>2026-04-23T12:05:04.513Z</time></trkpt><trkpt lat="39.7681067" lon="8.7596017"><ele>649.0</ele><time>2026-04-23T12:05:05.513Z</time></trkpt><trkpt lat="39.7680217" lon="8.7597233"><ele>647.0</ele><time>2026-04-23T12:05:06.513Z</time></trkpt><trkpt lat="39.76794" lon="8.7598533"><ele>647.0</ele><time>2026-04-23T12:05:07.513Z</time></trkpt><trkpt lat="39.76787" lon="8.7599917"><ele>647.0</ele><time>2026-04-23T12:05:08.513Z</time></trkpt><trkpt lat="39.7678167" lon="8.7601383"><ele>647.0</ele><time>2026-04-23T12:05:09.513Z</time></trkpt><trkpt lat="39.7677683" lon="8.76028"><ele>647.0</ele><time>2026-04-23T12:05:10.513Z</time></trkpt><trkpt lat="39.7677267" lon="8.760415"><ele>645.2</ele><time>2026-04-23T12:05:11.514Z</time></trkpt><trkpt lat="39.7676783" lon="8.7605317"><ele>643.4000000000001</ele><time>2026-04-23T12:05:12.513Z</time></trkpt><trkpt lat="39.7676383" lon="8.7606467"><ele>641.5999999999999</ele><time>2026-04-23T12:05:13.513Z</time></trkpt><trkpt lat="39.7675917" lon="8.7607583"><ele>639.8</ele><time>2026-04-23T12:05:14.513Z</time></trkpt><trkpt lat="39.7675517" lon="8.76086"><ele>638.0</ele><time>2026-04-23T12:05:15.513Z</time></trkpt><trkpt lat="39.7675117" lon="8.7609567"><ele>637.8</ele><time>2026-04-23T12:05:16.513Z</time></trkpt><trkpt lat="39.7674717" lon="8.76106"><ele>637.5999999999999</ele><time>2026-04-23T12:05:17.513Z</time></trkpt><trkpt lat="39.7674333" lon="8.7611683"><ele>637.4000000000001</ele><time>2026-04-23T12:05:18.513Z</time></trkpt><trkpt lat="39.7673933" lon="8.7612817"><ele>637.2</ele><time>2026-04-23T12:05:19.513Z</time></trkpt><trkpt lat="39.767355" lon="8.7613917"><ele>637.0</ele><time>2026-04-23T12:05:20.513Z</time></trkpt><trkpt lat="39.7673267" lon="8.7614983"><ele>637.0</ele><time>2026-04-23T12:05:21.514Z</time></trkpt><trkpt lat="39.767315" lon="8.7615867"><ele>637.0</ele><time>2026-04-23T12:05:22.514Z</time></trkpt><trkpt lat="39.76731" lon="8.7616717"><ele>637.0</ele><time>2026-04-23T12:05:23.513Z</time></trkpt><trkpt lat="39.7673117" lon="8.7617583"><ele>637.0</ele><time>2026-04-23T12:05:24.514Z</time></trkpt><trkpt lat="39.767325" lon="8.7618417"><ele>637.0</ele><time>2026-04-23T12:05:25.514Z</time></trkpt><trkpt lat="39.7673433" lon="8.7619317"><ele>637.0</ele><time>2026-04-23T12:05:26.513Z</time></trkpt><trkpt lat="39.7673667" lon="8.7620217"><ele>637.0</ele><time>2026-04-23T12:05:27.513Z</time></trkpt><trkpt lat="39.7673917" lon="8.7621117"><ele>637.0</ele><time>2026-04-23T12:05:28.513Z</time></trkpt><trkpt lat="39.7674333" lon="8.7622517"><ele>637.0</ele><time>2026-04-23T12:05:30.514Z</time></trkpt><trkpt lat="39.7674483" lon="8.7623567"><ele>637.0</ele><time>2026-04-23T12:05:32.514Z</time></trkpt><trkpt lat="39.76738" lon="8.7624367"><ele>637.0</ele><time>2026-04-23T12:05:34.513Z</time></trkpt><trkpt lat="39.7673217" lon="8.7624717"><ele>637.0</ele><time>2026-04-23T12:05:35.513Z</time></trkpt><trkpt lat="39.7672517" lon="8.762505"><ele>637.0</ele><time>2026-04-23T12:05:36.514Z</time></trkpt><trkpt lat="39.7671783" lon="8.76254"><ele>637.0</ele><time>2026-04-23T12:05:37.513Z</time></trkpt><trkpt lat="39.7670983" lon="8.76257"><ele>637.0</ele><time>2026-04-23T12:05:38.514Z</time></trkpt><trkpt lat="39.7670083" lon="8.7626117"><ele>637.0</ele><time>2026-04-23T12:05:39.514Z</time></trkpt><trkpt lat="39.7669083" lon="8.76265"><ele>637.0</ele><time>2026-04-23T12:05:40.513Z</time></trkpt><trkpt lat="39.7667933" lon="8.762705"><ele>637.0</ele><time>2026-04-23T12:05:41.513Z</time></trkpt><trkpt lat="39.7666683" lon="8.7627633"><ele>635.0</ele><time>2026-04-23T12:05:42.514Z</time></trkpt><trkpt lat="39.7665517" lon="8.7628167"><ele>633.0</ele><time>2026-04-23T12:05:43.514Z</time></trkpt><trkpt lat="39.7664317" lon="8.7628717"><ele>631.0</ele><time>2026-04-23T12:05:44.514Z</time></trkpt><trkpt lat="39.7663167" lon="8.7629233"><ele>629.0</ele><time>2026-04-23T12:05:45.514Z</time></trkpt><trkpt lat="39.7662067" lon="8.7629683"><ele>629.0</ele><time>2026-04-23T12:05:46.513Z</time></trkpt><trkpt lat="39.7661017" lon="8.7629867"><ele>629.0</ele><time>2026-04-23T12:05:47.514Z</time></trkpt><trkpt lat="39.76599" lon="8.7629767"><ele>629.0</ele><time>2026-04-23T12:05:48.514Z</time></trkpt><trkpt lat="39.76588" lon="8.7629367"><ele>629.0</ele><time>2026-04-23T12:05:49.514Z</time></trkpt><trkpt lat="39.76576" lon="8.7628667"><ele>627.6666666666666</ele><time>2026-04-23T12:05:50.514Z</time></trkpt><trkpt lat="39.7656283" lon="8.762785"><ele>626.3333333333334</ele><time>2026-04-23T12:05:51.514Z</time></trkpt><trkpt lat="39.765485" lon="8.7627183"><ele>625.0</ele><time>2026-04-23T12:05:52.513Z</time></trkpt><trkpt lat="39.7653317" lon="8.7626717"><ele>623.0</ele><time>2026-04-23T12:05:53.513Z</time></trkpt><trkpt lat="39.7651833" lon="8.7626267"><ele>621.0</ele><time>2026-04-23T12:05:54.513Z</time></trkpt><trkpt lat="39.7650367" lon="8.762585"><ele>619.0</ele><time>2026-04-23T12:05:55.513Z</time></trkpt><trkpt lat="39.7648983" lon="8.7625367"><ele>617.0</ele><time>2026-04-23T12:05:56.514Z</time></trkpt><trkpt lat="39.7647733" lon="8.7625067"><ele>617.0</ele><time>2026-04-23T12:05:57.514Z</time></trkpt><trkpt lat="39.7646483" lon="8.7624883"><ele>617.0</ele><time>2026-04-23T12:05:58.514Z</time></trkpt><trkpt lat="39.7645167" lon="8.7624933"><ele>617.0</ele><time>2026-04-23T12:05:59.514Z</time></trkpt><trkpt lat="39.764385" lon="8.7625233"><ele>617.0</ele><time>2026-04-23T12:06:00.514Z</time></trkpt><trkpt lat="39.764265" lon="8.762555"><ele>615.75</ele><time>2026-04-23T12:06:01.514Z</time></trkpt><trkpt lat="39.7641483" lon="8.7625633"><ele>614.5</ele><time>2026-04-23T12:06:02.513Z</time></trkpt><trkpt lat="39.7640283" lon="8.762545"><ele>613.25</ele><time>2026-04-23T12:06:03.514Z</time></trkpt><trkpt lat="39.76391" lon="8.762505"><ele>612.0</ele><time>2026-04-23T12:06:04.514Z</time></trkpt><trkpt lat="39.763795" lon="8.7624383"><ele>612.0</ele><time>2026-04-23T12:06:05.513Z</time></trkpt><trkpt lat="39.7636817" lon="8.7623583"><ele>612.0</ele><time>2026-04-23T12:06:06.513Z</time></trkpt><trkpt lat="39.7635667" lon="8.7622733"><ele>612.0</ele><time>2026-04-23T12:06:07.513Z</time></trkpt><trkpt lat="39.7634533" lon="8.7621917"><ele>612.0</ele><time>2026-04-23T12:06:08.514Z</time></trkpt><trkpt lat="39.7633283" lon="8.76213"><ele>610.0</ele><time>2026-04-23T12:06:09.513Z</time></trkpt><trkpt lat="39.7631967" lon="8.7620767"><ele>608.0</ele><time>2026-04-23T12:06:10.513Z</time></trkpt><trkpt lat="39.7630583" lon="8.7620267"><ele>606.0</ele><time>2026-04-23T12:06:11.514Z</time></trkpt><trkpt lat="39.76293" lon="8.7619783"><ele>604.0</ele><time>2026-04-23T12:06:12.513Z</time></trkpt><trkpt lat="39.7627967" lon="8.7619333"><ele>602.0</ele><time>2026-04-23T12:06:13.513Z</time></trkpt><trkpt lat="39.76266" lon="8.7618867"><ele>600.0</ele><time>2026-04-23T12:06:14.513Z</time></trkpt><trkpt lat="39.7625133" lon="8.7618367"><ele>598.0</ele><time>2026-04-23T12:06:15.514Z</time></trkpt><trkpt lat="39.7623533" lon="8.76178"><ele>597.3333333333334</ele><time>2026-04-23T12:06:16.513Z</time></trkpt><trkpt lat="39.7622033" lon="8.761725"><ele>596.6666666666666</ele><time>2026-04-23T12:06:17.514Z</time></trkpt><trkpt lat="39.7620583" lon="8.7616767"><ele>596.0</ele><time>2026-04-23T12:06:18.513Z</time></trkpt><trkpt lat="39.761915" lon="8.7616233"><ele>595.0</ele><time>2026-04-23T12:06:19.514Z</time></trkpt><trkpt lat="39.76178" lon="8.7615767"><ele>594.0</ele><time>2026-04-23T12:06:20.513Z</time></trkpt><trkpt lat="39.761645" lon="8.761535"><ele>593.0</ele><time>2026-04-23T12:06:21.514Z</time></trkpt><trkpt lat="39.7615083" lon="8.7614917"><ele>592.0</ele><time>2026-04-23T12:06:22.514Z</time></trkpt><trkpt lat="39.7613717" lon="8.76145"><ele>592.0</ele><time>2026-04-23T12:06:23.513Z</time></trkpt><trkpt lat="39.7612383" lon="8.76139"><ele>592.0</ele><time>2026-04-23T12:06:24.513Z</time></trkpt><trkpt lat="39.7611133" lon="8.7613133"><ele>592.0</ele><time>2026-04-23T12:06:25.514Z</time></trkpt><trkpt lat="39.76099" lon="8.76122"><ele>592.0</ele><time>2026-04-23T12:06:26.514Z</time></trkpt><trkpt lat="39.7608783" lon="8.7610933"><ele>590.25</ele><time>2026-04-23T12:06:27.514Z</time></trkpt><trkpt lat="39.7607733" lon="8.76096"><ele>588.5</ele><time>2026-04-23T12:06:28.513Z</time></trkpt><trkpt lat="39.760685" lon="8.7608233"><ele>586.75</ele><time>2026-04-23T12:06:29.514Z</time></trkpt><trkpt lat="39.7605933" lon="8.760685"><ele>585.0</ele><time>2026-04-23T12:06:30.513Z</time></trkpt><trkpt lat="39.76051" lon="8.76055"><ele>585.0</ele><time>2026-04-23T12:06:31.513Z</time></trkpt><trkpt lat="39.7604317" lon="8.7604117"><ele>585.0</ele><time>2026-04-23T12:06:32.514Z</time></trkpt><trkpt lat="39.7603367" lon="8.7602833"><ele>585.0</ele><time>2026-04-23T12:06:33.513Z</time></trkpt><trkpt lat="39.76024" lon="8.7601517"><ele>585.0</ele><time>2026-04-23T12:06:34.514Z</time></trkpt><trkpt lat="39.76015" lon="8.7600233"><ele>584.0</ele><time>2026-04-23T12:06:35.513Z</time></trkpt><trkpt lat="39.7600617" lon="8.7598933"><ele>583.0</ele><time>2026-04-23T12:06:36.514Z</time></trkpt><trkpt lat="39.759965" lon="8.7597667"><ele>582.0</ele><time>2026-04-23T12:06:37.513Z</time></trkpt><trkpt lat="39.7598717" lon="8.7596283"><ele>581.0</ele><time>2026-04-23T12:06:38.514Z</time></trkpt><trkpt lat="39.7597733" lon="8.75949"><ele>578.75</ele><time>2026-04-23T12:06:39.513Z</time></trkpt><trkpt lat="39.7596867" lon="8.7593483"><ele>576.5</ele><time>2026-04-23T12:06:40.514Z</time></trkpt><trkpt lat="39.7595867" lon="8.7592083"><ele>574.25</ele><time>2026-04-23T12:06:41.514Z</time></trkpt><trkpt lat="39.759495" lon="8.7590833"><ele>572.0</ele><time>2026-04-23T12:06:42.514Z</time></trkpt><trkpt lat="39.759405" lon="8.7589533"><ele>572.75</ele><time>2026-04-23T12:06:43.513Z</time></trkpt><trkpt lat="39.7593117" lon="8.7588383"><ele>573.5</ele><time>2026-04-23T12:06:44.513Z</time></trkpt><trkpt lat="39.7592367" lon="8.7587217"><ele>574.25</ele><time>2026-04-23T12:06:45.513Z</time></trkpt><trkpt lat="39.759155" lon="8.7586083"><ele>575.0</ele><time>2026-04-23T12:06:46.513Z</time></trkpt><trkpt lat="39.7590683" lon="8.7585167"><ele>573.8</ele><time>2026-04-23T12:06:47.514Z</time></trkpt><trkpt lat="39.7589767" lon="8.7584483"><ele>572.6</ele><time>2026-04-23T12:06:48.513Z</time></trkpt><trkpt lat="39.7588783" lon="8.7584033"><ele>571.4</ele><time>2026-04-23T12:06:49.513Z</time></trkpt><trkpt lat="39.7587733" lon="8.758395"><ele>570.2</ele><time>2026-04-23T12:06:50.513Z</time></trkpt><trkpt lat="39.75867" lon="8.758415"><ele>569.0</ele><time>2026-04-23T12:06:51.514Z</time></trkpt><trkpt lat="39.7585733" lon="8.758455"><ele>568.5</ele><time>2026-04-23T12:06:52.513Z</time></trkpt><trkpt lat="39.7584817" lon="8.7584933"><ele>568.0</ele><time>2026-04-23T12:06:53.514Z</time></trkpt><trkpt lat="39.7583967" lon="8.75853"><ele>567.5</ele><time>2026-04-23T12:06:54.514Z</time></trkpt><trkpt lat="39.758315" lon="8.7585633"><ele>567.0</ele><time>2026-04-23T12:06:55.514Z</time></trkpt><trkpt lat="39.758245" lon="8.758595"><ele>566.5</ele><time>2026-04-23T12:06:56.513Z</time></trkpt><trkpt lat="39.75818" lon="8.7586483"><ele>566.0</ele><time>2026-04-23T12:06:57.514Z</time></trkpt><trkpt lat="39.7581117" lon="8.758705"><ele>566.0</ele><time>2026-04-23T12:06:58.514Z</time></trkpt><trkpt lat="39.7580367" lon="8.758795"><ele>566.0</ele><time>2026-04-23T12:06:59.513Z</time></trkpt><trkpt lat="39.75795" lon="8.7589"><ele>566.0</ele><time>2026-04-23T12:07:00.513Z</time></trkpt><trkpt lat="39.7578717" lon="8.7590233"><ele>566.0</ele><time>2026-04-23T12:07:01.514Z</time></trkpt><trkpt lat="39.7578083" lon="8.7591517"><ele>566.0</ele><time>2026-04-23T12:07:02.514Z</time></trkpt><trkpt lat="39.7577467" lon="8.7592833"><ele>566.0</ele><time>2026-04-23T12:07:03.514Z</time></trkpt><trkpt lat="39.757675" lon="8.759415"><ele>566.0</ele><time>2026-04-23T12:07:04.513Z</time></trkpt><trkpt lat="39.7575883" lon="8.7595333"><ele>566.0</ele><time>2026-04-23T12:07:05.513Z</time></trkpt><trkpt lat="39.757505" lon="8.75963"><ele>563.5</ele><time>2026-04-23T12:07:06.514Z</time></trkpt><trkpt lat="39.7574317" lon="8.7597133"><ele>561.0</ele><time>2026-04-23T12:07:07.514Z</time></trkpt><trkpt lat="39.7573583" lon="8.7597833"><ele>558.5</ele><time>2026-04-23T12:07:08.514Z</time></trkpt><trkpt lat="39.7572833" lon="8.7598517"><ele>556.0</ele><time>2026-04-23T12:07:09.513Z</time></trkpt><trkpt lat="39.757225" lon="8.7599183"><ele>553.5</ele><time>2026-04-23T12:07:10.514Z</time></trkpt><trkpt lat="39.7571567" lon="8.75997"><ele>551.0</ele><time>2026-04-23T12:07:11.513Z</time></trkpt><trkpt lat="39.7570817" lon="8.75999"><ele>551.0</ele><time>2026-04-23T12:07:12.513Z</time></trkpt><trkpt lat="39.7569883" lon="8.759975"><ele>551.0</ele><time>2026-04-23T12:07:13.514Z</time></trkpt><trkpt lat="39.7568817" lon="8.7599433"><ele>551.0</ele><time>2026-04-23T12:07:14.514Z</time></trkpt><trkpt lat="39.75677" lon="8.7598983"><ele>551.0</ele><time>2026-04-23T12:07:15.513Z</time></trkpt><trkpt lat="39.75665" lon="8.7598583"><ele>551.0</ele><time>2026-04-23T12:07:16.513Z</time></trkpt><trkpt lat="39.7565283" lon="8.75983"><ele>548.4</ele><time>2026-04-23T12:07:17.513Z</time></trkpt><trkpt lat="39.7564167" lon="8.7597983"><ele>545.8</ele><time>2026-04-23T12:07:18.513Z</time></trkpt><trkpt lat="39.7563233" lon="8.7597683"><ele>543.1999999999999</ele><time>2026-04-23T12:07:19.514Z</time></trkpt><trkpt lat="39.75624" lon="8.7597233"><ele>540.6</ele><time>2026-04-23T12:07:20.513Z</time></trkpt><trkpt lat="39.7561683" lon="8.759655"><ele>538.0</ele><time>2026-04-23T12:07:21.513Z</time></trkpt><trkpt lat="39.75611" lon="8.7595583"><ele>538.0</ele><time>2026-04-23T12:07:22.514Z</time></trkpt><trkpt lat="39.756045" lon="8.7594567"><ele>538.0</ele><time>2026-04-23T12:07:23.514Z</time></trkpt><trkpt lat="39.7559617" lon="8.7593583"><ele>538.0</ele><time>2026-04-23T12:07:24.513Z</time></trkpt><trkpt lat="39.7558683" lon="8.7592833"><ele>538.0</ele><time>2026-04-23T12:07:25.514Z</time></trkpt><trkpt lat="39.75577" lon="8.7592167"><ele>538.0</ele><time>2026-04-23T12:07:26.514Z</time></trkpt><trkpt lat="39.75566" lon="8.75916"><ele>537.0</ele><time>2026-04-23T12:07:27.514Z</time></trkpt><trkpt lat="39.7555483" lon="8.75912"><ele>536.0</ele><time>2026-04-23T12:07:28.513Z</time></trkpt><trkpt lat="39.75543" lon="8.7590783"><ele>535.0</ele><time>2026-04-23T12:07:29.514Z</time></trkpt><trkpt lat="39.7553083" lon="8.7590283"><ele>534.0</ele><time>2026-04-23T12:07:30.513Z</time></trkpt><trkpt lat="39.75518" lon="8.7589667"><ele>530.25</ele><time>2026-04-23T12:07:31.514Z</time></trkpt><trkpt lat="39.7550583" lon="8.7588817"><ele>526.5</ele><time>2026-04-23T12:07:32.514Z</time></trkpt><trkpt lat="39.7549433" lon="8.7587983"><ele>522.75</ele><time>2026-04-23T12:07:33.513Z</time></trkpt><trkpt lat="39.75483" lon="8.7587167"><ele>519.0</ele><time>2026-04-23T12:07:34.513Z</time></trkpt><trkpt lat="39.7547183" lon="8.7586333"><ele>519.0</ele><time>2026-04-23T12:07:35.514Z</time></trkpt><trkpt lat="39.7546133" lon="8.75854"><ele>519.0</ele><time>2026-04-23T12:07:36.514Z</time></trkpt><trkpt lat="39.754525" lon="8.75845"><ele>519.0</ele><time>2026-04-23T12:07:37.514Z</time></trkpt><trkpt lat="39.7544367" lon="8.7583517"><ele>519.0</ele><time>2026-04-23T12:07:38.514Z</time></trkpt><trkpt lat="39.75437" lon="8.75826"><ele>518.0</ele><time>2026-04-23T12:07:39.513Z</time></trkpt><trkpt lat="39.754305" lon="8.7581767"><ele>517.0</ele><time>2026-04-23T12:07:40.514Z</time></trkpt><trkpt lat="39.7542383" lon="8.7581217"><ele>516.0</ele><time>2026-04-23T12:07:41.514Z</time></trkpt><trkpt lat="39.7541417" lon="8.7581017"><ele>515.0</ele><time>2026-04-23T12:07:42.513Z</time></trkpt><trkpt lat="39.7540367" lon="8.7580917"><ele>514.0</ele><time>2026-04-23T12:07:43.514Z</time></trkpt><trkpt lat="39.7539283" lon="8.75807"><ele>514.0</ele><time>2026-04-23T12:07:44.514Z</time></trkpt><trkpt lat="39.7538267" lon="8.75803"><ele>514.0</ele><time>2026-04-23T12:07:45.514Z</time></trkpt><trkpt lat="39.7537433" lon="8.7579483"><ele>514.0</ele><time>2026-04-23T12:07:46.513Z</time></trkpt><trkpt lat="39.7536833" lon="8.75784"><ele>514.0</ele><time>2026-04-23T12:07:47.513Z</time></trkpt><trkpt lat="39.7536467" lon="8.757705"><ele>514.0</ele><time>2026-04-23T12:07:48.513Z</time></trkpt><trkpt lat="39.7536267" lon="8.757565"><ele>512.6666666666667</ele><time>2026-04-23T12:07:49.514Z</time></trkpt><trkpt lat="39.7536233" lon="8.7574383"><ele>511.33333333333337</ele><time>2026-04-23T12:07:50.514Z</time></trkpt><trkpt lat="39.753635" lon="8.757325"><ele>510.0</ele><time>2026-04-23T12:07:51.514Z</time></trkpt><trkpt lat="39.75365" lon="8.75722"><ele>508.66666666666663</ele><time>2026-04-23T12:07:52.513Z</time></trkpt><trkpt lat="39.753665" lon="8.75713"><ele>507.3333333333333</ele><time>2026-04-23T12:07:53.513Z</time></trkpt><trkpt lat="39.75361" lon="8.7570233"><ele>506.0</ele><time>2026-04-23T12:07:55.514Z</time></trkpt><trkpt lat="39.75353" lon="8.75705"><ele>506.0</ele><time>2026-04-23T12:07:56.514Z</time></trkpt><trkpt lat="39.7534383" lon="8.7571"><ele>506.0</ele><time>2026-04-23T12:07:57.514Z</time></trkpt><trkpt lat="39.753345" lon="8.7571633"><ele>506.0</ele><time>2026-04-23T12:07:58.513Z</time></trkpt><trkpt lat="39.7532433" lon="8.757225"><ele>506.0</ele><time>2026-04-23T12:07:59.514Z</time></trkpt><trkpt lat="39.75314" lon="8.7572883"><ele>506.0</ele><time>2026-04-23T12:08:00.513Z</time></trkpt><trkpt lat="39.7530467" lon="8.7573417"><ele>505.99999999999994</ele><time>2026-04-23T12:08:01.513Z</time></trkpt><trkpt lat="39.7529717" lon="8.7574017"><ele>506.0</ele><time>2026-04-23T12:08:02.514Z</time></trkpt><trkpt lat="39.75291" lon="8.7574717"><ele>506.0</ele><time>2026-04-23T12:08:03.513Z</time></trkpt><trkpt lat="39.7528783" lon="8.757555"><ele>506.0</ele><time>2026-04-23T12:08:04.513Z</time></trkpt><trkpt lat="39.752885" lon="8.7576433"><ele>505.99999999999994</ele><time>2026-04-23T12:08:05.514Z</time></trkpt><trkpt lat="39.752935" lon="8.75773"><ele>506.0</ele><time>2026-04-23T12:08:06.514Z</time></trkpt><trkpt lat="39.7529967" lon="8.7578283"><ele>504.6</ele><time>2026-04-23T12:08:07.513Z</time></trkpt><trkpt lat="39.753065" lon="8.7579467"><ele>503.20000000000005</ele><time>2026-04-23T12:08:08.513Z</time></trkpt><trkpt lat="39.7531317" lon="8.758065"><ele>501.79999999999995</ele><time>2026-04-23T12:08:09.513Z</time></trkpt><trkpt lat="39.7531883" lon="8.7581733"><ele>500.4</ele><time>2026-04-23T12:08:10.514Z</time></trkpt><trkpt lat="39.7532483" lon="8.75827"><ele>499.0</ele><time>2026-04-23T12:08:11.513Z</time></trkpt><trkpt lat="39.753305" lon="8.7583583"><ele>499.0</ele><time>2026-04-23T12:08:12.513Z</time></trkpt><trkpt lat="39.75336" lon="8.7584317"><ele>499.0</ele><time>2026-04-23T12:08:13.514Z</time></trkpt><trkpt lat="39.7534117" lon="8.7584933"><ele>499.0</ele><time>2026-04-23T12:08:14.513Z</time></trkpt><trkpt lat="39.75345" lon="8.75856"><ele>499.0</ele><time>2026-04-23T12:08:15.514Z</time></trkpt><trkpt lat="39.753465" lon="8.7586967"><ele>499.0</ele><time>2026-04-23T12:08:17.514Z</time></trkpt><trkpt lat="39.753355" lon="8.7587967"><ele>496.5</ele><time>2026-04-23T12:08:19.514Z</time></trkpt><trkpt lat="39.753245" lon="8.7588283"><ele>494.0</ele><time>2026-04-23T12:08:20.514Z</time></trkpt><trkpt lat="39.7531217" lon="8.7588717"><ele>491.5</ele><time>2026-04-23T12:08:21.513Z</time></trkpt><trkpt lat="39.752995" lon="8.7589333"><ele>489.0</ele><time>2026-04-23T12:08:22.513Z</time></trkpt><trkpt lat="39.75287" lon="8.7590183"><ele>489.0</ele><time>2026-04-23T12:08:23.513Z</time></trkpt><trkpt lat="39.7527617" lon="8.75911"><ele>489.0</ele><time>2026-04-23T12:08:24.513Z</time></trkpt><trkpt lat="39.7526583" lon="8.7592017"><ele>489.0</ele><time>2026-04-23T12:08:25.514Z</time></trkpt><trkpt lat="39.752565" lon="8.7592983"><ele>489.0</ele><time>2026-04-23T12:08:26.514Z</time></trkpt><trkpt lat="39.7524883" lon="8.7594167"><ele>488.2</ele><time>2026-04-23T12:08:27.514Z</time></trkpt><trkpt lat="39.7524233" lon="8.7595483"><ele>487.4</ele><time>2026-04-23T12:08:28.513Z</time></trkpt><trkpt lat="39.7523633" lon="8.7596783"><ele>486.6</ele><time>2026-04-23T12:08:29.514Z</time></trkpt><trkpt lat="39.7523017" lon="8.759785"><ele>485.8</ele><time>2026-04-23T12:08:30.514Z</time></trkpt><trkpt lat="39.7522317" lon="8.7598633"><ele>485.0</ele><time>2026-04-23T12:08:31.514Z</time></trkpt><trkpt lat="39.7521417" lon="8.759925"><ele>485.0</ele><time>2026-04-23T12:08:32.514Z</time></trkpt><trkpt lat="39.7520317" lon="8.759985"><ele>485.0</ele><time>2026-04-23T12:08:33.513Z</time></trkpt><trkpt lat="39.7519283" lon="8.7600783"><ele>485.0</ele><time>2026-04-23T12:08:34.513Z</time></trkpt><trkpt lat="39.75184" lon="8.76018"><ele>485.0</ele><time>2026-04-23T12:08:35.513Z</time></trkpt><trkpt lat="39.7517567" lon="8.7602617"><ele>484.4</ele><time>2026-04-23T12:08:36.513Z</time></trkpt><trkpt lat="39.7516667" lon="8.7603183"><ele>483.8</ele><time>2026-04-23T12:08:37.513Z</time></trkpt><trkpt lat="39.7515683" lon="8.7603383"><ele>483.20000000000005</ele><time>2026-04-23T12:08:38.513Z</time></trkpt><trkpt lat="39.7514617" lon="8.7603483"><ele>482.6</ele><time>2026-04-23T12:08:39.513Z</time></trkpt><trkpt lat="39.7513433" lon="8.7603767"><ele>482.0</ele><time>2026-04-23T12:08:40.514Z</time></trkpt><trkpt lat="39.7512367" lon="8.7604217"><ele>481.99999999999994</ele><time>2026-04-23T12:08:41.513Z</time></trkpt><trkpt lat="39.7511483" lon="8.7604783"><ele>482.0</ele><time>2026-04-23T12:08:42.513Z</time></trkpt><trkpt lat="39.75108" lon="8.7605533"><ele>482.0</ele><time>2026-04-23T12:08:43.514Z</time></trkpt><trkpt lat="39.7510317" lon="8.7606433"><ele>482.0</ele><time>2026-04-23T12:08:44.514Z</time></trkpt><trkpt lat="39.751015" lon="8.760745"><ele>481.99999999999994</ele><time>2026-04-23T12:08:45.513Z</time></trkpt><trkpt lat="39.7510317" lon="8.76086"><ele>482.0</ele><time>2026-04-23T12:08:46.514Z</time></trkpt><trkpt lat="39.7510667" lon="8.760975"><ele>481.25</ele><time>2026-04-23T12:08:47.513Z</time></trkpt><trkpt lat="39.75111" lon="8.7611017"><ele>480.5</ele><time>2026-04-23T12:08:48.513Z</time></trkpt><trkpt lat="39.751155" lon="8.7612533"><ele>479.75</ele><time>2026-04-23T12:08:49.513Z</time></trkpt><trkpt lat="39.75119" lon="8.761405"><ele>479.0</ele><time>2026-04-23T12:08:50.513Z</time></trkpt><trkpt lat="39.75121" lon="8.7615517"><ele>479.0</ele><time>2026-04-23T12:08:51.514Z</time></trkpt><trkpt lat="39.7512417" lon="8.7617017"><ele>479.0</ele><time>2026-04-23T12:08:52.513Z</time></trkpt><trkpt lat="39.751285" lon="8.761855"><ele>479.0</ele><time>2026-04-23T12:08:53.513Z</time></trkpt><trkpt lat="39.7513383" lon="8.7620083"><ele>479.0</ele><time>2026-04-23T12:08:54.513Z</time></trkpt><trkpt lat="39.7513933" lon="8.762155"><ele>477.2</ele><time>2026-04-23T12:08:55.513Z</time></trkpt><trkpt lat="39.7514467" lon="8.7622817"><ele>475.4</ele><time>2026-04-23T12:08:56.513Z</time></trkpt><trkpt lat="39.751485" lon="8.7623983"><ele>473.6</ele><time>2026-04-23T12:08:57.513Z</time></trkpt><trkpt lat="39.7514983" lon="8.762515"><ele>471.8</ele><time>2026-04-23T12:08:58.513Z</time></trkpt><trkpt lat="39.7514933" lon="8.7626417"><ele>470.0</ele><time>2026-04-23T12:08:59.513Z</time></trkpt><trkpt lat="39.751485" lon="8.7627883"><ele>468.8</ele><time>2026-04-23T12:09:00.513Z</time></trkpt><trkpt lat="39.7514783" lon="8.7629317"><ele>467.6</ele><time>2026-04-23T12:09:01.514Z</time></trkpt><trkpt lat="39.7514717" lon="8.763075"><ele>466.4</ele><time>2026-04-23T12:09:02.513Z</time></trkpt><trkpt lat="39.7514833" lon="8.76321"><ele>465.2</ele><time>2026-04-23T12:09:03.514Z</time></trkpt><trkpt lat="39.7515067" lon="8.763325"><ele>464.0</ele><time>2026-04-23T12:09:04.513Z</time></trkpt><trkpt lat="39.7515433" lon="8.76342"><ele>464.0</ele><time>2026-04-23T12:09:05.513Z</time></trkpt><trkpt lat="39.75159" lon="8.76349"><ele>464.0</ele><time>2026-04-23T12:09:06.514Z</time></trkpt><trkpt lat="39.7516617" lon="8.7635367"><ele>464.0</ele><time>2026-04-23T12:09:07.514Z</time></trkpt><trkpt lat="39.7517467" lon="8.763575"><ele>464.0</ele><time>2026-04-23T12:09:08.514Z</time></trkpt><trkpt lat="39.7518517" lon="8.7635967"><ele>464.0</ele><time>2026-04-23T12:09:09.514Z</time></trkpt><trkpt lat="39.7519667" lon="8.76361"><ele>463.75</ele><time>2026-04-23T12:09:10.513Z</time></trkpt><trkpt lat="39.7520817" lon="8.7636183"><ele>463.5</ele><time>2026-04-23T12:09:11.514Z</time></trkpt><trkpt lat="39.752205" lon="8.763625"><ele>463.25</ele><time>2026-04-23T12:09:12.513Z</time></trkpt><trkpt lat="39.7523133" lon="8.7636283"><ele>463.0</ele><time>2026-04-23T12:09:13.513Z</time></trkpt><trkpt lat="39.75242" lon="8.76363"><ele>463.00000000000006</ele><time>2026-04-23T12:09:14.514Z</time></trkpt><trkpt lat="39.7525067" lon="8.7636383"><ele>463.0</ele><time>2026-04-23T12:09:15.514Z</time></trkpt><trkpt lat="39.7525783" lon="8.7636467"><ele>463.0</ele><time>2026-04-23T12:09:16.514Z</time></trkpt><trkpt lat="39.7526433" lon="8.7636567"><ele>463.0</ele><time>2026-04-23T12:09:17.514Z</time></trkpt><trkpt lat="39.7527067" lon="8.763685"><ele>463.00000000000006</ele><time>2026-04-23T12:09:18.514Z</time></trkpt><trkpt lat="39.7527883" lon="8.7637933"><ele>463.0</ele><time>2026-04-23T12:09:20.514Z</time></trkpt><trkpt lat="39.75279" lon="8.7638867"><ele>463.0</ele><time>2026-04-23T12:09:21.513Z</time></trkpt><trkpt lat="39.7527633" lon="8.7639783"><ele>462.99999999999994</ele><time>2026-04-23T12:09:22.513Z</time></trkpt><trkpt lat="39.7527033" lon="8.76407"><ele>462.99999999999994</ele><time>2026-04-23T12:09:23.513Z</time></trkpt><trkpt lat="39.75261" lon="8.7641617"><ele>463.0</ele><time>2026-04-23T12:09:24.513Z</time></trkpt><trkpt lat="39.7525083" lon="8.7642667"><ele>463.0</ele><time>2026-04-23T12:09:25.513Z</time></trkpt><trkpt lat="39.7524067" lon="8.76438"><ele>463.75</ele><time>2026-04-23T12:09:26.514Z</time></trkpt><trkpt lat="39.7523133" lon="8.76449"><ele>464.5</ele><time>2026-04-23T12:09:27.513Z</time></trkpt><trkpt lat="39.7522233" lon="8.7645883"><ele>465.25</ele><time>2026-04-23T12:09:28.513Z</time></trkpt><trkpt lat="39.7521233" lon="8.7646633"><ele>466.0</ele><time>2026-04-23T12:09:29.514Z</time></trkpt><trkpt lat="39.7520167" lon="8.76471"><ele>466.0</ele><time>2026-04-23T12:09:30.513Z</time></trkpt><trkpt lat="39.7519033" lon="8.76474"><ele>466.0</ele><time>2026-04-23T12:09:31.513Z</time></trkpt><trkpt lat="39.7517783" lon="8.764755"><ele>466.0</ele><time>2026-04-23T12:09:32.514Z</time></trkpt><trkpt lat="39.7516533" lon="8.7647883"><ele>466.0</ele><time>2026-04-23T12:09:33.514Z</time></trkpt><trkpt lat="39.7515233" lon="8.7648333"><ele>463.0</ele><time>2026-04-23T12:09:34.514Z</time></trkpt><trkpt lat="39.75139" lon="8.7648883"><ele>460.0</ele><time>2026-04-23T12:09:35.513Z</time></trkpt><trkpt lat="39.751265" lon="8.764945"><ele>457.0</ele><time>2026-04-23T12:09:36.514Z</time></trkpt><trkpt lat="39.7511417" lon="8.7650033"><ele>454.0</ele><time>2026-04-23T12:09:37.514Z</time></trkpt><trkpt lat="39.7510217" lon="8.765065"><ele>451.25</ele><time>2026-04-23T12:09:38.514Z</time></trkpt><trkpt lat="39.7509067" lon="8.765145"><ele>448.5</ele><time>2026-04-23T12:09:39.513Z</time></trkpt><trkpt lat="39.75079" lon="8.7652333"><ele>445.75</ele><time>2026-04-23T12:09:40.513Z</time></trkpt><trkpt lat="39.75068" lon="8.76536"><ele>443.0</ele><time>2026-04-23T12:09:41.513Z</time></trkpt><trkpt lat="39.7505667" lon="8.765515"><ele>443.0</ele><time>2026-04-23T12:09:42.514Z</time></trkpt><trkpt lat="39.75047" lon="8.7656867"><ele>443.0</ele><time>2026-04-23T12:09:43.514Z</time></trkpt><trkpt lat="39.7503717" lon="8.76586"><ele>443.0</ele><time>2026-04-23T12:09:44.513Z</time></trkpt><trkpt lat="39.7502767" lon="8.7660317"><ele>437.3333333333333</ele><time>2026-04-23T12:09:45.514Z</time></trkpt><trkpt lat="39.7501833" lon="8.7662"><ele>431.66666666666663</ele><time>2026-04-23T12:09:46.514Z</time></trkpt><trkpt lat="39.7500883" lon="8.7663717"><ele>426.0</ele><time>2026-04-23T12:09:47.513Z</time></trkpt><trkpt lat="39.74999" lon="8.766525"><ele>426.0</ele><time>2026-04-23T12:09:48.514Z</time></trkpt><trkpt lat="39.7498933" lon="8.76667"><ele>426.0</ele><time>2026-04-23T12:09:49.513Z</time></trkpt><trkpt lat="39.7497967" lon="8.7668017"><ele>426.0</ele><time>2026-04-23T12:09:50.514Z</time></trkpt><trkpt lat="39.749705" lon="8.7669283"><ele>426.0</ele><time>2026-04-23T12:09:51.514Z</time></trkpt><trkpt lat="39.7496017" lon="8.7670467"><ele>427.75</ele><time>2026-04-23T12:09:52.514Z</time></trkpt><trkpt lat="39.74949" lon="8.7671267"><ele>429.5</ele><time>2026-04-23T12:09:53.513Z</time></trkpt><trkpt lat="39.7493867" lon="8.7671883"><ele>431.25</ele><time>2026-04-23T12:09:54.514Z</time></trkpt><trkpt lat="39.7492833" lon="8.767265"><ele>433.0</ele><time>2026-04-23T12:09:55.513Z</time></trkpt><trkpt lat="39.7491833" lon="8.7673683"><ele>429.0</ele><time>2026-04-23T12:09:56.514Z</time></trkpt><trkpt lat="39.7491" lon="8.76749"><ele>425.0</ele><time>2026-04-23T12:09:57.513Z</time></trkpt><trkpt lat="39.74902" lon="8.7676083"><ele>421.0</ele><time>2026-04-23T12:09:58.514Z</time></trkpt><trkpt lat="39.7489267" lon="8.7677117"><ele>417.0</ele><time>2026-04-23T12:09:59.513Z</time></trkpt><trkpt lat="39.74882" lon="8.7678017"><ele>417.0</ele><time>2026-04-23T12:10:00.514Z</time></trkpt><trkpt lat="39.7487117" lon="8.7678633"><ele>417.0</ele><time>2026-04-23T12:10:01.514Z</time></trkpt><trkpt lat="39.7486117" lon="8.7679183"><ele>417.0</ele><time>2026-04-23T12:10:02.513Z</time></trkpt><trkpt lat="39.7485217" lon="8.7679717"><ele>417.0</ele><time>2026-04-23T12:10:03.514Z</time></trkpt><trkpt lat="39.748445" lon="8.7680233"><ele>417.0</ele><time>2026-04-23T12:10:04.514Z</time></trkpt><trkpt lat="39.74837" lon="8.7680583"><ele>413.8</ele><time>2026-04-23T12:10:05.513Z</time></trkpt><trkpt lat="39.7483017" lon="8.7680917"><ele>410.6</ele><time>2026-04-23T12:10:06.514Z</time></trkpt><trkpt lat="39.7481917" lon="8.768155"><ele>407.40000000000003</ele><time>2026-04-23T12:10:08.514Z</time></trkpt><trkpt lat="39.748115" lon="8.7682533"><ele>404.20000000000005</ele><time>2026-04-23T12:10:10.514Z</time></trkpt><trkpt lat="39.7481317" lon="8.7683883"><ele>401.0</ele><time>2026-04-23T12:10:12.513Z</time></trkpt><trkpt lat="39.7481817" lon="8.7684533"><ele>401.0</ele><time>2026-04-23T12:10:13.514Z</time></trkpt><trkpt lat="39.7482533" lon="8.76852"><ele>401.0</ele><time>2026-04-23T12:10:14.513Z</time></trkpt><trkpt lat="39.74835" lon="8.768595"><ele>401.0</ele><time>2026-04-23T12:10:15.514Z</time></trkpt><trkpt lat="39.7484517" lon="8.7686767"><ele>401.0</ele><time>2026-04-23T12:10:16.513Z</time></trkpt><trkpt lat="39.7485667" lon="8.7687533"><ele>401.0</ele><time>2026-04-23T12:10:17.513Z</time></trkpt><trkpt lat="39.7486733" lon="8.7688333"><ele>400.75</ele><time>2026-04-23T12:10:18.513Z</time></trkpt><trkpt lat="39.74878" lon="8.7689083"><ele>400.5</ele><time>2026-04-23T12:10:19.514Z</time></trkpt><trkpt lat="39.7488867" lon="8.76899"><ele>400.25</ele><time>2026-04-23T12:10:20.514Z</time></trkpt><trkpt lat="39.748985" lon="8.76909"><ele>400.0</ele><time>2026-04-23T12:10:21.514Z</time></trkpt><trkpt lat="39.7490767" lon="8.7691983"><ele>400.0</ele><time>2026-04-23T12:10:22.513Z</time></trkpt><trkpt lat="39.7491667" lon="8.769315"><ele>400.0</ele><time>2026-04-23T12:10:23.513Z</time></trkpt><trkpt lat="39.749255" lon="8.7694367"><ele>400.0</ele><time>2026-04-23T12:10:24.513Z</time></trkpt><trkpt lat="39.749345" lon="8.7695533"><ele>400.0</ele><time>2026-04-23T12:10:25.514Z</time></trkpt><trkpt lat="39.74943" lon="8.7696767"><ele>398.5</ele><time>2026-04-23T12:10:26.514Z</time></trkpt><trkpt lat="39.749515" lon="8.7698033"><ele>397.0</ele><time>2026-04-23T12:10:27.514Z</time></trkpt><trkpt lat="39.749595" lon="8.7699317"><ele>395.5</ele><time>2026-04-23T12:10:28.513Z</time></trkpt><trkpt lat="39.749675" lon="8.770065"><ele>394.0</ele><time>2026-04-23T12:10:29.513Z</time></trkpt><trkpt lat="39.74974" lon="8.7702083"><ele>391.75</ele><time>2026-04-23T12:10:30.513Z</time></trkpt><trkpt lat="39.7497933" lon="8.7703467"><ele>389.5</ele><time>2026-04-23T12:10:31.514Z</time></trkpt><trkpt lat="39.7498333" lon="8.7704933"><ele>387.25</ele><time>2026-04-23T12:10:32.513Z</time></trkpt><trkpt lat="39.74986" lon="8.770645"><ele>385.0</ele><time>2026-04-23T12:10:33.514Z</time></trkpt><trkpt lat="39.7498633" lon="8.7708117"><ele>385.0</ele><time>2026-04-23T12:10:34.513Z</time></trkpt><trkpt lat="39.7498533" lon="8.770985"><ele>385.0</ele><time>2026-04-23T12:10:35.513Z</time></trkpt><trkpt lat="39.74984" lon="8.7711617"><ele>385.0</ele><time>2026-04-23T12:10:36.513Z</time></trkpt><trkpt lat="39.7498167" lon="8.7713133"><ele>385.0</ele><time>2026-04-23T12:10:37.514Z</time></trkpt><trkpt lat="39.7497983" lon="8.7714683"><ele>384.4</ele><time>2026-04-23T12:10:38.514Z</time></trkpt><trkpt lat="39.7497833" lon="8.77161"><ele>383.8</ele><time>2026-04-23T12:10:39.513Z</time></trkpt><trkpt lat="39.74978" lon="8.7717517"><ele>383.20000000000005</ele><time>2026-04-23T12:10:40.514Z</time></trkpt><trkpt lat="39.7497967" lon="8.7718933"><ele>382.6</ele><time>2026-04-23T12:10:41.513Z</time></trkpt><trkpt lat="39.74983" lon="8.772035"><ele>382.0</ele><time>2026-04-23T12:10:42.514Z</time></trkpt><trkpt lat="39.7498817" lon="8.772165"><ele>381.0</ele><time>2026-04-23T12:10:43.514Z</time></trkpt><trkpt lat="39.7499467" lon="8.7722883"><ele>380.0</ele><time>2026-04-23T12:10:44.514Z</time></trkpt><trkpt lat="39.7500117" lon="8.7724033"><ele>379.0</ele><time>2026-04-23T12:10:45.513Z</time></trkpt><trkpt lat="39.7500617" lon="8.7725267"><ele>378.0</ele><time>2026-04-23T12:10:46.514Z</time></trkpt><trkpt lat="39.7500833" lon="8.7726517"><ele>377.0</ele><time>2026-04-23T12:10:47.513Z</time></trkpt><trkpt lat="39.7500833" lon="8.7727833"><ele>376.40000000000003</ele><time>2026-04-23T12:10:48.513Z</time></trkpt><trkpt lat="39.7500583" lon="8.7729217"><ele>375.8</ele><time>2026-04-23T12:10:49.513Z</time></trkpt><trkpt lat="39.7500083" lon="8.7730467"><ele>375.2</ele><time>2026-04-23T12:10:50.514Z</time></trkpt><trkpt lat="39.7499467" lon="8.773155"><ele>374.6</ele><time>2026-04-23T12:10:51.514Z</time></trkpt><trkpt lat="39.7498683" lon="8.7732383"><ele>374.0</ele><time>2026-04-23T12:10:52.514Z</time></trkpt><trkpt lat="39.7497833" lon="8.7733033"><ele>374.0</ele><time>2026-04-23T12:10:53.513Z</time></trkpt><trkpt lat="39.749695" lon="8.7733567"><ele>374.0</ele><time>2026-04-23T12:10:54.514Z</time></trkpt><trkpt lat="39.7496167" lon="8.773395"><ele>374.0</ele><time>2026-04-23T12:10:55.513Z</time></trkpt><trkpt lat="39.7495417" lon="8.7734233"><ele>374.0</ele><time>2026-04-23T12:10:56.513Z</time></trkpt><trkpt lat="39.7494733" lon="8.7734483"><ele>374.0</ele><time>2026-04-23T12:10:57.514Z</time></trkpt><trkpt lat="39.74941" lon="8.77348"><ele>374.0</ele><time>2026-04-23T12:10:58.513Z</time></trkpt><trkpt lat="39.7493033" lon="8.7735867"><ele>370.79999999999995</ele><time>2026-04-23T12:11:00.514Z</time></trkpt><trkpt lat="39.74925" lon="8.7736733"><ele>367.59999999999997</ele><time>2026-04-23T12:11:01.514Z</time></trkpt><trkpt lat="39.749205" lon="8.7737817"><ele>364.4</ele><time>2026-04-23T12:11:02.514Z</time></trkpt><trkpt lat="39.7491617" lon="8.7739017"><ele>361.2</ele><time>2026-04-23T12:11:03.514Z</time></trkpt><trkpt lat="39.7491083" lon="8.7740367"><ele>358.0</ele><time>2026-04-23T12:11:04.514Z</time></trkpt><trkpt lat="39.7490483" lon="8.7741817"><ele>358.0</ele><time>2026-04-23T12:11:05.513Z</time></trkpt><trkpt lat="39.7489633" lon="8.7743233"><ele>358.0</ele><time>2026-04-23T12:11:06.514Z</time></trkpt><trkpt lat="39.7488817" lon="8.7744667"><ele>358.0</ele><time>2026-04-23T12:11:07.513Z</time></trkpt><trkpt lat="39.7488117" lon="8.774595"><ele>358.0</ele><time>2026-04-23T12:11:08.513Z</time></trkpt><trkpt lat="39.74876" lon="8.7747383"><ele>358.5</ele><time>2026-04-23T12:11:09.513Z</time></trkpt><trkpt lat="39.7487417" lon="8.7748883"><ele>359.0</ele><time>2026-04-23T12:11:10.513Z</time></trkpt><trkpt lat="39.7487533" lon="8.7750467"><ele>359.5</ele><time>2026-04-23T12:11:11.513Z</time></trkpt><trkpt lat="39.7488017" lon="8.7751933"><ele>360.0</ele><time>2026-04-23T12:11:12.513Z</time></trkpt><trkpt lat="39.7488667" lon="8.7753233"><ele>356.0</ele><time>2026-04-23T12:11:13.513Z</time></trkpt><trkpt lat="39.7489633" lon="8.77542"><ele>352.0</ele><time>2026-04-23T12:11:14.513Z</time></trkpt><trkpt lat="39.7490817" lon="8.77548"><ele>348.0</ele><time>2026-04-23T12:11:15.514Z</time></trkpt><trkpt lat="39.7492083" lon="8.7755117"><ele>344.0</ele><time>2026-04-23T12:11:16.513Z</time></trkpt><trkpt lat="39.7493417" lon="8.7755533"><ele>348.75</ele><time>2026-04-23T12:11:17.514Z</time></trkpt><trkpt lat="39.74948" lon="8.775605"><ele>353.5</ele><time>2026-04-23T12:11:18.514Z</time></trkpt><trkpt lat="39.7496083" lon="8.7756817"><ele>358.25</ele><time>2026-04-23T12:11:19.514Z</time></trkpt><trkpt lat="39.7497267" lon="8.775765"><ele>363.0</ele><time>2026-04-23T12:11:20.514Z</time></trkpt><trkpt lat="39.7498317" lon="8.7758717"><ele>363.0</ele><time>2026-04-23T12:11:21.514Z</time></trkpt><trkpt lat="39.749915" lon="8.7760083"><ele>363.0</ele><time>2026-04-23T12:11:22.513Z</time></trkpt><trkpt lat="39.74996" lon="8.77617"><ele>363.0</ele><time>2026-04-23T12:11:23.514Z</time></trkpt><trkpt lat="39.749985" lon="8.7763433"><ele>363.0</ele><time>2026-04-23T12:11:24.514Z</time></trkpt><trkpt lat="39.7500067" lon="8.7765067"><ele>360.5</ele><time>2026-04-23T12:11:25.514Z</time></trkpt><trkpt lat="39.7500367" lon="8.7766583"><ele>358.0</ele><time>2026-04-23T12:11:26.513Z</time></trkpt><trkpt lat="39.7500833" lon="8.7767933"><ele>355.5</ele><time>2026-04-23T12:11:27.513Z</time></trkpt><trkpt lat="39.7501617" lon="8.7768983"><ele>353.0</ele><time>2026-04-23T12:11:28.513Z</time></trkpt><trkpt lat="39.7502567" lon="8.7769683"><ele>349.25</ele><time>2026-04-23T12:11:29.514Z</time></trkpt><trkpt lat="39.7503667" lon="8.7769833"><ele>345.5</ele><time>2026-04-23T12:11:30.513Z</time></trkpt><trkpt lat="39.75049" lon="8.77696"><ele>341.75</ele><time>2026-04-23T12:11:31.513Z</time></trkpt><trkpt lat="39.7506267" lon="8.77693"><ele>338.0</ele><time>2026-04-23T12:11:32.513Z</time></trkpt><trkpt lat="39.7507767" lon="8.7769317"><ele>338.0</ele><time>2026-04-23T12:11:33.514Z</time></trkpt><trkpt lat="39.750935" lon="8.7769733"><ele>338.0</ele><time>2026-04-23T12:11:34.513Z</time></trkpt><trkpt lat="39.751095" lon="8.7770283"><ele>338.0</ele><time>2026-04-23T12:11:35.514Z</time></trkpt><trkpt lat="39.7512483" lon="8.77707"><ele>336.33333333333337</ele><time>2026-04-23T12:11:36.514Z</time></trkpt><trkpt lat="39.7514017" lon="8.7771233"><ele>334.6666666666667</ele><time>2026-04-23T12:11:37.513Z</time></trkpt><trkpt lat="39.75155" lon="8.7771667"><ele>333.0</ele><time>2026-04-23T12:11:38.514Z</time></trkpt><trkpt lat="39.75169" lon="8.7772067"><ele>333.0</ele><time>2026-04-23T12:11:39.514Z</time></trkpt><trkpt lat="39.7518283" lon="8.777235"><ele>333.0</ele><time>2026-04-23T12:11:40.514Z</time></trkpt><trkpt lat="39.7519733" lon="8.7772367"><ele>333.0</ele><time>2026-04-23T12:11:41.514Z</time></trkpt><trkpt lat="39.7521233" lon="8.777215"><ele>333.0</ele><time>2026-04-23T12:11:42.513Z</time></trkpt><trkpt lat="39.7522817" lon="8.77716"><ele>331.6666666666667</ele><time>2026-04-23T12:11:43.513Z</time></trkpt><trkpt lat="39.75244" lon="8.7771"><ele>330.33333333333337</ele><time>2026-04-23T12:11:44.513Z</time></trkpt><trkpt lat="39.7526083" lon="8.777055"><ele>329.0</ele><time>2026-04-23T12:11:45.514Z</time></trkpt><trkpt lat="39.7527767" lon="8.7770417"><ele>328.0</ele><time>2026-04-23T12:11:46.514Z</time></trkpt><trkpt lat="39.7529433" lon="8.7770633"><ele>327.0</ele><time>2026-04-23T12:11:47.513Z</time></trkpt><trkpt lat="39.7531167" lon="8.7770933"><ele>326.0</ele><time>2026-04-23T12:11:48.514Z</time></trkpt><trkpt lat="39.7532767" lon="8.7771217"><ele>326.0</ele><time>2026-04-23T12:11:49.514Z</time></trkpt><trkpt lat="39.7534317" lon="8.7771433"><ele>326.0</ele><time>2026-04-23T12:11:50.513Z</time></trkpt><trkpt lat="39.7535833" lon="8.7771567"><ele>326.0</ele><time>2026-04-23T12:11:51.513Z</time></trkpt><trkpt lat="39.753735" lon="8.7771733"><ele>329.0</ele><time>2026-04-23T12:11:52.513Z</time></trkpt><trkpt lat="39.7538683" lon="8.7772167"><ele>332.0</ele><time>2026-04-23T12:11:53.514Z</time></trkpt><trkpt lat="39.7539917" lon="8.7772817"><ele>335.0</ele><time>2026-04-23T12:11:54.513Z</time></trkpt><trkpt lat="39.7540933" lon="8.7773733"><ele>338.0</ele><time>2026-04-23T12:11:55.514Z</time></trkpt><trkpt lat="39.75416" lon="8.7774983"><ele>338.0</ele><time>2026-04-23T12:11:56.513Z</time></trkpt><trkpt lat="39.75419" lon="8.7776433"><ele>338.0</ele><time>2026-04-23T12:11:57.513Z</time></trkpt><trkpt lat="39.7541867" lon="8.7778017"><ele>338.0</ele><time>2026-04-23T12:11:58.513Z</time></trkpt><trkpt lat="39.75415" lon="8.7779633"><ele>338.0</ele><time>2026-04-23T12:11:59.513Z</time></trkpt><trkpt lat="39.754105" lon="8.7781317"><ele>337.25</ele><time>2026-04-23T12:12:00.513Z</time></trkpt><trkpt lat="39.75407" lon="8.7783033"><ele>336.5</ele><time>2026-04-23T12:12:01.514Z</time></trkpt><trkpt lat="39.75405" lon="8.77846"><ele>335.75</ele><time>2026-04-23T12:12:02.513Z</time></trkpt><trkpt lat="39.7540733" lon="8.7786317"><ele>335.0</ele><time>2026-04-23T12:12:03.513Z</time></trkpt><trkpt lat="39.7541067" lon="8.7787967"><ele>333.5</ele><time>2026-04-23T12:12:04.513Z</time></trkpt><trkpt lat="39.7541567" lon="8.7789633"><ele>332.0</ele><time>2026-04-23T12:12:05.513Z</time></trkpt><trkpt lat="39.7542033" lon="8.7791433"><ele>330.5</ele><time>2026-04-23T12:12:06.513Z</time></trkpt><trkpt lat="39.7542533" lon="8.779305"><ele>329.0</ele><time>2026-04-23T12:12:07.513Z</time></trkpt><trkpt lat="39.7542917" lon="8.7794617"><ele>328.5</ele><time>2026-04-23T12:12:08.513Z</time></trkpt><trkpt lat="39.7543383" lon="8.7795983"><ele>328.0</ele><time>2026-04-23T12:12:09.513Z</time></trkpt><trkpt lat="39.7543983" lon="8.7797233"><ele>327.5</ele><time>2026-04-23T12:12:10.513Z</time></trkpt><trkpt lat="39.7544817" lon="8.7798217"><ele>327.0</ele><time>2026-04-23T12:12:11.514Z</time></trkpt><trkpt lat="39.7545867" lon="8.7798983"><ele>327.0</ele><time>2026-04-23T12:12:12.513Z</time></trkpt><trkpt lat="39.7547133" lon="8.7799367"><ele>327.0</ele><time>2026-04-23T12:12:13.514Z</time></trkpt><trkpt lat="39.7548533" lon="8.779945"><ele>327.0</ele><time>2026-04-23T12:12:14.514Z</time></trkpt><trkpt lat="39.7550033" lon="8.7799433"><ele>327.0</ele><time>2026-04-23T12:12:15.514Z</time></trkpt><trkpt lat="39.7551583" lon="8.779935"><ele>326.75</ele><time>2026-04-23T12:12:16.514Z</time></trkpt><trkpt lat="39.755295" lon="8.7799133"><ele>326.5</ele><time>2026-04-23T12:12:17.514Z</time></trkpt><trkpt lat="39.7554233" lon="8.7798867"><ele>326.25</ele><time>2026-04-23T12:12:18.514Z</time></trkpt><trkpt lat="39.7555617" lon="8.7798683"><ele>326.0</ele><time>2026-04-23T12:12:19.514Z</time></trkpt><trkpt lat="39.755695" lon="8.7799"><ele>326.0</ele><time>2026-04-23T12:12:20.514Z</time></trkpt><trkpt lat="39.7558217" lon="8.7799767"><ele>326.0</ele><time>2026-04-23T12:12:21.513Z</time></trkpt><trkpt lat="39.755945" lon="8.7800783"><ele>326.0</ele><time>2026-04-23T12:12:22.514Z</time></trkpt><trkpt lat="39.7560517" lon="8.78019"><ele>326.0</ele><time>2026-04-23T12:12:23.513Z</time></trkpt><trkpt lat="39.756145" lon="8.7803083"><ele>323.0</ele><time>2026-04-23T12:12:24.514Z</time></trkpt><trkpt lat="39.7562283" lon="8.7804233"><ele>320.0</ele><time>2026-04-23T12:12:25.514Z</time></trkpt><trkpt lat="39.7563167" lon="8.7805317"><ele>317.0</ele><time>2026-04-23T12:12:26.514Z</time></trkpt><trkpt lat="39.75641" lon="8.7806433"><ele>314.0</ele><time>2026-04-23T12:12:27.513Z</time></trkpt><trkpt lat="39.7565217" lon="8.7807417"><ele>314.0</ele><time>2026-04-23T12:12:28.514Z</time></trkpt><trkpt lat="39.756645" lon="8.7808117"><ele>314.0</ele><time>2026-04-23T12:12:29.513Z</time></trkpt><trkpt lat="39.7567733" lon="8.7808267"><ele>314.0</ele><time>2026-04-23T12:12:30.514Z</time></trkpt><trkpt lat="39.756905" lon="8.78078"><ele>314.0</ele><time>2026-04-23T12:12:31.513Z</time></trkpt><trkpt lat="39.7570417" lon="8.7807"><ele>311.6666666666667</ele><time>2026-04-23T12:12:32.514Z</time></trkpt><trkpt lat="39.7571833" lon="8.7805967"><ele>309.3333333333333</ele><time>2026-04-23T12:12:33.513Z</time></trkpt><trkpt lat="39.7573133" lon="8.7804883"><ele>307.0</ele><time>2026-04-23T12:12:34.514Z</time></trkpt><trkpt lat="39.7574333" lon="8.7803833"><ele>307.0</ele><time>2026-04-23T12:12:35.513Z</time></trkpt><trkpt lat="39.7575533" lon="8.7802967"><ele>307.0</ele><time>2026-04-23T12:12:36.513Z</time></trkpt><trkpt lat="39.7576817" lon="8.780245"><ele>307.0</ele><time>2026-04-23T12:12:37.513Z</time></trkpt><trkpt lat="39.75782" lon="8.780255"><ele>307.0</ele><time>2026-04-23T12:12:38.513Z</time></trkpt><trkpt lat="39.7579567" lon="8.78031"><ele>308.3333333333333</ele><time>2026-04-23T12:12:39.513Z</time></trkpt><trkpt lat="39.75808" lon="8.78043"><ele>309.6666666666667</ele><time>2026-04-23T12:12:40.514Z</time></trkpt><trkpt lat="39.7581917" lon="8.7805917"><ele>311.0</ele><time>2026-04-23T12:12:41.514Z</time></trkpt><trkpt lat="39.758295" lon="8.7807583"><ele>311.0</ele><time>2026-04-23T12:12:42.513Z</time></trkpt><trkpt lat="39.7584133" lon="8.7809133"><ele>311.0</ele><time>2026-04-23T12:12:43.513Z</time></trkpt><trkpt lat="39.75853" lon="8.781045"><ele>311.0</ele><time>2026-04-23T12:12:44.514Z</time></trkpt><trkpt lat="39.7586333" lon="8.781165"><ele>311.0</ele><time>2026-04-23T12:12:45.513Z</time></trkpt><trkpt lat="39.7587217" lon="8.7812983"><ele>311.0</ele><time>2026-04-23T12:12:46.514Z</time></trkpt><trkpt lat="39.7587733" lon="8.7814417"><ele>311.0</ele><time>2026-04-23T12:12:47.513Z</time></trkpt><trkpt lat="39.7588017" lon="8.7816033"><ele>311.0</ele><time>2026-04-23T12:12:48.514Z</time></trkpt><trkpt lat="39.7588317" lon="8.7817483"><ele>306.5</ele><time>2026-04-23T12:12:49.513Z</time></trkpt><trkpt lat="39.7589017" lon="8.7818633"><ele>302.0</ele><time>2026-04-23T12:12:50.514Z</time></trkpt><trkpt lat="39.7589967" lon="8.781955"><ele>297.5</ele><time>2026-04-23T12:12:51.514Z</time></trkpt><trkpt lat="39.7591117" lon="8.782015"><ele>293.0</ele><time>2026-04-23T12:12:52.513Z</time></trkpt><trkpt lat="39.75924" lon="8.7820383"><ele>294.0</ele><time>2026-04-23T12:12:53.513Z</time></trkpt><trkpt lat="39.759385" lon="8.7820333"><ele>295.0</ele><time>2026-04-23T12:12:54.513Z</time></trkpt><trkpt lat="39.7595317" lon="8.7820233"><ele>296.0</ele><time>2026-04-23T12:12:55.514Z</time></trkpt><trkpt lat="39.759695" lon="8.7820067"><ele>296.0</ele><time>2026-04-23T12:12:56.513Z</time></trkpt><trkpt lat="39.7598617" lon="8.7819917"><ele>296.0</ele><time>2026-04-23T12:12:57.514Z</time></trkpt><trkpt lat="39.760035" lon="8.7819667"><ele>296.0</ele><time>2026-04-23T12:12:58.514Z</time></trkpt><trkpt lat="39.7602017" lon="8.7819333"><ele>297.75</ele><time>2026-04-23T12:12:59.513Z</time></trkpt><trkpt lat="39.7603617" lon="8.7819083"><ele>299.5</ele><time>2026-04-23T12:13:00.513Z</time></trkpt><trkpt lat="39.7605083" lon="8.7819067"><ele>301.25</ele><time>2026-04-23T12:13:01.514Z</time></trkpt><trkpt lat="39.7606433" lon="8.7819317"><ele>303.0</ele><time>2026-04-23T12:13:02.513Z</time></trkpt><trkpt lat="39.760775" lon="8.7820083"><ele>303.0</ele><time>2026-04-23T12:13:03.513Z</time></trkpt><trkpt lat="39.7608983" lon="8.7821067"><ele>303.0</ele><time>2026-04-23T12:13:04.514Z</time></trkpt><trkpt lat="39.76103" lon="8.7821967"><ele>303.0</ele><time>2026-04-23T12:13:05.514Z</time></trkpt><trkpt lat="39.7611733" lon="8.782245"><ele>303.0</ele><time>2026-04-23T12:13:06.513Z</time></trkpt><trkpt lat="39.7613217" lon="8.7822467"><ele>304.0</ele><time>2026-04-23T12:13:07.513Z</time></trkpt><trkpt lat="39.7614783" lon="8.782215"><ele>305.0</ele><time>2026-04-23T12:13:08.513Z</time></trkpt><trkpt lat="39.7616333" lon="8.78218"><ele>306.0</ele><time>2026-04-23T12:13:09.513Z</time></trkpt><trkpt lat="39.76178" lon="8.7821367"><ele>305.75</ele><time>2026-04-23T12:13:10.514Z</time></trkpt><trkpt lat="39.7619267" lon="8.7821033"><ele>305.5</ele><time>2026-04-23T12:13:11.513Z</time></trkpt><trkpt lat="39.7620567" lon="8.782065"><ele>305.25</ele><time>2026-04-23T12:13:12.513Z</time></trkpt><trkpt lat="39.7621833" lon="8.7820217"><ele>305.0</ele><time>2026-04-23T12:13:13.512Z</time></trkpt><trkpt lat="39.7623117" lon="8.7820217"><ele>305.0</ele><time>2026-04-23T12:13:14.512Z</time></trkpt><trkpt lat="39.7624367" lon="8.7820367"><ele>305.0</ele><time>2026-04-23T12:13:15.512Z</time></trkpt><trkpt lat="39.76255" lon="8.7821033"><ele>305.0</ele><time>2026-04-23T12:13:16.512Z</time></trkpt><trkpt lat="39.7626317" lon="8.7822183"><ele>305.0</ele><time>2026-04-23T12:13:17.512Z</time></trkpt><trkpt lat="39.7626967" lon="8.7823533"><ele>304.75</ele><time>2026-04-23T12:13:18.513Z</time></trkpt><trkpt lat="39.7627417" lon="8.7825083"><ele>304.5</ele><time>2026-04-23T12:13:19.513Z</time></trkpt><trkpt lat="39.7627567" lon="8.7826767"><ele>304.25</ele><time>2026-04-23T12:13:20.512Z</time></trkpt><trkpt lat="39.7627383" lon="8.7828633"><ele>304.0</ele><time>2026-04-23T12:13:21.513Z</time></trkpt><trkpt lat="39.76269" lon="8.78305"><ele>304.0</ele><time>2026-04-23T12:13:22.512Z</time></trkpt><trkpt lat="39.7626183" lon="8.783245"><ele>304.0</ele><time>2026-04-23T12:13:23.512Z</time></trkpt><trkpt lat="39.7625517" lon="8.7834467"><ele>304.0</ele><time>2026-04-23T12:13:24.513Z</time></trkpt><trkpt lat="39.762485" lon="8.7836583"><ele>309.0</ele><time>2026-04-23T12:13:25.513Z</time></trkpt><trkpt lat="39.7624133" lon="8.7838617"><ele>314.0</ele><time>2026-04-23T12:13:26.512Z</time></trkpt><trkpt lat="39.76233" lon="8.7840683"><ele>319.0</ele><time>2026-04-23T12:13:27.513Z</time></trkpt><trkpt lat="39.7622233" lon="8.7842467"><ele>320.3333333333333</ele><time>2026-04-23T12:13:28.512Z</time></trkpt><trkpt lat="39.76212" lon="8.7844183"><ele>321.6666666666667</ele><time>2026-04-23T12:13:29.513Z</time></trkpt><trkpt lat="39.762035" lon="8.7846"><ele>323.0</ele><time>2026-04-23T12:13:30.512Z</time></trkpt><trkpt lat="39.7619617" lon="8.7847633"><ele>323.0</ele><time>2026-04-23T12:13:31.513Z</time></trkpt><trkpt lat="39.7619" lon="8.7849267"><ele>323.0</ele><time>2026-04-23T12:13:32.513Z</time></trkpt><trkpt lat="39.761855" lon="8.7850833"><ele>323.0</ele><time>2026-04-23T12:13:33.513Z</time></trkpt><trkpt lat="39.76184" lon="8.7852433"><ele>323.0</ele><time>2026-04-23T12:13:34.512Z</time></trkpt><trkpt lat="39.76186" lon="8.78541"><ele>319.0</ele><time>2026-04-23T12:13:35.513Z</time></trkpt><trkpt lat="39.7619183" lon="8.7855583"><ele>315.0</ele><time>2026-04-23T12:13:36.513Z</time></trkpt><trkpt lat="39.7620117" lon="8.785685"><ele>311.0</ele><time>2026-04-23T12:13:37.512Z</time></trkpt><trkpt lat="39.7621367" lon="8.7857883"><ele>307.0</ele><time>2026-04-23T12:13:38.513Z</time></trkpt><trkpt lat="39.762275" lon="8.7858783"><ele>307.0</ele><time>2026-04-23T12:13:39.513Z</time></trkpt><trkpt lat="39.762415" lon="8.7859683"><ele>307.0</ele><time>2026-04-23T12:13:40.513Z</time></trkpt><trkpt lat="39.7625533" lon="8.786035"><ele>307.0</ele><time>2026-04-23T12:13:41.513Z</time></trkpt><trkpt lat="39.762695" lon="8.786065"><ele>307.0</ele><time>2026-04-23T12:13:42.512Z</time></trkpt><trkpt lat="39.7628317" lon="8.7860533"><ele>307.0</ele><time>2026-04-23T12:13:43.513Z</time></trkpt><trkpt lat="39.76295" lon="8.7860567"><ele>307.0</ele><time>2026-04-23T12:13:44.513Z</time></trkpt><trkpt lat="39.7630533" lon="8.7861"><ele>307.0</ele><time>2026-04-23T12:13:45.512Z</time></trkpt><trkpt lat="39.7631383" lon="8.7861833"><ele>307.0</ele><time>2026-04-23T12:13:46.512Z</time></trkpt><trkpt lat="39.7631833" lon="8.7863067"><ele>307.0</ele><time>2026-04-23T12:13:47.512Z</time></trkpt><trkpt lat="39.7631933" lon="8.7864467"><ele>307.0</ele><time>2026-04-23T12:13:48.513Z</time></trkpt><trkpt lat="39.7631667" lon="8.7865983"><ele>307.0</ele><time>2026-04-23T12:13:49.513Z</time></trkpt><trkpt lat="39.7631083" lon="8.7867533"><ele>307.0</ele><time>2026-04-23T12:13:50.512Z</time></trkpt><trkpt lat="39.763045" lon="8.78692"><ele>307.0</ele><time>2026-04-23T12:13:51.513Z</time></trkpt><trkpt lat="39.7629783" lon="8.7870867"><ele>309.0</ele><time>2026-04-23T12:13:52.512Z</time></trkpt><trkpt lat="39.762895" lon="8.787255"><ele>311.0</ele><time>2026-04-23T12:13:53.513Z</time></trkpt><trkpt lat="39.762785" lon="8.787415"><ele>313.0</ele><time>2026-04-23T12:13:54.512Z</time></trkpt><trkpt lat="39.7626667" lon="8.78755"><ele>309.25</ele><time>2026-04-23T12:13:55.512Z</time></trkpt><trkpt lat="39.7625417" lon="8.787655"><ele>305.5</ele><time>2026-04-23T12:13:56.513Z</time></trkpt><trkpt lat="39.7624033" lon="8.7877233"><ele>301.75</ele><time>2026-04-23T12:13:57.513Z</time></trkpt><trkpt lat="39.76226" lon="8.787765"><ele>298.0</ele><time>2026-04-23T12:13:58.513Z</time></trkpt><trkpt lat="39.7621133" lon="8.78779"><ele>298.0</ele><time>2026-04-23T12:13:59.512Z</time></trkpt><trkpt lat="39.76198" lon="8.787815"><ele>298.0</ele><time>2026-04-23T12:14:00.512Z</time></trkpt><trkpt lat="39.7618583" lon="8.787855"><ele>298.0</ele><time>2026-04-23T12:14:01.513Z</time></trkpt><trkpt lat="39.761745" lon="8.7879217"><ele>298.0</ele><time>2026-04-23T12:14:02.512Z</time></trkpt><trkpt lat="39.7616633" lon="8.7880333"><ele>294.25</ele><time>2026-04-23T12:14:03.512Z</time></trkpt><trkpt lat="39.76162" lon="8.788175"><ele>290.5</ele><time>2026-04-23T12:14:04.513Z</time></trkpt><trkpt lat="39.7616133" lon="8.7883317"><ele>286.75</ele><time>2026-04-23T12:14:05.512Z</time></trkpt><trkpt lat="39.761645" lon="8.78849"><ele>283.0</ele><time>2026-04-23T12:14:06.513Z</time></trkpt><trkpt lat="39.7617067" lon="8.7886433"><ele>281.5</ele><time>2026-04-23T12:14:07.512Z</time></trkpt><trkpt lat="39.7617917" lon="8.7887917"><ele>280.0</ele><time>2026-04-23T12:14:08.513Z</time></trkpt><trkpt lat="39.76188" lon="8.7889433"><ele>278.5</ele><time>2026-04-23T12:14:09.513Z</time></trkpt><trkpt lat="39.761955" lon="8.789085"><ele>277.0</ele><time>2026-04-23T12:14:10.513Z</time></trkpt><trkpt lat="39.7619983" lon="8.7892417"><ele>276.5</ele><time>2026-04-23T12:14:11.513Z</time></trkpt><trkpt lat="39.762005" lon="8.7894133"><ele>276.0</ele><time>2026-04-23T12:14:12.513Z</time></trkpt><trkpt lat="39.76197" lon="8.78959"><ele>275.5</ele><time>2026-04-23T12:14:13.512Z</time></trkpt><trkpt lat="39.7619033" lon="8.7897633"><ele>275.0</ele><time>2026-04-23T12:14:14.513Z</time></trkpt><trkpt lat="39.7618267" lon="8.7899283"><ele>275.0</ele><time>2026-04-23T12:14:15.512Z</time></trkpt><trkpt lat="39.7617583" lon="8.7900833"><ele>275.0</ele><time>2026-04-23T12:14:16.512Z</time></trkpt><trkpt lat="39.7616767" lon="8.7902183"><ele>275.0</ele><time>2026-04-23T12:14:17.512Z</time></trkpt><trkpt lat="39.7615767" lon="8.7903283"><ele>275.0</ele><time>2026-04-23T12:14:18.512Z</time></trkpt><trkpt lat="39.7614817" lon="8.79043"><ele>276.0</ele><time>2026-04-23T12:14:19.512Z</time></trkpt><trkpt lat="39.7613967" lon="8.7905367"><ele>277.0</ele><time>2026-04-23T12:14:20.512Z</time></trkpt><trkpt lat="39.7613283" lon="8.7906617"><ele>278.0</ele><time>2026-04-23T12:14:21.512Z</time></trkpt><trkpt lat="39.761285" lon="8.790815"><ele>279.0</ele><time>2026-04-23T12:14:22.513Z</time></trkpt><trkpt lat="39.7612817" lon="8.7909767"><ele>276.5</ele><time>2026-04-23T12:14:23.512Z</time></trkpt><trkpt lat="39.7613133" lon="8.791135"><ele>274.0</ele><time>2026-04-23T12:14:24.513Z</time></trkpt><trkpt lat="39.76138" lon="8.7912867"><ele>271.5</ele><time>2026-04-23T12:14:25.512Z</time></trkpt><trkpt lat="39.76147" lon="8.79144"><ele>269.0</ele><time>2026-04-23T12:14:26.512Z</time></trkpt><trkpt lat="39.7615683" lon="8.7915967"><ele>269.0</ele><time>2026-04-23T12:14:27.513Z</time></trkpt><trkpt lat="39.7616667" lon="8.7917533"><ele>269.0</ele><time>2026-04-23T12:14:28.513Z</time></trkpt><trkpt lat="39.761755" lon="8.7919117"><ele>269.0</ele><time>2026-04-23T12:14:29.513Z</time></trkpt><trkpt lat="39.7618083" lon="8.7920933"><ele>266.0</ele><time>2026-04-23T12:14:30.512Z</time></trkpt><trkpt lat="39.761825" lon="8.7922967"><ele>263.0</ele><time>2026-04-23T12:14:31.512Z</time></trkpt><trkpt lat="39.76182" lon="8.792505"><ele>260.0</ele><time>2026-04-23T12:14:32.513Z</time></trkpt><trkpt lat="39.7617917" lon="8.7927117"><ele>257.0</ele><time>2026-04-23T12:14:33.513Z</time></trkpt><trkpt lat="39.761785" lon="8.7929117"><ele>254.0</ele><time>2026-04-23T12:14:34.513Z</time></trkpt><trkpt lat="39.7617983" lon="8.7931083"><ele>251.0</ele><time>2026-04-23T12:14:35.513Z</time></trkpt><trkpt lat="39.7618333" lon="8.7932967"><ele>252.25</ele><time>2026-04-23T12:14:36.512Z</time></trkpt><trkpt lat="39.761885" lon="8.793475"><ele>253.5</ele><time>2026-04-23T12:14:37.512Z</time></trkpt><trkpt lat="39.7619183" lon="8.79366"><ele>254.75</ele><time>2026-04-23T12:14:38.512Z</time></trkpt><trkpt lat="39.761915" lon="8.7938533"><ele>256.0</ele><time>2026-04-23T12:14:39.513Z</time></trkpt><trkpt lat="39.7618717" lon="8.794045"><ele>255.0</ele><time>2026-04-23T12:14:40.512Z</time></trkpt><trkpt lat="39.761795" lon="8.79423"><ele>254.0</ele><time>2026-04-23T12:14:41.512Z</time></trkpt><trkpt lat="39.7617" lon="8.79439"><ele>253.0</ele><time>2026-04-23T12:14:42.513Z</time></trkpt><trkpt lat="39.7615717" lon="8.7945217"><ele>253.0</ele><time>2026-04-23T12:14:43.513Z</time></trkpt><trkpt lat="39.7614383" lon="8.7946317"><ele>253.0</ele><time>2026-04-23T12:14:44.512Z</time></trkpt><trkpt lat="39.7613167" lon="8.794765"><ele>253.0</ele><time>2026-04-23T12:14:45.512Z</time></trkpt><trkpt lat="39.7612083" lon="8.7949317"><ele>253.0</ele><time>2026-04-23T12:14:46.513Z</time></trkpt><trkpt lat="39.7611217" lon="8.79512"><ele>253.0</ele><time>2026-04-23T12:14:47.512Z</time></trkpt><trkpt lat="39.7610517" lon="8.795325"><ele>253.0</ele><time>2026-04-23T12:14:48.512Z</time></trkpt><trkpt lat="39.760995" lon="8.7955267"><ele>247.66666666666666</ele><time>2026-04-23T12:14:49.512Z</time></trkpt><trkpt lat="39.76095" lon="8.795725"><ele>242.33333333333331</ele><time>2026-04-23T12:14:50.512Z</time></trkpt><trkpt lat="39.7609183" lon="8.79591"><ele>237.0</ele><time>2026-04-23T12:14:51.513Z</time></trkpt><trkpt lat="39.760915" lon="8.7961"><ele>237.0</ele><time>2026-04-23T12:14:52.512Z</time></trkpt><trkpt lat="39.7609533" lon="8.7962883"><ele>237.0</ele><time>2026-04-23T12:14:53.512Z</time></trkpt><trkpt lat="39.7610167" lon="8.7964717"><ele>237.0</ele><time>2026-04-23T12:14:54.512Z</time></trkpt><trkpt lat="39.761105" lon="8.7966433"><ele>237.0</ele><time>2026-04-23T12:14:55.513Z</time></trkpt><trkpt lat="39.7611983" lon="8.7968"><ele>237.0</ele><time>2026-04-23T12:14:56.513Z</time></trkpt><trkpt lat="39.76129" lon="8.7969417"><ele>237.0</ele><time>2026-04-23T12:14:57.512Z</time></trkpt><trkpt lat="39.7613817" lon="8.7970683"><ele>237.0</ele><time>2026-04-23T12:14:58.513Z</time></trkpt><trkpt lat="39.7614833" lon="8.7971583"><ele>234.5</ele><time>2026-04-23T12:14:59.512Z</time></trkpt><trkpt lat="39.7615967" lon="8.797205"><ele>232.0</ele><time>2026-04-23T12:15:00.512Z</time></trkpt><trkpt lat="39.7617233" lon="8.7971983"><ele>229.5</ele><time>2026-04-23T12:15:01.512Z</time></trkpt><trkpt lat="39.761855" lon="8.7971433"><ele>227.0</ele><time>2026-04-23T12:15:02.513Z</time></trkpt><trkpt lat="39.761985" lon="8.79705"><ele>225.66666666666669</ele><time>2026-04-23T12:15:03.513Z</time></trkpt><trkpt lat="39.762115" lon="8.7969433"><ele>224.33333333333331</ele><time>2026-04-23T12:15:04.513Z</time></trkpt><trkpt lat="39.7622533" lon="8.796825"><ele>223.0</ele><time>2026-04-23T12:15:05.512Z</time></trkpt><trkpt lat="39.7623967" lon="8.7967067"><ele>223.0</ele><time>2026-04-23T12:15:06.512Z</time></trkpt><trkpt lat="39.7625383" lon="8.7966017"><ele>223.0</ele><time>2026-04-23T12:15:07.512Z</time></trkpt><trkpt lat="39.7626767" lon="8.79652"><ele>223.0</ele><time>2026-04-23T12:15:08.513Z</time></trkpt><trkpt lat="39.7628317" lon="8.796475"><ele>222.0</ele><time>2026-04-23T12:15:09.512Z</time></trkpt><trkpt lat="39.7629833" lon="8.7964867"><ele>221.0</ele><time>2026-04-23T12:15:10.512Z</time></trkpt><trkpt lat="39.7631333" lon="8.796545"><ele>220.0</ele><time>2026-04-23T12:15:11.512Z</time></trkpt><trkpt lat="39.7632667" lon="8.79664"><ele>220.0</ele><time>2026-04-23T12:15:12.512Z</time></trkpt><trkpt lat="39.763385" lon="8.7967867"><ele>220.0</ele><time>2026-04-23T12:15:13.513Z</time></trkpt><trkpt lat="39.763485" lon="8.7969533"><ele>220.0</ele><time>2026-04-23T12:15:14.512Z</time></trkpt><trkpt lat="39.763585" lon="8.7971183"><ele>221.66666666666666</ele><time>2026-04-23T12:15:15.512Z</time></trkpt><trkpt lat="39.7636883" lon="8.7972867"><ele>223.33333333333331</ele><time>2026-04-23T12:15:16.513Z</time></trkpt><trkpt lat="39.76379" lon="8.7974567"><ele>225.0</ele><time>2026-04-23T12:15:17.512Z</time></trkpt><trkpt lat="39.763905" lon="8.7976333"><ele>224.0</ele><time>2026-04-23T12:15:18.512Z</time></trkpt><trkpt lat="39.7640217" lon="8.7978067"><ele>223.0</ele><time>2026-04-23T12:15:19.513Z</time></trkpt><trkpt lat="39.76414" lon="8.797985"><ele>222.0</ele><time>2026-04-23T12:15:20.513Z</time></trkpt><trkpt lat="39.764255" lon="8.7981733"><ele>222.66666666666669</ele><time>2026-04-23T12:15:21.512Z</time></trkpt><trkpt lat="39.7643767" lon="8.7983633"><ele>223.33333333333334</ele><time>2026-04-23T12:15:22.513Z</time></trkpt><trkpt lat="39.7644933" lon="8.7985467"><ele>224.0</ele><time>2026-04-23T12:15:23.513Z</time></trkpt><trkpt lat="39.7646067" lon="8.79872"><ele>222.66666666666669</ele><time>2026-04-23T12:15:24.512Z</time></trkpt><trkpt lat="39.7647033" lon="8.7988933"><ele>221.33333333333331</ele><time>2026-04-23T12:15:25.513Z</time></trkpt><trkpt lat="39.7647867" lon="8.7990783"><ele>220.0</ele><time>2026-04-23T12:15:26.513Z</time></trkpt><trkpt lat="39.7648567" lon="8.7992617"><ele>218.33333333333331</ele><time>2026-04-23T12:15:27.513Z</time></trkpt><trkpt lat="39.7649317" lon="8.7994267"><ele>216.66666666666669</ele><time>2026-04-23T12:15:28.512Z</time></trkpt><trkpt lat="39.7650317" lon="8.7995733"><ele>215.0</ele><time>2026-04-23T12:15:29.512Z</time></trkpt><trkpt lat="39.7651533" lon="8.7996983"><ele>214.0</ele><time>2026-04-23T12:15:30.513Z</time></trkpt><trkpt lat="39.7653033" lon="8.7997917"><ele>213.0</ele><time>2026-04-23T12:15:31.513Z</time></trkpt><trkpt lat="39.7654617" lon="8.7998783"><ele>212.0</ele><time>2026-04-23T12:15:32.512Z</time></trkpt><trkpt lat="39.765625" lon="8.7999733"><ele>212.0</ele><time>2026-04-23T12:15:33.512Z</time></trkpt><trkpt lat="39.76578" lon="8.800065"><ele>212.0</ele><time>2026-04-23T12:15:34.513Z</time></trkpt><trkpt lat="39.7659317" lon="8.8001567"><ele>212.0</ele><time>2026-04-23T12:15:35.512Z</time></trkpt><trkpt lat="39.7660817" lon="8.800265"><ele>211.66666666666669</ele><time>2026-04-23T12:15:36.513Z</time></trkpt><trkpt lat="39.7662067" lon="8.8004083"><ele>211.33333333333331</ele><time>2026-04-23T12:15:37.513Z</time></trkpt><trkpt lat="39.7663117" lon="8.8005733"><ele>211.0</ele><time>2026-04-23T12:15:38.512Z</time></trkpt><trkpt lat="39.766385" lon="8.8007333"><ele>211.0</ele><time>2026-04-23T12:15:39.512Z</time></trkpt><trkpt lat="39.76643" lon="8.8008933"><ele>211.0</ele><time>2026-04-23T12:15:40.513Z</time></trkpt><trkpt lat="39.76643" lon="8.8010333"><ele>211.0</ele><time>2026-04-23T12:15:41.512Z</time></trkpt><trkpt lat="39.7663967" lon="8.8011683"><ele>211.0</ele><time>2026-04-23T12:15:42.513Z</time></trkpt><trkpt lat="39.7663283" lon="8.8012833"><ele>209.75</ele><time>2026-04-23T12:15:43.512Z</time></trkpt><trkpt lat="39.76623" lon="8.801385"><ele>208.5</ele><time>2026-04-23T12:15:44.513Z</time></trkpt><trkpt lat="39.7661317" lon="8.801505"><ele>207.25</ele><time>2026-04-23T12:15:45.512Z</time></trkpt><trkpt lat="39.76604" lon="8.8016417"><ele>206.0</ele><time>2026-04-23T12:15:46.512Z</time></trkpt><trkpt lat="39.765955" lon="8.8017933"><ele>208.33333333333334</ele><time>2026-04-23T12:15:47.513Z</time></trkpt><trkpt lat="39.7658767" lon="8.80196"><ele>210.66666666666669</ele><time>2026-04-23T12:15:48.513Z</time></trkpt><trkpt lat="39.7658033" lon="8.80214"><ele>213.0</ele><time>2026-04-23T12:15:49.513Z</time></trkpt><trkpt lat="39.7657333" lon="8.8023283"><ele>213.0</ele><time>2026-04-23T12:15:50.513Z</time></trkpt><trkpt lat="39.765665" lon="8.8025133"><ele>213.0</ele><time>2026-04-23T12:15:51.512Z</time></trkpt><trkpt lat="39.765595" lon="8.8026883"><ele>213.0</ele><time>2026-04-23T12:15:52.513Z</time></trkpt><trkpt lat="39.76553" lon="8.8028583"><ele>213.5</ele><time>2026-04-23T12:15:53.513Z</time></trkpt><trkpt lat="39.7654733" lon="8.8030217"><ele>214.0</ele><time>2026-04-23T12:15:54.513Z</time></trkpt><trkpt lat="39.7654367" lon="8.8031967"><ele>214.5</ele><time>2026-04-23T12:15:55.513Z</time></trkpt><trkpt lat="39.76543" lon="8.8033833"><ele>215.0</ele><time>2026-04-23T12:15:56.512Z</time></trkpt><trkpt lat="39.7654383" lon="8.803565"><ele>215.0</ele><time>2026-04-23T12:15:57.512Z</time></trkpt><trkpt lat="39.7654583" lon="8.80375"><ele>215.0</ele><time>2026-04-23T12:15:58.512Z</time></trkpt><trkpt lat="39.7654917" lon="8.8039383"><ele>215.0</ele><time>2026-04-23T12:15:59.513Z</time></trkpt><trkpt lat="39.7655283" lon="8.80413"><ele>215.0</ele><time>2026-04-23T12:16:00.513Z</time></trkpt><trkpt lat="39.7655567" lon="8.8043167"><ele>213.75</ele><time>2026-04-23T12:16:01.512Z</time></trkpt><trkpt lat="39.7655883" lon="8.8044917"><ele>212.5</ele><time>2026-04-23T12:16:02.513Z</time></trkpt><trkpt lat="39.7656217" lon="8.80466"><ele>211.25</ele><time>2026-04-23T12:16:03.512Z</time></trkpt><trkpt lat="39.7656667" lon="8.8048283"><ele>210.0</ele><time>2026-04-23T12:16:04.512Z</time></trkpt><trkpt lat="39.7657217" lon="8.805005"><ele>207.0</ele><time>2026-04-23T12:16:05.513Z</time></trkpt><trkpt lat="39.76579" lon="8.8051883"><ele>204.0</ele><time>2026-04-23T12:16:06.513Z</time></trkpt><trkpt lat="39.7658767" lon="8.8053767"><ele>201.0</ele><time>2026-04-23T12:16:07.513Z</time></trkpt><trkpt lat="39.7659733" lon="8.8055617"><ele>200.0</ele><time>2026-04-23T12:16:08.512Z</time></trkpt><trkpt lat="39.7660733" lon="8.80573"><ele>199.0</ele><time>2026-04-23T12:16:09.513Z</time></trkpt><trkpt lat="39.7661833" lon="8.805885"><ele>198.0</ele><time>2026-04-23T12:16:10.512Z</time></trkpt><trkpt lat="39.766305" lon="8.8060217"><ele>198.0</ele><time>2026-04-23T12:16:11.513Z</time></trkpt><trkpt lat="39.7664433" lon="8.80613"><ele>198.0</ele><time>2026-04-23T12:16:12.512Z</time></trkpt><trkpt lat="39.7665833" lon="8.8062167"><ele>198.0</ele><time>2026-04-23T12:16:13.512Z</time></trkpt><trkpt lat="39.766735" lon="8.8062817"><ele>201.33333333333331</ele><time>2026-04-23T12:16:14.512Z</time></trkpt><trkpt lat="39.7668967" lon="8.80634"><ele>204.66666666666666</ele><time>2026-04-23T12:16:15.513Z</time></trkpt><trkpt lat="39.767055" lon="8.8063967"><ele>208.0</ele><time>2026-04-23T12:16:16.512Z</time></trkpt><trkpt lat="39.7672083" lon="8.8064483"><ele>208.0</ele><time>2026-04-23T12:16:17.512Z</time></trkpt><trkpt lat="39.7673617" lon="8.8065033"><ele>208.0</ele><time>2026-04-23T12:16:18.512Z</time></trkpt><trkpt lat="39.7675133" lon="8.8065633"><ele>208.0</ele><time>2026-04-23T12:16:19.512Z</time></trkpt><trkpt lat="39.767665" lon="8.8066367"><ele>209.33333333333331</ele><time>2026-04-23T12:16:20.513Z</time></trkpt><trkpt lat="39.7678117" lon="8.806725"><ele>210.66666666666669</ele><time>2026-04-23T12:16:21.513Z</time></trkpt><trkpt lat="39.76795" lon="8.8068317"><ele>212.0</ele><time>2026-04-23T12:16:22.513Z</time></trkpt><trkpt lat="39.7680783" lon="8.80697"><ele>212.0</ele><time>2026-04-23T12:16:23.512Z</time></trkpt><trkpt lat="39.76819" lon="8.8071267"><ele>212.0</ele><time>2026-04-23T12:16:24.513Z</time></trkpt><trkpt lat="39.7682817" lon="8.807295"><ele>212.0</ele><time>2026-04-23T12:16:25.513Z</time></trkpt><trkpt lat="39.7683633" lon="8.807465"><ele>212.0</ele><time>2026-04-23T12:16:26.512Z</time></trkpt><trkpt lat="39.7684333" lon="8.8076467"><ele>212.0</ele><time>2026-04-23T12:16:27.512Z</time></trkpt><trkpt lat="39.768505" lon="8.807835"><ele>212.0</ele><time>2026-04-23T12:16:28.512Z</time></trkpt><trkpt lat="39.7685667" lon="8.8080233"><ele>212.25</ele><time>2026-04-23T12:16:29.512Z</time></trkpt><trkpt lat="39.7686233" lon="8.8081983"><ele>212.5</ele><time>2026-04-23T12:16:30.512Z</time></trkpt><trkpt lat="39.7686833" lon="8.808365"><ele>212.75</ele><time>2026-04-23T12:16:31.512Z</time></trkpt><trkpt lat="39.7687467" lon="8.8085333"><ele>213.0</ele><time>2026-04-23T12:16:32.513Z</time></trkpt><trkpt lat="39.7688083" lon="8.80871"><ele>210.75</ele><time>2026-04-23T12:16:33.513Z</time></trkpt><trkpt lat="39.7688633" lon="8.8088783"><ele>208.5</ele><time>2026-04-23T12:16:34.512Z</time></trkpt><trkpt lat="39.7689217" lon="8.80905"><ele>206.25</ele><time>2026-04-23T12:16:35.512Z</time></trkpt><trkpt lat="39.7689833" lon="8.809215"><ele>204.0</ele><time>2026-04-23T12:16:36.513Z</time></trkpt><trkpt lat="39.7690367" lon="8.8093633"><ele>203.0</ele><time>2026-04-23T12:16:37.512Z</time></trkpt><trkpt lat="39.7690917" lon="8.8095183"><ele>202.0</ele><time>2026-04-23T12:16:38.512Z</time></trkpt><trkpt lat="39.7691433" lon="8.809665"><ele>201.0</ele><time>2026-04-23T12:16:39.513Z</time></trkpt><trkpt lat="39.7691917" lon="8.8098083"><ele>200.0</ele><time>2026-04-23T12:16:40.513Z</time></trkpt><trkpt lat="39.7692333" lon="8.8099367"><ele>200.0</ele><time>2026-04-23T12:16:41.513Z</time></trkpt><trkpt lat="39.7692733" lon="8.81005"><ele>200.0</ele><time>2026-04-23T12:16:42.513Z</time></trkpt><trkpt lat="39.7693117" lon="8.810145"><ele>200.0</ele><time>2026-04-23T12:16:43.512Z</time></trkpt><trkpt lat="39.76934" lon="8.8102317"><ele>200.0</ele><time>2026-04-23T12:16:44.512Z</time></trkpt><trkpt lat="39.7693917" lon="8.8103667"><ele>200.0</ele><time>2026-04-23T12:16:46.513Z</time></trkpt><trkpt lat="39.76945" lon="8.8105217"><ele>199.8</ele><time>2026-04-23T12:16:48.512Z</time></trkpt><trkpt lat="39.7694817" lon="8.8106267"><ele>199.6</ele><time>2026-04-23T12:16:49.512Z</time></trkpt><trkpt lat="39.76952" lon="8.810735"><ele>199.39999999999998</ele><time>2026-04-23T12:16:50.513Z</time></trkpt><trkpt lat="39.76956" lon="8.8108617"><ele>199.2</ele><time>2026-04-23T12:16:51.512Z</time></trkpt><trkpt lat="39.7696017" lon="8.81098"><ele>199.0</ele><time>2026-04-23T12:16:52.513Z</time></trkpt><trkpt lat="39.7696517" lon="8.8110817"><ele>198.39999999999998</ele><time>2026-04-23T12:16:53.512Z</time></trkpt><trkpt lat="39.7696983" lon="8.8111733"><ele>197.8</ele><time>2026-04-23T12:16:54.512Z</time></trkpt><trkpt lat="39.7697433" lon="8.8112517"><ele>197.2</ele><time>2026-04-23T12:16:55.512Z</time></trkpt><trkpt lat="39.7697867" lon="8.81132"><ele>196.60000000000002</ele><time>2026-04-23T12:16:56.513Z</time></trkpt><trkpt lat="39.7698467" lon="8.811445"><ele>196.0</ele><time>2026-04-23T12:16:58.512Z</time></trkpt><trkpt lat="39.769845" lon="8.8115917"><ele>195.99999999999997</ele><time>2026-04-23T12:17:00.513Z</time></trkpt><trkpt lat="39.769825" lon="8.811675"><ele>196.0</ele><time>2026-04-23T12:17:01.513Z</time></trkpt><trkpt lat="39.76979" lon="8.8117733"><ele>196.0</ele><time>2026-04-23T12:17:02.512Z</time></trkpt><trkpt lat="39.7697683" lon="8.8118833"><ele>196.0</ele><time>2026-04-23T12:17:03.512Z</time></trkpt><trkpt lat="39.7697567" lon="8.811995"><ele>195.99999999999997</ele><time>2026-04-23T12:17:04.512Z</time></trkpt><trkpt lat="39.769745" lon="8.81209"><ele>196.0</ele><time>2026-04-23T12:17:05.513Z</time></trkpt><trkpt lat="39.7697517" lon="8.8122"><ele>195.4</ele><time>2026-04-23T12:17:06.513Z</time></trkpt><trkpt lat="39.7697567" lon="8.8123233"><ele>194.8</ele><time>2026-04-23T12:17:07.512Z</time></trkpt><trkpt lat="39.7697683" lon="8.8124517"><ele>194.20000000000002</ele><time>2026-04-23T12:17:08.513Z</time></trkpt><trkpt lat="39.7697967" lon="8.8125783"><ele>193.60000000000002</ele><time>2026-04-23T12:17:09.513Z</time></trkpt><trkpt lat="39.7698433" lon="8.81269"><ele>193.0</ele><time>2026-04-23T12:17:10.513Z</time></trkpt><trkpt lat="39.7699017" lon="8.8128"><ele>192.8</ele><time>2026-04-23T12:17:11.513Z</time></trkpt><trkpt lat="39.769975" lon="8.8128883"><ele>192.60000000000002</ele><time>2026-04-23T12:17:12.512Z</time></trkpt><trkpt lat="39.770055" lon="8.8129667"><ele>192.39999999999998</ele><time>2026-04-23T12:17:13.512Z</time></trkpt><trkpt lat="39.770135" lon="8.8130467"><ele>192.2</ele><time>2026-04-23T12:17:14.513Z</time></trkpt><trkpt lat="39.770205" lon="8.813105"><ele>192.0</ele><time>2026-04-23T12:17:15.512Z</time></trkpt><trkpt lat="39.7702733" lon="8.8131783"><ele>192.66666666666666</ele><time>2026-04-23T12:17:16.512Z</time></trkpt><trkpt lat="39.7703283" lon="8.8132467"><ele>193.33333333333331</ele><time>2026-04-23T12:17:17.513Z</time></trkpt><trkpt lat="39.7703833" lon="8.8133217"><ele>194.0</ele><time>2026-04-23T12:17:18.512Z</time></trkpt><trkpt lat="39.7704117" lon="8.813395"><ele>194.66666666666666</ele><time>2026-04-23T12:17:19.512Z</time></trkpt><trkpt lat="39.77039" lon="8.8135517"><ele>195.33333333333331</ele><time>2026-04-23T12:17:21.513Z</time></trkpt><trkpt lat="39.7703667" lon="8.8136283"><ele>196.0</ele><time>2026-04-23T12:17:22.512Z</time></trkpt><trkpt lat="39.7703267" lon="8.8136917"><ele>196.20000000000002</ele><time>2026-04-23T12:17:23.512Z</time></trkpt><trkpt lat="39.770265" lon="8.8137917"><ele>196.4</ele><time>2026-04-23T12:17:25.512Z</time></trkpt><trkpt lat="39.7703083" lon="8.81389"><ele>196.6</ele><time>2026-04-23T12:17:27.512Z</time></trkpt><trkpt lat="39.77042" lon="8.813875"><ele>196.8</ele><time>2026-04-23T12:17:29.512Z</time></trkpt><trkpt lat="39.7705" lon="8.8138667"><ele>197.0</ele><time>2026-04-23T12:17:30.513Z</time></trkpt><trkpt lat="39.7705867" lon="8.8138617"><ele>197.0</ele><time>2026-04-23T12:17:31.513Z</time></trkpt><trkpt lat="39.77067" lon="8.8138633"><ele>197.0</ele><time>2026-04-23T12:17:32.512Z</time></trkpt><trkpt lat="39.7707667" lon="8.8138633"><ele>197.0</ele><time>2026-04-23T12:17:33.512Z</time></trkpt><trkpt lat="39.7708667" lon="8.8138567"><ele>197.0</ele><time>2026-04-23T12:17:34.512Z</time></trkpt><trkpt lat="39.77097" lon="8.8138617"><ele>197.0</ele><time>2026-04-23T12:17:35.513Z</time></trkpt><trkpt lat="39.7710583" lon="8.8138633"><ele>197.83333333333334</ele><time>2026-04-23T12:17:36.513Z</time></trkpt><trkpt lat="39.7711367" lon="8.8138783"><ele>198.66666666666669</ele><time>2026-04-23T12:17:37.513Z</time></trkpt><trkpt lat="39.7712083" lon="8.8139167"><ele>199.5</ele><time>2026-04-23T12:17:38.512Z</time></trkpt><trkpt lat="39.7712683" lon="8.8139767"><ele>200.33333333333331</ele><time>2026-04-23T12:17:39.513Z</time></trkpt><trkpt lat="39.7713083" lon="8.8140517"><ele>201.16666666666666</ele><time>2026-04-23T12:17:40.513Z</time></trkpt><trkpt lat="39.7713117" lon="8.8141483"><ele>202.0</ele><time>2026-04-23T12:17:41.512Z</time></trkpt><trkpt lat="39.7712883" lon="8.8142667"><ele>204.16666666666666</ele><time>2026-04-23T12:17:42.513Z</time></trkpt><trkpt lat="39.7712283" lon="8.81439"><ele>206.33333333333331</ele><time>2026-04-23T12:17:43.512Z</time></trkpt><trkpt lat="39.7712033" lon="8.8145017"><ele>208.5</ele><time>2026-04-23T12:17:44.512Z</time></trkpt><trkpt lat="39.7712117" lon="8.8145983"><ele>210.66666666666669</ele><time>2026-04-23T12:17:45.512Z</time></trkpt><trkpt lat="39.7712583" lon="8.814675"><ele>212.83333333333334</ele><time>2026-04-23T12:17:46.513Z</time></trkpt><trkpt lat="39.771325" lon="8.81471"><ele>215.0</ele><time>2026-04-23T12:17:47.513Z</time></trkpt><trkpt lat="39.7714083" lon="8.8147017"><ele>215.0</ele><time>2026-04-23T12:17:48.512Z</time></trkpt><trkpt lat="39.7715033" lon="8.814655"><ele>215.0</ele><time>2026-04-23T12:17:49.513Z</time></trkpt><trkpt lat="39.7715983" lon="8.8145733"><ele>215.0</ele><time>2026-04-23T12:17:50.513Z</time></trkpt><trkpt lat="39.771705" lon="8.8144917"><ele>215.0</ele><time>2026-04-23T12:17:51.512Z</time></trkpt><trkpt lat="39.77181" lon="8.81444"><ele>216.25</ele><time>2026-04-23T12:17:52.513Z</time></trkpt><trkpt lat="39.771925" lon="8.81442"><ele>217.5</ele><time>2026-04-23T12:17:53.512Z</time></trkpt><trkpt lat="39.7720533" lon="8.8144233"><ele>218.75</ele><time>2026-04-23T12:17:54.513Z</time></trkpt><trkpt lat="39.7721867" lon="8.8144767"><ele>220.0</ele><time>2026-04-23T12:17:55.512Z</time></trkpt><trkpt lat="39.77231" lon="8.8145383"><ele>220.0</ele><time>2026-04-23T12:17:56.512Z</time></trkpt><trkpt lat="39.7724467" lon="8.814595"><ele>220.0</ele><time>2026-04-23T12:17:57.512Z</time></trkpt><trkpt lat="39.7725883" lon="8.8146417"><ele>220.0</ele><time>2026-04-23T12:17:58.513Z</time></trkpt><trkpt lat="39.7727267" lon="8.8146617"><ele>220.0</ele><time>2026-04-23T12:17:59.513Z</time></trkpt><trkpt lat="39.7728583" lon="8.8146767"><ele>220.0</ele><time>2026-04-23T12:18:00.512Z</time></trkpt><trkpt lat="39.7729933" lon="8.8146833"><ele>220.0</ele><time>2026-04-23T12:18:01.512Z</time></trkpt><trkpt lat="39.773115" lon="8.8146833"><ele>220.0</ele><time>2026-04-23T12:18:02.513Z</time></trkpt><trkpt lat="39.773245" lon="8.81469"><ele>220.0</ele><time>2026-04-23T12:18:03.513Z</time></trkpt><trkpt lat="39.7733717" lon="8.814715"><ele>220.0</ele><time>2026-04-23T12:18:04.512Z</time></trkpt><trkpt lat="39.7734983" lon="8.8147633"><ele>220.0</ele><time>2026-04-23T12:18:05.513Z</time></trkpt><trkpt lat="39.773625" lon="8.8148217"><ele>220.0</ele><time>2026-04-23T12:18:06.513Z</time></trkpt><trkpt lat="39.7737467" lon="8.8149017"><ele>220.0</ele><time>2026-04-23T12:18:07.512Z</time></trkpt><trkpt lat="39.7738717" lon="8.8149867"><ele>219.0</ele><time>2026-04-23T12:18:08.512Z</time></trkpt><trkpt lat="39.77401" lon="8.815055"><ele>218.0</ele><time>2026-04-23T12:18:09.513Z</time></trkpt><trkpt lat="39.7741517" lon="8.815105"><ele>217.0</ele><time>2026-04-23T12:18:10.513Z</time></trkpt><trkpt lat="39.7742983" lon="8.815125"><ele>216.0</ele><time>2026-04-23T12:18:11.513Z</time></trkpt><trkpt lat="39.7744417" lon="8.815125"><ele>214.25</ele><time>2026-04-23T12:18:12.513Z</time></trkpt><trkpt lat="39.7745783" lon="8.8150967"><ele>212.5</ele><time>2026-04-23T12:18:13.513Z</time></trkpt><trkpt lat="39.7746983" lon="8.8150317"><ele>210.75</ele><time>2026-04-23T12:18:14.512Z</time></trkpt><trkpt lat="39.7748233" lon="8.81495"><ele>209.0</ele><time>2026-04-23T12:18:15.513Z</time></trkpt><trkpt lat="39.7749517" lon="8.814875"><ele>209.0</ele><time>2026-04-23T12:18:16.512Z</time></trkpt><trkpt lat="39.7750883" lon="8.814825"><ele>209.0</ele><time>2026-04-23T12:18:17.512Z</time></trkpt><trkpt lat="39.7752117" lon="8.8148033"><ele>209.0</ele><time>2026-04-23T12:18:18.512Z</time></trkpt><trkpt lat="39.7753217" lon="8.8147833"><ele>209.0</ele><time>2026-04-23T12:18:19.513Z</time></trkpt><trkpt lat="39.7754267" lon="8.8147933"><ele>209.50000000000003</ele><time>2026-04-23T12:18:20.512Z</time></trkpt><trkpt lat="39.7755183" lon="8.8148383"><ele>210.0</ele><time>2026-04-23T12:18:21.512Z</time></trkpt><trkpt lat="39.7755867" lon="8.8149183"><ele>210.5</ele><time>2026-04-23T12:18:22.513Z</time></trkpt><trkpt lat="39.77562" lon="8.8150183"><ele>211.0</ele><time>2026-04-23T12:18:23.512Z</time></trkpt><trkpt lat="39.77563" lon="8.81512"><ele>211.50000000000003</ele><time>2026-04-23T12:18:24.513Z</time></trkpt><trkpt lat="39.7756033" lon="8.8152017"><ele>212.0</ele><time>2026-04-23T12:18:25.512Z</time></trkpt><trkpt lat="39.7755133" lon="8.8152667"><ele>213.25</ele><time>2026-04-23T12:18:26.513Z</time></trkpt><trkpt lat="39.7754" lon="8.8153317"><ele>214.5</ele><time>2026-04-23T12:18:27.512Z</time></trkpt><trkpt lat="39.7753083" lon="8.815435"><ele>215.75</ele><time>2026-04-23T12:18:28.513Z</time></trkpt><trkpt lat="39.7752333" lon="8.81556"><ele>217.0</ele><time>2026-04-23T12:18:29.512Z</time></trkpt><trkpt lat="39.7751767" lon="8.8157133"><ele>213.75</ele><time>2026-04-23T12:18:30.512Z</time></trkpt><trkpt lat="39.7751417" lon="8.8158883"><ele>210.5</ele><time>2026-04-23T12:18:31.512Z</time></trkpt><trkpt lat="39.7751283" lon="8.81607"><ele>207.25</ele><time>2026-04-23T12:18:32.512Z</time></trkpt><trkpt lat="39.7751267" lon="8.8162517"><ele>204.0</ele><time>2026-04-23T12:18:33.513Z</time></trkpt><trkpt lat="39.775125" lon="8.81642"><ele>204.0</ele><time>2026-04-23T12:18:34.512Z</time></trkpt><trkpt lat="39.7751283" lon="8.8165733"><ele>204.0</ele><time>2026-04-23T12:18:35.513Z</time></trkpt><trkpt lat="39.775165" lon="8.8167133"><ele>204.0</ele><time>2026-04-23T12:18:36.512Z</time></trkpt><trkpt lat="39.775235" lon="8.81683"><ele>204.0</ele><time>2026-04-23T12:18:37.512Z</time></trkpt><trkpt lat="39.7753233" lon="8.816935"><ele>204.0</ele><time>2026-04-23T12:18:38.513Z</time></trkpt><trkpt lat="39.7754133" lon="8.8170317"><ele>204.0</ele><time>2026-04-23T12:18:39.512Z</time></trkpt><trkpt lat="39.7754717" lon="8.8171483"><ele>204.0</ele><time>2026-04-23T12:18:40.512Z</time></trkpt><trkpt lat="39.77548" lon="8.8172717"><ele>204.0</ele><time>2026-04-23T12:18:41.512Z</time></trkpt><trkpt lat="39.775455" lon="8.8173883"><ele>204.0</ele><time>2026-04-23T12:18:42.512Z</time></trkpt><trkpt lat="39.775385" lon="8.8174817"><ele>204.0</ele><time>2026-04-23T12:18:43.513Z</time></trkpt><trkpt lat="39.7752817" lon="8.8175283"><ele>204.0</ele><time>2026-04-23T12:18:44.513Z</time></trkpt><trkpt lat="39.7751683" lon="8.81757"><ele>204.0</ele><time>2026-04-23T12:18:45.513Z</time></trkpt><trkpt lat="39.7750567" lon="8.8176267"><ele>204.0</ele><time>2026-04-23T12:18:46.512Z</time></trkpt><trkpt lat="39.7749433" lon="8.8177017"><ele>206.25</ele><time>2026-04-23T12:18:47.512Z</time></trkpt><trkpt lat="39.774845" lon="8.8178033"><ele>208.5</ele><time>2026-04-23T12:18:48.512Z</time></trkpt><trkpt lat="39.7747533" lon="8.817935"><ele>210.75</ele><time>2026-04-23T12:18:49.513Z</time></trkpt><trkpt lat="39.7746633" lon="8.8180867"><ele>213.0</ele><time>2026-04-23T12:18:50.512Z</time></trkpt><trkpt lat="39.774575" lon="8.81825"><ele>213.0</ele><time>2026-04-23T12:18:51.512Z</time></trkpt><trkpt lat="39.7744817" lon="8.8184167"><ele>213.0</ele><time>2026-04-23T12:18:52.513Z</time></trkpt><trkpt lat="39.7743883" lon="8.8185867"><ele>213.0</ele><time>2026-04-23T12:18:53.513Z</time></trkpt><trkpt lat="39.7742867" lon="8.8187667"><ele>210.25</ele><time>2026-04-23T12:18:54.513Z</time></trkpt><trkpt lat="39.7741933" lon="8.81894"><ele>207.5</ele><time>2026-04-23T12:18:55.513Z</time></trkpt><trkpt lat="39.7741083" lon="8.8190983"><ele>204.75</ele><time>2026-04-23T12:18:56.512Z</time></trkpt><trkpt lat="39.77403" lon="8.819245"><ele>202.0</ele><time>2026-04-23T12:18:57.513Z</time></trkpt><trkpt lat="39.7739567" lon="8.81938"><ele>201.5</ele><time>2026-04-23T12:18:58.512Z</time></trkpt><trkpt lat="39.7738983" lon="8.8195183"><ele>201.0</ele><time>2026-04-23T12:18:59.512Z</time></trkpt><trkpt lat="39.7738633" lon="8.8196667"><ele>200.5</ele><time>2026-04-23T12:19:00.512Z</time></trkpt><trkpt lat="39.7738517" lon="8.81982"><ele>200.0</ele><time>2026-04-23T12:19:01.513Z</time></trkpt><trkpt lat="39.7738733" lon="8.81998"><ele>200.0</ele><time>2026-04-23T12:19:02.512Z</time></trkpt><trkpt lat="39.7739283" lon="8.8201383"><ele>200.0</ele><time>2026-04-23T12:19:03.512Z</time></trkpt><trkpt lat="39.774" lon="8.8203033"><ele>200.0</ele><time>2026-04-23T12:19:04.513Z</time></trkpt><trkpt lat="39.7740833" lon="8.820465"><ele>200.0</ele><time>2026-04-23T12:19:05.512Z</time></trkpt><trkpt lat="39.7741667" lon="8.8206217"><ele>198.5</ele><time>2026-04-23T12:19:06.513Z</time></trkpt><trkpt lat="39.7742467" lon="8.8207767"><ele>197.0</ele><time>2026-04-23T12:19:07.513Z</time></trkpt><trkpt lat="39.7743283" lon="8.8209367"><ele>195.5</ele><time>2026-04-23T12:19:08.512Z</time></trkpt><trkpt lat="39.7744067" lon="8.8211"><ele>194.0</ele><time>2026-04-23T12:19:09.513Z</time></trkpt><trkpt lat="39.77449" lon="8.8212733"><ele>194.0</ele><time>2026-04-23T12:19:10.513Z</time></trkpt><trkpt lat="39.7745733" lon="8.8214517"><ele>194.0</ele><time>2026-04-23T12:19:11.512Z</time></trkpt><trkpt lat="39.7746583" lon="8.821625"><ele>194.0</ele><time>2026-04-23T12:19:12.512Z</time></trkpt><trkpt lat="39.7747483" lon="8.8218017"><ele>191.66666666666669</ele><time>2026-04-23T12:19:13.513Z</time></trkpt><trkpt lat="39.7748333" lon="8.821985"><ele>189.33333333333334</ele><time>2026-04-23T12:19:14.512Z</time></trkpt><trkpt lat="39.7749233" lon="8.8221667"><ele>187.0</ele><time>2026-04-23T12:19:15.513Z</time></trkpt><trkpt lat="39.775015" lon="8.8223517"><ele>187.0</ele><time>2026-04-23T12:19:16.513Z</time></trkpt><trkpt lat="39.77511" lon="8.8225383"><ele>187.0</ele><time>2026-04-23T12:19:17.513Z</time></trkpt><trkpt lat="39.775205" lon="8.822725"><ele>187.0</ele><time>2026-04-23T12:19:18.512Z</time></trkpt><trkpt lat="39.7753" lon="8.822905"><ele>188.66666666666669</ele><time>2026-04-23T12:19:19.512Z</time></trkpt><trkpt lat="39.7753933" lon="8.823085"><ele>190.33333333333334</ele><time>2026-04-23T12:19:20.512Z</time></trkpt><trkpt lat="39.77548" lon="8.82327"><ele>192.0</ele><time>2026-04-23T12:19:21.512Z</time></trkpt><trkpt lat="39.7755683" lon="8.823455"><ele>190.75</ele><time>2026-04-23T12:19:22.512Z</time></trkpt><trkpt lat="39.7756483" lon="8.8236283"><ele>189.5</ele><time>2026-04-23T12:19:23.512Z</time></trkpt><trkpt lat="39.7757083" lon="8.8238017"><ele>188.25</ele><time>2026-04-23T12:19:24.512Z</time></trkpt><trkpt lat="39.7757417" lon="8.8239767"><ele>187.0</ele><time>2026-04-23T12:19:25.513Z</time></trkpt><trkpt lat="39.7757533" lon="8.8241467"><ele>187.0</ele><time>2026-04-23T12:19:26.512Z</time></trkpt><trkpt lat="39.77574" lon="8.8243117"><ele>187.0</ele><time>2026-04-23T12:19:27.512Z</time></trkpt><trkpt lat="39.7756983" lon="8.8244667"><ele>187.0</ele><time>2026-04-23T12:19:28.513Z</time></trkpt><trkpt lat="39.7756283" lon="8.8246083"><ele>187.0</ele><time>2026-04-23T12:19:29.512Z</time></trkpt><trkpt lat="39.7755333" lon="8.8247317"><ele>190.0</ele><time>2026-04-23T12:19:30.513Z</time></trkpt><trkpt lat="39.7754317" lon="8.8248683"><ele>193.0</ele><time>2026-04-23T12:19:31.513Z</time></trkpt><trkpt lat="39.775335" lon="8.8250183"><ele>196.0</ele><time>2026-04-23T12:19:32.512Z</time></trkpt><trkpt lat="39.7752333" lon="8.825175"><ele>194.33333333333331</ele><time>2026-04-23T12:19:33.512Z</time></trkpt><trkpt lat="39.77513" lon="8.825335"><ele>192.66666666666666</ele><time>2026-04-23T12:19:34.512Z</time></trkpt><trkpt lat="39.7750333" lon="8.8255117"><ele>191.0</ele><time>2026-04-23T12:19:35.513Z</time></trkpt><trkpt lat="39.7749517" lon="8.8257017"><ele>191.0</ele><time>2026-04-23T12:19:36.512Z</time></trkpt><trkpt lat="39.7748883" lon="8.8258917"><ele>191.0</ele><time>2026-04-23T12:19:37.512Z</time></trkpt><trkpt lat="39.77484" lon="8.8260767"><ele>191.0</ele><time>2026-04-23T12:19:38.513Z</time></trkpt><trkpt lat="39.7748033" lon="8.8262733"><ele>190.33333333333331</ele><time>2026-04-23T12:19:39.513Z</time></trkpt><trkpt lat="39.7747917" lon="8.8264767"><ele>189.66666666666666</ele><time>2026-04-23T12:19:40.513Z</time></trkpt><trkpt lat="39.77481" lon="8.826685"><ele>189.0</ele><time>2026-04-23T12:19:41.512Z</time></trkpt><trkpt lat="39.7748483" lon="8.8268867"><ele>189.0</ele><time>2026-04-23T12:19:42.513Z</time></trkpt><trkpt lat="39.774895" lon="8.8270867"><ele>189.0</ele><time>2026-04-23T12:19:43.512Z</time></trkpt><trkpt lat="39.7749333" lon="8.8272733"><ele>189.0</ele><time>2026-04-23T12:19:44.512Z</time></trkpt><trkpt lat="39.77497" lon="8.82745"><ele>189.0</ele><time>2026-04-23T12:19:45.512Z</time></trkpt><trkpt lat="39.7750083" lon="8.8276067"><ele>189.0</ele><time>2026-04-23T12:19:46.512Z</time></trkpt><trkpt lat="39.77506" lon="8.8277467"><ele>189.0</ele><time>2026-04-23T12:19:47.513Z</time></trkpt><trkpt lat="39.7751483" lon="8.8278667"><ele>189.0</ele><time>2026-04-23T12:19:48.512Z</time></trkpt><trkpt lat="39.7752667" lon="8.8279667"><ele>190.0</ele><time>2026-04-23T12:19:49.512Z</time></trkpt><trkpt lat="39.7753967" lon="8.8280533"><ele>191.0</ele><time>2026-04-23T12:19:50.513Z</time></trkpt><trkpt lat="39.775535" lon="8.8281383"><ele>192.0</ele><time>2026-04-23T12:19:51.512Z</time></trkpt><trkpt lat="39.77567" lon="8.8282267"><ele>192.0</ele><time>2026-04-23T12:19:52.513Z</time></trkpt><trkpt lat="39.7757967" lon="8.8283233"><ele>192.0</ele><time>2026-04-23T12:19:53.513Z</time></trkpt><trkpt lat="39.7759067" lon="8.8284467"><ele>192.0</ele><time>2026-04-23T12:19:54.513Z</time></trkpt><trkpt lat="39.7759917" lon="8.8285983"><ele>192.0</ele><time>2026-04-23T12:19:55.512Z</time></trkpt><trkpt lat="39.776045" lon="8.8287733"><ele>193.0</ele><time>2026-04-23T12:19:56.512Z</time></trkpt><trkpt lat="39.7760667" lon="8.8289533"><ele>194.0</ele><time>2026-04-23T12:19:57.512Z</time></trkpt><trkpt lat="39.7760933" lon="8.829135"><ele>195.0</ele><time>2026-04-23T12:19:58.513Z</time></trkpt><trkpt lat="39.7761533" lon="8.829295"><ele>196.0</ele><time>2026-04-23T12:19:59.512Z</time></trkpt><trkpt lat="39.7762417" lon="8.829435"><ele>193.33333333333331</ele><time>2026-04-23T12:20:00.512Z</time></trkpt><trkpt lat="39.77635" lon="8.8295767"><ele>190.66666666666666</ele><time>2026-04-23T12:20:01.513Z</time></trkpt><trkpt lat="39.776465" lon="8.82972"><ele>188.0</ele><time>2026-04-23T12:20:02.513Z</time></trkpt><trkpt lat="39.77659" lon="8.8298717"><ele>188.0</ele><time>2026-04-23T12:20:03.512Z</time></trkpt><trkpt lat="39.7767083" lon="8.8300283"><ele>188.0</ele><time>2026-04-23T12:20:04.512Z</time></trkpt><trkpt lat="39.77682" lon="8.8301733"><ele>188.0</ele><time>2026-04-23T12:20:05.512Z</time></trkpt><trkpt lat="39.776925" lon="8.8303117"><ele>187.33333333333331</ele><time>2026-04-23T12:20:06.512Z</time></trkpt><trkpt lat="39.77703" lon="8.8304483"><ele>186.66666666666666</ele><time>2026-04-23T12:20:07.513Z</time></trkpt><trkpt lat="39.77714" lon="8.8305967"><ele>186.0</ele><time>2026-04-23T12:20:08.512Z</time></trkpt><trkpt lat="39.7772533" lon="8.8307483"><ele>186.0</ele><time>2026-04-23T12:20:09.512Z</time></trkpt><trkpt lat="39.77737" lon="8.8309033"><ele>186.0</ele><time>2026-04-23T12:20:10.513Z</time></trkpt><trkpt lat="39.7774883" lon="8.8310583"><ele>186.0</ele><time>2026-04-23T12:20:11.513Z</time></trkpt><trkpt lat="39.7776083" lon="8.8312167"><ele>184.33333333333334</ele><time>2026-04-23T12:20:12.513Z</time></trkpt><trkpt lat="39.7777317" lon="8.8313867"><ele>182.66666666666669</ele><time>2026-04-23T12:20:13.512Z</time></trkpt><trkpt lat="39.77785" lon="8.8315483"><ele>181.0</ele><time>2026-04-23T12:20:14.512Z</time></trkpt><trkpt lat="39.7779717" lon="8.8317083"><ele>179.33333333333334</ele><time>2026-04-23T12:20:15.512Z</time></trkpt><trkpt lat="39.7781" lon="8.8318733"><ele>177.66666666666666</ele><time>2026-04-23T12:20:16.513Z</time></trkpt><trkpt lat="39.77823" lon="8.83204"><ele>176.0</ele><time>2026-04-23T12:20:17.512Z</time></trkpt><trkpt lat="39.7783617" lon="8.8322083"><ele>176.0</ele><time>2026-04-23T12:20:18.513Z</time></trkpt><trkpt lat="39.7784917" lon="8.8323833"><ele>176.0</ele><time>2026-04-23T12:20:19.512Z</time></trkpt><trkpt lat="39.7786233" lon="8.8325533"><ele>176.0</ele><time>2026-04-23T12:20:20.513Z</time></trkpt><trkpt lat="39.778755" lon="8.8327283"><ele>176.0</ele><time>2026-04-23T12:20:21.513Z</time></trkpt><trkpt lat="39.7788833" lon="8.832895"><ele>176.0</ele><time>2026-04-23T12:20:22.513Z</time></trkpt><trkpt lat="39.7790033" lon="8.8330567"><ele>176.0</ele><time>2026-04-23T12:20:23.512Z</time></trkpt><trkpt lat="39.7791117" lon="8.8332167"><ele>176.0</ele><time>2026-04-23T12:20:24.512Z</time></trkpt><trkpt lat="39.7792233" lon="8.8333583"><ele>176.0</ele><time>2026-04-23T12:20:25.512Z</time></trkpt><trkpt lat="39.7793417" lon="8.83348"><ele>176.0</ele><time>2026-04-23T12:20:26.512Z</time></trkpt><trkpt lat="39.7794733" lon="8.83359"><ele>173.66666666666666</ele><time>2026-04-23T12:20:27.512Z</time></trkpt><trkpt lat="39.7796133" lon="8.833655"><ele>171.33333333333334</ele><time>2026-04-23T12:20:28.513Z</time></trkpt><trkpt lat="39.7797633" lon="8.83367"><ele>169.0</ele><time>2026-04-23T12:20:29.513Z</time></trkpt><trkpt lat="39.7799217" lon="8.83365"><ele>169.0</ele><time>2026-04-23T12:20:30.513Z</time></trkpt><trkpt lat="39.7800817" lon="8.8336017"><ele>169.0</ele><time>2026-04-23T12:20:31.512Z</time></trkpt><trkpt lat="39.7802483" lon="8.8335433"><ele>169.0</ele><time>2026-04-23T12:20:32.512Z</time></trkpt><trkpt lat="39.7804217" lon="8.83348"><ele>170.0</ele><time>2026-04-23T12:20:33.512Z</time></trkpt><trkpt lat="39.7806033" lon="8.8334217"><ele>171.0</ele><time>2026-04-23T12:20:34.513Z</time></trkpt><trkpt lat="39.7807833" lon="8.8333717"><ele>172.0</ele><time>2026-04-23T12:20:35.512Z</time></trkpt><trkpt lat="39.780965" lon="8.8333067"><ele>170.0</ele><time>2026-04-23T12:20:36.513Z</time></trkpt><trkpt lat="39.781145" lon="8.833245"><ele>168.0</ele><time>2026-04-23T12:20:37.513Z</time></trkpt><trkpt lat="39.781315" lon="8.8331817"><ele>166.0</ele><time>2026-04-23T12:20:38.512Z</time></trkpt><trkpt lat="39.781475" lon="8.8331217"><ele>166.0</ele><time>2026-04-23T12:20:39.513Z</time></trkpt><trkpt lat="39.7816283" lon="8.8330683"><ele>166.0</ele><time>2026-04-23T12:20:40.513Z</time></trkpt><trkpt lat="39.7817767" lon="8.8330117"><ele>166.0</ele><time>2026-04-23T12:20:41.513Z</time></trkpt><trkpt lat="39.7819217" lon="8.8329583"><ele>165.5</ele><time>2026-04-23T12:20:42.513Z</time></trkpt><trkpt lat="39.7820583" lon="8.8329117"><ele>165.0</ele><time>2026-04-23T12:20:43.513Z</time></trkpt><trkpt lat="39.78219" lon="8.8328733"><ele>164.5</ele><time>2026-04-23T12:20:44.512Z</time></trkpt><trkpt lat="39.7823217" lon="8.8328567"><ele>164.0</ele><time>2026-04-23T12:20:45.513Z</time></trkpt><trkpt lat="39.782445" lon="8.8328783"><ele>164.0</ele><time>2026-04-23T12:20:46.512Z</time></trkpt><trkpt lat="39.7825317" lon="8.832965"><ele>164.0</ele><time>2026-04-23T12:20:47.512Z</time></trkpt><trkpt lat="39.78259" lon="8.8330883"><ele>164.0</ele><time>2026-04-23T12:20:48.513Z</time></trkpt><trkpt lat="39.782615" lon="8.8332333"><ele>164.0</ele><time>2026-04-23T12:20:49.513Z</time></trkpt><trkpt lat="39.7826133" lon="8.8333983"><ele>164.5</ele><time>2026-04-23T12:20:50.513Z</time></trkpt><trkpt lat="39.7826167" lon="8.833575"><ele>165.0</ele><time>2026-04-23T12:20:51.512Z</time></trkpt><trkpt lat="39.7826333" lon="8.83376"><ele>165.5</ele><time>2026-04-23T12:20:52.513Z</time></trkpt><trkpt lat="39.782645" lon="8.83394"><ele>166.0</ele><time>2026-04-23T12:20:53.513Z</time></trkpt><trkpt lat="39.78265" lon="8.83413"><ele>166.75</ele><time>2026-04-23T12:20:54.513Z</time></trkpt><trkpt lat="39.782625" lon="8.83431"><ele>167.5</ele><time>2026-04-23T12:20:55.513Z</time></trkpt><trkpt lat="39.7825667" lon="8.834475"><ele>168.25</ele><time>2026-04-23T12:20:56.513Z</time></trkpt><trkpt lat="39.7825" lon="8.8346267"><ele>169.0</ele><time>2026-04-23T12:20:57.513Z</time></trkpt><trkpt lat="39.7824333" lon="8.8347883"><ele>169.0</ele><time>2026-04-23T12:20:58.512Z</time></trkpt><trkpt lat="39.7823833" lon="8.8349717"><ele>169.0</ele><time>2026-04-23T12:20:59.513Z</time></trkpt><trkpt lat="39.78234" lon="8.835165"><ele>169.0</ele><time>2026-04-23T12:21:00.512Z</time></trkpt><trkpt lat="39.7823" lon="8.83537"><ele>170.0</ele><time>2026-04-23T12:21:01.512Z</time></trkpt><trkpt lat="39.7822617" lon="8.8355733"><ele>171.0</ele><time>2026-04-23T12:21:02.512Z</time></trkpt><trkpt lat="39.782225" lon="8.83577"><ele>172.0</ele><time>2026-04-23T12:21:03.512Z</time></trkpt><trkpt lat="39.7821867" lon="8.83596"><ele>173.25</ele><time>2026-04-23T12:21:04.513Z</time></trkpt><trkpt lat="39.782155" lon="8.83614"><ele>174.5</ele><time>2026-04-23T12:21:05.513Z</time></trkpt><trkpt lat="39.7821383" lon="8.8363133"><ele>175.75</ele><time>2026-04-23T12:21:06.513Z</time></trkpt><trkpt lat="39.7821417" lon="8.83648"><ele>177.0</ele><time>2026-04-23T12:21:07.512Z</time></trkpt><trkpt lat="39.7821783" lon="8.8366367"><ele>177.0</ele><time>2026-04-23T12:21:08.513Z</time></trkpt><trkpt lat="39.7822467" lon="8.8367917"><ele>177.0</ele><time>2026-04-23T12:21:09.513Z</time></trkpt><trkpt lat="39.78234" lon="8.836935"><ele>177.0</ele><time>2026-04-23T12:21:10.512Z</time></trkpt><trkpt lat="39.78247" lon="8.8370483"><ele>177.0</ele><time>2026-04-23T12:21:11.513Z</time></trkpt><trkpt lat="39.7826083" lon="8.8371467"><ele>178.25</ele><time>2026-04-23T12:21:12.513Z</time></trkpt><trkpt lat="39.7827433" lon="8.8372433"><ele>179.5</ele><time>2026-04-23T12:21:13.513Z</time></trkpt><trkpt lat="39.7828617" lon="8.8373367"><ele>180.75</ele><time>2026-04-23T12:21:14.512Z</time></trkpt><trkpt lat="39.7829733" lon="8.83742"><ele>182.0</ele><time>2026-04-23T12:21:15.513Z</time></trkpt><trkpt lat="39.7830883" lon="8.8374867"><ele>182.0</ele><time>2026-04-23T12:21:16.513Z</time></trkpt><trkpt lat="39.78321" lon="8.8375167"><ele>182.0</ele><time>2026-04-23T12:21:17.512Z</time></trkpt><trkpt lat="39.783325" lon="8.8375"><ele>182.0</ele><time>2026-04-23T12:21:18.512Z</time></trkpt><trkpt lat="39.78343" lon="8.8374717"><ele>182.0</ele><time>2026-04-23T12:21:19.513Z</time></trkpt><trkpt lat="39.783525" lon="8.8374733"><ele>182.0</ele><time>2026-04-23T12:21:20.512Z</time></trkpt><trkpt lat="39.7836" lon="8.83751"><ele>183.0</ele><time>2026-04-23T12:21:21.512Z</time></trkpt><trkpt lat="39.7836567" lon="8.837585"><ele>184.0</ele><time>2026-04-23T12:21:22.513Z</time></trkpt><trkpt lat="39.7836917" lon="8.837695"><ele>185.0</ele><time>2026-04-23T12:21:23.512Z</time></trkpt><trkpt lat="39.78368" lon="8.83783"><ele>186.0</ele><time>2026-04-23T12:21:24.512Z</time></trkpt><trkpt lat="39.7836217" lon="8.8379567"><ele>187.0</ele><time>2026-04-23T12:21:25.513Z</time></trkpt><trkpt lat="39.7835383" lon="8.838065"><ele>187.25</ele><time>2026-04-23T12:21:26.513Z</time></trkpt><trkpt lat="39.7834367" lon="8.8381683"><ele>187.5</ele><time>2026-04-23T12:21:27.512Z</time></trkpt><trkpt lat="39.783365" lon="8.8382967"><ele>187.75</ele><time>2026-04-23T12:21:28.512Z</time></trkpt><trkpt lat="39.7833133" lon="8.8384483"><ele>188.0</ele><time>2026-04-23T12:21:29.512Z</time></trkpt><trkpt lat="39.78329" lon="8.838615"><ele>188.0</ele><time>2026-04-23T12:21:30.512Z</time></trkpt><trkpt lat="39.783295" lon="8.8387833"><ele>188.0</ele><time>2026-04-23T12:21:31.513Z</time></trkpt><trkpt lat="39.78333" lon="8.8389483"><ele>188.0</ele><time>2026-04-23T12:21:32.512Z</time></trkpt><trkpt lat="39.7833883" lon="8.8391"><ele>188.0</ele><time>2026-04-23T12:21:33.512Z</time></trkpt><trkpt lat="39.7834683" lon="8.8392333"><ele>189.25</ele><time>2026-04-23T12:21:34.513Z</time></trkpt><trkpt lat="39.7835633" lon="8.8393467"><ele>190.5</ele><time>2026-04-23T12:21:35.513Z</time></trkpt><trkpt lat="39.783685" lon="8.8394233"><ele>191.75</ele><time>2026-04-23T12:21:36.512Z</time></trkpt><trkpt lat="39.7838217" lon="8.839465"><ele>193.0</ele><time>2026-04-23T12:21:37.512Z</time></trkpt><trkpt lat="39.78396" lon="8.8395117"><ele>193.0</ele><time>2026-04-23T12:21:38.512Z</time></trkpt><trkpt lat="39.7840967" lon="8.8395733"><ele>193.0</ele><time>2026-04-23T12:21:39.512Z</time></trkpt><trkpt lat="39.784205" lon="8.839675"><ele>193.0</ele><time>2026-04-23T12:21:40.512Z</time></trkpt><trkpt lat="39.7842967" lon="8.8398017"><ele>193.0</ele><time>2026-04-23T12:21:41.512Z</time></trkpt><trkpt lat="39.7843833" lon="8.8399567"><ele>193.33333333333331</ele><time>2026-04-23T12:21:42.512Z</time></trkpt><trkpt lat="39.7844667" lon="8.8401233"><ele>193.66666666666669</ele><time>2026-04-23T12:21:43.513Z</time></trkpt><trkpt lat="39.7845467" lon="8.8402983"><ele>194.0</ele><time>2026-04-23T12:21:44.513Z</time></trkpt><trkpt lat="39.7846267" lon="8.84048"><ele>194.33333333333334</ele><time>2026-04-23T12:21:45.512Z</time></trkpt><trkpt lat="39.78472" lon="8.840665"><ele>194.66666666666669</ele><time>2026-04-23T12:21:46.513Z</time></trkpt><trkpt lat="39.7848183" lon="8.84086"><ele>195.0</ele><time>2026-04-23T12:21:47.512Z</time></trkpt><trkpt lat="39.7849133" lon="8.8410483"><ele>195.0</ele><time>2026-04-23T12:21:48.513Z</time></trkpt><trkpt lat="39.7849983" lon="8.8412283"><ele>195.0</ele><time>2026-04-23T12:21:49.513Z</time></trkpt><trkpt lat="39.7850833" lon="8.841395"><ele>195.0</ele><time>2026-04-23T12:21:50.512Z</time></trkpt><trkpt lat="39.7851567" lon="8.8415417"><ele>195.0</ele><time>2026-04-23T12:21:51.512Z</time></trkpt><trkpt lat="39.785215" lon="8.841665"><ele>195.0</ele><time>2026-04-23T12:21:52.513Z</time></trkpt><trkpt lat="39.78527" lon="8.8417833"><ele>195.0</ele><time>2026-04-23T12:21:53.512Z</time></trkpt><trkpt lat="39.7852833" lon="8.8419183"><ele>195.0</ele><time>2026-04-23T12:21:54.513Z</time></trkpt><trkpt lat="39.7852583" lon="8.8420483"><ele>195.0</ele><time>2026-04-23T12:21:55.512Z</time></trkpt><trkpt lat="39.7851917" lon="8.842175"><ele>193.5</ele><time>2026-04-23T12:21:56.512Z</time></trkpt><trkpt lat="39.785085" lon="8.8422767"><ele>192.0</ele><time>2026-04-23T12:21:57.512Z</time></trkpt><trkpt lat="39.7849817" lon="8.8423767"><ele>190.5</ele><time>2026-04-23T12:21:58.513Z</time></trkpt><trkpt lat="39.7848883" lon="8.8424817"><ele>189.0</ele><time>2026-04-23T12:21:59.512Z</time></trkpt><trkpt lat="39.7847883" lon="8.8425933"><ele>188.25</ele><time>2026-04-23T12:22:00.513Z</time></trkpt><trkpt lat="39.784685" lon="8.8426983"><ele>187.5</ele><time>2026-04-23T12:22:01.513Z</time></trkpt><trkpt lat="39.7845833" lon="8.84279"><ele>186.75</ele><time>2026-04-23T12:22:02.513Z</time></trkpt><trkpt lat="39.7844767" lon="8.8428717"><ele>186.0</ele><time>2026-04-23T12:22:03.513Z</time></trkpt><trkpt lat="39.7843883" lon="8.8429733"><ele>185.8</ele><time>2026-04-23T12:22:04.512Z</time></trkpt><trkpt lat="39.7843383" lon="8.8431083"><ele>185.60000000000002</ele><time>2026-04-23T12:22:05.512Z</time></trkpt><trkpt lat="39.784325" lon="8.8432633"><ele>185.4</ele><time>2026-04-23T12:22:06.512Z</time></trkpt><trkpt lat="39.7843317" lon="8.8434017"><ele>185.2</ele><time>2026-04-23T12:22:07.513Z</time></trkpt><trkpt lat="39.7843283" lon="8.8435283"><ele>185.0</ele><time>2026-04-23T12:22:08.512Z</time></trkpt><trkpt lat="39.78429" lon="8.8436383"><ele>186.0</ele><time>2026-04-23T12:22:09.512Z</time></trkpt><trkpt lat="39.7842283" lon="8.8437117"><ele>187.0</ele><time>2026-04-23T12:22:10.513Z</time></trkpt><trkpt lat="39.7841483" lon="8.8437567"><ele>188.0</ele><time>2026-04-23T12:22:11.512Z</time></trkpt><trkpt lat="39.7840567" lon="8.843805"><ele>189.0</ele><time>2026-04-23T12:22:12.513Z</time></trkpt><trkpt lat="39.7839783" lon="8.843875"><ele>190.0</ele><time>2026-04-23T12:22:13.512Z</time></trkpt><trkpt lat="39.78394" lon="8.8439817"><ele>190.0</ele><time>2026-04-23T12:22:14.513Z</time></trkpt><trkpt lat="39.78395" lon="8.8441017"><ele>190.0</ele><time>2026-04-23T12:22:15.513Z</time></trkpt><trkpt lat="39.783985" lon="8.8442183"><ele>190.0</ele><time>2026-04-23T12:22:16.512Z</time></trkpt><trkpt lat="39.7840633" lon="8.844325"><ele>190.0</ele><time>2026-04-23T12:22:17.513Z</time></trkpt><trkpt lat="39.7841517" lon="8.844435"><ele>190.0</ele><time>2026-04-23T12:22:18.512Z</time></trkpt><trkpt lat="39.7842267" lon="8.8445717"><ele>190.75</ele><time>2026-04-23T12:22:19.512Z</time></trkpt><trkpt lat="39.7842633" lon="8.8447333"><ele>191.5</ele><time>2026-04-23T12:22:20.512Z</time></trkpt><trkpt lat="39.7842617" lon="8.8449033"><ele>192.25</ele><time>2026-04-23T12:22:21.512Z</time></trkpt><trkpt lat="39.7842333" lon="8.84506"><ele>193.0</ele><time>2026-04-23T12:22:22.512Z</time></trkpt><trkpt lat="39.7842233" lon="8.8452033"><ele>193.5</ele><time>2026-04-23T12:22:23.512Z</time></trkpt><trkpt lat="39.7842533" lon="8.8453333"><ele>194.0</ele><time>2026-04-23T12:22:24.512Z</time></trkpt><trkpt lat="39.7843283" lon="8.845445"><ele>194.5</ele><time>2026-04-23T12:22:25.513Z</time></trkpt><trkpt lat="39.784435" lon="8.845535"><ele>195.0</ele><time>2026-04-23T12:22:26.512Z</time></trkpt><trkpt lat="39.784555" lon="8.84561"><ele>196.0</ele><time>2026-04-23T12:22:27.513Z</time></trkpt><trkpt lat="39.7846933" lon="8.8456783"><ele>197.0</ele><time>2026-04-23T12:22:28.513Z</time></trkpt><trkpt lat="39.7848417" lon="8.8457467"><ele>198.0</ele><time>2026-04-23T12:22:29.512Z</time></trkpt><trkpt lat="39.78499" lon="8.8458283"><ele>198.0</ele><time>2026-04-23T12:22:30.513Z</time></trkpt><trkpt lat="39.785125" lon="8.8459283"><ele>198.0</ele><time>2026-04-23T12:22:31.512Z</time></trkpt><trkpt lat="39.7852583" lon="8.846045"><ele>198.0</ele><time>2026-04-23T12:22:32.513Z</time></trkpt><trkpt lat="39.7853783" lon="8.84616"><ele>199.5</ele><time>2026-04-23T12:22:33.513Z</time></trkpt><trkpt lat="39.78549" lon="8.8462583"><ele>201.0</ele><time>2026-04-23T12:22:34.512Z</time></trkpt><trkpt lat="39.78558" lon="8.8463633"><ele>202.5</ele><time>2026-04-23T12:22:35.513Z</time></trkpt><trkpt lat="39.7856417" lon="8.84649"><ele>204.0</ele><time>2026-04-23T12:22:36.513Z</time></trkpt><trkpt lat="39.7856733" lon="8.8466517"><ele>205.0</ele><time>2026-04-23T12:22:37.513Z</time></trkpt><trkpt lat="39.7856767" lon="8.8468283"><ele>206.0</ele><time>2026-04-23T12:22:38.512Z</time></trkpt><trkpt lat="39.7856567" lon="8.8470183"><ele>207.0</ele><time>2026-04-23T12:22:39.513Z</time></trkpt><trkpt lat="39.785625" lon="8.8472217"><ele>208.0</ele><time>2026-04-23T12:22:40.513Z</time></trkpt><trkpt lat="39.7855883" lon="8.8474317"><ele>209.33333333333331</ele><time>2026-04-23T12:22:41.512Z</time></trkpt><trkpt lat="39.78555" lon="8.8476467"><ele>210.66666666666669</ele><time>2026-04-23T12:22:42.512Z</time></trkpt><trkpt lat="39.7855117" lon="8.847865"><ele>212.0</ele><time>2026-04-23T12:22:43.513Z</time></trkpt><trkpt lat="39.785475" lon="8.848085"><ele>212.0</ele><time>2026-04-23T12:22:44.512Z</time></trkpt><trkpt lat="39.7854433" lon="8.8483017"><ele>212.0</ele><time>2026-04-23T12:22:45.512Z</time></trkpt><trkpt lat="39.7854083" lon="8.8485133"><ele>212.0</ele><time>2026-04-23T12:22:46.512Z</time></trkpt><trkpt lat="39.785375" lon="8.8487233"><ele>212.66666666666669</ele><time>2026-04-23T12:22:47.513Z</time></trkpt><trkpt lat="39.7853483" lon="8.8489317"><ele>213.33333333333331</ele><time>2026-04-23T12:22:48.513Z</time></trkpt><trkpt lat="39.7853217" lon="8.84914"><ele>214.0</ele><time>2026-04-23T12:22:49.512Z</time></trkpt><trkpt lat="39.785305" lon="8.8493383"><ele>214.66666666666666</ele><time>2026-04-23T12:22:50.512Z</time></trkpt><trkpt lat="39.7852967" lon="8.8495333"><ele>215.33333333333331</ele><time>2026-04-23T12:22:51.513Z</time></trkpt><trkpt lat="39.785285" lon="8.8497283"><ele>216.0</ele><time>2026-04-23T12:22:52.513Z</time></trkpt><trkpt lat="39.7852767" lon="8.8499283"><ele>216.5</ele><time>2026-04-23T12:22:53.513Z</time></trkpt><trkpt lat="39.7852683" lon="8.850125"><ele>217.0</ele><time>2026-04-23T12:22:54.513Z</time></trkpt><trkpt lat="39.7852633" lon="8.85031"><ele>217.5</ele><time>2026-04-23T12:22:55.512Z</time></trkpt><trkpt lat="39.78526" lon="8.85049"><ele>218.0</ele><time>2026-04-23T12:22:56.513Z</time></trkpt><trkpt lat="39.785265" lon="8.8506683"><ele>218.0</ele><time>2026-04-23T12:22:57.513Z</time></trkpt><trkpt lat="39.78528" lon="8.85085"><ele>218.0</ele><time>2026-04-23T12:22:58.512Z</time></trkpt><trkpt lat="39.7853133" lon="8.85102"><ele>218.0</ele><time>2026-04-23T12:22:59.512Z</time></trkpt><trkpt lat="39.785365" lon="8.8511833"><ele>218.0</ele><time>2026-04-23T12:23:00.512Z</time></trkpt><trkpt lat="39.78544" lon="8.8513433"><ele>218.66666666666669</ele><time>2026-04-23T12:23:01.512Z</time></trkpt><trkpt lat="39.7855333" lon="8.8514917"><ele>219.33333333333331</ele><time>2026-04-23T12:23:02.513Z</time></trkpt><trkpt lat="39.785645" lon="8.85163"><ele>220.0</ele><time>2026-04-23T12:23:03.513Z</time></trkpt><trkpt lat="39.7857633" lon="8.851755"><ele>220.0</ele><time>2026-04-23T12:23:04.513Z</time></trkpt><trkpt lat="39.78588" lon="8.8518717"><ele>220.0</ele><time>2026-04-23T12:23:05.513Z</time></trkpt><trkpt lat="39.785995" lon="8.8519883"><ele>220.0</ele><time>2026-04-23T12:23:06.513Z</time></trkpt><trkpt lat="39.786115" lon="8.8521083"><ele>220.0</ele><time>2026-04-23T12:23:07.512Z</time></trkpt><trkpt lat="39.7862317" lon="8.8522267"><ele>220.0</ele><time>2026-04-23T12:23:08.513Z</time></trkpt><trkpt lat="39.7863533" lon="8.8523533"><ele>220.0</ele><time>2026-04-23T12:23:09.512Z</time></trkpt><trkpt lat="39.7864683" lon="8.8524733"><ele>220.0</ele><time>2026-04-23T12:23:10.512Z</time></trkpt><trkpt lat="39.7865783" lon="8.8525917"><ele>220.0</ele><time>2026-04-23T12:23:11.513Z</time></trkpt><trkpt lat="39.7867" lon="8.8527067"><ele>218.75</ele><time>2026-04-23T12:23:12.513Z</time></trkpt><trkpt lat="39.786815" lon="8.852825"><ele>217.5</ele><time>2026-04-23T12:23:13.512Z</time></trkpt><trkpt lat="39.786935" lon="8.8529217"><ele>216.25</ele><time>2026-04-23T12:23:14.513Z</time></trkpt><trkpt lat="39.7870717" lon="8.853005"><ele>215.0</ele><time>2026-04-23T12:23:15.512Z</time></trkpt><trkpt lat="39.78722" lon="8.8530767"><ele>214.33333333333334</ele><time>2026-04-23T12:23:16.513Z</time></trkpt><trkpt lat="39.78739" lon="8.8531367"><ele>213.66666666666669</ele><time>2026-04-23T12:23:17.512Z</time></trkpt><trkpt lat="39.7875583" lon="8.8531867"><ele>213.0</ele><time>2026-04-23T12:23:18.512Z</time></trkpt><trkpt lat="39.78773" lon="8.853225"><ele>212.66666666666669</ele><time>2026-04-23T12:23:19.513Z</time></trkpt><trkpt lat="39.7878967" lon="8.8532667"><ele>212.33333333333334</ele><time>2026-04-23T12:23:20.513Z</time></trkpt><trkpt lat="39.78806" lon="8.8533083"><ele>212.0</ele><time>2026-04-23T12:23:21.512Z</time></trkpt><trkpt lat="39.7882267" lon="8.8533483"><ele>212.0</ele><time>2026-04-23T12:23:22.513Z</time></trkpt><trkpt lat="39.7883983" lon="8.8533867"><ele>212.0</ele><time>2026-04-23T12:23:23.513Z</time></trkpt><trkpt lat="39.7885717" lon="8.8534317"><ele>212.0</ele><time>2026-04-23T12:23:24.512Z</time></trkpt><trkpt lat="39.788745" lon="8.853475"><ele>213.0</ele><time>2026-04-23T12:23:25.513Z</time></trkpt><trkpt lat="39.7889183" lon="8.8535283"><ele>214.0</ele><time>2026-04-23T12:23:26.513Z</time></trkpt><trkpt lat="39.7890867" lon="8.8535817"><ele>215.0</ele><time>2026-04-23T12:23:27.512Z</time></trkpt><trkpt lat="39.7892467" lon="8.85366"><ele>216.66666666666669</ele><time>2026-04-23T12:23:28.512Z</time></trkpt><trkpt lat="39.7893967" lon="8.8537683"><ele>218.33333333333331</ele><time>2026-04-23T12:23:29.512Z</time></trkpt><trkpt lat="39.78953" lon="8.853895"><ele>220.0</ele><time>2026-04-23T12:23:30.513Z</time></trkpt><trkpt lat="39.7896483" lon="8.8540233"><ele>220.0</ele><time>2026-04-23T12:23:31.512Z</time></trkpt><trkpt lat="39.789755" lon="8.8541567"><ele>220.0</ele><time>2026-04-23T12:23:32.512Z</time></trkpt><trkpt lat="39.7898617" lon="8.854285"><ele>220.0</ele><time>2026-04-23T12:23:33.512Z</time></trkpt><trkpt lat="39.7899633" lon="8.8544117"><ele>220.0</ele><time>2026-04-23T12:23:34.513Z</time></trkpt><trkpt lat="39.7900617" lon="8.8545117"><ele>219.75</ele><time>2026-04-23T12:23:35.513Z</time></trkpt><trkpt lat="39.7901533" lon="8.85461"><ele>219.5</ele><time>2026-04-23T12:23:36.512Z</time></trkpt><trkpt lat="39.79024" lon="8.8547133"><ele>219.25</ele><time>2026-04-23T12:23:37.512Z</time></trkpt><trkpt lat="39.790325" lon="8.85481"><ele>219.0</ele><time>2026-04-23T12:23:38.513Z</time></trkpt><trkpt lat="39.7904117" lon="8.85489"><ele>218.25</ele><time>2026-04-23T12:23:39.513Z</time></trkpt><trkpt lat="39.79051" lon="8.8549633"><ele>217.5</ele><time>2026-04-23T12:23:40.512Z</time></trkpt><trkpt lat="39.7906167" lon="8.8550133"><ele>216.75</ele><time>2026-04-23T12:23:41.512Z</time></trkpt><trkpt lat="39.790735" lon="8.8550383"><ele>216.0</ele><time>2026-04-23T12:23:42.512Z</time></trkpt><trkpt lat="39.7908583" lon="8.8550433"><ele>216.0</ele><time>2026-04-23T12:23:43.512Z</time></trkpt><trkpt lat="39.790975" lon="8.8550533"><ele>216.0</ele><time>2026-04-23T12:23:44.513Z</time></trkpt><trkpt lat="39.7910883" lon="8.85506"><ele>216.0</ele><time>2026-04-23T12:23:45.512Z</time></trkpt><trkpt lat="39.7911983" lon="8.8550467"><ele>216.0</ele><time>2026-04-23T12:23:46.513Z</time></trkpt><trkpt lat="39.7913083" lon="8.8550383"><ele>216.0</ele><time>2026-04-23T12:23:47.512Z</time></trkpt><trkpt lat="39.7914217" lon="8.8550183"><ele>216.0</ele><time>2026-04-23T12:23:48.512Z</time></trkpt><trkpt lat="39.791545" lon="8.8550217"><ele>216.0</ele><time>2026-04-23T12:23:49.513Z</time></trkpt><trkpt lat="39.7916633" lon="8.85506"><ele>216.0</ele><time>2026-04-23T12:23:50.513Z</time></trkpt><trkpt lat="39.7917817" lon="8.8551033"><ele>215.5</ele><time>2026-04-23T12:23:51.512Z</time></trkpt><trkpt lat="39.791885" lon="8.8551817"><ele>215.0</ele><time>2026-04-23T12:23:52.512Z</time></trkpt><trkpt lat="39.7919817" lon="8.855265"><ele>214.5</ele><time>2026-04-23T12:23:53.513Z</time></trkpt><trkpt lat="39.7920717" lon="8.85537"><ele>214.0</ele><time>2026-04-23T12:23:54.512Z</time></trkpt><trkpt lat="39.7921517" lon="8.855485"><ele>214.0</ele><time>2026-04-23T12:23:55.512Z</time></trkpt><trkpt lat="39.792225" lon="8.85561"><ele>214.0</ele><time>2026-04-23T12:23:56.513Z</time></trkpt><trkpt lat="39.7922933" lon="8.855735"><ele>214.0</ele><time>2026-04-23T12:23:57.512Z</time></trkpt><trkpt lat="39.7923683" lon="8.8558483"><ele>214.0</ele><time>2026-04-23T12:23:58.512Z</time></trkpt><trkpt lat="39.7924467" lon="8.85596"><ele>214.2</ele><time>2026-04-23T12:23:59.512Z</time></trkpt><trkpt lat="39.7925233" lon="8.8560667"><ele>214.39999999999998</ele><time>2026-04-23T12:24:00.513Z</time></trkpt><trkpt lat="39.7926017" lon="8.85618"><ele>214.6</ele><time>2026-04-23T12:24:01.513Z</time></trkpt><trkpt lat="39.792675" lon="8.8562883"><ele>214.8</ele><time>2026-04-23T12:24:02.513Z</time></trkpt><trkpt lat="39.7927367" lon="8.8564017"><ele>215.0</ele><time>2026-04-23T12:24:03.513Z</time></trkpt><trkpt lat="39.7928117" lon="8.85651"><ele>215.0</ele><time>2026-04-23T12:24:04.512Z</time></trkpt><trkpt lat="39.7928783" lon="8.856625"><ele>215.0</ele><time>2026-04-23T12:24:05.512Z</time></trkpt><trkpt lat="39.792935" lon="8.856725"><ele>215.0</ele><time>2026-04-23T12:24:06.512Z</time></trkpt><trkpt lat="39.79299" lon="8.8568133"><ele>215.0</ele><time>2026-04-23T12:24:07.512Z</time></trkpt><trkpt lat="39.7930433" lon="8.8569"><ele>215.0</ele><time>2026-04-23T12:24:08.513Z</time></trkpt><trkpt lat="39.7930933" lon="8.856985"><ele>215.66666666666669</ele><time>2026-04-23T12:24:09.513Z</time></trkpt><trkpt lat="39.7931467" lon="8.8570633"><ele>216.33333333333334</ele><time>2026-04-23T12:24:10.513Z</time></trkpt><trkpt lat="39.7932067" lon="8.8571283"><ele>217.0</ele><time>2026-04-23T12:24:11.512Z</time></trkpt><trkpt lat="39.7932817" lon="8.8571683"><ele>217.66666666666669</ele><time>2026-04-23T12:24:12.513Z</time></trkpt><trkpt lat="39.7933717" lon="8.8571683"><ele>218.33333333333334</ele><time>2026-04-23T12:24:13.513Z</time></trkpt><trkpt lat="39.7934617" lon="8.857145"><ele>219.0</ele><time>2026-04-23T12:24:14.513Z</time></trkpt><trkpt lat="39.793565" lon="8.8571083"><ele>219.5</ele><time>2026-04-23T12:24:15.512Z</time></trkpt><trkpt lat="39.793675" lon="8.8570817"><ele>220.0</ele><time>2026-04-23T12:24:16.512Z</time></trkpt><trkpt lat="39.7937967" lon="8.8570517"><ele>220.5</ele><time>2026-04-23T12:24:17.512Z</time></trkpt><trkpt lat="39.7939217" lon="8.8570233"><ele>221.0</ele><time>2026-04-23T12:24:18.512Z</time></trkpt><trkpt lat="39.79404" lon="8.857005"><ele>221.0</ele><time>2026-04-23T12:24:19.513Z</time></trkpt><trkpt lat="39.7941467" lon="8.85699"><ele>221.00000000000003</ele><time>2026-04-23T12:24:20.512Z</time></trkpt><trkpt lat="39.79425" lon="8.8569667"><ele>221.00000000000003</ele><time>2026-04-23T12:24:21.512Z</time></trkpt><trkpt lat="39.7943567" lon="8.8569417"><ele>221.0</ele><time>2026-04-23T12:24:22.513Z</time></trkpt><trkpt lat="39.7944667" lon="8.8569133"><ele>221.0</ele><time>2026-04-23T12:24:23.512Z</time></trkpt><trkpt lat="39.794585" lon="8.85689"><ele>221.0</ele><time>2026-04-23T12:24:24.513Z</time></trkpt><trkpt lat="39.7946967" lon="8.8568717"><ele>221.00000000000003</ele><time>2026-04-23T12:24:25.513Z</time></trkpt><trkpt lat="39.7948067" lon="8.8568517"><ele>221.00000000000003</ele><time>2026-04-23T12:24:26.513Z</time></trkpt><trkpt lat="39.7949117" lon="8.8568367"><ele>221.0</ele><time>2026-04-23T12:24:27.513Z</time></trkpt><trkpt lat="39.7950117" lon="8.85683"><ele>221.0</ele><time>2026-04-23T12:24:28.512Z</time></trkpt><trkpt lat="39.7951067" lon="8.8568117"><ele>221.4</ele><time>2026-04-23T12:24:29.512Z</time></trkpt><trkpt lat="39.7952033" lon="8.8567967"><ele>221.8</ele><time>2026-04-23T12:24:30.512Z</time></trkpt><trkpt lat="39.7953067" lon="8.8567833"><ele>222.20000000000002</ele><time>2026-04-23T12:24:31.513Z</time></trkpt><trkpt lat="39.7954117" lon="8.856765"><ele>222.60000000000002</ele><time>2026-04-23T12:24:32.513Z</time></trkpt><trkpt lat="39.79552" lon="8.8567517"><ele>223.0</ele><time>2026-04-23T12:24:33.512Z</time></trkpt><trkpt lat="39.7956283" lon="8.856735"><ele>223.25</ele><time>2026-04-23T12:24:34.513Z</time></trkpt><trkpt lat="39.7957467" lon="8.8567217"><ele>223.5</ele><time>2026-04-23T12:24:35.513Z</time></trkpt><trkpt lat="39.7958717" lon="8.856705"><ele>223.75</ele><time>2026-04-23T12:24:36.512Z</time></trkpt><trkpt lat="39.7960033" lon="8.85668"><ele>224.0</ele><time>2026-04-23T12:24:37.513Z</time></trkpt><trkpt lat="39.7961383" lon="8.8566517"><ele>224.25</ele><time>2026-04-23T12:24:38.512Z</time></trkpt><trkpt lat="39.7962767" lon="8.8566267"><ele>224.5</ele><time>2026-04-23T12:24:39.513Z</time></trkpt><trkpt lat="39.79641" lon="8.8566"><ele>224.75</ele><time>2026-04-23T12:24:40.512Z</time></trkpt><trkpt lat="39.7965483" lon="8.85657"><ele>225.0</ele><time>2026-04-23T12:24:41.513Z</time></trkpt><trkpt lat="39.796685" lon="8.856545"><ele>225.0</ele><time>2026-04-23T12:24:42.513Z</time></trkpt><trkpt lat="39.7968333" lon="8.8565183"><ele>225.0</ele><time>2026-04-23T12:24:43.512Z</time></trkpt><trkpt lat="39.7969817" lon="8.8564867"><ele>225.0</ele><time>2026-04-23T12:24:44.512Z</time></trkpt><trkpt lat="39.797125" lon="8.8564583"><ele>225.0</ele><time>2026-04-23T12:24:45.513Z</time></trkpt><trkpt lat="39.7972667" lon="8.8564233"><ele>226.0</ele><time>2026-04-23T12:24:46.512Z</time></trkpt><trkpt lat="39.7974067" lon="8.856385"><ele>227.0</ele><time>2026-04-23T12:24:47.513Z</time></trkpt><trkpt lat="39.7975517" lon="8.8563517"><ele>228.0</ele><time>2026-04-23T12:24:48.513Z</time></trkpt><trkpt lat="39.7977017" lon="8.8563183"><ele>229.0</ele><time>2026-04-23T12:24:49.513Z</time></trkpt><trkpt lat="39.797845" lon="8.856285"><ele>230.0</ele><time>2026-04-23T12:24:50.512Z</time></trkpt><trkpt lat="39.7979933" lon="8.8562483"><ele>231.0</ele><time>2026-04-23T12:24:51.512Z</time></trkpt><trkpt lat="39.7981433" lon="8.8562183"><ele>232.0</ele><time>2026-04-23T12:24:52.512Z</time></trkpt><trkpt lat="39.79829" lon="8.8561817"><ele>232.0</ele><time>2026-04-23T12:24:53.512Z</time></trkpt><trkpt lat="39.7984417" lon="8.856145"><ele>232.0</ele><time>2026-04-23T12:24:54.512Z</time></trkpt><trkpt lat="39.798585" lon="8.8560983"><ele>232.0</ele><time>2026-04-23T12:24:55.512Z</time></trkpt><trkpt lat="39.7987333" lon="8.8560383"><ele>233.0</ele><time>2026-04-23T12:24:56.513Z</time></trkpt><trkpt lat="39.7988817" lon="8.8559667"><ele>234.0</ele><time>2026-04-23T12:24:57.513Z</time></trkpt><trkpt lat="39.7990217" lon="8.855885"><ele>235.0</ele><time>2026-04-23T12:24:58.512Z</time></trkpt><trkpt lat="39.7991583" lon="8.8557917"><ele>235.0</ele><time>2026-04-23T12:24:59.512Z</time></trkpt><trkpt lat="39.7992917" lon="8.8556883"><ele>235.0</ele><time>2026-04-23T12:25:00.512Z</time></trkpt><trkpt lat="39.7994233" lon="8.855575"><ele>235.0</ele><time>2026-04-23T12:25:01.511Z</time></trkpt><trkpt lat="39.7995483" lon="8.8554483"><ele>237.0</ele><time>2026-04-23T12:25:02.512Z</time></trkpt><trkpt lat="39.7996717" lon="8.8553133"><ele>239.0</ele><time>2026-04-23T12:25:03.511Z</time></trkpt><trkpt lat="39.7997883" lon="8.8551683"><ele>241.0</ele><time>2026-04-23T12:25:04.512Z</time></trkpt><trkpt lat="39.7999" lon="8.8550133"><ele>241.0</ele><time>2026-04-23T12:25:05.511Z</time></trkpt><trkpt lat="39.8000167" lon="8.8548583"><ele>241.0</ele><time>2026-04-23T12:25:06.511Z</time></trkpt><trkpt lat="39.8001233" lon="8.854705"><ele>241.0</ele><time>2026-04-23T12:25:07.512Z</time></trkpt><trkpt lat="39.80024" lon="8.854555"><ele>242.0</ele><time>2026-04-23T12:25:08.512Z</time></trkpt><trkpt lat="39.8003583" lon="8.8544183"><ele>243.0</ele><time>2026-04-23T12:25:09.511Z</time></trkpt><trkpt lat="39.8004867" lon="8.8542917"><ele>244.0</ele><time>2026-04-23T12:25:10.512Z</time></trkpt><trkpt lat="39.8006233" lon="8.8541733"><ele>244.66666666666666</ele><time>2026-04-23T12:25:11.511Z</time></trkpt><trkpt lat="39.80076" lon="8.8540583"><ele>245.33333333333331</ele><time>2026-04-23T12:25:12.511Z</time></trkpt><trkpt lat="39.8009033" lon="8.8539517"><ele>246.0</ele><time>2026-04-23T12:25:13.511Z</time></trkpt><trkpt lat="39.8010483" lon="8.8538617"><ele>247.0</ele><time>2026-04-23T12:25:14.512Z</time></trkpt><trkpt lat="39.8011967" lon="8.8537817"><ele>248.0</ele><time>2026-04-23T12:25:15.511Z</time></trkpt><trkpt lat="39.8013483" lon="8.8537267"><ele>249.0</ele><time>2026-04-23T12:25:16.512Z</time></trkpt><trkpt lat="39.8014967" lon="8.8536817"><ele>249.0</ele><time>2026-04-23T12:25:17.511Z</time></trkpt><trkpt lat="39.8016433" lon="8.853645"><ele>249.0</ele><time>2026-04-23T12:25:18.511Z</time></trkpt><trkpt lat="39.8017817" lon="8.85361"><ele>249.0</ele><time>2026-04-23T12:25:19.511Z</time></trkpt><trkpt lat="39.801915" lon="8.8535833"><ele>249.0</ele><time>2026-04-23T12:25:20.511Z</time></trkpt><trkpt lat="39.802045" lon="8.85356"><ele>249.75</ele><time>2026-04-23T12:25:21.512Z</time></trkpt><trkpt lat="39.80217" lon="8.8535333"><ele>250.5</ele><time>2026-04-23T12:25:22.511Z</time></trkpt><trkpt lat="39.8022883" lon="8.853505"><ele>251.25</ele><time>2026-04-23T12:25:23.512Z</time></trkpt><trkpt lat="39.8024133" lon="8.8534733"><ele>252.0</ele><time>2026-04-23T12:25:24.511Z</time></trkpt><trkpt lat="39.8025383" lon="8.8534417"><ele>253.5</ele><time>2026-04-23T12:25:25.512Z</time></trkpt><trkpt lat="39.802665" lon="8.8534167"><ele>255.0</ele><time>2026-04-23T12:25:26.512Z</time></trkpt><trkpt lat="39.8027967" lon="8.85339"><ele>256.5</ele><time>2026-04-23T12:25:27.512Z</time></trkpt><trkpt lat="39.80292" lon="8.853365"><ele>258.0</ele><time>2026-04-23T12:25:28.512Z</time></trkpt><trkpt lat="39.8030383" lon="8.8533367"><ele>258.0</ele><time>2026-04-23T12:25:29.512Z</time></trkpt><trkpt lat="39.8031533" lon="8.8533117"><ele>258.0</ele><time>2026-04-23T12:25:30.511Z</time></trkpt><trkpt lat="39.8032633" lon="8.85329"><ele>258.0</ele><time>2026-04-23T12:25:31.511Z</time></trkpt><trkpt lat="39.80337" lon="8.8532733"><ele>258.0</ele><time>2026-04-23T12:25:32.511Z</time></trkpt><trkpt lat="39.8034733" lon="8.85325"><ele>258.0</ele><time>2026-04-23T12:25:33.511Z</time></trkpt><trkpt lat="39.803585" lon="8.85323"><ele>258.8</ele><time>2026-04-23T12:25:34.511Z</time></trkpt><trkpt lat="39.8036883" lon="8.8532167"><ele>259.6</ele><time>2026-04-23T12:25:35.511Z</time></trkpt><trkpt lat="39.803785" lon="8.8532"><ele>260.4</ele><time>2026-04-23T12:25:36.511Z</time></trkpt><trkpt lat="39.80387" lon="8.8531883"><ele>261.2</ele><time>2026-04-23T12:25:37.512Z</time></trkpt><trkpt lat="39.8039533" lon="8.8531683"><ele>262.0</ele><time>2026-04-23T12:25:38.511Z</time></trkpt><trkpt lat="39.804045" lon="8.8531483"><ele>262.0</ele><time>2026-04-23T12:25:39.512Z</time></trkpt><trkpt lat="39.80413" lon="8.853125"><ele>262.0</ele><time>2026-04-23T12:25:40.512Z</time></trkpt><trkpt lat="39.8042183" lon="8.8531017"><ele>262.0</ele><time>2026-04-23T12:25:41.511Z</time></trkpt><trkpt lat="39.8043017" lon="8.853085"><ele>262.0</ele><time>2026-04-23T12:25:42.512Z</time></trkpt><trkpt lat="39.8043833" lon="8.8530633"><ele>262.0</ele><time>2026-04-23T12:25:43.512Z</time></trkpt><trkpt lat="39.8044617" lon="8.85304"><ele>262.0</ele><time>2026-04-23T12:25:44.511Z</time></trkpt><trkpt lat="39.804535" lon="8.8530233"><ele>262.4</ele><time>2026-04-23T12:25:45.512Z</time></trkpt><trkpt lat="39.8046183" lon="8.8530033"><ele>262.79999999999995</ele><time>2026-04-23T12:25:46.511Z</time></trkpt><trkpt lat="39.8047083" lon="8.8529767"><ele>263.2</ele><time>2026-04-23T12:25:47.512Z</time></trkpt><trkpt lat="39.80481" lon="8.85296"><ele>263.59999999999997</ele><time>2026-04-23T12:25:48.511Z</time></trkpt><trkpt lat="39.8049183" lon="8.8529367"><ele>264.0</ele><time>2026-04-23T12:25:49.512Z</time></trkpt><trkpt lat="39.8050417" lon="8.8529217"><ele>264.0</ele><time>2026-04-23T12:25:50.512Z</time></trkpt><trkpt lat="39.8051567" lon="8.8529017"><ele>264.0</ele><time>2026-04-23T12:25:51.511Z</time></trkpt><trkpt lat="39.8052583" lon="8.8528733"><ele>264.0</ele><time>2026-04-23T12:25:52.511Z</time></trkpt><trkpt lat="39.805325" lon="8.8528583"><ele>264.0</ele><time>2026-04-23T12:25:53.512Z</time></trkpt><trkpt lat="39.8053933" lon="8.8527833"><ele>264.0</ele><time>2026-04-23T12:25:55.511Z</time></trkpt><trkpt lat="39.8053883" lon="8.8526583"><ele>264.1666666666667</ele><time>2026-04-23T12:25:57.511Z</time></trkpt><trkpt lat="39.8053883" lon="8.8525383"><ele>264.3333333333333</ele><time>2026-04-23T12:26:21.512Z</time></trkpt><trkpt lat="39.8053367" lon="8.8526"><ele>264.5</ele><time>2026-04-23T12:26:25.512Z</time></trkpt><trkpt lat="39.8053417" lon="8.8527117"><ele>264.66666666666663</ele><time>2026-04-23T12:26:28.511Z</time></trkpt><trkpt lat="39.8053917" lon="8.8528117"><ele>264.8333333333333</ele><time>2026-04-23T12:26:33.511Z</time></trkpt><trkpt lat="39.8054767" lon="8.8528183"><ele>265.0</ele><time>2026-04-23T12:26:35.512Z</time></trkpt><trkpt lat="39.8055883" lon="8.85281"><ele>264.2</ele><time>2026-04-23T12:26:37.512Z</time></trkpt><trkpt lat="39.805655" lon="8.8528117"><ele>263.4</ele><time>2026-04-23T12:26:38.511Z</time></trkpt><trkpt lat="39.8057767" lon="8.85279"><ele>262.6</ele><time>2026-04-23T12:26:40.511Z</time></trkpt><trkpt lat="39.8058933" lon="8.8527683"><ele>261.8</ele><time>2026-04-23T12:26:42.512Z</time></trkpt><trkpt lat="39.8060133" lon="8.85274"><ele>261.0</ele><time>2026-04-23T12:26:44.511Z</time></trkpt><trkpt lat="39.8061217" lon="8.8527133"><ele>261.0</ele><time>2026-04-23T12:26:46.512Z</time></trkpt><trkpt lat="39.8062217" lon="8.8526833"><ele>261.0</ele><time>2026-04-23T12:26:48.512Z</time></trkpt><trkpt lat="39.8063317" lon="8.8526617"><ele>261.0</ele><time>2026-04-23T12:26:50.511Z</time></trkpt><trkpt lat="39.806395" lon="8.8526517"><ele>261.0</ele><time>2026-04-23T12:26:51.511Z</time></trkpt><trkpt lat="39.80646" lon="8.852635"><ele>261.0</ele><time>2026-04-23T12:26:52.511Z</time></trkpt><trkpt lat="39.8065383" lon="8.8526067"><ele>261.0</ele><time>2026-04-23T12:26:53.512Z</time></trkpt><trkpt lat="39.806615" lon="8.8525883"><ele>260.8333333333333</ele><time>2026-04-23T12:26:54.511Z</time></trkpt><trkpt lat="39.8066833" lon="8.852575"><ele>260.6666666666667</ele><time>2026-04-23T12:26:55.511Z</time></trkpt><trkpt lat="39.8067567" lon="8.8525683"><ele>260.5</ele><time>2026-04-23T12:26:56.512Z</time></trkpt><trkpt lat="39.8068367" lon="8.85256"><ele>260.33333333333337</ele><time>2026-04-23T12:26:57.511Z</time></trkpt><trkpt lat="39.8069067" lon="8.8525683"><ele>260.1666666666667</ele><time>2026-04-23T12:26:58.511Z</time></trkpt><trkpt lat="39.8069733" lon="8.8525967"><ele>260.0</ele><time>2026-04-23T12:26:59.512Z</time></trkpt><trkpt lat="39.8070517" lon="8.85265"><ele>260.0</ele><time>2026-04-23T12:27:00.511Z</time></trkpt><trkpt lat="39.8071233" lon="8.852705"><ele>260.0</ele><time>2026-04-23T12:27:01.511Z</time></trkpt><trkpt lat="39.8071883" lon="8.8527517"><ele>260.0</ele><time>2026-04-23T12:27:02.511Z</time></trkpt><trkpt lat="39.8072517" lon="8.8528183"><ele>260.0</ele><time>2026-04-23T12:27:03.512Z</time></trkpt><trkpt lat="39.8073233" lon="8.8528767"><ele>260.0</ele><time>2026-04-23T12:27:04.512Z</time></trkpt><trkpt lat="39.8074" lon="8.8529367"><ele>260.0</ele><time>2026-04-23T12:27:05.511Z</time></trkpt><trkpt lat="39.8074867" lon="8.85298"><ele>260.0</ele><time>2026-04-23T12:27:06.511Z</time></trkpt><trkpt lat="39.807575" lon="8.8529983"><ele>260.0</ele><time>2026-04-23T12:27:07.511Z</time></trkpt><trkpt lat="39.80767" lon="8.8529867"><ele>260.0</ele><time>2026-04-23T12:27:08.511Z</time></trkpt><trkpt lat="39.8077717" lon="8.8529583"><ele>260.0</ele><time>2026-04-23T12:27:09.511Z</time></trkpt><trkpt lat="39.8078633" lon="8.8529167"><ele>260.0</ele><time>2026-04-23T12:27:10.511Z</time></trkpt><trkpt lat="39.807955" lon="8.8528733"><ele>259.6666666666667</ele><time>2026-04-23T12:27:11.511Z</time></trkpt><trkpt lat="39.8080433" lon="8.8528367"><ele>259.33333333333337</ele><time>2026-04-23T12:27:12.511Z</time></trkpt><trkpt lat="39.8081233" lon="8.8528"><ele>259.0</ele><time>2026-04-23T12:27:13.511Z</time></trkpt><trkpt lat="39.8081917" lon="8.8527517"><ele>258.6666666666667</ele><time>2026-04-23T12:27:14.511Z</time></trkpt><trkpt lat="39.80825" lon="8.852695"><ele>258.3333333333333</ele><time>2026-04-23T12:27:15.512Z</time></trkpt><trkpt lat="39.8083017" lon="8.852625"><ele>258.0</ele><time>2026-04-23T12:27:16.511Z</time></trkpt><trkpt lat="39.8083317" lon="8.85253"><ele>259.3333333333333</ele><time>2026-04-23T12:27:17.512Z</time></trkpt><trkpt lat="39.8083533" lon="8.8524367"><ele>260.6666666666667</ele><time>2026-04-23T12:27:18.512Z</time></trkpt><trkpt lat="39.8083567" lon="8.8523283"><ele>262.0</ele><time>2026-04-23T12:27:19.512Z</time></trkpt><trkpt lat="39.80835" lon="8.85222"><ele>263.33333333333337</ele><time>2026-04-23T12:27:20.511Z</time></trkpt><trkpt lat="39.8083367" lon="8.8521167"><ele>264.6666666666667</ele><time>2026-04-23T12:27:21.511Z</time></trkpt><trkpt lat="39.808335" lon="8.8520317"><ele>266.0</ele><time>2026-04-23T12:27:22.512Z</time></trkpt><trkpt lat="39.8083333" lon="8.851945"><ele>266.0</ele><time>2026-04-23T12:27:23.512Z</time></trkpt><trkpt lat="39.8083383" lon="8.8518617"><ele>266.0</ele><time>2026-04-23T12:27:24.511Z</time></trkpt><trkpt lat="39.80836" lon="8.8517767"><ele>266.0</ele><time>2026-04-23T12:27:25.512Z</time></trkpt><trkpt lat="39.808395" lon="8.8516933"><ele>266.0</ele><time>2026-04-23T12:27:26.512Z</time></trkpt><trkpt lat="39.8084533" lon="8.8516267"><ele>266.0</ele><time>2026-04-23T12:27:27.511Z</time></trkpt><trkpt lat="39.80851" lon="8.8515667"><ele>266.0</ele><time>2026-04-23T12:27:28.511Z</time></trkpt><trkpt lat="39.80856" lon="8.8515017"><ele>266.0</ele><time>2026-04-23T12:27:29.512Z</time></trkpt><trkpt lat="39.8086133" lon="8.8514483"><ele>265.5</ele><time>2026-04-23T12:27:30.512Z</time></trkpt><trkpt lat="39.808675" lon="8.8514"><ele>265.0</ele><time>2026-04-23T12:27:31.512Z</time></trkpt><trkpt lat="39.808755" lon="8.8513717"><ele>264.5</ele><time>2026-04-23T12:27:32.511Z</time></trkpt><trkpt lat="39.808845" lon="8.851345"><ele>264.0</ele><time>2026-04-23T12:27:33.512Z</time></trkpt><trkpt lat="39.8089283" lon="8.851325"><ele>263.5</ele><time>2026-04-23T12:27:34.512Z</time></trkpt><trkpt lat="39.80901" lon="8.8512917"><ele>263.0</ele><time>2026-04-23T12:27:35.511Z</time></trkpt><trkpt lat="39.809085" lon="8.8512533"><ele>263.0</ele><time>2026-04-23T12:27:36.511Z</time></trkpt><trkpt lat="39.8091717" lon="8.8512183"><ele>263.0</ele><time>2026-04-23T12:27:37.512Z</time></trkpt><trkpt lat="39.8092567" lon="8.8511867"><ele>263.0</ele><time>2026-04-23T12:27:38.512Z</time></trkpt><trkpt lat="39.8093367" lon="8.851165"><ele>263.0</ele><time>2026-04-23T12:27:39.512Z</time></trkpt><trkpt lat="39.80941" lon="8.8511183"><ele>263.0</ele><time>2026-04-23T12:27:40.512Z</time></trkpt><trkpt lat="39.8094817" lon="8.8510617"><ele>263.0</ele><time>2026-04-23T12:27:41.511Z</time></trkpt><trkpt lat="39.8095983" lon="8.8510333"><ele>262.0</ele><time>2026-04-23T12:27:43.512Z</time></trkpt><trkpt lat="39.8096933" lon="8.8510267"><ele>261.0</ele><time>2026-04-23T12:27:45.512Z</time></trkpt><trkpt lat="39.8098117" lon="8.8510517"><ele>260.0</ele><time>2026-04-23T12:27:47.512Z</time></trkpt><trkpt lat="39.8098767" lon="8.851075"><ele>259.0</ele><time>2026-04-23T12:27:48.512Z</time></trkpt><trkpt lat="39.8099917" lon="8.851105"><ele>258.0</ele><time>2026-04-23T12:27:50.512Z</time></trkpt><trkpt lat="39.81008" lon="8.85113"><ele>258.0</ele><time>2026-04-23T12:27:52.512Z</time></trkpt><trkpt lat="39.8101567" lon="8.8511433"><ele>258.0</ele><time>2026-04-23T12:27:54.512Z</time></trkpt><trkpt lat="39.8102183" lon="8.8511683"><ele>258.0</ele><time>2026-04-23T12:27:56.511Z</time></trkpt><trkpt lat="39.8101783" lon="8.851085"><ele>258.0</ele><time>2026-04-23T12:28:03.512Z</time></trkpt><trkpt lat="39.8100783" lon="8.851085"><ele>258.0</ele><time>2026-04-23T12:28:05.512Z</time></trkpt><trkpt lat="39.80997" lon="8.85107"><ele>258.0</ele><time>2026-04-23T12:28:07.512Z</time></trkpt><trkpt lat="39.8098617" lon="8.851035"><ele>258.0</ele><time>2026-04-23T12:28:09.512Z</time></trkpt><trkpt lat="39.8097567" lon="8.851"><ele>258.0</ele><time>2026-04-23T12:28:11.512Z</time></trkpt><trkpt lat="39.8096533" lon="8.8510017"><ele>258.0</ele><time>2026-04-23T12:28:13.512Z</time></trkpt><trkpt lat="39.8095517" lon="8.8510267"><ele>258.0</ele><time>2026-04-23T12:28:15.512Z</time></trkpt><trkpt lat="39.8094583" lon="8.8510617"><ele>258.0</ele><time>2026-04-23T12:28:17.512Z</time></trkpt><trkpt lat="39.8094233" lon="8.8511583"><ele>258.0</ele><time>2026-04-23T12:28:20.511Z</time></trkpt><trkpt lat="39.809415" lon="8.8512867"><ele>258.0</ele><time>2026-04-23T12:28:23.512Z</time></trkpt><trkpt lat="39.809385" lon="8.851405"><ele>258.0</ele><time>2026-04-23T12:28:25.512Z</time></trkpt><trkpt lat="39.8093233" lon="8.85156"><ele>258.0</ele><time>2026-04-23T12:28:28.512Z</time></trkpt><trkpt lat="39.809275" lon="8.8516567"><ele>258.0</ele><time>2026-04-23T12:28:30.512Z</time></trkpt><trkpt lat="39.8092233" lon="8.8517817"><ele>257.8</ele><time>2026-04-23T12:28:32.511Z</time></trkpt><trkpt lat="39.8091783" lon="8.85191"><ele>257.6</ele><time>2026-04-23T12:28:34.511Z</time></trkpt><trkpt lat="39.8091767" lon="8.85203"><ele>257.4</ele><time>2026-04-23T12:28:36.511Z</time></trkpt><trkpt lat="39.80919" lon="8.8521117"><ele>257.2</ele><time>2026-04-23T12:28:38.511Z</time></trkpt><trkpt lat="39.8092083" lon="8.8522233"><ele>257.0</ele><time>2026-04-23T12:28:40.512Z</time></trkpt><trkpt lat="39.8092317" lon="8.8523933"><ele>257.0</ele><time>2026-04-23T12:28:42.511Z</time></trkpt><trkpt lat="39.8092233" lon="8.85249"><ele>257.0</ele><time>2026-04-23T12:28:43.512Z</time></trkpt><trkpt lat="39.80921" lon="8.8525883"><ele>257.0</ele><time>2026-04-23T12:28:44.512Z</time></trkpt><trkpt lat="39.809185" lon="8.8527583"><ele>257.0</ele><time>2026-04-23T12:28:46.512Z</time></trkpt><trkpt lat="39.8091767" lon="8.8528483"><ele>257.0</ele><time>2026-04-23T12:28:47.512Z</time></trkpt><trkpt lat="39.80917" lon="8.8529417"><ele>257.0</ele><time>2026-04-23T12:28:48.511Z</time></trkpt><trkpt lat="39.8091617" lon="8.853035"><ele>256.57142857142856</ele><time>2026-04-23T12:28:49.511Z</time></trkpt><trkpt lat="39.8091533" lon="8.8531217"><ele>256.14285714285717</ele><time>2026-04-23T12:28:50.511Z</time></trkpt><trkpt lat="39.80913" lon="8.8531983"><ele>255.71428571428572</ele><time>2026-04-23T12:28:51.512Z</time></trkpt><trkpt lat="39.8090983" lon="8.85327"><ele>255.28571428571428</ele><time>2026-04-23T12:28:52.511Z</time></trkpt><trkpt lat="39.8090583" lon="8.8533333"><ele>254.85714285714283</ele><time>2026-04-23T12:28:53.512Z</time></trkpt><trkpt lat="39.8090167" lon="8.8534117"><ele>254.42857142857144</ele><time>2026-04-23T12:28:54.511Z</time></trkpt><trkpt lat="39.8089817" lon="8.8534833"><ele>254.0</ele><time>2026-04-23T12:28:55.512Z</time></trkpt><trkpt lat="39.80893" lon="8.853565"><ele>253.2</ele><time>2026-04-23T12:28:57.512Z</time></trkpt><trkpt lat="39.808855" lon="8.853605"><ele>252.39999999999998</ele><time>2026-04-23T12:28:59.512Z</time></trkpt><trkpt lat="39.8087333" lon="8.8536217"><ele>251.6</ele><time>2026-04-23T12:29:01.512Z</time></trkpt><trkpt lat="39.8086283" lon="8.8536533"><ele>250.8</ele><time>2026-04-23T12:29:03.511Z</time></trkpt><trkpt lat="39.80859" lon="8.8537817"><ele>250.0</ele><time>2026-04-23T12:29:06.511Z</time></trkpt><trkpt lat="39.8086067" lon="8.853955"><ele>249.99999999999997</ele><time>2026-04-23T12:29:08.512Z</time></trkpt><trkpt lat="39.80862" lon="8.854045"><ele>250.0</ele><time>2026-04-23T12:29:09.512Z</time></trkpt><trkpt lat="39.8086317" lon="8.8541433"><ele>250.0</ele><time>2026-04-23T12:29:10.511Z</time></trkpt><trkpt lat="39.8086483" lon="8.8542517"><ele>250.0</ele><time>2026-04-23T12:29:11.511Z</time></trkpt><trkpt lat="39.80867" lon="8.8543583"><ele>249.99999999999997</ele><time>2026-04-23T12:29:12.512Z</time></trkpt><trkpt lat="39.8086917" lon="8.8544633"><ele>250.0</ele><time>2026-04-23T12:29:13.511Z</time></trkpt><trkpt lat="39.80871" lon="8.8545617"><ele>249.33333333333331</ele><time>2026-04-23T12:29:14.512Z</time></trkpt><trkpt lat="39.8087267" lon="8.8546533"><ele>248.66666666666666</ele><time>2026-04-23T12:29:15.511Z</time></trkpt><trkpt lat="39.8087483" lon="8.85474"><ele>248.0</ele><time>2026-04-23T12:29:16.511Z</time></trkpt><trkpt lat="39.8087767" lon="8.8548383"><ele>247.33333333333331</ele><time>2026-04-23T12:29:17.512Z</time></trkpt><trkpt lat="39.8087983" lon="8.8549417"><ele>246.66666666666666</ele><time>2026-04-23T12:29:18.512Z</time></trkpt><trkpt lat="39.8088233" lon="8.8550533"><ele>246.0</ele><time>2026-04-23T12:29:19.511Z</time></trkpt><trkpt lat="39.808845" lon="8.8551683"><ele>245.5</ele><time>2026-04-23T12:29:20.511Z</time></trkpt><trkpt lat="39.80886" lon="8.8552833"><ele>245.0</ele><time>2026-04-23T12:29:21.511Z</time></trkpt><trkpt lat="39.8088817" lon="8.8554067"><ele>244.5</ele><time>2026-04-23T12:29:22.511Z</time></trkpt><trkpt lat="39.8088933" lon="8.855525"><ele>244.0</ele><time>2026-04-23T12:29:23.512Z</time></trkpt><trkpt lat="39.8089033" lon="8.85563"><ele>243.5</ele><time>2026-04-23T12:29:24.511Z</time></trkpt><trkpt lat="39.8089083" lon="8.8557267"><ele>243.0</ele><time>2026-04-23T12:29:25.512Z</time></trkpt><trkpt lat="39.808905" lon="8.8558583"><ele>243.16666666666666</ele><time>2026-04-23T12:29:27.511Z</time></trkpt><trkpt lat="39.8088883" lon="8.855955"><ele>243.33333333333331</ele><time>2026-04-23T12:29:29.511Z</time></trkpt><trkpt lat="39.8088633" lon="8.8560517"><ele>243.5</ele><time>2026-04-23T12:30:27.511Z</time></trkpt><trkpt lat="39.808835" lon="8.8561717"><ele>243.66666666666666</ele><time>2026-04-23T12:30:29.512Z</time></trkpt><trkpt lat="39.8088083" lon="8.8562633"><ele>243.83333333333331</ele><time>2026-04-23T12:30:31.512Z</time></trkpt><trkpt lat="39.8087783" lon="8.8563367"><ele>244.0</ele><time>2026-04-23T12:30:33.512Z</time></trkpt><trkpt lat="39.8087633" lon="8.8564467"><ele>243.99999999999997</ele><time>2026-04-23T12:30:36.512Z</time></trkpt><trkpt lat="39.80875" lon="8.8565367"><ele>244.0</ele><time>2026-04-23T12:30:39.512Z</time></trkpt><trkpt lat="39.8087417" lon="8.8566283"><ele>244.0</ele><time>2026-04-23T12:30:41.512Z</time></trkpt><trkpt lat="39.8087217" lon="8.8567867"><ele>244.0</ele><time>2026-04-23T12:30:43.512Z</time></trkpt><trkpt lat="39.8087133" lon="8.8568817"><ele>243.99999999999997</ele><time>2026-04-23T12:30:44.512Z</time></trkpt><trkpt lat="39.808705" lon="8.8569817"><ele>244.0</ele><time>2026-04-23T12:30:45.512Z</time></trkpt><trkpt lat="39.8086883" lon="8.85709"><ele>243.66666666666666</ele><time>2026-04-23T12:30:46.511Z</time></trkpt><trkpt lat="39.8086683" lon="8.8572017"><ele>243.33333333333331</ele><time>2026-04-23T12:30:47.512Z</time></trkpt><trkpt lat="39.808645" lon="8.8573167"><ele>243.0</ele><time>2026-04-23T12:30:48.512Z</time></trkpt><trkpt lat="39.8086267" lon="8.8574283"><ele>242.66666666666669</ele><time>2026-04-23T12:30:49.511Z</time></trkpt><trkpt lat="39.8086033" lon="8.85753"><ele>242.33333333333334</ele><time>2026-04-23T12:30:50.512Z</time></trkpt><trkpt lat="39.8085683" lon="8.8576383"><ele>242.0</ele><time>2026-04-23T12:30:51.512Z</time></trkpt><trkpt lat="39.8085283" lon="8.8577517"><ele>242.16666666666669</ele><time>2026-04-23T12:30:52.512Z</time></trkpt><trkpt lat="39.8084917" lon="8.857865"><ele>242.33333333333334</ele><time>2026-04-23T12:30:53.512Z</time></trkpt><trkpt lat="39.8084533" lon="8.857975"><ele>242.5</ele><time>2026-04-23T12:30:54.511Z</time></trkpt><trkpt lat="39.80843" lon="8.8580733"><ele>242.66666666666669</ele><time>2026-04-23T12:30:55.512Z</time></trkpt><trkpt lat="39.8084033" lon="8.8581717"><ele>242.83333333333334</ele><time>2026-04-23T12:30:56.511Z</time></trkpt><trkpt lat="39.808375" lon="8.85827"><ele>243.0</ele><time>2026-04-23T12:30:57.511Z</time></trkpt><trkpt lat="39.8083467" lon="8.858375"><ele>242.66666666666666</ele><time>2026-04-23T12:30:58.511Z</time></trkpt><trkpt lat="39.80832" lon="8.8584783"><ele>242.33333333333331</ele><time>2026-04-23T12:30:59.511Z</time></trkpt><trkpt lat="39.80831" lon="8.858585"><ele>242.0</ele><time>2026-04-23T12:31:00.512Z</time></trkpt><trkpt lat="39.8083117" lon="8.85869"><ele>241.66666666666666</ele><time>2026-04-23T12:31:01.511Z</time></trkpt><trkpt lat="39.8083283" lon="8.8587967"><ele>241.33333333333331</ele><time>2026-04-23T12:31:02.512Z</time></trkpt><trkpt lat="39.808355" lon="8.85891"><ele>241.0</ele><time>2026-04-23T12:31:03.511Z</time></trkpt><trkpt lat="39.808385" lon="8.859025"><ele>241.0</ele><time>2026-04-23T12:31:04.511Z</time></trkpt><trkpt lat="39.8084183" lon="8.859145"><ele>241.00000000000003</ele><time>2026-04-23T12:31:05.511Z</time></trkpt><trkpt lat="39.8084517" lon="8.85927"><ele>241.00000000000003</ele><time>2026-04-23T12:31:06.512Z</time></trkpt><trkpt lat="39.8084833" lon="8.859395"><ele>241.0</ele><time>2026-04-23T12:31:07.512Z</time></trkpt><trkpt lat="39.80851" lon="8.8595217"><ele>241.0</ele><time>2026-04-23T12:31:08.512Z</time></trkpt><trkpt lat="39.8085333" lon="8.85966"><ele>240.4</ele><time>2026-04-23T12:31:09.512Z</time></trkpt><trkpt lat="39.8085483" lon="8.859795"><ele>239.8</ele><time>2026-04-23T12:31:10.511Z</time></trkpt><trkpt lat="39.8085683" lon="8.8599317"><ele>239.20000000000002</ele><time>2026-04-23T12:31:11.512Z</time></trkpt><trkpt lat="39.808585" lon="8.8600667"><ele>238.60000000000002</ele><time>2026-04-23T12:31:12.511Z</time></trkpt><trkpt lat="39.808605" lon="8.8602067"><ele>238.0</ele><time>2026-04-23T12:31:13.512Z</time></trkpt><trkpt lat="39.8086233" lon="8.8603417"><ele>237.5</ele><time>2026-04-23T12:31:14.512Z</time></trkpt><trkpt lat="39.808645" lon="8.8604833"><ele>237.0</ele><time>2026-04-23T12:31:15.512Z</time></trkpt><trkpt lat="39.808665" lon="8.86063"><ele>236.5</ele><time>2026-04-23T12:31:16.512Z</time></trkpt><trkpt lat="39.8086767" lon="8.8607767"><ele>236.0</ele><time>2026-04-23T12:31:17.511Z</time></trkpt><trkpt lat="39.808685" lon="8.860925"><ele>236.0</ele><time>2026-04-23T12:31:18.511Z</time></trkpt><trkpt lat="39.8086867" lon="8.86108"><ele>236.0</ele><time>2026-04-23T12:31:19.511Z</time></trkpt><trkpt lat="39.8086917" lon="8.8612383"><ele>236.0</ele><time>2026-04-23T12:31:20.511Z</time></trkpt><trkpt lat="39.8086967" lon="8.8614"><ele>236.0</ele><time>2026-04-23T12:31:21.511Z</time></trkpt><trkpt lat="39.80871" lon="8.861565"><ele>236.0</ele><time>2026-04-23T12:31:22.511Z</time></trkpt><trkpt lat="39.8087217" lon="8.8617267"><ele>236.0</ele><time>2026-04-23T12:31:23.512Z</time></trkpt><trkpt lat="39.8087317" lon="8.8618917"><ele>236.0</ele><time>2026-04-23T12:31:24.512Z</time></trkpt><trkpt lat="39.80874" lon="8.8620483"><ele>236.0</ele><time>2026-04-23T12:31:25.511Z</time></trkpt><trkpt lat="39.8087483" lon="8.8621933"><ele>235.8</ele><time>2026-04-23T12:31:26.512Z</time></trkpt><trkpt lat="39.8087667" lon="8.8623367"><ele>235.60000000000002</ele><time>2026-04-23T12:31:27.511Z</time></trkpt><trkpt lat="39.8088017" lon="8.8624783"><ele>235.4</ele><time>2026-04-23T12:31:28.512Z</time></trkpt><trkpt lat="39.80884" lon="8.8626117"><ele>235.2</ele><time>2026-04-23T12:31:29.512Z</time></trkpt><trkpt lat="39.8088817" lon="8.8627367"><ele>235.0</ele><time>2026-04-23T12:31:30.511Z</time></trkpt><trkpt lat="39.8089133" lon="8.862845"><ele>234.99999999999997</ele><time>2026-04-23T12:31:31.511Z</time></trkpt><trkpt lat="39.8089367" lon="8.862925"><ele>235.0</ele><time>2026-04-23T12:31:32.512Z</time></trkpt><trkpt lat="39.8089583" lon="8.86301"><ele>235.0</ele><time>2026-04-23T12:31:33.511Z</time></trkpt><trkpt lat="39.8089733" lon="8.8631017"><ele>235.0</ele><time>2026-04-23T12:31:34.511Z</time></trkpt><trkpt lat="39.8089767" lon="8.8632067"><ele>234.99999999999997</ele><time>2026-04-23T12:31:35.511Z</time></trkpt><trkpt lat="39.808955" lon="8.8633183"><ele>235.0</ele><time>2026-04-23T12:31:36.511Z</time></trkpt><trkpt lat="39.8089317" lon="8.863435"><ele>235.25</ele><time>2026-04-23T12:31:37.511Z</time></trkpt><trkpt lat="39.8089083" lon="8.8635667"><ele>235.5</ele><time>2026-04-23T12:31:38.512Z</time></trkpt><trkpt lat="39.8088817" lon="8.863705"><ele>235.75</ele><time>2026-04-23T12:31:39.512Z</time></trkpt><trkpt lat="39.80885" lon="8.8638617"><ele>236.0</ele><time>2026-04-23T12:31:40.511Z</time></trkpt><trkpt lat="39.8088317" lon="8.8640217"><ele>236.0</ele><time>2026-04-23T12:31:41.512Z</time></trkpt><trkpt lat="39.808815" lon="8.864175"><ele>236.0</ele><time>2026-04-23T12:31:42.512Z</time></trkpt><trkpt lat="39.80881" lon="8.864325"><ele>236.0</ele><time>2026-04-23T12:31:43.512Z</time></trkpt><trkpt lat="39.8088117" lon="8.86448"><ele>236.0</ele><time>2026-04-23T12:31:44.512Z</time></trkpt><trkpt lat="39.80881" lon="8.8646317"><ele>236.0</ele><time>2026-04-23T12:31:45.512Z</time></trkpt><trkpt lat="39.808815" lon="8.8647817"><ele>236.00000000000003</ele><time>2026-04-23T12:31:46.512Z</time></trkpt><trkpt lat="39.80882" lon="8.8649233"><ele>236.00000000000003</ele><time>2026-04-23T12:31:47.512Z</time></trkpt><trkpt lat="39.8088267" lon="8.865055"><ele>236.0</ele><time>2026-04-23T12:31:48.511Z</time></trkpt><trkpt lat="39.8088333" lon="8.865185"><ele>236.0</ele><time>2026-04-23T12:31:49.512Z</time></trkpt><trkpt lat="39.8088433" lon="8.8653167"><ele>236.20000000000002</ele><time>2026-04-23T12:31:50.511Z</time></trkpt><trkpt lat="39.808855" lon="8.8654333"><ele>236.40000000000003</ele><time>2026-04-23T12:31:51.511Z</time></trkpt><trkpt lat="39.8088667" lon="8.8655317"><ele>236.6</ele><time>2026-04-23T12:31:52.511Z</time></trkpt><trkpt lat="39.8088967" lon="8.8656767"><ele>236.8</ele><time>2026-04-23T12:31:54.511Z</time></trkpt><trkpt lat="39.8089233" lon="8.86579"><ele>237.0</ele><time>2026-04-23T12:31:56.512Z</time></trkpt><trkpt lat="39.8089483" lon="8.8659283"><ele>237.16666666666666</ele><time>2026-04-23T12:31:58.511Z</time></trkpt><trkpt lat="39.8089683" lon="8.8660133"><ele>237.33333333333331</ele><time>2026-04-23T12:31:59.512Z</time></trkpt><trkpt lat="39.8089867" lon="8.866095"><ele>237.5</ele><time>2026-04-23T12:32:00.511Z</time></trkpt><trkpt lat="39.809005" lon="8.866175"><ele>237.66666666666666</ele><time>2026-04-23T12:32:01.512Z</time></trkpt><trkpt lat="39.80905" lon="8.866325"><ele>237.83333333333331</ele><time>2026-04-23T12:32:03.511Z</time></trkpt><trkpt lat="39.8090933" lon="8.866465"><ele>238.0</ele><time>2026-04-23T12:32:05.511Z</time></trkpt><trkpt lat="39.809115" lon="8.8666"><ele>238.0</ele><time>2026-04-23T12:32:07.511Z</time></trkpt><trkpt lat="39.809135" lon="8.866745"><ele>238.0</ele><time>2026-04-23T12:32:09.512Z</time></trkpt><trkpt lat="39.8091567" lon="8.8669133"><ele>238.0</ele><time>2026-04-23T12:32:11.511Z</time></trkpt><trkpt lat="39.80917" lon="8.8670083"><ele>238.0</ele><time>2026-04-23T12:32:12.512Z</time></trkpt><trkpt lat="39.8091883" lon="8.867155"><ele>238.0</ele><time>2026-04-23T12:32:14.511Z</time></trkpt><trkpt lat="39.8091817" lon="8.8672367"><ele>238.0</ele><time>2026-04-23T12:32:15.511Z</time></trkpt><trkpt lat="39.80916" lon="8.86739"><ele>238.0</ele><time>2026-04-23T12:32:17.511Z</time></trkpt><trkpt lat="39.8091433" lon="8.8675367"><ele>238.0</ele><time>2026-04-23T12:32:19.511Z</time></trkpt><trkpt lat="39.809145" lon="8.8676983"><ele>238.0</ele><time>2026-04-23T12:32:21.511Z</time></trkpt><trkpt lat="39.809145" lon="8.8677883"><ele>238.0</ele><time>2026-04-23T12:32:22.511Z</time></trkpt><trkpt lat="39.80914" lon="8.8678817"><ele>238.0</ele><time>2026-04-23T12:32:23.512Z</time></trkpt><trkpt lat="39.8091317" lon="8.867965"><ele>238.0</ele><time>2026-04-23T12:32:24.512Z</time></trkpt><trkpt lat="39.8091233" lon="8.8680517"><ele>238.0</ele><time>2026-04-23T12:32:25.511Z</time></trkpt><trkpt lat="39.809105" lon="8.8682"><ele>238.0</ele><time>2026-04-23T12:32:27.512Z</time></trkpt><trkpt lat="39.80909" lon="8.8683517"><ele>238.0</ele><time>2026-04-23T12:32:29.512Z</time></trkpt><trkpt lat="39.8090883" lon="8.8684933"><ele>238.0</ele><time>2026-04-23T12:32:31.512Z</time></trkpt><trkpt lat="39.809095" lon="8.8685783"><ele>238.0</ele><time>2026-04-23T12:32:32.512Z</time></trkpt><trkpt lat="39.8090967" lon="8.8687133"><ele>238.0</ele><time>2026-04-23T12:32:34.512Z</time></trkpt><trkpt lat="39.809095" lon="8.8688333"><ele>238.0</ele><time>2026-04-23T12:32:36.512Z</time></trkpt><trkpt lat="39.809105" lon="8.8689783"><ele>238.0</ele><time>2026-04-23T12:32:38.512Z</time></trkpt><trkpt lat="39.80914" lon="8.8691367"><ele>237.99999999999997</ele><time>2026-04-23T12:32:40.512Z</time></trkpt><trkpt lat="39.8091583" lon="8.8692267"><ele>238.0</ele><time>2026-04-23T12:32:41.511Z</time></trkpt><trkpt lat="39.8091767" lon="8.8693117"><ele>238.0</ele><time>2026-04-23T12:32:42.511Z</time></trkpt><trkpt lat="39.8092017" lon="8.8694717"><ele>238.0</ele><time>2026-04-23T12:32:44.511Z</time></trkpt><trkpt lat="39.8092183" lon="8.8695583"><ele>237.99999999999997</ele><time>2026-04-23T12:32:45.512Z</time></trkpt><trkpt lat="39.8092417" lon="8.8696467"><ele>238.0</ele><time>2026-04-23T12:32:46.512Z</time></trkpt><trkpt lat="39.8092667" lon="8.86973"><ele>237.8</ele><time>2026-04-23T12:32:47.511Z</time></trkpt><trkpt lat="39.8092883" lon="8.8698133"><ele>237.60000000000002</ele><time>2026-04-23T12:32:48.511Z</time></trkpt><trkpt lat="39.8093133" lon="8.8699"><ele>237.39999999999998</ele><time>2026-04-23T12:32:49.511Z</time></trkpt><trkpt lat="39.8093433" lon="8.8700433"><ele>237.2</ele><time>2026-04-23T12:32:51.511Z</time></trkpt><trkpt lat="39.8093667" lon="8.8701817"><ele>237.0</ele><time>2026-04-23T12:32:53.512Z</time></trkpt><trkpt lat="39.8094183" lon="8.8703133"><ele>236.39999999999998</ele><time>2026-04-23T12:32:55.512Z</time></trkpt><trkpt lat="39.8094683" lon="8.8704267"><ele>235.79999999999998</ele><time>2026-04-23T12:32:57.511Z</time></trkpt><trkpt lat="39.809505" lon="8.8705533"><ele>235.2</ele><time>2026-04-23T12:32:59.511Z</time></trkpt><trkpt lat="39.8095367" lon="8.87068"><ele>234.6</ele><time>2026-04-23T12:33:01.51Z</time></trkpt><trkpt lat="39.809585" lon="8.8707967"><ele>234.0</ele><time>2026-04-23T12:33:03.511Z</time></trkpt><trkpt lat="39.8096367" lon="8.870925"><ele>234.2</ele><time>2026-04-23T12:33:05.511Z</time></trkpt><trkpt lat="39.809675" lon="8.8710433"><ele>234.39999999999998</ele><time>2026-04-23T12:33:07.51Z</time></trkpt><trkpt lat="39.8097033" lon="8.8711983"><ele>234.6</ele><time>2026-04-23T12:33:09.511Z</time></trkpt><trkpt lat="39.8097333" lon="8.8713383"><ele>234.8</ele><time>2026-04-23T12:33:11.51Z</time></trkpt><trkpt lat="39.80975" lon="8.87146"><ele>235.0</ele><time>2026-04-23T12:33:13.511Z</time></trkpt><trkpt lat="39.8097667" lon="8.8716017"><ele>234.99999999999997</ele><time>2026-04-23T12:33:15.511Z</time></trkpt><trkpt lat="39.8098017" lon="8.871745"><ele>235.0</ele><time>2026-04-23T12:33:17.511Z</time></trkpt><trkpt lat="39.8098167" lon="8.8718667"><ele>235.0</ele><time>2026-04-23T12:33:19.511Z</time></trkpt><trkpt lat="39.809815" lon="8.8719667"><ele>235.0</ele><time>2026-04-23T12:33:21.51Z</time></trkpt><trkpt lat="39.8098033" lon="8.8720583"><ele>234.99999999999997</ele><time>2026-04-23T12:33:23.51Z</time></trkpt><trkpt lat="39.80976" lon="8.87216"><ele>235.0</ele><time>2026-04-23T12:33:25.51Z</time></trkpt><trkpt lat="39.8097383" lon="8.872275"><ele>234.2</ele><time>2026-04-23T12:33:27.51Z</time></trkpt><trkpt lat="39.809755" lon="8.8724383"><ele>233.4</ele><time>2026-04-23T12:33:29.511Z</time></trkpt><trkpt lat="39.8097683" lon="8.8725233"><ele>232.60000000000002</ele><time>2026-04-23T12:33:30.51Z</time></trkpt><trkpt lat="39.8097967" lon="8.8726733"><ele>231.8</ele><time>2026-04-23T12:33:32.511Z</time></trkpt><trkpt lat="39.809825" lon="8.8728133"><ele>231.0</ele><time>2026-04-23T12:33:34.51Z</time></trkpt><trkpt lat="39.8098583" lon="8.872935"><ele>230.33333333333334</ele><time>2026-04-23T12:33:36.511Z</time></trkpt><trkpt lat="39.809915" lon="8.87307"><ele>229.66666666666669</ele><time>2026-04-23T12:33:38.511Z</time></trkpt><trkpt lat="39.8099433" lon="8.8731483"><ele>229.0</ele><time>2026-04-23T12:33:39.51Z</time></trkpt><trkpt lat="39.8099817" lon="8.873275"><ele>228.33333333333334</ele><time>2026-04-23T12:33:41.511Z</time></trkpt><trkpt lat="39.810035" lon="8.8733367"><ele>227.66666666666669</ele><time>2026-04-23T12:33:43.511Z</time></trkpt><trkpt lat="39.8100617" lon="8.873415"><ele>227.0</ele><time>2026-04-23T12:33:45.51Z</time></trkpt><trkpt lat="39.8100683" lon="8.8735167"><ele>226.50000000000003</ele><time>2026-04-23T12:33:47.511Z</time></trkpt><trkpt lat="39.8100617" lon="8.8736233"><ele>226.0</ele><time>2026-04-23T12:33:49.51Z</time></trkpt><trkpt lat="39.8100267" lon="8.873715"><ele>225.5</ele><time>2026-04-23T12:33:51.51Z</time></trkpt><trkpt lat="39.8100217" lon="8.8738267"><ele>225.0</ele><time>2026-04-23T12:33:53.51Z</time></trkpt><trkpt lat="39.8100233" lon="8.873925"><ele>224.50000000000003</ele><time>2026-04-23T12:33:55.51Z</time></trkpt><trkpt lat="39.8099933" lon="8.8740467"><ele>224.0</ele><time>2026-04-23T12:33:57.511Z</time></trkpt><trkpt lat="39.8099733" lon="8.8741817"><ele>224.0</ele><time>2026-04-23T12:33:59.51Z</time></trkpt><trkpt lat="39.80998" lon="8.8743033"><ele>223.99999999999997</ele><time>2026-04-23T12:34:01.511Z</time></trkpt><trkpt lat="39.80996" lon="8.8743917"><ele>223.99999999999997</ele><time>2026-04-23T12:34:04.511Z</time></trkpt><trkpt lat="39.8098933" lon="8.8743783"><ele>224.0</ele><time>2026-04-23T12:34:06.511Z</time></trkpt><trkpt lat="39.809795" lon="8.8743117"><ele>224.0</ele><time>2026-04-23T12:34:08.51Z</time></trkpt><trkpt lat="39.8096883" lon="8.8742567"><ele>224.0</ele><time>2026-04-23T12:34:10.511Z</time></trkpt><trkpt lat="39.80959" lon="8.8742"><ele>223.99999999999997</ele><time>2026-04-23T12:34:12.511Z</time></trkpt><trkpt lat="39.8094733" lon="8.8741333"><ele>223.99999999999997</ele><time>2026-04-23T12:34:14.51Z</time></trkpt><trkpt lat="39.8093883" lon="8.8740917"><ele>224.0</ele><time>2026-04-23T12:34:15.51Z</time></trkpt><trkpt lat="39.8092917" lon="8.8740467"><ele>224.0</ele><time>2026-04-23T12:34:16.51Z</time></trkpt><trkpt lat="39.8091767" lon="8.873995"><ele>224.0</ele><time>2026-04-23T12:34:17.511Z</time></trkpt><trkpt lat="39.8090583" lon="8.8739333"><ele>224.0</ele><time>2026-04-23T12:34:18.511Z</time></trkpt><trkpt lat="39.80893" lon="8.8738717"><ele>224.0</ele><time>2026-04-23T12:34:19.511Z</time></trkpt><trkpt lat="39.8087883" lon="8.8737983"><ele>224.0</ele><time>2026-04-23T12:34:20.51Z</time></trkpt><trkpt lat="39.8086467" lon="8.8737267"><ele>224.0</ele><time>2026-04-23T12:34:21.511Z</time></trkpt><trkpt lat="39.8085" lon="8.8736533"><ele>224.0</ele><time>2026-04-23T12:34:22.511Z</time></trkpt><trkpt lat="39.8083567" lon="8.873585"><ele>224.0</ele><time>2026-04-23T12:34:23.51Z</time></trkpt><trkpt lat="39.80821" lon="8.87351"><ele>226.0</ele><time>2026-04-23T12:34:24.511Z</time></trkpt><trkpt lat="39.8080533" lon="8.8734283"><ele>228.0</ele><time>2026-04-23T12:34:25.511Z</time></trkpt><trkpt lat="39.8079033" lon="8.8733483"><ele>230.0</ele><time>2026-04-23T12:34:26.511Z</time></trkpt><trkpt lat="39.80775" lon="8.8732683"><ele>229.66666666666669</ele><time>2026-04-23T12:34:27.511Z</time></trkpt><trkpt lat="39.8075933" lon="8.8731867"><ele>229.33333333333331</ele><time>2026-04-23T12:34:28.51Z</time></trkpt><trkpt lat="39.80744" lon="8.873115"><ele>229.0</ele><time>2026-04-23T12:34:29.51Z</time></trkpt><trkpt lat="39.8073033" lon="8.87306"><ele>229.0</ele><time>2026-04-23T12:34:30.511Z</time></trkpt><trkpt lat="39.8071633" lon="8.8730217"><ele>229.0</ele><time>2026-04-23T12:34:31.51Z</time></trkpt><trkpt lat="39.8070233" lon="8.873005"><ele>229.0</ele><time>2026-04-23T12:34:32.51Z</time></trkpt><trkpt lat="39.806875" lon="8.873"><ele>229.0</ele><time>2026-04-23T12:34:33.51Z</time></trkpt><trkpt lat="39.8067167" lon="8.8730117"><ele>230.0</ele><time>2026-04-23T12:34:34.511Z</time></trkpt><trkpt lat="39.8065567" lon="8.87302"><ele>231.0</ele><time>2026-04-23T12:34:35.51Z</time></trkpt><trkpt lat="39.8063833" lon="8.8730317"><ele>232.0</ele><time>2026-04-23T12:34:36.511Z</time></trkpt><trkpt lat="39.8062183" lon="8.8730417"><ele>232.0</ele><time>2026-04-23T12:34:37.51Z</time></trkpt><trkpt lat="39.806055" lon="8.8730483"><ele>232.0</ele><time>2026-04-23T12:34:38.511Z</time></trkpt><trkpt lat="39.8059033" lon="8.873055"><ele>232.0</ele><time>2026-04-23T12:34:39.51Z</time></trkpt><trkpt lat="39.8057483" lon="8.8730633"><ele>232.66666666666666</ele><time>2026-04-23T12:34:40.51Z</time></trkpt><trkpt lat="39.805595" lon="8.8730683"><ele>233.33333333333331</ele><time>2026-04-23T12:34:41.511Z</time></trkpt><trkpt lat="39.8054383" lon="8.8730767"><ele>234.0</ele><time>2026-04-23T12:34:42.511Z</time></trkpt><trkpt lat="39.8052933" lon="8.8730833"><ele>235.0</ele><time>2026-04-23T12:34:43.511Z</time></trkpt><trkpt lat="39.8051417" lon="8.8730867"><ele>236.0</ele><time>2026-04-23T12:34:44.51Z</time></trkpt><trkpt lat="39.80499" lon="8.873095"><ele>237.0</ele><time>2026-04-23T12:34:45.51Z</time></trkpt><trkpt lat="39.8048417" lon="8.8731"><ele>237.0</ele><time>2026-04-23T12:34:46.511Z</time></trkpt><trkpt lat="39.804695" lon="8.8731083"><ele>237.0</ele><time>2026-04-23T12:34:47.511Z</time></trkpt><trkpt lat="39.80454" lon="8.8731167"><ele>237.0</ele><time>2026-04-23T12:34:48.511Z</time></trkpt><trkpt lat="39.8043867" lon="8.8731233"><ele>237.5</ele><time>2026-04-23T12:34:49.511Z</time></trkpt><trkpt lat="39.8042383" lon="8.8731283"><ele>238.0</ele><time>2026-04-23T12:34:50.51Z</time></trkpt><trkpt lat="39.8041017" lon="8.873135"><ele>238.5</ele><time>2026-04-23T12:34:51.51Z</time></trkpt><trkpt lat="39.80397" lon="8.8731417"><ele>239.0</ele><time>2026-04-23T12:34:52.51Z</time></trkpt><trkpt lat="39.80384" lon="8.87315"><ele>239.0</ele><time>2026-04-23T12:34:53.511Z</time></trkpt><trkpt lat="39.803715" lon="8.8731583"><ele>238.99999999999997</ele><time>2026-04-23T12:34:54.51Z</time></trkpt><trkpt lat="39.8036033" lon="8.8731683"><ele>238.99999999999997</ele><time>2026-04-23T12:34:55.511Z</time></trkpt><trkpt lat="39.803505" lon="8.8731983"><ele>239.0</ele><time>2026-04-23T12:34:56.511Z</time></trkpt><trkpt lat="39.8034167" lon="8.873235"><ele>239.0</ele><time>2026-04-23T12:34:57.51Z</time></trkpt><trkpt lat="39.8033283" lon="8.8732883"><ele>239.39999999999998</ele><time>2026-04-23T12:34:58.51Z</time></trkpt><trkpt lat="39.8032567" lon="8.8733667"><ele>239.79999999999998</ele><time>2026-04-23T12:34:59.51Z</time></trkpt><trkpt lat="39.8031933" lon="8.8734633"><ele>240.20000000000002</ele><time>2026-04-23T12:35:00.51Z</time></trkpt><trkpt lat="39.8031533" lon="8.8735717"><ele>240.60000000000002</ele><time>2026-04-23T12:35:01.511Z</time></trkpt><trkpt lat="39.8031267" lon="8.8736983"><ele>241.0</ele><time>2026-04-23T12:35:02.511Z</time></trkpt><trkpt lat="39.803115" lon="8.8738267"><ele>241.0</ele><time>2026-04-23T12:35:03.51Z</time></trkpt><trkpt lat="39.8031133" lon="8.8739567"><ele>241.00000000000003</ele><time>2026-04-23T12:35:04.51Z</time></trkpt><trkpt lat="39.803115" lon="8.87409"><ele>241.00000000000003</ele><time>2026-04-23T12:35:05.51Z</time></trkpt><trkpt lat="39.8031317" lon="8.8742333"><ele>241.0</ele><time>2026-04-23T12:35:06.51Z</time></trkpt><trkpt lat="39.8031467" lon="8.87438"><ele>241.0</ele><time>2026-04-23T12:35:07.511Z</time></trkpt><trkpt lat="39.8031733" lon="8.874535"><ele>241.0</ele><time>2026-04-23T12:35:08.511Z</time></trkpt><trkpt lat="39.8031967" lon="8.8746717"><ele>241.00000000000003</ele><time>2026-04-23T12:35:09.511Z</time></trkpt><trkpt lat="39.803215" lon="8.8747983"><ele>241.00000000000003</ele><time>2026-04-23T12:35:10.51Z</time></trkpt><trkpt lat="39.80324" lon="8.874925"><ele>241.0</ele><time>2026-04-23T12:35:11.51Z</time></trkpt><trkpt lat="39.803265" lon="8.8750617"><ele>241.0</ele><time>2026-04-23T12:35:12.51Z</time></trkpt><trkpt lat="39.8032917" lon="8.8752083"><ele>241.0</ele><time>2026-04-23T12:35:13.511Z</time></trkpt><trkpt lat="39.803325" lon="8.87537"><ele>241.0</ele><time>2026-04-23T12:35:14.511Z</time></trkpt><trkpt lat="39.8033567" lon="8.8755267"><ele>241.0</ele><time>2026-04-23T12:35:15.51Z</time></trkpt><trkpt lat="39.80339" lon="8.8756733"><ele>241.0</ele><time>2026-04-23T12:35:16.511Z</time></trkpt><trkpt lat="39.8034267" lon="8.8758133"><ele>241.20000000000002</ele><time>2026-04-23T12:35:17.51Z</time></trkpt><trkpt lat="39.8034633" lon="8.8759483"><ele>241.40000000000003</ele><time>2026-04-23T12:35:18.51Z</time></trkpt><trkpt lat="39.803505" lon="8.8760833"><ele>241.6</ele><time>2026-04-23T12:35:19.51Z</time></trkpt><trkpt lat="39.8035467" lon="8.87621"><ele>241.8</ele><time>2026-04-23T12:35:20.51Z</time></trkpt><trkpt lat="39.8035767" lon="8.8763233"><ele>242.0</ele><time>2026-04-23T12:35:21.511Z</time></trkpt><trkpt lat="39.8035967" lon="8.8764083"><ele>242.00000000000003</ele><time>2026-04-23T12:35:22.51Z</time></trkpt><trkpt lat="39.8035767" lon="8.8765"><ele>242.0</ele><time>2026-04-23T12:35:25.51Z</time></trkpt><trkpt lat="39.803485" lon="8.8764167"><ele>242.0</ele><time>2026-04-23T12:35:28.51Z</time></trkpt><trkpt lat="39.8034417" lon="8.8763367"><ele>242.0</ele><time>2026-04-23T12:35:29.51Z</time></trkpt><trkpt lat="39.8033883" lon="8.87625"><ele>242.00000000000003</ele><time>2026-04-23T12:35:30.51Z</time></trkpt><trkpt lat="39.8033317" lon="8.87616"><ele>242.0</ele><time>2026-04-23T12:35:31.51Z</time></trkpt><trkpt lat="39.80326" lon="8.8760583"><ele>242.0</ele><time>2026-04-23T12:35:32.511Z</time></trkpt><trkpt lat="39.8031867" lon="8.8759583"><ele>242.0</ele><time>2026-04-23T12:35:33.511Z</time></trkpt><trkpt lat="39.8031167" lon="8.8758617"><ele>242.0</ele><time>2026-04-23T12:35:34.51Z</time></trkpt><trkpt lat="39.8030583" lon="8.87579"><ele>242.0</ele><time>2026-04-23T12:35:35.51Z</time></trkpt><trkpt lat="39.80299" lon="8.875685"><ele>242.0</ele><time>2026-04-23T12:35:37.51Z</time></trkpt><trkpt lat="39.8029283" lon="8.8756283"><ele>241.83333333333334</ele><time>2026-04-23T12:35:41.51Z</time></trkpt><trkpt lat="39.80287" lon="8.8756683"><ele>241.66666666666669</ele><time>2026-04-23T12:35:43.51Z</time></trkpt><trkpt lat="39.80278" lon="8.8757333"><ele>241.5</ele><time>2026-04-23T12:35:45.51Z</time></trkpt><trkpt lat="39.802715" lon="8.87574"><ele>241.33333333333331</ele><time>2026-04-23T12:35:46.511Z</time></trkpt><trkpt lat="39.8026417" lon="8.8757267"><ele>241.16666666666666</ele><time>2026-04-23T12:35:47.511Z</time></trkpt><trkpt lat="39.8025717" lon="8.87571"><ele>241.0</ele><time>2026-04-23T12:35:48.511Z</time></trkpt><trkpt lat="39.8024717" lon="8.8757117"><ele>241.4</ele><time>2026-04-23T12:35:50.51Z</time></trkpt><trkpt lat="39.802425" lon="8.875815"><ele>241.8</ele><time>2026-04-23T12:35:52.511Z</time></trkpt><trkpt lat="39.8024167" lon="8.8759883"><ele>242.20000000000002</ele><time>2026-04-23T12:35:54.511Z</time></trkpt><trkpt lat="39.8024167" lon="8.8761"><ele>242.60000000000002</ele><time>2026-04-23T12:35:55.51Z</time></trkpt><trkpt lat="39.8024" lon="8.8762117"><ele>243.0</ele><time>2026-04-23T12:35:56.51Z</time></trkpt><trkpt lat="39.8023733" lon="8.8763367"><ele>243.0</ele><time>2026-04-23T12:35:57.511Z</time></trkpt><trkpt lat="39.8023383" lon="8.87646"><ele>243.0</ele><time>2026-04-23T12:35:58.51Z</time></trkpt><trkpt lat="39.8023033" lon="8.8765717"><ele>243.0</ele><time>2026-04-23T12:35:59.51Z</time></trkpt><trkpt lat="39.8022683" lon="8.8766767"><ele>243.0</ele><time>2026-04-23T12:36:00.51Z</time></trkpt><trkpt lat="39.80223" lon="8.8767783"><ele>243.0</ele><time>2026-04-23T12:36:01.51Z</time></trkpt><trkpt lat="39.8022083" lon="8.8768933"><ele>243.0</ele><time>2026-04-23T12:36:02.511Z</time></trkpt><trkpt lat="39.8021967" lon="8.877005"><ele>243.0</ele><time>2026-04-23T12:36:03.51Z</time></trkpt><trkpt lat="39.802205" lon="8.8771217"><ele>243.0</ele><time>2026-04-23T12:36:04.511Z</time></trkpt><trkpt lat="39.8022167" lon="8.8772467"><ele>243.0</ele><time>2026-04-23T12:36:05.51Z</time></trkpt><trkpt lat="39.8022167" lon="8.8773733"><ele>243.0</ele><time>2026-04-23T12:36:06.511Z</time></trkpt><trkpt lat="39.8022117" lon="8.8775"><ele>243.2</ele><time>2026-04-23T12:36:07.511Z</time></trkpt><trkpt lat="39.8022" lon="8.8776233"><ele>243.4</ele><time>2026-04-23T12:36:08.51Z</time></trkpt><trkpt lat="39.8021967" lon="8.8777517"><ele>243.59999999999997</ele><time>2026-04-23T12:36:09.51Z</time></trkpt><trkpt lat="39.8021867" lon="8.877875"><ele>243.79999999999998</ele><time>2026-04-23T12:36:10.51Z</time></trkpt><trkpt lat="39.80218" lon="8.87799"><ele>244.0</ele><time>2026-04-23T12:36:11.511Z</time></trkpt><trkpt lat="39.8021767" lon="8.8781017"><ele>244.0</ele><time>2026-04-23T12:36:12.51Z</time></trkpt><trkpt lat="39.8021617" lon="8.8781917"><ele>243.99999999999997</ele><time>2026-04-23T12:36:13.51Z</time></trkpt><trkpt lat="39.8021567" lon="8.878325"><ele>243.99999999999997</ele><time>2026-04-23T12:36:15.511Z</time></trkpt><trkpt lat="39.8022083" lon="8.8784283"><ele>244.0</ele><time>2026-04-23T12:36:17.51Z</time></trkpt><trkpt lat="39.8023083" lon="8.8785417"><ele>244.0</ele><time>2026-04-23T12:36:19.51Z</time></trkpt><trkpt lat="39.8023717" lon="8.8786133"><ele>244.33333333333331</ele><time>2026-04-23T12:36:20.51Z</time></trkpt><trkpt lat="39.802435" lon="8.878695"><ele>244.66666666666666</ele><time>2026-04-23T12:36:21.511Z</time></trkpt><trkpt lat="39.8024967" lon="8.8787867"><ele>245.0</ele><time>2026-04-23T12:36:22.511Z</time></trkpt><trkpt lat="39.8025483" lon="8.87889"><ele>245.33333333333331</ele><time>2026-04-23T12:36:23.51Z</time></trkpt><trkpt lat="39.8025867" lon="8.8789883"><ele>245.66666666666666</ele><time>2026-04-23T12:36:24.511Z</time></trkpt><trkpt lat="39.8026133" lon="8.879095"><ele>246.0</ele><time>2026-04-23T12:36:25.511Z</time></trkpt><trkpt lat="39.8026267" lon="8.8791917"><ele>246.8</ele><time>2026-04-23T12:36:26.51Z</time></trkpt><trkpt lat="39.802635" lon="8.8792767"><ele>247.60000000000002</ele><time>2026-04-23T12:36:27.51Z</time></trkpt><trkpt lat="39.8026483" lon="8.87943"><ele>248.4</ele><time>2026-04-23T12:36:29.51Z</time></trkpt><trkpt lat="39.8026583" lon="8.8795683"><ele>249.2</ele><time>2026-04-23T12:36:31.511Z</time></trkpt><trkpt lat="39.8026583" lon="8.879705"><ele>250.0</ele><time>2026-04-23T12:36:33.51Z</time></trkpt><trkpt lat="39.8026367" lon="8.8798783"><ele>249.99999999999997</ele><time>2026-04-23T12:36:35.51Z</time></trkpt><trkpt lat="39.80262" lon="8.8799833"><ele>250.0</ele><time>2026-04-23T12:36:36.51Z</time></trkpt><trkpt lat="39.802605" lon="8.8800967"><ele>250.0</ele><time>2026-04-23T12:36:37.511Z</time></trkpt><trkpt lat="39.8026" lon="8.8802067"><ele>250.0</ele><time>2026-04-23T12:36:38.511Z</time></trkpt><trkpt lat="39.802615" lon="8.880325"><ele>249.99999999999997</ele><time>2026-04-23T12:36:39.51Z</time></trkpt><trkpt lat="39.802635" lon="8.88045"><ele>250.0</ele><time>2026-04-23T12:36:40.511Z</time></trkpt><trkpt lat="39.8026567" lon="8.880585"><ele>252.83333333333331</ele><time>2026-04-23T12:36:41.51Z</time></trkpt><trkpt lat="39.802675" lon="8.880705"><ele>255.66666666666666</ele><time>2026-04-23T12:36:42.511Z</time></trkpt><trkpt lat="39.80269" lon="8.8808183"><ele>258.5</ele><time>2026-04-23T12:36:43.51Z</time></trkpt><trkpt lat="39.8027" lon="8.8809283"><ele>261.3333333333333</ele><time>2026-04-23T12:36:44.511Z</time></trkpt><trkpt lat="39.8026967" lon="8.8810383"><ele>264.1666666666667</ele><time>2026-04-23T12:36:45.51Z</time></trkpt><trkpt lat="39.8026817" lon="8.8811367"><ele>267.0</ele><time>2026-04-23T12:36:46.511Z</time></trkpt><trkpt lat="39.802675" lon="8.8812267"><ele>267.00000000000006</ele><time>2026-04-23T12:36:47.51Z</time></trkpt><trkpt lat="39.8026717" lon="8.88132"><ele>267.0</ele><time>2026-04-23T12:36:48.51Z</time></trkpt><trkpt lat="39.8026733" lon="8.8814117"><ele>267.0</ele><time>2026-04-23T12:36:49.51Z</time></trkpt><trkpt lat="39.8026783" lon="8.8814967"><ele>267.0</ele><time>2026-04-23T12:36:50.51Z</time></trkpt><trkpt lat="39.802685" lon="8.881585"><ele>267.0</ele><time>2026-04-23T12:36:51.511Z</time></trkpt><trkpt lat="39.8026917" lon="8.8816683"><ele>267.00000000000006</ele><time>2026-04-23T12:36:52.51Z</time></trkpt><trkpt lat="39.802705" lon="8.8817567"><ele>267.0</ele><time>2026-04-23T12:36:53.51Z</time></trkpt><trkpt lat="39.802745" lon="8.8818933"><ele>267.0</ele><time>2026-04-23T12:36:55.511Z</time></trkpt><trkpt lat="39.802805" lon="8.88201"><ele>267.0</ele><time>2026-04-23T12:36:57.511Z</time></trkpt><trkpt lat="39.8028667" lon="8.88215"><ele>267.0</ele><time>2026-04-23T12:36:59.51Z</time></trkpt><trkpt lat="39.8029067" lon="8.8822883"><ele>267.0</ele><time>2026-04-23T12:37:01.51Z</time></trkpt><trkpt lat="39.802925" lon="8.882425"><ele>267.0</ele><time>2026-04-23T12:37:03.51Z</time></trkpt><trkpt lat="39.8029317" lon="8.8825917"><ele>267.0</ele><time>2026-04-23T12:37:05.51Z</time></trkpt><trkpt lat="39.8029417" lon="8.8826833"><ele>267.0</ele><time>2026-04-23T12:37:06.51Z</time></trkpt><trkpt lat="39.80296" lon="8.8827633"><ele>267.0</ele><time>2026-04-23T12:37:07.51Z</time></trkpt><trkpt lat="39.8029883" lon="8.8828417"><ele>267.0</ele><time>2026-04-23T12:37:08.51Z</time></trkpt><trkpt lat="39.8030167" lon="8.8829183"><ele>267.0</ele><time>2026-04-23T12:37:09.51Z</time></trkpt><trkpt lat="39.8030767" lon="8.8830617"><ele>267.8</ele><time>2026-04-23T12:37:11.51Z</time></trkpt><trkpt lat="39.8031583" lon="8.8831667"><ele>268.6</ele><time>2026-04-23T12:37:13.511Z</time></trkpt><trkpt lat="39.803265" lon="8.883265"><ele>269.40000000000003</ele><time>2026-04-23T12:37:15.511Z</time></trkpt><trkpt lat="39.80332" lon="8.8833217"><ele>270.2</ele><time>2026-04-23T12:37:16.511Z</time></trkpt><trkpt lat="39.8033783" lon="8.883375"><ele>271.0</ele><time>2026-04-23T12:37:17.511Z</time></trkpt><trkpt lat="39.80344" lon="8.8834317"><ele>270.57142857142856</ele><time>2026-04-23T12:37:18.511Z</time></trkpt><trkpt lat="39.8034883" lon="8.8835"><ele>270.14285714285717</ele><time>2026-04-23T12:37:19.511Z</time></trkpt><trkpt lat="39.80353" lon="8.88357"><ele>269.7142857142857</ele><time>2026-04-23T12:37:20.511Z</time></trkpt><trkpt lat="39.8035733" lon="8.8836367"><ele>269.2857142857143</ele><time>2026-04-23T12:37:21.51Z</time></trkpt><trkpt lat="39.8036217" lon="8.8836917"><ele>268.85714285714283</ele><time>2026-04-23T12:37:22.51Z</time></trkpt><trkpt lat="39.8036783" lon="8.8837383"><ele>268.42857142857144</ele><time>2026-04-23T12:37:23.51Z</time></trkpt><trkpt lat="39.803745" lon="8.8837867"><ele>268.0</ele><time>2026-04-23T12:37:24.511Z</time></trkpt><trkpt lat="39.80382" lon="8.8838217"><ele>268.0</ele><time>2026-04-23T12:37:25.51Z</time></trkpt><trkpt lat="39.8038883" lon="8.88385"><ele>268.0</ele><time>2026-04-23T12:37:26.511Z</time></trkpt><trkpt lat="39.8039583" lon="8.88387"><ele>268.0</ele><time>2026-04-23T12:37:27.511Z</time></trkpt><trkpt lat="39.8040317" lon="8.8838967"><ele>268.0</ele><time>2026-04-23T12:37:28.51Z</time></trkpt><trkpt lat="39.8040967" lon="8.8839267"><ele>268.0</ele><time>2026-04-23T12:37:29.51Z</time></trkpt><trkpt lat="39.8041633" lon="8.8839717"><ele>268.0</ele><time>2026-04-23T12:37:30.511Z</time></trkpt><trkpt lat="39.804235" lon="8.8840133"><ele>268.0</ele><time>2026-04-23T12:37:31.51Z</time></trkpt><trkpt lat="39.804305" lon="8.884055"><ele>267.7142857142857</ele><time>2026-04-23T12:37:32.51Z</time></trkpt><trkpt lat="39.804375" lon="8.8840867"><ele>267.42857142857144</ele><time>2026-04-23T12:37:33.511Z</time></trkpt><trkpt lat="39.804435" lon="8.88413"><ele>267.1428571428571</ele><time>2026-04-23T12:37:34.511Z</time></trkpt><trkpt lat="39.804485" lon="8.8841833"><ele>266.8571428571429</ele><time>2026-04-23T12:37:35.511Z</time></trkpt><trkpt lat="39.8045333" lon="8.884245"><ele>266.57142857142856</ele><time>2026-04-23T12:37:36.511Z</time></trkpt><trkpt lat="39.8045833" lon="8.8843183"><ele>266.2857142857143</ele><time>2026-04-23T12:37:37.511Z</time></trkpt><trkpt lat="39.8046367" lon="8.88438"><ele>266.0</ele><time>2026-04-23T12:37:38.51Z</time></trkpt><trkpt lat="39.80469" lon="8.88444"><ele>265.0</ele><time>2026-04-23T12:37:39.511Z</time></trkpt><trkpt lat="39.8047417" lon="8.8845"><ele>264.0</ele><time>2026-04-23T12:37:40.511Z</time></trkpt><trkpt lat="39.804785" lon="8.8845683"><ele>263.0</ele><time>2026-04-23T12:37:41.51Z</time></trkpt><trkpt lat="39.80483" lon="8.884645"><ele>262.0</ele><time>2026-04-23T12:37:42.51Z</time></trkpt><trkpt lat="39.8048683" lon="8.8847233"><ele>261.0</ele><time>2026-04-23T12:37:43.511Z</time></trkpt><trkpt lat="39.804915" lon="8.884805"><ele>260.0</ele><time>2026-04-23T12:37:44.511Z</time></trkpt><trkpt lat="39.8049567" lon="8.88488"><ele>259.0</ele><time>2026-04-23T12:37:45.511Z</time></trkpt><trkpt lat="39.805" lon="8.8849517"><ele>259.0</ele><time>2026-04-23T12:37:46.511Z</time></trkpt><trkpt lat="39.8050467" lon="8.8850167"><ele>259.0</ele><time>2026-04-23T12:37:47.511Z</time></trkpt><trkpt lat="39.805095" lon="8.8850833"><ele>259.0</ele><time>2026-04-23T12:37:48.511Z</time></trkpt><trkpt lat="39.8051383" lon="8.88515"><ele>259.0</ele><time>2026-04-23T12:37:49.511Z</time></trkpt><trkpt lat="39.805175" lon="8.8852267"><ele>259.0</ele><time>2026-04-23T12:37:50.51Z</time></trkpt><trkpt lat="39.80521" lon="8.8853033"><ele>259.0</ele><time>2026-04-23T12:37:51.511Z</time></trkpt><trkpt lat="39.805245" lon="8.8853833"><ele>259.0</ele><time>2026-04-23T12:37:52.51Z</time></trkpt><trkpt lat="39.80528" lon="8.8854617"><ele>256.8</ele><time>2026-04-23T12:37:53.51Z</time></trkpt><trkpt lat="39.8053117" lon="8.8855333"><ele>254.59999999999997</ele><time>2026-04-23T12:37:54.51Z</time></trkpt><trkpt lat="39.8053433" lon="8.8856083"><ele>252.4</ele><time>2026-04-23T12:37:55.51Z</time></trkpt><trkpt lat="39.8053933" lon="8.885735"><ele>250.2</ele><time>2026-04-23T12:37:57.511Z</time></trkpt><trkpt lat="39.80542" lon="8.8858817"><ele>248.0</ele><time>2026-04-23T12:37:59.511Z</time></trkpt><trkpt lat="39.8054533" lon="8.8860367"><ele>246.85714285714286</ele><time>2026-04-23T12:38:01.511Z</time></trkpt><trkpt lat="39.805475" lon="8.88612"><ele>245.71428571428572</ele><time>2026-04-23T12:38:02.51Z</time></trkpt><trkpt lat="39.80551" lon="8.8861883"><ele>244.57142857142858</ele><time>2026-04-23T12:38:03.51Z</time></trkpt><trkpt lat="39.8055467" lon="8.88626"><ele>243.42857142857144</ele><time>2026-04-23T12:38:04.511Z</time></trkpt><trkpt lat="39.805585" lon="8.8863383"><ele>242.28571428571428</ele><time>2026-04-23T12:38:05.51Z</time></trkpt><trkpt lat="39.805625" lon="8.8864067"><ele>241.14285714285717</ele><time>2026-04-23T12:38:06.51Z</time></trkpt><trkpt lat="39.8056567" lon="8.88648"><ele>240.0</ele><time>2026-04-23T12:38:07.511Z</time></trkpt><trkpt lat="39.805695" lon="8.88655"><ele>240.0</ele><time>2026-04-23T12:38:08.51Z</time></trkpt><trkpt lat="39.8057383" lon="8.8866283"><ele>240.0</ele><time>2026-04-23T12:38:09.511Z</time></trkpt><trkpt lat="39.8057833" lon="8.8867"><ele>240.0</ele><time>2026-04-23T12:38:10.51Z</time></trkpt><trkpt lat="39.8058333" lon="8.8867733"><ele>240.0</ele><time>2026-04-23T12:38:11.51Z</time></trkpt><trkpt lat="39.8058717" lon="8.886845"><ele>240.0</ele><time>2026-04-23T12:38:12.511Z</time></trkpt><trkpt lat="39.8059117" lon="8.8869217"><ele>240.0</ele><time>2026-04-23T12:38:13.511Z</time></trkpt><trkpt lat="39.8059517" lon="8.8870067"><ele>240.0</ele><time>2026-04-23T12:38:14.51Z</time></trkpt><trkpt lat="39.805995" lon="8.8870833"><ele>238.5</ele><time>2026-04-23T12:38:15.51Z</time></trkpt><trkpt lat="39.8060383" lon="8.887155"><ele>237.0</ele><time>2026-04-23T12:38:16.51Z</time></trkpt><trkpt lat="39.8060783" lon="8.88723"><ele>235.5</ele><time>2026-04-23T12:38:17.51Z</time></trkpt><trkpt lat="39.8061217" lon="8.8872917"><ele>234.0</ele><time>2026-04-23T12:38:18.511Z</time></trkpt><trkpt lat="39.8062" lon="8.8874083"><ele>232.5</ele><time>2026-04-23T12:38:20.51Z</time></trkpt><trkpt lat="39.80624" lon="8.887485"><ele>231.0</ele><time>2026-04-23T12:38:21.511Z</time></trkpt><trkpt lat="39.8062733" lon="8.8875617"><ele>230.85714285714286</ele><time>2026-04-23T12:38:22.511Z</time></trkpt><trkpt lat="39.8063067" lon="8.88764"><ele>230.71428571428572</ele><time>2026-04-23T12:38:23.51Z</time></trkpt><trkpt lat="39.80634" lon="8.8877333"><ele>230.57142857142856</ele><time>2026-04-23T12:38:24.511Z</time></trkpt><trkpt lat="39.8063683" lon="8.8878233"><ele>230.42857142857142</ele><time>2026-04-23T12:38:25.511Z</time></trkpt><trkpt lat="39.8063933" lon="8.887905"><ele>230.28571428571428</ele><time>2026-04-23T12:38:26.511Z</time></trkpt><trkpt lat="39.8064233" lon="8.887985"><ele>230.1428571428571</ele><time>2026-04-23T12:38:27.51Z</time></trkpt><trkpt lat="39.8064533" lon="8.8880583"><ele>229.99999999999997</ele><time>2026-04-23T12:38:28.511Z</time></trkpt><trkpt lat="39.8064883" lon="8.8881383"><ele>230.00000000000003</ele><time>2026-04-23T12:38:29.511Z</time></trkpt><trkpt lat="39.8065283" lon="8.8882133"><ele>230.0</ele><time>2026-04-23T12:38:30.511Z</time></trkpt><trkpt lat="39.806575" lon="8.8882817"><ele>230.0</ele><time>2026-04-23T12:38:31.51Z</time></trkpt><trkpt lat="39.8066567" lon="8.888405"><ele>230.0</ele><time>2026-04-23T12:38:33.51Z</time></trkpt><trkpt lat="39.8067017" lon="8.8884683"><ele>230.00000000000003</ele><time>2026-04-23T12:38:34.51Z</time></trkpt><trkpt lat="39.8067717" lon="8.8885817"><ele>230.0</ele><time>2026-04-23T12:38:36.511Z</time></trkpt><trkpt lat="39.8068" lon="8.8887033"><ele>230.00000000000003</ele><time>2026-04-23T12:38:38.51Z</time></trkpt><trkpt lat="39.806805" lon="8.8888433"><ele>230.0</ele><time>2026-04-23T12:38:40.511Z</time></trkpt><trkpt lat="39.806815" lon="8.888925"><ele>230.0</ele><time>2026-04-23T12:38:41.51Z</time></trkpt><trkpt lat="39.8068567" lon="8.889055"><ele>230.0</ele><time>2026-04-23T12:38:43.511Z</time></trkpt><trkpt lat="39.806935" lon="8.889135"><ele>230.00000000000003</ele><time>2026-04-23T12:38:45.51Z</time></trkpt><trkpt lat="39.8069867" lon="8.889185"><ele>230.0</ele><time>2026-04-23T12:38:46.511Z</time></trkpt><trkpt lat="39.8070467" lon="8.889245"><ele>229.16666666666669</ele><time>2026-04-23T12:38:47.511Z</time></trkpt><trkpt lat="39.8071" lon="8.88931"><ele>228.33333333333334</ele><time>2026-04-23T12:38:48.51Z</time></trkpt><trkpt lat="39.807155" lon="8.8893867"><ele>227.5</ele><time>2026-04-23T12:38:49.51Z</time></trkpt><trkpt lat="39.8072133" lon="8.88948"><ele>226.66666666666669</ele><time>2026-04-23T12:38:50.51Z</time></trkpt><trkpt lat="39.807265" lon="8.8895817"><ele>225.83333333333334</ele><time>2026-04-23T12:38:51.51Z</time></trkpt><trkpt lat="39.8073133" lon="8.8896767"><ele>225.0</ele><time>2026-04-23T12:38:52.511Z</time></trkpt><trkpt lat="39.8073583" lon="8.8897717"><ele>225.0</ele><time>2026-04-23T12:38:53.51Z</time></trkpt><trkpt lat="39.8073983" lon="8.88987"><ele>225.0</ele><time>2026-04-23T12:38:54.51Z</time></trkpt><trkpt lat="39.8074467" lon="8.88995"><ele>225.0</ele><time>2026-04-23T12:38:55.511Z</time></trkpt><trkpt lat="39.8075033" lon="8.8900217"><ele>225.0</ele><time>2026-04-23T12:38:56.511Z</time></trkpt><trkpt lat="39.8075567" lon="8.890095"><ele>225.0</ele><time>2026-04-23T12:38:57.51Z</time></trkpt><trkpt lat="39.8076067" lon="8.890165"><ele>225.0</ele><time>2026-04-23T12:38:58.511Z</time></trkpt><trkpt lat="39.8076583" lon="8.8902317"><ele>224.0</ele><time>2026-04-23T12:38:59.51Z</time></trkpt><trkpt lat="39.8077033" lon="8.8902967"><ele>223.0</ele><time>2026-04-23T12:39:00.511Z</time></trkpt><trkpt lat="39.8077483" lon="8.8903617"><ele>222.0</ele><time>2026-04-23T12:39:01.51Z</time></trkpt><trkpt lat="39.807825" lon="8.8904517"><ele>221.0</ele><time>2026-04-23T12:39:03.511Z</time></trkpt><trkpt lat="39.807885" lon="8.8905333"><ele>220.0</ele><time>2026-04-23T12:39:05.511Z</time></trkpt><trkpt lat="39.80796" lon="8.890675"><ele>220.0</ele><time>2026-04-23T12:39:07.51Z</time></trkpt><trkpt lat="39.8080017" lon="8.890745"><ele>220.0</ele><time>2026-04-23T12:39:08.511Z</time></trkpt><trkpt lat="39.8080767" lon="8.890825"><ele>220.0</ele><time>2026-04-23T12:39:10.51Z</time></trkpt><trkpt lat="39.8081517" lon="8.8909"><ele>220.0</ele><time>2026-04-23T12:39:12.511Z</time></trkpt><trkpt lat="39.808235" lon="8.891025"><ele>220.0</ele><time>2026-04-23T12:39:14.511Z</time></trkpt><trkpt lat="39.8082883" lon="8.8911067"><ele>219.49999999999997</ele><time>2026-04-23T12:39:15.511Z</time></trkpt><trkpt lat="39.8083367" lon="8.8911883"><ele>219.0</ele><time>2026-04-23T12:39:16.511Z</time></trkpt><trkpt lat="39.808375" lon="8.8912867"><ele>218.5</ele><time>2026-04-23T12:39:17.51Z</time></trkpt><trkpt lat="39.80841" lon="8.8913867"><ele>218.0</ele><time>2026-04-23T12:39:18.511Z</time></trkpt><trkpt lat="39.808445" lon="8.89149"><ele>217.49999999999997</ele><time>2026-04-23T12:39:19.51Z</time></trkpt><trkpt lat="39.808475" lon="8.8915867"><ele>217.0</ele><time>2026-04-23T12:39:20.51Z</time></trkpt><trkpt lat="39.8085" lon="8.891695"><ele>215.8</ele><time>2026-04-23T12:39:21.511Z</time></trkpt><trkpt lat="39.8085267" lon="8.8918033"><ele>214.6</ele><time>2026-04-23T12:39:22.511Z</time></trkpt><trkpt lat="39.80856" lon="8.8919167"><ele>213.4</ele><time>2026-04-23T12:39:23.51Z</time></trkpt><trkpt lat="39.8085883" lon="8.892025"><ele>212.20000000000002</ele><time>2026-04-23T12:39:24.511Z</time></trkpt><trkpt lat="39.8086117" lon="8.8921367"><ele>211.0</ele><time>2026-04-23T12:39:25.511Z</time></trkpt><trkpt lat="39.8086433" lon="8.8922517"><ele>210.99999999999997</ele><time>2026-04-23T12:39:26.51Z</time></trkpt><trkpt lat="39.8086717" lon="8.8923583"><ele>211.0</ele><time>2026-04-23T12:39:27.511Z</time></trkpt><trkpt lat="39.808705" lon="8.89246"><ele>211.0</ele><time>2026-04-23T12:39:28.511Z</time></trkpt><trkpt lat="39.808735" lon="8.8925583"><ele>211.0</ele><time>2026-04-23T12:39:29.51Z</time></trkpt><trkpt lat="39.80876" lon="8.8926467"><ele>210.99999999999997</ele><time>2026-04-23T12:39:30.51Z</time></trkpt><trkpt lat="39.80878" lon="8.8927433"><ele>211.0</ele><time>2026-04-23T12:39:31.51Z</time></trkpt><trkpt lat="39.8088017" lon="8.8928283"><ele>210.60000000000002</ele><time>2026-04-23T12:39:32.511Z</time></trkpt><trkpt lat="39.808845" lon="8.8929717"><ele>210.2</ele><time>2026-04-23T12:39:34.51Z</time></trkpt><trkpt lat="39.8088683" lon="8.8930617"><ele>209.8</ele><time>2026-04-23T12:39:35.51Z</time></trkpt><trkpt lat="39.8088933" lon="8.893155"><ele>209.39999999999998</ele><time>2026-04-23T12:39:36.51Z</time></trkpt><trkpt lat="39.8089267" lon="8.89327"><ele>209.0</ele><time>2026-04-23T12:39:37.51Z</time></trkpt><trkpt lat="39.8089617" lon="8.8933867"><ele>209.00000000000003</ele><time>2026-04-23T12:39:38.51Z</time></trkpt><trkpt lat="39.8089933" lon="8.8935"><ele>209.0</ele><time>2026-04-23T12:39:39.51Z</time></trkpt><trkpt lat="39.8090217" lon="8.8936017"><ele>209.0</ele><time>2026-04-23T12:39:40.511Z</time></trkpt><trkpt lat="39.8090533" lon="8.8936983"><ele>209.0</ele><time>2026-04-23T12:39:41.51Z</time></trkpt><trkpt lat="39.8090817" lon="8.8937917"><ele>209.00000000000003</ele><time>2026-04-23T12:39:42.51Z</time></trkpt><trkpt lat="39.8091" lon="8.8938833"><ele>209.0</ele><time>2026-04-23T12:39:43.51Z</time></trkpt><trkpt lat="39.80913" lon="8.8940367"><ele>209.00000000000003</ele><time>2026-04-23T12:39:45.51Z</time></trkpt><trkpt lat="39.8091333" lon="8.8941667"><ele>209.0</ele><time>2026-04-23T12:39:47.51Z</time></trkpt><trkpt lat="39.8091117" lon="8.8942517"><ele>209.0</ele><time>2026-04-23T12:39:48.51Z</time></trkpt><trkpt lat="39.809095" lon="8.89434"><ele>209.0</ele><time>2026-04-23T12:39:49.51Z</time></trkpt><trkpt lat="39.80908" lon="8.8944417"><ele>209.00000000000003</ele><time>2026-04-23T12:39:50.51Z</time></trkpt><trkpt lat="39.80907" lon="8.89455"><ele>209.0</ele><time>2026-04-23T12:39:51.51Z</time></trkpt><trkpt lat="39.809085" lon="8.8946567"><ele>209.33333333333334</ele><time>2026-04-23T12:39:52.511Z</time></trkpt><trkpt lat="39.8091167" lon="8.89477"><ele>209.66666666666669</ele><time>2026-04-23T12:39:53.511Z</time></trkpt><trkpt lat="39.809145" lon="8.8948867"><ele>210.0</ele><time>2026-04-23T12:39:54.51Z</time></trkpt><trkpt lat="39.8091717" lon="8.8949867"><ele>210.33333333333331</ele><time>2026-04-23T12:39:55.51Z</time></trkpt><trkpt lat="39.809195" lon="8.8950833"><ele>210.66666666666666</ele><time>2026-04-23T12:39:56.511Z</time></trkpt><trkpt lat="39.809225" lon="8.8951783"><ele>211.0</ele><time>2026-04-23T12:39:57.511Z</time></trkpt><trkpt lat="39.80927" lon="8.8952833"><ele>210.60000000000002</ele><time>2026-04-23T12:39:58.511Z</time></trkpt><trkpt lat="39.80932" lon="8.895385"><ele>210.2</ele><time>2026-04-23T12:39:59.51Z</time></trkpt><trkpt lat="39.80936" lon="8.8954867"><ele>209.8</ele><time>2026-04-23T12:40:00.51Z</time></trkpt><trkpt lat="39.809405" lon="8.8956"><ele>209.39999999999998</ele><time>2026-04-23T12:40:01.51Z</time></trkpt><trkpt lat="39.8094433" lon="8.8957033"><ele>209.0</ele><time>2026-04-23T12:40:02.51Z</time></trkpt><trkpt lat="39.8094817" lon="8.8958133"><ele>209.00000000000003</ele><time>2026-04-23T12:40:03.511Z</time></trkpt><trkpt lat="39.8095133" lon="8.8959017"><ele>209.0</ele><time>2026-04-23T12:40:04.511Z</time></trkpt><trkpt lat="39.80955" lon="8.895985"><ele>209.0</ele><time>2026-04-23T12:40:05.51Z</time></trkpt><trkpt lat="39.8095883" lon="8.8960733"><ele>209.0</ele><time>2026-04-23T12:40:06.511Z</time></trkpt><trkpt lat="39.8096267" lon="8.8961617"><ele>209.00000000000003</ele><time>2026-04-23T12:40:07.511Z</time></trkpt><trkpt lat="39.8096567" lon="8.896235"><ele>209.0</ele><time>2026-04-23T12:40:08.51Z</time></trkpt><trkpt lat="39.80972" lon="8.8963367"><ele>209.16666666666669</ele><time>2026-04-23T12:40:10.511Z</time></trkpt><trkpt lat="39.8098033" lon="8.8963667"><ele>209.33333333333334</ele><time>2026-04-23T12:40:12.511Z</time></trkpt><trkpt lat="39.8099217" lon="8.8963117"><ele>209.5</ele><time>2026-04-23T12:40:14.51Z</time></trkpt><trkpt lat="39.8099817" lon="8.8962633"><ele>209.66666666666669</ele><time>2026-04-23T12:40:15.511Z</time></trkpt><trkpt lat="39.81004" lon="8.89623"><ele>209.83333333333334</ele><time>2026-04-23T12:40:16.511Z</time></trkpt><trkpt lat="39.8101067" lon="8.89621"><ele>210.0</ele><time>2026-04-23T12:40:17.51Z</time></trkpt><trkpt lat="39.8101817" lon="8.8962167"><ele>210.0</ele><time>2026-04-23T12:40:18.511Z</time></trkpt><trkpt lat="39.8102533" lon="8.89623"><ele>210.0</ele><time>2026-04-23T12:40:19.51Z</time></trkpt><trkpt lat="39.8103233" lon="8.896255"><ele>210.0</ele><time>2026-04-23T12:40:20.511Z</time></trkpt><trkpt lat="39.81039" lon="8.89631"><ele>210.0</ele><time>2026-04-23T12:40:21.51Z</time></trkpt><trkpt lat="39.8104517" lon="8.8963867"><ele>210.0</ele><time>2026-04-23T12:40:22.51Z</time></trkpt><trkpt lat="39.8105083" lon="8.8964717"><ele>210.0</ele><time>2026-04-23T12:40:23.509Z</time></trkpt><trkpt lat="39.8105617" lon="8.8965733"><ele>210.0</ele><time>2026-04-23T12:40:24.51Z</time></trkpt><trkpt lat="39.8106217" lon="8.8966733"><ele>210.0</ele><time>2026-04-23T12:40:25.509Z</time></trkpt><trkpt lat="39.81069" lon="8.896765"><ele>210.0</ele><time>2026-04-23T12:40:26.509Z</time></trkpt><trkpt lat="39.8107567" lon="8.896855"><ele>210.0</ele><time>2026-04-23T12:40:27.509Z</time></trkpt><trkpt lat="39.8108267" lon="8.896935"><ele>210.0</ele><time>2026-04-23T12:40:28.51Z</time></trkpt><trkpt lat="39.8108933" lon="8.89702"><ele>210.4</ele><time>2026-04-23T12:40:29.51Z</time></trkpt><trkpt lat="39.81097" lon="8.8970833"><ele>210.8</ele><time>2026-04-23T12:40:30.51Z</time></trkpt><trkpt lat="39.8110583" lon="8.897145"><ele>211.2</ele><time>2026-04-23T12:40:31.51Z</time></trkpt><trkpt lat="39.8111567" lon="8.8972033"><ele>211.6</ele><time>2026-04-23T12:40:32.509Z</time></trkpt><trkpt lat="39.81125" lon="8.8972717"><ele>212.0</ele><time>2026-04-23T12:40:33.509Z</time></trkpt><trkpt lat="39.8113367" lon="8.8973317"><ele>212.00000000000003</ele><time>2026-04-23T12:40:34.509Z</time></trkpt><trkpt lat="39.8114167" lon="8.8973683"><ele>212.0</ele><time>2026-04-23T12:40:35.509Z</time></trkpt><trkpt lat="39.8114983" lon="8.897405"><ele>212.0</ele><time>2026-04-23T12:40:36.509Z</time></trkpt><trkpt lat="39.8115817" lon="8.8974433"><ele>212.0</ele><time>2026-04-23T12:40:37.509Z</time></trkpt><trkpt lat="39.8116617" lon="8.89748"><ele>212.00000000000003</ele><time>2026-04-23T12:40:38.509Z</time></trkpt><trkpt lat="39.8117367" lon="8.897535"><ele>212.0</ele><time>2026-04-23T12:40:39.509Z</time></trkpt><trkpt lat="39.81181" lon="8.8975917"><ele>211.50000000000003</ele><time>2026-04-23T12:40:40.509Z</time></trkpt><trkpt lat="39.8118783" lon="8.8976633"><ele>211.0</ele><time>2026-04-23T12:40:41.51Z</time></trkpt><trkpt lat="39.8119267" lon="8.8977417"><ele>210.5</ele><time>2026-04-23T12:40:42.51Z</time></trkpt><trkpt lat="39.811965" lon="8.8978383"><ele>210.0</ele><time>2026-04-23T12:40:43.509Z</time></trkpt><trkpt lat="39.8119983" lon="8.89793"><ele>209.50000000000003</ele><time>2026-04-23T12:40:44.509Z</time></trkpt><trkpt lat="39.8120433" lon="8.897995"><ele>209.0</ele><time>2026-04-23T12:40:45.509Z</time></trkpt><trkpt lat="39.8121033" lon="8.8980383"><ele>209.00000000000003</ele><time>2026-04-23T12:40:46.51Z</time></trkpt><trkpt lat="39.8121717" lon="8.8980733"><ele>209.0</ele><time>2026-04-23T12:40:47.509Z</time></trkpt><trkpt lat="39.8122383" lon="8.898115"><ele>209.0</ele><time>2026-04-23T12:40:48.509Z</time></trkpt><trkpt lat="39.8123033" lon="8.89817"><ele>209.0</ele><time>2026-04-23T12:40:49.509Z</time></trkpt><trkpt lat="39.8123633" lon="8.8982333"><ele>209.00000000000003</ele><time>2026-04-23T12:40:50.509Z</time></trkpt><trkpt lat="39.8124217" lon="8.898305"><ele>209.0</ele><time>2026-04-23T12:40:51.51Z</time></trkpt><trkpt lat="39.812475" lon="8.898395"><ele>209.39999999999998</ele><time>2026-04-23T12:40:52.51Z</time></trkpt><trkpt lat="39.8125333" lon="8.898505"><ele>209.8</ele><time>2026-04-23T12:40:53.509Z</time></trkpt><trkpt lat="39.8125933" lon="8.8986283"><ele>210.2</ele><time>2026-04-23T12:40:54.509Z</time></trkpt><trkpt lat="39.8126617" lon="8.89875"><ele>210.60000000000002</ele><time>2026-04-23T12:40:55.51Z</time></trkpt><trkpt lat="39.81273" lon="8.8988767"><ele>211.0</ele><time>2026-04-23T12:40:56.509Z</time></trkpt><trkpt lat="39.8127867" lon="8.8990017"><ele>211.0</ele><time>2026-04-23T12:40:57.509Z</time></trkpt><trkpt lat="39.8128383" lon="8.8991233"><ele>211.0</ele><time>2026-04-23T12:40:58.51Z</time></trkpt><trkpt lat="39.812885" lon="8.8992267"><ele>211.0</ele><time>2026-04-23T12:40:59.51Z</time></trkpt><trkpt lat="39.812935" lon="8.89932"><ele>211.0</ele><time>2026-04-23T12:41:00.509Z</time></trkpt><trkpt lat="39.8129917" lon="8.899395"><ele>211.0</ele><time>2026-04-23T12:41:01.509Z</time></trkpt><trkpt lat="39.8130633" lon="8.8994583"><ele>211.99999999999997</ele><time>2026-04-23T12:41:02.509Z</time></trkpt><trkpt lat="39.8131383" lon="8.8995267"><ele>213.0</ele><time>2026-04-23T12:41:03.51Z</time></trkpt><trkpt lat="39.8132117" lon="8.8995983"><ele>214.0</ele><time>2026-04-23T12:41:04.509Z</time></trkpt><trkpt lat="39.8132717" lon="8.8996783"><ele>215.0</ele><time>2026-04-23T12:41:05.509Z</time></trkpt><trkpt lat="39.8133217" lon="8.8997683"><ele>215.99999999999997</ele><time>2026-04-23T12:41:06.51Z</time></trkpt><trkpt lat="39.81337" lon="8.8998667"><ele>217.0</ele><time>2026-04-23T12:41:07.51Z</time></trkpt><trkpt lat="39.813415" lon="8.8999683"><ele>217.0</ele><time>2026-04-23T12:41:08.509Z</time></trkpt><trkpt lat="39.8134583" lon="8.9000783"><ele>217.0</ele><time>2026-04-23T12:41:09.51Z</time></trkpt><trkpt lat="39.8135017" lon="8.9001917"><ele>217.0</ele><time>2026-04-23T12:41:10.51Z</time></trkpt><trkpt lat="39.813555" lon="8.9003083"><ele>217.0</ele><time>2026-04-23T12:41:11.509Z</time></trkpt><trkpt lat="39.8136117" lon="8.90043"><ele>217.0</ele><time>2026-04-23T12:41:12.51Z</time></trkpt><trkpt lat="39.813665" lon="8.9005517"><ele>218.8</ele><time>2026-04-23T12:41:13.51Z</time></trkpt><trkpt lat="39.813715" lon="8.9006633"><ele>220.6</ele><time>2026-04-23T12:41:14.509Z</time></trkpt><trkpt lat="39.81377" lon="8.9007783"><ele>222.40000000000003</ele><time>2026-04-23T12:41:15.509Z</time></trkpt><trkpt lat="39.8138233" lon="8.90089"><ele>224.20000000000002</ele><time>2026-04-23T12:41:16.51Z</time></trkpt><trkpt lat="39.8138867" lon="8.901005"><ele>226.0</ele><time>2026-04-23T12:41:17.509Z</time></trkpt><trkpt lat="39.81395" lon="8.9011317"><ele>226.0</ele><time>2026-04-23T12:41:18.509Z</time></trkpt><trkpt lat="39.814015" lon="8.90126"><ele>226.00000000000003</ele><time>2026-04-23T12:41:19.509Z</time></trkpt><trkpt lat="39.8140867" lon="8.9013733"><ele>226.00000000000003</ele><time>2026-04-23T12:41:20.509Z</time></trkpt><trkpt lat="39.8141517" lon="8.9014817"><ele>226.0</ele><time>2026-04-23T12:41:21.509Z</time></trkpt><trkpt lat="39.8142183" lon="8.901585"><ele>226.0</ele><time>2026-04-23T12:41:22.509Z</time></trkpt><trkpt lat="39.814295" lon="8.9016733"><ele>225.8</ele><time>2026-04-23T12:41:23.51Z</time></trkpt><trkpt lat="39.8143833" lon="8.9017483"><ele>225.60000000000002</ele><time>2026-04-23T12:41:24.51Z</time></trkpt><trkpt lat="39.8144783" lon="8.9018083"><ele>225.4</ele><time>2026-04-23T12:41:25.509Z</time></trkpt><trkpt lat="39.81458" lon="8.9018633"><ele>225.2</ele><time>2026-04-23T12:41:26.509Z</time></trkpt><trkpt lat="39.8146733" lon="8.90191"><ele>225.0</ele><time>2026-04-23T12:41:27.509Z</time></trkpt><trkpt lat="39.81476" lon="8.9019517"><ele>224.5</ele><time>2026-04-23T12:41:28.51Z</time></trkpt><trkpt lat="39.8148383" lon="8.9019967"><ele>224.0</ele><time>2026-04-23T12:41:29.509Z</time></trkpt><trkpt lat="39.814915" lon="8.9020483"><ele>223.5</ele><time>2026-04-23T12:41:30.51Z</time></trkpt><trkpt lat="39.81499" lon="8.9021033"><ele>223.0</ele><time>2026-04-23T12:41:31.509Z</time></trkpt><trkpt lat="39.8150617" lon="8.90218"><ele>222.5</ele><time>2026-04-23T12:41:32.51Z</time></trkpt><trkpt lat="39.8151317" lon="8.9022617"><ele>222.0</ele><time>2026-04-23T12:41:33.509Z</time></trkpt><trkpt lat="39.8151967" lon="8.9023483"><ele>221.0</ele><time>2026-04-23T12:41:34.51Z</time></trkpt><trkpt lat="39.8152633" lon="8.90243"><ele>220.0</ele><time>2026-04-23T12:41:35.51Z</time></trkpt><trkpt lat="39.8153317" lon="8.9025067"><ele>219.0</ele><time>2026-04-23T12:41:36.509Z</time></trkpt><trkpt lat="39.8153983" lon="8.902595"><ele>218.0</ele><time>2026-04-23T12:41:37.509Z</time></trkpt><trkpt lat="39.8154717" lon="8.9026867"><ele>217.0</ele><time>2026-04-23T12:41:38.51Z</time></trkpt><trkpt lat="39.8155383" lon="8.9027767"><ele>216.6</ele><time>2026-04-23T12:41:39.51Z</time></trkpt><trkpt lat="39.8156133" lon="8.9028733"><ele>216.2</ele><time>2026-04-23T12:41:40.509Z</time></trkpt><trkpt lat="39.8156833" lon="8.9029767"><ele>215.8</ele><time>2026-04-23T12:41:41.51Z</time></trkpt><trkpt lat="39.81575" lon="8.903055"><ele>215.4</ele><time>2026-04-23T12:41:42.51Z</time></trkpt><trkpt lat="39.8158317" lon="8.903145"><ele>215.0</ele><time>2026-04-23T12:41:43.509Z</time></trkpt><trkpt lat="39.8159167" lon="8.9032367"><ele>214.6</ele><time>2026-04-23T12:41:44.51Z</time></trkpt><trkpt lat="39.8159967" lon="8.903335"><ele>214.2</ele><time>2026-04-23T12:41:45.51Z</time></trkpt><trkpt lat="39.81607" lon="8.9034267"><ele>213.8</ele><time>2026-04-23T12:41:46.509Z</time></trkpt><trkpt lat="39.8161417" lon="8.9035133"><ele>213.4</ele><time>2026-04-23T12:41:47.51Z</time></trkpt><trkpt lat="39.8162217" lon="8.9035983"><ele>213.0</ele><time>2026-04-23T12:41:48.509Z</time></trkpt><trkpt lat="39.8163" lon="8.9037067"><ele>212.4</ele><time>2026-04-23T12:41:49.509Z</time></trkpt><trkpt lat="39.8163717" lon="8.9038117"><ele>211.8</ele><time>2026-04-23T12:41:50.509Z</time></trkpt><trkpt lat="39.8164417" lon="8.903925"><ele>211.2</ele><time>2026-04-23T12:41:51.509Z</time></trkpt><trkpt lat="39.8165217" lon="8.90404"><ele>210.6</ele><time>2026-04-23T12:41:52.51Z</time></trkpt><trkpt lat="39.8165883" lon="8.9041533"><ele>210.0</ele><time>2026-04-23T12:41:53.51Z</time></trkpt><trkpt lat="39.8166583" lon="8.9042583"><ele>209.0</ele><time>2026-04-23T12:41:54.509Z</time></trkpt><trkpt lat="39.8167217" lon="8.9043667"><ele>208.0</ele><time>2026-04-23T12:41:55.509Z</time></trkpt><trkpt lat="39.8167867" lon="8.90447"><ele>207.0</ele><time>2026-04-23T12:41:56.509Z</time></trkpt><trkpt lat="39.8168517" lon="8.9045717"><ele>206.0</ele><time>2026-04-23T12:41:57.51Z</time></trkpt><trkpt lat="39.8169167" lon="8.9046767"><ele>205.0</ele><time>2026-04-23T12:41:58.51Z</time></trkpt><trkpt lat="39.8169717" lon="8.9047767"><ele>204.8</ele><time>2026-04-23T12:41:59.509Z</time></trkpt><trkpt lat="39.8170383" lon="8.9048767"><ele>204.6</ele><time>2026-04-23T12:42:00.509Z</time></trkpt><trkpt lat="39.8170933" lon="8.9049767"><ele>204.39999999999998</ele><time>2026-04-23T12:42:01.51Z</time></trkpt><trkpt lat="39.8171433" lon="8.9050817"><ele>204.2</ele><time>2026-04-23T12:42:02.509Z</time></trkpt><trkpt lat="39.8171883" lon="8.905195"><ele>204.0</ele><time>2026-04-23T12:42:03.51Z</time></trkpt><trkpt lat="39.8172317" lon="8.9053167"><ele>203.39999999999998</ele><time>2026-04-23T12:42:04.51Z</time></trkpt><trkpt lat="39.8172817" lon="8.9054433"><ele>202.8</ele><time>2026-04-23T12:42:05.51Z</time></trkpt><trkpt lat="39.8173233" lon="8.905565"><ele>202.2</ele><time>2026-04-23T12:42:06.509Z</time></trkpt><trkpt lat="39.8173733" lon="8.9056717"><ele>201.60000000000002</ele><time>2026-04-23T12:42:07.509Z</time></trkpt><trkpt lat="39.8174183" lon="8.9057733"><ele>201.0</ele><time>2026-04-23T12:42:08.509Z</time></trkpt><trkpt lat="39.817465" lon="8.905865"><ele>200.8</ele><time>2026-04-23T12:42:09.51Z</time></trkpt><trkpt lat="39.8175117" lon="8.9059367"><ele>200.60000000000002</ele><time>2026-04-23T12:42:10.51Z</time></trkpt><trkpt lat="39.8175717" lon="8.9060317"><ele>200.4</ele><time>2026-04-23T12:42:12.509Z</time></trkpt><trkpt lat="39.8176217" lon="8.906115"><ele>200.2</ele><time>2026-04-23T12:42:14.51Z</time></trkpt><trkpt lat="39.8176833" lon="8.9062583"><ele>200.0</ele><time>2026-04-23T12:42:16.509Z</time></trkpt><trkpt lat="39.8177183" lon="8.9063467"><ele>199.83333333333334</ele><time>2026-04-23T12:42:17.509Z</time></trkpt><trkpt lat="39.81775" lon="8.9064383"><ele>199.66666666666669</ele><time>2026-04-23T12:42:18.51Z</time></trkpt><trkpt lat="39.8177883" lon="8.906535"><ele>199.5</ele><time>2026-04-23T12:42:19.51Z</time></trkpt><trkpt lat="39.81783" lon="8.9066283"><ele>199.33333333333331</ele><time>2026-04-23T12:42:20.509Z</time></trkpt><trkpt lat="39.8178733" lon="8.90673"><ele>199.16666666666666</ele><time>2026-04-23T12:42:21.51Z</time></trkpt><trkpt lat="39.8179217" lon="8.9068283"><ele>199.0</ele><time>2026-04-23T12:42:22.51Z</time></trkpt><trkpt lat="39.8179667" lon="8.906925"><ele>198.99999999999997</ele><time>2026-04-23T12:42:23.509Z</time></trkpt><trkpt lat="39.8180133" lon="8.9070217"><ele>199.0</ele><time>2026-04-23T12:42:24.51Z</time></trkpt><trkpt lat="39.81806" lon="8.9071017"><ele>199.0</ele><time>2026-04-23T12:42:25.51Z</time></trkpt><trkpt lat="39.818105" lon="8.907175"><ele>199.0</ele><time>2026-04-23T12:42:26.51Z</time></trkpt><trkpt lat="39.81815" lon="8.9072433"><ele>198.99999999999997</ele><time>2026-04-23T12:42:27.509Z</time></trkpt><trkpt lat="39.8182367" lon="8.9073267"><ele>199.0</ele><time>2026-04-23T12:42:29.509Z</time></trkpt><trkpt lat="39.8183083" lon="8.9073933"><ele>199.0</ele><time>2026-04-23T12:42:31.509Z</time></trkpt><trkpt lat="39.818325" lon="8.9075233"><ele>199.0</ele><time>2026-04-23T12:42:33.509Z</time></trkpt><trkpt lat="39.8183317" lon="8.907695"><ele>199.0</ele><time>2026-04-23T12:42:35.51Z</time></trkpt><trkpt lat="39.81835" lon="8.9077767"><ele>199.0</ele><time>2026-04-23T12:42:36.51Z</time></trkpt><trkpt lat="39.8184217" lon="8.9078667"><ele>199.0</ele><time>2026-04-23T12:42:38.509Z</time></trkpt><trkpt lat="39.818515" lon="8.9079633"><ele>198.99999999999997</ele><time>2026-04-23T12:42:40.509Z</time></trkpt><trkpt lat="39.8185683" lon="8.9080233"><ele>199.0</ele><time>2026-04-23T12:42:41.51Z</time></trkpt><trkpt lat="39.8186167" lon="8.9080833"><ele>199.0</ele><time>2026-04-23T12:42:42.51Z</time></trkpt><trkpt lat="39.818665" lon="8.9081517"><ele>199.0</ele><time>2026-04-23T12:42:43.51Z</time></trkpt><trkpt lat="39.81871" lon="8.9082233"><ele>199.0</ele><time>2026-04-23T12:42:44.509Z</time></trkpt><trkpt lat="39.8187533" lon="8.9082933"><ele>198.99999999999997</ele><time>2026-04-23T12:42:45.51Z</time></trkpt><trkpt lat="39.8187933" lon="8.9083583"><ele>199.0</ele><time>2026-04-23T12:42:46.509Z</time></trkpt><trkpt lat="39.8188633" lon="8.9084533"><ele>199.39999999999998</ele><time>2026-04-23T12:42:48.509Z</time></trkpt><trkpt lat="39.8189383" lon="8.908525"><ele>199.8</ele><time>2026-04-23T12:42:50.509Z</time></trkpt><trkpt lat="39.819035" lon="8.9086183"><ele>200.2</ele><time>2026-04-23T12:42:52.51Z</time></trkpt><trkpt lat="39.819155" lon="8.90869"><ele>200.60000000000002</ele><time>2026-04-23T12:42:54.509Z</time></trkpt><trkpt lat="39.8192233" lon="8.9087317"><ele>201.0</ele><time>2026-04-23T12:42:55.509Z</time></trkpt><trkpt lat="39.819295" lon="8.908785"><ele>201.0</ele><time>2026-04-23T12:42:56.51Z</time></trkpt><trkpt lat="39.8193683" lon="8.9088567"><ele>201.0</ele><time>2026-04-23T12:42:57.509Z</time></trkpt><trkpt lat="39.8194433" lon="8.9089367"><ele>201.0</ele><time>2026-04-23T12:42:58.51Z</time></trkpt><trkpt lat="39.8195183" lon="8.90903"><ele>201.0</ele><time>2026-04-23T12:42:59.509Z</time></trkpt><trkpt lat="39.8195917" lon="8.9091383"><ele>201.0</ele><time>2026-04-23T12:43:00.509Z</time></trkpt><trkpt lat="39.8196667" lon="8.90925"><ele>201.25</ele><time>2026-04-23T12:43:01.51Z</time></trkpt><trkpt lat="39.8197467" lon="8.9093683"><ele>201.5</ele><time>2026-04-23T12:43:02.51Z</time></trkpt><trkpt lat="39.8198217" lon="8.9094867"><ele>201.75</ele><time>2026-04-23T12:43:03.509Z</time></trkpt><trkpt lat="39.8199" lon="8.9096067"><ele>202.0</ele><time>2026-04-23T12:43:04.51Z</time></trkpt><trkpt lat="39.8199683" lon="8.9097217"><ele>202.0</ele><time>2026-04-23T12:43:05.509Z</time></trkpt><trkpt lat="39.8200417" lon="8.9098317"><ele>202.0</ele><time>2026-04-23T12:43:06.509Z</time></trkpt><trkpt lat="39.82012" lon="8.9099367"><ele>202.0</ele><time>2026-04-23T12:43:07.509Z</time></trkpt><trkpt lat="39.8201917" lon="8.9100483"><ele>202.0</ele><time>2026-04-23T12:43:08.51Z</time></trkpt><trkpt lat="39.82026" lon="8.9101567"><ele>202.0</ele><time>2026-04-23T12:43:09.51Z</time></trkpt><trkpt lat="39.820315" lon="8.91028"><ele>203.5</ele><time>2026-04-23T12:43:10.509Z</time></trkpt><trkpt lat="39.8203633" lon="8.91042"><ele>205.0</ele><time>2026-04-23T12:43:11.51Z</time></trkpt><trkpt lat="39.8204183" lon="8.9105717"><ele>206.5</ele><time>2026-04-23T12:43:12.51Z</time></trkpt><trkpt lat="39.82047" lon="8.9107333"><ele>208.0</ele><time>2026-04-23T12:43:13.51Z</time></trkpt><trkpt lat="39.8205217" lon="8.9109"><ele>208.0</ele><time>2026-04-23T12:43:14.509Z</time></trkpt><trkpt lat="39.82058" lon="8.9110683"><ele>208.0</ele><time>2026-04-23T12:43:15.51Z</time></trkpt><trkpt lat="39.8206283" lon="8.9112383"><ele>208.0</ele><time>2026-04-23T12:43:16.509Z</time></trkpt><trkpt lat="39.8206683" lon="8.9114067"><ele>208.0</ele><time>2026-04-23T12:43:17.51Z</time></trkpt><trkpt lat="39.8206983" lon="8.911575"><ele>208.0</ele><time>2026-04-23T12:43:18.51Z</time></trkpt><trkpt lat="39.82072" lon="8.911745"><ele>208.0</ele><time>2026-04-23T12:43:19.509Z</time></trkpt><trkpt lat="39.82075" lon="8.9119083"><ele>208.0</ele><time>2026-04-23T12:43:20.51Z</time></trkpt><trkpt lat="39.82078" lon="8.9120717"><ele>208.0</ele><time>2026-04-23T12:43:21.51Z</time></trkpt><trkpt lat="39.8208133" lon="8.9122367"><ele>208.0</ele><time>2026-04-23T12:43:22.51Z</time></trkpt><trkpt lat="39.82085" lon="8.9123983"><ele>208.0</ele><time>2026-04-23T12:43:23.509Z</time></trkpt><trkpt lat="39.8208867" lon="8.912555"><ele>208.0</ele><time>2026-04-23T12:43:24.51Z</time></trkpt><trkpt lat="39.8209217" lon="8.91271"><ele>208.0</ele><time>2026-04-23T12:43:25.509Z</time></trkpt><trkpt lat="39.8209583" lon="8.9128633"><ele>208.5</ele><time>2026-04-23T12:43:26.509Z</time></trkpt><trkpt lat="39.820995" lon="8.9130217"><ele>209.0</ele><time>2026-04-23T12:43:27.509Z</time></trkpt><trkpt lat="39.8210283" lon="8.9131783"><ele>209.5</ele><time>2026-04-23T12:43:28.51Z</time></trkpt><trkpt lat="39.8210583" lon="8.91334"><ele>210.0</ele><time>2026-04-23T12:43:29.51Z</time></trkpt><trkpt lat="39.8210833" lon="8.9135"><ele>210.75</ele><time>2026-04-23T12:43:30.509Z</time></trkpt><trkpt lat="39.8210983" lon="8.913655"><ele>211.5</ele><time>2026-04-23T12:43:31.51Z</time></trkpt><trkpt lat="39.821105" lon="8.9138117"><ele>212.25</ele><time>2026-04-23T12:43:32.509Z</time></trkpt><trkpt lat="39.8211133" lon="8.9139717"><ele>213.0</ele><time>2026-04-23T12:43:33.509Z</time></trkpt><trkpt lat="39.82111" lon="8.9141383"><ele>213.75</ele><time>2026-04-23T12:43:34.51Z</time></trkpt><trkpt lat="39.8210933" lon="8.9143133"><ele>214.5</ele><time>2026-04-23T12:43:35.509Z</time></trkpt><trkpt lat="39.82108" lon="8.9144817"><ele>215.25</ele><time>2026-04-23T12:43:36.509Z</time></trkpt><trkpt lat="39.8210667" lon="8.9146217"><ele>216.0</ele><time>2026-04-23T12:43:37.509Z</time></trkpt><trkpt lat="39.82104" lon="8.9147417"><ele>216.0</ele><time>2026-04-23T12:43:38.509Z</time></trkpt><trkpt lat="39.82099" lon="8.9148533"><ele>216.00000000000003</ele><time>2026-04-23T12:43:39.51Z</time></trkpt><trkpt lat="39.8209217" lon="8.9149567"><ele>216.00000000000003</ele><time>2026-04-23T12:43:40.509Z</time></trkpt><trkpt lat="39.8208683" lon="8.9150467"><ele>216.0</ele><time>2026-04-23T12:43:41.509Z</time></trkpt><trkpt lat="39.8208433" lon="8.9151483"><ele>216.0</ele><time>2026-04-23T12:43:42.509Z</time></trkpt><trkpt lat="39.8208417" lon="8.9152483"><ele>215.83333333333334</ele><time>2026-04-23T12:43:43.51Z</time></trkpt><trkpt lat="39.82086" lon="8.9153517"><ele>215.66666666666669</ele><time>2026-04-23T12:43:44.509Z</time></trkpt><trkpt lat="39.8208783" lon="8.915445"><ele>215.5</ele><time>2026-04-23T12:43:45.509Z</time></trkpt><trkpt lat="39.820885" lon="8.91555"><ele>215.33333333333334</ele><time>2026-04-23T12:43:46.509Z</time></trkpt><trkpt lat="39.8208917" lon="8.915665"><ele>215.16666666666669</ele><time>2026-04-23T12:43:47.509Z</time></trkpt><trkpt lat="39.8208933" lon="8.915795"><ele>215.0</ele><time>2026-04-23T12:43:48.509Z</time></trkpt><trkpt lat="39.820895" lon="8.9159233"><ele>214.6</ele><time>2026-04-23T12:43:49.509Z</time></trkpt><trkpt lat="39.8208933" lon="8.91605"><ele>214.2</ele><time>2026-04-23T12:43:50.51Z</time></trkpt><trkpt lat="39.82089" lon="8.9161783"><ele>213.8</ele><time>2026-04-23T12:43:51.51Z</time></trkpt><trkpt lat="39.82089" lon="8.916295"><ele>213.4</ele><time>2026-04-23T12:43:52.51Z</time></trkpt><trkpt lat="39.8208817" lon="8.9164133"><ele>213.0</ele><time>2026-04-23T12:43:53.51Z</time></trkpt><trkpt lat="39.8208667" lon="8.9165267"><ele>213.0</ele><time>2026-04-23T12:43:54.509Z</time></trkpt><trkpt lat="39.8208533" lon="8.9166417"><ele>213.0</ele><time>2026-04-23T12:43:55.51Z</time></trkpt><trkpt lat="39.820865" lon="8.91677"><ele>213.0</ele><time>2026-04-23T12:43:56.509Z</time></trkpt><trkpt lat="39.8209" lon="8.9168783"><ele>213.0</ele><time>2026-04-23T12:43:57.509Z</time></trkpt><trkpt lat="39.8209467" lon="8.9169967"><ele>213.0</ele><time>2026-04-23T12:43:58.509Z</time></trkpt><trkpt lat="39.8210033" lon="8.917105"><ele>213.0</ele><time>2026-04-23T12:43:59.51Z</time></trkpt><trkpt lat="39.8210633" lon="8.9172167"><ele>213.0</ele><time>2026-04-23T12:44:00.51Z</time></trkpt><trkpt lat="39.8211233" lon="8.9173217"><ele>213.0</ele><time>2026-04-23T12:44:01.51Z</time></trkpt><trkpt lat="39.82118" lon="8.9174167"><ele>213.0</ele><time>2026-04-23T12:44:02.509Z</time></trkpt><trkpt lat="39.8212233" lon="8.9175117"><ele>213.0</ele><time>2026-04-23T12:44:03.51Z</time></trkpt><trkpt lat="39.821265" lon="8.9175933"><ele>213.0</ele><time>2026-04-23T12:44:04.51Z</time></trkpt><trkpt lat="39.8213017" lon="8.91766"><ele>213.0</ele><time>2026-04-23T12:44:05.51Z</time></trkpt><trkpt lat="39.82133" lon="8.9177517"><ele>213.0</ele><time>2026-04-23T12:44:07.509Z</time></trkpt><trkpt lat="39.8213383" lon="8.9178617"><ele>213.0</ele><time>2026-04-23T12:44:09.51Z</time></trkpt><trkpt lat="39.8213617" lon="8.91799"><ele>213.0</ele><time>2026-04-23T12:44:11.509Z</time></trkpt><trkpt lat="39.821375" lon="8.9180783"><ele>213.0</ele><time>2026-04-23T12:44:12.509Z</time></trkpt><trkpt lat="39.8213867" lon="8.9181767"><ele>213.0</ele><time>2026-04-23T12:44:13.509Z</time></trkpt><trkpt lat="39.8213933" lon="8.9182767"><ele>213.0</ele><time>2026-04-23T12:44:14.51Z</time></trkpt><trkpt lat="39.8214033" lon="8.9183833"><ele>213.0</ele><time>2026-04-23T12:44:15.509Z</time></trkpt><trkpt lat="39.821415" lon="8.9184883"><ele>213.0</ele><time>2026-04-23T12:44:16.509Z</time></trkpt><trkpt lat="39.8214333" lon="8.9185833"><ele>213.0</ele><time>2026-04-23T12:44:17.51Z</time></trkpt><trkpt lat="39.8214483" lon="8.918685"><ele>213.0</ele><time>2026-04-23T12:44:18.51Z</time></trkpt><trkpt lat="39.8214717" lon="8.9187833"><ele>213.33333333333334</ele><time>2026-04-23T12:44:19.509Z</time></trkpt><trkpt lat="39.8215" lon="8.918865"><ele>213.66666666666669</ele><time>2026-04-23T12:44:20.509Z</time></trkpt><trkpt lat="39.8215417" lon="8.9189433"><ele>214.0</ele><time>2026-04-23T12:44:21.51Z</time></trkpt><trkpt lat="39.8215867" lon="8.91902"><ele>214.33333333333334</ele><time>2026-04-23T12:44:22.51Z</time></trkpt><trkpt lat="39.82165" lon="8.9191033"><ele>214.66666666666669</ele><time>2026-04-23T12:44:23.509Z</time></trkpt><trkpt lat="39.82172" lon="8.919185"><ele>215.0</ele><time>2026-04-23T12:44:24.509Z</time></trkpt><trkpt lat="39.8217883" lon="8.9192633"><ele>215.66666666666669</ele><time>2026-04-23T12:44:25.51Z</time></trkpt><trkpt lat="39.82187" lon="8.91933"><ele>216.33333333333334</ele><time>2026-04-23T12:44:26.51Z</time></trkpt><trkpt lat="39.82195" lon="8.91939"><ele>217.0</ele><time>2026-04-23T12:44:27.509Z</time></trkpt><trkpt lat="39.8220217" lon="8.91944"><ele>217.66666666666669</ele><time>2026-04-23T12:44:28.51Z</time></trkpt><trkpt lat="39.822085" lon="8.919495"><ele>218.33333333333334</ele><time>2026-04-23T12:44:29.51Z</time></trkpt><trkpt lat="39.8221383" lon="8.9195683"><ele>219.0</ele><time>2026-04-23T12:44:30.51Z</time></trkpt><trkpt lat="39.8221933" lon="8.919645"><ele>219.0</ele><time>2026-04-23T12:44:31.51Z</time></trkpt><trkpt lat="39.82224" lon="8.9197233"><ele>219.0</ele><time>2026-04-23T12:44:32.51Z</time></trkpt><trkpt lat="39.8222767" lon="8.919815"><ele>219.0</ele><time>2026-04-23T12:44:33.509Z</time></trkpt><trkpt lat="39.82232" lon="8.919915"><ele>219.0</ele><time>2026-04-23T12:44:34.509Z</time></trkpt><trkpt lat="39.8223617" lon="8.920015"><ele>219.0</ele><time>2026-04-23T12:44:35.509Z</time></trkpt><trkpt lat="39.8223983" lon="8.9201067"><ele>219.0</ele><time>2026-04-23T12:44:36.509Z</time></trkpt><trkpt lat="39.8224367" lon="8.9202067"><ele>219.0</ele><time>2026-04-23T12:44:37.509Z</time></trkpt><trkpt lat="39.8224667" lon="8.9203067"><ele>219.0</ele><time>2026-04-23T12:44:38.509Z</time></trkpt><trkpt lat="39.82249" lon="8.9203917"><ele>219.0</ele><time>2026-04-23T12:44:39.51Z</time></trkpt><trkpt lat="39.8225117" lon="8.9205067"><ele>219.0</ele><time>2026-04-23T12:44:41.509Z</time></trkpt><trkpt lat="39.8225183" lon="8.9206133"><ele>219.0</ele><time>2026-04-23T12:44:44.51Z</time></trkpt><trkpt lat="39.8225267" lon="8.920695"><ele>219.0</ele><time>2026-04-23T12:44:46.51Z</time></trkpt><trkpt lat="39.8225233" lon="8.9207883"><ele>219.0</ele><time>2026-04-23T12:44:48.509Z</time></trkpt><trkpt lat="39.8224983" lon="8.9208783"><ele>218.99999999999997</ele><time>2026-04-23T12:44:50.509Z</time></trkpt><trkpt lat="39.8224883" lon="8.9209767"><ele>218.99999999999997</ele><time>2026-04-23T12:44:52.51Z</time></trkpt><trkpt lat="39.8224933" lon="8.9211083"><ele>219.0</ele><time>2026-04-23T12:44:54.509Z</time></trkpt><trkpt lat="39.8225183" lon="8.9212617"><ele>219.0</ele><time>2026-04-23T12:44:56.509Z</time></trkpt><trkpt lat="39.8225517" lon="8.9214233"><ele>218.83333333333334</ele><time>2026-04-23T12:44:58.509Z</time></trkpt><trkpt lat="39.8225667" lon="8.921505"><ele>218.66666666666669</ele><time>2026-04-23T12:44:59.51Z</time></trkpt><trkpt lat="39.8225883" lon="8.9216617"><ele>218.5</ele><time>2026-04-23T12:45:01.509Z</time></trkpt><trkpt lat="39.82261" lon="8.9218083"><ele>218.33333333333334</ele><time>2026-04-23T12:45:03.509Z</time></trkpt><trkpt lat="39.8226383" lon="8.921895"><ele>218.16666666666669</ele><time>2026-04-23T12:45:05.509Z</time></trkpt><trkpt lat="39.8226683" lon="8.9219733"><ele>218.0</ele><time>2026-04-23T12:45:07.51Z</time></trkpt><trkpt lat="39.8227067" lon="8.9220783"><ele>218.00000000000003</ele><time>2026-04-23T12:45:10.51Z</time></trkpt><trkpt lat="39.8227483" lon="8.9222083"><ele>218.0</ele><time>2026-04-23T12:45:54.509Z</time></trkpt><trkpt lat="39.8227883" lon="8.922285"><ele>218.0</ele><time>2026-04-23T12:45:58.509Z</time></trkpt><trkpt lat="39.822835" lon="8.9223917"><ele>218.0</ele><time>2026-04-23T12:46:01.51Z</time></trkpt><trkpt lat="39.8228733" lon="8.92249"><ele>218.00000000000003</ele><time>2026-04-23T12:46:03.509Z</time></trkpt><trkpt lat="39.8228867" lon="8.922575"><ele>218.0</ele><time>2026-04-23T12:46:05.51Z</time></trkpt><trkpt lat="39.8228867" lon="8.9226717"><ele>218.00000000000003</ele><time>2026-04-23T12:46:07.51Z</time></trkpt><trkpt lat="39.82289" lon="8.9227733"><ele>218.0</ele><time>2026-04-23T12:46:09.51Z</time></trkpt><trkpt lat="39.822895" lon="8.922875"><ele>218.0</ele><time>2026-04-23T12:46:11.509Z</time></trkpt><trkpt lat="39.8228917" lon="8.9229717"><ele>218.0</ele><time>2026-04-23T12:46:13.509Z</time></trkpt><trkpt lat="39.8228983" lon="8.9230583"><ele>218.00000000000003</ele><time>2026-04-23T12:46:15.509Z</time></trkpt><trkpt lat="39.8229083" lon="8.9231767"><ele>218.0</ele><time>2026-04-23T12:46:17.51Z</time></trkpt><trkpt lat="39.8229317" lon="8.9233217"><ele>218.33333333333334</ele><time>2026-04-23T12:46:19.51Z</time></trkpt><trkpt lat="39.8229583" lon="8.9234533"><ele>218.66666666666669</ele><time>2026-04-23T12:46:21.509Z</time></trkpt><trkpt lat="39.8229917" lon="8.9235783"><ele>219.0</ele><time>2026-04-23T12:46:23.509Z</time></trkpt><trkpt lat="39.8230483" lon="8.9236983"><ele>219.33333333333331</ele><time>2026-04-23T12:46:25.509Z</time></trkpt><trkpt lat="39.823085" lon="8.9237667"><ele>219.66666666666666</ele><time>2026-04-23T12:46:26.509Z</time></trkpt><trkpt lat="39.823125" lon="8.9238383"><ele>220.0</ele><time>2026-04-23T12:46:27.509Z</time></trkpt><trkpt lat="39.8231617" lon="8.9239083"><ele>220.0</ele><time>2026-04-23T12:46:28.509Z</time></trkpt><trkpt lat="39.8232133" lon="8.924045"><ele>220.0</ele><time>2026-04-23T12:46:30.509Z</time></trkpt><trkpt lat="39.8232517" lon="8.9241567"><ele>220.0</ele><time>2026-04-23T12:46:32.509Z</time></trkpt><trkpt lat="39.82329" lon="8.9242983"><ele>220.0</ele><time>2026-04-23T12:46:34.51Z</time></trkpt><trkpt lat="39.8233117" lon="8.92439"><ele>220.0</ele><time>2026-04-23T12:46:35.509Z</time></trkpt><trkpt lat="39.8233367" lon="8.924495"><ele>220.2</ele><time>2026-04-23T12:46:36.509Z</time></trkpt><trkpt lat="39.8233633" lon="8.9246133"><ele>220.4</ele><time>2026-04-23T12:46:37.51Z</time></trkpt><trkpt lat="39.82339" lon="8.9247367"><ele>220.60000000000002</ele><time>2026-04-23T12:46:38.51Z</time></trkpt><trkpt lat="39.8234167" lon="8.9248567"><ele>220.8</ele><time>2026-04-23T12:46:39.509Z</time></trkpt><trkpt lat="39.82344" lon="8.9249717"><ele>221.0</ele><time>2026-04-23T12:46:40.51Z</time></trkpt><trkpt lat="39.82346" lon="8.92508"><ele>221.33333333333334</ele><time>2026-04-23T12:46:41.509Z</time></trkpt><trkpt lat="39.8234767" lon="8.9251817"><ele>221.66666666666669</ele><time>2026-04-23T12:46:42.51Z</time></trkpt><trkpt lat="39.8234867" lon="8.92529"><ele>222.0</ele><time>2026-04-23T12:46:43.509Z</time></trkpt><trkpt lat="39.8234967" lon="8.92541"><ele>222.33333333333331</ele><time>2026-04-23T12:46:44.51Z</time></trkpt><trkpt lat="39.8235" lon="8.92553"><ele>222.66666666666666</ele><time>2026-04-23T12:46:45.509Z</time></trkpt><trkpt lat="39.8235" lon="8.92566"><ele>223.0</ele><time>2026-04-23T12:46:46.51Z</time></trkpt><trkpt lat="39.823505" lon="8.9257867"><ele>223.8</ele><time>2026-04-23T12:46:47.509Z</time></trkpt><trkpt lat="39.8235167" lon="8.9259067"><ele>224.60000000000002</ele><time>2026-04-23T12:46:48.51Z</time></trkpt><trkpt lat="39.8235383" lon="8.9260267"><ele>225.39999999999998</ele><time>2026-04-23T12:46:49.509Z</time></trkpt><trkpt lat="39.8235633" lon="8.9261417"><ele>226.2</ele><time>2026-04-23T12:46:50.509Z</time></trkpt><trkpt lat="39.823585" lon="8.9262517"><ele>227.0</ele><time>2026-04-23T12:46:51.51Z</time></trkpt><trkpt lat="39.8236117" lon="8.926365"><ele>227.00000000000003</ele><time>2026-04-23T12:46:52.51Z</time></trkpt><trkpt lat="39.823635" lon="8.92647"><ele>227.0</ele><time>2026-04-23T12:46:53.509Z</time></trkpt><trkpt lat="39.8236667" lon="8.9265633"><ele>227.0</ele><time>2026-04-23T12:46:54.509Z</time></trkpt><trkpt lat="39.8236967" lon="8.9266433"><ele>227.0</ele><time>2026-04-23T12:46:55.51Z</time></trkpt><trkpt lat="39.823755" lon="8.9267617"><ele>227.00000000000003</ele><time>2026-04-23T12:46:57.51Z</time></trkpt><trkpt lat="39.82381" lon="8.92682"><ele>227.0</ele><time>2026-04-23T12:46:59.509Z</time></trkpt><trkpt lat="39.823825" lon="8.9269017"><ele>226.66666666666669</ele><time>2026-04-23T12:47:02.509Z</time></trkpt><trkpt lat="39.8238317" lon="8.926985"><ele>226.33333333333334</ele><time>2026-04-23T12:47:06.51Z</time></trkpt><trkpt lat="39.82387" lon="8.9270717"><ele>226.0</ele><time>2026-04-23T12:47:09.51Z</time></trkpt><trkpt lat="39.8238967" lon="8.927155"><ele>225.66666666666669</ele><time>2026-04-23T12:47:11.51Z</time></trkpt><trkpt lat="39.823935" lon="8.9272517"><ele>225.33333333333334</ele><time>2026-04-23T12:47:13.51Z</time></trkpt><trkpt lat="39.8239767" lon="8.9273417"><ele>225.0</ele><time>2026-04-23T12:47:15.51Z</time></trkpt><trkpt lat="39.82401" lon="8.9274433"><ele>224.8</ele><time>2026-04-23T12:47:17.51Z</time></trkpt><trkpt lat="39.8240367" lon="8.9275617"><ele>224.6</ele><time>2026-04-23T12:47:19.51Z</time></trkpt><trkpt lat="39.8240683" lon="8.9276683"><ele>224.39999999999998</ele><time>2026-04-23T12:47:21.51Z</time></trkpt><trkpt lat="39.8240883" lon="8.927775"><ele>224.2</ele><time>2026-04-23T12:47:23.51Z</time></trkpt><trkpt lat="39.8241083" lon="8.9278833"><ele>224.0</ele><time>2026-04-23T12:47:25.509Z</time></trkpt><trkpt lat="39.8240967" lon="8.9280567"><ele>224.00000000000003</ele><time>2026-04-23T12:47:27.509Z</time></trkpt><trkpt lat="39.8240917" lon="8.92817"><ele>224.0</ele><time>2026-04-23T12:47:28.51Z</time></trkpt><trkpt lat="39.824095" lon="8.9282833"><ele>224.0</ele><time>2026-04-23T12:47:29.509Z</time></trkpt><trkpt lat="39.8241067" lon="8.9284033"><ele>224.0</ele><time>2026-04-23T12:47:30.51Z</time></trkpt><trkpt lat="39.82412" lon="8.9285"><ele>224.00000000000003</ele><time>2026-04-23T12:47:31.51Z</time></trkpt><trkpt lat="39.82415" lon="8.9285917"><ele>224.0</ele><time>2026-04-23T12:47:32.509Z</time></trkpt><trkpt lat="39.8241867" lon="8.928685"><ele>223.79999999999998</ele><time>2026-04-23T12:47:33.51Z</time></trkpt><trkpt lat="39.8242317" lon="8.92878"><ele>223.59999999999997</ele><time>2026-04-23T12:47:34.51Z</time></trkpt><trkpt lat="39.82428" lon="8.9288783"><ele>223.4</ele><time>2026-04-23T12:47:35.509Z</time></trkpt><trkpt lat="39.82433" lon="8.92897"><ele>223.2</ele><time>2026-04-23T12:47:36.51Z</time></trkpt><trkpt lat="39.8243783" lon="8.9290467"><ele>223.0</ele><time>2026-04-23T12:47:37.51Z</time></trkpt><trkpt lat="39.8244083" lon="8.92921"><ele>223.2</ele><time>2026-04-23T12:47:39.51Z</time></trkpt><trkpt lat="39.8244017" lon="8.92932"><ele>223.4</ele><time>2026-04-23T12:47:40.509Z</time></trkpt><trkpt lat="39.82438" lon="8.9294417"><ele>223.59999999999997</ele><time>2026-04-23T12:47:41.51Z</time></trkpt><trkpt lat="39.8243567" lon="8.929565"><ele>223.79999999999998</ele><time>2026-04-23T12:47:42.51Z</time></trkpt><trkpt lat="39.824335" lon="8.9296767"><ele>224.0</ele><time>2026-04-23T12:47:43.51Z</time></trkpt><trkpt lat="39.8243067" lon="8.9297817"><ele>224.0</ele><time>2026-04-23T12:47:44.509Z</time></trkpt><trkpt lat="39.824275" lon="8.92989"><ele>223.99999999999997</ele><time>2026-04-23T12:47:45.51Z</time></trkpt><trkpt lat="39.8242317" lon="8.9300017"><ele>223.99999999999997</ele><time>2026-04-23T12:47:46.51Z</time></trkpt><trkpt lat="39.824175" lon="8.9301083"><ele>224.0</ele><time>2026-04-23T12:47:47.509Z</time></trkpt><trkpt lat="39.8241167" lon="8.9302117"><ele>224.0</ele><time>2026-04-23T12:47:48.51Z</time></trkpt><trkpt lat="39.82406" lon="8.9303317"><ele>224.2</ele><time>2026-04-23T12:47:49.509Z</time></trkpt><trkpt lat="39.8240083" lon="8.9304533"><ele>224.39999999999998</ele><time>2026-04-23T12:47:50.51Z</time></trkpt><trkpt lat="39.8239617" lon="8.9305683"><ele>224.6</ele><time>2026-04-23T12:47:51.509Z</time></trkpt><trkpt lat="39.8239183" lon="8.9306683"><ele>224.8</ele><time>2026-04-23T12:47:52.51Z</time></trkpt><trkpt lat="39.8238733" lon="8.93076"><ele>225.0</ele><time>2026-04-23T12:47:53.509Z</time></trkpt><trkpt lat="39.8238167" lon="8.9308367"><ele>225.2</ele><time>2026-04-23T12:47:54.509Z</time></trkpt><trkpt lat="39.82375" lon="8.93091"><ele>225.4</ele><time>2026-04-23T12:47:55.51Z</time></trkpt><trkpt lat="39.82368" lon="8.9309833"><ele>225.60000000000002</ele><time>2026-04-23T12:47:56.51Z</time></trkpt><trkpt lat="39.82361" lon="8.931065"><ele>225.8</ele><time>2026-04-23T12:47:57.51Z</time></trkpt><trkpt lat="39.8235467" lon="8.9311517"><ele>226.0</ele><time>2026-04-23T12:47:58.51Z</time></trkpt><trkpt lat="39.8234983" lon="8.9312467"><ele>225.8</ele><time>2026-04-23T12:47:59.51Z</time></trkpt><trkpt lat="39.8234667" lon="8.9313533"><ele>225.60000000000002</ele><time>2026-04-23T12:48:00.51Z</time></trkpt><trkpt lat="39.82344" lon="8.9314683"><ele>225.4</ele><time>2026-04-23T12:48:01.51Z</time></trkpt><trkpt lat="39.8234133" lon="8.931595"><ele>225.2</ele><time>2026-04-23T12:48:02.509Z</time></trkpt><trkpt lat="39.8233867" lon="8.9317233"><ele>225.0</ele><time>2026-04-23T12:48:03.509Z</time></trkpt><trkpt lat="39.823365" lon="8.9318333"><ele>225.0</ele><time>2026-04-23T12:48:04.509Z</time></trkpt><trkpt lat="39.8233483" lon="8.9319417"><ele>225.0</ele><time>2026-04-23T12:48:05.509Z</time></trkpt><trkpt lat="39.8233283" lon="8.932045"><ele>225.0</ele><time>2026-04-23T12:48:06.509Z</time></trkpt><trkpt lat="39.8233033" lon="8.9321483"><ele>225.0</ele><time>2026-04-23T12:48:07.51Z</time></trkpt><trkpt lat="39.8232817" lon="8.9322317"><ele>225.0</ele><time>2026-04-23T12:48:08.51Z</time></trkpt><trkpt lat="39.8232067" lon="8.9323467"><ele>225.0</ele><time>2026-04-23T12:48:10.509Z</time></trkpt><trkpt lat="39.8230783" lon="8.932375"><ele>225.0</ele><time>2026-04-23T12:48:12.509Z</time></trkpt><trkpt lat="39.8229983" lon="8.9323617"><ele>225.0</ele><time>2026-04-23T12:48:13.509Z</time></trkpt><trkpt lat="39.82291" lon="8.93233"><ele>225.0</ele><time>2026-04-23T12:48:14.509Z</time></trkpt><trkpt lat="39.8228083" lon="8.9322917"><ele>225.0</ele><time>2026-04-23T12:48:15.509Z</time></trkpt><trkpt lat="39.8227" lon="8.9322583"><ele>225.0</ele><time>2026-04-23T12:48:16.51Z</time></trkpt><trkpt lat="39.82259" lon="8.9322233"><ele>224.33333333333334</ele><time>2026-04-23T12:48:17.509Z</time></trkpt><trkpt lat="39.8224933" lon="8.9321967"><ele>223.66666666666669</ele><time>2026-04-23T12:48:18.509Z</time></trkpt><trkpt lat="39.8224067" lon="8.932155"><ele>223.0</ele><time>2026-04-23T12:48:19.51Z</time></trkpt><trkpt lat="39.82233" lon="8.9321233"><ele>222.33333333333334</ele><time>2026-04-23T12:48:20.509Z</time></trkpt><trkpt lat="39.82226" lon="8.9321017"><ele>221.66666666666669</ele><time>2026-04-23T12:48:21.509Z</time></trkpt><trkpt lat="39.82218" lon="8.9320833"><ele>221.0</ele><time>2026-04-23T12:48:23.509Z</time></trkpt><trkpt lat="39.8221033" lon="8.9321367"><ele>221.0</ele><time>2026-04-23T12:48:26.51Z</time></trkpt><trkpt lat="39.822075" lon="8.932285"><ele>221.00000000000003</ele><time>2026-04-23T12:48:28.509Z</time></trkpt><trkpt lat="39.822065" lon="8.9323883"><ele>221.00000000000003</ele><time>2026-04-23T12:48:29.509Z</time></trkpt><trkpt lat="39.82205" lon="8.9324983"><ele>221.0</ele><time>2026-04-23T12:48:30.508Z</time></trkpt><trkpt lat="39.8220317" lon="8.93262"><ele>221.0</ele><time>2026-04-23T12:48:31.508Z</time></trkpt><trkpt lat="39.82201" lon="8.9327467"><ele>221.5</ele><time>2026-04-23T12:48:32.509Z</time></trkpt><trkpt lat="39.821995" lon="8.9328883"><ele>222.0</ele><time>2026-04-23T12:48:33.509Z</time></trkpt><trkpt lat="39.8219717" lon="8.9330333"><ele>222.5</ele><time>2026-04-23T12:48:34.508Z</time></trkpt><trkpt lat="39.8219517" lon="8.9331833"><ele>223.0</ele><time>2026-04-23T12:48:35.509Z</time></trkpt><trkpt lat="39.8219333" lon="8.933335"><ele>223.75</ele><time>2026-04-23T12:48:36.508Z</time></trkpt><trkpt lat="39.8219083" lon="8.9335017"><ele>224.5</ele><time>2026-04-23T12:48:37.509Z</time></trkpt><trkpt lat="39.8218867" lon="8.933675"><ele>225.25</ele><time>2026-04-23T12:48:38.508Z</time></trkpt><trkpt lat="39.8218617" lon="8.9338533"><ele>226.0</ele><time>2026-04-23T12:48:39.508Z</time></trkpt><trkpt lat="39.821835" lon="8.934025"><ele>224.75</ele><time>2026-04-23T12:48:40.509Z</time></trkpt><trkpt lat="39.8218083" lon="8.93421"><ele>223.5</ele><time>2026-04-23T12:48:41.509Z</time></trkpt><trkpt lat="39.8217817" lon="8.9343967"><ele>222.25</ele><time>2026-04-23T12:48:42.509Z</time></trkpt><trkpt lat="39.8217483" lon="8.9345833"><ele>221.0</ele><time>2026-04-23T12:48:43.509Z</time></trkpt><trkpt lat="39.8217117" lon="8.9347783"><ele>221.0</ele><time>2026-04-23T12:48:44.509Z</time></trkpt><trkpt lat="39.821675" lon="8.9349717"><ele>221.0</ele><time>2026-04-23T12:48:45.509Z</time></trkpt><trkpt lat="39.8216217" lon="8.93517"><ele>221.0</ele><time>2026-04-23T12:48:46.509Z</time></trkpt><trkpt lat="39.8215567" lon="8.935365"><ele>222.0</ele><time>2026-04-23T12:48:47.508Z</time></trkpt><trkpt lat="39.8214983" lon="8.9355733"><ele>223.0</ele><time>2026-04-23T12:48:48.509Z</time></trkpt><trkpt lat="39.8214433" lon="8.9357833"><ele>224.0</ele><time>2026-04-23T12:48:49.509Z</time></trkpt><trkpt lat="39.8213867" lon="8.9359967"><ele>225.0</ele><time>2026-04-23T12:48:50.509Z</time></trkpt><trkpt lat="39.82132" lon="8.9362283"><ele>226.0</ele><time>2026-04-23T12:48:51.508Z</time></trkpt><trkpt lat="39.82126" lon="8.9364633"><ele>227.0</ele><time>2026-04-23T12:48:52.509Z</time></trkpt><trkpt lat="39.821195" lon="8.9367"><ele>227.0</ele><time>2026-04-23T12:48:53.508Z</time></trkpt><trkpt lat="39.8211267" lon="8.936935"><ele>227.0</ele><time>2026-04-23T12:48:54.509Z</time></trkpt><trkpt lat="39.8210583" lon="8.9371683"><ele>227.0</ele><time>2026-04-23T12:48:55.509Z</time></trkpt><trkpt lat="39.8209883" lon="8.9374083"><ele>226.0</ele><time>2026-04-23T12:48:56.508Z</time></trkpt><trkpt lat="39.8209217" lon="8.9376467"><ele>225.0</ele><time>2026-04-23T12:48:57.508Z</time></trkpt><trkpt lat="39.8208583" lon="8.9378833"><ele>224.0</ele><time>2026-04-23T12:48:58.508Z</time></trkpt><trkpt lat="39.82079" lon="8.9381233"><ele>224.0</ele><time>2026-04-23T12:48:59.508Z</time></trkpt><trkpt lat="39.8207283" lon="8.9383633"><ele>224.0</ele><time>2026-04-23T12:49:00.508Z</time></trkpt><trkpt lat="39.820665" lon="8.9386067"><ele>224.0</ele><time>2026-04-23T12:49:01.508Z</time></trkpt><trkpt lat="39.8206033" lon="8.938855"><ele>224.33333333333334</ele><time>2026-04-23T12:49:02.508Z</time></trkpt><trkpt lat="39.82054" lon="8.939095"><ele>224.66666666666669</ele><time>2026-04-23T12:49:03.509Z</time></trkpt><trkpt lat="39.82048" lon="8.9393367"><ele>225.0</ele><time>2026-04-23T12:49:04.509Z</time></trkpt><trkpt lat="39.82042" lon="8.93958"><ele>225.33333333333331</ele><time>2026-04-23T12:49:05.509Z</time></trkpt><trkpt lat="39.820355" lon="8.9398217"><ele>225.66666666666666</ele><time>2026-04-23T12:49:06.508Z</time></trkpt><trkpt lat="39.820295" lon="8.940065"><ele>226.0</ele><time>2026-04-23T12:49:07.509Z</time></trkpt><trkpt lat="39.820235" lon="8.9403067"><ele>226.0</ele><time>2026-04-23T12:49:08.509Z</time></trkpt><trkpt lat="39.8201733" lon="8.9405483"><ele>226.0</ele><time>2026-04-23T12:49:09.508Z</time></trkpt><trkpt lat="39.82012" lon="8.9407867"><ele>226.0</ele><time>2026-04-23T12:49:10.509Z</time></trkpt><trkpt lat="39.820075" lon="8.9410233"><ele>226.0</ele><time>2026-04-23T12:49:11.508Z</time></trkpt><trkpt lat="39.82004" lon="8.9412683"><ele>226.0</ele><time>2026-04-23T12:49:12.509Z</time></trkpt><trkpt lat="39.8200167" lon="8.9415117"><ele>226.0</ele><time>2026-04-23T12:49:13.509Z</time></trkpt><trkpt lat="39.8200067" lon="8.9417583"><ele>227.33333333333331</ele><time>2026-04-23T12:49:14.509Z</time></trkpt><trkpt lat="39.8200033" lon="8.9420083"><ele>228.66666666666669</ele><time>2026-04-23T12:49:15.509Z</time></trkpt><trkpt lat="39.8200133" lon="8.9422583"><ele>230.0</ele><time>2026-04-23T12:49:16.509Z</time></trkpt><trkpt lat="39.8200267" lon="8.9425083"><ele>231.0</ele><time>2026-04-23T12:49:17.509Z</time></trkpt><trkpt lat="39.820055" lon="8.942755"><ele>232.0</ele><time>2026-04-23T12:49:18.508Z</time></trkpt><trkpt lat="39.820085" lon="8.943005"><ele>233.0</ele><time>2026-04-23T12:49:19.508Z</time></trkpt><trkpt lat="39.8201133" lon="8.9432583"><ele>232.66666666666669</ele><time>2026-04-23T12:49:20.508Z</time></trkpt><trkpt lat="39.8201433" lon="8.943515"><ele>232.33333333333331</ele><time>2026-04-23T12:49:21.509Z</time></trkpt><trkpt lat="39.8201767" lon="8.9437683"><ele>232.0</ele><time>2026-04-23T12:49:22.509Z</time></trkpt><trkpt lat="39.8202133" lon="8.9440117"><ele>235.66666666666666</ele><time>2026-04-23T12:49:23.508Z</time></trkpt><trkpt lat="39.82025" lon="8.9442367"><ele>239.33333333333331</ele><time>2026-04-23T12:49:24.508Z</time></trkpt><trkpt lat="39.820265" lon="8.944455"><ele>243.0</ele><time>2026-04-23T12:49:25.509Z</time></trkpt><trkpt lat="39.8202717" lon="8.944685"><ele>243.0</ele><time>2026-04-23T12:49:26.508Z</time></trkpt><trkpt lat="39.8202633" lon="8.9449133"><ele>243.0</ele><time>2026-04-23T12:49:27.509Z</time></trkpt><trkpt lat="39.820225" lon="8.9451367"><ele>243.0</ele><time>2026-04-23T12:49:28.508Z</time></trkpt><trkpt lat="39.8201517" lon="8.9453533"><ele>242.0</ele><time>2026-04-23T12:49:29.509Z</time></trkpt><trkpt lat="39.8200633" lon="8.9455583"><ele>241.0</ele><time>2026-04-23T12:49:30.508Z</time></trkpt><trkpt lat="39.8199617" lon="8.9457533"><ele>240.0</ele><time>2026-04-23T12:49:31.509Z</time></trkpt><trkpt lat="39.819855" lon="8.9459333"><ele>244.33333333333331</ele><time>2026-04-23T12:49:32.508Z</time></trkpt><trkpt lat="39.8197283" lon="8.946095"><ele>248.66666666666666</ele><time>2026-04-23T12:49:33.509Z</time></trkpt><trkpt lat="39.8195733" lon="8.9462317"><ele>253.0</ele><time>2026-04-23T12:49:34.509Z</time></trkpt><trkpt lat="39.8194083" lon="8.9463383"><ele>248.33333333333331</ele><time>2026-04-23T12:49:35.508Z</time></trkpt><trkpt lat="39.8192233" lon="8.9464267"><ele>243.66666666666669</ele><time>2026-04-23T12:49:36.508Z</time></trkpt><trkpt lat="39.81903" lon="8.9464933"><ele>239.0</ele><time>2026-04-23T12:49:37.509Z</time></trkpt><trkpt lat="39.8188367" lon="8.94655"><ele>239.0</ele><time>2026-04-23T12:49:38.508Z</time></trkpt><trkpt lat="39.8186417" lon="8.9466133"><ele>239.0</ele><time>2026-04-23T12:49:39.509Z</time></trkpt><trkpt lat="39.8184483" lon="8.9466767"><ele>239.0</ele><time>2026-04-23T12:49:40.509Z</time></trkpt><trkpt lat="39.818265" lon="8.9467433"><ele>243.33333333333334</ele><time>2026-04-23T12:49:41.508Z</time></trkpt><trkpt lat="39.818075" lon="8.9468133"><ele>247.66666666666669</ele><time>2026-04-23T12:49:42.508Z</time></trkpt><trkpt lat="39.8178933" lon="8.9468917"><ele>252.0</ele><time>2026-04-23T12:49:43.509Z</time></trkpt><trkpt lat="39.8177083" lon="8.9469967"><ele>248.33333333333331</ele><time>2026-04-23T12:49:44.509Z</time></trkpt><trkpt lat="39.8175317" lon="8.9471217"><ele>244.66666666666666</ele><time>2026-04-23T12:49:45.509Z</time></trkpt><trkpt lat="39.81736" lon="8.9472733"><ele>241.0</ele><time>2026-04-23T12:49:46.508Z</time></trkpt><trkpt lat="39.8172" lon="8.9474467"><ele>243.33333333333331</ele><time>2026-04-23T12:49:47.509Z</time></trkpt><trkpt lat="39.8170467" lon="8.9476317"><ele>245.66666666666669</ele><time>2026-04-23T12:49:48.508Z</time></trkpt><trkpt lat="39.8169067" lon="8.9478317"><ele>248.0</ele><time>2026-04-23T12:49:49.508Z</time></trkpt><trkpt lat="39.816765" lon="8.9480283"><ele>244.66666666666669</ele><time>2026-04-23T12:49:50.509Z</time></trkpt><trkpt lat="39.8166333" lon="8.9482233"><ele>241.33333333333331</ele><time>2026-04-23T12:49:51.508Z</time></trkpt><trkpt lat="39.8164983" lon="8.9484133"><ele>238.0</ele><time>2026-04-23T12:49:52.508Z</time></trkpt><trkpt lat="39.81636" lon="8.9485983"><ele>238.0</ele><time>2026-04-23T12:49:53.508Z</time></trkpt><trkpt lat="39.8162217" lon="8.9487817"><ele>238.0</ele><time>2026-04-23T12:49:54.508Z</time></trkpt><trkpt lat="39.8160783" lon="8.9489733"><ele>238.0</ele><time>2026-04-23T12:49:55.509Z</time></trkpt><trkpt lat="39.81594" lon="8.9491667"><ele>240.66666666666666</ele><time>2026-04-23T12:49:56.508Z</time></trkpt><trkpt lat="39.8158" lon="8.949355"><ele>243.33333333333331</ele><time>2026-04-23T12:49:57.508Z</time></trkpt><trkpt lat="39.8156533" lon="8.9495533"><ele>246.0</ele><time>2026-04-23T12:49:58.508Z</time></trkpt><trkpt lat="39.8155083" lon="8.94975"><ele>246.0</ele><time>2026-04-23T12:49:59.508Z</time></trkpt><trkpt lat="39.8153617" lon="8.9499533"><ele>246.0</ele><time>2026-04-23T12:50:00.509Z</time></trkpt><trkpt lat="39.815215" lon="8.950155"><ele>246.0</ele><time>2026-04-23T12:50:01.508Z</time></trkpt><trkpt lat="39.8150667" lon="8.9503517"><ele>244.0</ele><time>2026-04-23T12:50:02.508Z</time></trkpt><trkpt lat="39.8149167" lon="8.95055"><ele>242.0</ele><time>2026-04-23T12:50:03.508Z</time></trkpt><trkpt lat="39.8147667" lon="8.95075"><ele>240.0</ele><time>2026-04-23T12:50:04.509Z</time></trkpt><trkpt lat="39.8146183" lon="8.95095"><ele>240.0</ele><time>2026-04-23T12:50:05.508Z</time></trkpt><trkpt lat="39.8144717" lon="8.951155"><ele>240.0</ele><time>2026-04-23T12:50:06.509Z</time></trkpt><trkpt lat="39.8143217" lon="8.95136"><ele>240.0</ele><time>2026-04-23T12:50:07.509Z</time></trkpt><trkpt lat="39.8141733" lon="8.9515633"><ele>239.66666666666669</ele><time>2026-04-23T12:50:08.509Z</time></trkpt><trkpt lat="39.8140317" lon="8.9517633"><ele>239.33333333333334</ele><time>2026-04-23T12:50:09.508Z</time></trkpt><trkpt lat="39.8138883" lon="8.9519517"><ele>239.0</ele><time>2026-04-23T12:50:10.508Z</time></trkpt><trkpt lat="39.8137433" lon="8.9521433"><ele>239.0</ele><time>2026-04-23T12:50:11.508Z</time></trkpt><trkpt lat="39.8135967" lon="8.9523333"><ele>239.0</ele><time>2026-04-23T12:50:12.508Z</time></trkpt><trkpt lat="39.8134467" lon="8.9525183"><ele>239.0</ele><time>2026-04-23T12:50:13.509Z</time></trkpt><trkpt lat="39.8132933" lon="8.9526983"><ele>241.0</ele><time>2026-04-23T12:50:14.508Z</time></trkpt><trkpt lat="39.8131283" lon="8.9528717"><ele>243.0</ele><time>2026-04-23T12:50:15.508Z</time></trkpt><trkpt lat="39.8129617" lon="8.9530433"><ele>245.0</ele><time>2026-04-23T12:50:16.508Z</time></trkpt><trkpt lat="39.8127917" lon="8.9532167"><ele>248.0</ele><time>2026-04-23T12:50:17.509Z</time></trkpt><trkpt lat="39.812625" lon="8.95339"><ele>251.0</ele><time>2026-04-23T12:50:18.509Z</time></trkpt><trkpt lat="39.81246" lon="8.9535633"><ele>254.0</ele><time>2026-04-23T12:50:19.508Z</time></trkpt><trkpt lat="39.8122933" lon="8.9537417"><ele>254.0</ele><time>2026-04-23T12:50:20.508Z</time></trkpt><trkpt lat="39.81213" lon="8.9539217"><ele>254.0</ele><time>2026-04-23T12:50:21.509Z</time></trkpt><trkpt lat="39.8119667" lon="8.9540983"><ele>254.0</ele><time>2026-04-23T12:50:22.509Z</time></trkpt><trkpt lat="39.8118117" lon="8.95428"><ele>254.66666666666669</ele><time>2026-04-23T12:50:23.508Z</time></trkpt><trkpt lat="39.8116617" lon="8.9544733"><ele>255.33333333333331</ele><time>2026-04-23T12:50:24.509Z</time></trkpt><trkpt lat="39.8115217" lon="8.9546717"><ele>256.0</ele><time>2026-04-23T12:50:25.509Z</time></trkpt><trkpt lat="39.8113883" lon="8.9548817"><ele>259.3333333333333</ele><time>2026-04-23T12:50:26.509Z</time></trkpt><trkpt lat="39.81126" lon="8.9551"><ele>262.6666666666667</ele><time>2026-04-23T12:50:27.509Z</time></trkpt><trkpt lat="39.8111383" lon="8.9553333"><ele>266.0</ele><time>2026-04-23T12:50:28.509Z</time></trkpt><trkpt lat="39.8110217" lon="8.9555667"><ele>265.0</ele><time>2026-04-23T12:50:29.509Z</time></trkpt><trkpt lat="39.810915" lon="8.95579"><ele>264.0</ele><time>2026-04-23T12:50:30.508Z</time></trkpt><trkpt lat="39.8108117" lon="8.9560167"><ele>263.0</ele><time>2026-04-23T12:50:31.509Z</time></trkpt><trkpt lat="39.810715" lon="8.95624"><ele>263.0</ele><time>2026-04-23T12:50:32.509Z</time></trkpt><trkpt lat="39.81062" lon="8.9564617"><ele>263.0</ele><time>2026-04-23T12:50:33.509Z</time></trkpt><trkpt lat="39.8105367" lon="8.9566817"><ele>263.0</ele><time>2026-04-23T12:50:34.508Z</time></trkpt><trkpt lat="39.8104733" lon="8.95691"><ele>265.0</ele><time>2026-04-23T12:50:35.508Z</time></trkpt><trkpt lat="39.81043" lon="8.957145"><ele>267.0</ele><time>2026-04-23T12:50:36.509Z</time></trkpt><trkpt lat="39.81041" lon="8.9573967"><ele>269.0</ele><time>2026-04-23T12:50:37.508Z</time></trkpt><trkpt lat="39.8104067" lon="8.9576467"><ele>269.0</ele><time>2026-04-23T12:50:38.508Z</time></trkpt><trkpt lat="39.8104267" lon="8.9578933"><ele>269.0</ele><time>2026-04-23T12:50:39.509Z</time></trkpt><trkpt lat="39.8104633" lon="8.958145"><ele>269.0</ele><time>2026-04-23T12:50:40.508Z</time></trkpt><trkpt lat="39.8105167" lon="8.95839"><ele>266.6666666666667</ele><time>2026-04-23T12:50:41.508Z</time></trkpt><trkpt lat="39.8105933" lon="8.95863"><ele>264.3333333333333</ele><time>2026-04-23T12:50:42.509Z</time></trkpt><trkpt lat="39.81069" lon="8.9588717"><ele>262.0</ele><time>2026-04-23T12:50:43.508Z</time></trkpt><trkpt lat="39.8107867" lon="8.9591067"><ele>261.3333333333333</ele><time>2026-04-23T12:50:44.508Z</time></trkpt><trkpt lat="39.8108933" lon="8.959335"><ele>260.6666666666667</ele><time>2026-04-23T12:50:45.509Z</time></trkpt><trkpt lat="39.8110017" lon="8.9595667"><ele>260.0</ele><time>2026-04-23T12:50:46.508Z</time></trkpt><trkpt lat="39.8111067" lon="8.9597983"><ele>262.33333333333337</ele><time>2026-04-23T12:50:47.508Z</time></trkpt><trkpt lat="39.81121" lon="8.96003"><ele>264.6666666666667</ele><time>2026-04-23T12:50:48.508Z</time></trkpt><trkpt lat="39.8113217" lon="8.9602633"><ele>267.0</ele><time>2026-04-23T12:50:49.508Z</time></trkpt><trkpt lat="39.8114233" lon="8.9604917"><ele>268.0</ele><time>2026-04-23T12:50:50.509Z</time></trkpt><trkpt lat="39.811535" lon="8.9607233"><ele>269.0</ele><time>2026-04-23T12:50:51.509Z</time></trkpt><trkpt lat="39.811635" lon="8.9609583"><ele>270.0</ele><time>2026-04-23T12:50:52.509Z</time></trkpt><trkpt lat="39.8117383" lon="8.9611917"><ele>273.3333333333333</ele><time>2026-04-23T12:50:53.508Z</time></trkpt><trkpt lat="39.8118433" lon="8.961425"><ele>276.66666666666663</ele><time>2026-04-23T12:50:54.508Z</time></trkpt><trkpt lat="39.81195" lon="8.9616533"><ele>280.0</ele><time>2026-04-23T12:50:55.509Z</time></trkpt><trkpt lat="39.8120517" lon="8.9618833"><ele>279.66666666666663</ele><time>2026-04-23T12:50:56.508Z</time></trkpt><trkpt lat="39.8121533" lon="8.9621133"><ele>279.3333333333333</ele><time>2026-04-23T12:50:57.508Z</time></trkpt><trkpt lat="39.812255" lon="8.9623517"><ele>279.0</ele><time>2026-04-23T12:50:58.509Z</time></trkpt><trkpt lat="39.812355" lon="8.9625867"><ele>279.0</ele><time>2026-04-23T12:50:59.509Z</time></trkpt><trkpt lat="39.8124667" lon="8.9628183"><ele>279.0</ele><time>2026-04-23T12:51:00.509Z</time></trkpt><trkpt lat="39.8125817" lon="8.9630467"><ele>279.0</ele><time>2026-04-23T12:51:01.508Z</time></trkpt><trkpt lat="39.8127083" lon="8.963265"><ele>279.0</ele><time>2026-04-23T12:51:02.509Z</time></trkpt><trkpt lat="39.8128517" lon="8.9634717"><ele>279.0</ele><time>2026-04-23T12:51:03.509Z</time></trkpt><trkpt lat="39.813" lon="8.9636683"><ele>279.0</ele><time>2026-04-23T12:51:04.508Z</time></trkpt><trkpt lat="39.8131667" lon="8.9638383"><ele>279.0</ele><time>2026-04-23T12:51:05.508Z</time></trkpt><trkpt lat="39.8133383" lon="8.9640117"><ele>279.0</ele><time>2026-04-23T12:51:06.509Z</time></trkpt><trkpt lat="39.8135067" lon="8.9641733"><ele>279.0</ele><time>2026-04-23T12:51:07.509Z</time></trkpt><trkpt lat="39.8136767" lon="8.9643283"><ele>278.6666666666667</ele><time>2026-04-23T12:51:08.508Z</time></trkpt><trkpt lat="39.8138483" lon="8.9644783"><ele>278.33333333333337</ele><time>2026-04-23T12:51:09.508Z</time></trkpt><trkpt lat="39.814025" lon="8.964615"><ele>278.0</ele><time>2026-04-23T12:51:10.508Z</time></trkpt><trkpt lat="39.8142117" lon="8.9647367"><ele>279.0</ele><time>2026-04-23T12:51:11.509Z</time></trkpt><trkpt lat="39.8143983" lon="8.9648533"><ele>280.0</ele><time>2026-04-23T12:51:12.509Z</time></trkpt><trkpt lat="39.81459" lon="8.9649567"><ele>281.0</ele><time>2026-04-23T12:51:13.509Z</time></trkpt><trkpt lat="39.8147883" lon="8.9650567"><ele>281.0</ele><time>2026-04-23T12:51:14.508Z</time></trkpt><trkpt lat="39.8149817" lon="8.9651533"><ele>281.0</ele><time>2026-04-23T12:51:15.508Z</time></trkpt><trkpt lat="39.8151833" lon="8.96525"><ele>281.0</ele><time>2026-04-23T12:51:16.509Z</time></trkpt><trkpt lat="39.8153817" lon="8.9653483"><ele>282.33333333333337</ele><time>2026-04-23T12:51:17.509Z</time></trkpt><trkpt lat="39.8155833" lon="8.96545"><ele>283.6666666666667</ele><time>2026-04-23T12:51:18.509Z</time></trkpt><trkpt lat="39.8157833" lon="8.96555"><ele>285.0</ele><time>2026-04-23T12:51:19.509Z</time></trkpt><trkpt lat="39.81598" lon="8.9656483"><ele>285.3333333333333</ele><time>2026-04-23T12:51:20.509Z</time></trkpt><trkpt lat="39.81618" lon="8.965755"><ele>285.66666666666663</ele><time>2026-04-23T12:51:21.508Z</time></trkpt><trkpt lat="39.81638" lon="8.9658533"><ele>286.0</ele><time>2026-04-23T12:51:22.508Z</time></trkpt><trkpt lat="39.8165833" lon="8.96596"><ele>286.0</ele><time>2026-04-23T12:51:23.508Z</time></trkpt><trkpt lat="39.8167867" lon="8.96606"><ele>286.0</ele><time>2026-04-23T12:51:24.509Z</time></trkpt><trkpt lat="39.8169883" lon="8.9661633"><ele>286.0</ele><time>2026-04-23T12:51:25.508Z</time></trkpt><trkpt lat="39.8171967" lon="8.9662633"><ele>287.66666666666663</ele><time>2026-04-23T12:51:26.508Z</time></trkpt><trkpt lat="39.8174033" lon="8.9663733"><ele>289.3333333333333</ele><time>2026-04-23T12:51:27.509Z</time></trkpt><trkpt lat="39.8176083" lon="8.9664783"><ele>291.0</ele><time>2026-04-23T12:51:28.508Z</time></trkpt><trkpt lat="39.8178017" lon="8.9665817"><ele>291.6666666666667</ele><time>2026-04-23T12:51:29.508Z</time></trkpt><trkpt lat="39.8179783" lon="8.9666667"><ele>292.33333333333337</ele><time>2026-04-23T12:51:30.509Z</time></trkpt><trkpt lat="39.8181417" lon="8.9667533"><ele>293.0</ele><time>2026-04-23T12:51:31.509Z</time></trkpt><trkpt lat="39.8182817" lon="8.9668317"><ele>293.0</ele><time>2026-04-23T12:51:32.508Z</time></trkpt><trkpt lat="39.8184083" lon="8.9668983"><ele>293.0</ele><time>2026-04-23T12:51:33.509Z</time></trkpt><trkpt lat="39.8185283" lon="8.9669583"><ele>293.0</ele><time>2026-04-23T12:51:34.509Z</time></trkpt><trkpt lat="39.81865" lon="8.96702"><ele>293.0</ele><time>2026-04-23T12:51:35.508Z</time></trkpt><trkpt lat="39.8187667" lon="8.9670783"><ele>294.2</ele><time>2026-04-23T12:51:36.508Z</time></trkpt><trkpt lat="39.81887" lon="8.9671417"><ele>295.4</ele><time>2026-04-23T12:51:37.508Z</time></trkpt><trkpt lat="39.81897" lon="8.9671917"><ele>296.59999999999997</ele><time>2026-04-23T12:51:38.508Z</time></trkpt><trkpt lat="39.819065" lon="8.96724"><ele>297.8</ele><time>2026-04-23T12:51:39.508Z</time></trkpt><trkpt lat="39.8191517" lon="8.967305"><ele>299.0</ele><time>2026-04-23T12:51:40.508Z</time></trkpt><trkpt lat="39.81923" lon="8.9673867"><ele>299.0</ele><time>2026-04-23T12:51:41.508Z</time></trkpt><trkpt lat="39.819295" lon="8.967485"><ele>299.0</ele><time>2026-04-23T12:51:42.508Z</time></trkpt><trkpt lat="39.8193633" lon="8.9675867"><ele>299.0</ele><time>2026-04-23T12:51:43.508Z</time></trkpt><trkpt lat="39.8194483" lon="8.9676817"><ele>299.0</ele><time>2026-04-23T12:51:44.509Z</time></trkpt><trkpt lat="39.8195417" lon="8.9677783"><ele>299.0</ele><time>2026-04-23T12:51:45.509Z</time></trkpt><trkpt lat="39.8196383" lon="8.9678683"><ele>299.2</ele><time>2026-04-23T12:51:46.508Z</time></trkpt><trkpt lat="39.8197317" lon="8.9679617"><ele>299.4</ele><time>2026-04-23T12:51:47.509Z</time></trkpt><trkpt lat="39.819825" lon="8.9680517"><ele>299.6</ele><time>2026-04-23T12:51:48.508Z</time></trkpt><trkpt lat="39.8199117" lon="8.9681267"><ele>299.8</ele><time>2026-04-23T12:51:49.508Z</time></trkpt><trkpt lat="39.8199783" lon="8.968205"><ele>300.0</ele><time>2026-04-23T12:51:50.508Z</time></trkpt><trkpt lat="39.8200267" lon="8.9682717"><ele>300.0</ele><time>2026-04-23T12:51:51.508Z</time></trkpt><trkpt lat="39.8200967" lon="8.9683567"><ele>300.0</ele><time>2026-04-23T12:51:53.508Z</time></trkpt><trkpt lat="39.8201583" lon="8.9684017"><ele>300.0</ele><time>2026-04-23T12:51:58.508Z</time></trkpt><trkpt lat="39.8202233" lon="8.9684383"><ele>300.0</ele><time>2026-04-23T12:51:59.508Z</time></trkpt><trkpt lat="39.8202983" lon="8.96848"><ele>300.0</ele><time>2026-04-23T12:52:00.508Z</time></trkpt><trkpt lat="39.820385" lon="8.968525"><ele>300.0</ele><time>2026-04-23T12:52:01.509Z</time></trkpt><trkpt lat="39.82049" lon="8.968575"><ele>300.5</ele><time>2026-04-23T12:52:02.509Z</time></trkpt><trkpt lat="39.8206033" lon="8.9686267"><ele>301.0</ele><time>2026-04-23T12:52:03.509Z</time></trkpt><trkpt lat="39.820725" lon="8.9686783"><ele>301.5</ele><time>2026-04-23T12:52:04.507Z</time></trkpt><trkpt lat="39.820855" lon="8.9687433"><ele>302.0</ele><time>2026-04-23T12:52:05.509Z</time></trkpt><trkpt lat="39.8209917" lon="8.968825"><ele>303.6666666666667</ele><time>2026-04-23T12:52:06.509Z</time></trkpt><trkpt lat="39.8211333" lon="8.9689183"><ele>305.3333333333333</ele><time>2026-04-23T12:52:07.508Z</time></trkpt><trkpt lat="39.8212783" lon="8.9690233"><ele>307.0</ele><time>2026-04-23T12:52:08.508Z</time></trkpt><trkpt lat="39.8214283" lon="8.96913"><ele>307.3333333333333</ele><time>2026-04-23T12:52:09.509Z</time></trkpt><trkpt lat="39.821585" lon="8.9692383"><ele>307.6666666666667</ele><time>2026-04-23T12:52:10.509Z</time></trkpt><trkpt lat="39.821735" lon="8.96934"><ele>308.0</ele><time>2026-04-23T12:52:11.508Z</time></trkpt><trkpt lat="39.82189" lon="8.96945"><ele>308.0</ele><time>2026-04-23T12:52:12.509Z</time></trkpt><trkpt lat="39.8220417" lon="8.96955"><ele>308.0</ele><time>2026-04-23T12:52:13.508Z</time></trkpt><trkpt lat="39.8221833" lon="8.9696367"><ele>308.0</ele><time>2026-04-23T12:52:14.509Z</time></trkpt><trkpt lat="39.8223233" lon="8.9697183"><ele>308.0</ele><time>2026-04-23T12:52:15.508Z</time></trkpt><trkpt lat="39.822455" lon="8.969815"><ele>308.0</ele><time>2026-04-23T12:52:16.509Z</time></trkpt><trkpt lat="39.822585" lon="8.9699233"><ele>308.0</ele><time>2026-04-23T12:52:17.508Z</time></trkpt><trkpt lat="39.8227133" lon="8.9700683"><ele>309.33333333333337</ele><time>2026-04-23T12:52:18.508Z</time></trkpt><trkpt lat="39.8228317" lon="8.9702367"><ele>310.6666666666667</ele><time>2026-04-23T12:52:19.508Z</time></trkpt><trkpt lat="39.8229467" lon="8.97039"><ele>312.0</ele><time>2026-04-23T12:52:20.508Z</time></trkpt><trkpt lat="39.823055" lon="8.97054"><ele>312.0</ele><time>2026-04-23T12:52:21.509Z</time></trkpt><trkpt lat="39.8231633" lon="8.9706667"><ele>312.0</ele><time>2026-04-23T12:52:22.508Z</time></trkpt><trkpt lat="39.8232683" lon="8.970785"><ele>312.0</ele><time>2026-04-23T12:52:23.509Z</time></trkpt><trkpt lat="39.823355" lon="8.9708933"><ele>312.0</ele><time>2026-04-23T12:52:24.509Z</time></trkpt><trkpt lat="39.8234317" lon="8.9709933"><ele>312.6</ele><time>2026-04-23T12:52:25.508Z</time></trkpt><trkpt lat="39.8235017" lon="8.9711083"><ele>313.2</ele><time>2026-04-23T12:52:26.508Z</time></trkpt><trkpt lat="39.8235483" lon="8.9712267"><ele>313.8</ele><time>2026-04-23T12:52:27.508Z</time></trkpt><trkpt lat="39.82359" lon="8.9713517"><ele>314.4</ele><time>2026-04-23T12:52:28.509Z</time></trkpt><trkpt lat="39.8236383" lon="8.97147"><ele>315.0</ele><time>2026-04-23T12:52:29.509Z</time></trkpt><trkpt lat="39.8236817" lon="8.971565"><ele>315.0</ele><time>2026-04-23T12:52:30.508Z</time></trkpt><trkpt lat="39.82372" lon="8.9716317"><ele>315.0</ele><time>2026-04-23T12:52:31.508Z</time></trkpt><trkpt lat="39.8237617" lon="8.97171"><ele>315.0</ele><time>2026-04-23T12:52:33.509Z</time></trkpt><trkpt lat="39.8238033" lon="8.9717917"><ele>315.0</ele><time>2026-04-23T12:52:35.509Z</time></trkpt><trkpt lat="39.8238617" lon="8.9718383"><ele>315.0</ele><time>2026-04-23T12:52:37.508Z</time></trkpt><trkpt lat="39.8239467" lon="8.9718483"><ele>315.0</ele><time>2026-04-23T12:52:39.509Z</time></trkpt><trkpt lat="39.82402" lon="8.9718567"><ele>315.0</ele><time>2026-04-23T12:52:42.508Z</time></trkpt><trkpt lat="39.8241017" lon="8.9718433"><ele>315.1666666666667</ele><time>2026-04-23T12:52:50.509Z</time></trkpt><trkpt lat="39.8241733" lon="8.9718283"><ele>315.3333333333333</ele><time>2026-04-23T12:52:51.508Z</time></trkpt><trkpt lat="39.8242467" lon="8.9718067"><ele>315.5</ele><time>2026-04-23T12:52:52.508Z</time></trkpt><trkpt lat="39.824325" lon="8.971795"><ele>315.66666666666663</ele><time>2026-04-23T12:52:53.509Z</time></trkpt><trkpt lat="39.8244033" lon="8.971785"><ele>315.8333333333333</ele><time>2026-04-23T12:52:54.509Z</time></trkpt><trkpt lat="39.8244883" lon="8.9717683"><ele>316.0</ele><time>2026-04-23T12:52:55.509Z</time></trkpt><trkpt lat="39.8245767" lon="8.9717533"><ele>316.16666666666663</ele><time>2026-04-23T12:52:56.508Z</time></trkpt><trkpt lat="39.8246733" lon="8.971735"><ele>316.3333333333333</ele><time>2026-04-23T12:52:57.508Z</time></trkpt><trkpt lat="39.824745" lon="8.9717167"><ele>316.5</ele><time>2026-04-23T12:52:58.509Z</time></trkpt><trkpt lat="39.8248217" lon="8.971695"><ele>316.6666666666667</ele><time>2026-04-23T12:52:59.509Z</time></trkpt><trkpt lat="39.824905" lon="8.9716667"><ele>316.83333333333337</ele><time>2026-04-23T12:53:00.508Z</time></trkpt><trkpt lat="39.825" lon="8.97162"><ele>317.0</ele><time>2026-04-23T12:53:01.509Z</time></trkpt><trkpt lat="39.8251" lon="8.9715517"><ele>319.75</ele><time>2026-04-23T12:53:02.509Z</time></trkpt><trkpt lat="39.8252083" lon="8.9714683"><ele>322.5</ele><time>2026-04-23T12:53:03.508Z</time></trkpt><trkpt lat="39.8253017" lon="8.9713633"><ele>325.25</ele><time>2026-04-23T12:53:04.509Z</time></trkpt><trkpt lat="39.8253967" lon="8.971245"><ele>328.0</ele><time>2026-04-23T12:53:05.509Z</time></trkpt><trkpt lat="39.8254867" lon="8.971155"><ele>328.0</ele><time>2026-04-23T12:53:06.508Z</time></trkpt><trkpt lat="39.8255833" lon="8.9710917"><ele>328.0</ele><time>2026-04-23T12:53:07.508Z</time></trkpt><trkpt lat="39.8256917" lon="8.9710483"><ele>328.0</ele><time>2026-04-23T12:53:08.509Z</time></trkpt><trkpt lat="39.8258167" lon="8.9710233"><ele>328.0</ele><time>2026-04-23T12:53:09.508Z</time></trkpt><trkpt lat="39.8259467" lon="8.9709933"><ele>329.75</ele><time>2026-04-23T12:53:10.508Z</time></trkpt><trkpt lat="39.8260817" lon="8.9709533"><ele>331.5</ele><time>2026-04-23T12:53:11.508Z</time></trkpt><trkpt lat="39.8262133" lon="8.9709283"><ele>333.25</ele><time>2026-04-23T12:53:12.508Z</time></trkpt><trkpt lat="39.8263333" lon="8.9709017"><ele>335.0</ele><time>2026-04-23T12:53:13.509Z</time></trkpt><trkpt lat="39.8264367" lon="8.97087"><ele>335.1666666666667</ele><time>2026-04-23T12:53:14.509Z</time></trkpt><trkpt lat="39.82653" lon="8.970855"><ele>335.33333333333337</ele><time>2026-04-23T12:53:15.509Z</time></trkpt><trkpt lat="39.8266167" lon="8.9708433"><ele>335.5</ele><time>2026-04-23T12:53:16.509Z</time></trkpt><trkpt lat="39.8267067" lon="8.9708333"><ele>335.6666666666667</ele><time>2026-04-23T12:53:17.508Z</time></trkpt><trkpt lat="39.826785" lon="8.97083"><ele>335.8333333333333</ele><time>2026-04-23T12:53:18.509Z</time></trkpt><trkpt lat="39.82685" lon="8.97083"><ele>336.0</ele><time>2026-04-23T12:53:19.508Z</time></trkpt><trkpt lat="39.8269117" lon="8.9708617"><ele>336.6666666666667</ele><time>2026-04-23T12:53:20.508Z</time></trkpt><trkpt lat="39.8269633" lon="8.9709167"><ele>337.3333333333333</ele><time>2026-04-23T12:53:21.508Z</time></trkpt><trkpt lat="39.827005" lon="8.971"><ele>338.0</ele><time>2026-04-23T12:53:22.508Z</time></trkpt><trkpt lat="39.827035" lon="8.9711083"><ele>338.66666666666663</ele><time>2026-04-23T12:53:23.508Z</time></trkpt><trkpt lat="39.8270783" lon="8.97122"><ele>339.3333333333333</ele><time>2026-04-23T12:53:24.508Z</time></trkpt><trkpt lat="39.8271317" lon="8.97133"><ele>340.0</ele><time>2026-04-23T12:53:25.509Z</time></trkpt><trkpt lat="39.8271917" lon="8.971445"><ele>340.0</ele><time>2026-04-23T12:53:26.509Z</time></trkpt><trkpt lat="39.8272533" lon="8.9715583"><ele>340.0</ele><time>2026-04-23T12:53:27.509Z</time></trkpt><trkpt lat="39.82732" lon="8.9716683"><ele>340.0</ele><time>2026-04-23T12:53:28.508Z</time></trkpt><trkpt lat="39.827395" lon="8.971775"><ele>340.0</ele><time>2026-04-23T12:53:29.508Z</time></trkpt><trkpt lat="39.8274667" lon="8.971895"><ele>340.0</ele><time>2026-04-23T12:53:30.509Z</time></trkpt><trkpt lat="39.827535" lon="8.9720167"><ele>340.0</ele><time>2026-04-23T12:53:31.509Z</time></trkpt><trkpt lat="39.8275933" lon="8.97214"><ele>340.0</ele><time>2026-04-23T12:53:32.508Z</time></trkpt><trkpt lat="39.8276417" lon="8.9722733"><ele>340.0</ele><time>2026-04-23T12:53:33.509Z</time></trkpt><trkpt lat="39.82768" lon="8.9724083"><ele>340.0</ele><time>2026-04-23T12:53:34.508Z</time></trkpt><trkpt lat="39.8277217" lon="8.9725367"><ele>340.0</ele><time>2026-04-23T12:53:35.508Z</time></trkpt><trkpt lat="39.8277717" lon="8.9726683"><ele>340.75</ele><time>2026-04-23T12:53:36.508Z</time></trkpt><trkpt lat="39.82784" lon="8.9728017"><ele>341.5</ele><time>2026-04-23T12:53:37.508Z</time></trkpt><trkpt lat="39.8279233" lon="8.97293"><ele>342.25</ele><time>2026-04-23T12:53:38.508Z</time></trkpt><trkpt lat="39.82802" lon="8.9730383"><ele>343.0</ele><time>2026-04-23T12:53:39.509Z</time></trkpt><trkpt lat="39.828125" lon="8.973115"><ele>343.0</ele><time>2026-04-23T12:53:40.509Z</time></trkpt><trkpt lat="39.8282283" lon="8.9731867"><ele>343.0</ele><time>2026-04-23T12:53:41.508Z</time></trkpt><trkpt lat="39.8283167" lon="8.9732617"><ele>343.0</ele><time>2026-04-23T12:53:42.509Z</time></trkpt><trkpt lat="39.8283917" lon="8.9733567"><ele>343.0</ele><time>2026-04-23T12:53:43.508Z</time></trkpt><trkpt lat="39.8284533" lon="8.9734733"><ele>343.0</ele><time>2026-04-23T12:53:44.508Z</time></trkpt><trkpt lat="39.82849" lon="8.9736133"><ele>345.0</ele><time>2026-04-23T12:53:45.508Z</time></trkpt><trkpt lat="39.8285217" lon="8.9737683"><ele>347.0</ele><time>2026-04-23T12:53:46.509Z</time></trkpt><trkpt lat="39.8285633" lon="8.9739283"><ele>349.0</ele><time>2026-04-23T12:53:47.509Z</time></trkpt><trkpt lat="39.82862" lon="8.974095"><ele>351.0</ele><time>2026-04-23T12:53:48.509Z</time></trkpt><trkpt lat="39.828685" lon="8.9742567"><ele>351.75</ele><time>2026-04-23T12:53:49.508Z</time></trkpt><trkpt lat="39.8287583" lon="8.9744217"><ele>352.5</ele><time>2026-04-23T12:53:50.508Z</time></trkpt><trkpt lat="39.8288367" lon="8.9745817"><ele>353.25</ele><time>2026-04-23T12:53:51.509Z</time></trkpt><trkpt lat="39.8289183" lon="8.9747383"><ele>354.0</ele><time>2026-04-23T12:53:52.508Z</time></trkpt><trkpt lat="39.8289967" lon="8.9748833"><ele>354.25</ele><time>2026-04-23T12:53:53.508Z</time></trkpt><trkpt lat="39.8290783" lon="8.97503"><ele>354.5</ele><time>2026-04-23T12:53:54.509Z</time></trkpt><trkpt lat="39.8291583" lon="8.97518"><ele>354.75</ele><time>2026-04-23T12:53:55.509Z</time></trkpt><trkpt lat="39.8292433" lon="8.97532"><ele>355.0</ele><time>2026-04-23T12:53:56.508Z</time></trkpt><trkpt lat="39.8293233" lon="8.9754717"><ele>355.75</ele><time>2026-04-23T12:53:57.508Z</time></trkpt><trkpt lat="39.8294133" lon="8.975625"><ele>356.5</ele><time>2026-04-23T12:53:58.508Z</time></trkpt><trkpt lat="39.82951" lon="8.9757767"><ele>357.25</ele><time>2026-04-23T12:53:59.508Z</time></trkpt><trkpt lat="39.829605" lon="8.97591"><ele>358.0</ele><time>2026-04-23T12:54:00.508Z</time></trkpt><trkpt lat="39.8297" lon="8.9760383"><ele>358.0</ele><time>2026-04-23T12:54:01.508Z</time></trkpt><trkpt lat="39.8297817" lon="8.9761683"><ele>358.0</ele><time>2026-04-23T12:54:02.508Z</time></trkpt><trkpt lat="39.8298583" lon="8.9763083"><ele>358.0</ele><time>2026-04-23T12:54:03.509Z</time></trkpt><trkpt lat="39.82993" lon="8.9764583"><ele>358.0</ele><time>2026-04-23T12:54:04.509Z</time></trkpt><trkpt lat="39.8299917" lon="8.9766183"><ele>358.25</ele><time>2026-04-23T12:54:05.508Z</time></trkpt><trkpt lat="39.83006" lon="8.9767783"><ele>358.5</ele><time>2026-04-23T12:54:06.509Z</time></trkpt><trkpt lat="39.830135" lon="8.9769317"><ele>358.75</ele><time>2026-04-23T12:54:07.508Z</time></trkpt><trkpt lat="39.8302083" lon="8.9770883"><ele>359.0</ele><time>2026-04-23T12:54:08.508Z</time></trkpt><trkpt lat="39.8302733" lon="8.9772483"><ele>360.0</ele><time>2026-04-23T12:54:09.508Z</time></trkpt><trkpt lat="39.83033" lon="8.97741"><ele>361.0</ele><time>2026-04-23T12:54:10.509Z</time></trkpt><trkpt lat="39.8303783" lon="8.97759"><ele>362.0</ele><time>2026-04-23T12:54:11.508Z</time></trkpt><trkpt lat="39.83043" lon="8.9777617"><ele>363.0</ele><time>2026-04-23T12:54:12.509Z</time></trkpt><trkpt lat="39.8304767" lon="8.9779183"><ele>363.5</ele><time>2026-04-23T12:54:13.509Z</time></trkpt><trkpt lat="39.8305283" lon="8.978055"><ele>364.0</ele><time>2026-04-23T12:54:14.508Z</time></trkpt><trkpt lat="39.8305817" lon="8.9781817"><ele>364.5</ele><time>2026-04-23T12:54:15.508Z</time></trkpt><trkpt lat="39.830645" lon="8.97831"><ele>365.0</ele><time>2026-04-23T12:54:16.509Z</time></trkpt><trkpt lat="39.8307217" lon="8.9784283"><ele>365.75</ele><time>2026-04-23T12:54:17.508Z</time></trkpt><trkpt lat="39.8308083" lon="8.97854"><ele>366.5</ele><time>2026-04-23T12:54:18.509Z</time></trkpt><trkpt lat="39.8308983" lon="8.97866"><ele>367.25</ele><time>2026-04-23T12:54:19.509Z</time></trkpt><trkpt lat="39.8309883" lon="8.97879"><ele>368.0</ele><time>2026-04-23T12:54:20.509Z</time></trkpt><trkpt lat="39.8310733" lon="8.9789283"><ele>369.0</ele><time>2026-04-23T12:54:21.509Z</time></trkpt><trkpt lat="39.8311533" lon="8.9790733"><ele>370.0</ele><time>2026-04-23T12:54:22.509Z</time></trkpt><trkpt lat="39.8312333" lon="8.9792183"><ele>371.0</ele><time>2026-04-23T12:54:23.508Z</time></trkpt><trkpt lat="39.8313117" lon="8.979335"><ele>372.0</ele><time>2026-04-23T12:54:24.509Z</time></trkpt><trkpt lat="39.8313867" lon="8.9794617"><ele>372.0</ele><time>2026-04-23T12:54:25.508Z</time></trkpt><trkpt lat="39.831455" lon="8.9795933"><ele>372.0</ele><time>2026-04-23T12:54:26.509Z</time></trkpt><trkpt lat="39.8315283" lon="8.9797067"><ele>372.0</ele><time>2026-04-23T12:54:27.508Z</time></trkpt><trkpt lat="39.8316" lon="8.9798183"><ele>372.0</ele><time>2026-04-23T12:54:28.509Z</time></trkpt><trkpt lat="39.8316717" lon="8.9799333"><ele>371.5</ele><time>2026-04-23T12:54:29.508Z</time></trkpt><trkpt lat="39.8317433" lon="8.980065"><ele>371.0</ele><time>2026-04-23T12:54:30.509Z</time></trkpt><trkpt lat="39.831815" lon="8.9802"><ele>370.5</ele><time>2026-04-23T12:54:31.508Z</time></trkpt><trkpt lat="39.8318767" lon="8.9803267"><ele>370.0</ele><time>2026-04-23T12:54:32.508Z</time></trkpt><trkpt lat="39.83194" lon="8.9804517"><ele>370.0</ele><time>2026-04-23T12:54:33.508Z</time></trkpt><trkpt lat="39.832" lon="8.980585"><ele>370.0</ele><time>2026-04-23T12:54:34.509Z</time></trkpt><trkpt lat="39.8320617" lon="8.9807167"><ele>370.0</ele><time>2026-04-23T12:54:35.509Z</time></trkpt><trkpt lat="39.8321233" lon="8.9808333"><ele>370.0</ele><time>2026-04-23T12:54:36.508Z</time></trkpt><trkpt lat="39.8321817" lon="8.980935"><ele>370.0</ele><time>2026-04-23T12:54:37.508Z</time></trkpt><trkpt lat="39.8322333" lon="8.98103"><ele>369.8</ele><time>2026-04-23T12:54:38.508Z</time></trkpt><trkpt lat="39.8322717" lon="8.9811167"><ele>369.6</ele><time>2026-04-23T12:54:39.508Z</time></trkpt><trkpt lat="39.8323283" lon="8.9812567"><ele>369.4</ele><time>2026-04-23T12:54:41.509Z</time></trkpt><trkpt lat="39.8323733" lon="8.981365"><ele>369.2</ele><time>2026-04-23T12:54:43.508Z</time></trkpt><trkpt lat="39.8323917" lon="8.981455"><ele>369.0</ele><time>2026-04-23T12:54:45.508Z</time></trkpt><trkpt lat="39.83233" lon="8.9815683"><ele>369.0</ele><time>2026-04-23T12:54:47.508Z</time></trkpt><trkpt lat="39.83227" lon="8.9816383"><ele>369.0</ele><time>2026-04-23T12:54:48.509Z</time></trkpt><trkpt lat="39.8322017" lon="8.9817117"><ele>369.0</ele><time>2026-04-23T12:54:49.508Z</time></trkpt><trkpt lat="39.83213" lon="8.9818033"><ele>369.0</ele><time>2026-04-23T12:54:50.508Z</time></trkpt><trkpt lat="39.8320583" lon="8.981905"><ele>369.0</ele><time>2026-04-23T12:54:51.508Z</time></trkpt><trkpt lat="39.8319833" lon="8.9820183"><ele>370.25</ele><time>2026-04-23T12:54:52.508Z</time></trkpt><trkpt lat="39.8319" lon="8.9821367"><ele>371.5</ele><time>2026-04-23T12:54:53.509Z</time></trkpt><trkpt lat="39.83182" lon="8.9822567"><ele>372.75</ele><time>2026-04-23T12:54:54.508Z</time></trkpt><trkpt lat="39.8317483" lon="8.982365"><ele>374.0</ele><time>2026-04-23T12:54:55.509Z</time></trkpt><trkpt lat="39.8316783" lon="8.9824667"><ele>374.33333333333337</ele><time>2026-04-23T12:54:56.509Z</time></trkpt><trkpt lat="39.831615" lon="8.9825533"><ele>374.6666666666667</ele><time>2026-04-23T12:54:57.508Z</time></trkpt><trkpt lat="39.8315533" lon="8.9826383"><ele>375.0</ele><time>2026-04-23T12:54:58.508Z</time></trkpt><trkpt lat="39.831505" lon="8.9827233"><ele>375.3333333333333</ele><time>2026-04-23T12:54:59.508Z</time></trkpt><trkpt lat="39.8314567" lon="8.9827983"><ele>375.66666666666663</ele><time>2026-04-23T12:55:00.508Z</time></trkpt><trkpt lat="39.83141" lon="8.982865"><ele>376.0</ele><time>2026-04-23T12:55:01.508Z</time></trkpt><trkpt lat="39.831365" lon="8.9829267"><ele>376.0</ele><time>2026-04-23T12:55:02.508Z</time></trkpt><trkpt lat="39.8313" lon="8.9830133"><ele>376.0</ele><time>2026-04-23T12:55:04.508Z</time></trkpt><trkpt lat="39.8312717" lon="8.9831"><ele>376.0</ele><time>2026-04-23T12:55:06.509Z</time></trkpt><trkpt lat="39.831295" lon="8.9832333"><ele>376.0</ele><time>2026-04-23T12:55:08.508Z</time></trkpt><trkpt lat="39.8313333" lon="8.9833067"><ele>376.0</ele><time>2026-04-23T12:55:09.509Z</time></trkpt><trkpt lat="39.8313833" lon="8.9833867"><ele>376.0</ele><time>2026-04-23T12:55:10.508Z</time></trkpt><trkpt lat="39.8314483" lon="8.9834817"><ele>376.25</ele><time>2026-04-23T12:55:11.508Z</time></trkpt><trkpt lat="39.831515" lon="8.983585"><ele>376.5</ele><time>2026-04-23T12:55:12.509Z</time></trkpt><trkpt lat="39.8315833" lon="8.98369"><ele>376.75</ele><time>2026-04-23T12:55:13.509Z</time></trkpt><trkpt lat="39.8316633" lon="8.9838017"><ele>377.0</ele><time>2026-04-23T12:55:14.508Z</time></trkpt><trkpt lat="39.8317483" lon="8.98392"><ele>378.0</ele><time>2026-04-23T12:55:15.508Z</time></trkpt><trkpt lat="39.8318417" lon="8.9840417"><ele>379.0</ele><time>2026-04-23T12:55:16.508Z</time></trkpt><trkpt lat="39.8319333" lon="8.98417"><ele>380.0</ele><time>2026-04-23T12:55:17.508Z</time></trkpt><trkpt lat="39.832025" lon="8.9843033"><ele>381.0</ele><time>2026-04-23T12:55:18.508Z</time></trkpt><trkpt lat="39.83212" lon="8.9844417"><ele>381.6666666666667</ele><time>2026-04-23T12:55:19.508Z</time></trkpt><trkpt lat="39.8322183" lon="8.9845867"><ele>382.33333333333337</ele><time>2026-04-23T12:55:20.508Z</time></trkpt><trkpt lat="39.8323217" lon="8.984735"><ele>383.0</ele><time>2026-04-23T12:55:21.508Z</time></trkpt><trkpt lat="39.8324233" lon="8.98489"><ele>383.33333333333337</ele><time>2026-04-23T12:55:22.508Z</time></trkpt><trkpt lat="39.8325267" lon="8.985045"><ele>383.6666666666667</ele><time>2026-04-23T12:55:23.509Z</time></trkpt><trkpt lat="39.832635" lon="8.985195"><ele>384.0</ele><time>2026-04-23T12:55:24.508Z</time></trkpt><trkpt lat="39.832735" lon="8.9853583"><ele>384.0</ele><time>2026-04-23T12:55:25.509Z</time></trkpt><trkpt lat="39.8328267" lon="8.985535"><ele>384.0</ele><time>2026-04-23T12:55:26.508Z</time></trkpt><trkpt lat="39.832915" lon="8.9857183"><ele>384.0</ele><time>2026-04-23T12:55:27.509Z</time></trkpt><trkpt lat="39.832995" lon="8.9859167"><ele>385.0</ele><time>2026-04-23T12:55:28.508Z</time></trkpt><trkpt lat="39.833075" lon="8.9861233"><ele>386.0</ele><time>2026-04-23T12:55:29.508Z</time></trkpt><trkpt lat="39.833145" lon="8.9863333"><ele>387.0</ele><time>2026-04-23T12:55:30.509Z</time></trkpt><trkpt lat="39.8332117" lon="8.9865483"><ele>387.33333333333337</ele><time>2026-04-23T12:55:31.509Z</time></trkpt><trkpt lat="39.8332683" lon="8.9867733"><ele>387.6666666666667</ele><time>2026-04-23T12:55:32.508Z</time></trkpt><trkpt lat="39.8333117" lon="8.9870117"><ele>388.0</ele><time>2026-04-23T12:55:33.508Z</time></trkpt><trkpt lat="39.8333483" lon="8.9872533"><ele>388.0</ele><time>2026-04-23T12:55:34.508Z</time></trkpt><trkpt lat="39.83337" lon="8.9875033"><ele>388.0</ele><time>2026-04-23T12:55:35.508Z</time></trkpt><trkpt lat="39.8333833" lon="8.9877483"><ele>388.0</ele><time>2026-04-23T12:55:36.508Z</time></trkpt><trkpt lat="39.8333867" lon="8.9879933"><ele>387.0</ele><time>2026-04-23T12:55:37.509Z</time></trkpt><trkpt lat="39.8333767" lon="8.988255"><ele>386.0</ele><time>2026-04-23T12:55:38.508Z</time></trkpt><trkpt lat="39.83336" lon="8.9885167"><ele>385.0</ele><time>2026-04-23T12:55:39.509Z</time></trkpt><trkpt lat="39.8333367" lon="8.988775"><ele>384.0</ele><time>2026-04-23T12:55:40.508Z</time></trkpt><trkpt lat="39.8333167" lon="8.9890217"><ele>383.0</ele><time>2026-04-23T12:55:41.509Z</time></trkpt><trkpt lat="39.8332983" lon="8.9892567"><ele>382.0</ele><time>2026-04-23T12:55:42.508Z</time></trkpt><trkpt lat="39.8332817" lon="8.9894917"><ele>380.66666666666663</ele><time>2026-04-23T12:55:43.509Z</time></trkpt><trkpt lat="39.833265" lon="8.9897367"><ele>379.3333333333333</ele><time>2026-04-23T12:55:44.509Z</time></trkpt><trkpt lat="39.833245" lon="8.989985"><ele>378.0</ele><time>2026-04-23T12:55:45.509Z</time></trkpt><trkpt lat="39.833225" lon="8.9902367"><ele>376.3333333333333</ele><time>2026-04-23T12:55:46.509Z</time></trkpt><trkpt lat="39.83321" lon="8.9904967"><ele>374.66666666666663</ele><time>2026-04-23T12:55:47.508Z</time></trkpt><trkpt lat="39.8331917" lon="8.9907633"><ele>373.0</ele><time>2026-04-23T12:55:48.508Z</time></trkpt><trkpt lat="39.8331733" lon="8.9910283"><ele>371.3333333333333</ele><time>2026-04-23T12:55:49.508Z</time></trkpt><trkpt lat="39.8331483" lon="8.9912917"><ele>369.6666666666667</ele><time>2026-04-23T12:55:50.508Z</time></trkpt><trkpt lat="39.8331317" lon="8.991555"><ele>368.0</ele><time>2026-04-23T12:55:51.508Z</time></trkpt><trkpt lat="39.8331117" lon="8.9918217"><ele>366.33333333333337</ele><time>2026-04-23T12:55:52.508Z</time></trkpt><trkpt lat="39.8330933" lon="8.9920917"><ele>364.6666666666667</ele><time>2026-04-23T12:55:53.509Z</time></trkpt><trkpt lat="39.8330733" lon="8.99236"><ele>363.0</ele><time>2026-04-23T12:55:54.508Z</time></trkpt><trkpt lat="39.83305" lon="8.9926233"><ele>360.6666666666667</ele><time>2026-04-23T12:55:55.509Z</time></trkpt><trkpt lat="39.8330283" lon="8.99289"><ele>358.33333333333337</ele><time>2026-04-23T12:55:56.508Z</time></trkpt><trkpt lat="39.83302" lon="8.9931617"><ele>356.0</ele><time>2026-04-23T12:55:57.509Z</time></trkpt><trkpt lat="39.83302" lon="8.9934383"><ele>354.0</ele><time>2026-04-23T12:55:58.509Z</time></trkpt><trkpt lat="39.833035" lon="8.99371"><ele>352.0</ele><time>2026-04-23T12:55:59.509Z</time></trkpt><trkpt lat="39.8330617" lon="8.993985"><ele>350.0</ele><time>2026-04-23T12:56:00.508Z</time></trkpt><trkpt lat="39.8330983" lon="8.9942633"><ele>349.33333333333337</ele><time>2026-04-23T12:56:01.509Z</time></trkpt><trkpt lat="39.83315" lon="8.99454"><ele>348.6666666666667</ele><time>2026-04-23T12:56:02.509Z</time></trkpt><trkpt lat="39.8332117" lon="8.9948067"><ele>348.0</ele><time>2026-04-23T12:56:03.509Z</time></trkpt><trkpt lat="39.833275" lon="8.9950633"><ele>345.3333333333333</ele><time>2026-04-23T12:56:04.509Z</time></trkpt><trkpt lat="39.8333467" lon="8.9953017"><ele>342.66666666666663</ele><time>2026-04-23T12:56:05.508Z</time></trkpt><trkpt lat="39.8334233" lon="8.9955233"><ele>340.0</ele><time>2026-04-23T12:56:06.508Z</time></trkpt><trkpt lat="39.8335133" lon="8.99573"><ele>339.3333333333333</ele><time>2026-04-23T12:56:07.509Z</time></trkpt><trkpt lat="39.833615" lon="8.99594"><ele>338.6666666666667</ele><time>2026-04-23T12:56:08.508Z</time></trkpt><trkpt lat="39.8337183" lon="8.9961533"><ele>338.0</ele><time>2026-04-23T12:56:09.509Z</time></trkpt><trkpt lat="39.8338333" lon="8.99637"><ele>338.0</ele><time>2026-04-23T12:56:10.509Z</time></trkpt><trkpt lat="39.83395" lon="8.996595"><ele>338.0</ele><time>2026-04-23T12:56:11.509Z</time></trkpt><trkpt lat="39.8340667" lon="8.9968133"><ele>338.0</ele><time>2026-04-23T12:56:12.508Z</time></trkpt><trkpt lat="39.8341917" lon="8.9970283"><ele>335.6666666666667</ele><time>2026-04-23T12:56:13.508Z</time></trkpt><trkpt lat="39.834315" lon="8.9972517"><ele>333.3333333333333</ele><time>2026-04-23T12:56:14.509Z</time></trkpt><trkpt lat="39.8344367" lon="8.997475"><ele>331.0</ele><time>2026-04-23T12:56:15.508Z</time></trkpt><trkpt lat="39.83456" lon="8.9977"><ele>331.0</ele><time>2026-04-23T12:56:16.508Z</time></trkpt><trkpt lat="39.8346783" lon="8.9979217"><ele>331.0</ele><time>2026-04-23T12:56:17.508Z</time></trkpt><trkpt lat="39.8347933" lon="8.998135"><ele>331.0</ele><time>2026-04-23T12:56:18.509Z</time></trkpt><trkpt lat="39.8349083" lon="8.9983467"><ele>331.0</ele><time>2026-04-23T12:56:19.508Z</time></trkpt><trkpt lat="39.835015" lon="8.998565"><ele>331.0</ele><time>2026-04-23T12:56:20.509Z</time></trkpt><trkpt lat="39.8351083" lon="8.998785"><ele>331.0</ele><time>2026-04-23T12:56:21.508Z</time></trkpt><trkpt lat="39.8351967" lon="8.999025"><ele>326.3333333333333</ele><time>2026-04-23T12:56:22.509Z</time></trkpt><trkpt lat="39.8352717" lon="8.9992733"><ele>321.6666666666667</ele><time>2026-04-23T12:56:23.508Z</time></trkpt><trkpt lat="39.8353367" lon="8.9995317"><ele>317.0</ele><time>2026-04-23T12:56:24.509Z</time></trkpt><trkpt lat="39.8353917" lon="8.9998"><ele>317.0</ele><time>2026-04-23T12:56:25.508Z</time></trkpt><trkpt lat="39.83543" lon="9.0000717"><ele>317.0</ele><time>2026-04-23T12:56:26.508Z</time></trkpt><trkpt lat="39.8354583" lon="9.0003517"><ele>317.0</ele><time>2026-04-23T12:56:27.509Z</time></trkpt><trkpt lat="39.8354767" lon="9.000635"><ele>316.0</ele><time>2026-04-23T12:56:28.509Z</time></trkpt><trkpt lat="39.8354883" lon="9.0009233"><ele>315.0</ele><time>2026-04-23T12:56:29.508Z</time></trkpt><trkpt lat="39.8354883" lon="9.0012117"><ele>314.0</ele><time>2026-04-23T12:56:30.509Z</time></trkpt><trkpt lat="39.8354967" lon="9.0015"><ele>312.6666666666667</ele><time>2026-04-23T12:56:31.508Z</time></trkpt><trkpt lat="39.8355033" lon="9.001785"><ele>311.3333333333333</ele><time>2026-04-23T12:56:32.509Z</time></trkpt><trkpt lat="39.8355033" lon="9.0020717"><ele>310.0</ele><time>2026-04-23T12:56:33.509Z</time></trkpt><trkpt lat="39.8354983" lon="9.0023567"><ele>308.66666666666663</ele><time>2026-04-23T12:56:34.509Z</time></trkpt><trkpt lat="39.8355017" lon="9.002645"><ele>307.3333333333333</ele><time>2026-04-23T12:56:35.508Z</time></trkpt><trkpt lat="39.8355067" lon="9.0029333"><ele>306.0</ele><time>2026-04-23T12:56:36.508Z</time></trkpt><trkpt lat="39.8355133" lon="9.00322"><ele>305.3333333333333</ele><time>2026-04-23T12:56:37.508Z</time></trkpt><trkpt lat="39.835515" lon="9.0035117"><ele>304.66666666666663</ele><time>2026-04-23T12:56:38.508Z</time></trkpt><trkpt lat="39.8355183" lon="9.0038017"><ele>304.0</ele><time>2026-04-23T12:56:39.508Z</time></trkpt><trkpt lat="39.8355267" lon="9.0040867"><ele>303.66666666666663</ele><time>2026-04-23T12:56:40.508Z</time></trkpt><trkpt lat="39.83553" lon="9.0043733"><ele>303.3333333333333</ele><time>2026-04-23T12:56:41.508Z</time></trkpt><trkpt lat="39.8355367" lon="9.004655"><ele>303.0</ele><time>2026-04-23T12:56:42.509Z</time></trkpt><trkpt lat="39.83554" lon="9.0049333"><ele>302.0</ele><time>2026-04-23T12:56:43.508Z</time></trkpt><trkpt lat="39.8355433" lon="9.0052133"><ele>301.0</ele><time>2026-04-23T12:56:44.509Z</time></trkpt><trkpt lat="39.835545" lon="9.00549"><ele>300.0</ele><time>2026-04-23T12:56:45.509Z</time></trkpt><trkpt lat="39.8355517" lon="9.0057633"><ele>299.0</ele><time>2026-04-23T12:56:46.509Z</time></trkpt><trkpt lat="39.8355567" lon="9.0060317"><ele>298.0</ele><time>2026-04-23T12:56:47.509Z</time></trkpt><trkpt lat="39.8355617" lon="9.006295"><ele>297.0</ele><time>2026-04-23T12:56:48.508Z</time></trkpt><trkpt lat="39.8355717" lon="9.0065667"><ele>296.0</ele><time>2026-04-23T12:56:49.509Z</time></trkpt><trkpt lat="39.8355833" lon="9.0068467"><ele>295.0</ele><time>2026-04-23T12:56:50.509Z</time></trkpt><trkpt lat="39.8355883" lon="9.00712"><ele>294.0</ele><time>2026-04-23T12:56:51.508Z</time></trkpt><trkpt lat="39.8355917" lon="9.0073967"><ele>294.3333333333333</ele><time>2026-04-23T12:56:52.509Z</time></trkpt><trkpt lat="39.835595" lon="9.0076767"><ele>294.66666666666663</ele><time>2026-04-23T12:56:53.509Z</time></trkpt><trkpt lat="39.8355967" lon="9.0079517"><ele>295.0</ele><time>2026-04-23T12:56:54.508Z</time></trkpt><trkpt lat="39.835605" lon="9.0082267"><ele>294.66666666666663</ele><time>2026-04-23T12:56:55.508Z</time></trkpt><trkpt lat="39.8356083" lon="9.008505"><ele>294.3333333333333</ele><time>2026-04-23T12:56:56.509Z</time></trkpt><trkpt lat="39.8356133" lon="9.0087833"><ele>294.0</ele><time>2026-04-23T12:56:57.508Z</time></trkpt><trkpt lat="39.835615" lon="9.0090633"><ele>294.6666666666667</ele><time>2026-04-23T12:56:58.508Z</time></trkpt><trkpt lat="39.8356183" lon="9.0093317"><ele>295.33333333333337</ele><time>2026-04-23T12:56:59.508Z</time></trkpt><trkpt lat="39.8356183" lon="9.0096"><ele>296.0</ele><time>2026-04-23T12:57:00.508Z</time></trkpt><trkpt lat="39.8356233" lon="9.009865"><ele>296.6666666666667</ele><time>2026-04-23T12:57:01.508Z</time></trkpt><trkpt lat="39.83562" lon="9.0101383"><ele>297.3333333333333</ele><time>2026-04-23T12:57:02.509Z</time></trkpt><trkpt lat="39.8356267" lon="9.010405"><ele>298.0</ele><time>2026-04-23T12:57:03.508Z</time></trkpt><trkpt lat="39.8356333" lon="9.0106683"><ele>298.3333333333333</ele><time>2026-04-23T12:57:04.508Z</time></trkpt><trkpt lat="39.835645" lon="9.0109217"><ele>298.6666666666667</ele><time>2026-04-23T12:57:05.509Z</time></trkpt><trkpt lat="39.8356817" lon="9.0111617"><ele>299.0</ele><time>2026-04-23T12:57:06.508Z</time></trkpt><trkpt lat="39.8357417" lon="9.0113917"><ele>299.0</ele><time>2026-04-23T12:57:07.509Z</time></trkpt><trkpt lat="39.835825" lon="9.011615"><ele>299.0</ele><time>2026-04-23T12:57:08.509Z</time></trkpt><trkpt lat="39.8359233" lon="9.011825"><ele>299.0</ele><time>2026-04-23T12:57:09.509Z</time></trkpt><trkpt lat="39.8360383" lon="9.0120217"><ele>300.33333333333337</ele><time>2026-04-23T12:57:10.509Z</time></trkpt><trkpt lat="39.8361733" lon="9.0122"><ele>301.6666666666667</ele><time>2026-04-23T12:57:11.508Z</time></trkpt><trkpt lat="39.836325" lon="9.0123617"><ele>303.0</ele><time>2026-04-23T12:57:12.508Z</time></trkpt><trkpt lat="39.83649" lon="9.01251"><ele>303.0</ele><time>2026-04-23T12:57:13.508Z</time></trkpt><trkpt lat="39.83666" lon="9.0126517"><ele>303.0</ele><time>2026-04-23T12:57:14.509Z</time></trkpt><trkpt lat="39.83683" lon="9.012795"><ele>303.0</ele><time>2026-04-23T12:57:15.508Z</time></trkpt><trkpt lat="39.8369983" lon="9.0129333"><ele>301.3333333333333</ele><time>2026-04-23T12:57:16.508Z</time></trkpt><trkpt lat="39.8371733" lon="9.0130683"><ele>299.66666666666663</ele><time>2026-04-23T12:57:17.508Z</time></trkpt><trkpt lat="39.8373467" lon="9.0132"><ele>298.0</ele><time>2026-04-23T12:57:18.508Z</time></trkpt><trkpt lat="39.8375183" lon="9.01334"><ele>302.0</ele><time>2026-04-23T12:57:19.508Z</time></trkpt><trkpt lat="39.8376833" lon="9.0134883"><ele>306.0</ele><time>2026-04-23T12:57:20.508Z</time></trkpt><trkpt lat="39.8378567" lon="9.013645"><ele>310.0</ele><time>2026-04-23T12:57:21.509Z</time></trkpt><trkpt lat="39.8380183" lon="9.0138"><ele>310.0</ele><time>2026-04-23T12:57:22.508Z</time></trkpt><trkpt lat="39.8381817" lon="9.013965"><ele>310.0</ele><time>2026-04-23T12:57:23.509Z</time></trkpt><trkpt lat="39.8383433" lon="9.0141483"><ele>310.0</ele><time>2026-04-23T12:57:24.509Z</time></trkpt><trkpt lat="39.8384883" lon="9.01434"><ele>309.66666666666663</ele><time>2026-04-23T12:57:25.509Z</time></trkpt><trkpt lat="39.838625" lon="9.0145383"><ele>309.3333333333333</ele><time>2026-04-23T12:57:26.509Z</time></trkpt><trkpt lat="39.8387583" lon="9.014745"><ele>309.0</ele><time>2026-04-23T12:57:27.508Z</time></trkpt><trkpt lat="39.8388833" lon="9.0149667"><ele>307.3333333333333</ele><time>2026-04-23T12:57:28.508Z</time></trkpt><trkpt lat="39.8389983" lon="9.0152"><ele>305.66666666666663</ele><time>2026-04-23T12:57:29.509Z</time></trkpt><trkpt lat="39.8390983" lon="9.0154283"><ele>304.0</ele><time>2026-04-23T12:57:30.509Z</time></trkpt><trkpt lat="39.8391733" lon="9.0156683"><ele>305.66666666666663</ele><time>2026-04-23T12:57:31.508Z</time></trkpt><trkpt lat="39.83924" lon="9.015915"><ele>307.3333333333333</ele><time>2026-04-23T12:57:32.509Z</time></trkpt><trkpt lat="39.839305" lon="9.0161667"><ele>309.0</ele><time>2026-04-23T12:57:33.508Z</time></trkpt><trkpt lat="39.8393667" lon="9.016425"><ele>308.0</ele><time>2026-04-23T12:57:34.508Z</time></trkpt><trkpt lat="39.8394317" lon="9.0166883"><ele>307.0</ele><time>2026-04-23T12:57:35.509Z</time></trkpt><trkpt lat="39.8394933" lon="9.0169483"><ele>306.0</ele><time>2026-04-23T12:57:36.508Z</time></trkpt><trkpt lat="39.8395483" lon="9.017215"><ele>306.0</ele><time>2026-04-23T12:57:37.509Z</time></trkpt><trkpt lat="39.8396083" lon="9.017485"><ele>306.0</ele><time>2026-04-23T12:57:38.508Z</time></trkpt><trkpt lat="39.839665" lon="9.0177567"><ele>306.0</ele><time>2026-04-23T12:57:39.509Z</time></trkpt><trkpt lat="39.839725" lon="9.0180283"><ele>306.3333333333333</ele><time>2026-04-23T12:57:40.508Z</time></trkpt><trkpt lat="39.8397883" lon="9.018295"><ele>306.66666666666663</ele><time>2026-04-23T12:57:41.509Z</time></trkpt><trkpt lat="39.83985" lon="9.01857"><ele>307.0</ele><time>2026-04-23T12:57:42.508Z</time></trkpt><trkpt lat="39.83991" lon="9.0188433"><ele>308.0</ele><time>2026-04-23T12:57:43.509Z</time></trkpt><trkpt lat="39.8399733" lon="9.0191167"><ele>309.0</ele><time>2026-04-23T12:57:44.509Z</time></trkpt><trkpt lat="39.8400333" lon="9.0193933"><ele>310.0</ele><time>2026-04-23T12:57:45.509Z</time></trkpt><trkpt lat="39.8400917" lon="9.0196667"><ele>311.66666666666663</ele><time>2026-04-23T12:57:46.508Z</time></trkpt><trkpt lat="39.8401483" lon="9.0199383"><ele>313.3333333333333</ele><time>2026-04-23T12:57:47.509Z</time></trkpt><trkpt lat="39.8402083" lon="9.0202067"><ele>315.0</ele><time>2026-04-23T12:57:48.509Z</time></trkpt><trkpt lat="39.840265" lon="9.0204717"><ele>316.0</ele><time>2026-04-23T12:57:49.508Z</time></trkpt><trkpt lat="39.8403233" lon="9.0207367"><ele>317.0</ele><time>2026-04-23T12:57:50.508Z</time></trkpt><trkpt lat="39.8403783" lon="9.0209917"><ele>318.0</ele><time>2026-04-23T12:57:51.508Z</time></trkpt><trkpt lat="39.8404317" lon="9.0212417"><ele>318.0</ele><time>2026-04-23T12:57:52.508Z</time></trkpt><trkpt lat="39.8404883" lon="9.0214883"><ele>318.0</ele><time>2026-04-23T12:57:53.508Z</time></trkpt><trkpt lat="39.8405417" lon="9.02172"><ele>318.0</ele><time>2026-04-23T12:57:54.509Z</time></trkpt><trkpt lat="39.8405967" lon="9.02195"><ele>318.0</ele><time>2026-04-23T12:57:55.508Z</time></trkpt><trkpt lat="39.8406533" lon="9.0221817"><ele>318.0</ele><time>2026-04-23T12:57:56.508Z</time></trkpt><trkpt lat="39.840705" lon="9.022415"><ele>318.0</ele><time>2026-04-23T12:57:57.508Z</time></trkpt><trkpt lat="39.8407567" lon="9.0226283"><ele>318.25</ele><time>2026-04-23T12:57:58.508Z</time></trkpt><trkpt lat="39.8408" lon="9.02283"><ele>318.5</ele><time>2026-04-23T12:57:59.509Z</time></trkpt><trkpt lat="39.8408367" lon="9.02301"><ele>318.75</ele><time>2026-04-23T12:58:00.508Z</time></trkpt><trkpt lat="39.840875" lon="9.023175"><ele>319.0</ele><time>2026-04-23T12:58:01.509Z</time></trkpt><trkpt lat="39.8409067" lon="9.023335"><ele>319.5</ele><time>2026-04-23T12:58:02.509Z</time></trkpt><trkpt lat="39.8409417" lon="9.0234933"><ele>320.0</ele><time>2026-04-23T12:58:03.509Z</time></trkpt><trkpt lat="39.8409733" lon="9.0236467"><ele>320.5</ele><time>2026-04-23T12:58:04.509Z</time></trkpt><trkpt lat="39.8410017" lon="9.0237817"><ele>321.0</ele><time>2026-04-23T12:58:05.508Z</time></trkpt><trkpt lat="39.8410367" lon="9.0238983"><ele>321.8</ele><time>2026-04-23T12:58:06.509Z</time></trkpt><trkpt lat="39.8410867" lon="9.02401"><ele>322.6</ele><time>2026-04-23T12:58:07.509Z</time></trkpt><trkpt lat="39.8411567" lon="9.0240933"><ele>323.4</ele><time>2026-04-23T12:58:08.508Z</time></trkpt><trkpt lat="39.8412583" lon="9.024165"><ele>324.2</ele><time>2026-04-23T12:58:09.509Z</time></trkpt><trkpt lat="39.841365" lon="9.0242417"><ele>325.0</ele><time>2026-04-23T12:58:10.508Z</time></trkpt><trkpt lat="39.841465" lon="9.02434"><ele>325.5</ele><time>2026-04-23T12:58:11.508Z</time></trkpt><trkpt lat="39.8415733" lon="9.02444"><ele>326.0</ele><time>2026-04-23T12:58:12.508Z</time></trkpt><trkpt lat="39.84168" lon="9.0245533"><ele>326.5</ele><time>2026-04-23T12:58:13.508Z</time></trkpt><trkpt lat="39.841785" lon="9.02468"><ele>327.0</ele><time>2026-04-23T12:58:14.508Z</time></trkpt><trkpt lat="39.841885" lon="9.024805"><ele>329.25</ele><time>2026-04-23T12:58:15.508Z</time></trkpt><trkpt lat="39.84199" lon="9.0249217"><ele>331.5</ele><time>2026-04-23T12:58:16.508Z</time></trkpt><trkpt lat="39.8421067" lon="9.025035"><ele>333.75</ele><time>2026-04-23T12:58:17.507Z</time></trkpt><trkpt lat="39.84223" lon="9.025145"><ele>336.0</ele><time>2026-04-23T12:58:18.508Z</time></trkpt><trkpt lat="39.8423433" lon="9.0252483"><ele>336.0</ele><time>2026-04-23T12:58:19.507Z</time></trkpt><trkpt lat="39.84245" lon="9.0253633"><ele>336.0</ele><time>2026-04-23T12:58:20.508Z</time></trkpt><trkpt lat="39.8425517" lon="9.0254967"><ele>336.0</ele><time>2026-04-23T12:58:21.508Z</time></trkpt><trkpt lat="39.842645" lon="9.025625"><ele>336.0</ele><time>2026-04-23T12:58:22.507Z</time></trkpt><trkpt lat="39.8427317" lon="9.0257383"><ele>336.75</ele><time>2026-04-23T12:58:23.507Z</time></trkpt><trkpt lat="39.842825" lon="9.0258467"><ele>337.5</ele><time>2026-04-23T12:58:24.507Z</time></trkpt><trkpt lat="39.8429383" lon="9.0259383"><ele>338.25</ele><time>2026-04-23T12:58:25.508Z</time></trkpt><trkpt lat="39.84306" lon="9.02603"><ele>339.0</ele><time>2026-04-23T12:58:26.508Z</time></trkpt><trkpt lat="39.8431917" lon="9.0261217"><ele>339.0</ele><time>2026-04-23T12:58:27.507Z</time></trkpt><trkpt lat="39.8433267" lon="9.02622"><ele>339.0</ele><time>2026-04-23T12:58:28.507Z</time></trkpt><trkpt lat="39.8434583" lon="9.0263217"><ele>339.0</ele><time>2026-04-23T12:58:29.507Z</time></trkpt><trkpt lat="39.843585" lon="9.026405"><ele>338.5</ele><time>2026-04-23T12:58:30.507Z</time></trkpt><trkpt lat="39.8437" lon="9.026485"><ele>338.0</ele><time>2026-04-23T12:58:31.508Z</time></trkpt><trkpt lat="39.8438117" lon="9.0265633"><ele>337.5</ele><time>2026-04-23T12:58:32.508Z</time></trkpt><trkpt lat="39.8439317" lon="9.02665"><ele>337.0</ele><time>2026-04-23T12:58:33.508Z</time></trkpt><trkpt lat="39.84406" lon="9.0267467"><ele>337.0</ele><time>2026-04-23T12:58:34.507Z</time></trkpt><trkpt lat="39.8441917" lon="9.02684"><ele>337.0</ele><time>2026-04-23T12:58:35.507Z</time></trkpt><trkpt lat="39.8443317" lon="9.02694"><ele>337.0</ele><time>2026-04-23T12:58:36.508Z</time></trkpt><trkpt lat="39.8444617" lon="9.0270283"><ele>338.5</ele><time>2026-04-23T12:58:37.507Z</time></trkpt><trkpt lat="39.8445883" lon="9.0270967"><ele>340.0</ele><time>2026-04-23T12:58:38.508Z</time></trkpt><trkpt lat="39.8447233" lon="9.0271367"><ele>341.5</ele><time>2026-04-23T12:58:39.507Z</time></trkpt><trkpt lat="39.8448683" lon="9.0271633"><ele>343.0</ele><time>2026-04-23T12:58:40.508Z</time></trkpt><trkpt lat="39.8450217" lon="9.0271683"><ele>344.0</ele><time>2026-04-23T12:58:41.507Z</time></trkpt><trkpt lat="39.845185" lon="9.0271717"><ele>345.0</ele><time>2026-04-23T12:58:42.507Z</time></trkpt><trkpt lat="39.8453333" lon="9.0271733"><ele>346.0</ele><time>2026-04-23T12:58:43.508Z</time></trkpt><trkpt lat="39.8454767" lon="9.0271633"><ele>346.0</ele><time>2026-04-23T12:58:44.508Z</time></trkpt><trkpt lat="39.8456183" lon="9.027165"><ele>346.0</ele><time>2026-04-23T12:58:45.507Z</time></trkpt><trkpt lat="39.8457667" lon="9.0271567"><ele>346.0</ele><time>2026-04-23T12:58:46.507Z</time></trkpt><trkpt lat="39.8459183" lon="9.0271483"><ele>346.0</ele><time>2026-04-23T12:58:47.507Z</time></trkpt><trkpt lat="39.84607" lon="9.0271517"><ele>347.0</ele><time>2026-04-23T12:58:48.507Z</time></trkpt><trkpt lat="39.8462333" lon="9.02714"><ele>348.0</ele><time>2026-04-23T12:58:49.508Z</time></trkpt><trkpt lat="39.8464033" lon="9.027135"><ele>349.0</ele><time>2026-04-23T12:58:50.507Z</time></trkpt><trkpt lat="39.846585" lon="9.027125"><ele>349.0</ele><time>2026-04-23T12:58:51.507Z</time></trkpt><trkpt lat="39.8467617" lon="9.02711"><ele>349.0</ele><time>2026-04-23T12:58:52.508Z</time></trkpt><trkpt lat="39.846935" lon="9.0270967"><ele>349.0</ele><time>2026-04-23T12:58:53.507Z</time></trkpt><trkpt lat="39.8471133" lon="9.0270883"><ele>351.0</ele><time>2026-04-23T12:58:54.507Z</time></trkpt><trkpt lat="39.8472817" lon="9.0270817"><ele>353.0</ele><time>2026-04-23T12:58:55.508Z</time></trkpt><trkpt lat="39.8474483" lon="9.0270733"><ele>355.0</ele><time>2026-04-23T12:58:56.507Z</time></trkpt><trkpt lat="39.8476167" lon="9.027075"><ele>355.3333333333333</ele><time>2026-04-23T12:58:57.507Z</time></trkpt><trkpt lat="39.8477833" lon="9.027065"><ele>355.6666666666667</ele><time>2026-04-23T12:58:58.507Z</time></trkpt><trkpt lat="39.847935" lon="9.027055"><ele>356.0</ele><time>2026-04-23T12:58:59.508Z</time></trkpt><trkpt lat="39.8480833" lon="9.0270517"><ele>356.0</ele><time>2026-04-23T12:59:00.507Z</time></trkpt><trkpt lat="39.84824" lon="9.02706"><ele>356.0</ele><time>2026-04-23T12:59:01.507Z</time></trkpt><trkpt lat="39.8484017" lon="9.0270667"><ele>356.0</ele><time>2026-04-23T12:59:02.508Z</time></trkpt><trkpt lat="39.84856" lon="9.0270783"><ele>357.33333333333337</ele><time>2026-04-23T12:59:03.507Z</time></trkpt><trkpt lat="39.848715" lon="9.02708"><ele>358.6666666666667</ele><time>2026-04-23T12:59:04.507Z</time></trkpt><trkpt lat="39.8488667" lon="9.02709"><ele>360.0</ele><time>2026-04-23T12:59:05.508Z</time></trkpt><trkpt lat="39.8490183" lon="9.0270983"><ele>360.0</ele><time>2026-04-23T12:59:06.507Z</time></trkpt><trkpt lat="39.84917" lon="9.027105"><ele>360.0</ele><time>2026-04-23T12:59:07.507Z</time></trkpt><trkpt lat="39.8493183" lon="9.0271167"><ele>360.0</ele><time>2026-04-23T12:59:08.508Z</time></trkpt><trkpt lat="39.8494683" lon="9.0271317"><ele>362.3333333333333</ele><time>2026-04-23T12:59:09.507Z</time></trkpt><trkpt lat="39.8496267" lon="9.0271367"><ele>364.66666666666663</ele><time>2026-04-23T12:59:10.508Z</time></trkpt><trkpt lat="39.8497833" lon="9.0271417"><ele>367.0</ele><time>2026-04-23T12:59:11.508Z</time></trkpt><trkpt lat="39.8499383" lon="9.02714"><ele>367.0</ele><time>2026-04-23T12:59:12.507Z</time></trkpt><trkpt lat="39.8501017" lon="9.0271333"><ele>367.0</ele><time>2026-04-23T12:59:13.508Z</time></trkpt><trkpt lat="39.85027" lon="9.0271233"><ele>367.0</ele><time>2026-04-23T12:59:14.508Z</time></trkpt><trkpt lat="39.850435" lon="9.0271083"><ele>367.3333333333333</ele><time>2026-04-23T12:59:15.508Z</time></trkpt><trkpt lat="39.8506033" lon="9.027095"><ele>367.6666666666667</ele><time>2026-04-23T12:59:16.508Z</time></trkpt><trkpt lat="39.8507683" lon="9.0270867"><ele>368.0</ele><time>2026-04-23T12:59:17.507Z</time></trkpt><trkpt lat="39.85093" lon="9.0270733"><ele>369.0</ele><time>2026-04-23T12:59:18.508Z</time></trkpt><trkpt lat="39.851085" lon="9.02706"><ele>370.0</ele><time>2026-04-23T12:59:19.508Z</time></trkpt><trkpt lat="39.851225" lon="9.02705"><ele>371.0</ele><time>2026-04-23T12:59:20.507Z</time></trkpt><trkpt lat="39.8513633" lon="9.02703"><ele>372.0</ele><time>2026-04-23T12:59:21.507Z</time></trkpt><trkpt lat="39.8515" lon="9.0269867"><ele>372.0</ele><time>2026-04-23T12:59:22.507Z</time></trkpt><trkpt lat="39.8516333" lon="9.0269217"><ele>372.0</ele><time>2026-04-23T12:59:23.507Z</time></trkpt><trkpt lat="39.8517667" lon="9.0268483"><ele>372.0</ele><time>2026-04-23T12:59:24.507Z</time></trkpt><trkpt lat="39.8519133" lon="9.0267767"><ele>372.0</ele><time>2026-04-23T12:59:25.507Z</time></trkpt><trkpt lat="39.8520583" lon="9.0266983"><ele>374.3333333333333</ele><time>2026-04-23T12:59:26.507Z</time></trkpt><trkpt lat="39.852205" lon="9.0266217"><ele>376.66666666666663</ele><time>2026-04-23T12:59:27.508Z</time></trkpt><trkpt lat="39.852355" lon="9.0265517"><ele>379.0</ele><time>2026-04-23T12:59:28.507Z</time></trkpt><trkpt lat="39.8525017" lon="9.0264833"><ele>377.3333333333333</ele><time>2026-04-23T12:59:29.508Z</time></trkpt><trkpt lat="39.8526533" lon="9.0264283"><ele>375.6666666666667</ele><time>2026-04-23T12:59:30.508Z</time></trkpt><trkpt lat="39.85281" lon="9.0263783"><ele>374.0</ele><time>2026-04-23T12:59:31.507Z</time></trkpt><trkpt lat="39.85297" lon="9.0263383"><ele>374.0</ele><time>2026-04-23T12:59:32.507Z</time></trkpt><trkpt lat="39.8531167" lon="9.0262983"><ele>374.0</ele><time>2026-04-23T12:59:33.507Z</time></trkpt><trkpt lat="39.8532583" lon="9.02626"><ele>374.0</ele><time>2026-04-23T12:59:34.508Z</time></trkpt><trkpt lat="39.853395" lon="9.02622"><ele>374.0</ele><time>2026-04-23T12:59:35.507Z</time></trkpt><trkpt lat="39.853535" lon="9.02618"><ele>373.25</ele><time>2026-04-23T12:59:36.507Z</time></trkpt><trkpt lat="39.8536667" lon="9.0261417"><ele>372.5</ele><time>2026-04-23T12:59:37.507Z</time></trkpt><trkpt lat="39.8538033" lon="9.0260833"><ele>371.75</ele><time>2026-04-23T12:59:38.507Z</time></trkpt><trkpt lat="39.85393" lon="9.0260267"><ele>371.0</ele><time>2026-04-23T12:59:39.508Z</time></trkpt><trkpt lat="39.8540467" lon="9.0259783"><ele>371.0</ele><time>2026-04-23T12:59:40.507Z</time></trkpt><trkpt lat="39.8541517" lon="9.025935"><ele>371.0</ele><time>2026-04-23T12:59:41.508Z</time></trkpt><trkpt lat="39.854235" lon="9.025895"><ele>371.0</ele><time>2026-04-23T12:59:42.507Z</time></trkpt><trkpt lat="39.85431" lon="9.0258567"><ele>371.0</ele><time>2026-04-23T12:59:43.507Z</time></trkpt><trkpt lat="39.854375" lon="9.0258283"><ele>371.0</ele><time>2026-04-23T12:59:44.507Z</time></trkpt><trkpt lat="39.8544333" lon="9.0257967"><ele>371.0</ele><time>2026-04-23T12:59:45.507Z</time></trkpt><trkpt lat="39.8545083" lon="9.0257517"><ele>370.0</ele><time>2026-04-23T12:59:46.507Z</time></trkpt><trkpt lat="39.854605" lon="9.0257017"><ele>369.0</ele><time>2026-04-23T12:59:47.508Z</time></trkpt><trkpt lat="39.8547117" lon="9.025645"><ele>368.0</ele><time>2026-04-23T12:59:48.507Z</time></trkpt><trkpt lat="39.854825" lon="9.0255967"><ele>367.0</ele><time>2026-04-23T12:59:49.507Z</time></trkpt><trkpt lat="39.854925" lon="9.0255483"><ele>366.0</ele><time>2026-04-23T12:59:50.507Z</time></trkpt><trkpt lat="39.85502" lon="9.025495"><ele>366.25</ele><time>2026-04-23T12:59:51.507Z</time></trkpt><trkpt lat="39.8551267" lon="9.0254417"><ele>366.5</ele><time>2026-04-23T12:59:52.507Z</time></trkpt><trkpt lat="39.8552367" lon="9.025385"><ele>366.75</ele><time>2026-04-23T12:59:53.508Z</time></trkpt><trkpt lat="39.8553433" lon="9.025335"><ele>367.0</ele><time>2026-04-23T12:59:54.507Z</time></trkpt><trkpt lat="39.8554467" lon="9.0252883"><ele>367.0</ele><time>2026-04-23T12:59:55.507Z</time></trkpt><trkpt lat="39.8555483" lon="9.0252383"><ele>367.0</ele><time>2026-04-23T12:59:56.507Z</time></trkpt><trkpt lat="39.855655" lon="9.0251917"><ele>367.0</ele><time>2026-04-23T12:59:57.507Z</time></trkpt><trkpt lat="39.8557667" lon="9.0251333"><ele>367.0</ele><time>2026-04-23T12:59:58.508Z</time></trkpt><trkpt lat="39.8558783" lon="9.0250733"><ele>367.8</ele><time>2026-04-23T12:59:59.507Z</time></trkpt><trkpt lat="39.8559917" lon="9.0250167"><ele>368.6</ele><time>2026-04-23T13:00:00.508Z</time></trkpt><trkpt lat="39.8560917" lon="9.02498"><ele>369.40000000000003</ele><time>2026-04-23T13:00:01.508Z</time></trkpt><trkpt lat="39.856185" lon="9.02497"><ele>370.20000000000005</ele><time>2026-04-23T13:00:02.507Z</time></trkpt><trkpt lat="39.8562667" lon="9.02501"><ele>371.0</ele><time>2026-04-23T13:00:03.507Z</time></trkpt><trkpt lat="39.8563367" lon="9.0250883"><ele>371.0</ele><time>2026-04-23T13:00:04.507Z</time></trkpt><trkpt lat="39.8563817" lon="9.0252033"><ele>371.0</ele><time>2026-04-23T13:00:05.508Z</time></trkpt><trkpt lat="39.8564067" lon="9.025345"><ele>371.0</ele><time>2026-04-23T13:00:06.508Z</time></trkpt><trkpt lat="39.8564183" lon="9.025495"><ele>371.0</ele><time>2026-04-23T13:00:07.508Z</time></trkpt><trkpt lat="39.85644" lon="9.0256233"><ele>371.0</ele><time>2026-04-23T13:00:08.508Z</time></trkpt><trkpt lat="39.8564933" lon="9.0257483"><ele>370.0</ele><time>2026-04-23T13:00:09.508Z</time></trkpt><trkpt lat="39.8565683" lon="9.0258567"><ele>369.0</ele><time>2026-04-23T13:00:10.507Z</time></trkpt><trkpt lat="39.85667" lon="9.02596"><ele>368.0</ele><time>2026-04-23T13:00:11.507Z</time></trkpt><trkpt lat="39.8567833" lon="9.02606"><ele>367.0</ele><time>2026-04-23T13:00:12.507Z</time></trkpt><trkpt lat="39.856905" lon="9.02615"><ele>369.5</ele><time>2026-04-23T13:00:13.507Z</time></trkpt><trkpt lat="39.8570183" lon="9.02624"><ele>372.0</ele><time>2026-04-23T13:00:14.507Z</time></trkpt><trkpt lat="39.8571283" lon="9.02633"><ele>374.5</ele><time>2026-04-23T13:00:15.507Z</time></trkpt><trkpt lat="39.8572333" lon="9.0264067"><ele>377.0</ele><time>2026-04-23T13:00:16.508Z</time></trkpt><trkpt lat="39.8573433" lon="9.026475"><ele>377.0</ele><time>2026-04-23T13:00:17.507Z</time></trkpt><trkpt lat="39.8574683" lon="9.0265333"><ele>377.0</ele><time>2026-04-23T13:00:18.507Z</time></trkpt><trkpt lat="39.8576033" lon="9.026575"><ele>377.0</ele><time>2026-04-23T13:00:19.507Z</time></trkpt><trkpt lat="39.857745" lon="9.02661"><ele>377.0</ele><time>2026-04-23T13:00:20.508Z</time></trkpt><trkpt lat="39.8578783" lon="9.0266433"><ele>372.25</ele><time>2026-04-23T13:00:21.508Z</time></trkpt><trkpt lat="39.858005" lon="9.026675"><ele>367.5</ele><time>2026-04-23T13:00:22.508Z</time></trkpt><trkpt lat="39.8581333" lon="9.026695"><ele>362.75</ele><time>2026-04-23T13:00:23.508Z</time></trkpt><trkpt lat="39.8582683" lon="9.02669"><ele>358.0</ele><time>2026-04-23T13:00:24.508Z</time></trkpt><trkpt lat="39.8584017" lon="9.026675"><ele>358.75</ele><time>2026-04-23T13:00:25.508Z</time></trkpt><trkpt lat="39.8585383" lon="9.0266433"><ele>359.5</ele><time>2026-04-23T13:00:26.507Z</time></trkpt><trkpt lat="39.85867" lon="9.0266033"><ele>360.25</ele><time>2026-04-23T13:00:27.508Z</time></trkpt><trkpt lat="39.8587817" lon="9.0265567"><ele>361.0</ele><time>2026-04-23T13:00:28.508Z</time></trkpt><trkpt lat="39.8588967" lon="9.026505"><ele>361.0</ele><time>2026-04-23T13:00:29.507Z</time></trkpt><trkpt lat="39.859005" lon="9.0264367"><ele>361.0</ele><time>2026-04-23T13:00:30.507Z</time></trkpt><trkpt lat="39.8591083" lon="9.0263633"><ele>361.0</ele><time>2026-04-23T13:00:31.507Z</time></trkpt><trkpt lat="39.8592233" lon="9.026285"><ele>361.0</ele><time>2026-04-23T13:00:32.507Z</time></trkpt><trkpt lat="39.8593333" lon="9.0261933"><ele>357.25</ele><time>2026-04-23T13:00:33.508Z</time></trkpt><trkpt lat="39.8594317" lon="9.0260967"><ele>353.5</ele><time>2026-04-23T13:00:34.507Z</time></trkpt><trkpt lat="39.85951" lon="9.02598"><ele>349.75</ele><time>2026-04-23T13:00:35.508Z</time></trkpt><trkpt lat="39.8595633" lon="9.0258617"><ele>346.0</ele><time>2026-04-23T13:00:36.508Z</time></trkpt><trkpt lat="39.8595883" lon="9.0257233"><ele>346.0</ele><time>2026-04-23T13:00:37.508Z</time></trkpt><trkpt lat="39.8595883" lon="9.0255817"><ele>346.0</ele><time>2026-04-23T13:00:38.508Z</time></trkpt><trkpt lat="39.8595733" lon="9.0254367"><ele>346.0</ele><time>2026-04-23T13:00:39.507Z</time></trkpt><trkpt lat="39.8595733" lon="9.0252983"><ele>346.0</ele><time>2026-04-23T13:00:40.508Z</time></trkpt><trkpt lat="39.8595867" lon="9.025155"><ele>346.0</ele><time>2026-04-23T13:00:41.507Z</time></trkpt><trkpt lat="39.85963" lon="9.02501"><ele>346.75</ele><time>2026-04-23T13:00:42.508Z</time></trkpt><trkpt lat="39.8596917" lon="9.0248667"><ele>347.5</ele><time>2026-04-23T13:00:43.507Z</time></trkpt><trkpt lat="39.8597583" lon="9.0247233"><ele>348.25</ele><time>2026-04-23T13:00:44.507Z</time></trkpt><trkpt lat="39.8598233" lon="9.02458"><ele>349.0</ele><time>2026-04-23T13:00:45.507Z</time></trkpt><trkpt lat="39.859895" lon="9.0244517"><ele>349.0</ele><time>2026-04-23T13:00:46.508Z</time></trkpt><trkpt lat="39.8599783" lon="9.0243383"><ele>349.0</ele><time>2026-04-23T13:00:47.508Z</time></trkpt><trkpt lat="39.8600583" lon="9.024235"><ele>349.0</ele><time>2026-04-23T13:00:48.507Z</time></trkpt><trkpt lat="39.8601283" lon="9.02415"><ele>349.0</ele><time>2026-04-23T13:00:49.507Z</time></trkpt><trkpt lat="39.8601833" lon="9.0240833"><ele>349.0</ele><time>2026-04-23T13:00:50.507Z</time></trkpt><trkpt lat="39.8602667" lon="9.02401"><ele>348.0</ele><time>2026-04-23T13:00:52.508Z</time></trkpt><trkpt lat="39.860355" lon="9.024035"><ele>347.0</ele><time>2026-04-23T13:00:54.507Z</time></trkpt><trkpt lat="39.8604083" lon="9.0241833"><ele>346.0</ele><time>2026-04-23T13:00:56.508Z</time></trkpt><trkpt lat="39.860435" lon="9.0242933"><ele>345.0</ele><time>2026-04-23T13:00:57.508Z</time></trkpt><trkpt lat="39.8604533" lon="9.0244083"><ele>344.0</ele><time>2026-04-23T13:00:58.507Z</time></trkpt><trkpt lat="39.8604717" lon="9.024525"><ele>344.0</ele><time>2026-04-23T13:00:59.507Z</time></trkpt><trkpt lat="39.8604717" lon="9.0246433"><ele>344.0</ele><time>2026-04-23T13:01:00.508Z</time></trkpt><trkpt lat="39.86047" lon="9.0247533"><ele>344.0</ele><time>2026-04-23T13:01:01.508Z</time></trkpt><trkpt lat="39.8604717" lon="9.0248633"><ele>344.0</ele><time>2026-04-23T13:01:02.507Z</time></trkpt><trkpt lat="39.8604733" lon="9.0249733"><ele>344.0</ele><time>2026-04-23T13:01:03.508Z</time></trkpt><trkpt lat="39.8604567" lon="9.0250717"><ele>344.0</ele><time>2026-04-23T13:01:04.508Z</time></trkpt><trkpt lat="39.8604533" lon="9.02516"><ele>345.0</ele><time>2026-04-23T13:01:05.508Z</time></trkpt><trkpt lat="39.860445" lon="9.0253217"><ele>346.0</ele><time>2026-04-23T13:01:07.507Z</time></trkpt><trkpt lat="39.8604567" lon="9.025405"><ele>347.0</ele><time>2026-04-23T13:01:08.508Z</time></trkpt><trkpt lat="39.86049" lon="9.025495"><ele>348.0</ele><time>2026-04-23T13:01:09.508Z</time></trkpt><trkpt lat="39.86052" lon="9.0255917"><ele>349.0</ele><time>2026-04-23T13:01:10.507Z</time></trkpt><trkpt lat="39.860555" lon="9.0256983"><ele>350.0</ele><time>2026-04-23T13:01:11.508Z</time></trkpt><trkpt lat="39.860595" lon="9.0258067"><ele>349.6</ele><time>2026-04-23T13:01:12.508Z</time></trkpt><trkpt lat="39.8606383" lon="9.0259317"><ele>349.2</ele><time>2026-04-23T13:01:13.507Z</time></trkpt><trkpt lat="39.8606783" lon="9.0260633"><ele>348.79999999999995</ele><time>2026-04-23T13:01:14.508Z</time></trkpt><trkpt lat="39.8607083" lon="9.0261783"><ele>348.4</ele><time>2026-04-23T13:01:15.507Z</time></trkpt><trkpt lat="39.8607483" lon="9.026295"><ele>348.0</ele><time>2026-04-23T13:01:16.508Z</time></trkpt><trkpt lat="39.8607917" lon="9.0264067"><ele>348.0</ele><time>2026-04-23T13:01:17.508Z</time></trkpt><trkpt lat="39.8608467" lon="9.0265083"><ele>348.0</ele><time>2026-04-23T13:01:18.507Z</time></trkpt><trkpt lat="39.8609133" lon="9.0266117"><ele>348.0</ele><time>2026-04-23T13:01:19.508Z</time></trkpt><trkpt lat="39.860975" lon="9.0267017"><ele>348.0</ele><time>2026-04-23T13:01:20.507Z</time></trkpt><trkpt lat="39.86104" lon="9.026785"><ele>348.0</ele><time>2026-04-23T13:01:21.508Z</time></trkpt><trkpt lat="39.8610983" lon="9.026875"><ele>350.8333333333333</ele><time>2026-04-23T13:01:22.507Z</time></trkpt><trkpt lat="39.861145" lon="9.026965"><ele>353.6666666666667</ele><time>2026-04-23T13:01:23.508Z</time></trkpt><trkpt lat="39.8611767" lon="9.0270667"><ele>356.5</ele><time>2026-04-23T13:01:24.507Z</time></trkpt><trkpt lat="39.8611967" lon="9.0271617"><ele>359.33333333333337</ele><time>2026-04-23T13:01:25.508Z</time></trkpt><trkpt lat="39.8612017" lon="9.0272617"><ele>362.1666666666667</ele><time>2026-04-23T13:01:26.507Z</time></trkpt><trkpt lat="39.8611933" lon="9.0273717"><ele>365.0</ele><time>2026-04-23T13:01:27.507Z</time></trkpt><trkpt lat="39.8611717" lon="9.02746"><ele>364.8571428571429</ele><time>2026-04-23T13:01:28.507Z</time></trkpt><trkpt lat="39.8611583" lon="9.0275617"><ele>364.7142857142857</ele><time>2026-04-23T13:01:29.508Z</time></trkpt><trkpt lat="39.861155" lon="9.0276567"><ele>364.57142857142856</ele><time>2026-04-23T13:01:30.507Z</time></trkpt><trkpt lat="39.861155" lon="9.0277417"><ele>364.42857142857144</ele><time>2026-04-23T13:01:31.507Z</time></trkpt><trkpt lat="39.861165" lon="9.0278333"><ele>364.2857142857143</ele><time>2026-04-23T13:01:32.507Z</time></trkpt><trkpt lat="39.8611933" lon="9.02791"><ele>364.14285714285717</ele><time>2026-04-23T13:01:33.507Z</time></trkpt><trkpt lat="39.86124" lon="9.0279817"><ele>364.0</ele><time>2026-04-23T13:01:34.508Z</time></trkpt><trkpt lat="39.861315" lon="9.0280417"><ele>364.0</ele><time>2026-04-23T13:01:35.508Z</time></trkpt><trkpt lat="39.8614033" lon="9.0281083"><ele>364.0</ele><time>2026-04-23T13:01:36.507Z</time></trkpt><trkpt lat="39.861485" lon="9.0281733"><ele>364.0</ele><time>2026-04-23T13:01:37.508Z</time></trkpt><trkpt lat="39.8615533" lon="9.028245"><ele>364.0</ele><time>2026-04-23T13:01:38.508Z</time></trkpt><trkpt lat="39.8615983" lon="9.0283117"><ele>364.0</ele><time>2026-04-23T13:01:39.508Z</time></trkpt><trkpt lat="39.861645" lon="9.0283733"><ele>364.0</ele><time>2026-04-23T13:01:40.508Z</time></trkpt><trkpt lat="39.8616967" lon="9.028435"><ele>364.3333333333333</ele><time>2026-04-23T13:01:41.507Z</time></trkpt><trkpt lat="39.861755" lon="9.0284783"><ele>364.66666666666663</ele><time>2026-04-23T13:01:42.508Z</time></trkpt><trkpt lat="39.861825" lon="9.028515"><ele>365.0</ele><time>2026-04-23T13:01:43.507Z</time></trkpt><trkpt lat="39.8619033" lon="9.0285567"><ele>365.3333333333333</ele><time>2026-04-23T13:01:44.508Z</time></trkpt><trkpt lat="39.861985" lon="9.0285883"><ele>365.6666666666667</ele><time>2026-04-23T13:01:45.508Z</time></trkpt><trkpt lat="39.8620733" lon="9.0286117"><ele>366.0</ele><time>2026-04-23T13:01:46.507Z</time></trkpt><trkpt lat="39.8621517" lon="9.0286417"><ele>366.0</ele><time>2026-04-23T13:01:47.508Z</time></trkpt><trkpt lat="39.86223" lon="9.0286617"><ele>366.0</ele><time>2026-04-23T13:01:48.507Z</time></trkpt><trkpt lat="39.8622917" lon="9.0286933"><ele>366.0</ele><time>2026-04-23T13:01:49.507Z</time></trkpt><trkpt lat="39.8624033" lon="9.028775"><ele>366.0</ele><time>2026-04-23T13:01:51.507Z</time></trkpt><trkpt lat="39.8624583" lon="9.02883"><ele>366.0</ele><time>2026-04-23T13:01:52.508Z</time></trkpt><trkpt lat="39.862505" lon="9.02891"><ele>366.0</ele><time>2026-04-23T13:01:53.507Z</time></trkpt><trkpt lat="39.86255" lon="9.029005"><ele>366.0</ele><time>2026-04-23T13:01:54.508Z</time></trkpt><trkpt lat="39.8625983" lon="9.0290883"><ele>366.0</ele><time>2026-04-23T13:01:55.508Z</time></trkpt><trkpt lat="39.862655" lon="9.0291633"><ele>366.0</ele><time>2026-04-23T13:01:56.508Z</time></trkpt><trkpt lat="39.8627317" lon="9.0292217"><ele>366.0</ele><time>2026-04-23T13:01:57.508Z</time></trkpt><trkpt lat="39.8628067" lon="9.0292717"><ele>366.0</ele><time>2026-04-23T13:01:58.508Z</time></trkpt><trkpt lat="39.862885" lon="9.0292983"><ele>366.0</ele><time>2026-04-23T13:01:59.508Z</time></trkpt><trkpt lat="39.8629567" lon="9.0293333"><ele>366.0</ele><time>2026-04-23T13:02:00.508Z</time></trkpt><trkpt lat="39.8630183" lon="9.0293633"><ele>366.0</ele><time>2026-04-23T13:02:01.508Z</time></trkpt><trkpt lat="39.8630733" lon="9.0294083"><ele>366.0</ele><time>2026-04-23T13:02:02.507Z</time></trkpt><trkpt lat="39.8631167" lon="9.0294767"><ele>366.0</ele><time>2026-04-23T13:02:03.508Z</time></trkpt><trkpt lat="39.86315" lon="9.029555"><ele>366.0</ele><time>2026-04-23T13:02:04.508Z</time></trkpt><trkpt lat="39.86318" lon="9.0296567"><ele>366.0</ele><time>2026-04-23T13:02:05.507Z</time></trkpt><trkpt lat="39.8632267" lon="9.0297567"><ele>366.0</ele><time>2026-04-23T13:02:06.507Z</time></trkpt><trkpt lat="39.8632917" lon="9.0298467"><ele>366.0</ele><time>2026-04-23T13:02:07.508Z</time></trkpt><trkpt lat="39.863375" lon="9.0299267"><ele>366.0</ele><time>2026-04-23T13:02:08.507Z</time></trkpt><trkpt lat="39.863455" lon="9.0299933"><ele>366.0</ele><time>2026-04-23T13:02:09.508Z</time></trkpt><trkpt lat="39.86353" lon="9.030045"><ele>366.0</ele><time>2026-04-23T13:02:10.508Z</time></trkpt><trkpt lat="39.8636033" lon="9.030095"><ele>366.0</ele><time>2026-04-23T13:02:11.507Z</time></trkpt><trkpt lat="39.8636683" lon="9.03014"><ele>366.0</ele><time>2026-04-23T13:02:12.507Z</time></trkpt><trkpt lat="39.8637217" lon="9.0302017"><ele>368.0</ele><time>2026-04-23T13:02:13.508Z</time></trkpt><trkpt lat="39.8637683" lon="9.0302883"><ele>370.0</ele><time>2026-04-23T13:02:14.508Z</time></trkpt><trkpt lat="39.86382" lon="9.0303817"><ele>372.0</ele><time>2026-04-23T13:02:15.508Z</time></trkpt><trkpt lat="39.8638683" lon="9.0304733"><ele>374.0</ele><time>2026-04-23T13:02:16.508Z</time></trkpt><trkpt lat="39.863915" lon="9.0305667"><ele>376.0</ele><time>2026-04-23T13:02:17.508Z</time></trkpt><trkpt lat="39.8639517" lon="9.0306533"><ele>378.0</ele><time>2026-04-23T13:02:18.507Z</time></trkpt><trkpt lat="39.863985" lon="9.0307433"><ele>376.7142857142857</ele><time>2026-04-23T13:02:19.508Z</time></trkpt><trkpt lat="39.8640133" lon="9.03083"><ele>375.42857142857144</ele><time>2026-04-23T13:02:20.507Z</time></trkpt><trkpt lat="39.8640533" lon="9.0309133"><ele>374.1428571428571</ele><time>2026-04-23T13:02:21.507Z</time></trkpt><trkpt lat="39.86411" lon="9.030975"><ele>372.8571428571429</ele><time>2026-04-23T13:02:22.507Z</time></trkpt><trkpt lat="39.8641717" lon="9.0310267"><ele>371.57142857142856</ele><time>2026-04-23T13:02:23.508Z</time></trkpt><trkpt lat="39.8642433" lon="9.0310783"><ele>370.2857142857143</ele><time>2026-04-23T13:02:24.507Z</time></trkpt><trkpt lat="39.8643033" lon="9.03113"><ele>369.0</ele><time>2026-04-23T13:02:25.507Z</time></trkpt><trkpt lat="39.86435" lon="9.0311867"><ele>369.8333333333333</ele><time>2026-04-23T13:02:26.507Z</time></trkpt><trkpt lat="39.8644133" lon="9.0313083"><ele>370.6666666666667</ele><time>2026-04-23T13:02:28.508Z</time></trkpt><trkpt lat="39.8644133" lon="9.0314367"><ele>371.5</ele><time>2026-04-23T13:02:30.507Z</time></trkpt><trkpt lat="39.864395" lon="9.0315217"><ele>372.33333333333337</ele><time>2026-04-23T13:02:31.507Z</time></trkpt><trkpt lat="39.8643717" lon="9.0316267"><ele>373.1666666666667</ele><time>2026-04-23T13:02:32.508Z</time></trkpt><trkpt lat="39.8643583" lon="9.0317333"><ele>374.0</ele><time>2026-04-23T13:02:33.507Z</time></trkpt><trkpt lat="39.8643617" lon="9.0318333"><ele>374.0</ele><time>2026-04-23T13:02:34.507Z</time></trkpt><trkpt lat="39.8643767" lon="9.0319383"><ele>374.0</ele><time>2026-04-23T13:02:35.507Z</time></trkpt><trkpt lat="39.8644083" lon="9.032035"><ele>374.0</ele><time>2026-04-23T13:02:36.508Z</time></trkpt><trkpt lat="39.864445" lon="9.0321217"><ele>374.0</ele><time>2026-04-23T13:02:37.508Z</time></trkpt><trkpt lat="39.8644717" lon="9.0322"><ele>374.0</ele><time>2026-04-23T13:02:38.507Z</time></trkpt><trkpt lat="39.8644833" lon="9.0323683"><ele>374.0</ele><time>2026-04-23T13:02:40.507Z</time></trkpt><trkpt lat="39.8644767" lon="9.0324733"><ele>374.83333333333337</ele><time>2026-04-23T13:02:41.507Z</time></trkpt><trkpt lat="39.86447" lon="9.0325817"><ele>375.6666666666667</ele><time>2026-04-23T13:02:42.508Z</time></trkpt><trkpt lat="39.8644617" lon="9.0326817"><ele>376.5</ele><time>2026-04-23T13:02:43.507Z</time></trkpt><trkpt lat="39.864475" lon="9.032775"><ele>377.3333333333333</ele><time>2026-04-23T13:02:44.508Z</time></trkpt><trkpt lat="39.8644967" lon="9.0328683"><ele>378.16666666666663</ele><time>2026-04-23T13:02:45.508Z</time></trkpt><trkpt lat="39.8645283" lon="9.0329533"><ele>379.0</ele><time>2026-04-23T13:02:46.508Z</time></trkpt><trkpt lat="39.864575" lon="9.0330417"><ele>379.0</ele><time>2026-04-23T13:02:47.507Z</time></trkpt><trkpt lat="39.86464" lon="9.0331233"><ele>379.0</ele><time>2026-04-23T13:02:48.508Z</time></trkpt><trkpt lat="39.8646967" lon="9.0332017"><ele>379.0</ele><time>2026-04-23T13:02:49.507Z</time></trkpt><trkpt lat="39.8647533" lon="9.033275"><ele>379.0</ele><time>2026-04-23T13:02:50.508Z</time></trkpt><trkpt lat="39.8647917" lon="9.033355"><ele>379.0</ele><time>2026-04-23T13:02:51.508Z</time></trkpt><trkpt lat="39.8648167" lon="9.033445"><ele>379.0</ele><time>2026-04-23T13:02:52.507Z</time></trkpt><trkpt lat="39.8648367" lon="9.0335383"><ele>378.66666666666663</ele><time>2026-04-23T13:02:53.507Z</time></trkpt><trkpt lat="39.8648617" lon="9.0336267"><ele>378.3333333333333</ele><time>2026-04-23T13:02:54.508Z</time></trkpt><trkpt lat="39.8649017" lon="9.0337217"><ele>378.0</ele><time>2026-04-23T13:02:55.508Z</time></trkpt><trkpt lat="39.86496" lon="9.0337967"><ele>377.6666666666667</ele><time>2026-04-23T13:02:56.508Z</time></trkpt><trkpt lat="39.8650317" lon="9.03386"><ele>377.33333333333337</ele><time>2026-04-23T13:02:57.508Z</time></trkpt><trkpt lat="39.8651083" lon="9.03392"><ele>377.0</ele><time>2026-04-23T13:02:58.507Z</time></trkpt><trkpt lat="39.8651783" lon="9.0339517"><ele>377.5</ele><time>2026-04-23T13:02:59.508Z</time></trkpt><trkpt lat="39.8652567" lon="9.033995"><ele>378.0</ele><time>2026-04-23T13:03:00.508Z</time></trkpt><trkpt lat="39.86533" lon="9.0340433"><ele>378.5</ele><time>2026-04-23T13:03:01.507Z</time></trkpt><trkpt lat="39.8653917" lon="9.0340817"><ele>379.0</ele><time>2026-04-23T13:03:02.508Z</time></trkpt><trkpt lat="39.8654433" lon="9.034135"><ele>379.5</ele><time>2026-04-23T13:03:03.508Z</time></trkpt><trkpt lat="39.8654967" lon="9.0341983"><ele>380.0</ele><time>2026-04-23T13:03:04.508Z</time></trkpt><trkpt lat="39.8655483" lon="9.0342767"><ele>380.0</ele><time>2026-04-23T13:03:05.507Z</time></trkpt><trkpt lat="39.8655883" lon="9.03437"><ele>380.0</ele><time>2026-04-23T13:03:06.508Z</time></trkpt><trkpt lat="39.86562" lon="9.0344633"><ele>380.0</ele><time>2026-04-23T13:03:07.508Z</time></trkpt><trkpt lat="39.8656633" lon="9.0345517"><ele>380.0</ele><time>2026-04-23T13:03:08.508Z</time></trkpt><trkpt lat="39.8657267" lon="9.0346133"><ele>380.0</ele><time>2026-04-23T13:03:09.508Z</time></trkpt><trkpt lat="39.8658" lon="9.0346667"><ele>380.0</ele><time>2026-04-23T13:03:10.507Z</time></trkpt><trkpt lat="39.8658683" lon="9.03472"><ele>380.0</ele><time>2026-04-23T13:03:11.507Z</time></trkpt><trkpt lat="39.8659267" lon="9.0347883"><ele>380.0</ele><time>2026-04-23T13:03:12.507Z</time></trkpt><trkpt lat="39.8659833" lon="9.0348667"><ele>380.0</ele><time>2026-04-23T13:03:13.507Z</time></trkpt><trkpt lat="39.86604" lon="9.034945"><ele>380.0</ele><time>2026-04-23T13:03:14.507Z</time></trkpt><trkpt lat="39.8660883" lon="9.0350133"><ele>380.0</ele><time>2026-04-23T13:03:15.508Z</time></trkpt><trkpt lat="39.86613" lon="9.035085"><ele>380.0</ele><time>2026-04-23T13:03:16.507Z</time></trkpt><trkpt lat="39.8661733" lon="9.0351533"><ele>381.0</ele><time>2026-04-23T13:03:17.508Z</time></trkpt><trkpt lat="39.8662167" lon="9.0353083"><ele>382.0</ele><time>2026-04-23T13:03:19.507Z</time></trkpt><trkpt lat="39.86621" lon="9.0354383"><ele>383.0</ele><time>2026-04-23T13:03:21.507Z</time></trkpt><trkpt lat="39.8661667" lon="9.0355233"><ele>384.0</ele><time>2026-04-23T13:03:24.508Z</time></trkpt><trkpt lat="39.8661533" lon="9.0356317"><ele>385.0</ele><time>2026-04-23T13:03:26.507Z</time></trkpt><trkpt lat="39.866195" lon="9.035745"><ele>385.0</ele><time>2026-04-23T13:03:28.508Z</time></trkpt><trkpt lat="39.8661967" lon="9.0359017"><ele>385.0</ele><time>2026-04-23T13:03:30.507Z</time></trkpt><trkpt lat="39.8661883" lon="9.036015"><ele>385.0</ele><time>2026-04-23T13:03:31.508Z</time></trkpt><trkpt lat="39.8661833" lon="9.0361283"><ele>385.0</ele><time>2026-04-23T13:03:32.507Z</time></trkpt><trkpt lat="39.866185" lon="9.036255"><ele>385.0</ele><time>2026-04-23T13:03:33.507Z</time></trkpt><trkpt lat="39.866185" lon="9.0363783"><ele>385.0</ele><time>2026-04-23T13:03:34.507Z</time></trkpt><trkpt lat="39.86619" lon="9.0364983"><ele>385.0</ele><time>2026-04-23T13:03:35.507Z</time></trkpt><trkpt lat="39.8661833" lon="9.0365867"><ele>385.0</ele><time>2026-04-23T13:03:36.507Z</time></trkpt><trkpt lat="39.8661383" lon="9.0367183"><ele>385.0</ele><time>2026-04-23T13:03:38.508Z</time></trkpt><trkpt lat="39.866055" lon="9.03682"><ele>385.0</ele><time>2026-04-23T13:03:40.507Z</time></trkpt><trkpt lat="39.8659917" lon="9.0368783"><ele>387.1666666666667</ele><time>2026-04-23T13:03:41.507Z</time></trkpt><trkpt lat="39.8659283" lon="9.0369317"><ele>389.33333333333337</ele><time>2026-04-23T13:03:42.508Z</time></trkpt><trkpt lat="39.865845" lon="9.0369733"><ele>391.5</ele><time>2026-04-23T13:03:43.508Z</time></trkpt><trkpt lat="39.865755" lon="9.0370167"><ele>393.66666666666663</ele><time>2026-04-23T13:03:44.508Z</time></trkpt><trkpt lat="39.8656667" lon="9.0370583"><ele>395.8333333333333</ele><time>2026-04-23T13:03:45.507Z</time></trkpt><trkpt lat="39.8655867" lon="9.0370967"><ele>398.0</ele><time>2026-04-23T13:03:46.508Z</time></trkpt><trkpt lat="39.8655017" lon="9.0371367"><ele>397.99999999999994</ele><time>2026-04-23T13:03:47.507Z</time></trkpt><trkpt lat="39.8654167" lon="9.0371583"><ele>398.0</ele><time>2026-04-23T13:03:48.508Z</time></trkpt><trkpt lat="39.8653417" lon="9.0371983"><ele>398.0</ele><time>2026-04-23T13:03:49.508Z</time></trkpt><trkpt lat="39.865265" lon="9.0372433"><ele>398.0</ele><time>2026-04-23T13:03:50.507Z</time></trkpt><trkpt lat="39.8651867" lon="9.0373"><ele>397.99999999999994</ele><time>2026-04-23T13:03:51.508Z</time></trkpt><trkpt lat="39.86511" lon="9.0373717"><ele>398.0</ele><time>2026-04-23T13:03:52.507Z</time></trkpt><trkpt lat="39.8650383" lon="9.0374417"><ele>401.2</ele><time>2026-04-23T13:03:53.508Z</time></trkpt><trkpt lat="39.8649617" lon="9.0375017"><ele>404.4</ele><time>2026-04-23T13:03:54.508Z</time></trkpt><trkpt lat="39.86488" lon="9.0375517"><ele>407.59999999999997</ele><time>2026-04-23T13:03:55.507Z</time></trkpt><trkpt lat="39.8648083" lon="9.0376133"><ele>410.79999999999995</ele><time>2026-04-23T13:03:56.507Z</time></trkpt><trkpt lat="39.8647367" lon="9.0376917"><ele>414.0</ele><time>2026-04-23T13:03:57.507Z</time></trkpt><trkpt lat="39.8646667" lon="9.0377817"><ele>414.0</ele><time>2026-04-23T13:03:58.507Z</time></trkpt><trkpt lat="39.8646017" lon="9.0378767"><ele>414.0</ele><time>2026-04-23T13:03:59.508Z</time></trkpt><trkpt lat="39.8645367" lon="9.0379717"><ele>414.0</ele><time>2026-04-23T13:04:00.507Z</time></trkpt><trkpt lat="39.8644667" lon="9.038045"><ele>414.0</ele><time>2026-04-23T13:04:01.507Z</time></trkpt><trkpt lat="39.864395" lon="9.0381067"><ele>414.0</ele><time>2026-04-23T13:04:02.507Z</time></trkpt><trkpt lat="39.86432" lon="9.0381567"><ele>416.5</ele><time>2026-04-23T13:04:03.507Z</time></trkpt><trkpt lat="39.8642417" lon="9.0382033"><ele>419.0</ele><time>2026-04-23T13:04:04.508Z</time></trkpt><trkpt lat="39.8641767" lon="9.03824"><ele>421.5</ele><time>2026-04-23T13:04:05.508Z</time></trkpt><trkpt lat="39.864105" lon="9.0382617"><ele>424.0</ele><time>2026-04-23T13:04:06.507Z</time></trkpt><trkpt lat="39.8640283" lon="9.0382883"><ele>426.5</ele><time>2026-04-23T13:04:07.507Z</time></trkpt><trkpt lat="39.8639483" lon="9.0383283"><ele>429.0</ele><time>2026-04-23T13:04:08.508Z</time></trkpt><trkpt lat="39.8638717" lon="9.0383683"><ele>429.0</ele><time>2026-04-23T13:04:09.507Z</time></trkpt><trkpt lat="39.8637983" lon="9.0384017"><ele>429.0</ele><time>2026-04-23T13:04:10.507Z</time></trkpt><trkpt lat="39.86373" lon="9.0384117"><ele>429.0</ele><time>2026-04-23T13:04:11.508Z</time></trkpt><trkpt lat="39.8636667" lon="9.0384167"><ele>429.0</ele><time>2026-04-23T13:04:12.507Z</time></trkpt><trkpt lat="39.8635467" lon="9.0384533"><ele>429.0</ele><time>2026-04-23T13:04:14.507Z</time></trkpt><trkpt lat="39.8634917" lon="9.038505"><ele>429.0</ele><time>2026-04-23T13:04:15.507Z</time></trkpt><trkpt lat="39.86345" lon="9.0385833"><ele>431.1666666666667</ele><time>2026-04-23T13:04:16.507Z</time></trkpt><trkpt lat="39.863405" lon="9.0386683"><ele>433.33333333333337</ele><time>2026-04-23T13:04:17.507Z</time></trkpt><trkpt lat="39.8633633" lon="9.0387767"><ele>435.5</ele><time>2026-04-23T13:04:18.508Z</time></trkpt><trkpt lat="39.8633267" lon="9.0388767"><ele>437.6666666666667</ele><time>2026-04-23T13:04:19.507Z</time></trkpt><trkpt lat="39.8632833" lon="9.03899"><ele>439.83333333333337</ele><time>2026-04-23T13:04:20.507Z</time></trkpt><trkpt lat="39.8632367" lon="9.03909"><ele>442.0</ele><time>2026-04-23T13:04:21.508Z</time></trkpt><trkpt lat="39.8631867" lon="9.0391767"><ele>442.00000000000006</ele><time>2026-04-23T13:04:22.507Z</time></trkpt><trkpt lat="39.8631333" lon="9.0392533"><ele>442.0</ele><time>2026-04-23T13:04:23.508Z</time></trkpt><trkpt lat="39.8630817" lon="9.0393333"><ele>442.0</ele><time>2026-04-23T13:04:24.507Z</time></trkpt><trkpt lat="39.8630167" lon="9.0394033"><ele>442.0</ele><time>2026-04-23T13:04:25.508Z</time></trkpt><trkpt lat="39.8629433" lon="9.0394717"><ele>442.00000000000006</ele><time>2026-04-23T13:04:26.508Z</time></trkpt><trkpt lat="39.8628617" lon="9.03954"><ele>442.0</ele><time>2026-04-23T13:04:27.508Z</time></trkpt><trkpt lat="39.8627967" lon="9.0396167"><ele>442.0</ele><time>2026-04-23T13:04:28.507Z</time></trkpt><trkpt lat="39.8627367" lon="9.03969"><ele>442.00000000000006</ele><time>2026-04-23T13:04:29.508Z</time></trkpt><trkpt lat="39.8626917" lon="9.03975"><ele>442.00000000000006</ele><time>2026-04-23T13:04:30.507Z</time></trkpt><trkpt lat="39.8626567" lon="9.0399083"><ele>442.0</ele><time>2026-04-23T13:04:32.507Z</time></trkpt><trkpt lat="39.862655" lon="9.0400183"><ele>442.0</ele><time>2026-04-23T13:04:33.507Z</time></trkpt><trkpt lat="39.862645" lon="9.0401417"><ele>444.40000000000003</ele><time>2026-04-23T13:04:34.508Z</time></trkpt><trkpt lat="39.8626333" lon="9.040265"><ele>446.80000000000007</ele><time>2026-04-23T13:04:35.507Z</time></trkpt><trkpt lat="39.8626317" lon="9.0404067"><ele>449.2</ele><time>2026-04-23T13:04:36.508Z</time></trkpt><trkpt lat="39.8626317" lon="9.0405433"><ele>451.6</ele><time>2026-04-23T13:04:37.507Z</time></trkpt><trkpt lat="39.86264" lon="9.04069"><ele>454.0</ele><time>2026-04-23T13:04:38.507Z</time></trkpt><trkpt lat="39.86265" lon="9.0408367"><ele>456.6666666666667</ele><time>2026-04-23T13:04:39.507Z</time></trkpt><trkpt lat="39.86267" lon="9.0409767"><ele>459.33333333333337</ele><time>2026-04-23T13:04:40.507Z</time></trkpt><trkpt lat="39.8626883" lon="9.0410917"><ele>462.0</ele><time>2026-04-23T13:04:41.508Z</time></trkpt><trkpt lat="39.8626983" lon="9.0412017"><ele>464.66666666666663</ele><time>2026-04-23T13:04:42.507Z</time></trkpt><trkpt lat="39.8626967" lon="9.04131"><ele>467.3333333333333</ele><time>2026-04-23T13:04:43.508Z</time></trkpt><trkpt lat="39.86269" lon="9.04141"><ele>470.0</ele><time>2026-04-23T13:04:44.507Z</time></trkpt><trkpt lat="39.862685" lon="9.0415167"><ele>469.99999999999994</ele><time>2026-04-23T13:04:45.508Z</time></trkpt><trkpt lat="39.86271" lon="9.041655"><ele>470.0</ele><time>2026-04-23T13:04:47.507Z</time></trkpt><trkpt lat="39.86275" lon="9.0417267"><ele>470.0</ele><time>2026-04-23T13:04:49.508Z</time></trkpt><trkpt lat="39.8628333" lon="9.04174"><ele>470.0</ele><time>2026-04-23T13:04:51.508Z</time></trkpt><trkpt lat="39.8629383" lon="9.0416833"><ele>469.99999999999994</ele><time>2026-04-23T13:04:53.508Z</time></trkpt><trkpt lat="39.8629933" lon="9.04162"><ele>470.0</ele><time>2026-04-23T13:04:54.507Z</time></trkpt><trkpt lat="39.863055" lon="9.041525"><ele>470.0</ele><time>2026-04-23T13:04:55.507Z</time></trkpt><trkpt lat="39.8631267" lon="9.0414133"><ele>470.0</ele><time>2026-04-23T13:04:56.507Z</time></trkpt><trkpt lat="39.8632067" lon="9.0413"><ele>470.0</ele><time>2026-04-23T13:04:57.508Z</time></trkpt><trkpt lat="39.8632883" lon="9.0411867"><ele>470.0</ele><time>2026-04-23T13:04:58.508Z</time></trkpt><trkpt lat="39.8633533" lon="9.0410933"><ele>470.0</ele><time>2026-04-23T13:04:59.508Z</time></trkpt><trkpt lat="39.863385" lon="9.0409917"><ele>470.0</ele><time>2026-04-23T13:05:00.508Z</time></trkpt><trkpt lat="39.8634217" lon="9.0408817"><ele>470.0</ele><time>2026-04-23T13:05:01.507Z</time></trkpt><trkpt lat="39.8634417" lon="9.0407733"><ele>470.0</ele><time>2026-04-23T13:05:02.508Z</time></trkpt><trkpt lat="39.86347" lon="9.0406917"><ele>470.0</ele><time>2026-04-23T13:05:03.507Z</time></trkpt><trkpt lat="39.8635467" lon="9.0405517"><ele>470.0</ele><time>2026-04-23T13:05:05.507Z</time></trkpt><trkpt lat="39.8636583" lon="9.0404517"><ele>470.4</ele><time>2026-04-23T13:05:07.508Z</time></trkpt><trkpt lat="39.86375" lon="9.0404117"><ele>470.8</ele><time>2026-04-23T13:05:08.507Z</time></trkpt><trkpt lat="39.86385" lon="9.04037"><ele>471.20000000000005</ele><time>2026-04-23T13:05:09.508Z</time></trkpt><trkpt lat="39.8639417" lon="9.040335"><ele>471.6</ele><time>2026-04-23T13:05:10.508Z</time></trkpt><trkpt lat="39.8640283" lon="9.0403067"><ele>472.0</ele><time>2026-04-23T13:05:11.507Z</time></trkpt><trkpt lat="39.8641233" lon="9.04029"><ele>472.0</ele><time>2026-04-23T13:05:12.507Z</time></trkpt><trkpt lat="39.8642267" lon="9.0402733"><ele>472.00000000000006</ele><time>2026-04-23T13:05:13.507Z</time></trkpt><trkpt lat="39.8643317" lon="9.0402533"><ele>472.00000000000006</ele><time>2026-04-23T13:05:14.507Z</time></trkpt><trkpt lat="39.86443" lon="9.0402233"><ele>472.0</ele><time>2026-04-23T13:05:15.508Z</time></trkpt><trkpt lat="39.8645183" lon="9.0402"><ele>472.0</ele><time>2026-04-23T13:05:16.507Z</time></trkpt><trkpt lat="39.8645817" lon="9.0401867"><ele>471.6</ele><time>2026-04-23T13:05:17.507Z</time></trkpt><trkpt lat="39.8646683" lon="9.0402183"><ele>471.20000000000005</ele><time>2026-04-23T13:05:19.508Z</time></trkpt><trkpt lat="39.8647" lon="9.0403383"><ele>470.8</ele><time>2026-04-23T13:05:21.507Z</time></trkpt><trkpt lat="39.8646717" lon="9.0405"><ele>470.4</ele><time>2026-04-23T13:05:23.508Z</time></trkpt><trkpt lat="39.8646433" lon="9.0405783"><ele>470.0</ele><time>2026-04-23T13:05:24.508Z</time></trkpt><trkpt lat="39.8645633" lon="9.0407083"><ele>469.99999999999994</ele><time>2026-04-23T13:05:26.508Z</time></trkpt><trkpt lat="39.864515" lon="9.04078"><ele>470.0</ele><time>2026-04-23T13:05:27.507Z</time></trkpt><trkpt lat="39.8644617" lon="9.0408583"><ele>470.0</ele><time>2026-04-23T13:05:28.508Z</time></trkpt><trkpt lat="39.8644083" lon="9.040935"><ele>470.0</ele><time>2026-04-23T13:05:29.507Z</time></trkpt><trkpt lat="39.864355" lon="9.04101"><ele>469.99999999999994</ele><time>2026-04-23T13:05:30.508Z</time></trkpt><trkpt lat="39.8643133" lon="9.0410833"><ele>470.0</ele><time>2026-04-23T13:05:31.508Z</time></trkpt><trkpt lat="39.864265" lon="9.0411533"><ele>473.8</ele><time>2026-04-23T13:05:32.508Z</time></trkpt><trkpt lat="39.8641967" lon="9.0413"><ele>477.6</ele><time>2026-04-23T13:05:34.508Z</time></trkpt><trkpt lat="39.8641683" lon="9.0413767"><ele>481.4</ele><time>2026-04-23T13:05:35.508Z</time></trkpt><trkpt lat="39.8641167" lon="9.0415"><ele>485.2</ele><time>2026-04-23T13:05:37.507Z</time></trkpt><trkpt lat="39.8640683" lon="9.04163"><ele>489.0</ele><time>2026-04-23T13:05:39.507Z</time></trkpt><trkpt lat="39.86404" lon="9.041705"><ele>490.0</ele><time>2026-04-23T13:05:40.507Z</time></trkpt><trkpt lat="39.863995" lon="9.0417867"><ele>491.0</ele><time>2026-04-23T13:05:41.508Z</time></trkpt><trkpt lat="39.8639517" lon="9.0418617"><ele>492.0</ele><time>2026-04-23T13:05:42.507Z</time></trkpt><trkpt lat="39.8639033" lon="9.0419333"><ele>493.0</ele><time>2026-04-23T13:05:43.507Z</time></trkpt><trkpt lat="39.863855" lon="9.0420067"><ele>494.0</ele><time>2026-04-23T13:05:44.508Z</time></trkpt><trkpt lat="39.8638133" lon="9.0420717"><ele>495.0</ele><time>2026-04-23T13:05:45.508Z</time></trkpt><trkpt lat="39.8637683" lon="9.0422233"><ele>494.99999999999994</ele><time>2026-04-23T13:05:47.507Z</time></trkpt><trkpt lat="39.8637483" lon="9.04232"><ele>495.0</ele><time>2026-04-23T13:05:48.507Z</time></trkpt><trkpt lat="39.8637367" lon="9.0424183"><ele>494.99999999999994</ele><time>2026-04-23T13:05:49.507Z</time></trkpt><trkpt lat="39.8637283" lon="9.04252"><ele>494.99999999999994</ele><time>2026-04-23T13:05:50.508Z</time></trkpt><trkpt lat="39.86373" lon="9.0426117"><ele>495.0</ele><time>2026-04-23T13:05:51.507Z</time></trkpt><trkpt lat="39.863715" lon="9.0427033"><ele>494.99999999999994</ele><time>2026-04-23T13:05:52.508Z</time></trkpt><trkpt lat="39.8636883" lon="9.0427833"><ele>494.99999999999994</ele><time>2026-04-23T13:05:53.507Z</time></trkpt><trkpt lat="39.8636517" lon="9.042855"><ele>495.3333333333333</ele><time>2026-04-23T13:05:54.507Z</time></trkpt><trkpt lat="39.863605" lon="9.04292"><ele>495.66666666666663</ele><time>2026-04-23T13:05:55.508Z</time></trkpt><trkpt lat="39.8635567" lon="9.042985"><ele>496.0</ele><time>2026-04-23T13:05:56.507Z</time></trkpt><trkpt lat="39.863505" lon="9.0430533"><ele>496.3333333333333</ele><time>2026-04-23T13:05:57.508Z</time></trkpt><trkpt lat="39.8634583" lon="9.0431433"><ele>496.66666666666663</ele><time>2026-04-23T13:05:58.508Z</time></trkpt><trkpt lat="39.86342" lon="9.0432367"><ele>497.0</ele><time>2026-04-23T13:05:59.507Z</time></trkpt><trkpt lat="39.8633883" lon="9.0433433"><ele>498.49999999999994</ele><time>2026-04-23T13:06:00.507Z</time></trkpt><trkpt lat="39.8633633" lon="9.04345"><ele>500.0</ele><time>2026-04-23T13:06:01.507Z</time></trkpt><trkpt lat="39.8633367" lon="9.0435533"><ele>501.5</ele><time>2026-04-23T13:06:02.508Z</time></trkpt><trkpt lat="39.863315" lon="9.0436567"><ele>503.0</ele><time>2026-04-23T13:06:03.508Z</time></trkpt><trkpt lat="39.8632967" lon="9.043765"><ele>504.49999999999994</ele><time>2026-04-23T13:06:04.507Z</time></trkpt><trkpt lat="39.8632833" lon="9.043865"><ele>506.0</ele><time>2026-04-23T13:06:05.507Z</time></trkpt><trkpt lat="39.863275" lon="9.0439617"><ele>506.00000000000006</ele><time>2026-04-23T13:06:06.507Z</time></trkpt><trkpt lat="39.8632667" lon="9.0440433"><ele>506.0</ele><time>2026-04-23T13:06:07.507Z</time></trkpt><trkpt lat="39.86327" lon="9.0441283"><ele>506.00000000000006</ele><time>2026-04-23T13:06:08.507Z</time></trkpt><trkpt lat="39.8632783" lon="9.044215"><ele>506.00000000000006</ele><time>2026-04-23T13:06:09.507Z</time></trkpt><trkpt lat="39.863295" lon="9.0442983"><ele>506.0</ele><time>2026-04-23T13:06:10.508Z</time></trkpt><trkpt lat="39.8633233" lon="9.0443783"><ele>506.00000000000006</ele><time>2026-04-23T13:06:11.508Z</time></trkpt><trkpt lat="39.8633567" lon="9.0444617"><ele>506.00000000000006</ele><time>2026-04-23T13:06:12.508Z</time></trkpt><trkpt lat="39.8634" lon="9.0445417"><ele>507.3333333333333</ele><time>2026-04-23T13:06:13.508Z</time></trkpt><trkpt lat="39.863445" lon="9.0446083"><ele>508.66666666666663</ele><time>2026-04-23T13:06:14.508Z</time></trkpt><trkpt lat="39.8635" lon="9.0446483"><ele>510.0</ele><time>2026-04-23T13:06:15.508Z</time></trkpt><trkpt lat="39.8635667" lon="9.0446633"><ele>511.33333333333337</ele><time>2026-04-23T13:06:16.508Z</time></trkpt><trkpt lat="39.8636383" lon="9.0446717"><ele>512.6666666666667</ele><time>2026-04-23T13:06:17.508Z</time></trkpt><trkpt lat="39.863745" lon="9.04472"><ele>514.0</ele><time>2026-04-23T13:06:19.508Z</time></trkpt><trkpt lat="39.8637867" lon="9.0448283"><ele>514.0</ele><time>2026-04-23T13:06:21.508Z</time></trkpt><trkpt lat="39.86376" lon="9.0449583"><ele>514.0</ele><time>2026-04-23T13:06:23.507Z</time></trkpt><trkpt lat="39.8637167" lon="9.0451133"><ele>514.0</ele><time>2026-04-23T13:06:25.508Z</time></trkpt><trkpt lat="39.8637033" lon="9.0452"><ele>514.0</ele><time>2026-04-23T13:06:26.508Z</time></trkpt><trkpt lat="39.8636867" lon="9.04531"><ele>514.0</ele><time>2026-04-23T13:06:27.508Z</time></trkpt><trkpt lat="39.86366" lon="9.045435"><ele>515.3333333333334</ele><time>2026-04-23T13:06:28.507Z</time></trkpt><trkpt lat="39.8636367" lon="9.0455567"><ele>516.6666666666667</ele><time>2026-04-23T13:06:29.507Z</time></trkpt><trkpt lat="39.8636167" lon="9.0456517"><ele>518.0</ele><time>2026-04-23T13:06:30.508Z</time></trkpt><trkpt lat="39.863605" lon="9.0457833"><ele>519.3333333333334</ele><time>2026-04-23T13:06:32.508Z</time></trkpt><trkpt lat="39.863615" lon="9.0458817"><ele>520.6666666666666</ele><time>2026-04-23T13:06:34.507Z</time></trkpt><trkpt lat="39.8636133" lon="9.046"><ele>522.0</ele><time>2026-04-23T13:06:36.508Z</time></trkpt><trkpt lat="39.8636233" lon="9.046095"><ele>522.6666666666666</ele><time>2026-04-23T13:06:37.507Z</time></trkpt><trkpt lat="39.8636417" lon="9.0462033"><ele>523.3333333333334</ele><time>2026-04-23T13:06:38.507Z</time></trkpt><trkpt lat="39.8636667" lon="9.0463233"><ele>524.0</ele><time>2026-04-23T13:06:39.508Z</time></trkpt><trkpt lat="39.86368" lon="9.0464317"><ele>524.6666666666667</ele><time>2026-04-23T13:06:40.508Z</time></trkpt><trkpt lat="39.8636933" lon="9.0465383"><ele>525.3333333333334</ele><time>2026-04-23T13:06:41.507Z</time></trkpt><trkpt lat="39.86371" lon="9.046635"><ele>526.0</ele><time>2026-04-23T13:06:42.508Z</time></trkpt><trkpt lat="39.8637183" lon="9.0467317"><ele>526.8333333333334</ele><time>2026-04-23T13:06:43.508Z</time></trkpt><trkpt lat="39.8637217" lon="9.04682"><ele>527.6666666666667</ele><time>2026-04-23T13:06:44.508Z</time></trkpt><trkpt lat="39.8637217" lon="9.0469167"><ele>528.5</ele><time>2026-04-23T13:06:45.508Z</time></trkpt><trkpt lat="39.863715" lon="9.04701"><ele>529.3333333333334</ele><time>2026-04-23T13:06:46.507Z</time></trkpt><trkpt lat="39.8637183" lon="9.0471483"><ele>530.1666666666666</ele><time>2026-04-23T13:06:48.507Z</time></trkpt><trkpt lat="39.863705" lon="9.04726"><ele>531.0</ele><time>2026-04-23T13:06:50.508Z</time></trkpt><trkpt lat="39.8636467" lon="9.0474017"><ele>531.5714285714286</ele><time>2026-04-23T13:06:52.507Z</time></trkpt><trkpt lat="39.86361" lon="9.04747"><ele>532.1428571428572</ele><time>2026-04-23T13:06:53.507Z</time></trkpt><trkpt lat="39.863565" lon="9.0475283"><ele>532.7142857142858</ele><time>2026-04-23T13:06:54.507Z</time></trkpt><trkpt lat="39.8635067" lon="9.0475717"><ele>533.2857142857143</ele><time>2026-04-23T13:06:55.507Z</time></trkpt><trkpt lat="39.8634433" lon="9.047615"><ele>533.8571428571429</ele><time>2026-04-23T13:06:56.507Z</time></trkpt><trkpt lat="39.8633767" lon="9.0476583"><ele>534.4285714285714</ele><time>2026-04-23T13:06:57.507Z</time></trkpt><trkpt lat="39.86331" lon="9.0477067"><ele>535.0</ele><time>2026-04-23T13:06:58.508Z</time></trkpt><trkpt lat="39.8632367" lon="9.0477517"><ele>537.3333333333334</ele><time>2026-04-23T13:06:59.507Z</time></trkpt><trkpt lat="39.8631733" lon="9.0477917"><ele>539.6666666666667</ele><time>2026-04-23T13:07:00.507Z</time></trkpt><trkpt lat="39.8631033" lon="9.0478217"><ele>542.0</ele><time>2026-04-23T13:07:01.508Z</time></trkpt><trkpt lat="39.8630417" lon="9.0478483"><ele>544.3333333333334</ele><time>2026-04-23T13:07:02.507Z</time></trkpt><trkpt lat="39.8629817" lon="9.0478883"><ele>546.6666666666666</ele><time>2026-04-23T13:07:03.508Z</time></trkpt><trkpt lat="39.8628833" lon="9.047955"><ele>549.0</ele><time>2026-04-23T13:07:05.507Z</time></trkpt><trkpt lat="39.8628167" lon="9.0479667"><ele>549.0</ele><time>2026-04-23T13:07:06.507Z</time></trkpt><trkpt lat="39.8627467" lon="9.0479633"><ele>549.0</ele><time>2026-04-23T13:07:07.507Z</time></trkpt><trkpt lat="39.8626717" lon="9.047965"><ele>549.0</ele><time>2026-04-23T13:07:08.508Z</time></trkpt><trkpt lat="39.8625883" lon="9.0479683"><ele>549.0</ele><time>2026-04-23T13:07:09.508Z</time></trkpt><trkpt lat="39.8625217" lon="9.047975"><ele>549.0</ele><time>2026-04-23T13:07:10.507Z</time></trkpt><trkpt lat="39.862435" lon="9.048025"><ele>549.0</ele><time>2026-04-23T13:07:12.507Z</time></trkpt><trkpt lat="39.8624183" lon="9.0481233"><ele>549.4</ele><time>2026-04-23T13:07:14.508Z</time></trkpt><trkpt lat="39.8624417" lon="9.0482633"><ele>549.8</ele><time>2026-04-23T13:07:16.507Z</time></trkpt><trkpt lat="39.8624967" lon="9.0483733"><ele>550.2</ele><time>2026-04-23T13:07:18.507Z</time></trkpt><trkpt lat="39.86261" lon="9.0484217"><ele>550.6</ele><time>2026-04-23T13:07:20.508Z</time></trkpt><trkpt lat="39.8626883" lon="9.0484367"><ele>551.0</ele><time>2026-04-23T13:07:21.508Z</time></trkpt><trkpt lat="39.8627717" lon="9.0484467"><ele>552.0</ele><time>2026-04-23T13:07:22.507Z</time></trkpt><trkpt lat="39.8628517" lon="9.0484667"><ele>553.0</ele><time>2026-04-23T13:07:23.507Z</time></trkpt><trkpt lat="39.8629167" lon="9.04848"><ele>554.0</ele><time>2026-04-23T13:07:24.508Z</time></trkpt><trkpt lat="39.863035" lon="9.0485567"><ele>555.0</ele><time>2026-04-23T13:07:26.507Z</time></trkpt><trkpt lat="39.86309" lon="9.0486217"><ele>556.0</ele><time>2026-04-23T13:07:27.507Z</time></trkpt><trkpt lat="39.8631417" lon="9.0487017"><ele>557.0</ele><time>2026-04-23T13:07:28.508Z</time></trkpt><trkpt lat="39.8631933" lon="9.0487967"><ele>557.0</ele><time>2026-04-23T13:07:29.507Z</time></trkpt><trkpt lat="39.8632417" lon="9.0489067"><ele>557.0</ele><time>2026-04-23T13:07:30.508Z</time></trkpt><trkpt lat="39.8632883" lon="9.0490233"><ele>557.0</ele><time>2026-04-23T13:07:31.508Z</time></trkpt><trkpt lat="39.863335" lon="9.0491417"><ele>557.0</ele><time>2026-04-23T13:07:32.507Z</time></trkpt><trkpt lat="39.863375" lon="9.0492533"><ele>557.0</ele><time>2026-04-23T13:07:33.507Z</time></trkpt><trkpt lat="39.86341" lon="9.0493633"><ele>558.6</ele><time>2026-04-23T13:07:34.507Z</time></trkpt><trkpt lat="39.8634517" lon="9.0494683"><ele>560.2</ele><time>2026-04-23T13:07:35.508Z</time></trkpt><trkpt lat="39.8634983" lon="9.0495733"><ele>561.8</ele><time>2026-04-23T13:07:36.507Z</time></trkpt><trkpt lat="39.8635567" lon="9.0496767"><ele>563.4</ele><time>2026-04-23T13:07:37.508Z</time></trkpt><trkpt lat="39.86361" lon="9.0497683"><ele>565.0</ele><time>2026-04-23T13:07:38.508Z</time></trkpt><trkpt lat="39.8636633" lon="9.049865"><ele>565.0</ele><time>2026-04-23T13:07:39.507Z</time></trkpt><trkpt lat="39.863715" lon="9.049955"><ele>565.0</ele><time>2026-04-23T13:07:40.507Z</time></trkpt><trkpt lat="39.8637667" lon="9.050045"><ele>565.0</ele><time>2026-04-23T13:07:41.507Z</time></trkpt><trkpt lat="39.8638133" lon="9.0501433"><ele>565.0</ele><time>2026-04-23T13:07:42.508Z</time></trkpt><trkpt lat="39.863855" lon="9.0502433"><ele>565.0</ele><time>2026-04-23T13:07:43.507Z</time></trkpt><trkpt lat="39.8638983" lon="9.0503433"><ele>565.0</ele><time>2026-04-23T13:07:44.507Z</time></trkpt><trkpt lat="39.863945" lon="9.05045"><ele>567.0</ele><time>2026-04-23T13:07:45.508Z</time></trkpt><trkpt lat="39.8639917" lon="9.0505533"><ele>569.0</ele><time>2026-04-23T13:07:46.508Z</time></trkpt><trkpt lat="39.8640433" lon="9.050655"><ele>571.0</ele><time>2026-04-23T13:07:47.507Z</time></trkpt><trkpt lat="39.8640833" lon="9.050765"><ele>573.0</ele><time>2026-04-23T13:07:48.508Z</time></trkpt><trkpt lat="39.864125" lon="9.0508717"><ele>575.0</ele><time>2026-04-23T13:07:49.508Z</time></trkpt><trkpt lat="39.8641617" lon="9.0509767"><ele>576.6666666666666</ele><time>2026-04-23T13:07:50.507Z</time></trkpt><trkpt lat="39.8641983" lon="9.0510767"><ele>578.3333333333333</ele><time>2026-04-23T13:07:51.508Z</time></trkpt><trkpt lat="39.8642283" lon="9.0511683"><ele>580.0</ele><time>2026-04-23T13:07:52.508Z</time></trkpt><trkpt lat="39.8642467" lon="9.0512667"><ele>581.6666666666666</ele><time>2026-04-23T13:07:53.508Z</time></trkpt><trkpt lat="39.8642583" lon="9.0513683"><ele>583.3333333333334</ele><time>2026-04-23T13:07:54.508Z</time></trkpt><trkpt lat="39.8642567" lon="9.051465"><ele>585.0</ele><time>2026-04-23T13:07:55.507Z</time></trkpt><trkpt lat="39.864245" lon="9.0515717"><ele>586.1428571428571</ele><time>2026-04-23T13:07:56.507Z</time></trkpt><trkpt lat="39.8642217" lon="9.0516733"><ele>587.2857142857142</ele><time>2026-04-23T13:07:57.507Z</time></trkpt><trkpt lat="39.8641933" lon="9.0517733"><ele>588.4285714285713</ele><time>2026-04-23T13:07:58.507Z</time></trkpt><trkpt lat="39.864185" lon="9.051875"><ele>589.5714285714286</ele><time>2026-04-23T13:07:59.508Z</time></trkpt><trkpt lat="39.8641717" lon="9.05197"><ele>590.7142857142857</ele><time>2026-04-23T13:08:00.507Z</time></trkpt><trkpt lat="39.8641517" lon="9.0520517"><ele>591.8571428571428</ele><time>2026-04-23T13:08:01.507Z</time></trkpt><trkpt lat="39.864125" lon="9.05213"><ele>593.0</ele><time>2026-04-23T13:08:02.507Z</time></trkpt><trkpt lat="39.8640617" lon="9.0522533"><ele>593.0</ele><time>2026-04-23T13:08:04.507Z</time></trkpt><trkpt lat="39.864055" lon="9.0523933"><ele>593.0</ele><time>2026-04-23T13:08:06.507Z</time></trkpt><trkpt lat="39.8640667" lon="9.0524783"><ele>593.0</ele><time>2026-04-23T13:08:07.508Z</time></trkpt><trkpt lat="39.8640967" lon="9.052565"><ele>593.0</ele><time>2026-04-23T13:08:08.508Z</time></trkpt><trkpt lat="39.86413" lon="9.05264"><ele>593.0</ele><time>2026-04-23T13:08:09.508Z</time></trkpt><trkpt lat="39.8641533" lon="9.0527617"><ele>593.0</ele><time>2026-04-23T13:08:11.508Z</time></trkpt><trkpt lat="39.8641317" lon="9.05286"><ele>595.1999999999999</ele><time>2026-04-23T13:08:13.507Z</time></trkpt><trkpt lat="39.864055" lon="9.0529767"><ele>597.4</ele><time>2026-04-23T13:08:15.507Z</time></trkpt><trkpt lat="39.8639817" lon="9.0530333"><ele>599.5999999999999</ele><time>2026-04-23T13:08:16.507Z</time></trkpt><trkpt lat="39.863895" lon="9.0530883"><ele>601.8</ele><time>2026-04-23T13:08:17.507Z</time></trkpt><trkpt lat="39.8638" lon="9.0531317"><ele>604.0</ele><time>2026-04-23T13:08:18.507Z</time></trkpt><trkpt lat="39.8637017" lon="9.0531567"><ele>604.0</ele><time>2026-04-23T13:08:19.508Z</time></trkpt><trkpt lat="39.86361" lon="9.05317"><ele>604.0</ele><time>2026-04-23T13:08:20.507Z</time></trkpt><trkpt lat="39.86353" lon="9.0531917"><ele>604.0</ele><time>2026-04-23T13:08:21.508Z</time></trkpt><trkpt lat="39.863465" lon="9.05322"><ele>604.0</ele><time>2026-04-23T13:08:22.508Z</time></trkpt><trkpt lat="39.863405" lon="9.053275"><ele>604.0</ele><time>2026-04-23T13:08:23.507Z</time></trkpt><trkpt lat="39.8633617" lon="9.05336"><ele>604.0</ele><time>2026-04-23T13:08:24.507Z</time></trkpt><trkpt lat="39.86332" lon="9.0534433"><ele>603.8</ele><time>2026-04-23T13:08:25.507Z</time></trkpt><trkpt lat="39.8632583" lon="9.0535183"><ele>603.5999999999999</ele><time>2026-04-23T13:08:26.508Z</time></trkpt><trkpt lat="39.8631883" lon="9.0535983"><ele>603.4</ele><time>2026-04-23T13:08:27.508Z</time></trkpt><trkpt lat="39.8631133" lon="9.0536833"><ele>603.1999999999999</ele><time>2026-04-23T13:08:28.508Z</time></trkpt><trkpt lat="39.8630317" lon="9.05377"><ele>603.0</ele><time>2026-04-23T13:08:29.507Z</time></trkpt><trkpt lat="39.8629467" lon="9.0538617"><ele>603.0</ele><time>2026-04-23T13:08:30.507Z</time></trkpt><trkpt lat="39.8628483" lon="9.0539433"><ele>603.0</ele><time>2026-04-23T13:08:31.507Z</time></trkpt><trkpt lat="39.86276" lon="9.0540217"><ele>603.0</ele><time>2026-04-23T13:08:32.507Z</time></trkpt><trkpt lat="39.8626717" lon="9.0541033"><ele>603.0</ele><time>2026-04-23T13:08:33.507Z</time></trkpt><trkpt lat="39.8625767" lon="9.0541817"><ele>603.0</ele><time>2026-04-23T13:08:34.507Z</time></trkpt><trkpt lat="39.8624833" lon="9.05427"><ele>604.5</ele><time>2026-04-23T13:08:35.507Z</time></trkpt><trkpt lat="39.8623867" lon="9.0543617"><ele>606.0</ele><time>2026-04-23T13:08:36.508Z</time></trkpt><trkpt lat="39.8622833" lon="9.054445"><ele>607.5</ele><time>2026-04-23T13:08:37.507Z</time></trkpt><trkpt lat="39.86217" lon="9.0545067"><ele>609.0</ele><time>2026-04-23T13:08:38.508Z</time></trkpt><trkpt lat="39.8620417" lon="9.0545417"><ele>609.0</ele><time>2026-04-23T13:08:39.508Z</time></trkpt><trkpt lat="39.8619117" lon="9.0545633"><ele>609.0</ele><time>2026-04-23T13:08:40.507Z</time></trkpt><trkpt lat="39.86177" lon="9.05456"><ele>609.0</ele><time>2026-04-23T13:08:41.508Z</time></trkpt><trkpt lat="39.8616333" lon="9.0545467"><ele>609.0</ele><time>2026-04-23T13:08:42.508Z</time></trkpt><trkpt lat="39.8615" lon="9.0545433"><ele>609.5</ele><time>2026-04-23T13:08:43.508Z</time></trkpt><trkpt lat="39.8613633" lon="9.0545217"><ele>610.0</ele><time>2026-04-23T13:08:44.508Z</time></trkpt><trkpt lat="39.8612233" lon="9.054505"><ele>610.5</ele><time>2026-04-23T13:08:45.507Z</time></trkpt><trkpt lat="39.8610917" lon="9.054505"><ele>611.0</ele><time>2026-04-23T13:08:46.507Z</time></trkpt><trkpt lat="39.8609667" lon="9.0545383"><ele>612.75</ele><time>2026-04-23T13:08:47.508Z</time></trkpt><trkpt lat="39.86085" lon="9.0546033"><ele>614.5</ele><time>2026-04-23T13:08:48.508Z</time></trkpt><trkpt lat="39.860755" lon="9.0546967"><ele>616.25</ele><time>2026-04-23T13:08:49.507Z</time></trkpt><trkpt lat="39.8606917" lon="9.0548317"><ele>618.0</ele><time>2026-04-23T13:08:50.508Z</time></trkpt><trkpt lat="39.8606633" lon="9.0549867"><ele>620.5</ele><time>2026-04-23T13:08:51.508Z</time></trkpt><trkpt lat="39.8606633" lon="9.0551467"><ele>623.0</ele><time>2026-04-23T13:08:52.507Z</time></trkpt><trkpt lat="39.8607" lon="9.0552967"><ele>625.5</ele><time>2026-04-23T13:08:53.507Z</time></trkpt><trkpt lat="39.8607783" lon="9.0554383"><ele>628.0</ele><time>2026-04-23T13:08:54.508Z</time></trkpt><trkpt lat="39.860885" lon="9.05554"><ele>626.75</ele><time>2026-04-23T13:08:55.507Z</time></trkpt><trkpt lat="39.8610033" lon="9.0555983"><ele>625.5</ele><time>2026-04-23T13:08:56.507Z</time></trkpt><trkpt lat="39.8611383" lon="9.0556367"><ele>624.25</ele><time>2026-04-23T13:08:57.507Z</time></trkpt><trkpt lat="39.8612767" lon="9.0556517"><ele>623.0</ele><time>2026-04-23T13:08:58.508Z</time></trkpt><trkpt lat="39.86142" lon="9.0556883"><ele>623.0</ele><time>2026-04-23T13:08:59.507Z</time></trkpt><trkpt lat="39.8615567" lon="9.0557383"><ele>623.0</ele><time>2026-04-23T13:09:00.507Z</time></trkpt><trkpt lat="39.8616917" lon="9.0557833"><ele>623.0</ele><time>2026-04-23T13:09:01.507Z</time></trkpt><trkpt lat="39.8618233" lon="9.055825"><ele>623.0</ele><time>2026-04-23T13:09:02.508Z</time></trkpt><trkpt lat="39.8619433" lon="9.0558833"><ele>627.25</ele><time>2026-04-23T13:09:03.508Z</time></trkpt><trkpt lat="39.8620583" lon="9.0559817"><ele>631.5</ele><time>2026-04-23T13:09:04.507Z</time></trkpt><trkpt lat="39.8621567" lon="9.056105"><ele>635.75</ele><time>2026-04-23T13:09:05.507Z</time></trkpt><trkpt lat="39.86222" lon="9.0562467"><ele>640.0</ele><time>2026-04-23T13:09:06.508Z</time></trkpt><trkpt lat="39.8622533" lon="9.0564017"><ele>640.0</ele><time>2026-04-23T13:09:07.508Z</time></trkpt><trkpt lat="39.8622483" lon="9.056535"><ele>640.0</ele><time>2026-04-23T13:09:08.508Z</time></trkpt><trkpt lat="39.8622383" lon="9.0566633"><ele>640.0</ele><time>2026-04-23T13:09:09.507Z</time></trkpt><trkpt lat="39.8622083" lon="9.05679"><ele>640.0</ele><time>2026-04-23T13:09:10.508Z</time></trkpt><trkpt lat="39.86215" lon="9.056905"><ele>640.0</ele><time>2026-04-23T13:09:11.508Z</time></trkpt><trkpt lat="39.8620717" lon="9.05701"><ele>640.0</ele><time>2026-04-23T13:09:12.507Z</time></trkpt><trkpt lat="39.8619817" lon="9.0571"><ele>640.0</ele><time>2026-04-23T13:09:13.508Z</time></trkpt><trkpt lat="39.8618733" lon="9.0571583"><ele>640.0</ele><time>2026-04-23T13:09:14.508Z</time></trkpt><trkpt lat="39.861755" lon="9.0572067"><ele>640.0</ele><time>2026-04-23T13:09:15.507Z</time></trkpt><trkpt lat="39.8616333" lon="9.0572433"><ele>640.0</ele><time>2026-04-23T13:09:16.507Z</time></trkpt><trkpt lat="39.86153" lon="9.0572733"><ele>640.0</ele><time>2026-04-23T13:09:17.508Z</time></trkpt><trkpt lat="39.86144" lon="9.057295"><ele>640.0</ele><time>2026-04-23T13:09:18.507Z</time></trkpt><trkpt lat="39.8613683" lon="9.057315"><ele>640.0</ele><time>2026-04-23T13:09:19.508Z</time></trkpt><trkpt lat="39.8612867" lon="9.057355"><ele>640.0</ele><time>2026-04-23T13:09:21.508Z</time></trkpt><trkpt lat="39.8613967" lon="9.0573683"><ele>640.0</ele><time>2026-04-23T13:09:25.507Z</time></trkpt><trkpt lat="39.8614633" lon="9.0573333"><ele>640.0</ele><time>2026-04-23T13:09:26.507Z</time></trkpt><trkpt lat="39.8615417" lon="9.0573083"><ele>640.0</ele><time>2026-04-23T13:09:27.507Z</time></trkpt><trkpt lat="39.8616317" lon="9.0572833"><ele>640.0</ele><time>2026-04-23T13:09:28.507Z</time></trkpt><trkpt lat="39.8617333" lon="9.05725"><ele>640.0</ele><time>2026-04-23T13:09:29.507Z</time></trkpt><trkpt lat="39.8618383" lon="9.0572133"><ele>641.0</ele><time>2026-04-23T13:09:30.508Z</time></trkpt><trkpt lat="39.86194" lon="9.0571633"><ele>642.0</ele><time>2026-04-23T13:09:31.508Z</time></trkpt><trkpt lat="39.862035" lon="9.0571067"><ele>643.0</ele><time>2026-04-23T13:09:32.508Z</time></trkpt><trkpt lat="39.8621083" lon="9.0570283"><ele>644.0</ele><time>2026-04-23T13:09:33.507Z</time></trkpt><trkpt lat="39.86217" lon="9.056935"><ele>645.0</ele><time>2026-04-23T13:09:34.507Z</time></trkpt><trkpt lat="39.8622183" lon="9.05683"><ele>645.0</ele><time>2026-04-23T13:09:35.507Z</time></trkpt><trkpt lat="39.862245" lon="9.0567333"><ele>645.0</ele><time>2026-04-23T13:09:36.508Z</time></trkpt><trkpt lat="39.8622833" lon="9.0566267"><ele>645.0</ele><time>2026-04-23T13:09:38.507Z</time></trkpt><trkpt lat="39.8623533" lon="9.0566817"><ele>645.0</ele><time>2026-04-23T13:09:41.508Z</time></trkpt><trkpt lat="39.8623967" lon="9.0568483"><ele>645.0</ele><time>2026-04-23T13:09:43.508Z</time></trkpt><trkpt lat="39.862415" lon="9.056965"><ele>645.0</ele><time>2026-04-23T13:09:44.507Z</time></trkpt><trkpt lat="39.8624267" lon="9.0570933"><ele>645.0</ele><time>2026-04-23T13:09:45.508Z</time></trkpt><trkpt lat="39.86242" lon="9.0572317"><ele>645.0</ele><time>2026-04-23T13:09:46.508Z</time></trkpt><trkpt lat="39.8624167" lon="9.0573567"><ele>645.0</ele><time>2026-04-23T13:09:47.507Z</time></trkpt><trkpt lat="39.862415" lon="9.057465"><ele>645.0</ele><time>2026-04-23T13:09:48.507Z</time></trkpt><trkpt lat="39.86241" lon="9.0575683"><ele>645.2</ele><time>2026-04-23T13:09:49.507Z</time></trkpt><trkpt lat="39.8624133" lon="9.05768"><ele>645.4</ele><time>2026-04-23T13:09:50.508Z</time></trkpt><trkpt lat="39.8624133" lon="9.0577767"><ele>645.5999999999999</ele><time>2026-04-23T13:09:51.507Z</time></trkpt><trkpt lat="39.8624183" lon="9.0579083"><ele>645.8</ele><time>2026-04-23T13:09:53.507Z</time></trkpt><trkpt lat="39.8624433" lon="9.05803"><ele>646.0</ele><time>2026-04-23T13:09:56.508Z</time></trkpt><trkpt lat="39.8624683" lon="9.0581483"><ele>647.5</ele><time>2026-04-23T13:09:58.507Z</time></trkpt><trkpt lat="39.862495" lon="9.0582967"><ele>649.0</ele><time>2026-04-23T13:10:00.508Z</time></trkpt><trkpt lat="39.862515" lon="9.0583833"><ele>650.5</ele><time>2026-04-23T13:10:01.507Z</time></trkpt><trkpt lat="39.862545" lon="9.0584783"><ele>652.0</ele><time>2026-04-23T13:10:02.508Z</time></trkpt><trkpt lat="39.86258" lon="9.0585767"><ele>653.5</ele><time>2026-04-23T13:10:03.507Z</time></trkpt><trkpt lat="39.86262" lon="9.0586817"><ele>655.0</ele><time>2026-04-23T13:10:04.507Z</time></trkpt><trkpt lat="39.8626533" lon="9.0587767"><ele>655.0</ele><time>2026-04-23T13:10:05.508Z</time></trkpt><trkpt lat="39.862695" lon="9.0588983"><ele>655.0</ele><time>2026-04-23T13:10:07.508Z</time></trkpt><trkpt lat="39.862745" lon="9.0589567"><ele>655.0</ele><time>2026-04-23T13:28:17.503Z</time></trkpt><trkpt lat="39.862785" lon="9.059025"><ele>655.0</ele><time>2026-04-23T13:28:19.503Z</time></trkpt><trkpt lat="39.86282" lon="9.0591133"><ele>655.0</ele><time>2026-04-23T13:28:21.504Z</time></trkpt><trkpt lat="39.8628617" lon="9.0592367"><ele>655.0</ele><time>2026-04-23T13:28:23.503Z</time></trkpt><trkpt lat="39.8629233" lon="9.05937"><ele>656.0</ele><time>2026-04-23T13:28:25.504Z</time></trkpt><trkpt lat="39.862985" lon="9.05951"><ele>657.0</ele><time>2026-04-23T13:28:27.504Z</time></trkpt><trkpt lat="39.8630217" lon="9.0595783"><ele>658.0</ele><time>2026-04-23T13:28:28.503Z</time></trkpt><trkpt lat="39.8630883" lon="9.059715"><ele>659.0</ele><time>2026-04-23T13:28:30.504Z</time></trkpt><trkpt lat="39.8631167" lon="9.05979"><ele>660.0</ele><time>2026-04-23T13:28:31.504Z</time></trkpt><trkpt lat="39.8631533" lon="9.0598667"><ele>661.0</ele><time>2026-04-23T13:28:32.504Z</time></trkpt><trkpt lat="39.8631883" lon="9.0599417"><ele>662.6666666666667</ele><time>2026-04-23T13:28:33.503Z</time></trkpt><trkpt lat="39.8632183" lon="9.0600183"><ele>664.3333333333334</ele><time>2026-04-23T13:28:34.504Z</time></trkpt><trkpt lat="39.8632567" lon="9.0600967"><ele>666.0</ele><time>2026-04-23T13:28:35.503Z</time></trkpt><trkpt lat="39.86329" lon="9.0601667"><ele>667.6666666666666</ele><time>2026-04-23T13:28:36.503Z</time></trkpt><trkpt lat="39.8633167" lon="9.0603033"><ele>669.3333333333333</ele><time>2026-04-23T13:28:38.503Z</time></trkpt><trkpt lat="39.8633133" lon="9.0604533"><ele>671.0</ele><time>2026-04-23T13:28:40.503Z</time></trkpt><trkpt lat="39.8633017" lon="9.060615"><ele>671.0</ele><time>2026-04-23T13:28:42.503Z</time></trkpt><trkpt lat="39.8633083" lon="9.0607817"><ele>671.0</ele><time>2026-04-23T13:28:44.504Z</time></trkpt><trkpt lat="39.8633317" lon="9.0608617"><ele>671.0</ele><time>2026-04-23T13:28:45.504Z</time></trkpt><trkpt lat="39.8633633" lon="9.0609383"><ele>671.0</ele><time>2026-04-23T13:28:46.503Z</time></trkpt><trkpt lat="39.86341" lon="9.0610183"><ele>671.0</ele><time>2026-04-23T13:28:47.504Z</time></trkpt><trkpt lat="39.8634617" lon="9.061095"><ele>671.0</ele><time>2026-04-23T13:28:48.504Z</time></trkpt><trkpt lat="39.863515" lon="9.0611667"><ele>672.0</ele><time>2026-04-23T13:28:49.504Z</time></trkpt><trkpt lat="39.8635667" lon="9.06123"><ele>673.0</ele><time>2026-04-23T13:28:50.503Z</time></trkpt><trkpt lat="39.8636283" lon="9.0613267"><ele>674.0</ele><time>2026-04-23T13:28:52.503Z</time></trkpt><trkpt lat="39.863665" lon="9.0614183"><ele>675.0</ele><time>2026-04-23T13:28:54.504Z</time></trkpt><trkpt lat="39.863695" lon="9.06156"><ele>676.0</ele><time>2026-04-23T13:28:56.504Z</time></trkpt><trkpt lat="39.8637067" lon="9.0616583"><ele>677.0</ele><time>2026-04-23T13:28:57.503Z</time></trkpt><trkpt lat="39.863725" lon="9.061775"><ele>678.4000000000001</ele><time>2026-04-23T13:28:58.503Z</time></trkpt><trkpt lat="39.8637383" lon="9.061895"><ele>679.8000000000001</ele><time>2026-04-23T13:28:59.503Z</time></trkpt><trkpt lat="39.8637467" lon="9.0620183"><ele>681.2</ele><time>2026-04-23T13:29:00.504Z</time></trkpt><trkpt lat="39.863755" lon="9.0621467"><ele>682.6</ele><time>2026-04-23T13:29:01.504Z</time></trkpt><trkpt lat="39.8637617" lon="9.062265"><ele>684.0</ele><time>2026-04-23T13:29:02.503Z</time></trkpt><trkpt lat="39.8637683" lon="9.0623817"><ele>683.8000000000001</ele><time>2026-04-23T13:29:03.504Z</time></trkpt><trkpt lat="39.8637667" lon="9.0624983"><ele>683.6</ele><time>2026-04-23T13:29:04.503Z</time></trkpt><trkpt lat="39.8637483" lon="9.0626183"><ele>683.4</ele><time>2026-04-23T13:29:05.503Z</time></trkpt><trkpt lat="39.863735" lon="9.062745"><ele>683.2</ele><time>2026-04-23T13:29:06.503Z</time></trkpt><trkpt lat="39.863715" lon="9.062865"><ele>683.0</ele><time>2026-04-23T13:29:07.503Z</time></trkpt><trkpt lat="39.863695" lon="9.0629717"><ele>683.0</ele><time>2026-04-23T13:29:08.503Z</time></trkpt><trkpt lat="39.8636767" lon="9.063075"><ele>683.0</ele><time>2026-04-23T13:29:09.504Z</time></trkpt><trkpt lat="39.8636717" lon="9.0631717"><ele>683.0</ele><time>2026-04-23T13:29:10.503Z</time></trkpt><trkpt lat="39.8636767" lon="9.06327"><ele>683.0</ele><time>2026-04-23T13:29:11.503Z</time></trkpt><trkpt lat="39.86366" lon="9.0633667"><ele>683.0</ele><time>2026-04-23T13:29:12.503Z</time></trkpt><trkpt lat="39.8636383" lon="9.06346"><ele>683.0</ele><time>2026-04-23T13:29:13.504Z</time></trkpt><trkpt lat="39.8636067" lon="9.0635617"><ele>682.5999999999999</ele><time>2026-04-23T13:29:14.503Z</time></trkpt><trkpt lat="39.8635683" lon="9.0636667"><ele>682.1999999999999</ele><time>2026-04-23T13:29:15.503Z</time></trkpt><trkpt lat="39.8635433" lon="9.0637767"><ele>681.8</ele><time>2026-04-23T13:29:16.503Z</time></trkpt><trkpt lat="39.8635183" lon="9.0638883"><ele>681.4</ele><time>2026-04-23T13:29:17.503Z</time></trkpt><trkpt lat="39.8634967" lon="9.0640083"><ele>681.0</ele><time>2026-04-23T13:29:18.504Z</time></trkpt><trkpt lat="39.8634783" lon="9.064135"><ele>681.8333333333334</ele><time>2026-04-23T13:29:19.504Z</time></trkpt><trkpt lat="39.8634683" lon="9.06426"><ele>682.6666666666666</ele><time>2026-04-23T13:29:20.504Z</time></trkpt><trkpt lat="39.8634617" lon="9.0643683"><ele>683.5</ele><time>2026-04-23T13:29:21.504Z</time></trkpt><trkpt lat="39.86346" lon="9.0644667"><ele>684.3333333333333</ele><time>2026-04-23T13:29:22.503Z</time></trkpt><trkpt lat="39.8634583" lon="9.06455"><ele>685.1666666666666</ele><time>2026-04-23T13:29:23.503Z</time></trkpt><trkpt lat="39.8634617" lon="9.06465"><ele>686.0</ele><time>2026-04-23T13:29:24.504Z</time></trkpt><trkpt lat="39.8634617" lon="9.0647617"><ele>686.0</ele><time>2026-04-23T13:29:25.504Z</time></trkpt><trkpt lat="39.8634667" lon="9.0648767"><ele>686.0</ele><time>2026-04-23T13:29:26.503Z</time></trkpt><trkpt lat="39.8634733" lon="9.0649917"><ele>686.0</ele><time>2026-04-23T13:29:27.503Z</time></trkpt><trkpt lat="39.8634867" lon="9.06511"><ele>686.0</ele><time>2026-04-23T13:29:28.503Z</time></trkpt><trkpt lat="39.8635017" lon="9.0652333"><ele>686.0</ele><time>2026-04-23T13:29:29.503Z</time></trkpt><trkpt lat="39.8635167" lon="9.0653633"><ele>687.1999999999999</ele><time>2026-04-23T13:29:30.504Z</time></trkpt><trkpt lat="39.8635483" lon="9.0654883"><ele>688.4</ele><time>2026-04-23T13:29:31.504Z</time></trkpt><trkpt lat="39.8635817" lon="9.0656183"><ele>689.6</ele><time>2026-04-23T13:29:32.503Z</time></trkpt><trkpt lat="39.8636117" lon="9.0657367"><ele>690.8</ele><time>2026-04-23T13:29:33.503Z</time></trkpt><trkpt lat="39.86364" lon="9.0658467"><ele>692.0</ele><time>2026-04-23T13:29:34.504Z</time></trkpt><trkpt lat="39.8636633" lon="9.0659517"><ele>692.3333333333333</ele><time>2026-04-23T13:29:35.503Z</time></trkpt><trkpt lat="39.8636767" lon="9.06605"><ele>692.6666666666666</ele><time>2026-04-23T13:29:36.504Z</time></trkpt><trkpt lat="39.8636733" lon="9.0661383"><ele>693.0</ele><time>2026-04-23T13:29:37.503Z</time></trkpt><trkpt lat="39.86367" lon="9.066235"><ele>693.3333333333334</ele><time>2026-04-23T13:29:38.504Z</time></trkpt><trkpt lat="39.8636533" lon="9.0663333"><ele>693.6666666666667</ele><time>2026-04-23T13:29:39.503Z</time></trkpt><trkpt lat="39.86363" lon="9.0664283"><ele>694.0</ele><time>2026-04-23T13:29:40.504Z</time></trkpt><trkpt lat="39.8635983" lon="9.066535"><ele>693.8000000000001</ele><time>2026-04-23T13:29:41.503Z</time></trkpt><trkpt lat="39.8635517" lon="9.0666517"><ele>693.6</ele><time>2026-04-23T13:29:42.503Z</time></trkpt><trkpt lat="39.8635033" lon="9.0667783"><ele>693.4</ele><time>2026-04-23T13:29:43.503Z</time></trkpt><trkpt lat="39.8634383" lon="9.066895"><ele>693.2</ele><time>2026-04-23T13:29:44.503Z</time></trkpt><trkpt lat="39.86338" lon="9.0670117"><ele>693.0</ele><time>2026-04-23T13:29:45.503Z</time></trkpt><trkpt lat="39.8633283" lon="9.0671267"><ele>692.8</ele><time>2026-04-23T13:29:46.504Z</time></trkpt><trkpt lat="39.86328" lon="9.0672567"><ele>692.5999999999999</ele><time>2026-04-23T13:29:47.504Z</time></trkpt><trkpt lat="39.86324" lon="9.0673883"><ele>692.4000000000001</ele><time>2026-04-23T13:29:48.504Z</time></trkpt><trkpt lat="39.863195" lon="9.0675067"><ele>692.2</ele><time>2026-04-23T13:29:49.503Z</time></trkpt><trkpt lat="39.8631583" lon="9.067635"><ele>692.0</ele><time>2026-04-23T13:29:50.503Z</time></trkpt><trkpt lat="39.8631217" lon="9.067775"><ele>692.4000000000001</ele><time>2026-04-23T13:29:51.504Z</time></trkpt><trkpt lat="39.8630917" lon="9.0679017"><ele>692.8000000000001</ele><time>2026-04-23T13:29:52.504Z</time></trkpt><trkpt lat="39.8630567" lon="9.068035"><ele>693.2</ele><time>2026-04-23T13:29:53.504Z</time></trkpt><trkpt lat="39.8630233" lon="9.0681667"><ele>693.6</ele><time>2026-04-23T13:29:54.503Z</time></trkpt><trkpt lat="39.8629833" lon="9.0682983"><ele>694.0</ele><time>2026-04-23T13:29:55.503Z</time></trkpt><trkpt lat="39.86294" lon="9.0684283"><ele>695.2</ele><time>2026-04-23T13:29:56.504Z</time></trkpt><trkpt lat="39.862895" lon="9.068555"><ele>696.4000000000001</ele><time>2026-04-23T13:29:57.503Z</time></trkpt><trkpt lat="39.8628517" lon="9.0686733"><ele>697.6</ele><time>2026-04-23T13:29:58.503Z</time></trkpt><trkpt lat="39.8628133" lon="9.06878"><ele>698.8</ele><time>2026-04-23T13:29:59.503Z</time></trkpt><trkpt lat="39.862785" lon="9.0688733"><ele>700.0</ele><time>2026-04-23T13:30:00.503Z</time></trkpt><trkpt lat="39.8627417" lon="9.06901"><ele>700.0</ele><time>2026-04-23T13:30:02.503Z</time></trkpt><trkpt lat="39.8626917" lon="9.0690817"><ele>700.0</ele><time>2026-04-23T13:30:05.504Z</time></trkpt><trkpt lat="39.8626283" lon="9.0691383"><ele>700.0</ele><time>2026-04-23T13:30:10.504Z</time></trkpt><trkpt lat="39.8627067" lon="9.0690867"><ele>700.0</ele><time>2026-04-23T13:30:29.503Z</time></trkpt><trkpt lat="39.8627817" lon="9.069085"><ele>700.0</ele><time>2026-04-23T13:30:32.504Z</time></trkpt><trkpt lat="39.8628" lon="9.0691867"><ele>700.0</ele><time>2026-04-23T13:30:35.504Z</time></trkpt><trkpt lat="39.8628183" lon="9.0692867"><ele>701.0</ele><time>2026-04-23T13:30:37.503Z</time></trkpt><trkpt lat="39.86285" lon="9.0694167"><ele>702.0</ele><time>2026-04-23T13:30:39.503Z</time></trkpt><trkpt lat="39.862895" lon="9.0695767"><ele>703.0</ele><time>2026-04-23T13:30:41.503Z</time></trkpt><trkpt lat="39.8629067" lon="9.0696733"><ele>704.0</ele><time>2026-04-23T13:30:42.504Z</time></trkpt><trkpt lat="39.8629217" lon="9.0697767"><ele>705.0</ele><time>2026-04-23T13:30:43.504Z</time></trkpt><trkpt lat="39.8629433" lon="9.06987"><ele>705.5</ele><time>2026-04-23T13:30:44.504Z</time></trkpt><trkpt lat="39.8629567" lon="9.06996"><ele>706.0</ele><time>2026-04-23T13:30:45.503Z</time></trkpt><trkpt lat="39.86302" lon="9.0701167"><ele>706.5</ele><time>2026-04-23T13:30:47.503Z</time></trkpt><trkpt lat="39.863055" lon="9.0702033"><ele>707.0</ele><time>2026-04-23T13:30:48.503Z</time></trkpt><trkpt lat="39.863095" lon="9.0702967"><ele>707.5</ele><time>2026-04-23T13:30:49.503Z</time></trkpt><trkpt lat="39.86314" lon="9.07039"><ele>708.0</ele><time>2026-04-23T13:30:50.504Z</time></trkpt><trkpt lat="39.8631933" lon="9.0704767"><ele>708.0</ele><time>2026-04-23T13:30:51.504Z</time></trkpt><trkpt lat="39.8632417" lon="9.0705667"><ele>708.0</ele><time>2026-04-23T13:30:52.504Z</time></trkpt><trkpt lat="39.8632817" lon="9.0706617"><ele>708.0</ele><time>2026-04-23T13:30:53.504Z</time></trkpt><trkpt lat="39.8633267" lon="9.0707417"><ele>708.0</ele><time>2026-04-23T13:30:54.504Z</time></trkpt><trkpt lat="39.863365" lon="9.0708217"><ele>708.0</ele><time>2026-04-23T13:30:55.504Z</time></trkpt><trkpt lat="39.8634033" lon="9.07091"><ele>708.0</ele><time>2026-04-23T13:30:56.503Z</time></trkpt><trkpt lat="39.863445" lon="9.071005"><ele>710.6666666666666</ele><time>2026-04-23T13:30:57.503Z</time></trkpt><trkpt lat="39.8634733" lon="9.0710933"><ele>713.3333333333334</ele><time>2026-04-23T13:30:58.503Z</time></trkpt><trkpt lat="39.8634867" lon="9.0711867"><ele>716.0</ele><time>2026-04-23T13:30:59.503Z</time></trkpt><trkpt lat="39.8634883" lon="9.0712917"><ele>718.6666666666667</ele><time>2026-04-23T13:31:00.504Z</time></trkpt><trkpt lat="39.8634833" lon="9.0714033"><ele>721.3333333333334</ele><time>2026-04-23T13:31:01.504Z</time></trkpt><trkpt lat="39.863475" lon="9.07152"><ele>724.0</ele><time>2026-04-23T13:31:02.504Z</time></trkpt><trkpt lat="39.863465" lon="9.0716317"><ele>724.1666666666667</ele><time>2026-04-23T13:31:03.504Z</time></trkpt><trkpt lat="39.863455" lon="9.0717367"><ele>724.3333333333334</ele><time>2026-04-23T13:31:04.504Z</time></trkpt><trkpt lat="39.8634417" lon="9.0718317"><ele>724.5</ele><time>2026-04-23T13:31:05.504Z</time></trkpt><trkpt lat="39.8634283" lon="9.0719333"><ele>724.6666666666666</ele><time>2026-04-23T13:31:06.503Z</time></trkpt><trkpt lat="39.8634283" lon="9.072025"><ele>724.8333333333333</ele><time>2026-04-23T13:31:07.504Z</time></trkpt><trkpt lat="39.863435" lon="9.072115"><ele>725.0</ele><time>2026-04-23T13:31:08.504Z</time></trkpt><trkpt lat="39.8634483" lon="9.0722233"><ele>725.0</ele><time>2026-04-23T13:31:09.503Z</time></trkpt><trkpt lat="39.8634583" lon="9.0723383"><ele>725.0</ele><time>2026-04-23T13:31:10.504Z</time></trkpt><trkpt lat="39.8634617" lon="9.0724633"><ele>725.0</ele><time>2026-04-23T13:31:11.503Z</time></trkpt><trkpt lat="39.8634683" lon="9.0725783"><ele>725.0</ele><time>2026-04-23T13:31:12.503Z</time></trkpt><trkpt lat="39.863485" lon="9.0726917"><ele>725.0</ele><time>2026-04-23T13:31:13.503Z</time></trkpt><trkpt lat="39.8635133" lon="9.072805"><ele>725.2</ele><time>2026-04-23T13:31:14.504Z</time></trkpt><trkpt lat="39.8635467" lon="9.072925"><ele>725.4</ele><time>2026-04-23T13:31:15.503Z</time></trkpt><trkpt lat="39.8635783" lon="9.073045"><ele>725.5999999999999</ele><time>2026-04-23T13:31:16.504Z</time></trkpt><trkpt lat="39.863595" lon="9.073165"><ele>725.8</ele><time>2026-04-23T13:31:17.504Z</time></trkpt><trkpt lat="39.8636133" lon="9.0732883"><ele>726.0</ele><time>2026-04-23T13:31:18.504Z</time></trkpt><trkpt lat="39.8636283" lon="9.0734067"><ele>726.8</ele><time>2026-04-23T13:31:19.503Z</time></trkpt><trkpt lat="39.86364" lon="9.0735267"><ele>727.5999999999999</ele><time>2026-04-23T13:31:20.504Z</time></trkpt><trkpt lat="39.863645" lon="9.07365"><ele>728.4</ele><time>2026-04-23T13:31:21.504Z</time></trkpt><trkpt lat="39.863655" lon="9.073765"><ele>729.2</ele><time>2026-04-23T13:31:22.504Z</time></trkpt><trkpt lat="39.86367" lon="9.0738783"><ele>730.0</ele><time>2026-04-23T13:31:23.503Z</time></trkpt><trkpt lat="39.8636817" lon="9.0740067"><ele>731.2</ele><time>2026-04-23T13:31:24.504Z</time></trkpt><trkpt lat="39.863705" lon="9.0741433"><ele>732.4</ele><time>2026-04-23T13:31:25.504Z</time></trkpt><trkpt lat="39.86372" lon="9.07428"><ele>733.5999999999999</ele><time>2026-04-23T13:31:26.504Z</time></trkpt><trkpt lat="39.863735" lon="9.0744133"><ele>734.8</ele><time>2026-04-23T13:31:27.504Z</time></trkpt><trkpt lat="39.86375" lon="9.0745367"><ele>736.0</ele><time>2026-04-23T13:31:28.503Z</time></trkpt><trkpt lat="39.8637583" lon="9.0746517"><ele>736.0</ele><time>2026-04-23T13:31:29.503Z</time></trkpt><trkpt lat="39.8637617" lon="9.07477"><ele>736.0</ele><time>2026-04-23T13:31:30.503Z</time></trkpt><trkpt lat="39.8637567" lon="9.0749033"><ele>736.0</ele><time>2026-04-23T13:31:31.504Z</time></trkpt><trkpt lat="39.863755" lon="9.0750333"><ele>736.0</ele><time>2026-04-23T13:31:32.503Z</time></trkpt><trkpt lat="39.863765" lon="9.0751633"><ele>736.0</ele><time>2026-04-23T13:31:33.503Z</time></trkpt><trkpt lat="39.863785" lon="9.0752917"><ele>736.8</ele><time>2026-04-23T13:31:34.503Z</time></trkpt><trkpt lat="39.863795" lon="9.0754217"><ele>737.5999999999999</ele><time>2026-04-23T13:31:35.503Z</time></trkpt><trkpt lat="39.8638067" lon="9.0755417"><ele>738.4</ele><time>2026-04-23T13:31:36.503Z</time></trkpt><trkpt lat="39.863815" lon="9.0756617"><ele>739.2</ele><time>2026-04-23T13:31:37.503Z</time></trkpt><trkpt lat="39.8638233" lon="9.07577"><ele>740.0</ele><time>2026-04-23T13:31:38.503Z</time></trkpt><trkpt lat="39.86383" lon="9.0758783"><ele>740.3333333333333</ele><time>2026-04-23T13:31:39.503Z</time></trkpt><trkpt lat="39.863845" lon="9.0759817"><ele>740.6666666666666</ele><time>2026-04-23T13:31:40.503Z</time></trkpt><trkpt lat="39.8638667" lon="9.0760933"><ele>741.0</ele><time>2026-04-23T13:31:41.504Z</time></trkpt><trkpt lat="39.8638917" lon="9.0762017"><ele>741.3333333333334</ele><time>2026-04-23T13:31:42.503Z</time></trkpt><trkpt lat="39.86391" lon="9.0763017"><ele>741.6666666666667</ele><time>2026-04-23T13:31:43.504Z</time></trkpt><trkpt lat="39.8639183" lon="9.0764067"><ele>742.0</ele><time>2026-04-23T13:31:44.504Z</time></trkpt><trkpt lat="39.8639233" lon="9.0765167"><ele>741.8333333333334</ele><time>2026-04-23T13:31:45.504Z</time></trkpt><trkpt lat="39.8639283" lon="9.0766317"><ele>741.6666666666667</ele><time>2026-04-23T13:31:46.504Z</time></trkpt><trkpt lat="39.86393" lon="9.076745"><ele>741.5</ele><time>2026-04-23T13:31:47.504Z</time></trkpt><trkpt lat="39.8639333" lon="9.0768517"><ele>741.3333333333334</ele><time>2026-04-23T13:31:48.503Z</time></trkpt><trkpt lat="39.8639383" lon="9.0769533"><ele>741.1666666666666</ele><time>2026-04-23T13:31:49.504Z</time></trkpt><trkpt lat="39.8639383" lon="9.077055"><ele>741.0</ele><time>2026-04-23T13:31:50.503Z</time></trkpt><trkpt lat="39.8639467" lon="9.0771533"><ele>741.0</ele><time>2026-04-23T13:31:51.504Z</time></trkpt><trkpt lat="39.863955" lon="9.0772583"><ele>741.0</ele><time>2026-04-23T13:31:52.503Z</time></trkpt><trkpt lat="39.8639583" lon="9.07737"><ele>741.0</ele><time>2026-04-23T13:31:53.504Z</time></trkpt><trkpt lat="39.8639567" lon="9.0775033"><ele>741.0</ele><time>2026-04-23T13:31:54.504Z</time></trkpt><trkpt lat="39.86395" lon="9.07764"><ele>741.0</ele><time>2026-04-23T13:31:55.504Z</time></trkpt><trkpt lat="39.863945" lon="9.0777683"><ele>741.0</ele><time>2026-04-23T13:31:56.504Z</time></trkpt><trkpt lat="39.8639433" lon="9.07789"><ele>741.0</ele><time>2026-04-23T13:31:57.503Z</time></trkpt><trkpt lat="39.8639467" lon="9.0779867"><ele>741.0</ele><time>2026-04-23T13:31:58.503Z</time></trkpt><trkpt lat="39.8639583" lon="9.0781383"><ele>741.0</ele><time>2026-04-23T13:32:00.503Z</time></trkpt><trkpt lat="39.8639667" lon="9.078295"><ele>741.0</ele><time>2026-04-23T13:32:02.503Z</time></trkpt><trkpt lat="39.8639633" lon="9.07844"><ele>741.0</ele><time>2026-04-23T13:32:04.503Z</time></trkpt><trkpt lat="39.86395" lon="9.0786083"><ele>741.0</ele><time>2026-04-23T13:32:06.503Z</time></trkpt><trkpt lat="39.8639483" lon="9.0787083"><ele>741.0</ele><time>2026-04-23T13:32:07.503Z</time></trkpt><trkpt lat="39.8639533" lon="9.07882"><ele>741.0</ele><time>2026-04-23T13:32:08.504Z</time></trkpt><trkpt lat="39.8639633" lon="9.0789417"><ele>741.0</ele><time>2026-04-23T13:32:09.504Z</time></trkpt><trkpt lat="39.8639717" lon="9.0790617"><ele>741.1999999999999</ele><time>2026-04-23T13:32:10.503Z</time></trkpt><trkpt lat="39.86398" lon="9.0791717"><ele>741.4</ele><time>2026-04-23T13:32:11.504Z</time></trkpt><trkpt lat="39.863995" lon="9.0792917"><ele>741.6</ele><time>2026-04-23T13:32:12.504Z</time></trkpt><trkpt lat="39.8640083" lon="9.0794167"><ele>741.8</ele><time>2026-04-23T13:32:13.504Z</time></trkpt><trkpt lat="39.8640233" lon="9.0795467"><ele>742.0</ele><time>2026-04-23T13:32:14.503Z</time></trkpt><trkpt lat="39.86403" lon="9.07966"><ele>742.0</ele><time>2026-04-23T13:32:15.503Z</time></trkpt><trkpt lat="39.8640367" lon="9.0797717"><ele>742.0</ele><time>2026-04-23T13:32:16.503Z</time></trkpt><trkpt lat="39.8640383" lon="9.0798867"><ele>742.0</ele><time>2026-04-23T13:32:17.504Z</time></trkpt><trkpt lat="39.8640467" lon="9.0799983"><ele>742.0</ele><time>2026-04-23T13:32:18.503Z</time></trkpt><trkpt lat="39.8640517" lon="9.080105"><ele>742.0</ele><time>2026-04-23T13:32:19.504Z</time></trkpt><trkpt lat="39.8640583" lon="9.0802067"><ele>742.0</ele><time>2026-04-23T13:32:20.504Z</time></trkpt><trkpt lat="39.8640683" lon="9.0803067"><ele>742.2857142857143</ele><time>2026-04-23T13:32:21.504Z</time></trkpt><trkpt lat="39.8640867" lon="9.08041"><ele>742.5714285714286</ele><time>2026-04-23T13:32:22.503Z</time></trkpt><trkpt lat="39.8641" lon="9.0805117"><ele>742.8571428571429</ele><time>2026-04-23T13:32:23.503Z</time></trkpt><trkpt lat="39.8641117" lon="9.0806117"><ele>743.1428571428571</ele><time>2026-04-23T13:32:24.504Z</time></trkpt><trkpt lat="39.8641183" lon="9.0807067"><ele>743.4285714285714</ele><time>2026-04-23T13:32:25.504Z</time></trkpt><trkpt lat="39.8641217" lon="9.0808"><ele>743.7142857142858</ele><time>2026-04-23T13:32:26.503Z</time></trkpt><trkpt lat="39.8641283" lon="9.0808817"><ele>744.0</ele><time>2026-04-23T13:32:27.504Z</time></trkpt><trkpt lat="39.8641433" lon="9.08103"><ele>744.0</ele><time>2026-04-23T13:32:29.503Z</time></trkpt><trkpt lat="39.86417" lon="9.08116"><ele>744.0</ele><time>2026-04-23T13:32:31.504Z</time></trkpt><trkpt lat="39.8642017" lon="9.0813067"><ele>744.0</ele><time>2026-04-23T13:32:33.504Z</time></trkpt><trkpt lat="39.8642267" lon="9.0814033"><ele>744.0</ele><time>2026-04-23T13:32:34.503Z</time></trkpt><trkpt lat="39.8642483" lon="9.0815033"><ele>744.0</ele><time>2026-04-23T13:32:35.503Z</time></trkpt><trkpt lat="39.864265" lon="9.081605"><ele>744.8333333333334</ele><time>2026-04-23T13:32:36.502Z</time></trkpt><trkpt lat="39.8642817" lon="9.0817067"><ele>745.6666666666666</ele><time>2026-04-23T13:32:37.502Z</time></trkpt><trkpt lat="39.8642967" lon="9.08179"><ele>746.5</ele><time>2026-04-23T13:32:38.503Z</time></trkpt><trkpt lat="39.864315" lon="9.081875"><ele>747.3333333333333</ele><time>2026-04-23T13:32:39.503Z</time></trkpt><trkpt lat="39.8643433" lon="9.0819617"><ele>748.1666666666666</ele><time>2026-04-23T13:32:40.502Z</time></trkpt><trkpt lat="39.86438" lon="9.082055"><ele>749.0</ele><time>2026-04-23T13:32:41.502Z</time></trkpt><trkpt lat="39.8644217" lon="9.0821567"><ele>749.0</ele><time>2026-04-23T13:32:42.502Z</time></trkpt><trkpt lat="39.8644683" lon="9.0822617"><ele>749.0</ele><time>2026-04-23T13:32:43.503Z</time></trkpt><trkpt lat="39.8645083" lon="9.08237"><ele>749.0</ele><time>2026-04-23T13:32:44.502Z</time></trkpt><trkpt lat="39.8645517" lon="9.08247"><ele>749.0</ele><time>2026-04-23T13:32:45.503Z</time></trkpt><trkpt lat="39.864595" lon="9.0825683"><ele>749.0</ele><time>2026-04-23T13:32:46.502Z</time></trkpt><trkpt lat="39.8646417" lon="9.082675"><ele>749.2</ele><time>2026-04-23T13:32:47.503Z</time></trkpt><trkpt lat="39.8646833" lon="9.0827767"><ele>749.4000000000001</ele><time>2026-04-23T13:32:48.502Z</time></trkpt><trkpt lat="39.86473" lon="9.082885"><ele>749.6</ele><time>2026-04-23T13:32:49.502Z</time></trkpt><trkpt lat="39.8647783" lon="9.0829917"><ele>749.8</ele><time>2026-04-23T13:32:50.503Z</time></trkpt><trkpt lat="39.8648317" lon="9.0830983"><ele>750.0</ele><time>2026-04-23T13:32:51.502Z</time></trkpt><trkpt lat="39.86488" lon="9.0832067"><ele>750.1666666666666</ele><time>2026-04-23T13:32:52.502Z</time></trkpt><trkpt lat="39.864925" lon="9.0833133"><ele>750.3333333333334</ele><time>2026-04-23T13:32:53.502Z</time></trkpt><trkpt lat="39.8649583" lon="9.083415"><ele>750.5</ele><time>2026-04-23T13:32:54.503Z</time></trkpt><trkpt lat="39.86498" lon="9.08352"><ele>750.6666666666667</ele><time>2026-04-23T13:32:55.502Z</time></trkpt><trkpt lat="39.8649967" lon="9.0836267"><ele>750.8333333333334</ele><time>2026-04-23T13:32:56.502Z</time></trkpt><trkpt lat="39.86501" lon="9.0837367"><ele>751.0</ele><time>2026-04-23T13:32:57.502Z</time></trkpt><trkpt lat="39.8650167" lon="9.0838433"><ele>751.0</ele><time>2026-04-23T13:32:58.502Z</time></trkpt><trkpt lat="39.8650233" lon="9.08394"><ele>751.0</ele><time>2026-04-23T13:32:59.503Z</time></trkpt><trkpt lat="39.8650283" lon="9.08404"><ele>751.0</ele><time>2026-04-23T13:33:00.503Z</time></trkpt><trkpt lat="39.8650333" lon="9.084145"><ele>751.0</ele><time>2026-04-23T13:33:01.502Z</time></trkpt><trkpt lat="39.865045" lon="9.0842483"><ele>751.0</ele><time>2026-04-23T13:33:02.503Z</time></trkpt><trkpt lat="39.865055" lon="9.0843617"><ele>751.0</ele><time>2026-04-23T13:33:03.502Z</time></trkpt><trkpt lat="39.8650633" lon="9.0844667"><ele>751.4285714285714</ele><time>2026-04-23T13:33:04.502Z</time></trkpt><trkpt lat="39.8650633" lon="9.0845733"><ele>751.8571428571429</ele><time>2026-04-23T13:33:05.502Z</time></trkpt><trkpt lat="39.865065" lon="9.08467"><ele>752.2857142857142</ele><time>2026-04-23T13:33:06.503Z</time></trkpt><trkpt lat="39.8650667" lon="9.084765"><ele>752.7142857142858</ele><time>2026-04-23T13:33:07.502Z</time></trkpt><trkpt lat="39.8650617" lon="9.08485"><ele>753.1428571428571</ele><time>2026-04-23T13:33:08.503Z</time></trkpt><trkpt lat="39.86504" lon="9.0849317"><ele>753.5714285714286</ele><time>2026-04-23T13:33:09.503Z</time></trkpt><trkpt lat="39.86501" lon="9.0850167"><ele>754.0</ele><time>2026-04-23T13:33:10.503Z</time></trkpt><trkpt lat="39.8649733" lon="9.0851217"><ele>754.4000000000001</ele><time>2026-04-23T13:33:11.502Z</time></trkpt><trkpt lat="39.8649433" lon="9.0852317"><ele>754.8</ele><time>2026-04-23T13:33:12.503Z</time></trkpt><trkpt lat="39.8649133" lon="9.0853483"><ele>755.2</ele><time>2026-04-23T13:33:13.503Z</time></trkpt><trkpt lat="39.864875" lon="9.0854767"><ele>755.5999999999999</ele><time>2026-04-23T13:33:14.503Z</time></trkpt><trkpt lat="39.8648417" lon="9.0855917"><ele>756.0</ele><time>2026-04-23T13:33:15.502Z</time></trkpt><trkpt lat="39.8648083" lon="9.0857133"><ele>757.1666666666666</ele><time>2026-04-23T13:33:16.502Z</time></trkpt><trkpt lat="39.8647767" lon="9.0858267"><ele>758.3333333333334</ele><time>2026-04-23T13:33:17.502Z</time></trkpt><trkpt lat="39.8647417" lon="9.085935"><ele>759.5</ele><time>2026-04-23T13:33:18.503Z</time></trkpt><trkpt lat="39.8647067" lon="9.0860417"><ele>760.6666666666667</ele><time>2026-04-23T13:33:19.503Z</time></trkpt><trkpt lat="39.864675" lon="9.086145"><ele>761.8333333333334</ele><time>2026-04-23T13:33:20.503Z</time></trkpt><trkpt lat="39.8646367" lon="9.08625"><ele>763.0</ele><time>2026-04-23T13:33:21.502Z</time></trkpt><trkpt lat="39.8645933" lon="9.0863583"><ele>763.0</ele><time>2026-04-23T13:33:22.503Z</time></trkpt><trkpt lat="39.86456" lon="9.0864667"><ele>763.0</ele><time>2026-04-23T13:33:23.502Z</time></trkpt><trkpt lat="39.86453" lon="9.0865817"><ele>763.0</ele><time>2026-04-23T13:33:24.502Z</time></trkpt><trkpt lat="39.8645" lon="9.0867"><ele>763.0</ele><time>2026-04-23T13:33:25.503Z</time></trkpt><trkpt lat="39.8644667" lon="9.0868183"><ele>763.0</ele><time>2026-04-23T13:33:26.503Z</time></trkpt><trkpt lat="39.8644367" lon="9.0869367"><ele>764.3333333333334</ele><time>2026-04-23T13:33:27.503Z</time></trkpt><trkpt lat="39.8644017" lon="9.0870433"><ele>765.6666666666667</ele><time>2026-04-23T13:33:28.502Z</time></trkpt><trkpt lat="39.8643717" lon="9.08714"><ele>767.0</ele><time>2026-04-23T13:33:29.503Z</time></trkpt><trkpt lat="39.86435" lon="9.0872383"><ele>768.3333333333334</ele><time>2026-04-23T13:33:30.503Z</time></trkpt><trkpt lat="39.8643283" lon="9.0873467"><ele>769.6666666666666</ele><time>2026-04-23T13:33:31.503Z</time></trkpt><trkpt lat="39.8643167" lon="9.0874633"><ele>771.0</ele><time>2026-04-23T13:33:32.502Z</time></trkpt><trkpt lat="39.8643017" lon="9.08758"><ele>770.8333333333334</ele><time>2026-04-23T13:33:33.502Z</time></trkpt><trkpt lat="39.864295" lon="9.0876933"><ele>770.6666666666667</ele><time>2026-04-23T13:33:34.503Z</time></trkpt><trkpt lat="39.8642867" lon="9.0878067"><ele>770.5</ele><time>2026-04-23T13:33:35.503Z</time></trkpt><trkpt lat="39.8642733" lon="9.0879217"><ele>770.3333333333334</ele><time>2026-04-23T13:33:36.502Z</time></trkpt><trkpt lat="39.8642583" lon="9.0880333"><ele>770.1666666666667</ele><time>2026-04-23T13:33:37.502Z</time></trkpt><trkpt lat="39.8642433" lon="9.0881383"><ele>770.0</ele><time>2026-04-23T13:33:38.503Z</time></trkpt><trkpt lat="39.8642317" lon="9.0882383"><ele>771.3333333333334</ele><time>2026-04-23T13:33:39.503Z</time></trkpt><trkpt lat="39.864215" lon="9.0883383"><ele>772.6666666666667</ele><time>2026-04-23T13:33:40.502Z</time></trkpt><trkpt lat="39.864185" lon="9.08842"><ele>774.0</ele><time>2026-04-23T13:33:41.503Z</time></trkpt><trkpt lat="39.864155" lon="9.088515"><ele>775.3333333333333</ele><time>2026-04-23T13:33:42.502Z</time></trkpt><trkpt lat="39.8641283" lon="9.0886133"><ele>776.6666666666666</ele><time>2026-04-23T13:33:43.503Z</time></trkpt><trkpt lat="39.864095" lon="9.0887233"><ele>778.0</ele><time>2026-04-23T13:33:44.502Z</time></trkpt><trkpt lat="39.8640633" lon="9.088835"><ele>778.0</ele><time>2026-04-23T13:33:45.503Z</time></trkpt><trkpt lat="39.864035" lon="9.0889433"><ele>778.0</ele><time>2026-04-23T13:33:46.502Z</time></trkpt><trkpt lat="39.8640083" lon="9.0890517"><ele>778.0</ele><time>2026-04-23T13:33:47.503Z</time></trkpt><trkpt lat="39.86398" lon="9.0891667"><ele>778.0</ele><time>2026-04-23T13:33:48.502Z</time></trkpt><trkpt lat="39.8639433" lon="9.0892883"><ele>778.0</ele><time>2026-04-23T13:33:49.503Z</time></trkpt><trkpt lat="39.8639133" lon="9.089405"><ele>779.6666666666666</ele><time>2026-04-23T13:33:50.502Z</time></trkpt><trkpt lat="39.8638867" lon="9.0895083"><ele>781.3333333333333</ele><time>2026-04-23T13:33:51.503Z</time></trkpt><trkpt lat="39.86385" lon="9.089595"><ele>783.0</ele><time>2026-04-23T13:33:52.502Z</time></trkpt><trkpt lat="39.8638117" lon="9.0896867"><ele>784.6666666666667</ele><time>2026-04-23T13:33:53.502Z</time></trkpt><trkpt lat="39.8637683" lon="9.0897833"><ele>786.3333333333334</ele><time>2026-04-23T13:33:54.502Z</time></trkpt><trkpt lat="39.8637367" lon="9.0898817"><ele>788.0</ele><time>2026-04-23T13:33:55.503Z</time></trkpt><trkpt lat="39.8637017" lon="9.0899767"><ele>787.8333333333334</ele><time>2026-04-23T13:33:56.502Z</time></trkpt><trkpt lat="39.8636683" lon="9.0900767"><ele>787.6666666666667</ele><time>2026-04-23T13:33:57.503Z</time></trkpt><trkpt lat="39.8636417" lon="9.0901683"><ele>787.5</ele><time>2026-04-23T13:33:58.502Z</time></trkpt><trkpt lat="39.8636217" lon="9.090255"><ele>787.3333333333333</ele><time>2026-04-23T13:33:59.503Z</time></trkpt><trkpt lat="39.863585" lon="9.0904033"><ele>787.1666666666666</ele><time>2026-04-23T13:34:01.503Z</time></trkpt><trkpt lat="39.8635333" lon="9.090485"><ele>787.0</ele><time>2026-04-23T13:34:03.502Z</time></trkpt><trkpt lat="39.8634417" lon="9.0905167"><ele>787.0</ele><time>2026-04-23T13:34:05.503Z</time></trkpt><trkpt lat="39.8633217" lon="9.0905417"><ele>787.0</ele><time>2026-04-23T13:34:07.503Z</time></trkpt><trkpt lat="39.8632233" lon="9.0905967"><ele>787.0</ele><time>2026-04-23T13:34:09.503Z</time></trkpt><trkpt lat="39.86319" lon="9.0906967"><ele>787.0</ele><time>2026-04-23T13:34:11.502Z</time></trkpt><trkpt lat="39.8631867" lon="9.0908317"><ele>787.0</ele><time>2026-04-23T13:34:13.503Z</time></trkpt><trkpt lat="39.8631567" lon="9.09098"><ele>787.6666666666666</ele><time>2026-04-23T13:34:15.503Z</time></trkpt><trkpt lat="39.8631183" lon="9.091055"><ele>788.3333333333333</ele><time>2026-04-23T13:34:16.502Z</time></trkpt><trkpt lat="39.863045" lon="9.0911817"><ele>789.0</ele><time>2026-04-23T13:34:18.502Z</time></trkpt><trkpt lat="39.8630167" lon="9.09126"><ele>789.6666666666667</ele><time>2026-04-23T13:34:19.503Z</time></trkpt><trkpt lat="39.8629883" lon="9.0913517"><ele>790.3333333333334</ele><time>2026-04-23T13:34:20.503Z</time></trkpt><trkpt lat="39.8629567" lon="9.0914517"><ele>791.0</ele><time>2026-04-23T13:34:21.503Z</time></trkpt><trkpt lat="39.862925" lon="9.0915533"><ele>791.4285714285714</ele><time>2026-04-23T13:34:22.503Z</time></trkpt><trkpt lat="39.8628967" lon="9.0916417"><ele>791.8571428571429</ele><time>2026-04-23T13:34:23.502Z</time></trkpt><trkpt lat="39.8628683" lon="9.091725"><ele>792.2857142857142</ele><time>2026-04-23T13:34:24.502Z</time></trkpt><trkpt lat="39.86285" lon="9.0918117"><ele>792.7142857142858</ele><time>2026-04-23T13:34:25.502Z</time></trkpt><trkpt lat="39.8628333" lon="9.09191"><ele>793.1428571428571</ele><time>2026-04-23T13:34:26.503Z</time></trkpt><trkpt lat="39.86282" lon="9.092005"><ele>793.5714285714286</ele><time>2026-04-23T13:34:27.503Z</time></trkpt><trkpt lat="39.8627967" lon="9.0921"><ele>794.0</ele><time>2026-04-23T13:34:28.503Z</time></trkpt><trkpt lat="39.86275" lon="9.0922083"><ele>794.0</ele><time>2026-04-23T13:34:29.503Z</time></trkpt><trkpt lat="39.8626883" lon="9.0923183"><ele>794.0</ele><time>2026-04-23T13:34:30.502Z</time></trkpt><trkpt lat="39.8626333" lon="9.09242"><ele>794.0</ele><time>2026-04-23T13:34:31.503Z</time></trkpt><trkpt lat="39.86258" lon="9.0925133"><ele>794.0</ele><time>2026-04-23T13:34:32.502Z</time></trkpt><trkpt lat="39.8625317" lon="9.09261"><ele>794.0</ele><time>2026-04-23T13:34:33.502Z</time></trkpt><trkpt lat="39.8624717" lon="9.0927117"><ele>794.6</ele><time>2026-04-23T13:34:34.502Z</time></trkpt><trkpt lat="39.8624133" lon="9.092815"><ele>795.2</ele><time>2026-04-23T13:34:35.502Z</time></trkpt><trkpt lat="39.8623583" lon="9.0929217"><ele>795.8000000000001</ele><time>2026-04-23T13:34:36.503Z</time></trkpt><trkpt lat="39.8623033" lon="9.0930333"><ele>796.4000000000001</ele><time>2026-04-23T13:34:37.502Z</time></trkpt><trkpt lat="39.8622433" lon="9.093145"><ele>797.0</ele><time>2026-04-23T13:34:38.503Z</time></trkpt><trkpt lat="39.8621883" lon="9.09325"><ele>798.4000000000001</ele><time>2026-04-23T13:34:39.503Z</time></trkpt><trkpt lat="39.8621283" lon="9.093355"><ele>799.8000000000001</ele><time>2026-04-23T13:34:40.502Z</time></trkpt><trkpt lat="39.8620767" lon="9.093465"><ele>801.2</ele><time>2026-04-23T13:34:41.502Z</time></trkpt><trkpt lat="39.862025" lon="9.09357"><ele>802.6</ele><time>2026-04-23T13:34:42.503Z</time></trkpt><trkpt lat="39.861965" lon="9.093665"><ele>804.0</ele><time>2026-04-23T13:34:43.503Z</time></trkpt><trkpt lat="39.8619083" lon="9.09375"><ele>804.0</ele><time>2026-04-23T13:34:44.502Z</time></trkpt><trkpt lat="39.861855" lon="9.0938483"><ele>804.0</ele><time>2026-04-23T13:34:45.503Z</time></trkpt><trkpt lat="39.8618033" lon="9.0939417"><ele>804.0</ele><time>2026-04-23T13:34:46.503Z</time></trkpt><trkpt lat="39.8617533" lon="9.094035"><ele>804.0</ele><time>2026-04-23T13:34:47.503Z</time></trkpt><trkpt lat="39.86171" lon="9.0941367"><ele>804.0</ele><time>2026-04-23T13:34:48.503Z</time></trkpt><trkpt lat="39.861665" lon="9.0942383"><ele>804.0</ele><time>2026-04-23T13:34:49.502Z</time></trkpt><trkpt lat="39.8616133" lon="9.0943433"><ele>803.8000000000001</ele><time>2026-04-23T13:34:50.502Z</time></trkpt><trkpt lat="39.8615583" lon="9.0944483"><ele>803.6</ele><time>2026-04-23T13:34:51.502Z</time></trkpt><trkpt lat="39.8615" lon="9.0945583"><ele>803.4</ele><time>2026-04-23T13:34:52.502Z</time></trkpt><trkpt lat="39.8614467" lon="9.094665"><ele>803.2</ele><time>2026-04-23T13:34:53.502Z</time></trkpt><trkpt lat="39.861395" lon="9.0947667"><ele>803.0</ele><time>2026-04-23T13:34:54.503Z</time></trkpt><trkpt lat="39.86134" lon="9.0948633"><ele>803.3333333333334</ele><time>2026-04-23T13:34:55.502Z</time></trkpt><trkpt lat="39.8612917" lon="9.0949433"><ele>803.6666666666667</ele><time>2026-04-23T13:34:56.503Z</time></trkpt><trkpt lat="39.8612483" lon="9.0950033"><ele>804.0</ele><time>2026-04-23T13:34:57.503Z</time></trkpt><trkpt lat="39.8612" lon="9.0950683"><ele>804.3333333333333</ele><time>2026-04-23T13:34:59.502Z</time></trkpt><trkpt lat="39.8611567" lon="9.095145"><ele>804.6666666666666</ele><time>2026-04-23T13:35:14.503Z</time></trkpt><trkpt lat="39.8611" lon="9.0952433"><ele>805.0</ele><time>2026-04-23T13:35:16.502Z</time></trkpt><trkpt lat="39.8610567" lon="9.0953367"><ele>805.0</ele><time>2026-04-23T13:35:18.502Z</time></trkpt><trkpt lat="39.8610183" lon="9.095405"><ele>805.0</ele><time>2026-04-23T13:35:20.503Z</time></trkpt><trkpt lat="39.861035" lon="9.095505"><ele>805.0</ele><time>2026-04-23T13:35:23.502Z</time></trkpt><trkpt lat="39.8611033" lon="9.095585"><ele>805.0</ele><time>2026-04-23T13:35:25.503Z</time></trkpt><trkpt lat="39.8611833" lon="9.0956983"><ele>805.0</ele><time>2026-04-23T13:35:27.503Z</time></trkpt><trkpt lat="39.861235" lon="9.0958067"><ele>803.8</ele><time>2026-04-23T13:35:29.503Z</time></trkpt><trkpt lat="39.8612867" lon="9.0959217"><ele>802.6</ele><time>2026-04-23T13:35:31.502Z</time></trkpt><trkpt lat="39.861305" lon="9.0960683"><ele>801.4000000000001</ele><time>2026-04-23T13:35:33.503Z</time></trkpt><trkpt lat="39.8612933" lon="9.09616"><ele>800.2</ele><time>2026-04-23T13:35:34.502Z</time></trkpt><trkpt lat="39.8612867" lon="9.0962733"><ele>799.0</ele><time>2026-04-23T13:35:35.503Z</time></trkpt><trkpt lat="39.8612817" lon="9.0963783"><ele>798.9999999999999</ele><time>2026-04-23T13:35:36.503Z</time></trkpt><trkpt lat="39.861275" lon="9.0964783"><ele>799.0</ele><time>2026-04-23T13:35:37.503Z</time></trkpt><trkpt lat="39.8612717" lon="9.0965867"><ele>799.0</ele><time>2026-04-23T13:35:38.502Z</time></trkpt><trkpt lat="39.8612633" lon="9.0966983"><ele>799.0</ele><time>2026-04-23T13:35:39.503Z</time></trkpt><trkpt lat="39.8612567" lon="9.096805"><ele>798.9999999999999</ele><time>2026-04-23T13:35:40.502Z</time></trkpt><trkpt lat="39.8612517" lon="9.0969167"><ele>799.0</ele><time>2026-04-23T13:35:41.502Z</time></trkpt><trkpt lat="39.8612417" lon="9.0970167"><ele>797.3333333333333</ele><time>2026-04-23T13:35:42.502Z</time></trkpt><trkpt lat="39.8612417" lon="9.09712"><ele>795.6666666666666</ele><time>2026-04-23T13:35:43.502Z</time></trkpt><trkpt lat="39.86124" lon="9.0972217"><ele>794.0</ele><time>2026-04-23T13:35:44.502Z</time></trkpt><trkpt lat="39.8612267" lon="9.097325"><ele>792.3333333333333</ele><time>2026-04-23T13:35:45.502Z</time></trkpt><trkpt lat="39.8612167" lon="9.097415"><ele>790.6666666666666</ele><time>2026-04-23T13:35:46.503Z</time></trkpt><trkpt lat="39.8612167" lon="9.097515"><ele>789.0</ele><time>2026-04-23T13:35:47.502Z</time></trkpt><trkpt lat="39.8612183" lon="9.0976167"><ele>788.3333333333334</ele><time>2026-04-23T13:35:48.502Z</time></trkpt><trkpt lat="39.8612233" lon="9.0977183"><ele>787.6666666666667</ele><time>2026-04-23T13:35:49.502Z</time></trkpt><trkpt lat="39.861225" lon="9.097815"><ele>787.0</ele><time>2026-04-23T13:35:50.502Z</time></trkpt><trkpt lat="39.86123" lon="9.0979317"><ele>786.3333333333334</ele><time>2026-04-23T13:35:51.502Z</time></trkpt><trkpt lat="39.8612383" lon="9.09805"><ele>785.6666666666667</ele><time>2026-04-23T13:35:52.503Z</time></trkpt><trkpt lat="39.861255" lon="9.09816"><ele>785.0</ele><time>2026-04-23T13:35:53.502Z</time></trkpt><trkpt lat="39.8612683" lon="9.0982533"><ele>784.5714285714286</ele><time>2026-04-23T13:35:54.502Z</time></trkpt><trkpt lat="39.8612783" lon="9.0983517"><ele>784.1428571428571</ele><time>2026-04-23T13:35:55.503Z</time></trkpt><trkpt lat="39.8612933" lon="9.0984417"><ele>783.7142857142857</ele><time>2026-04-23T13:35:56.503Z</time></trkpt><trkpt lat="39.8613" lon="9.0985233"><ele>783.2857142857142</ele><time>2026-04-23T13:35:57.502Z</time></trkpt><trkpt lat="39.861315" lon="9.0986067"><ele>782.8571428571429</ele><time>2026-04-23T13:35:58.503Z</time></trkpt><trkpt lat="39.8613483" lon="9.0986783"><ele>782.4285714285713</ele><time>2026-04-23T13:35:59.502Z</time></trkpt><trkpt lat="39.86139" lon="9.098745"><ele>782.0</ele><time>2026-04-23T13:36:00.503Z</time></trkpt><trkpt lat="39.86143" lon="9.0988133"><ele>781.9999999999999</ele><time>2026-04-23T13:36:01.502Z</time></trkpt><trkpt lat="39.8614667" lon="9.0988833"><ele>782.0</ele><time>2026-04-23T13:36:02.502Z</time></trkpt><trkpt lat="39.8615017" lon="9.0989633"><ele>782.0</ele><time>2026-04-23T13:36:03.503Z</time></trkpt><trkpt lat="39.8615367" lon="9.0990467"><ele>782.0</ele><time>2026-04-23T13:36:04.503Z</time></trkpt><trkpt lat="39.8615733" lon="9.0991367"><ele>782.0</ele><time>2026-04-23T13:36:05.502Z</time></trkpt><trkpt lat="39.8616083" lon="9.0992183"><ele>781.9999999999999</ele><time>2026-04-23T13:36:06.503Z</time></trkpt><trkpt lat="39.861645" lon="9.09929"><ele>782.0</ele><time>2026-04-23T13:36:07.502Z</time></trkpt><trkpt lat="39.8616933" lon="9.099365"><ele>782.4000000000001</ele><time>2026-04-23T13:36:08.502Z</time></trkpt><trkpt lat="39.86174" lon="9.099445"><ele>782.8000000000001</ele><time>2026-04-23T13:36:09.502Z</time></trkpt><trkpt lat="39.8617883" lon="9.0995467"><ele>783.2</ele><time>2026-04-23T13:36:10.502Z</time></trkpt><trkpt lat="39.8618417" lon="9.0996667"><ele>783.6</ele><time>2026-04-23T13:36:11.503Z</time></trkpt><trkpt lat="39.8619033" lon="9.099795"><ele>784.0</ele><time>2026-04-23T13:36:12.503Z</time></trkpt><trkpt lat="39.8619717" lon="9.0999233"><ele>782.4000000000001</ele><time>2026-04-23T13:36:13.503Z</time></trkpt><trkpt lat="39.8620367" lon="9.100045"><ele>780.8</ele><time>2026-04-23T13:36:14.503Z</time></trkpt><trkpt lat="39.8620983" lon="9.1001633"><ele>779.2</ele><time>2026-04-23T13:36:15.503Z</time></trkpt><trkpt lat="39.8621517" lon="9.1002783"><ele>777.5999999999999</ele><time>2026-04-23T13:36:16.503Z</time></trkpt><trkpt lat="39.862205" lon="9.100395"><ele>776.0</ele><time>2026-04-23T13:36:17.503Z</time></trkpt><trkpt lat="39.8622583" lon="9.1005183"><ele>776.0</ele><time>2026-04-23T13:36:18.502Z</time></trkpt><trkpt lat="39.8623017" lon="9.1006533"><ele>776.0</ele><time>2026-04-23T13:36:19.503Z</time></trkpt><trkpt lat="39.8623483" lon="9.10078"><ele>776.0</ele><time>2026-04-23T13:36:20.502Z</time></trkpt><trkpt lat="39.8623883" lon="9.10092"><ele>776.0</ele><time>2026-04-23T13:36:21.503Z</time></trkpt><trkpt lat="39.8624167" lon="9.1010583"><ele>776.0</ele><time>2026-04-23T13:36:22.503Z</time></trkpt><trkpt lat="39.8624433" lon="9.1011933"><ele>776.1999999999999</ele><time>2026-04-23T13:36:23.502Z</time></trkpt><trkpt lat="39.8624567" lon="9.1013467"><ele>776.4</ele><time>2026-04-23T13:36:24.502Z</time></trkpt><trkpt lat="39.8624633" lon="9.1014967"><ele>776.6</ele><time>2026-04-23T13:36:25.502Z</time></trkpt><trkpt lat="39.8624683" lon="9.10163"><ele>776.8</ele><time>2026-04-23T13:36:26.503Z</time></trkpt><trkpt lat="39.86247" lon="9.1017617"><ele>777.0</ele><time>2026-04-23T13:36:27.503Z</time></trkpt><trkpt lat="39.8624683" lon="9.101895"><ele>777.0</ele><time>2026-04-23T13:36:28.502Z</time></trkpt><trkpt lat="39.8624617" lon="9.1020267"><ele>777.0</ele><time>2026-04-23T13:36:29.503Z</time></trkpt><trkpt lat="39.8624667" lon="9.1021617"><ele>777.0</ele><time>2026-04-23T13:36:30.503Z</time></trkpt><trkpt lat="39.862485" lon="9.1022817"><ele>777.0</ele><time>2026-04-23T13:36:31.503Z</time></trkpt><trkpt lat="39.8625067" lon="9.102385"><ele>777.0</ele><time>2026-04-23T13:36:32.503Z</time></trkpt><trkpt lat="39.8625167" lon="9.10248"><ele>777.2</ele><time>2026-04-23T13:36:33.502Z</time></trkpt><trkpt lat="39.862515" lon="9.1025767"><ele>777.4000000000001</ele><time>2026-04-23T13:36:34.502Z</time></trkpt><trkpt lat="39.8625067" lon="9.1026833"><ele>777.5999999999999</ele><time>2026-04-23T13:36:35.503Z</time></trkpt><trkpt lat="39.86249" lon="9.1028067"><ele>777.8</ele><time>2026-04-23T13:36:36.502Z</time></trkpt><trkpt lat="39.86247" lon="9.1029367"><ele>778.0</ele><time>2026-04-23T13:36:37.503Z</time></trkpt><trkpt lat="39.8624483" lon="9.1030833"><ele>778.0</ele><time>2026-04-23T13:36:38.503Z</time></trkpt><trkpt lat="39.8624267" lon="9.1032417"><ele>778.0</ele><time>2026-04-23T13:36:39.503Z</time></trkpt><trkpt lat="39.8624117" lon="9.1034"><ele>778.0</ele><time>2026-04-23T13:36:40.502Z</time></trkpt><trkpt lat="39.86239" lon="9.1035583"><ele>778.0</ele><time>2026-04-23T13:36:41.503Z</time></trkpt><trkpt lat="39.862375" lon="9.1037"><ele>777.25</ele><time>2026-04-23T13:36:42.503Z</time></trkpt><trkpt lat="39.862365" lon="9.103855"><ele>776.5</ele><time>2026-04-23T13:36:43.502Z</time></trkpt><trkpt lat="39.8623533" lon="9.1040217"><ele>775.75</ele><time>2026-04-23T13:36:44.503Z</time></trkpt><trkpt lat="39.8623367" lon="9.104195"><ele>775.0</ele><time>2026-04-23T13:36:45.503Z</time></trkpt><trkpt lat="39.8623217" lon="9.1043717"><ele>773.25</ele><time>2026-04-23T13:36:46.502Z</time></trkpt><trkpt lat="39.8623233" lon="9.1045417"><ele>771.5</ele><time>2026-04-23T13:36:47.503Z</time></trkpt><trkpt lat="39.8623183" lon="9.1047183"><ele>769.75</ele><time>2026-04-23T13:36:48.502Z</time></trkpt><trkpt lat="39.862305" lon="9.104905"><ele>768.0</ele><time>2026-04-23T13:36:49.502Z</time></trkpt><trkpt lat="39.8622867" lon="9.1051017"><ele>767.25</ele><time>2026-04-23T13:36:50.502Z</time></trkpt><trkpt lat="39.8622733" lon="9.1052883"><ele>766.5</ele><time>2026-04-23T13:36:51.503Z</time></trkpt><trkpt lat="39.86225" lon="9.1054683"><ele>765.75</ele><time>2026-04-23T13:36:52.503Z</time></trkpt><trkpt lat="39.8622417" lon="9.105645"><ele>765.0</ele><time>2026-04-23T13:36:53.502Z</time></trkpt><trkpt lat="39.8622267" lon="9.1058183"><ele>765.0</ele><time>2026-04-23T13:36:54.502Z</time></trkpt><trkpt lat="39.8622217" lon="9.1059783"><ele>765.0</ele><time>2026-04-23T13:36:55.502Z</time></trkpt><trkpt lat="39.8622117" lon="9.1061283"><ele>765.0</ele><time>2026-04-23T13:36:56.503Z</time></trkpt><trkpt lat="39.8621967" lon="9.1062633"><ele>765.0</ele><time>2026-04-23T13:36:57.503Z</time></trkpt><trkpt lat="39.8621883" lon="9.1063983"><ele>765.0</ele><time>2026-04-23T13:36:58.502Z</time></trkpt><trkpt lat="39.862175" lon="9.1065317"><ele>764.8</ele><time>2026-04-23T13:36:59.502Z</time></trkpt><trkpt lat="39.8621533" lon="9.10666"><ele>764.6</ele><time>2026-04-23T13:37:00.502Z</time></trkpt><trkpt lat="39.8621217" lon="9.1067767"><ele>764.4000000000001</ele><time>2026-04-23T13:37:01.503Z</time></trkpt><trkpt lat="39.862085" lon="9.10689"><ele>764.2</ele><time>2026-04-23T13:37:02.502Z</time></trkpt><trkpt lat="39.8620433" lon="9.107005"><ele>764.0</ele><time>2026-04-23T13:37:03.502Z</time></trkpt><trkpt lat="39.8619867" lon="9.1071233"><ele>764.0</ele><time>2026-04-23T13:37:04.502Z</time></trkpt><trkpt lat="39.8619283" lon="9.10726"><ele>764.0</ele><time>2026-04-23T13:37:05.503Z</time></trkpt><trkpt lat="39.8618717" lon="9.1074033"><ele>764.0</ele><time>2026-04-23T13:37:06.503Z</time></trkpt><trkpt lat="39.8618117" lon="9.1075467"><ele>764.0</ele><time>2026-04-23T13:37:07.502Z</time></trkpt><trkpt lat="39.86175" lon="9.1077017"><ele>764.5</ele><time>2026-04-23T13:37:08.502Z</time></trkpt><trkpt lat="39.8616783" lon="9.10786"><ele>765.0</ele><time>2026-04-23T13:37:09.502Z</time></trkpt><trkpt lat="39.8616117" lon="9.10803"><ele>765.5</ele><time>2026-04-23T13:37:10.502Z</time></trkpt><trkpt lat="39.8615433" lon="9.1081983"><ele>766.0</ele><time>2026-04-23T13:37:11.503Z</time></trkpt><trkpt lat="39.861475" lon="9.1083767"><ele>766.0</ele><time>2026-04-23T13:37:12.503Z</time></trkpt><trkpt lat="39.861405" lon="9.1085533"><ele>766.0</ele><time>2026-04-23T13:37:13.503Z</time></trkpt><trkpt lat="39.8613317" lon="9.1087333"><ele>766.0</ele><time>2026-04-23T13:37:14.503Z</time></trkpt><trkpt lat="39.8612567" lon="9.1088983"><ele>766.0</ele><time>2026-04-23T13:37:15.503Z</time></trkpt><trkpt lat="39.8611917" lon="9.1090517"><ele>766.0</ele><time>2026-04-23T13:37:16.503Z</time></trkpt><trkpt lat="39.8611333" lon="9.1092"><ele>766.0</ele><time>2026-04-23T13:37:17.502Z</time></trkpt><trkpt lat="39.8610817" lon="9.1093383"><ele>766.0</ele><time>2026-04-23T13:37:18.502Z</time></trkpt><trkpt lat="39.86103" lon="9.109475"><ele>766.1999999999999</ele><time>2026-04-23T13:37:19.503Z</time></trkpt><trkpt lat="39.8609683" lon="9.1096083"><ele>766.4</ele><time>2026-04-23T13:37:20.503Z</time></trkpt><trkpt lat="39.8609117" lon="9.1097383"><ele>766.6</ele><time>2026-04-23T13:37:21.503Z</time></trkpt><trkpt lat="39.8608717" lon="9.1098617"><ele>766.8</ele><time>2026-04-23T13:37:22.503Z</time></trkpt><trkpt lat="39.8608367" lon="9.109995"><ele>767.0</ele><time>2026-04-23T13:37:23.503Z</time></trkpt><trkpt lat="39.8608367" lon="9.1101467"><ele>767.0</ele><time>2026-04-23T13:37:24.502Z</time></trkpt><trkpt lat="39.8608583" lon="9.11031"><ele>767.0</ele><time>2026-04-23T13:37:25.503Z</time></trkpt><trkpt lat="39.86089" lon="9.110485"><ele>767.0</ele><time>2026-04-23T13:37:26.502Z</time></trkpt><trkpt lat="39.860935" lon="9.11066"><ele>767.0</ele><time>2026-04-23T13:37:27.502Z</time></trkpt><trkpt lat="39.8609683" lon="9.1108217"><ele>766.25</ele><time>2026-04-23T13:37:28.502Z</time></trkpt><trkpt lat="39.8610033" lon="9.1109717"><ele>765.5</ele><time>2026-04-23T13:37:29.502Z</time></trkpt><trkpt lat="39.8610383" lon="9.1111283"><ele>764.75</ele><time>2026-04-23T13:37:30.502Z</time></trkpt><trkpt lat="39.8610683" lon="9.1112817"><ele>764.0</ele><time>2026-04-23T13:37:31.502Z</time></trkpt><trkpt lat="39.8611067" lon="9.1114433"><ele>764.25</ele><time>2026-04-23T13:37:32.503Z</time></trkpt><trkpt lat="39.8611483" lon="9.11162"><ele>764.5</ele><time>2026-04-23T13:37:33.503Z</time></trkpt><trkpt lat="39.861185" lon="9.1118067"><ele>764.75</ele><time>2026-04-23T13:37:34.503Z</time></trkpt><trkpt lat="39.86122" lon="9.1119917"><ele>765.0</ele><time>2026-04-23T13:37:35.502Z</time></trkpt><trkpt lat="39.8612483" lon="9.112155"><ele>765.0</ele><time>2026-04-23T13:37:36.502Z</time></trkpt><trkpt lat="39.86128" lon="9.1122983"><ele>765.0</ele><time>2026-04-23T13:37:37.503Z</time></trkpt><trkpt lat="39.8613067" lon="9.1124133"><ele>765.0</ele><time>2026-04-23T13:37:38.503Z</time></trkpt><trkpt lat="39.8613333" lon="9.11252"><ele>765.0</ele><time>2026-04-23T13:37:39.502Z</time></trkpt><trkpt lat="39.8613517" lon="9.11262"><ele>765.0</ele><time>2026-04-23T13:37:40.503Z</time></trkpt><trkpt lat="39.8613717" lon="9.1127233"><ele>764.6</ele><time>2026-04-23T13:37:41.503Z</time></trkpt><trkpt lat="39.861395" lon="9.1128333"><ele>764.2</ele><time>2026-04-23T13:37:42.503Z</time></trkpt><trkpt lat="39.8614183" lon="9.1129633"><ele>763.8</ele><time>2026-04-23T13:37:43.502Z</time></trkpt><trkpt lat="39.861435" lon="9.1130983"><ele>763.4</ele><time>2026-04-23T13:37:44.503Z</time></trkpt><trkpt lat="39.8614617" lon="9.1132283"><ele>763.0</ele><time>2026-04-23T13:37:45.503Z</time></trkpt><trkpt lat="39.86149" lon="9.1133683"><ele>763.0</ele><time>2026-04-23T13:37:46.502Z</time></trkpt><trkpt lat="39.8615267" lon="9.1135117"><ele>763.0</ele><time>2026-04-23T13:37:47.503Z</time></trkpt><trkpt lat="39.861555" lon="9.1136633"><ele>763.0</ele><time>2026-04-23T13:37:48.502Z</time></trkpt><trkpt lat="39.86159" lon="9.113815"><ele>763.0</ele><time>2026-04-23T13:37:49.503Z</time></trkpt><trkpt lat="39.8616233" lon="9.1139717"><ele>762.75</ele><time>2026-04-23T13:37:50.503Z</time></trkpt><trkpt lat="39.8616583" lon="9.1141267"><ele>762.5</ele><time>2026-04-23T13:37:51.503Z</time></trkpt><trkpt lat="39.8616933" lon="9.114275"><ele>762.25</ele><time>2026-04-23T13:37:52.503Z</time></trkpt><trkpt lat="39.8617217" lon="9.1144133"><ele>762.0</ele><time>2026-04-23T13:37:53.502Z</time></trkpt><trkpt lat="39.86175" lon="9.1145367"><ele>761.8</ele><time>2026-04-23T13:37:54.502Z</time></trkpt><trkpt lat="39.861785" lon="9.114665"><ele>761.6</ele><time>2026-04-23T13:37:55.503Z</time></trkpt><trkpt lat="39.8618317" lon="9.1147933"><ele>761.4</ele><time>2026-04-23T13:37:56.503Z</time></trkpt><trkpt lat="39.8618833" lon="9.1149083"><ele>761.1999999999999</ele><time>2026-04-23T13:37:57.503Z</time></trkpt><trkpt lat="39.861955" lon="9.115015"><ele>761.0</ele><time>2026-04-23T13:37:58.503Z</time></trkpt><trkpt lat="39.8620183" lon="9.1151167"><ele>761.4</ele><time>2026-04-23T13:37:59.503Z</time></trkpt><trkpt lat="39.862085" lon="9.1152117"><ele>761.8</ele><time>2026-04-23T13:38:00.502Z</time></trkpt><trkpt lat="39.862145" lon="9.11531"><ele>762.1999999999999</ele><time>2026-04-23T13:38:01.502Z</time></trkpt><trkpt lat="39.86221" lon="9.1154067"><ele>762.5999999999999</ele><time>2026-04-23T13:38:02.502Z</time></trkpt><trkpt lat="39.8622717" lon="9.1154983"><ele>763.0</ele><time>2026-04-23T13:38:03.503Z</time></trkpt><trkpt lat="39.8623283" lon="9.1155767"><ele>763.0</ele><time>2026-04-23T13:38:04.502Z</time></trkpt><trkpt lat="39.86238" lon="9.115665"><ele>763.0</ele><time>2026-04-23T13:38:05.503Z</time></trkpt><trkpt lat="39.8624317" lon="9.1157617"><ele>763.0</ele><time>2026-04-23T13:38:06.502Z</time></trkpt><trkpt lat="39.862485" lon="9.1158617"><ele>763.0</ele><time>2026-04-23T13:38:07.502Z</time></trkpt><trkpt lat="39.8625467" lon="9.11595"><ele>763.0</ele><time>2026-04-23T13:38:08.503Z</time></trkpt><trkpt lat="39.8626033" lon="9.116035"><ele>763.0</ele><time>2026-04-23T13:38:09.502Z</time></trkpt><trkpt lat="39.862655" lon="9.1161217"><ele>763.0</ele><time>2026-04-23T13:38:10.503Z</time></trkpt><trkpt lat="39.8627117" lon="9.1161983"><ele>763.0</ele><time>2026-04-23T13:38:11.503Z</time></trkpt><trkpt lat="39.8627567" lon="9.1162767"><ele>763.0</ele><time>2026-04-23T13:38:12.502Z</time></trkpt><trkpt lat="39.8628017" lon="9.1163483"><ele>763.0</ele><time>2026-04-23T13:38:13.503Z</time></trkpt><trkpt lat="39.862845" lon="9.1164133"><ele>763.0</ele><time>2026-04-23T13:38:14.502Z</time></trkpt><trkpt lat="39.8629033" lon="9.1165233"><ele>763.0</ele><time>2026-04-23T13:38:16.502Z</time></trkpt><trkpt lat="39.862895" lon="9.1166067"><ele>762.8333333333334</ele><time>2026-04-23T13:38:18.502Z</time></trkpt><trkpt lat="39.86281" lon="9.1166933"><ele>762.6666666666667</ele><time>2026-04-23T13:38:20.502Z</time></trkpt><trkpt lat="39.8627533" lon="9.1167417"><ele>762.5</ele><time>2026-04-23T13:38:21.502Z</time></trkpt><trkpt lat="39.86269" lon="9.1168"><ele>762.3333333333334</ele><time>2026-04-23T13:38:22.502Z</time></trkpt><trkpt lat="39.86263" lon="9.1168583"><ele>762.1666666666666</ele><time>2026-04-23T13:38:23.502Z</time></trkpt><trkpt lat="39.8625683" lon="9.1169167"><ele>762.0</ele><time>2026-04-23T13:38:24.502Z</time></trkpt><trkpt lat="39.8625017" lon="9.1169767"><ele>762.3333333333334</ele><time>2026-04-23T13:38:25.503Z</time></trkpt><trkpt lat="39.8624267" lon="9.1170417"><ele>762.6666666666666</ele><time>2026-04-23T13:38:26.503Z</time></trkpt><trkpt lat="39.8623533" lon="9.1171033"><ele>763.0</ele><time>2026-04-23T13:38:27.503Z</time></trkpt><trkpt lat="39.8622783" lon="9.11716"><ele>763.3333333333333</ele><time>2026-04-23T13:38:28.503Z</time></trkpt><trkpt lat="39.8622017" lon="9.1172167"><ele>763.6666666666666</ele><time>2026-04-23T13:38:29.502Z</time></trkpt><trkpt lat="39.8621317" lon="9.1172833"><ele>764.0</ele><time>2026-04-23T13:38:30.502Z</time></trkpt><trkpt lat="39.8620583" lon="9.1173683"><ele>764.2</ele><time>2026-04-23T13:38:31.502Z</time></trkpt><trkpt lat="39.8619767" lon="9.1174617"><ele>764.4000000000001</ele><time>2026-04-23T13:38:32.502Z</time></trkpt><trkpt lat="39.8618933" lon="9.11755"><ele>764.6</ele><time>2026-04-23T13:38:33.502Z</time></trkpt><trkpt lat="39.861815" lon="9.1176283"><ele>764.8</ele><time>2026-04-23T13:38:34.503Z</time></trkpt><trkpt lat="39.86173" lon="9.1177117"><ele>765.0</ele><time>2026-04-23T13:38:35.502Z</time></trkpt><trkpt lat="39.861655" lon="9.1177817"><ele>765.8</ele><time>2026-04-23T13:38:36.503Z</time></trkpt><trkpt lat="39.8615883" lon="9.1178483"><ele>766.6</ele><time>2026-04-23T13:38:37.503Z</time></trkpt><trkpt lat="39.861515" lon="9.1179233"><ele>767.4000000000001</ele><time>2026-04-23T13:38:38.502Z</time></trkpt><trkpt lat="39.86144" lon="9.1179967"><ele>768.2</ele><time>2026-04-23T13:38:39.502Z</time></trkpt><trkpt lat="39.8613733" lon="9.1180783"><ele>769.0</ele><time>2026-04-23T13:38:40.502Z</time></trkpt><trkpt lat="39.861295" lon="9.1181583"><ele>769.3333333333333</ele><time>2026-04-23T13:38:41.502Z</time></trkpt><trkpt lat="39.8612133" lon="9.1182417"><ele>769.6666666666666</ele><time>2026-04-23T13:38:42.503Z</time></trkpt><trkpt lat="39.8611383" lon="9.1183217"><ele>770.0</ele><time>2026-04-23T13:38:43.502Z</time></trkpt><trkpt lat="39.861075" lon="9.1183867"><ele>770.3333333333333</ele><time>2026-04-23T13:38:44.502Z</time></trkpt><trkpt lat="39.8610183" lon="9.11844"><ele>770.6666666666666</ele><time>2026-04-23T13:38:45.503Z</time></trkpt><trkpt lat="39.860965" lon="9.1184867"><ele>771.0</ele><time>2026-04-23T13:38:46.503Z</time></trkpt><trkpt lat="39.8608917" lon="9.1185617"><ele>771.0</ele><time>2026-04-23T13:38:48.502Z</time></trkpt><trkpt lat="39.8608683" lon="9.1186683"><ele>771.0</ele><time>2026-04-23T13:38:51.503Z</time></trkpt><trkpt lat="39.8609083" lon="9.118775"><ele>771.0</ele><time>2026-04-23T13:38:53.503Z</time></trkpt><trkpt lat="39.860945" lon="9.1188417"><ele>771.0</ele><time>2026-04-23T13:38:54.502Z</time></trkpt><trkpt lat="39.860995" lon="9.11892"><ele>771.0</ele><time>2026-04-23T13:38:55.503Z</time></trkpt><trkpt lat="39.8610383" lon="9.1190117"><ele>771.0</ele><time>2026-04-23T13:38:56.502Z</time></trkpt><trkpt lat="39.86109" lon="9.1191017"><ele>771.5</ele><time>2026-04-23T13:38:57.502Z</time></trkpt><trkpt lat="39.8611417" lon="9.1191917"><ele>772.0</ele><time>2026-04-23T13:38:58.502Z</time></trkpt><trkpt lat="39.8611967" lon="9.1192733"><ele>772.5</ele><time>2026-04-23T13:38:59.503Z</time></trkpt><trkpt lat="39.8612517" lon="9.1193583"><ele>773.0</ele><time>2026-04-23T13:39:00.503Z</time></trkpt><trkpt lat="39.86131" lon="9.1194467"><ele>773.5</ele><time>2026-04-23T13:39:01.503Z</time></trkpt><trkpt lat="39.86136" lon="9.1195367"><ele>774.0</ele><time>2026-04-23T13:39:02.502Z</time></trkpt><trkpt lat="39.8614183" lon="9.11963"><ele>774.0</ele><time>2026-04-23T13:39:03.503Z</time></trkpt><trkpt lat="39.8614733" lon="9.1197233"><ele>774.0</ele><time>2026-04-23T13:39:04.502Z</time></trkpt><trkpt lat="39.86153" lon="9.1198117"><ele>774.0</ele><time>2026-04-23T13:39:05.503Z</time></trkpt><trkpt lat="39.8615783" lon="9.1198967"><ele>774.0</ele><time>2026-04-23T13:39:06.502Z</time></trkpt><trkpt lat="39.8616233" lon="9.1199767"><ele>774.0</ele><time>2026-04-23T13:39:07.503Z</time></trkpt><trkpt lat="39.861675" lon="9.120055"><ele>774.0</ele><time>2026-04-23T13:39:08.502Z</time></trkpt><trkpt lat="39.8617117" lon="9.1201433"><ele>774.0</ele><time>2026-04-23T13:39:09.503Z</time></trkpt><trkpt lat="39.8617367" lon="9.1202383"><ele>774.0</ele><time>2026-04-23T13:39:10.503Z</time></trkpt><trkpt lat="39.8617367" lon="9.1203283"><ele>774.0</ele><time>2026-04-23T13:39:11.503Z</time></trkpt><trkpt lat="39.86173" lon="9.1204117"><ele>774.0</ele><time>2026-04-23T13:39:12.503Z</time></trkpt><trkpt lat="39.8617117" lon="9.1204917"><ele>774.0</ele><time>2026-04-23T13:39:13.503Z</time></trkpt><trkpt lat="39.8616567" lon="9.1206267"><ele>774.0</ele><time>2026-04-23T13:39:15.503Z</time></trkpt><trkpt lat="39.8616433" lon="9.120755"><ele>774.0</ele><time>2026-04-23T13:39:17.502Z</time></trkpt><trkpt lat="39.8617383" lon="9.1208333"><ele>774.0</ele><time>2026-04-23T13:39:19.503Z</time></trkpt><trkpt lat="39.8618083" lon="9.120845"><ele>774.0</ele><time>2026-04-23T13:39:20.502Z</time></trkpt><trkpt lat="39.8618717" lon="9.1208667"><ele>774.0</ele><time>2026-04-23T13:39:21.502Z</time></trkpt><trkpt lat="39.86197" lon="9.1209667"><ele>774.0</ele><time>2026-04-23T13:39:23.502Z</time></trkpt><trkpt lat="39.86202" lon="9.1210483"><ele>773.8333333333334</ele><time>2026-04-23T13:39:24.502Z</time></trkpt><trkpt lat="39.86207" lon="9.1211467"><ele>773.6666666666667</ele><time>2026-04-23T13:39:25.502Z</time></trkpt><trkpt lat="39.8621183" lon="9.1212483"><ele>773.5</ele><time>2026-04-23T13:39:26.503Z</time></trkpt><trkpt lat="39.8621617" lon="9.1213367"><ele>773.3333333333334</ele><time>2026-04-23T13:39:27.502Z</time></trkpt><trkpt lat="39.8622017" lon="9.12142"><ele>773.1666666666667</ele><time>2026-04-23T13:39:28.503Z</time></trkpt><trkpt lat="39.86225" lon="9.1215017"><ele>773.0</ele><time>2026-04-23T13:39:29.502Z</time></trkpt><trkpt lat="39.8622967" lon="9.121585"><ele>772.3333333333334</ele><time>2026-04-23T13:39:30.503Z</time></trkpt><trkpt lat="39.8623383" lon="9.1216733"><ele>771.6666666666667</ele><time>2026-04-23T13:39:31.503Z</time></trkpt><trkpt lat="39.8623833" lon="9.12175"><ele>771.0</ele><time>2026-04-23T13:39:32.503Z</time></trkpt><trkpt lat="39.8624283" lon="9.1218383"><ele>770.3333333333333</ele><time>2026-04-23T13:39:33.503Z</time></trkpt><trkpt lat="39.8624733" lon="9.1219183"><ele>769.6666666666666</ele><time>2026-04-23T13:39:34.502Z</time></trkpt><trkpt lat="39.8625283" lon="9.122"><ele>769.0</ele><time>2026-04-23T13:39:35.503Z</time></trkpt><trkpt lat="39.8625867" lon="9.1220817"><ele>768.9999999999999</ele><time>2026-04-23T13:39:36.503Z</time></trkpt><trkpt lat="39.8626483" lon="9.1221633"><ele>769.0</ele><time>2026-04-23T13:39:37.503Z</time></trkpt><trkpt lat="39.8627117" lon="9.1222383"><ele>769.0</ele><time>2026-04-23T13:39:38.502Z</time></trkpt><trkpt lat="39.8627767" lon="9.1223117"><ele>769.0</ele><time>2026-04-23T13:39:39.503Z</time></trkpt><trkpt lat="39.8628367" lon="9.1223733"><ele>768.9999999999999</ele><time>2026-04-23T13:39:40.503Z</time></trkpt><trkpt lat="39.86289" lon="9.1224467"><ele>769.0</ele><time>2026-04-23T13:39:41.502Z</time></trkpt><trkpt lat="39.86294" lon="9.12252"><ele>769.1666666666666</ele><time>2026-04-23T13:39:42.503Z</time></trkpt><trkpt lat="39.862975" lon="9.1226033"><ele>769.3333333333333</ele><time>2026-04-23T13:39:43.502Z</time></trkpt><trkpt lat="39.8630067" lon="9.1227017"><ele>769.5</ele><time>2026-04-23T13:39:44.503Z</time></trkpt><trkpt lat="39.8630367" lon="9.1227967"><ele>769.6666666666667</ele><time>2026-04-23T13:39:45.502Z</time></trkpt><trkpt lat="39.8630683" lon="9.1228917"><ele>769.8333333333334</ele><time>2026-04-23T13:39:46.503Z</time></trkpt><trkpt lat="39.863105" lon="9.12298"><ele>770.0</ele><time>2026-04-23T13:39:47.503Z</time></trkpt><trkpt lat="39.86315" lon="9.1230483"><ele>770.0</ele><time>2026-04-23T13:39:48.502Z</time></trkpt><trkpt lat="39.863195" lon="9.12312"><ele>770.0</ele><time>2026-04-23T13:39:49.503Z</time></trkpt><trkpt lat="39.8632383" lon="9.123185"><ele>770.0</ele><time>2026-04-23T13:39:50.502Z</time></trkpt><trkpt lat="39.86328" lon="9.1232583"><ele>770.0</ele><time>2026-04-23T13:39:51.502Z</time></trkpt><trkpt lat="39.8633267" lon="9.1233367"><ele>770.0</ele><time>2026-04-23T13:39:52.503Z</time></trkpt><trkpt lat="39.8633783" lon="9.1234233"><ele>770.0</ele><time>2026-04-23T13:39:53.502Z</time></trkpt><trkpt lat="39.86342" lon="9.123515"><ele>770.0</ele><time>2026-04-23T13:39:54.503Z</time></trkpt><trkpt lat="39.8634717" lon="9.1236133"><ele>770.5000000000001</ele><time>2026-04-23T13:39:55.502Z</time></trkpt><trkpt lat="39.8635183" lon="9.1237067"><ele>771.0</ele><time>2026-04-23T13:39:56.503Z</time></trkpt><trkpt lat="39.8635683" lon="9.1237967"><ele>771.5</ele><time>2026-04-23T13:39:57.502Z</time></trkpt><trkpt lat="39.86362" lon="9.123875"><ele>772.0</ele><time>2026-04-23T13:39:58.502Z</time></trkpt><trkpt lat="39.8636667" lon="9.1239367"><ele>772.5000000000001</ele><time>2026-04-23T13:39:59.502Z</time></trkpt><trkpt lat="39.863735" lon="9.12401"><ele>773.0</ele><time>2026-04-23T13:40:01.503Z</time></trkpt><trkpt lat="39.8638033" lon="9.12415"><ele>773.6666666666667</ele><time>2026-04-23T13:40:03.502Z</time></trkpt><trkpt lat="39.86384" lon="9.124235"><ele>774.3333333333334</ele><time>2026-04-23T13:40:04.503Z</time></trkpt><trkpt lat="39.863885" lon="9.1243167"><ele>775.0</ele><time>2026-04-23T13:40:05.502Z</time></trkpt><trkpt lat="39.8639417" lon="9.1244033"><ele>775.6666666666667</ele><time>2026-04-23T13:40:06.503Z</time></trkpt><trkpt lat="39.8640017" lon="9.1244883"><ele>776.3333333333334</ele><time>2026-04-23T13:40:07.503Z</time></trkpt><trkpt lat="39.8640533" lon="9.124585"><ele>777.0</ele><time>2026-04-23T13:40:08.502Z</time></trkpt><trkpt lat="39.8641117" lon="9.124685"><ele>777.0</ele><time>2026-04-23T13:40:09.502Z</time></trkpt><trkpt lat="39.8641767" lon="9.1247917"><ele>777.0</ele><time>2026-04-23T13:40:10.502Z</time></trkpt><trkpt lat="39.8642383" lon="9.1249017"><ele>777.0</ele><time>2026-04-23T13:40:11.502Z</time></trkpt><trkpt lat="39.8643067" lon="9.1250233"><ele>777.0</ele><time>2026-04-23T13:40:12.503Z</time></trkpt><trkpt lat="39.86437" lon="9.1251233"><ele>777.0</ele><time>2026-04-23T13:40:13.503Z</time></trkpt><trkpt lat="39.8644267" lon="9.1252217"><ele>778.0</ele><time>2026-04-23T13:40:14.503Z</time></trkpt><trkpt lat="39.8644733" lon="9.1253217"><ele>779.0</ele><time>2026-04-23T13:40:15.503Z</time></trkpt><trkpt lat="39.8645267" lon="9.1254283"><ele>780.0</ele><time>2026-04-23T13:40:16.502Z</time></trkpt><trkpt lat="39.864585" lon="9.1255267"><ele>781.0</ele><time>2026-04-23T13:40:17.503Z</time></trkpt><trkpt lat="39.8646333" lon="9.12563"><ele>782.0</ele><time>2026-04-23T13:40:18.502Z</time></trkpt><trkpt lat="39.86469" lon="9.125735"><ele>783.6</ele><time>2026-04-23T13:40:19.502Z</time></trkpt><trkpt lat="39.8647583" lon="9.12584"><ele>785.2</ele><time>2026-04-23T13:40:20.502Z</time></trkpt><trkpt lat="39.8648117" lon="9.125935"><ele>786.8</ele><time>2026-04-23T13:40:21.502Z</time></trkpt><trkpt lat="39.86487" lon="9.1260167"><ele>788.4</ele><time>2026-04-23T13:40:22.502Z</time></trkpt><trkpt lat="39.86493" lon="9.1260817"><ele>790.0</ele><time>2026-04-23T13:40:23.503Z</time></trkpt><trkpt lat="39.865025" lon="9.1261733"><ele>790.4</ele><time>2026-04-23T13:40:25.503Z</time></trkpt><trkpt lat="39.8651367" lon="9.1262267"><ele>790.8</ele><time>2026-04-23T13:40:27.503Z</time></trkpt><trkpt lat="39.8652333" lon="9.126305"><ele>791.2</ele><time>2026-04-23T13:40:29.503Z</time></trkpt><trkpt lat="39.8652667" lon="9.1263867"><ele>791.6</ele><time>2026-04-23T13:40:30.503Z</time></trkpt><trkpt lat="39.8652967" lon="9.1264883"><ele>792.0</ele><time>2026-04-23T13:40:31.502Z</time></trkpt><trkpt lat="39.865325" lon="9.1266067"><ele>793.0</ele><time>2026-04-23T13:40:32.503Z</time></trkpt><trkpt lat="39.8653533" lon="9.1267167"><ele>794.0</ele><time>2026-04-23T13:40:33.502Z</time></trkpt><trkpt lat="39.8653867" lon="9.1268217"><ele>795.0</ele><time>2026-04-23T13:40:34.502Z</time></trkpt><trkpt lat="39.865425" lon="9.126915"><ele>796.0</ele><time>2026-04-23T13:40:35.502Z</time></trkpt><trkpt lat="39.865475" lon="9.127005"><ele>797.0</ele><time>2026-04-23T13:40:36.503Z</time></trkpt><trkpt lat="39.865535" lon="9.1270967"><ele>798.0</ele><time>2026-04-23T13:40:37.503Z</time></trkpt><trkpt lat="39.8656017" lon="9.1271917"><ele>798.0</ele><time>2026-04-23T13:40:38.502Z</time></trkpt><trkpt lat="39.8656667" lon="9.1272983"><ele>798.0</ele><time>2026-04-23T13:40:39.503Z</time></trkpt><trkpt lat="39.8657267" lon="9.1274017"><ele>798.0</ele><time>2026-04-23T13:40:40.502Z</time></trkpt><trkpt lat="39.8657767" lon="9.1275083"><ele>798.0</ele><time>2026-04-23T13:40:41.501Z</time></trkpt><trkpt lat="39.8658233" lon="9.1275983"><ele>798.0</ele><time>2026-04-23T13:40:42.502Z</time></trkpt><trkpt lat="39.86588" lon="9.127695"><ele>799.4</ele><time>2026-04-23T13:40:43.502Z</time></trkpt><trkpt lat="39.86595" lon="9.1277967"><ele>800.8</ele><time>2026-04-23T13:40:44.501Z</time></trkpt><trkpt lat="39.866025" lon="9.1278917"><ele>802.2</ele><time>2026-04-23T13:40:45.501Z</time></trkpt><trkpt lat="39.8660967" lon="9.128"><ele>803.6</ele><time>2026-04-23T13:40:46.502Z</time></trkpt><trkpt lat="39.8661633" lon="9.128105"><ele>805.0</ele><time>2026-04-23T13:40:47.501Z</time></trkpt><trkpt lat="39.8662333" lon="9.1282217"><ele>805.4</ele><time>2026-04-23T13:40:48.502Z</time></trkpt><trkpt lat="39.8662917" lon="9.1283383"><ele>805.8</ele><time>2026-04-23T13:40:49.502Z</time></trkpt><trkpt lat="39.8663517" lon="9.12845"><ele>806.2</ele><time>2026-04-23T13:40:50.501Z</time></trkpt><trkpt lat="39.866405" lon="9.1285467"><ele>806.6</ele><time>2026-04-23T13:40:51.502Z</time></trkpt><trkpt lat="39.86646" lon="9.128645"><ele>807.0</ele><time>2026-04-23T13:40:52.501Z</time></trkpt><trkpt lat="39.86652" lon="9.1287433"><ele>807.0</ele><time>2026-04-23T13:40:53.501Z</time></trkpt><trkpt lat="39.866575" lon="9.1288517"><ele>807.0</ele><time>2026-04-23T13:40:54.501Z</time></trkpt><trkpt lat="39.8666333" lon="9.1289583"><ele>807.0</ele><time>2026-04-23T13:40:55.502Z</time></trkpt><trkpt lat="39.8666967" lon="9.1290717"><ele>807.0</ele><time>2026-04-23T13:40:56.501Z</time></trkpt><trkpt lat="39.8667567" lon="9.1291917"><ele>807.0</ele><time>2026-04-23T13:40:57.502Z</time></trkpt><trkpt lat="39.8668333" lon="9.1293083"><ele>807.6</ele><time>2026-04-23T13:40:58.502Z</time></trkpt><trkpt lat="39.8669117" lon="9.1294133"><ele>808.2</ele><time>2026-04-23T13:40:59.501Z</time></trkpt><trkpt lat="39.866975" lon="9.12951"><ele>808.8</ele><time>2026-04-23T13:41:00.502Z</time></trkpt><trkpt lat="39.8670233" lon="9.1295933"><ele>809.4</ele><time>2026-04-23T13:41:01.501Z</time></trkpt><trkpt lat="39.86707" lon="9.1296633"><ele>810.0</ele><time>2026-04-23T13:41:02.502Z</time></trkpt><trkpt lat="39.8671417" lon="9.1297733"><ele>810.4</ele><time>2026-04-23T13:41:04.501Z</time></trkpt><trkpt lat="39.8672183" lon="9.1298967"><ele>810.8</ele><time>2026-04-23T13:41:06.501Z</time></trkpt><trkpt lat="39.8672617" lon="9.1299833"><ele>811.2</ele><time>2026-04-23T13:41:07.501Z</time></trkpt><trkpt lat="39.8673117" lon="9.130095"><ele>811.6</ele><time>2026-04-23T13:41:08.502Z</time></trkpt><trkpt lat="39.86737" lon="9.13021"><ele>812.0</ele><time>2026-04-23T13:41:09.502Z</time></trkpt><trkpt lat="39.867435" lon="9.1303217"><ele>812.0</ele><time>2026-04-23T13:41:10.501Z</time></trkpt><trkpt lat="39.8675" lon="9.1304233"><ele>812.0</ele><time>2026-04-23T13:41:11.501Z</time></trkpt><trkpt lat="39.8675667" lon="9.1305083"><ele>812.0</ele><time>2026-04-23T13:41:12.502Z</time></trkpt><trkpt lat="39.867635" lon="9.1305833"><ele>812.0</ele><time>2026-04-23T13:41:13.502Z</time></trkpt><trkpt lat="39.8677117" lon="9.1306333"><ele>812.0</ele><time>2026-04-23T13:41:14.501Z</time></trkpt><trkpt lat="39.8677967" lon="9.1306633"><ele>811.5</ele><time>2026-04-23T13:41:15.501Z</time></trkpt><trkpt lat="39.8679083" lon="9.1306917"><ele>811.0</ele><time>2026-04-23T13:41:16.501Z</time></trkpt><trkpt lat="39.86803" lon="9.1307267"><ele>810.5</ele><time>2026-04-23T13:41:17.502Z</time></trkpt><trkpt lat="39.8681483" lon="9.1307617"><ele>810.0</ele><time>2026-04-23T13:41:18.502Z</time></trkpt><trkpt lat="39.8682383" lon="9.13081"><ele>810.6666666666666</ele><time>2026-04-23T13:41:19.502Z</time></trkpt><trkpt lat="39.8683117" lon="9.13086"><ele>811.3333333333333</ele><time>2026-04-23T13:41:20.501Z</time></trkpt><trkpt lat="39.868375" lon="9.1309167"><ele>812.0</ele><time>2026-04-23T13:41:21.501Z</time></trkpt><trkpt lat="39.8684233" lon="9.1309717"><ele>812.6666666666666</ele><time>2026-04-23T13:41:22.501Z</time></trkpt><trkpt lat="39.8684617" lon="9.1311317"><ele>813.3333333333333</ele><time>2026-04-23T13:41:24.501Z</time></trkpt><trkpt lat="39.8684633" lon="9.1312233"><ele>814.0</ele><time>2026-04-23T13:41:25.501Z</time></trkpt><trkpt lat="39.8684683" lon="9.1313217"><ele>814.1666666666666</ele><time>2026-04-23T13:41:26.502Z</time></trkpt><trkpt lat="39.8684817" lon="9.1314217"><ele>814.3333333333333</ele><time>2026-04-23T13:41:27.501Z</time></trkpt><trkpt lat="39.8684933" lon="9.131535"><ele>814.5</ele><time>2026-04-23T13:41:28.502Z</time></trkpt><trkpt lat="39.8685067" lon="9.1316467"><ele>814.6666666666667</ele><time>2026-04-23T13:41:29.502Z</time></trkpt><trkpt lat="39.8685133" lon="9.1317633"><ele>814.8333333333334</ele><time>2026-04-23T13:41:30.501Z</time></trkpt><trkpt lat="39.8685283" lon="9.1318733"><ele>815.0</ele><time>2026-04-23T13:41:31.502Z</time></trkpt><trkpt lat="39.8685483" lon="9.131985"><ele>815.5000000000001</ele><time>2026-04-23T13:41:32.502Z</time></trkpt><trkpt lat="39.8685683" lon="9.1321067"><ele>816.0</ele><time>2026-04-23T13:41:33.502Z</time></trkpt><trkpt lat="39.8686" lon="9.1322183"><ele>816.5</ele><time>2026-04-23T13:41:34.501Z</time></trkpt><trkpt lat="39.8686233" lon="9.132325"><ele>817.0</ele><time>2026-04-23T13:41:35.501Z</time></trkpt><trkpt lat="39.8686517" lon="9.13242"><ele>817.5000000000001</ele><time>2026-04-23T13:41:36.502Z</time></trkpt><trkpt lat="39.8686883" lon="9.1325217"><ele>818.0</ele><time>2026-04-23T13:41:37.502Z</time></trkpt><trkpt lat="39.8687283" lon="9.1326233"><ele>818.5000000000001</ele><time>2026-04-23T13:41:38.501Z</time></trkpt><trkpt lat="39.868765" lon="9.1327217"><ele>819.0</ele><time>2026-04-23T13:41:39.502Z</time></trkpt><trkpt lat="39.868805" lon="9.13282"><ele>819.5</ele><time>2026-04-23T13:41:40.502Z</time></trkpt><trkpt lat="39.868845" lon="9.132925"><ele>820.0</ele><time>2026-04-23T13:41:41.502Z</time></trkpt><trkpt lat="39.86888" lon="9.1330367"><ele>820.5000000000001</ele><time>2026-04-23T13:41:42.501Z</time></trkpt><trkpt lat="39.8689167" lon="9.1331467"><ele>821.0</ele><time>2026-04-23T13:41:43.501Z</time></trkpt><trkpt lat="39.8689617" lon="9.1332483"><ele>821.0000000000001</ele><time>2026-04-23T13:41:44.502Z</time></trkpt><trkpt lat="39.8689983" lon="9.1333333"><ele>821.0</ele><time>2026-04-23T13:41:45.501Z</time></trkpt><trkpt lat="39.869025" lon="9.1334183"><ele>821.0</ele><time>2026-04-23T13:41:46.501Z</time></trkpt><trkpt lat="39.8690383" lon="9.1335033"><ele>821.0</ele><time>2026-04-23T13:41:47.501Z</time></trkpt><trkpt lat="39.869035" lon="9.133595"><ele>821.0</ele><time>2026-04-23T13:41:48.501Z</time></trkpt><trkpt lat="39.8690167" lon="9.1336817"><ele>821.0000000000001</ele><time>2026-04-23T13:41:49.502Z</time></trkpt><trkpt lat="39.86898" lon="9.1337583"><ele>821.0</ele><time>2026-04-23T13:41:50.501Z</time></trkpt><trkpt lat="39.86892" lon="9.13382"><ele>821.0000000000001</ele><time>2026-04-23T13:41:51.502Z</time></trkpt><trkpt lat="39.8688517" lon="9.1338617"><ele>821.0</ele><time>2026-04-23T13:41:52.501Z</time></trkpt><trkpt lat="39.8687833" lon="9.1338917"><ele>821.0</ele><time>2026-04-23T13:41:53.501Z</time></trkpt><trkpt lat="39.8687217" lon="9.133935"><ele>821.0</ele><time>2026-04-23T13:41:54.502Z</time></trkpt><trkpt lat="39.868655" lon="9.133975"><ele>821.0</ele><time>2026-04-23T13:41:55.501Z</time></trkpt><trkpt lat="39.8685867" lon="9.134005"><ele>821.0000000000001</ele><time>2026-04-23T13:41:56.502Z</time></trkpt><trkpt lat="39.868515" lon="9.1340167"><ele>821.0</ele><time>2026-04-23T13:41:57.501Z</time></trkpt><trkpt lat="39.86844" lon="9.1340183"><ele>820.8</ele><time>2026-04-23T13:41:58.501Z</time></trkpt><trkpt lat="39.868375" lon="9.1340383"><ele>820.5999999999999</ele><time>2026-04-23T13:41:59.502Z</time></trkpt><trkpt lat="39.86827" lon="9.1341083"><ele>820.4</ele><time>2026-04-23T13:42:01.501Z</time></trkpt><trkpt lat="39.8681767" lon="9.1341967"><ele>820.2</ele><time>2026-04-23T13:42:03.501Z</time></trkpt><trkpt lat="39.8680767" lon="9.1342833"><ele>820.0</ele><time>2026-04-23T13:42:05.502Z</time></trkpt><trkpt lat="39.86798" lon="9.1343667"><ele>819.6666666666666</ele><time>2026-04-23T13:42:07.501Z</time></trkpt><trkpt lat="39.8678817" lon="9.1344433"><ele>819.3333333333333</ele><time>2026-04-23T13:42:09.501Z</time></trkpt><trkpt lat="39.8677983" lon="9.134505"><ele>819.0</ele><time>2026-04-23T13:42:11.501Z</time></trkpt><trkpt lat="39.867735" lon="9.1345633"><ele>818.6666666666667</ele><time>2026-04-23T13:42:13.502Z</time></trkpt><trkpt lat="39.86768" lon="9.1346067"><ele>818.3333333333334</ele><time>2026-04-23T13:42:15.501Z</time></trkpt><trkpt lat="39.8676283" lon="9.134665"><ele>818.0</ele><time>2026-04-23T13:42:18.502Z</time></trkpt><trkpt lat="39.8675633" lon="9.1347133"><ele>817.1666666666667</ele><time>2026-04-23T13:42:22.501Z</time></trkpt><trkpt lat="39.8675033" lon="9.134765"><ele>816.3333333333334</ele><time>2026-04-23T13:42:27.501Z</time></trkpt><trkpt lat="39.8674367" lon="9.1348283"><ele>815.5</ele><time>2026-04-23T13:42:31.501Z</time></trkpt><trkpt lat="39.8673633" lon="9.1348767"><ele>814.6666666666667</ele><time>2026-04-23T13:42:35.501Z</time></trkpt><trkpt lat="39.8672967" lon="9.1349383"><ele>813.8333333333334</ele><time>2026-04-23T13:42:39.501Z</time></trkpt><trkpt lat="39.867225" lon="9.1350033"><ele>813.0</ele><time>2026-04-23T13:42:43.502Z</time></trkpt><trkpt lat="39.867155" lon="9.13506"><ele>812.1666666666666</ele><time>2026-04-23T13:42:46.502Z</time></trkpt><trkpt lat="39.867065" lon="9.1351167"><ele>811.3333333333333</ele><time>2026-04-23T13:42:48.501Z</time></trkpt><trkpt lat="39.8670067" lon="9.1351517"><ele>810.5</ele><time>2026-04-23T13:42:49.501Z</time></trkpt><trkpt lat="39.8669533" lon="9.135205"><ele>809.6666666666666</ele><time>2026-04-23T13:42:50.502Z</time></trkpt><trkpt lat="39.8668917" lon="9.13526"><ele>808.8333333333333</ele><time>2026-04-23T13:42:51.501Z</time></trkpt><trkpt lat="39.8668267" lon="9.1353167"><ele>808.0</ele><time>2026-04-23T13:42:52.502Z</time></trkpt><trkpt lat="39.866755" lon="9.1353733"><ele>807.5999999999999</ele><time>2026-04-23T13:42:53.502Z</time></trkpt><trkpt lat="39.8666767" lon="9.135435"><ele>807.1999999999999</ele><time>2026-04-23T13:42:54.502Z</time></trkpt><trkpt lat="39.8666033" lon="9.1354933"><ele>806.8</ele><time>2026-04-23T13:42:55.501Z</time></trkpt><trkpt lat="39.8665183" lon="9.1355567"><ele>806.4</ele><time>2026-04-23T13:42:56.501Z</time></trkpt><trkpt lat="39.8664417" lon="9.135615"><ele>806.0</ele><time>2026-04-23T13:42:57.501Z</time></trkpt><trkpt lat="39.8663667" lon="9.13567"><ele>805.1999999999999</ele><time>2026-04-23T13:42:58.501Z</time></trkpt><trkpt lat="39.8663" lon="9.135725"><ele>804.4</ele><time>2026-04-23T13:42:59.502Z</time></trkpt><trkpt lat="39.86623" lon="9.13578"><ele>803.6</ele><time>2026-04-23T13:43:00.502Z</time></trkpt><trkpt lat="39.866145" lon="9.13585"><ele>802.8</ele><time>2026-04-23T13:43:01.501Z</time></trkpt><trkpt lat="39.86606" lon="9.1359233"><ele>802.0</ele><time>2026-04-23T13:43:02.502Z</time></trkpt><trkpt lat="39.8659783" lon="9.1359867"><ele>802.8</ele><time>2026-04-23T13:43:03.501Z</time></trkpt><trkpt lat="39.8659017" lon="9.1360433"><ele>803.6</ele><time>2026-04-23T13:43:04.501Z</time></trkpt><trkpt lat="39.8658217" lon="9.136115"><ele>804.4</ele><time>2026-04-23T13:43:05.501Z</time></trkpt><trkpt lat="39.8657433" lon="9.1361917"><ele>805.1999999999999</ele><time>2026-04-23T13:43:06.502Z</time></trkpt><trkpt lat="39.8656667" lon="9.1362617"><ele>806.0</ele><time>2026-04-23T13:43:07.502Z</time></trkpt><trkpt lat="39.8655983" lon="9.1363117"><ele>806.0000000000001</ele><time>2026-04-23T13:43:08.502Z</time></trkpt><trkpt lat="39.8655317" lon="9.1363567"><ele>806.0</ele><time>2026-04-23T13:43:09.501Z</time></trkpt><trkpt lat="39.8654767" lon="9.136425"><ele>806.0</ele><time>2026-04-23T13:43:10.502Z</time></trkpt><trkpt lat="39.8654383" lon="9.136515"><ele>806.0</ele><time>2026-04-23T13:43:11.502Z</time></trkpt><trkpt lat="39.865425" lon="9.1366467"><ele>806.0000000000001</ele><time>2026-04-23T13:43:12.502Z</time></trkpt><trkpt lat="39.865415" lon="9.1367833"><ele>806.0</ele><time>2026-04-23T13:43:13.502Z</time></trkpt><trkpt lat="39.865415" lon="9.1369333"><ele>806.1999999999999</ele><time>2026-04-23T13:43:14.501Z</time></trkpt><trkpt lat="39.8654167" lon="9.137075"><ele>806.4</ele><time>2026-04-23T13:43:15.501Z</time></trkpt><trkpt lat="39.8654083" lon="9.1372167"><ele>806.6</ele><time>2026-04-23T13:43:16.501Z</time></trkpt><trkpt lat="39.865395" lon="9.1373617"><ele>806.8</ele><time>2026-04-23T13:43:17.501Z</time></trkpt><trkpt lat="39.8653867" lon="9.13751"><ele>807.0</ele><time>2026-04-23T13:43:18.501Z</time></trkpt><trkpt lat="39.8653767" lon="9.1376433"><ele>807.4000000000001</ele><time>2026-04-23T13:43:19.501Z</time></trkpt><trkpt lat="39.8653683" lon="9.13777"><ele>807.8000000000001</ele><time>2026-04-23T13:43:20.502Z</time></trkpt><trkpt lat="39.8653683" lon="9.1378833"><ele>808.2</ele><time>2026-04-23T13:43:21.502Z</time></trkpt><trkpt lat="39.8653817" lon="9.1380067"><ele>808.6</ele><time>2026-04-23T13:43:22.502Z</time></trkpt><trkpt lat="39.8654033" lon="9.1381333"><ele>809.0</ele><time>2026-04-23T13:43:23.501Z</time></trkpt><trkpt lat="39.8654367" lon="9.1382717"><ele>809.6</ele><time>2026-04-23T13:43:24.502Z</time></trkpt><trkpt lat="39.8654817" lon="9.1384167"><ele>810.2</ele><time>2026-04-23T13:43:25.501Z</time></trkpt><trkpt lat="39.8655367" lon="9.1385567"><ele>810.8000000000001</ele><time>2026-04-23T13:43:26.501Z</time></trkpt><trkpt lat="39.8655817" lon="9.1386833"><ele>811.4000000000001</ele><time>2026-04-23T13:43:27.501Z</time></trkpt><trkpt lat="39.8656233" lon="9.1388017"><ele>812.0</ele><time>2026-04-23T13:43:28.502Z</time></trkpt><trkpt lat="39.8656633" lon="9.1389133"><ele>812.0</ele><time>2026-04-23T13:43:29.502Z</time></trkpt><trkpt lat="39.8657" lon="9.1390317"><ele>812.0</ele><time>2026-04-23T13:43:30.502Z</time></trkpt><trkpt lat="39.8657383" lon="9.1391633"><ele>812.0</ele><time>2026-04-23T13:43:31.502Z</time></trkpt><trkpt lat="39.8657783" lon="9.1392967"><ele>812.0</ele><time>2026-04-23T13:43:32.501Z</time></trkpt><trkpt lat="39.8658183" lon="9.1394433"><ele>812.0</ele><time>2026-04-23T13:43:33.502Z</time></trkpt><trkpt lat="39.86586" lon="9.1395783"><ele>812.0000000000001</ele><time>2026-04-23T13:43:34.501Z</time></trkpt><trkpt lat="39.8659017" lon="9.139705"><ele>812.0</ele><time>2026-04-23T13:43:35.501Z</time></trkpt><trkpt lat="39.8659267" lon="9.1398183"><ele>812.0</ele><time>2026-04-23T13:43:36.502Z</time></trkpt><trkpt lat="39.8659617" lon="9.1399117"><ele>812.0</ele><time>2026-04-23T13:43:37.501Z</time></trkpt><trkpt lat="39.8660167" lon="9.1399917"><ele>812.0000000000001</ele><time>2026-04-23T13:43:38.502Z</time></trkpt><trkpt lat="39.8660933" lon="9.1400517"><ele>812.0</ele><time>2026-04-23T13:43:39.502Z</time></trkpt><trkpt lat="39.86619" lon="9.1401083"><ele>813.0</ele><time>2026-04-23T13:43:40.501Z</time></trkpt><trkpt lat="39.8662883" lon="9.1401633"><ele>814.0</ele><time>2026-04-23T13:43:41.501Z</time></trkpt><trkpt lat="39.866385" lon="9.1402217"><ele>815.0</ele><time>2026-04-23T13:43:42.502Z</time></trkpt><trkpt lat="39.866495" lon="9.1402933"><ele>816.0</ele><time>2026-04-23T13:43:43.501Z</time></trkpt><trkpt lat="39.8666033" lon="9.1403617"><ele>816.0</ele><time>2026-04-23T13:43:44.501Z</time></trkpt><trkpt lat="39.8667117" lon="9.1404317"><ele>816.0</ele><time>2026-04-23T13:43:45.502Z</time></trkpt><trkpt lat="39.8668383" lon="9.1404817"><ele>816.0</ele><time>2026-04-23T13:43:46.502Z</time></trkpt><trkpt lat="39.8669683" lon="9.1405183"><ele>816.0</ele><time>2026-04-23T13:43:47.502Z</time></trkpt><trkpt lat="39.8670917" lon="9.1405567"><ele>816.0</ele><time>2026-04-23T13:43:48.502Z</time></trkpt><trkpt lat="39.8672167" lon="9.1405867"><ele>816.0</ele><time>2026-04-23T13:43:49.501Z</time></trkpt><trkpt lat="39.8673383" lon="9.14063"><ele>816.0</ele><time>2026-04-23T13:43:50.501Z</time></trkpt><trkpt lat="39.8674667" lon="9.1406633"><ele>816.0</ele><time>2026-04-23T13:43:51.501Z</time></trkpt><trkpt lat="39.8676" lon="9.140685"><ele>816.75</ele><time>2026-04-23T13:43:52.502Z</time></trkpt><trkpt lat="39.8677333" lon="9.140695"><ele>817.5</ele><time>2026-04-23T13:43:53.502Z</time></trkpt><trkpt lat="39.8678583" lon="9.1407017"><ele>818.25</ele><time>2026-04-23T13:43:54.502Z</time></trkpt><trkpt lat="39.8679867" lon="9.1407133"><ele>819.0</ele><time>2026-04-23T13:43:55.502Z</time></trkpt><trkpt lat="39.8681117" lon="9.1407217"><ele>820.25</ele><time>2026-04-23T13:43:56.501Z</time></trkpt><trkpt lat="39.868235" lon="9.140735"><ele>821.5</ele><time>2026-04-23T13:43:57.502Z</time></trkpt><trkpt lat="39.8683533" lon="9.1407533"><ele>822.75</ele><time>2026-04-23T13:43:58.501Z</time></trkpt><trkpt lat="39.8684733" lon="9.1407683"><ele>824.0</ele><time>2026-04-23T13:43:59.502Z</time></trkpt><trkpt lat="39.868595" lon="9.1407867"><ele>825.0</ele><time>2026-04-23T13:44:00.502Z</time></trkpt><trkpt lat="39.86871" lon="9.1407867"><ele>826.0</ele><time>2026-04-23T13:44:01.501Z</time></trkpt><trkpt lat="39.86882" lon="9.1407833"><ele>827.0</ele><time>2026-04-23T13:44:02.502Z</time></trkpt><trkpt lat="39.868935" lon="9.140755"><ele>828.0</ele><time>2026-04-23T13:44:03.502Z</time></trkpt><trkpt lat="39.869055" lon="9.1407167"><ele>827.8</ele><time>2026-04-23T13:44:04.501Z</time></trkpt><trkpt lat="39.8691683" lon="9.1406733"><ele>827.5999999999999</ele><time>2026-04-23T13:44:05.501Z</time></trkpt><trkpt lat="39.86928" lon="9.1406333"><ele>827.4000000000001</ele><time>2026-04-23T13:44:06.501Z</time></trkpt><trkpt lat="39.86938" lon="9.1406017"><ele>827.2</ele><time>2026-04-23T13:44:07.502Z</time></trkpt><trkpt lat="39.8694833" lon="9.1405783"><ele>827.0</ele><time>2026-04-23T13:44:08.501Z</time></trkpt><trkpt lat="39.8695783" lon="9.1405817"><ele>827.0</ele><time>2026-04-23T13:44:09.502Z</time></trkpt><trkpt lat="39.869675" lon="9.1405917"><ele>827.0</ele><time>2026-04-23T13:44:10.502Z</time></trkpt><trkpt lat="39.8697733" lon="9.1406083"><ele>827.0</ele><time>2026-04-23T13:44:11.501Z</time></trkpt><trkpt lat="39.86987" lon="9.1406383"><ele>827.0</ele><time>2026-04-23T13:44:12.502Z</time></trkpt><trkpt lat="39.8699633" lon="9.1406933"><ele>827.0</ele><time>2026-04-23T13:44:13.502Z</time></trkpt><trkpt lat="39.8700467" lon="9.1407583"><ele>828.0</ele><time>2026-04-23T13:44:14.502Z</time></trkpt><trkpt lat="39.8701367" lon="9.1408333"><ele>829.0</ele><time>2026-04-23T13:44:15.501Z</time></trkpt><trkpt lat="39.8702317" lon="9.1409217"><ele>830.0</ele><time>2026-04-23T13:44:16.501Z</time></trkpt><trkpt lat="39.8703317" lon="9.1410067"><ele>831.0</ele><time>2026-04-23T13:44:17.501Z</time></trkpt><trkpt lat="39.8704267" lon="9.1410883"><ele>831.0</ele><time>2026-04-23T13:44:18.502Z</time></trkpt><trkpt lat="39.8705417" lon="9.1411667"><ele>831.0</ele><time>2026-04-23T13:44:19.502Z</time></trkpt><trkpt lat="39.8706467" lon="9.14126"><ele>831.0</ele><time>2026-04-23T13:44:20.502Z</time></trkpt><trkpt lat="39.8707483" lon="9.1413433"><ele>831.0</ele><time>2026-04-23T13:44:21.502Z</time></trkpt><trkpt lat="39.8708383" lon="9.1414283"><ele>831.0</ele><time>2026-04-23T13:44:22.501Z</time></trkpt><trkpt lat="39.8709317" lon="9.1415017"><ele>831.0</ele><time>2026-04-23T13:44:23.502Z</time></trkpt><trkpt lat="39.8710033" lon="9.1415567"><ele>831.0</ele><time>2026-04-23T13:44:24.501Z</time></trkpt><trkpt lat="39.8710683" lon="9.141615"><ele>831.0</ele><time>2026-04-23T13:44:25.501Z</time></trkpt><trkpt lat="39.8711333" lon="9.1416483"><ele>831.0</ele><time>2026-04-23T13:44:26.502Z</time></trkpt><trkpt lat="39.8711983" lon="9.1416533"><ele>831.0</ele><time>2026-04-23T13:44:27.501Z</time></trkpt><trkpt lat="39.87128" lon="9.1416433"><ele>831.4</ele><time>2026-04-23T13:44:28.502Z</time></trkpt><trkpt lat="39.8713733" lon="9.1416233"><ele>831.8</ele><time>2026-04-23T13:44:29.501Z</time></trkpt><trkpt lat="39.8714717" lon="9.1416"><ele>832.1999999999999</ele><time>2026-04-23T13:44:30.502Z</time></trkpt><trkpt lat="39.871575" lon="9.1415767"><ele>832.5999999999999</ele><time>2026-04-23T13:44:31.502Z</time></trkpt><trkpt lat="39.87169" lon="9.1415433"><ele>833.0</ele><time>2026-04-23T13:44:32.502Z</time></trkpt><trkpt lat="39.8718033" lon="9.14152"><ele>833.25</ele><time>2026-04-23T13:44:33.501Z</time></trkpt><trkpt lat="39.871925" lon="9.1415"><ele>833.5</ele><time>2026-04-23T13:44:34.502Z</time></trkpt><trkpt lat="39.8720433" lon="9.1414767"><ele>833.75</ele><time>2026-04-23T13:44:35.501Z</time></trkpt><trkpt lat="39.8721567" lon="9.1414567"><ele>834.0</ele><time>2026-04-23T13:44:36.502Z</time></trkpt><trkpt lat="39.8722633" lon="9.1414333"><ele>834.0</ele><time>2026-04-23T13:44:37.501Z</time></trkpt><trkpt lat="39.872355" lon="9.1414183"><ele>834.0</ele><time>2026-04-23T13:44:38.502Z</time></trkpt><trkpt lat="39.8724217" lon="9.14141"><ele>834.0</ele><time>2026-04-23T13:44:39.502Z</time></trkpt><trkpt lat="39.8725417" lon="9.1413983"><ele>834.0</ele><time>2026-04-23T13:44:41.502Z</time></trkpt><trkpt lat="39.8726133" lon="9.1413717"><ele>834.0</ele><time>2026-04-23T13:44:42.502Z</time></trkpt><trkpt lat="39.8726983" lon="9.1413383"><ele>834.0</ele><time>2026-04-23T13:44:43.502Z</time></trkpt><trkpt lat="39.872775" lon="9.1412983"><ele>834.0</ele><time>2026-04-23T13:44:44.502Z</time></trkpt><trkpt lat="39.872845" lon="9.1412483"><ele>834.0</ele><time>2026-04-23T13:44:45.502Z</time></trkpt><trkpt lat="39.8729083" lon="9.1412"><ele>834.0</ele><time>2026-04-23T13:44:46.502Z</time></trkpt><trkpt lat="39.87297" lon="9.14116"><ele>834.0</ele><time>2026-04-23T13:44:47.501Z</time></trkpt><trkpt lat="39.873065" lon="9.1410867"><ele>834.0</ele><time>2026-04-23T13:44:49.502Z</time></trkpt><trkpt lat="39.8731267" lon="9.1410533"><ele>834.0</ele><time>2026-04-23T13:44:51.501Z</time></trkpt><trkpt lat="39.8731967" lon="9.14101"><ele>834.0</ele><time>2026-04-23T13:44:55.501Z</time></trkpt><trkpt lat="39.87325" lon="9.1409533"><ele>834.0</ele><time>2026-04-23T13:44:57.501Z</time></trkpt><trkpt lat="39.8733017" lon="9.1408533"><ele>834.0</ele><time>2026-04-23T13:44:59.501Z</time></trkpt><trkpt lat="39.8733633" lon="9.1408"><ele>834.0</ele><time>2026-04-23T13:45:02.501Z</time></trkpt><trkpt lat="39.8733483" lon="9.140915"><ele>834.0</ele><time>2026-04-23T13:45:06.502Z</time></trkpt><trkpt lat="39.8732983" lon="9.1409783"><ele>834.0</ele><time>2026-04-23T13:45:07.502Z</time></trkpt><trkpt lat="39.8732417" lon="9.14106"><ele>834.0</ele><time>2026-04-23T13:45:08.501Z</time></trkpt><trkpt lat="39.873185" lon="9.1411567"><ele>834.0</ele><time>2026-04-23T13:45:09.501Z</time></trkpt><trkpt lat="39.8731333" lon="9.1412717"><ele>834.0</ele><time>2026-04-23T13:45:10.501Z</time></trkpt><trkpt lat="39.8730867" lon="9.1413933"><ele>834.0</ele><time>2026-04-23T13:45:11.502Z</time></trkpt><trkpt lat="39.873035" lon="9.141525"><ele>834.0</ele><time>2026-04-23T13:45:12.501Z</time></trkpt><trkpt lat="39.8729767" lon="9.1416583"><ele>833.4000000000001</ele><time>2026-04-23T13:45:13.501Z</time></trkpt><trkpt lat="39.8729267" lon="9.1417917"><ele>832.8</ele><time>2026-04-23T13:45:14.501Z</time></trkpt><trkpt lat="39.8728767" lon="9.1419133"><ele>832.2</ele><time>2026-04-23T13:45:15.501Z</time></trkpt><trkpt lat="39.8728233" lon="9.142035"><ele>831.5999999999999</ele><time>2026-04-23T13:45:16.502Z</time></trkpt><trkpt lat="39.8727517" lon="9.1421583"><ele>831.0</ele><time>2026-04-23T13:45:17.501Z</time></trkpt><trkpt lat="39.8726617" lon="9.1422783"><ele>832.0</ele><time>2026-04-23T13:45:18.501Z</time></trkpt><trkpt lat="39.8725567" lon="9.1423967"><ele>833.0</ele><time>2026-04-23T13:45:19.501Z</time></trkpt><trkpt lat="39.8724483" lon="9.14252"><ele>834.0</ele><time>2026-04-23T13:45:20.501Z</time></trkpt><trkpt lat="39.8723383" lon="9.14265"><ele>835.0</ele><time>2026-04-23T13:45:21.502Z</time></trkpt><trkpt lat="39.8722317" lon="9.1427783"><ele>835.0</ele><time>2026-04-23T13:45:22.501Z</time></trkpt><trkpt lat="39.8721133" lon="9.1429133"><ele>835.0</ele><time>2026-04-23T13:45:23.501Z</time></trkpt><trkpt lat="39.8720117" lon="9.1430467"><ele>835.0</ele><time>2026-04-23T13:45:24.502Z</time></trkpt><trkpt lat="39.8719133" lon="9.143185"><ele>835.0</ele><time>2026-04-23T13:45:25.501Z</time></trkpt><trkpt lat="39.87181" lon="9.1433133"><ele>835.25</ele><time>2026-04-23T13:45:26.502Z</time></trkpt><trkpt lat="39.8717133" lon="9.1434367"><ele>835.5</ele><time>2026-04-23T13:45:27.501Z</time></trkpt><trkpt lat="39.871615" lon="9.1435617"><ele>835.75</ele><time>2026-04-23T13:45:28.502Z</time></trkpt><trkpt lat="39.8715167" lon="9.143685"><ele>836.0</ele><time>2026-04-23T13:45:29.501Z</time></trkpt><trkpt lat="39.87141" lon="9.1438067"><ele>836.0</ele><time>2026-04-23T13:45:30.501Z</time></trkpt><trkpt lat="39.871305" lon="9.143915"><ele>836.0</ele><time>2026-04-23T13:45:31.501Z</time></trkpt><trkpt lat="39.87119" lon="9.1439933"><ele>836.0</ele><time>2026-04-23T13:45:32.502Z</time></trkpt><trkpt lat="39.8710683" lon="9.14407"><ele>836.0</ele><time>2026-04-23T13:45:33.501Z</time></trkpt><trkpt lat="39.870945" lon="9.1441533"><ele>836.0</ele><time>2026-04-23T13:45:34.501Z</time></trkpt><trkpt lat="39.87082" lon="9.1442233"><ele>836.0</ele><time>2026-04-23T13:45:35.501Z</time></trkpt><trkpt lat="39.8707033" lon="9.1442883"><ele>836.0</ele><time>2026-04-23T13:45:36.502Z</time></trkpt><trkpt lat="39.870585" lon="9.1443633"><ele>836.0</ele><time>2026-04-23T13:45:37.501Z</time></trkpt><trkpt lat="39.870475" lon="9.1444517"><ele>836.0</ele><time>2026-04-23T13:45:38.502Z</time></trkpt><trkpt lat="39.8703667" lon="9.1445617"><ele>836.0</ele><time>2026-04-23T13:45:39.501Z</time></trkpt><trkpt lat="39.8702633" lon="9.144685"><ele>836.0</ele><time>2026-04-23T13:45:40.502Z</time></trkpt><trkpt lat="39.87018" lon="9.1448417"><ele>836.0</ele><time>2026-04-23T13:45:41.501Z</time></trkpt><trkpt lat="39.8701183" lon="9.145035"><ele>836.6666666666667</ele><time>2026-04-23T13:45:42.501Z</time></trkpt><trkpt lat="39.87007" lon="9.145245"><ele>837.3333333333333</ele><time>2026-04-23T13:45:43.501Z</time></trkpt><trkpt lat="39.87001" lon="9.14545"><ele>838.0</ele><time>2026-04-23T13:45:44.502Z</time></trkpt><trkpt lat="39.8699317" lon="9.1456483"><ele>837.3333333333333</ele><time>2026-04-23T13:45:45.501Z</time></trkpt><trkpt lat="39.8698483" lon="9.1458533"><ele>836.6666666666667</ele><time>2026-04-23T13:45:46.502Z</time></trkpt><trkpt lat="39.86976" lon="9.1460633"><ele>836.0</ele><time>2026-04-23T13:45:47.501Z</time></trkpt><trkpt lat="39.86967" lon="9.1462733"><ele>836.0</ele><time>2026-04-23T13:45:48.501Z</time></trkpt><trkpt lat="39.86958" lon="9.1464833"><ele>836.0</ele><time>2026-04-23T13:45:49.501Z</time></trkpt><trkpt lat="39.8694817" lon="9.1466867"><ele>836.0</ele><time>2026-04-23T13:45:50.501Z</time></trkpt><trkpt lat="39.8693883" lon="9.1468867"><ele>836.0</ele><time>2026-04-23T13:45:51.501Z</time></trkpt><trkpt lat="39.8692967" lon="9.1470817"><ele>836.0</ele><time>2026-04-23T13:45:52.502Z</time></trkpt><trkpt lat="39.8692117" lon="9.1472633"><ele>836.0</ele><time>2026-04-23T13:45:53.502Z</time></trkpt><trkpt lat="39.86913" lon="9.1474517"><ele>836.0</ele><time>2026-04-23T13:45:54.501Z</time></trkpt><trkpt lat="39.869035" lon="9.14764"><ele>836.0</ele><time>2026-04-23T13:45:55.501Z</time></trkpt><trkpt lat="39.868945" lon="9.14782"><ele>836.0</ele><time>2026-04-23T13:45:56.502Z</time></trkpt><trkpt lat="39.8688583" lon="9.147995"><ele>836.0</ele><time>2026-04-23T13:45:57.502Z</time></trkpt><trkpt lat="39.8687767" lon="9.1481717"><ele>836.0</ele><time>2026-04-23T13:45:58.502Z</time></trkpt><trkpt lat="39.868705" lon="9.1483133"><ele>836.0</ele><time>2026-04-23T13:45:59.501Z</time></trkpt><trkpt lat="39.868625" lon="9.1484617"><ele>836.0</ele><time>2026-04-23T13:46:00.501Z</time></trkpt><trkpt lat="39.8685233" lon="9.1485917"><ele>835.5</ele><time>2026-04-23T13:46:01.502Z</time></trkpt><trkpt lat="39.86841" lon="9.1487083"><ele>835.0</ele><time>2026-04-23T13:46:02.502Z</time></trkpt><trkpt lat="39.86829" lon="9.14883"><ele>834.5</ele><time>2026-04-23T13:46:03.502Z</time></trkpt><trkpt lat="39.86819" lon="9.1489617"><ele>834.0</ele><time>2026-04-23T13:46:04.501Z</time></trkpt><trkpt lat="39.8681033" lon="9.1491133"><ele>832.75</ele><time>2026-04-23T13:46:05.501Z</time></trkpt><trkpt lat="39.868035" lon="9.1492683"><ele>831.5</ele><time>2026-04-23T13:46:06.502Z</time></trkpt><trkpt lat="39.8679717" lon="9.149435"><ele>830.25</ele><time>2026-04-23T13:46:07.502Z</time></trkpt><trkpt lat="39.86793" lon="9.149615"><ele>829.0</ele><time>2026-04-23T13:46:08.501Z</time></trkpt><trkpt lat="39.86791" lon="9.1497817"><ele>827.25</ele><time>2026-04-23T13:46:09.501Z</time></trkpt><trkpt lat="39.8678883" lon="9.1499433"><ele>825.5</ele><time>2026-04-23T13:46:10.501Z</time></trkpt><trkpt lat="39.8678583" lon="9.150085"><ele>823.75</ele><time>2026-04-23T13:46:11.501Z</time></trkpt><trkpt lat="39.867815" lon="9.1502183"><ele>822.0</ele><time>2026-04-23T13:46:12.502Z</time></trkpt><trkpt lat="39.8677333" lon="9.1503617"><ele>822.0</ele><time>2026-04-23T13:46:13.501Z</time></trkpt><trkpt lat="39.86764" lon="9.1505117"><ele>822.0</ele><time>2026-04-23T13:46:14.501Z</time></trkpt><trkpt lat="39.86755" lon="9.1506717"><ele>822.0</ele><time>2026-04-23T13:46:15.502Z</time></trkpt><trkpt lat="39.867455" lon="9.15084"><ele>821.5</ele><time>2026-04-23T13:46:16.502Z</time></trkpt><trkpt lat="39.8673633" lon="9.1509917"><ele>821.0</ele><time>2026-04-23T13:46:17.501Z</time></trkpt><trkpt lat="39.8672733" lon="9.1511533"><ele>820.5</ele><time>2026-04-23T13:46:18.501Z</time></trkpt><trkpt lat="39.867195" lon="9.1513067"><ele>820.0</ele><time>2026-04-23T13:46:19.501Z</time></trkpt><trkpt lat="39.8671283" lon="9.151445"><ele>819.2</ele><time>2026-04-23T13:46:20.502Z</time></trkpt><trkpt lat="39.867075" lon="9.1515833"><ele>818.4</ele><time>2026-04-23T13:46:21.501Z</time></trkpt><trkpt lat="39.8670533" lon="9.151725"><ele>817.5999999999999</ele><time>2026-04-23T13:46:22.502Z</time></trkpt><trkpt lat="39.8670767" lon="9.1518617"><ele>816.8</ele><time>2026-04-23T13:46:23.502Z</time></trkpt><trkpt lat="39.8671233" lon="9.1519917"><ele>816.0</ele><time>2026-04-23T13:46:24.501Z</time></trkpt><trkpt lat="39.8671917" lon="9.1521333"><ele>816.0</ele><time>2026-04-23T13:46:25.502Z</time></trkpt><trkpt lat="39.8672783" lon="9.1522833"><ele>816.0</ele><time>2026-04-23T13:46:26.501Z</time></trkpt><trkpt lat="39.8673617" lon="9.1524483"><ele>816.0</ele><time>2026-04-23T13:46:27.501Z</time></trkpt><trkpt lat="39.86744" lon="9.1526083"><ele>816.0</ele><time>2026-04-23T13:46:28.502Z</time></trkpt><trkpt lat="39.8675217" lon="9.152765"><ele>816.0</ele><time>2026-04-23T13:46:29.502Z</time></trkpt><trkpt lat="39.86761" lon="9.152935"><ele>816.0</ele><time>2026-04-23T13:46:30.502Z</time></trkpt><trkpt lat="39.8677017" lon="9.1531067"><ele>816.0</ele><time>2026-04-23T13:46:31.502Z</time></trkpt><trkpt lat="39.867795" lon="9.1533"><ele>818.6666666666667</ele><time>2026-04-23T13:46:32.502Z</time></trkpt><trkpt lat="39.8678817" lon="9.1534933"><ele>821.3333333333334</ele><time>2026-04-23T13:46:33.502Z</time></trkpt><trkpt lat="39.8679767" lon="9.1536883"><ele>824.0</ele><time>2026-04-23T13:46:34.501Z</time></trkpt><trkpt lat="39.868075" lon="9.1538817"><ele>824.6666666666667</ele><time>2026-04-23T13:46:35.501Z</time></trkpt><trkpt lat="39.8681767" lon="9.15408"><ele>825.3333333333333</ele><time>2026-04-23T13:46:36.502Z</time></trkpt><trkpt lat="39.86827" lon="9.154275"><ele>826.0</ele><time>2026-04-23T13:46:37.501Z</time></trkpt><trkpt lat="39.868365" lon="9.15447"><ele>828.3333333333333</ele><time>2026-04-23T13:46:38.502Z</time></trkpt><trkpt lat="39.868465" lon="9.1546633"><ele>830.6666666666667</ele><time>2026-04-23T13:46:39.502Z</time></trkpt><trkpt lat="39.8685667" lon="9.1548567"><ele>833.0</ele><time>2026-04-23T13:46:40.501Z</time></trkpt><trkpt lat="39.8686617" lon="9.1550467"><ele>833.0</ele><time>2026-04-23T13:46:41.502Z</time></trkpt><trkpt lat="39.8687417" lon="9.1552017"><ele>833.0</ele><time>2026-04-23T13:46:42.501Z</time></trkpt><trkpt lat="39.86882" lon="9.1553533"><ele>833.0</ele><time>2026-04-23T13:46:43.501Z</time></trkpt><trkpt lat="39.8688917" lon="9.1555017"><ele>833.0</ele><time>2026-04-23T13:46:44.501Z</time></trkpt><trkpt lat="39.8689467" lon="9.1556433"><ele>833.3333333333334</ele><time>2026-04-23T13:46:45.502Z</time></trkpt><trkpt lat="39.8689883" lon="9.155765"><ele>833.6666666666667</ele><time>2026-04-23T13:46:46.502Z</time></trkpt><trkpt lat="39.8690133" lon="9.15588"><ele>834.0</ele><time>2026-04-23T13:46:47.501Z</time></trkpt><trkpt lat="39.8690117" lon="9.1559633"><ele>834.3333333333333</ele><time>2026-04-23T13:46:48.501Z</time></trkpt><trkpt lat="39.8689733" lon="9.1560517"><ele>834.6666666666666</ele><time>2026-04-23T13:46:50.501Z</time></trkpt><trkpt lat="39.8689167" lon="9.15611"><ele>835.0</ele><time>2026-04-23T13:46:52.501Z</time></trkpt><trkpt lat="39.868825" lon="9.1561967"><ele>834.9999999999999</ele><time>2026-04-23T13:46:54.501Z</time></trkpt><trkpt lat="39.86877" lon="9.1562567"><ele>835.0</ele><time>2026-04-23T13:46:55.501Z</time></trkpt><trkpt lat="39.8687117" lon="9.1563267"><ele>835.0</ele><time>2026-04-23T13:46:56.502Z</time></trkpt><trkpt lat="39.8686567" lon="9.156405"><ele>835.0</ele><time>2026-04-23T13:46:57.502Z</time></trkpt><trkpt lat="39.868605" lon="9.1564767"><ele>834.9999999999999</ele><time>2026-04-23T13:46:58.502Z</time></trkpt><trkpt lat="39.8685467" lon="9.1565567"><ele>835.0</ele><time>2026-04-23T13:46:59.501Z</time></trkpt><trkpt lat="39.8684833" lon="9.1566433"><ele>834.0</ele><time>2026-04-23T13:47:00.501Z</time></trkpt><trkpt lat="39.8684217" lon="9.1567383"><ele>833.0</ele><time>2026-04-23T13:47:01.502Z</time></trkpt><trkpt lat="39.868355" lon="9.15683"><ele>832.0</ele><time>2026-04-23T13:47:02.501Z</time></trkpt><trkpt lat="39.86829" lon="9.1569267"><ele>831.0</ele><time>2026-04-23T13:47:03.502Z</time></trkpt><trkpt lat="39.8682183" lon="9.157015"><ele>830.0</ele><time>2026-04-23T13:47:04.502Z</time></trkpt><trkpt lat="39.8681517" lon="9.1570983"><ele>830.0</ele><time>2026-04-23T13:47:05.502Z</time></trkpt><trkpt lat="39.8680783" lon="9.1571667"><ele>830.0</ele><time>2026-04-23T13:47:06.502Z</time></trkpt><trkpt lat="39.868005" lon="9.1572417"><ele>830.0</ele><time>2026-04-23T13:47:07.502Z</time></trkpt><trkpt lat="39.8679267" lon="9.1573283"><ele>830.0</ele><time>2026-04-23T13:47:08.501Z</time></trkpt><trkpt lat="39.8678333" lon="9.157415"><ele>830.0</ele><time>2026-04-23T13:47:09.502Z</time></trkpt><trkpt lat="39.8677367" lon="9.1574983"><ele>829.4</ele><time>2026-04-23T13:47:10.501Z</time></trkpt><trkpt lat="39.8676467" lon="9.1575817"><ele>828.8</ele><time>2026-04-23T13:47:11.501Z</time></trkpt><trkpt lat="39.86757" lon="9.1576867"><ele>828.2</ele><time>2026-04-23T13:47:12.501Z</time></trkpt><trkpt lat="39.8675033" lon="9.1577917"><ele>827.6</ele><time>2026-04-23T13:47:13.501Z</time></trkpt><trkpt lat="39.86743" lon="9.1578867"><ele>827.0</ele><time>2026-04-23T13:47:14.502Z</time></trkpt><trkpt lat="39.8673433" lon="9.1579617"><ele>826.5</ele><time>2026-04-23T13:47:15.502Z</time></trkpt><trkpt lat="39.86726" lon="9.1580483"><ele>826.0</ele><time>2026-04-23T13:47:16.501Z</time></trkpt><trkpt lat="39.8671733" lon="9.1581483"><ele>825.5</ele><time>2026-04-23T13:47:17.501Z</time></trkpt><trkpt lat="39.8670817" lon="9.1582467"><ele>825.0</ele><time>2026-04-23T13:47:18.502Z</time></trkpt><trkpt lat="39.8669983" lon="9.15835"><ele>824.6</ele><time>2026-04-23T13:47:19.502Z</time></trkpt><trkpt lat="39.8669083" lon="9.1584533"><ele>824.2</ele><time>2026-04-23T13:47:20.501Z</time></trkpt><trkpt lat="39.8668133" lon="9.1585467"><ele>823.8</ele><time>2026-04-23T13:47:21.501Z</time></trkpt><trkpt lat="39.8667333" lon="9.1586317"><ele>823.4</ele><time>2026-04-23T13:47:22.501Z</time></trkpt><trkpt lat="39.8666583" lon="9.1587217"><ele>823.0</ele><time>2026-04-23T13:47:23.502Z</time></trkpt><trkpt lat="39.86658" lon="9.1588083"><ele>822.0</ele><time>2026-04-23T13:47:24.502Z</time></trkpt><trkpt lat="39.8665067" lon="9.158895"><ele>821.0</ele><time>2026-04-23T13:47:25.501Z</time></trkpt><trkpt lat="39.8664267" lon="9.1589717"><ele>820.0</ele><time>2026-04-23T13:47:26.501Z</time></trkpt><trkpt lat="39.8663417" lon="9.159025"><ele>819.0</ele><time>2026-04-23T13:47:27.501Z</time></trkpt><trkpt lat="39.8662533" lon="9.1590717"><ele>818.0</ele><time>2026-04-23T13:47:28.502Z</time></trkpt><trkpt lat="39.8661533" lon="9.1590983"><ele>818.0</ele><time>2026-04-23T13:47:29.501Z</time></trkpt><trkpt lat="39.86604" lon="9.1590983"><ele>818.0</ele><time>2026-04-23T13:47:30.501Z</time></trkpt><trkpt lat="39.8659267" lon="9.1590833"><ele>818.0</ele><time>2026-04-23T13:47:31.502Z</time></trkpt><trkpt lat="39.8658183" lon="9.1590683"><ele>818.0</ele><time>2026-04-23T13:47:32.502Z</time></trkpt><trkpt lat="39.86571" lon="9.1590567"><ele>818.0</ele><time>2026-04-23T13:47:33.501Z</time></trkpt><trkpt lat="39.8656033" lon="9.15903"><ele>815.25</ele><time>2026-04-23T13:47:34.501Z</time></trkpt><trkpt lat="39.865485" lon="9.1590017"><ele>812.5</ele><time>2026-04-23T13:47:35.502Z</time></trkpt><trkpt lat="39.8653617" lon="9.1589733"><ele>809.75</ele><time>2026-04-23T13:47:36.501Z</time></trkpt><trkpt lat="39.86523" lon="9.1589533"><ele>807.0</ele><time>2026-04-23T13:47:37.502Z</time></trkpt><trkpt lat="39.8651033" lon="9.158935"><ele>805.0</ele><time>2026-04-23T13:47:38.501Z</time></trkpt><trkpt lat="39.864975" lon="9.158925"><ele>803.0</ele><time>2026-04-23T13:47:39.502Z</time></trkpt><trkpt lat="39.8648517" lon="9.1589133"><ele>801.0</ele><time>2026-04-23T13:47:40.501Z</time></trkpt><trkpt lat="39.8647317" lon="9.1589233"><ele>799.0</ele><time>2026-04-23T13:47:41.501Z</time></trkpt><trkpt lat="39.864615" lon="9.15894"><ele>799.0</ele><time>2026-04-23T13:47:42.501Z</time></trkpt><trkpt lat="39.8644983" lon="9.158975"><ele>799.0</ele><time>2026-04-23T13:47:43.501Z</time></trkpt><trkpt lat="39.8643783" lon="9.159025"><ele>799.0</ele><time>2026-04-23T13:47:44.502Z</time></trkpt><trkpt lat="39.8642617" lon="9.1590883"><ele>799.0</ele><time>2026-04-23T13:47:45.502Z</time></trkpt><trkpt lat="39.864145" lon="9.1591517"><ele>799.5</ele><time>2026-04-23T13:47:46.501Z</time></trkpt><trkpt lat="39.8640233" lon="9.1592233"><ele>800.0</ele><time>2026-04-23T13:47:47.502Z</time></trkpt><trkpt lat="39.8638983" lon="9.1592983"><ele>800.5</ele><time>2026-04-23T13:47:48.501Z</time></trkpt><trkpt lat="39.8637767" lon="9.1593733"><ele>801.0</ele><time>2026-04-23T13:47:49.502Z</time></trkpt><trkpt lat="39.8636583" lon="9.1594483"><ele>801.0</ele><time>2026-04-23T13:47:50.502Z</time></trkpt><trkpt lat="39.8635483" lon="9.159515"><ele>801.0</ele><time>2026-04-23T13:47:51.502Z</time></trkpt><trkpt lat="39.863445" lon="9.1595783"><ele>801.0</ele><time>2026-04-23T13:47:52.502Z</time></trkpt><trkpt lat="39.8633517" lon="9.159635"><ele>801.0</ele><time>2026-04-23T13:47:53.501Z</time></trkpt><trkpt lat="39.8632583" lon="9.1596817"><ele>801.0</ele><time>2026-04-23T13:47:54.502Z</time></trkpt><trkpt lat="39.86316" lon="9.1597283"><ele>800.0</ele><time>2026-04-23T13:47:55.502Z</time></trkpt><trkpt lat="39.8630483" lon="9.1597667"><ele>799.0</ele><time>2026-04-23T13:47:56.501Z</time></trkpt><trkpt lat="39.8629283" lon="9.1598133"><ele>798.0</ele><time>2026-04-23T13:47:57.502Z</time></trkpt><trkpt lat="39.8628033" lon="9.159855"><ele>797.0</ele><time>2026-04-23T13:47:58.501Z</time></trkpt><trkpt lat="39.8626883" lon="9.15989"><ele>796.6</ele><time>2026-04-23T13:47:59.501Z</time></trkpt><trkpt lat="39.8625767" lon="9.159915"><ele>796.2</ele><time>2026-04-23T13:48:00.501Z</time></trkpt><trkpt lat="39.862465" lon="9.1599333"><ele>795.8</ele><time>2026-04-23T13:48:01.501Z</time></trkpt><trkpt lat="39.8623617" lon="9.1599417"><ele>795.4</ele><time>2026-04-23T13:48:02.501Z</time></trkpt><trkpt lat="39.8622583" lon="9.1599383"><ele>795.0</ele><time>2026-04-23T13:48:03.501Z</time></trkpt><trkpt lat="39.8621433" lon="9.159915"><ele>795.0</ele><time>2026-04-23T13:48:04.502Z</time></trkpt><trkpt lat="39.8620167" lon="9.1598783"><ele>795.0</ele><time>2026-04-23T13:48:05.501Z</time></trkpt><trkpt lat="39.8618967" lon="9.1598283"><ele>795.0</ele><time>2026-04-23T13:48:06.502Z</time></trkpt><trkpt lat="39.8617817" lon="9.159765"><ele>795.0</ele><time>2026-04-23T13:48:07.501Z</time></trkpt><trkpt lat="39.8616783" lon="9.1597233"><ele>793.5</ele><time>2026-04-23T13:48:08.502Z</time></trkpt><trkpt lat="39.861565" lon="9.1596983"><ele>792.0</ele><time>2026-04-23T13:48:09.502Z</time></trkpt><trkpt lat="39.8614483" lon="9.1597017"><ele>790.5</ele><time>2026-04-23T13:48:10.501Z</time></trkpt><trkpt lat="39.8613383" lon="9.159715"><ele>789.0</ele><time>2026-04-23T13:48:11.501Z</time></trkpt><trkpt lat="39.8612183" lon="9.1597217"><ele>789.0</ele><time>2026-04-23T13:48:12.502Z</time></trkpt><trkpt lat="39.8610967" lon="9.15972"><ele>789.0</ele><time>2026-04-23T13:48:13.501Z</time></trkpt><trkpt lat="39.8609683" lon="9.159705"><ele>789.0</ele><time>2026-04-23T13:48:14.502Z</time></trkpt><trkpt lat="39.8608383" lon="9.15969"><ele>789.0</ele><time>2026-04-23T13:48:15.502Z</time></trkpt><trkpt lat="39.860715" lon="9.159665"><ele>788.75</ele><time>2026-04-23T13:48:16.501Z</time></trkpt><trkpt lat="39.86059" lon="9.1596417"><ele>788.5</ele><time>2026-04-23T13:48:17.502Z</time></trkpt><trkpt lat="39.8604683" lon="9.159625"><ele>788.25</ele><time>2026-04-23T13:48:18.501Z</time></trkpt><trkpt lat="39.8603533" lon="9.15962"><ele>788.0</ele><time>2026-04-23T13:48:19.502Z</time></trkpt><trkpt lat="39.860245" lon="9.1596017"><ele>788.0000000000001</ele><time>2026-04-23T13:48:20.501Z</time></trkpt><trkpt lat="39.8601467" lon="9.15957"><ele>788.0</ele><time>2026-04-23T13:48:21.501Z</time></trkpt><trkpt lat="39.860065" lon="9.1595067"><ele>788.0</ele><time>2026-04-23T13:48:22.501Z</time></trkpt><trkpt lat="39.859995" lon="9.1594317"><ele>788.0</ele><time>2026-04-23T13:48:23.501Z</time></trkpt><trkpt lat="39.8599333" lon="9.1593633"><ele>788.0000000000001</ele><time>2026-04-23T13:48:24.501Z</time></trkpt><trkpt lat="39.8598683" lon="9.1593233"><ele>788.0</ele><time>2026-04-23T13:48:25.501Z</time></trkpt><trkpt lat="39.8597967" lon="9.1593167"><ele>787.8</ele><time>2026-04-23T13:48:26.502Z</time></trkpt><trkpt lat="39.859715" lon="9.1593417"><ele>787.5999999999999</ele><time>2026-04-23T13:48:27.501Z</time></trkpt><trkpt lat="39.859625" lon="9.1593883"><ele>787.4000000000001</ele><time>2026-04-23T13:48:28.502Z</time></trkpt><trkpt lat="39.8595317" lon="9.1594433"><ele>787.2</ele><time>2026-04-23T13:48:29.501Z</time></trkpt><trkpt lat="39.85943" lon="9.159495"><ele>787.0</ele><time>2026-04-23T13:48:30.502Z</time></trkpt><trkpt lat="39.8593233" lon="9.1595517"><ele>787.5</ele><time>2026-04-23T13:48:31.501Z</time></trkpt><trkpt lat="39.8592083" lon="9.1596083"><ele>788.0</ele><time>2026-04-23T13:48:32.501Z</time></trkpt><trkpt lat="39.859095" lon="9.1596633"><ele>788.5</ele><time>2026-04-23T13:48:33.501Z</time></trkpt><trkpt lat="39.8589667" lon="9.15972"><ele>789.0</ele><time>2026-04-23T13:48:34.501Z</time></trkpt><trkpt lat="39.8588417" lon="9.1597567"><ele>789.0</ele><time>2026-04-23T13:48:35.501Z</time></trkpt><trkpt lat="39.8587267" lon="9.1598133"><ele>789.0</ele><time>2026-04-23T13:48:36.502Z</time></trkpt><trkpt lat="39.8586083" lon="9.1598767"><ele>789.0</ele><time>2026-04-23T13:48:37.502Z</time></trkpt><trkpt lat="39.8585067" lon="9.1599367"><ele>789.0</ele><time>2026-04-23T13:48:38.501Z</time></trkpt><trkpt lat="39.8584033" lon="9.1599867"><ele>788.5</ele><time>2026-04-23T13:48:39.501Z</time></trkpt><trkpt lat="39.8583" lon="9.1600167"><ele>788.0</ele><time>2026-04-23T13:48:40.502Z</time></trkpt><trkpt lat="39.8581867" lon="9.16003"><ele>787.5</ele><time>2026-04-23T13:48:41.501Z</time></trkpt><trkpt lat="39.858065" lon="9.1600433"><ele>787.0</ele><time>2026-04-23T13:48:42.501Z</time></trkpt><trkpt lat="39.8579317" lon="9.16005"><ele>787.0</ele><time>2026-04-23T13:48:43.501Z</time></trkpt><trkpt lat="39.8577983" lon="9.1600583"><ele>787.0</ele><time>2026-04-23T13:48:44.501Z</time></trkpt><trkpt lat="39.8576767" lon="9.160075"><ele>787.0</ele><time>2026-04-23T13:48:45.502Z</time></trkpt><trkpt lat="39.8575517" lon="9.1601117"><ele>787.0</ele><time>2026-04-23T13:48:46.502Z</time></trkpt><trkpt lat="39.8574417" lon="9.16015"><ele>787.25</ele><time>2026-04-23T13:48:47.502Z</time></trkpt><trkpt lat="39.8573267" lon="9.1601967"><ele>787.5</ele><time>2026-04-23T13:48:48.501Z</time></trkpt><trkpt lat="39.8572117" lon="9.1602633"><ele>787.75</ele><time>2026-04-23T13:48:49.502Z</time></trkpt><trkpt lat="39.8570883" lon="9.1603417"><ele>788.0</ele><time>2026-04-23T13:48:50.501Z</time></trkpt><trkpt lat="39.8569567" lon="9.1604167"><ele>788.0</ele><time>2026-04-23T13:48:51.501Z</time></trkpt><trkpt lat="39.856835" lon="9.1604917"><ele>788.0</ele><time>2026-04-23T13:48:52.502Z</time></trkpt><trkpt lat="39.8567317" lon="9.1605533"><ele>788.0</ele><time>2026-04-23T13:48:53.501Z</time></trkpt><trkpt lat="39.856635" lon="9.1606233"><ele>788.0</ele><time>2026-04-23T13:48:54.501Z</time></trkpt><trkpt lat="39.8565467" lon="9.160705"><ele>786.8</ele><time>2026-04-23T13:48:55.501Z</time></trkpt><trkpt lat="39.8564633" lon="9.1607883"><ele>785.5999999999999</ele><time>2026-04-23T13:48:56.501Z</time></trkpt><trkpt lat="39.8563817" lon="9.1608833"><ele>784.4000000000001</ele><time>2026-04-23T13:48:57.501Z</time></trkpt><trkpt lat="39.856295" lon="9.16098"><ele>783.2</ele><time>2026-04-23T13:48:58.502Z</time></trkpt><trkpt lat="39.8562083" lon="9.161065"><ele>782.0</ele><time>2026-04-23T13:48:59.502Z</time></trkpt><trkpt lat="39.85612" lon="9.1611383"><ele>782.0000000000001</ele><time>2026-04-23T13:49:00.502Z</time></trkpt><trkpt lat="39.8560467" lon="9.161195"><ele>782.0</ele><time>2026-04-23T13:49:01.501Z</time></trkpt><trkpt lat="39.8559783" lon="9.16125"><ele>782.0</ele><time>2026-04-23T13:49:02.502Z</time></trkpt><trkpt lat="39.8559167" lon="9.16129"><ele>782.0</ele><time>2026-04-23T13:49:03.501Z</time></trkpt><trkpt lat="39.8558533" lon="9.1613633"><ele>782.0000000000001</ele><time>2026-04-23T13:49:05.502Z</time></trkpt><trkpt lat="39.8558767" lon="9.1614933"><ele>782.0</ele><time>2026-04-23T13:49:08.501Z</time></trkpt><trkpt lat="39.8559033" lon="9.1616383"><ele>782.1666666666667</ele><time>2026-04-23T13:49:10.502Z</time></trkpt><trkpt lat="39.8559167" lon="9.1617333"><ele>782.3333333333334</ele><time>2026-04-23T13:49:11.501Z</time></trkpt><trkpt lat="39.8559367" lon="9.1618367"><ele>782.5</ele><time>2026-04-23T13:49:12.502Z</time></trkpt><trkpt lat="39.8559617" lon="9.1619367"><ele>782.6666666666667</ele><time>2026-04-23T13:49:13.501Z</time></trkpt><trkpt lat="39.8559967" lon="9.16202"><ele>782.8333333333334</ele><time>2026-04-23T13:49:14.501Z</time></trkpt><trkpt lat="39.8560283" lon="9.1620983"><ele>783.0</ele><time>2026-04-23T13:49:15.501Z</time></trkpt><trkpt lat="39.8560767" lon="9.1622133"><ele>782.6666666666666</ele><time>2026-04-23T13:49:17.502Z</time></trkpt><trkpt lat="39.8560533" lon="9.1623083"><ele>782.3333333333333</ele><time>2026-04-23T13:49:19.502Z</time></trkpt><trkpt lat="39.8559967" lon="9.1623517"><ele>782.0</ele><time>2026-04-23T13:49:20.502Z</time></trkpt><trkpt lat="39.8559183" lon="9.1623933"><ele>781.6666666666666</ele><time>2026-04-23T13:49:21.502Z</time></trkpt><trkpt lat="39.8558283" lon="9.1624367"><ele>781.3333333333333</ele><time>2026-04-23T13:49:22.502Z</time></trkpt><trkpt lat="39.8557367" lon="9.1624883"><ele>781.0</ele><time>2026-04-23T13:49:23.502Z</time></trkpt><trkpt lat="39.8556433" lon="9.1625483"><ele>780.9999999999999</ele><time>2026-04-23T13:49:24.501Z</time></trkpt><trkpt lat="39.8555567" lon="9.1626117"><ele>781.0</ele><time>2026-04-23T13:49:25.501Z</time></trkpt><trkpt lat="39.8554717" lon="9.162675"><ele>781.0</ele><time>2026-04-23T13:49:26.501Z</time></trkpt><trkpt lat="39.8553867" lon="9.16273"><ele>781.0</ele><time>2026-04-23T13:49:27.501Z</time></trkpt><trkpt lat="39.8553133" lon="9.16278"><ele>780.9999999999999</ele><time>2026-04-23T13:49:28.502Z</time></trkpt><trkpt lat="39.85525" lon="9.1628267"><ele>781.0</ele><time>2026-04-23T13:49:29.502Z</time></trkpt><trkpt lat="39.855195" lon="9.16288"><ele>780.9999999999999</ele><time>2026-04-23T13:49:30.501Z</time></trkpt><trkpt lat="39.8551433" lon="9.1629367"><ele>781.0</ele><time>2026-04-23T13:49:31.501Z</time></trkpt><trkpt lat="39.855095" lon="9.1630183"><ele>781.0</ele><time>2026-04-23T13:49:32.502Z</time></trkpt><trkpt lat="39.8550567" lon="9.1631117"><ele>781.0</ele><time>2026-04-23T13:49:33.501Z</time></trkpt><trkpt lat="39.8550267" lon="9.1632267"><ele>780.9999999999999</ele><time>2026-04-23T13:49:34.502Z</time></trkpt><trkpt lat="39.8549967" lon="9.1633333"><ele>781.0</ele><time>2026-04-23T13:49:35.501Z</time></trkpt><trkpt lat="39.8549783" lon="9.16346"><ele>780.8</ele><time>2026-04-23T13:49:36.502Z</time></trkpt><trkpt lat="39.8549483" lon="9.1635867"><ele>780.5999999999999</ele><time>2026-04-23T13:49:37.502Z</time></trkpt><trkpt lat="39.8549167" lon="9.1637183"><ele>780.4</ele><time>2026-04-23T13:49:38.501Z</time></trkpt><trkpt lat="39.85488" lon="9.16384"><ele>780.2</ele><time>2026-04-23T13:49:39.502Z</time></trkpt><trkpt lat="39.85485" lon="9.1639617"><ele>780.0</ele><time>2026-04-23T13:49:40.502Z</time></trkpt><trkpt lat="39.8548167" lon="9.16409"><ele>780.4</ele><time>2026-04-23T13:49:41.502Z</time></trkpt><trkpt lat="39.8547883" lon="9.1642183"><ele>780.8</ele><time>2026-04-23T13:49:42.502Z</time></trkpt><trkpt lat="39.8547583" lon="9.1643483"><ele>781.2</ele><time>2026-04-23T13:49:43.502Z</time></trkpt><trkpt lat="39.85473" lon="9.1644933"><ele>781.6</ele><time>2026-04-23T13:49:44.501Z</time></trkpt><trkpt lat="39.8546967" lon="9.16463"><ele>782.0</ele><time>2026-04-23T13:49:45.501Z</time></trkpt><trkpt lat="39.8546617" lon="9.1647483"><ele>782.4000000000001</ele><time>2026-04-23T13:49:46.502Z</time></trkpt><trkpt lat="39.8546267" lon="9.1648717"><ele>782.8000000000001</ele><time>2026-04-23T13:49:47.501Z</time></trkpt><trkpt lat="39.8545967" lon="9.1649767"><ele>783.2</ele><time>2026-04-23T13:49:48.502Z</time></trkpt><trkpt lat="39.8545767" lon="9.16508"><ele>783.6</ele><time>2026-04-23T13:49:49.501Z</time></trkpt><trkpt lat="39.8545617" lon="9.1651917"><ele>784.0</ele><time>2026-04-23T13:49:50.501Z</time></trkpt><trkpt lat="39.8545583" lon="9.1653183"><ele>784.0</ele><time>2026-04-23T13:49:51.502Z</time></trkpt><trkpt lat="39.8545467" lon="9.1654633"><ele>784.0</ele><time>2026-04-23T13:49:52.501Z</time></trkpt><trkpt lat="39.8545483" lon="9.1656167"><ele>784.0</ele><time>2026-04-23T13:49:53.502Z</time></trkpt><trkpt lat="39.8545567" lon="9.1657683"><ele>784.0</ele><time>2026-04-23T13:49:54.501Z</time></trkpt><trkpt lat="39.8545567" lon="9.1659183"><ele>783.4000000000001</ele><time>2026-04-23T13:49:55.502Z</time></trkpt><trkpt lat="39.854555" lon="9.1660617"><ele>782.8</ele><time>2026-04-23T13:49:56.502Z</time></trkpt><trkpt lat="39.8545583" lon="9.166185"><ele>782.2</ele><time>2026-04-23T13:49:57.501Z</time></trkpt><trkpt lat="39.8545617" lon="9.1663167"><ele>781.5999999999999</ele><time>2026-04-23T13:49:58.502Z</time></trkpt><trkpt lat="39.8545633" lon="9.16644"><ele>781.0</ele><time>2026-04-23T13:49:59.501Z</time></trkpt><trkpt lat="39.8545617" lon="9.16656"><ele>779.8</ele><time>2026-04-23T13:50:00.502Z</time></trkpt><trkpt lat="39.8545483" lon="9.1666867"><ele>778.5999999999999</ele><time>2026-04-23T13:50:01.502Z</time></trkpt><trkpt lat="39.8545283" lon="9.1668067"><ele>777.4</ele><time>2026-04-23T13:50:02.501Z</time></trkpt><trkpt lat="39.854495" lon="9.1669133"><ele>776.2</ele><time>2026-04-23T13:50:03.502Z</time></trkpt><trkpt lat="39.8544383" lon="9.1670383"><ele>775.0</ele><time>2026-04-23T13:50:04.501Z</time></trkpt><trkpt lat="39.8543683" lon="9.1671667"><ele>775.0</ele><time>2026-04-23T13:50:05.502Z</time></trkpt><trkpt lat="39.8542883" lon="9.16729"><ele>775.0</ele><time>2026-04-23T13:50:06.502Z</time></trkpt><trkpt lat="39.8542067" lon="9.1674133"><ele>775.0</ele><time>2026-04-23T13:50:07.501Z</time></trkpt><trkpt lat="39.8541333" lon="9.167535"><ele>775.0</ele><time>2026-04-23T13:50:08.502Z</time></trkpt><trkpt lat="39.8540633" lon="9.1676483"><ele>771.75</ele><time>2026-04-23T13:50:09.501Z</time></trkpt><trkpt lat="39.8539967" lon="9.1677683"><ele>768.5</ele><time>2026-04-23T13:50:10.501Z</time></trkpt><trkpt lat="39.853925" lon="9.1678917"><ele>765.25</ele><time>2026-04-23T13:50:11.501Z</time></trkpt><trkpt lat="39.8538583" lon="9.1680267"><ele>762.0</ele><time>2026-04-23T13:50:12.501Z</time></trkpt><trkpt lat="39.85379" lon="9.168155"><ele>761.4000000000001</ele><time>2026-04-23T13:50:13.502Z</time></trkpt><trkpt lat="39.8537367" lon="9.1682867"><ele>760.8000000000001</ele><time>2026-04-23T13:50:14.501Z</time></trkpt><trkpt lat="39.85368" lon="9.1684233"><ele>760.2</ele><time>2026-04-23T13:50:15.502Z</time></trkpt><trkpt lat="39.8536283" lon="9.1685417"><ele>759.6</ele><time>2026-04-23T13:50:16.501Z</time></trkpt><trkpt lat="39.8535833" lon="9.1686517"><ele>759.0</ele><time>2026-04-23T13:50:17.502Z</time></trkpt><trkpt lat="39.85353" lon="9.1687517"><ele>759.0</ele><time>2026-04-23T13:50:18.502Z</time></trkpt><trkpt lat="39.85348" lon="9.16886"><ele>759.0</ele><time>2026-04-23T13:50:19.502Z</time></trkpt><trkpt lat="39.853445" lon="9.1689717"><ele>759.0</ele><time>2026-04-23T13:50:20.501Z</time></trkpt><trkpt lat="39.853425" lon="9.1690917"><ele>759.0</ele><time>2026-04-23T13:50:21.502Z</time></trkpt><trkpt lat="39.85342" lon="9.169225"><ele>759.0</ele><time>2026-04-23T13:50:22.501Z</time></trkpt><trkpt lat="39.8534283" lon="9.169355"><ele>759.0</ele><time>2026-04-23T13:50:23.502Z</time></trkpt><trkpt lat="39.853435" lon="9.1694767"><ele>759.0</ele><time>2026-04-23T13:50:24.501Z</time></trkpt><trkpt lat="39.8534367" lon="9.1696"><ele>759.0</ele><time>2026-04-23T13:50:25.502Z</time></trkpt><trkpt lat="39.85343" lon="9.1697333"><ele>759.0</ele><time>2026-04-23T13:50:26.501Z</time></trkpt><trkpt lat="39.8534233" lon="9.169855"><ele>759.0</ele><time>2026-04-23T13:50:27.501Z</time></trkpt><trkpt lat="39.8534267" lon="9.1699683"><ele>759.0</ele><time>2026-04-23T13:50:28.502Z</time></trkpt><trkpt lat="39.853425" lon="9.1700867"><ele>759.0</ele><time>2026-04-23T13:50:29.502Z</time></trkpt><trkpt lat="39.8534233" lon="9.1702167"><ele>759.0</ele><time>2026-04-23T13:50:30.502Z</time></trkpt><trkpt lat="39.8534117" lon="9.1703317"><ele>759.0</ele><time>2026-04-23T13:50:31.501Z</time></trkpt><trkpt lat="39.853395" lon="9.1704433"><ele>759.0</ele><time>2026-04-23T13:50:32.501Z</time></trkpt><trkpt lat="39.8533733" lon="9.1705567"><ele>759.0</ele><time>2026-04-23T13:50:33.501Z</time></trkpt><trkpt lat="39.853335" lon="9.1706633"><ele>759.0</ele><time>2026-04-23T13:50:34.501Z</time></trkpt><trkpt lat="39.853275" lon="9.1707783"><ele>759.0</ele><time>2026-04-23T13:50:35.501Z</time></trkpt><trkpt lat="39.8532017" lon="9.1708983"><ele>759.0</ele><time>2026-04-23T13:50:36.501Z</time></trkpt><trkpt lat="39.8531317" lon="9.171015"><ele>759.0</ele><time>2026-04-23T13:50:37.502Z</time></trkpt><trkpt lat="39.853045" lon="9.1711333"><ele>759.25</ele><time>2026-04-23T13:50:38.502Z</time></trkpt><trkpt lat="39.8529617" lon="9.17127"><ele>759.5</ele><time>2026-04-23T13:50:39.502Z</time></trkpt><trkpt lat="39.852895" lon="9.1714"><ele>759.75</ele><time>2026-04-23T13:50:40.502Z</time></trkpt><trkpt lat="39.85283" lon="9.1715367"><ele>760.0</ele><time>2026-04-23T13:50:41.501Z</time></trkpt><trkpt lat="39.85277" lon="9.1716533"><ele>760.2</ele><time>2026-04-23T13:50:42.502Z</time></trkpt><trkpt lat="39.8527167" lon="9.171765"><ele>760.4</ele><time>2026-04-23T13:50:43.502Z</time></trkpt><trkpt lat="39.8526683" lon="9.17187"><ele>760.5999999999999</ele><time>2026-04-23T13:50:44.501Z</time></trkpt><trkpt lat="39.8526283" lon="9.1719783"><ele>760.8</ele><time>2026-04-23T13:50:45.502Z</time></trkpt><trkpt lat="39.852585" lon="9.1720883"><ele>761.0</ele><time>2026-04-23T13:50:46.502Z</time></trkpt><trkpt lat="39.852545" lon="9.1722"><ele>761.0</ele><time>2026-04-23T13:50:47.501Z</time></trkpt><trkpt lat="39.8524767" lon="9.1722967"><ele>761.0</ele><time>2026-04-23T13:50:48.501Z</time></trkpt><trkpt lat="39.8523967" lon="9.1723833"><ele>761.0</ele><time>2026-04-23T13:50:49.501Z</time></trkpt><trkpt lat="39.8522917" lon="9.1724583"><ele>761.0</ele><time>2026-04-23T13:50:50.502Z</time></trkpt><trkpt lat="39.8521883" lon="9.1725267"><ele>761.0</ele><time>2026-04-23T13:50:51.502Z</time></trkpt><trkpt lat="39.8520767" lon="9.1725817"><ele>761.75</ele><time>2026-04-23T13:50:52.502Z</time></trkpt><trkpt lat="39.8519517" lon="9.1726333"><ele>762.5</ele><time>2026-04-23T13:50:53.502Z</time></trkpt><trkpt lat="39.851805" lon="9.17268"><ele>763.25</ele><time>2026-04-23T13:50:54.502Z</time></trkpt><trkpt lat="39.8516717" lon="9.1727083"><ele>764.0</ele><time>2026-04-23T13:50:55.502Z</time></trkpt><trkpt lat="39.851535" lon="9.172725"><ele>764.0</ele><time>2026-04-23T13:50:56.501Z</time></trkpt><trkpt lat="39.8514117" lon="9.1727117"><ele>764.0</ele><time>2026-04-23T13:50:57.502Z</time></trkpt><trkpt lat="39.8512817" lon="9.1726967"><ele>764.0</ele><time>2026-04-23T13:50:58.502Z</time></trkpt><trkpt lat="39.8511583" lon="9.172685"><ele>764.0</ele><time>2026-04-23T13:50:59.501Z</time></trkpt><trkpt lat="39.851045" lon="9.172665"><ele>766.75</ele><time>2026-04-23T13:51:00.501Z</time></trkpt><trkpt lat="39.850935" lon="9.1726317"><ele>769.5</ele><time>2026-04-23T13:51:01.502Z</time></trkpt><trkpt lat="39.8508233" lon="9.1725617"><ele>772.25</ele><time>2026-04-23T13:51:02.501Z</time></trkpt><trkpt lat="39.8507317" lon="9.172475"><ele>775.0</ele><time>2026-04-23T13:51:03.501Z</time></trkpt><trkpt lat="39.8506517" lon="9.172385"><ele>775.2857142857142</ele><time>2026-04-23T13:51:04.501Z</time></trkpt><trkpt lat="39.8505917" lon="9.1723183"><ele>775.5714285714286</ele><time>2026-04-23T13:51:05.502Z</time></trkpt><trkpt lat="39.8505333" lon="9.1722617"><ele>775.8571428571429</ele><time>2026-04-23T13:51:06.502Z</time></trkpt><trkpt lat="39.8504733" lon="9.1721967"><ele>776.1428571428571</ele><time>2026-04-23T13:51:07.501Z</time></trkpt><trkpt lat="39.8504233" lon="9.1721217"><ele>776.4285714285714</ele><time>2026-04-23T13:51:08.501Z</time></trkpt><trkpt lat="39.8503767" lon="9.1720483"><ele>776.7142857142857</ele><time>2026-04-23T13:51:09.501Z</time></trkpt><trkpt lat="39.8503267" lon="9.17199"><ele>777.0</ele><time>2026-04-23T13:51:10.502Z</time></trkpt><trkpt lat="39.8502683" lon="9.1719467"><ele>777.0</ele><time>2026-04-23T13:51:11.502Z</time></trkpt><trkpt lat="39.8502083" lon="9.1719083"><ele>777.0</ele><time>2026-04-23T13:51:12.502Z</time></trkpt><trkpt lat="39.8501383" lon="9.17188"><ele>777.0</ele><time>2026-04-23T13:51:13.501Z</time></trkpt><trkpt lat="39.850065" lon="9.17184"><ele>777.0</ele><time>2026-04-23T13:51:14.502Z</time></trkpt><trkpt lat="39.84999" lon="9.171785"><ele>777.0</ele><time>2026-04-23T13:51:15.501Z</time></trkpt><trkpt lat="39.8499067" lon="9.1717083"><ele>777.0</ele><time>2026-04-23T13:51:16.501Z</time></trkpt><trkpt lat="39.8498267" lon="9.1716333"><ele>776.8333333333334</ele><time>2026-04-23T13:51:17.502Z</time></trkpt><trkpt lat="39.8497533" lon="9.1715567"><ele>776.6666666666667</ele><time>2026-04-23T13:51:18.501Z</time></trkpt><trkpt lat="39.8496767" lon="9.1714883"><ele>776.5</ele><time>2026-04-23T13:51:19.502Z</time></trkpt><trkpt lat="39.849615" lon="9.1714333"><ele>776.3333333333334</ele><time>2026-04-23T13:51:20.502Z</time></trkpt><trkpt lat="39.849555" lon="9.1714067"><ele>776.1666666666667</ele><time>2026-04-23T13:51:21.501Z</time></trkpt><trkpt lat="39.849465" lon="9.1713933"><ele>776.0</ele><time>2026-04-23T13:51:23.501Z</time></trkpt><trkpt lat="39.8493967" lon="9.1714233"><ele>776.0</ele><time>2026-04-23T13:52:01.502Z</time></trkpt><trkpt lat="39.8492867" lon="9.1714917"><ele>776.0</ele><time>2026-04-23T13:52:03.502Z</time></trkpt><trkpt lat="39.8492233" lon="9.1715467"><ele>776.0</ele><time>2026-04-23T13:52:04.501Z</time></trkpt><trkpt lat="39.84916" lon="9.171605"><ele>776.0</ele><time>2026-04-23T13:52:05.502Z</time></trkpt><trkpt lat="39.8490867" lon="9.17167"><ele>776.0</ele><time>2026-04-23T13:52:06.501Z</time></trkpt><trkpt lat="39.8490067" lon="9.17173"><ele>776.0</ele><time>2026-04-23T13:52:07.502Z</time></trkpt><trkpt lat="39.8489233" lon="9.1717733"><ele>776.0</ele><time>2026-04-23T13:52:08.501Z</time></trkpt><trkpt lat="39.8488317" lon="9.1718167"><ele>776.0</ele><time>2026-04-23T13:52:09.501Z</time></trkpt><trkpt lat="39.848745" lon="9.17185"><ele>776.0</ele><time>2026-04-23T13:52:10.502Z</time></trkpt><trkpt lat="39.84865" lon="9.1718783"><ele>776.0</ele><time>2026-04-23T13:52:11.501Z</time></trkpt><trkpt lat="39.8485517" lon="9.1719017"><ele>776.4</ele><time>2026-04-23T13:52:12.502Z</time></trkpt><trkpt lat="39.8484467" lon="9.1719267"><ele>776.8</ele><time>2026-04-23T13:52:13.501Z</time></trkpt><trkpt lat="39.8483383" lon="9.17196"><ele>777.1999999999999</ele><time>2026-04-23T13:52:14.502Z</time></trkpt><trkpt lat="39.8482317" lon="9.1719817"><ele>777.5999999999999</ele><time>2026-04-23T13:52:15.501Z</time></trkpt><trkpt lat="39.8481183" lon="9.172"><ele>778.0</ele><time>2026-04-23T13:52:16.502Z</time></trkpt><trkpt lat="39.8480133" lon="9.1720183"><ele>778.0</ele><time>2026-04-23T13:52:17.502Z</time></trkpt><trkpt lat="39.8479067" lon="9.1720333"><ele>778.0</ele><time>2026-04-23T13:52:18.502Z</time></trkpt><trkpt lat="39.8478033" lon="9.1720433"><ele>778.0</ele><time>2026-04-23T13:52:19.501Z</time></trkpt><trkpt lat="39.8477067" lon="9.17205"><ele>778.0</ele><time>2026-04-23T13:52:20.502Z</time></trkpt><trkpt lat="39.847615" lon="9.1720567"><ele>778.0</ele><time>2026-04-23T13:52:21.501Z</time></trkpt><trkpt lat="39.847535" lon="9.1720617"><ele>777.8333333333333</ele><time>2026-04-23T13:52:22.501Z</time></trkpt><trkpt lat="39.8474683" lon="9.172065"><ele>777.6666666666666</ele><time>2026-04-23T13:52:23.501Z</time></trkpt><trkpt lat="39.8473417" lon="9.1720933"><ele>777.5</ele><time>2026-04-23T13:52:25.501Z</time></trkpt><trkpt lat="39.84728" lon="9.1721233"><ele>777.3333333333333</ele><time>2026-04-23T13:52:26.501Z</time></trkpt><trkpt lat="39.8472083" lon="9.1721683"><ele>777.1666666666666</ele><time>2026-04-23T13:52:27.502Z</time></trkpt><trkpt lat="39.84713" lon="9.1722183"><ele>777.0</ele><time>2026-04-23T13:52:28.501Z</time></trkpt><trkpt lat="39.8470567" lon="9.1722783"><ele>777.0</ele><time>2026-04-23T13:52:29.502Z</time></trkpt><trkpt lat="39.8469917" lon="9.1723433"><ele>777.0</ele><time>2026-04-23T13:52:30.502Z</time></trkpt><trkpt lat="39.846935" lon="9.17241"><ele>777.0</ele><time>2026-04-23T13:52:31.501Z</time></trkpt><trkpt lat="39.8468767" lon="9.17248"><ele>777.0</ele><time>2026-04-23T13:52:32.501Z</time></trkpt><trkpt lat="39.8468167" lon="9.17256"><ele>777.0</ele><time>2026-04-23T13:52:33.502Z</time></trkpt><trkpt lat="39.8467617" lon="9.1726583"><ele>777.0</ele><time>2026-04-23T13:52:34.501Z</time></trkpt><trkpt lat="39.8467017" lon="9.1727667"><ele>777.2</ele><time>2026-04-23T13:52:35.501Z</time></trkpt><trkpt lat="39.846645" lon="9.172885"><ele>777.4000000000001</ele><time>2026-04-23T13:52:36.501Z</time></trkpt><trkpt lat="39.84659" lon="9.1730017"><ele>777.5999999999999</ele><time>2026-04-23T13:52:37.502Z</time></trkpt><trkpt lat="39.8465317" lon="9.17313"><ele>777.8</ele><time>2026-04-23T13:52:38.501Z</time></trkpt><trkpt lat="39.8464767" lon="9.1732567"><ele>778.0</ele><time>2026-04-23T13:52:39.501Z</time></trkpt><trkpt lat="39.8464217" lon="9.1733767"><ele>777.0</ele><time>2026-04-23T13:52:40.502Z</time></trkpt><trkpt lat="39.8463733" lon="9.1734933"><ele>776.0</ele><time>2026-04-23T13:52:41.501Z</time></trkpt><trkpt lat="39.8463217" lon="9.17361"><ele>775.0</ele><time>2026-04-23T13:52:42.501Z</time></trkpt><trkpt lat="39.8462717" lon="9.173725"><ele>774.0</ele><time>2026-04-23T13:52:43.502Z</time></trkpt><trkpt lat="39.8462183" lon="9.1738317"><ele>773.0</ele><time>2026-04-23T13:52:44.502Z</time></trkpt><trkpt lat="39.846165" lon="9.173945"><ele>773.0</ele><time>2026-04-23T13:52:45.502Z</time></trkpt><trkpt lat="39.8460967" lon="9.17406"><ele>773.0</ele><time>2026-04-23T13:52:46.501Z</time></trkpt><trkpt lat="39.8460267" lon="9.1741783"><ele>773.0</ele><time>2026-04-23T13:52:47.501Z</time></trkpt><trkpt lat="39.845945" lon="9.1742917"><ele>773.0</ele><time>2026-04-23T13:52:48.502Z</time></trkpt><trkpt lat="39.845855" lon="9.1744083"><ele>773.0</ele><time>2026-04-23T13:52:49.502Z</time></trkpt><trkpt lat="39.845775" lon="9.1745217"><ele>773.0</ele><time>2026-04-23T13:52:50.501Z</time></trkpt><trkpt lat="39.845695" lon="9.17463"><ele>773.0</ele><time>2026-04-23T13:52:51.502Z</time></trkpt><trkpt lat="39.845615" lon="9.1747383"><ele>773.0</ele><time>2026-04-23T13:52:52.501Z</time></trkpt><trkpt lat="39.8455383" lon="9.17484"><ele>772.3333333333334</ele><time>2026-04-23T13:52:53.502Z</time></trkpt><trkpt lat="39.845465" lon="9.17494"><ele>771.6666666666667</ele><time>2026-04-23T13:52:54.501Z</time></trkpt><trkpt lat="39.8454017" lon="9.1750283"><ele>771.0</ele><time>2026-04-23T13:52:55.502Z</time></trkpt><trkpt lat="39.8453533" lon="9.1751167"><ele>770.3333333333333</ele><time>2026-04-23T13:52:56.501Z</time></trkpt><trkpt lat="39.8453133" lon="9.1752083"><ele>769.6666666666666</ele><time>2026-04-23T13:52:57.501Z</time></trkpt><trkpt lat="39.8452833" lon="9.1753117"><ele>769.0</ele><time>2026-04-23T13:52:58.502Z</time></trkpt><trkpt lat="39.8452633" lon="9.1754233"><ele>768.9999999999999</ele><time>2026-04-23T13:52:59.502Z</time></trkpt><trkpt lat="39.8452517" lon="9.175535"><ele>769.0</ele><time>2026-04-23T13:53:00.502Z</time></trkpt><trkpt lat="39.8452383" lon="9.1756417"><ele>769.0</ele><time>2026-04-23T13:53:01.501Z</time></trkpt><trkpt lat="39.8452233" lon="9.1757567"><ele>769.0</ele><time>2026-04-23T13:53:02.501Z</time></trkpt><trkpt lat="39.8451867" lon="9.1758633"><ele>768.9999999999999</ele><time>2026-04-23T13:53:03.501Z</time></trkpt><trkpt lat="39.8451433" lon="9.1759667"><ele>769.0</ele><time>2026-04-23T13:53:04.502Z</time></trkpt><trkpt lat="39.8450967" lon="9.1760733"><ele>768.8333333333333</ele><time>2026-04-23T13:53:05.502Z</time></trkpt><trkpt lat="39.8450567" lon="9.1761833"><ele>768.6666666666666</ele><time>2026-04-23T13:53:06.501Z</time></trkpt><trkpt lat="39.8450267" lon="9.1762883"><ele>768.5</ele><time>2026-04-23T13:53:07.501Z</time></trkpt><trkpt lat="39.8450117" lon="9.1763933"><ele>768.3333333333333</ele><time>2026-04-23T13:53:08.502Z</time></trkpt><trkpt lat="39.8449967" lon="9.1764917"><ele>768.1666666666666</ele><time>2026-04-23T13:53:09.501Z</time></trkpt><trkpt lat="39.8449867" lon="9.1765917"><ele>768.0</ele><time>2026-04-23T13:53:10.501Z</time></trkpt><trkpt lat="39.8449717" lon="9.1766867"><ele>767.5999999999999</ele><time>2026-04-23T13:53:11.501Z</time></trkpt><trkpt lat="39.8449483" lon="9.176805"><ele>767.1999999999999</ele><time>2026-04-23T13:53:12.502Z</time></trkpt><trkpt lat="39.84492" lon="9.1769233"><ele>766.8</ele><time>2026-04-23T13:53:13.501Z</time></trkpt><trkpt lat="39.84489" lon="9.1770517"><ele>766.4</ele><time>2026-04-23T13:53:14.501Z</time></trkpt><trkpt lat="39.8448483" lon="9.1771817"><ele>766.0</ele><time>2026-04-23T13:53:15.501Z</time></trkpt><trkpt lat="39.8448167" lon="9.1773017"><ele>765.6666666666667</ele><time>2026-04-23T13:53:16.501Z</time></trkpt><trkpt lat="39.8447833" lon="9.177405"><ele>765.3333333333334</ele><time>2026-04-23T13:53:17.501Z</time></trkpt><trkpt lat="39.8447567" lon="9.1774967"><ele>765.0</ele><time>2026-04-23T13:53:18.502Z</time></trkpt><trkpt lat="39.8447267" lon="9.1775783"><ele>764.6666666666666</ele><time>2026-04-23T13:53:20.502Z</time></trkpt><trkpt lat="39.8448117" lon="9.1775517"><ele>764.3333333333333</ele><time>2026-04-23T13:53:27.501Z</time></trkpt><trkpt lat="39.8447317" lon="9.17757"><ele>764.0</ele><time>2026-04-23T13:54:08.501Z</time></trkpt><trkpt lat="39.8446617" lon="9.17764"><ele>764.0</ele><time>2026-04-23T13:54:11.502Z</time></trkpt><trkpt lat="39.8445983" lon="9.1776983"><ele>764.0</ele><time>2026-04-23T13:54:14.502Z</time></trkpt><trkpt lat="39.84452" lon="9.1777567"><ele>764.0</ele><time>2026-04-23T13:54:18.502Z</time></trkpt><trkpt lat="39.8444533" lon="9.1778183"><ele>764.0</ele><time>2026-04-23T13:54:21.502Z</time></trkpt><trkpt lat="39.844395" lon="9.1778617"><ele>764.0</ele><time>2026-04-23T13:54:23.501Z</time></trkpt><trkpt lat="39.84434" lon="9.1779167"><ele>764.0</ele><time>2026-04-23T13:54:25.502Z</time></trkpt><trkpt lat="39.8442717" lon="9.1779683"><ele>764.1666666666666</ele><time>2026-04-23T13:54:27.502Z</time></trkpt><trkpt lat="39.8442033" lon="9.1780067"><ele>764.3333333333333</ele><time>2026-04-23T13:54:29.502Z</time></trkpt><trkpt lat="39.8441367" lon="9.178055"><ele>764.5</ele><time>2026-04-23T13:54:32.502Z</time></trkpt><trkpt lat="39.8440833" lon="9.1781433"><ele>764.6666666666666</ele><time>2026-04-23T13:54:36.501Z</time></trkpt><trkpt lat="39.84403" lon="9.1782067"><ele>764.8333333333334</ele><time>2026-04-23T13:54:38.501Z</time></trkpt><trkpt lat="39.8439733" lon="9.1782617"><ele>765.0</ele><time>2026-04-23T13:54:40.502Z</time></trkpt><trkpt lat="39.8439183" lon="9.1783183"><ele>765.0</ele><time>2026-04-23T13:54:42.501Z</time></trkpt><trkpt lat="39.8438533" lon="9.178395"><ele>765.0</ele><time>2026-04-23T13:54:44.502Z</time></trkpt><trkpt lat="39.84386" lon="9.1785"><ele>765.0</ele><time>2026-04-23T13:55:29.501Z</time></trkpt><trkpt lat="39.8439583" lon="9.178465"><ele>765.0</ele><time>2026-04-23T13:55:32.501Z</time></trkpt><trkpt lat="39.844035" lon="9.1784"><ele>765.0</ele><time>2026-04-23T13:55:34.502Z</time></trkpt><trkpt lat="39.8441017" lon="9.1783317"><ele>765.0</ele><time>2026-04-23T13:55:36.501Z</time></trkpt><trkpt lat="39.8441433" lon="9.178255"><ele>765.0</ele><time>2026-04-23T13:55:38.502Z</time></trkpt><trkpt lat="39.8441867" lon="9.1781933"><ele>765.0</ele><time>2026-04-23T13:55:40.502Z</time></trkpt><trkpt lat="39.844265" lon="9.1781333"><ele>765.0</ele><time>2026-04-23T13:55:42.502Z</time></trkpt><trkpt lat="39.8443683" lon="9.1780533"><ele>765.0</ele><time>2026-04-23T13:55:44.501Z</time></trkpt><trkpt lat="39.84446" lon="9.1779833"><ele>765.0</ele><time>2026-04-23T13:55:46.502Z</time></trkpt><trkpt lat="39.8445567" lon="9.1778833"><ele>764.8333333333334</ele><time>2026-04-23T13:55:48.502Z</time></trkpt><trkpt lat="39.844635" lon="9.1778333"><ele>764.6666666666666</ele><time>2026-04-23T13:55:50.501Z</time></trkpt><trkpt lat="39.8446917" lon="9.17788"><ele>764.5</ele><time>2026-04-23T13:55:53.501Z</time></trkpt><trkpt lat="39.8447667" lon="9.1779467"><ele>764.3333333333333</ele><time>2026-04-23T13:55:56.501Z</time></trkpt><trkpt lat="39.8448233" lon="9.177995"><ele>764.1666666666666</ele><time>2026-04-23T13:55:58.502Z</time></trkpt><trkpt lat="39.844895" lon="9.1780267"><ele>764.0</ele><time>2026-04-23T13:56:12.502Z</time></trkpt><trkpt lat="39.84497" lon="9.1780317"><ele>764.0</ele><time>2026-04-23T13:56:15.501Z</time></trkpt><trkpt lat="39.8450333" lon="9.1780017"><ele>764.0</ele><time>2026-04-23T13:56:18.501Z</time></trkpt><trkpt lat="39.8451083" lon="9.1778867"><ele>764.0</ele><time>2026-04-23T13:56:33.502Z</time></trkpt><trkpt lat="39.84515" lon="9.1777933"><ele>764.0</ele><time>2026-04-23T13:56:36.502Z</time></trkpt><trkpt lat="39.845245" lon="9.17761"><ele>764.0</ele><time>2026-04-23T13:56:47.501Z</time></trkpt><trkpt lat="39.8453083" lon="9.1774617"><ele>764.1666666666666</ele><time>2026-04-23T13:58:13.501Z</time></trkpt><trkpt lat="39.8453267" lon="9.1773733"><ele>764.3333333333333</ele><time>2026-04-23T13:58:45.501Z</time></trkpt><trkpt lat="39.8452817" lon="9.1772683"><ele>764.5</ele><time>2026-04-23T13:58:56.501Z</time></trkpt><trkpt lat="39.8452167" lon="9.177225"><ele>764.6666666666666</ele><time>2026-04-23T13:58:58.501Z</time></trkpt><trkpt lat="39.845125" lon="9.1772"><ele>764.8333333333334</ele><time>2026-04-23T13:59:01.501Z</time></trkpt><trkpt lat="39.845045" lon="9.17719"><ele>765.0</ele><time>2026-04-23T13:59:04.502Z</time></trkpt><trkpt lat="39.8449683" lon="9.17715"><ele>765.2</ele><time>2026-04-23T13:59:07.502Z</time></trkpt><trkpt lat="39.8449383" lon="9.177065"><ele>765.4</ele><time>2026-04-23T13:59:11.501Z</time></trkpt><trkpt lat="39.84491" lon="9.1769683"><ele>765.5999999999999</ele><time>2026-04-23T14:13:31.501Z</time></trkpt><trkpt lat="39.84492" lon="9.176825"><ele>765.8</ele><time>2026-04-23T14:13:34.502Z</time></trkpt><trkpt lat="39.8449683" lon="9.1766717"><ele>766.0</ele><time>2026-04-23T14:13:36.502Z</time></trkpt><trkpt lat="39.844995" lon="9.176595"><ele>766.1999999999999</ele><time>2026-04-23T14:13:37.502Z</time></trkpt><trkpt lat="39.8450483" lon="9.176425"><ele>766.4</ele><time>2026-04-23T14:13:39.502Z</time></trkpt><trkpt lat="39.8450683" lon="9.1763317"><ele>766.6</ele><time>2026-04-23T14:13:40.501Z</time></trkpt><trkpt lat="39.8450917" lon="9.176245"><ele>766.8</ele><time>2026-04-23T14:13:41.501Z</time></trkpt><trkpt lat="39.8451333" lon="9.1761217"><ele>767.0</ele><time>2026-04-23T14:13:43.502Z</time></trkpt><trkpt lat="39.8451667" lon="9.1760217"><ele>767.0</ele><time>2026-04-23T14:13:45.502Z</time></trkpt><trkpt lat="39.8452183" lon="9.1759067"><ele>767.0</ele><time>2026-04-23T14:13:47.501Z</time></trkpt><trkpt lat="39.8452683" lon="9.175765"><ele>767.0</ele><time>2026-04-23T14:13:49.501Z</time></trkpt><trkpt lat="39.845295" lon="9.1756767"><ele>767.0</ele><time>2026-04-23T14:13:50.501Z</time></trkpt><trkpt lat="39.8453183" lon="9.17558"><ele>767.0</ele><time>2026-04-23T14:13:51.502Z</time></trkpt><trkpt lat="39.8453367" lon="9.1754717"><ele>767.2857142857143</ele><time>2026-04-23T14:13:52.501Z</time></trkpt><trkpt lat="39.845355" lon="9.1753783"><ele>767.5714285714287</ele><time>2026-04-23T14:13:53.501Z</time></trkpt><trkpt lat="39.84537" lon="9.1752967"><ele>767.8571428571429</ele><time>2026-04-23T14:13:54.501Z</time></trkpt><trkpt lat="39.8453933" lon="9.17521"><ele>768.1428571428571</ele><time>2026-04-23T14:13:55.502Z</time></trkpt><trkpt lat="39.84542" lon="9.175135"><ele>768.4285714285714</ele><time>2026-04-23T14:13:56.501Z</time></trkpt><trkpt lat="39.84545" lon="9.1750583"><ele>768.7142857142857</ele><time>2026-04-23T14:13:57.501Z</time></trkpt><trkpt lat="39.8454883" lon="9.1749867"><ele>769.0</ele><time>2026-04-23T14:13:58.501Z</time></trkpt><trkpt lat="39.8455367" lon="9.174905"><ele>769.8000000000001</ele><time>2026-04-23T14:13:59.501Z</time></trkpt><trkpt lat="39.8455933" lon="9.174815"><ele>770.6</ele><time>2026-04-23T14:14:00.501Z</time></trkpt><trkpt lat="39.8456567" lon="9.1747167"><ele>771.4</ele><time>2026-04-23T14:14:01.501Z</time></trkpt><trkpt lat="39.8457183" lon="9.1746167"><ele>772.2</ele><time>2026-04-23T14:14:02.501Z</time></trkpt><trkpt lat="39.8457733" lon="9.1745217"><ele>773.0</ele><time>2026-04-23T14:14:03.502Z</time></trkpt><trkpt lat="39.8458333" lon="9.17442"><ele>773.0</ele><time>2026-04-23T14:14:04.502Z</time></trkpt><trkpt lat="39.84591" lon="9.1743167"><ele>773.0</ele><time>2026-04-23T14:14:05.501Z</time></trkpt><trkpt lat="39.8459867" lon="9.1742283"><ele>773.0</ele><time>2026-04-23T14:14:06.501Z</time></trkpt><trkpt lat="39.84606" lon="9.174135"><ele>773.0</ele><time>2026-04-23T14:14:07.502Z</time></trkpt><trkpt lat="39.8461267" lon="9.1740333"><ele>773.0</ele><time>2026-04-23T14:14:08.502Z</time></trkpt><trkpt lat="39.8461833" lon="9.1739267"><ele>773.0</ele><time>2026-04-23T14:14:09.501Z</time></trkpt><trkpt lat="39.8462367" lon="9.173825"><ele>773.0</ele><time>2026-04-23T14:14:10.502Z</time></trkpt><trkpt lat="39.84629" lon="9.1737217"><ele>773.0</ele><time>2026-04-23T14:14:11.501Z</time></trkpt><trkpt lat="39.8463383" lon="9.1736167"><ele>773.0</ele><time>2026-04-23T14:14:12.502Z</time></trkpt><trkpt lat="39.8463867" lon="9.1735117"><ele>773.0</ele><time>2026-04-23T14:14:13.501Z</time></trkpt><trkpt lat="39.8464367" lon="9.1733967"><ele>773.0</ele><time>2026-04-23T14:14:14.502Z</time></trkpt><trkpt lat="39.8464883" lon="9.17328"><ele>773.0</ele><time>2026-04-23T14:14:15.502Z</time></trkpt><trkpt lat="39.8465367" lon="9.1731783"><ele>773.0</ele><time>2026-04-23T14:14:16.501Z</time></trkpt><trkpt lat="39.846585" lon="9.17308"><ele>773.0</ele><time>2026-04-23T14:14:17.501Z</time></trkpt><trkpt lat="39.84664" lon="9.1729833"><ele>773.0</ele><time>2026-04-23T14:14:18.501Z</time></trkpt><trkpt lat="39.8466883" lon="9.172885"><ele>773.1666666666667</ele><time>2026-04-23T14:14:19.502Z</time></trkpt><trkpt lat="39.846735" lon="9.1727933"><ele>773.3333333333334</ele><time>2026-04-23T14:14:20.501Z</time></trkpt><trkpt lat="39.84678" lon="9.172705"><ele>773.5</ele><time>2026-04-23T14:14:21.502Z</time></trkpt><trkpt lat="39.8468317" lon="9.172625"><ele>773.6666666666667</ele><time>2026-04-23T14:14:22.502Z</time></trkpt><trkpt lat="39.8469" lon="9.17254"><ele>773.8333333333334</ele><time>2026-04-23T14:14:23.502Z</time></trkpt><trkpt lat="39.846965" lon="9.1724617"><ele>774.0</ele><time>2026-04-23T14:14:24.501Z</time></trkpt><trkpt lat="39.8470367" lon="9.17239"><ele>774.5</ele><time>2026-04-23T14:14:25.502Z</time></trkpt><trkpt lat="39.847105" lon="9.1723217"><ele>775.0</ele><time>2026-04-23T14:14:26.502Z</time></trkpt><trkpt lat="39.8471717" lon="9.1722667"><ele>775.5</ele><time>2026-04-23T14:14:27.502Z</time></trkpt><trkpt lat="39.8472333" lon="9.1722133"><ele>776.0</ele><time>2026-04-23T14:14:28.502Z</time></trkpt><trkpt lat="39.847295" lon="9.17218"><ele>776.5</ele><time>2026-04-23T14:14:29.502Z</time></trkpt><trkpt lat="39.8473533" lon="9.172145"><ele>777.0</ele><time>2026-04-23T14:14:30.502Z</time></trkpt><trkpt lat="39.8474533" lon="9.17211"><ele>777.0</ele><time>2026-04-23T14:14:32.501Z</time></trkpt><trkpt lat="39.84758" lon="9.1721083"><ele>777.0</ele><time>2026-04-23T14:14:34.501Z</time></trkpt><trkpt lat="39.84766" lon="9.17211"><ele>777.0</ele><time>2026-04-23T14:14:35.502Z</time></trkpt><trkpt lat="39.8477517" lon="9.1721067"><ele>777.0</ele><time>2026-04-23T14:14:36.501Z</time></trkpt><trkpt lat="39.8478483" lon="9.1721"><ele>777.0</ele><time>2026-04-23T14:14:37.502Z</time></trkpt><trkpt lat="39.8479333" lon="9.1720933"><ele>777.1666666666666</ele><time>2026-04-23T14:14:38.501Z</time></trkpt><trkpt lat="39.848015" lon="9.1720817"><ele>777.3333333333333</ele><time>2026-04-23T14:14:39.502Z</time></trkpt><trkpt lat="39.8480983" lon="9.1720717"><ele>777.5</ele><time>2026-04-23T14:14:40.502Z</time></trkpt><trkpt lat="39.84818" lon="9.172055"><ele>777.6666666666666</ele><time>2026-04-23T14:14:41.502Z</time></trkpt><trkpt lat="39.84827" lon="9.17203"><ele>777.8333333333333</ele><time>2026-04-23T14:14:42.502Z</time></trkpt><trkpt lat="39.8483533" lon="9.1720017"><ele>778.0</ele><time>2026-04-23T14:14:43.501Z</time></trkpt><trkpt lat="39.8484317" lon="9.1719917"><ele>777.6666666666666</ele><time>2026-04-23T14:14:44.501Z</time></trkpt><trkpt lat="39.8485017" lon="9.1719767"><ele>777.3333333333333</ele><time>2026-04-23T14:14:45.502Z</time></trkpt><trkpt lat="39.8485817" lon="9.1719467"><ele>777.0</ele><time>2026-04-23T14:14:46.501Z</time></trkpt><trkpt lat="39.84867" lon="9.17192"><ele>776.6666666666667</ele><time>2026-04-23T14:14:47.501Z</time></trkpt><trkpt lat="39.8487633" lon="9.17189"><ele>776.3333333333334</ele><time>2026-04-23T14:14:48.501Z</time></trkpt><trkpt lat="39.8488533" lon="9.1718583"><ele>776.0</ele><time>2026-04-23T14:14:49.502Z</time></trkpt><trkpt lat="39.848935" lon="9.1718233"><ele>776.0000000000001</ele><time>2026-04-23T14:14:50.501Z</time></trkpt><trkpt lat="39.8490117" lon="9.17178"><ele>776.0</ele><time>2026-04-23T14:14:51.502Z</time></trkpt><trkpt lat="39.84908" lon="9.171735"><ele>776.0</ele><time>2026-04-23T14:14:52.502Z</time></trkpt><trkpt lat="39.849155" lon="9.171685"><ele>776.0</ele><time>2026-04-23T14:14:53.502Z</time></trkpt><trkpt lat="39.849225" lon="9.1716267"><ele>776.0000000000001</ele><time>2026-04-23T14:14:54.501Z</time></trkpt><trkpt lat="39.849285" lon="9.171575"><ele>776.0</ele><time>2026-04-23T14:14:55.501Z</time></trkpt><trkpt lat="39.8493833" lon="9.1715117"><ele>776.3333333333334</ele><time>2026-04-23T14:14:57.502Z</time></trkpt><trkpt lat="39.8494333" lon="9.1714533"><ele>776.6666666666667</ele><time>2026-04-23T14:14:59.501Z</time></trkpt><trkpt lat="39.8494383" lon="9.1713617"><ele>777.0</ele><time>2026-04-23T14:15:01.502Z</time></trkpt><trkpt lat="39.8494" lon="9.171265"><ele>777.3333333333333</ele><time>2026-04-23T14:15:03.501Z</time></trkpt><trkpt lat="39.849365" lon="9.1711583"><ele>777.6666666666666</ele><time>2026-04-23T14:15:05.501Z</time></trkpt><trkpt lat="39.8493383" lon="9.1710683"><ele>778.0</ele><time>2026-04-23T14:15:07.501Z</time></trkpt><trkpt lat="39.8492933" lon="9.1709317"><ele>778.2</ele><time>2026-04-23T14:15:09.502Z</time></trkpt><trkpt lat="39.849265" lon="9.1708467"><ele>778.4</ele><time>2026-04-23T14:15:10.502Z</time></trkpt><trkpt lat="39.8492417" lon="9.1707667"><ele>778.6</ele><time>2026-04-23T14:15:11.501Z</time></trkpt><trkpt lat="39.8491883" lon="9.1706367"><ele>778.8000000000001</ele><time>2026-04-23T14:15:13.501Z</time></trkpt><trkpt lat="39.8490933" lon="9.1705417"><ele>779.0</ele><time>2026-04-23T14:15:15.501Z</time></trkpt><trkpt lat="39.8489733" lon="9.17048"><ele>779.6666666666667</ele><time>2026-04-23T14:15:17.501Z</time></trkpt><trkpt lat="39.84891" lon="9.1704617"><ele>780.3333333333334</ele><time>2026-04-23T14:15:18.502Z</time></trkpt><trkpt lat="39.8487967" lon="9.1704667"><ele>781.0</ele><time>2026-04-23T14:15:20.502Z</time></trkpt><trkpt lat="39.8487333" lon="9.1704817"><ele>781.6666666666667</ele><time>2026-04-23T14:15:21.502Z</time></trkpt><trkpt lat="39.848665" lon="9.170495"><ele>782.3333333333334</ele><time>2026-04-23T14:15:22.501Z</time></trkpt><trkpt lat="39.8485933" lon="9.170515"><ele>783.0</ele><time>2026-04-23T14:15:23.502Z</time></trkpt><trkpt lat="39.848525" lon="9.1705367"><ele>782.8571428571428</ele><time>2026-04-23T14:15:24.502Z</time></trkpt><trkpt lat="39.8484567" lon="9.1705533"><ele>782.7142857142858</ele><time>2026-04-23T14:15:25.501Z</time></trkpt><trkpt lat="39.8483933" lon="9.1705717"><ele>782.5714285714286</ele><time>2026-04-23T14:15:26.502Z</time></trkpt><trkpt lat="39.8483267" lon="9.1705917"><ele>782.4285714285713</ele><time>2026-04-23T14:15:27.502Z</time></trkpt><trkpt lat="39.84826" lon="9.170615"><ele>782.2857142857142</ele><time>2026-04-23T14:15:28.502Z</time></trkpt><trkpt lat="39.8481983" lon="9.1706383"><ele>782.1428571428571</ele><time>2026-04-23T14:15:29.501Z</time></trkpt><trkpt lat="39.8481317" lon="9.1706533"><ele>782.0</ele><time>2026-04-23T14:15:30.501Z</time></trkpt><trkpt lat="39.848025" lon="9.1707033"><ele>782.0</ele><time>2026-04-23T14:15:32.501Z</time></trkpt><trkpt lat="39.8479367" lon="9.1707533"><ele>782.0</ele><time>2026-04-23T14:15:34.501Z</time></trkpt><trkpt lat="39.8478717" lon="9.1707167"><ele>782.0</ele><time>2026-04-23T14:15:36.501Z</time></trkpt><trkpt lat="39.8478217" lon="9.1705983"><ele>782.0</ele><time>2026-04-23T14:15:38.501Z</time></trkpt><trkpt lat="39.847735" lon="9.1704817"><ele>782.0</ele><time>2026-04-23T14:15:40.502Z</time></trkpt><trkpt lat="39.8476867" lon="9.170425"><ele>782.2</ele><time>2026-04-23T14:15:41.501Z</time></trkpt><trkpt lat="39.8475933" lon="9.170325"><ele>782.4000000000001</ele><time>2026-04-23T14:15:43.502Z</time></trkpt><trkpt lat="39.8475" lon="9.170285"><ele>782.5999999999999</ele><time>2026-04-23T14:15:45.501Z</time></trkpt><trkpt lat="39.8474033" lon="9.17024"><ele>782.8</ele><time>2026-04-23T14:15:47.501Z</time></trkpt><trkpt lat="39.847315" lon="9.170155"><ele>783.0</ele><time>2026-04-23T14:15:49.501Z</time></trkpt><trkpt lat="39.8472617" lon="9.170105"><ele>783.0</ele><time>2026-04-23T14:15:50.502Z</time></trkpt><trkpt lat="39.847205" lon="9.1700483"><ele>783.0</ele><time>2026-04-23T14:15:51.502Z</time></trkpt><trkpt lat="39.8471017" lon="9.1699933"><ele>783.0</ele><time>2026-04-23T14:15:53.501Z</time></trkpt><trkpt lat="39.8470367" lon="9.1699417"><ele>783.0</ele><time>2026-04-23T14:15:55.501Z</time></trkpt><trkpt lat="39.846985" lon="9.1698767"><ele>783.0</ele><time>2026-04-23T14:15:57.502Z</time></trkpt><trkpt lat="39.8469183" lon="9.169885"><ele>783.0</ele><time>2026-04-23T14:16:01.502Z</time></trkpt><trkpt lat="39.84692" lon="9.17001"><ele>783.0</ele><time>2026-04-23T14:16:04.502Z</time></trkpt><trkpt lat="39.846895" lon="9.1701433"><ele>783.0</ele><time>2026-04-23T14:16:06.501Z</time></trkpt><trkpt lat="39.8468683" lon="9.1702183"><ele>783.0</ele><time>2026-04-23T14:16:07.502Z</time></trkpt><trkpt lat="39.846845" lon="9.1703083"><ele>783.0</ele><time>2026-04-23T14:16:08.502Z</time></trkpt><trkpt lat="39.846825" lon="9.170405"><ele>783.0</ele><time>2026-04-23T14:16:09.502Z</time></trkpt><trkpt lat="39.846815" lon="9.170495"><ele>783.0</ele><time>2026-04-23T14:16:10.502Z</time></trkpt><trkpt lat="39.84681" lon="9.1706633"><ele>783.0</ele><time>2026-04-23T14:16:12.501Z</time></trkpt><trkpt lat="39.8468017" lon="9.1707483"><ele>783.0</ele><time>2026-04-23T14:16:13.501Z</time></trkpt><trkpt lat="39.8467633" lon="9.1708683"><ele>783.0</ele><time>2026-04-23T14:16:15.501Z</time></trkpt><trkpt lat="39.8467083" lon="9.1709217"><ele>783.0</ele><time>2026-04-23T14:17:05.502Z</time></trkpt><trkpt lat="39.8467517" lon="9.17086"><ele>783.0</ele><time>2026-04-23T14:17:07.501Z</time></trkpt><trkpt lat="39.8467883" lon="9.1707917"><ele>783.0</ele><time>2026-04-23T14:17:08.502Z</time></trkpt><trkpt lat="39.8468133" lon="9.1707067"><ele>783.0</ele><time>2026-04-23T14:17:09.501Z</time></trkpt><trkpt lat="39.84683" lon="9.1706183"><ele>783.0</ele><time>2026-04-23T14:17:10.502Z</time></trkpt><trkpt lat="39.8468367" lon="9.1705233"><ele>783.0</ele><time>2026-04-23T14:17:11.502Z</time></trkpt><trkpt lat="39.8468467" lon="9.17043"><ele>783.0</ele><time>2026-04-23T14:17:12.501Z</time></trkpt><trkpt lat="39.846865" lon="9.1703433"><ele>783.0</ele><time>2026-04-23T14:17:13.502Z</time></trkpt><trkpt lat="39.8468917" lon="9.170205"><ele>783.0</ele><time>2026-04-23T14:17:15.501Z</time></trkpt><trkpt lat="39.8469217" lon="9.1701067"><ele>783.0</ele><time>2026-04-23T14:17:17.502Z</time></trkpt><trkpt lat="39.846945" lon="9.169975"><ele>783.1666666666666</ele><time>2026-04-23T14:17:19.502Z</time></trkpt><trkpt lat="39.8469317" lon="9.1698467"><ele>783.3333333333333</ele><time>2026-04-23T14:17:21.501Z</time></trkpt><trkpt lat="39.8469067" lon="9.16977"><ele>783.5</ele><time>2026-04-23T14:17:23.501Z</time></trkpt><trkpt lat="39.8468483" lon="9.1697367"><ele>783.6666666666666</ele><time>2026-04-23T14:18:38.501Z</time></trkpt><trkpt lat="39.8468033" lon="9.1696683"><ele>783.8333333333333</ele><time>2026-04-23T14:19:26.501Z</time></trkpt><trkpt lat="39.8467633" lon="9.169575"><ele>784.0</ele><time>2026-04-23T14:19:28.501Z</time></trkpt><trkpt lat="39.84669" lon="9.16948"><ele>784.0</ele><time>2026-04-23T14:19:30.501Z</time></trkpt><trkpt lat="39.8466333" lon="9.1694417"><ele>784.0</ele><time>2026-04-23T14:19:31.501Z</time></trkpt><trkpt lat="39.8465233" lon="9.1693667"><ele>784.0</ele><time>2026-04-23T14:19:33.501Z</time></trkpt><trkpt lat="39.8464133" lon="9.16929"><ele>784.0</ele><time>2026-04-23T14:19:35.501Z</time></trkpt><trkpt lat="39.8463" lon="9.1692267"><ele>784.0</ele><time>2026-04-23T14:19:37.502Z</time></trkpt><trkpt lat="39.8462333" lon="9.1691983"><ele>784.0</ele><time>2026-04-23T14:19:38.501Z</time></trkpt><trkpt lat="39.84612" lon="9.169145"><ele>784.0</ele><time>2026-04-23T14:19:40.502Z</time></trkpt><trkpt lat="39.846015" lon="9.169055"><ele>784.0</ele><time>2026-04-23T14:19:42.502Z</time></trkpt><trkpt lat="39.8459667" lon="9.168995"><ele>784.0</ele><time>2026-04-23T14:19:43.501Z</time></trkpt><trkpt lat="39.84591" lon="9.16893"><ele>784.0</ele><time>2026-04-23T14:19:44.501Z</time></trkpt><trkpt lat="39.84586" lon="9.16887"><ele>784.8000000000001</ele><time>2026-04-23T14:19:45.501Z</time></trkpt><trkpt lat="39.845765" lon="9.1687817"><ele>785.6</ele><time>2026-04-23T14:19:47.501Z</time></trkpt><trkpt lat="39.84566" lon="9.1687267"><ele>786.4</ele><time>2026-04-23T14:19:49.501Z</time></trkpt><trkpt lat="39.8455317" lon="9.1687067"><ele>787.2</ele><time>2026-04-23T14:19:51.502Z</time></trkpt><trkpt lat="39.8454633" lon="9.168695"><ele>788.0</ele><time>2026-04-23T14:19:52.501Z</time></trkpt><trkpt lat="39.8454" lon="9.16868"><ele>788.0000000000001</ele><time>2026-04-23T14:19:53.502Z</time></trkpt><trkpt lat="39.8453333" lon="9.168665"><ele>788.0</ele><time>2026-04-23T14:19:54.502Z</time></trkpt><trkpt lat="39.8452183" lon="9.1686767"><ele>788.0</ele><time>2026-04-23T14:19:56.501Z</time></trkpt><trkpt lat="39.8451533" lon="9.1686933"><ele>788.0</ele><time>2026-04-23T14:19:57.502Z</time></trkpt><trkpt lat="39.8450883" lon="9.1687067"><ele>788.0000000000001</ele><time>2026-04-23T14:19:58.501Z</time></trkpt><trkpt lat="39.8450183" lon="9.1687283"><ele>788.0</ele><time>2026-04-23T14:19:59.502Z</time></trkpt><trkpt lat="39.8449567" lon="9.1687633"><ele>789.6666666666667</ele><time>2026-04-23T14:20:00.501Z</time></trkpt><trkpt lat="39.8449033" lon="9.16882"><ele>791.3333333333334</ele><time>2026-04-23T14:20:01.502Z</time></trkpt><trkpt lat="39.8448583" lon="9.1688983"><ele>793.0</ele><time>2026-04-23T14:20:02.501Z</time></trkpt><trkpt lat="39.844815" lon="9.1689833"><ele>794.6666666666667</ele><time>2026-04-23T14:20:03.501Z</time></trkpt><trkpt lat="39.8447683" lon="9.1690567"><ele>796.3333333333334</ele><time>2026-04-23T14:20:04.501Z</time></trkpt><trkpt lat="39.84468" lon="9.1691233"><ele>798.0</ele><time>2026-04-23T14:20:06.501Z</time></trkpt><trkpt lat="39.844595" lon="9.1691117"><ele>798.0</ele><time>2026-04-23T14:20:08.501Z</time></trkpt><trkpt lat="39.8445" lon="9.1691333"><ele>798.0</ele><time>2026-04-23T14:20:10.501Z</time></trkpt><trkpt lat="39.8444083" lon="9.1691767"><ele>798.0</ele><time>2026-04-23T14:20:12.502Z</time></trkpt><trkpt lat="39.8443317" lon="9.1691483"><ele>798.0</ele><time>2026-04-23T14:20:14.501Z</time></trkpt><trkpt lat="39.84424" lon="9.169105"><ele>798.0</ele><time>2026-04-23T14:20:16.502Z</time></trkpt><trkpt lat="39.8441767" lon="9.1691"><ele>798.0</ele><time>2026-04-23T14:20:17.502Z</time></trkpt><trkpt lat="39.8440467" lon="9.1690867"><ele>799.2857142857143</ele><time>2026-04-23T14:20:19.501Z</time></trkpt><trkpt lat="39.8439867" lon="9.1690517"><ele>800.5714285714286</ele><time>2026-04-23T14:20:20.501Z</time></trkpt><trkpt lat="39.8439233" lon="9.1690117"><ele>801.8571428571429</ele><time>2026-04-23T14:20:21.502Z</time></trkpt><trkpt lat="39.843855" lon="9.1689917"><ele>803.1428571428571</ele><time>2026-04-23T14:20:22.502Z</time></trkpt><trkpt lat="39.8437817" lon="9.1689867"><ele>804.4285714285714</ele><time>2026-04-23T14:20:23.502Z</time></trkpt><trkpt lat="39.8437" lon="9.168985"><ele>805.7142857142858</ele><time>2026-04-23T14:20:24.501Z</time></trkpt><trkpt lat="39.8436217" lon="9.1689867"><ele>807.0</ele><time>2026-04-23T14:20:25.502Z</time></trkpt><trkpt lat="39.8435367" lon="9.1689967"><ele>808.3333333333334</ele><time>2026-04-23T14:20:26.502Z</time></trkpt><trkpt lat="39.84345" lon="9.1690033"><ele>809.6666666666667</ele><time>2026-04-23T14:20:27.501Z</time></trkpt><trkpt lat="39.8433517" lon="9.1690217"><ele>811.0</ele><time>2026-04-23T14:20:28.502Z</time></trkpt><trkpt lat="39.8432633" lon="9.1690467"><ele>812.3333333333334</ele><time>2026-04-23T14:20:29.502Z</time></trkpt><trkpt lat="39.8431817" lon="9.1690717"><ele>813.6666666666667</ele><time>2026-04-23T14:20:30.501Z</time></trkpt><trkpt lat="39.8431067" lon="9.1690833"><ele>815.0</ele><time>2026-04-23T14:20:31.501Z</time></trkpt><trkpt lat="39.8430333" lon="9.1690867"><ele>815.4</ele><time>2026-04-23T14:20:32.501Z</time></trkpt><trkpt lat="39.8429633" lon="9.1690967"><ele>815.8</ele><time>2026-04-23T14:20:33.502Z</time></trkpt><trkpt lat="39.8428533" lon="9.1691583"><ele>816.2</ele><time>2026-04-23T14:20:35.501Z</time></trkpt><trkpt lat="39.8427583" lon="9.1692767"><ele>816.6</ele><time>2026-04-23T14:20:37.501Z</time></trkpt><trkpt lat="39.8427233" lon="9.1693483"><ele>817.0</ele><time>2026-04-23T14:20:38.502Z</time></trkpt><trkpt lat="39.84265" lon="9.1694667"><ele>817.2</ele><time>2026-04-23T14:20:40.501Z</time></trkpt><trkpt lat="39.8425633" lon="9.1695733"><ele>817.4000000000001</ele><time>2026-04-23T14:20:42.501Z</time></trkpt><trkpt lat="39.8424517" lon="9.1696483"><ele>817.5999999999999</ele><time>2026-04-23T14:20:44.501Z</time></trkpt><trkpt lat="39.842375" lon="9.1696767"><ele>817.8</ele><time>2026-04-23T14:20:45.501Z</time></trkpt><trkpt lat="39.8423" lon="9.1696983"><ele>818.0</ele><time>2026-04-23T14:20:46.502Z</time></trkpt><trkpt lat="39.84222" lon="9.169705"><ele>818.0000000000001</ele><time>2026-04-23T14:20:47.501Z</time></trkpt><trkpt lat="39.8421383" lon="9.1697117"><ele>818.0</ele><time>2026-04-23T14:20:48.502Z</time></trkpt><trkpt lat="39.842055" lon="9.169715"><ele>818.0</ele><time>2026-04-23T14:20:49.502Z</time></trkpt><trkpt lat="39.8419717" lon="9.169725"><ele>818.0</ele><time>2026-04-23T14:20:50.501Z</time></trkpt><trkpt lat="39.84189" lon="9.169735"><ele>818.0000000000001</ele><time>2026-04-23T14:20:51.501Z</time></trkpt><trkpt lat="39.8418117" lon="9.1697517"><ele>818.0</ele><time>2026-04-23T14:20:52.501Z</time></trkpt><trkpt lat="39.841735" lon="9.16977"><ele>817.7142857142857</ele><time>2026-04-23T14:20:53.502Z</time></trkpt><trkpt lat="39.8416617" lon="9.1697867"><ele>817.4285714285714</ele><time>2026-04-23T14:20:54.502Z</time></trkpt><trkpt lat="39.8415883" lon="9.1697983"><ele>817.1428571428571</ele><time>2026-04-23T14:20:55.502Z</time></trkpt><trkpt lat="39.8415183" lon="9.1698133"><ele>816.8571428571429</ele><time>2026-04-23T14:20:56.501Z</time></trkpt><trkpt lat="39.8414467" lon="9.16983"><ele>816.5714285714287</ele><time>2026-04-23T14:20:57.502Z</time></trkpt><trkpt lat="39.8413683" lon="9.169845"><ele>816.2857142857143</ele><time>2026-04-23T14:20:58.501Z</time></trkpt><trkpt lat="39.8413033" lon="9.1698633"><ele>816.0</ele><time>2026-04-23T14:20:59.502Z</time></trkpt><trkpt lat="39.8412417" lon="9.1698833"><ele>815.5</ele><time>2026-04-23T14:21:00.502Z</time></trkpt><trkpt lat="39.8411233" lon="9.1698883"><ele>815.0</ele><time>2026-04-23T14:21:02.501Z</time></trkpt><trkpt lat="39.8410567" lon="9.1698767"><ele>814.5</ele><time>2026-04-23T14:21:03.502Z</time></trkpt><trkpt lat="39.8409833" lon="9.1698633"><ele>814.0</ele><time>2026-04-23T14:21:04.502Z</time></trkpt><trkpt lat="39.8409033" lon="9.1698483"><ele>813.5</ele><time>2026-04-23T14:21:05.502Z</time></trkpt><trkpt lat="39.840825" lon="9.1698383"><ele>813.0</ele><time>2026-04-23T14:21:06.502Z</time></trkpt><trkpt lat="39.8407417" lon="9.1698283"><ele>813.0</ele><time>2026-04-23T14:21:07.501Z</time></trkpt><trkpt lat="39.8406517" lon="9.1698133"><ele>813.0</ele><time>2026-04-23T14:21:08.502Z</time></trkpt><trkpt lat="39.840565" lon="9.1697917"><ele>813.0</ele><time>2026-04-23T14:21:09.502Z</time></trkpt><trkpt lat="39.8404733" lon="9.16977"><ele>813.0</ele><time>2026-04-23T14:21:10.501Z</time></trkpt><trkpt lat="39.840385" lon="9.169745"><ele>813.0</ele><time>2026-04-23T14:21:11.502Z</time></trkpt><trkpt lat="39.8403033" lon="9.1697183"><ele>813.0</ele><time>2026-04-23T14:21:12.502Z</time></trkpt><trkpt lat="39.840225" lon="9.1696883"><ele>813.0</ele><time>2026-04-23T14:21:13.501Z</time></trkpt><trkpt lat="39.8401567" lon="9.1696533"><ele>813.0</ele><time>2026-04-23T14:21:14.501Z</time></trkpt><trkpt lat="39.8401" lon="9.169605"><ele>813.0</ele><time>2026-04-23T14:21:15.502Z</time></trkpt><trkpt lat="39.84002" lon="9.1695333"><ele>813.0</ele><time>2026-04-23T14:21:17.501Z</time></trkpt><trkpt lat="39.8399483" lon="9.1695333"><ele>813.0</ele><time>2026-04-23T14:21:19.501Z</time></trkpt><trkpt lat="39.8398983" lon="9.1695983"><ele>813.0</ele><time>2026-04-23T14:21:21.501Z</time></trkpt><trkpt lat="39.8398683" lon="9.1697133"><ele>812.1666666666666</ele><time>2026-04-23T14:21:23.501Z</time></trkpt><trkpt lat="39.8398333" lon="9.16979"><ele>811.3333333333333</ele><time>2026-04-23T14:21:25.502Z</time></trkpt><trkpt lat="39.8397567" lon="9.16983"><ele>810.5</ele><time>2026-04-23T14:21:27.502Z</time></trkpt><trkpt lat="39.8396367" lon="9.1698833"><ele>809.6666666666666</ele><time>2026-04-23T14:21:29.502Z</time></trkpt><trkpt lat="39.8395767" lon="9.169925"><ele>808.8333333333333</ele><time>2026-04-23T14:21:30.502Z</time></trkpt><trkpt lat="39.8395133" lon="9.1699767"><ele>808.0</ele><time>2026-04-23T14:21:31.502Z</time></trkpt><trkpt lat="39.8394617" lon="9.17003"><ele>807.4999999999999</ele><time>2026-04-23T14:21:32.502Z</time></trkpt><trkpt lat="39.8393583" lon="9.1701367"><ele>807.0</ele><time>2026-04-23T14:21:34.502Z</time></trkpt><trkpt lat="39.8393033" lon="9.1701917"><ele>806.5</ele><time>2026-04-23T14:21:35.501Z</time></trkpt><trkpt lat="39.8392433" lon="9.1702467"><ele>806.0</ele><time>2026-04-23T14:21:36.501Z</time></trkpt><trkpt lat="39.8391767" lon="9.1702967"><ele>805.4999999999999</ele><time>2026-04-23T14:21:37.501Z</time></trkpt><trkpt lat="39.8391133" lon="9.1703367"><ele>805.0</ele><time>2026-04-23T14:21:38.502Z</time></trkpt><trkpt lat="39.8390083" lon="9.170405"><ele>804.2</ele><time>2026-04-23T14:21:40.501Z</time></trkpt><trkpt lat="39.838915" lon="9.170395"><ele>803.4</ele><time>2026-04-23T14:21:42.501Z</time></trkpt><trkpt lat="39.83882" lon="9.1703133"><ele>802.5999999999999</ele><time>2026-04-23T14:21:44.502Z</time></trkpt><trkpt lat="39.8387383" lon="9.17023"><ele>801.8</ele><time>2026-04-23T14:21:46.503Z</time></trkpt><trkpt lat="39.838625" lon="9.1702617"><ele>801.0</ele><time>2026-04-23T14:21:48.502Z</time></trkpt><trkpt lat="39.838575" lon="9.1703117"><ele>801.0</ele><time>2026-04-23T14:21:49.503Z</time></trkpt><trkpt lat="39.8384933" lon="9.1704333"><ele>801.0</ele><time>2026-04-23T14:21:51.502Z</time></trkpt><trkpt lat="39.8384517" lon="9.1704983"><ele>801.0</ele><time>2026-04-23T14:21:52.502Z</time></trkpt><trkpt lat="39.83842" lon="9.1705767"><ele>801.0</ele><time>2026-04-23T14:21:53.503Z</time></trkpt><trkpt lat="39.8383967" lon="9.170655"><ele>801.0</ele><time>2026-04-23T14:21:54.503Z</time></trkpt><trkpt lat="39.838355" lon="9.17079"><ele>801.0</ele><time>2026-04-23T14:21:56.503Z</time></trkpt><trkpt lat="39.8382733" lon="9.1708533"><ele>801.4285714285714</ele><time>2026-04-23T14:21:58.502Z</time></trkpt><trkpt lat="39.8382083" lon="9.1708767"><ele>801.8571428571429</ele><time>2026-04-23T14:21:59.502Z</time></trkpt><trkpt lat="39.8381333" lon="9.1709033"><ele>802.2857142857142</ele><time>2026-04-23T14:22:00.503Z</time></trkpt><trkpt lat="39.8380667" lon="9.170935"><ele>802.7142857142858</ele><time>2026-04-23T14:22:01.503Z</time></trkpt><trkpt lat="39.838005" lon="9.1709833"><ele>803.1428571428572</ele><time>2026-04-23T14:22:02.502Z</time></trkpt><trkpt lat="39.8379467" lon="9.1710483"><ele>803.5714285714286</ele><time>2026-04-23T14:22:03.503Z</time></trkpt><trkpt lat="39.837895" lon="9.1711117"><ele>804.0</ele><time>2026-04-23T14:22:04.503Z</time></trkpt><trkpt lat="39.837845" lon="9.171175"><ele>804.0</ele><time>2026-04-23T14:22:05.502Z</time></trkpt><trkpt lat="39.8377983" lon="9.17124"><ele>804.0</ele><time>2026-04-23T14:22:06.503Z</time></trkpt><trkpt lat="39.8377333" lon="9.1713467"><ele>804.0</ele><time>2026-04-23T14:22:08.503Z</time></trkpt><trkpt lat="39.8376883" lon="9.1714317"><ele>804.0</ele><time>2026-04-23T14:22:10.503Z</time></trkpt><trkpt lat="39.8376133" lon="9.1714867"><ele>804.0</ele><time>2026-04-23T14:22:13.503Z</time></trkpt><trkpt lat="39.8375383" lon="9.17154"><ele>804.0</ele><time>2026-04-23T14:22:15.503Z</time></trkpt><trkpt lat="39.8374467" lon="9.1716383"><ele>804.6</ele><time>2026-04-23T14:22:17.502Z</time></trkpt><trkpt lat="39.8373733" lon="9.171715"><ele>805.2</ele><time>2026-04-23T14:22:19.502Z</time></trkpt><trkpt lat="39.8373167" lon="9.1717883"><ele>805.8000000000001</ele><time>2026-04-23T14:22:21.502Z</time></trkpt><trkpt lat="39.8372583" lon="9.17189"><ele>806.4000000000001</ele><time>2026-04-23T14:22:23.502Z</time></trkpt><trkpt lat="39.8371867" lon="9.17196"><ele>807.0</ele><time>2026-04-23T14:22:25.502Z</time></trkpt><trkpt lat="39.8371117" lon="9.1720283"><ele>807.0</ele><time>2026-04-23T14:22:27.503Z</time></trkpt><trkpt lat="39.837065" lon="9.17211"><ele>807.0</ele><time>2026-04-23T14:22:29.503Z</time></trkpt><trkpt lat="39.8370583" lon="9.172215"><ele>807.0</ele><time>2026-04-23T14:22:31.502Z</time></trkpt><trkpt lat="39.83707" lon="9.17234"><ele>807.0</ele><time>2026-04-23T14:22:33.502Z</time></trkpt><trkpt lat="39.837095" lon="9.1724517"><ele>807.0</ele><time>2026-04-23T14:22:35.502Z</time></trkpt><trkpt lat="39.8370933" lon="9.1725533"><ele>807.0</ele><time>2026-04-23T14:22:37.502Z</time></trkpt><trkpt lat="39.8370667" lon="9.1726567"><ele>808.0000000000001</ele><time>2026-04-23T14:22:39.503Z</time></trkpt><trkpt lat="39.8370383" lon="9.17274"><ele>809.0</ele><time>2026-04-23T14:22:41.503Z</time></trkpt><trkpt lat="39.8370133" lon="9.17283"><ele>810.0</ele><time>2026-04-23T14:22:43.503Z</time></trkpt><trkpt lat="39.8370033" lon="9.1729133"><ele>811.0</ele><time>2026-04-23T14:22:45.502Z</time></trkpt><trkpt lat="39.836975" lon="9.1729917"><ele>812.0</ele><time>2026-04-23T14:22:48.502Z</time></trkpt><trkpt lat="39.83691" lon="9.1730533"><ele>813.0000000000001</ele><time>2026-04-23T14:22:51.503Z</time></trkpt><trkpt lat="39.8368633" lon="9.1731333"><ele>814.0</ele><time>2026-04-23T14:22:54.502Z</time></trkpt><trkpt lat="39.8368967" lon="9.1732567"><ele>814.2857142857143</ele><time>2026-04-23T14:22:57.503Z</time></trkpt><trkpt lat="39.836925" lon="9.1733467"><ele>814.5714285714286</ele><time>2026-04-23T14:22:59.502Z</time></trkpt><trkpt lat="39.8369517" lon="9.1734283"><ele>814.8571428571429</ele><time>2026-04-23T14:23:03.502Z</time></trkpt><trkpt lat="39.836885" lon="9.1733867"><ele>815.1428571428571</ele><time>2026-04-23T14:23:53.502Z</time></trkpt><trkpt lat="39.836905" lon="9.1733"><ele>815.4285714285714</ele><time>2026-04-23T14:24:41.502Z</time></trkpt><trkpt lat="39.8368333" lon="9.1732483"><ele>815.7142857142858</ele><time>2026-04-23T14:24:45.503Z</time></trkpt><trkpt lat="39.8367683" lon="9.173285"><ele>816.0</ele><time>2026-04-23T14:24:47.502Z</time></trkpt><trkpt lat="39.8367117" lon="9.1733417"><ele>814.3333333333334</ele><time>2026-04-23T14:24:49.502Z</time></trkpt><trkpt lat="39.83663" lon="9.1733917"><ele>812.6666666666667</ele><time>2026-04-23T14:24:52.502Z</time></trkpt><trkpt lat="39.83657" lon="9.1734183"><ele>811.0</ele><time>2026-04-23T14:24:56.503Z</time></trkpt><trkpt lat="39.8365033" lon="9.1734883"><ele>809.3333333333334</ele><time>2026-04-23T14:25:00.502Z</time></trkpt><trkpt lat="39.8364583" lon="9.1735933"><ele>807.6666666666667</ele><time>2026-04-23T14:25:03.502Z</time></trkpt><trkpt lat="39.8364183" lon="9.173665"><ele>806.0</ele><time>2026-04-23T14:25:06.503Z</time></trkpt><trkpt lat="39.8363617" lon="9.1737133"><ele>806.0</ele><time>2026-04-23T14:25:11.503Z</time></trkpt><trkpt lat="39.8363083" lon="9.17377"><ele>806.0</ele><time>2026-04-23T14:25:15.503Z</time></trkpt><trkpt lat="39.8362533" lon="9.1738467"><ele>806.0</ele><time>2026-04-23T14:25:18.503Z</time></trkpt><trkpt lat="39.8361983" lon="9.1739133"><ele>806.0</ele><time>2026-04-23T14:25:21.503Z</time></trkpt><trkpt lat="39.8361467" lon="9.173975"><ele>806.0</ele><time>2026-04-23T14:25:24.502Z</time></trkpt><trkpt lat="39.83608" lon="9.1739933"><ele>806.0</ele><time>2026-04-23T14:25:28.503Z</time></trkpt><trkpt lat="39.836145" lon="9.1740383"><ele>806.0</ele><time>2026-04-23T14:26:13.502Z</time></trkpt><trkpt lat="39.8362133" lon="9.17401"><ele>806.0000000000001</ele><time>2026-04-23T14:26:16.502Z</time></trkpt><trkpt lat="39.8362833" lon="9.173935"><ele>806.0</ele><time>2026-04-23T14:26:19.502Z</time></trkpt><trkpt lat="39.836335" lon="9.17387"><ele>806.0</ele><time>2026-04-23T14:26:22.503Z</time></trkpt><trkpt lat="39.83638" lon="9.1738067"><ele>806.0</ele><time>2026-04-23T14:26:25.502Z</time></trkpt><trkpt lat="39.8364333" lon="9.1737133"><ele>806.0000000000001</ele><time>2026-04-23T14:37:26.501Z</time></trkpt><trkpt lat="39.8364817" lon="9.1736317"><ele>806.0</ele><time>2026-04-23T14:37:29.501Z</time></trkpt><trkpt lat="39.836555" lon="9.1735517"><ele>806.0</ele><time>2026-04-23T14:37:32.501Z</time></trkpt><trkpt lat="39.8366267" lon="9.173515"><ele>806.0</ele><time>2026-04-23T14:37:34.501Z</time></trkpt><trkpt lat="39.83672" lon="9.173435"><ele>806.0</ele><time>2026-04-23T14:37:36.502Z</time></trkpt><trkpt lat="39.8367717" lon="9.173385"><ele>806.0</ele><time>2026-04-23T14:37:37.501Z</time></trkpt><trkpt lat="39.8368433" lon="9.1732817"><ele>806.0</ele><time>2026-04-23T14:37:39.501Z</time></trkpt><trkpt lat="39.8369067" lon="9.1731883"><ele>807.5999999999999</ele><time>2026-04-23T14:37:41.502Z</time></trkpt><trkpt lat="39.8369633" lon="9.1730967"><ele>809.2</ele><time>2026-04-23T14:37:43.502Z</time></trkpt><trkpt lat="39.8370233" lon="9.17296"><ele>810.8</ele><time>2026-04-23T14:37:45.502Z</time></trkpt><trkpt lat="39.83704" lon="9.17288"><ele>812.4000000000001</ele><time>2026-04-23T14:37:46.502Z</time></trkpt><trkpt lat="39.83707" lon="9.1727467"><ele>814.0</ele><time>2026-04-23T14:37:48.501Z</time></trkpt><trkpt lat="39.8371083" lon="9.1726133"><ele>814.0</ele><time>2026-04-23T14:37:50.502Z</time></trkpt><trkpt lat="39.83713" lon="9.1724633"><ele>814.0</ele><time>2026-04-23T14:37:52.501Z</time></trkpt><trkpt lat="39.8371117" lon="9.1723033"><ele>814.0</ele><time>2026-04-23T14:37:54.501Z</time></trkpt><trkpt lat="39.8371083" lon="9.17218"><ele>814.0</ele><time>2026-04-23T14:37:56.501Z</time></trkpt><trkpt lat="39.8371333" lon="9.1720767"><ele>814.0</ele><time>2026-04-23T14:37:58.501Z</time></trkpt><trkpt lat="39.8372133" lon="9.1719633"><ele>812.6</ele><time>2026-04-23T14:38:00.501Z</time></trkpt><trkpt lat="39.83732" lon="9.1718567"><ele>811.2</ele><time>2026-04-23T14:38:02.501Z</time></trkpt><trkpt lat="39.8373717" lon="9.1717917"><ele>809.8000000000001</ele><time>2026-04-23T14:38:03.501Z</time></trkpt><trkpt lat="39.8374233" lon="9.1717267"><ele>808.4000000000001</ele><time>2026-04-23T14:38:04.501Z</time></trkpt><trkpt lat="39.83747" lon="9.1716717"><ele>807.0</ele><time>2026-04-23T14:38:05.502Z</time></trkpt><trkpt lat="39.8375583" lon="9.1715733"><ele>806.5</ele><time>2026-04-23T14:38:07.502Z</time></trkpt><trkpt lat="39.83765" lon="9.17149"><ele>806.0</ele><time>2026-04-23T14:38:09.501Z</time></trkpt><trkpt lat="39.8377417" lon="9.17139"><ele>805.5</ele><time>2026-04-23T14:38:11.501Z</time></trkpt><trkpt lat="39.837785" lon="9.1713167"><ele>805.0</ele><time>2026-04-23T14:38:12.502Z</time></trkpt><trkpt lat="39.8378267" lon="9.171245"><ele>804.5</ele><time>2026-04-23T14:38:13.501Z</time></trkpt><trkpt lat="39.8378717" lon="9.1711667"><ele>804.0</ele><time>2026-04-23T14:38:14.502Z</time></trkpt><trkpt lat="39.837925" lon="9.1711083"><ele>804.0</ele><time>2026-04-23T14:38:15.501Z</time></trkpt><trkpt lat="39.837975" lon="9.171045"><ele>804.0</ele><time>2026-04-23T14:38:16.502Z</time></trkpt><trkpt lat="39.8380267" lon="9.1709933"><ele>804.0</ele><time>2026-04-23T14:38:17.502Z</time></trkpt><trkpt lat="39.838125" lon="9.17091"><ele>804.0</ele><time>2026-04-23T14:38:19.501Z</time></trkpt><trkpt lat="39.8382483" lon="9.1708733"><ele>804.0</ele><time>2026-04-23T14:38:21.501Z</time></trkpt><trkpt lat="39.8383367" lon="9.1708283"><ele>804.0</ele><time>2026-04-23T14:38:23.502Z</time></trkpt><trkpt lat="39.8383867" lon="9.1707167"><ele>804.0</ele><time>2026-04-23T14:38:25.502Z</time></trkpt><trkpt lat="39.83841" lon="9.1706367"><ele>804.0</ele><time>2026-04-23T14:38:26.502Z</time></trkpt><trkpt lat="39.8384633" lon="9.170505"><ele>804.0</ele><time>2026-04-23T14:38:28.501Z</time></trkpt><trkpt lat="39.8385367" lon="9.1704083"><ele>804.0</ele><time>2026-04-23T14:38:30.502Z</time></trkpt><trkpt lat="39.8385967" lon="9.1703283"><ele>803.4000000000001</ele><time>2026-04-23T14:38:32.501Z</time></trkpt><trkpt lat="39.8386767" lon="9.1702783"><ele>802.8</ele><time>2026-04-23T14:38:34.502Z</time></trkpt><trkpt lat="39.838775" lon="9.1702867"><ele>802.2</ele><time>2026-04-23T14:38:36.501Z</time></trkpt><trkpt lat="39.83885" lon="9.1703667"><ele>801.5999999999999</ele><time>2026-04-23T14:38:38.501Z</time></trkpt><trkpt lat="39.8389217" lon="9.1704383"><ele>801.0</ele><time>2026-04-23T14:38:40.502Z</time></trkpt><trkpt lat="39.8390017" lon="9.1704383"><ele>801.0</ele><time>2026-04-23T14:38:42.502Z</time></trkpt><trkpt lat="39.8390933" lon="9.1703667"><ele>801.0</ele><time>2026-04-23T14:38:44.502Z</time></trkpt><trkpt lat="39.839205" lon="9.17029"><ele>801.0</ele><time>2026-04-23T14:38:46.502Z</time></trkpt><trkpt lat="39.839265" lon="9.1702533"><ele>801.0</ele><time>2026-04-23T14:38:47.502Z</time></trkpt><trkpt lat="39.8393183" lon="9.1702033"><ele>801.0</ele><time>2026-04-23T14:38:48.502Z</time></trkpt><trkpt lat="39.839365" lon="9.1701417"><ele>801.0</ele><time>2026-04-23T14:38:49.502Z</time></trkpt><trkpt lat="39.8394167" lon="9.1700733"><ele>801.6666666666666</ele><time>2026-04-23T14:38:50.501Z</time></trkpt><trkpt lat="39.8394717" lon="9.1700183"><ele>802.3333333333333</ele><time>2026-04-23T14:38:51.502Z</time></trkpt><trkpt lat="39.839535" lon="9.1699733"><ele>803.0</ele><time>2026-04-23T14:38:52.501Z</time></trkpt><trkpt lat="39.8396017" lon="9.1699333"><ele>803.6666666666666</ele><time>2026-04-23T14:38:53.502Z</time></trkpt><trkpt lat="39.8396567" lon="9.1698883"><ele>804.3333333333333</ele><time>2026-04-23T14:38:54.502Z</time></trkpt><trkpt lat="39.8397683" lon="9.1698367"><ele>805.0</ele><time>2026-04-23T14:38:56.501Z</time></trkpt><trkpt lat="39.83985" lon="9.1698"><ele>805.4999999999999</ele><time>2026-04-23T14:38:58.502Z</time></trkpt><trkpt lat="39.8398967" lon="9.1697033"><ele>806.0</ele><time>2026-04-23T14:39:00.502Z</time></trkpt><trkpt lat="39.8399283" lon="9.1695983"><ele>806.5</ele><time>2026-04-23T14:39:02.501Z</time></trkpt><trkpt lat="39.839955" lon="9.1695"><ele>807.0</ele><time>2026-04-23T14:39:05.501Z</time></trkpt><trkpt lat="39.8398967" lon="9.169465"><ele>807.4999999999999</ele><time>2026-04-23T14:39:07.501Z</time></trkpt><trkpt lat="39.8397867" lon="9.169425"><ele>808.0</ele><time>2026-04-23T14:39:09.501Z</time></trkpt><trkpt lat="39.839695" lon="9.169315"><ele>808.0</ele><time>2026-04-23T14:39:11.501Z</time></trkpt><trkpt lat="39.839645" lon="9.1692533"><ele>808.0</ele><time>2026-04-23T14:39:12.502Z</time></trkpt><trkpt lat="39.83956" lon="9.1691667"><ele>808.0</ele><time>2026-04-23T14:39:14.501Z</time></trkpt><trkpt lat="39.8394867" lon="9.16906"><ele>808.0</ele><time>2026-04-23T14:39:16.502Z</time></trkpt><trkpt lat="39.8393867" lon="9.1689583"><ele>808.0</ele><time>2026-04-23T14:39:18.501Z</time></trkpt><trkpt lat="39.8392817" lon="9.1688667"><ele>808.2</ele><time>2026-04-23T14:39:20.501Z</time></trkpt><trkpt lat="39.839175" lon="9.1688033"><ele>808.4</ele><time>2026-04-23T14:39:22.501Z</time></trkpt><trkpt lat="39.8390617" lon="9.1687883"><ele>808.6</ele><time>2026-04-23T14:39:24.502Z</time></trkpt><trkpt lat="39.8389933" lon="9.1688033"><ele>808.8000000000001</ele><time>2026-04-23T14:39:25.502Z</time></trkpt><trkpt lat="39.83891" lon="9.1688183"><ele>809.0</ele><time>2026-04-23T14:39:26.502Z</time></trkpt><trkpt lat="39.8388233" lon="9.168815"><ele>809.0000000000001</ele><time>2026-04-23T14:39:27.501Z</time></trkpt><trkpt lat="39.83874" lon="9.1688033"><ele>809.0</ele><time>2026-04-23T14:39:28.502Z</time></trkpt><trkpt lat="39.8386583" lon="9.168785"><ele>809.0</ele><time>2026-04-23T14:39:29.502Z</time></trkpt><trkpt lat="39.8385783" lon="9.168765"><ele>809.0</ele><time>2026-04-23T14:39:30.502Z</time></trkpt><trkpt lat="39.838505" lon="9.1687517"><ele>809.0000000000001</ele><time>2026-04-23T14:39:31.501Z</time></trkpt><trkpt lat="39.838435" lon="9.1687383"><ele>809.0</ele><time>2026-04-23T14:39:32.501Z</time></trkpt><trkpt lat="39.83837" lon="9.16874"><ele>808.0000000000001</ele><time>2026-04-23T14:39:33.501Z</time></trkpt><trkpt lat="39.8383083" lon="9.1687617"><ele>807.0</ele><time>2026-04-23T14:39:34.502Z</time></trkpt><trkpt lat="39.83825" lon="9.1687983"><ele>806.0</ele><time>2026-04-23T14:39:35.502Z</time></trkpt><trkpt lat="39.8381517" lon="9.1689117"><ele>805.0</ele><time>2026-04-23T14:39:37.501Z</time></trkpt><trkpt lat="39.83811" lon="9.16898"><ele>804.0000000000001</ele><time>2026-04-23T14:39:38.501Z</time></trkpt><trkpt lat="39.8380583" lon="9.1690333"><ele>803.0</ele><time>2026-04-23T14:39:39.501Z</time></trkpt><trkpt lat="39.8379917" lon="9.1690667"><ele>802.1666666666667</ele><time>2026-04-23T14:39:40.502Z</time></trkpt><trkpt lat="39.83792" lon="9.1690883"><ele>801.3333333333334</ele><time>2026-04-23T14:39:41.502Z</time></trkpt><trkpt lat="39.83785" lon="9.1690983"><ele>800.5</ele><time>2026-04-23T14:39:42.502Z</time></trkpt><trkpt lat="39.837785" lon="9.1690983"><ele>799.6666666666667</ele><time>2026-04-23T14:39:43.502Z</time></trkpt><trkpt lat="39.837715" lon="9.1690983"><ele>798.8333333333334</ele><time>2026-04-23T14:39:44.501Z</time></trkpt><trkpt lat="39.837645" lon="9.1690967"><ele>798.0</ele><time>2026-04-23T14:39:45.502Z</time></trkpt><trkpt lat="39.8375183" lon="9.16909"><ele>796.0</ele><time>2026-04-23T14:39:47.502Z</time></trkpt><trkpt lat="39.8374183" lon="9.1690283"><ele>794.0</ele><time>2026-04-23T14:39:49.501Z</time></trkpt><trkpt lat="39.8373667" lon="9.1688967"><ele>792.0</ele><time>2026-04-23T14:39:51.502Z</time></trkpt><trkpt lat="39.83732" lon="9.1687633"><ele>790.0</ele><time>2026-04-23T14:39:53.501Z</time></trkpt><trkpt lat="39.837235" lon="9.1687167"><ele>788.0</ele><time>2026-04-23T14:39:55.501Z</time></trkpt><trkpt lat="39.8371433" lon="9.16876"><ele>788.0000000000001</ele><time>2026-04-23T14:39:57.501Z</time></trkpt><trkpt lat="39.83709" lon="9.168865"><ele>788.0</ele><time>2026-04-23T14:39:59.501Z</time></trkpt><trkpt lat="39.8370483" lon="9.168975"><ele>788.0</ele><time>2026-04-23T14:40:01.501Z</time></trkpt><trkpt lat="39.836955" lon="9.16908"><ele>788.0</ele><time>2026-04-23T14:40:03.501Z</time></trkpt><trkpt lat="39.8369" lon="9.169125"><ele>788.0000000000001</ele><time>2026-04-23T14:40:04.501Z</time></trkpt><trkpt lat="39.83684" lon="9.1691667"><ele>788.0</ele><time>2026-04-23T14:40:05.502Z</time></trkpt><trkpt lat="39.8367833" lon="9.1692067"><ele>785.8333333333334</ele><time>2026-04-23T14:40:06.501Z</time></trkpt><trkpt lat="39.83672" lon="9.1692417"><ele>783.6666666666667</ele><time>2026-04-23T14:40:07.501Z</time></trkpt><trkpt lat="39.8366033" lon="9.1692933"><ele>781.5</ele><time>2026-04-23T14:40:09.501Z</time></trkpt><trkpt lat="39.8365367" lon="9.1693183"><ele>779.3333333333333</ele><time>2026-04-23T14:40:10.501Z</time></trkpt><trkpt lat="39.8364683" lon="9.1693433"><ele>777.1666666666666</ele><time>2026-04-23T14:40:11.501Z</time></trkpt><trkpt lat="39.836355" lon="9.1693783"><ele>775.0</ele><time>2026-04-23T14:40:13.502Z</time></trkpt><trkpt lat="39.8362433" lon="9.1693917"><ele>775.0</ele><time>2026-04-23T14:40:15.501Z</time></trkpt><trkpt lat="39.8361183" lon="9.1693533"><ele>775.0</ele><time>2026-04-23T14:40:17.501Z</time></trkpt><trkpt lat="39.8360583" lon="9.1693167"><ele>775.0</ele><time>2026-04-23T14:40:18.502Z</time></trkpt><trkpt lat="39.8359533" lon="9.1692383"><ele>775.0</ele><time>2026-04-23T14:40:20.502Z</time></trkpt><trkpt lat="39.8358717" lon="9.1691517"><ele>775.0</ele><time>2026-04-23T14:40:22.502Z</time></trkpt><trkpt lat="39.8357983" lon="9.169025"><ele>773.9999999999999</ele><time>2026-04-23T14:40:24.501Z</time></trkpt><trkpt lat="39.8357633" lon="9.1689517"><ele>773.0</ele><time>2026-04-23T14:40:25.501Z</time></trkpt><trkpt lat="39.8357367" lon="9.1688667"><ele>772.0</ele><time>2026-04-23T14:40:26.501Z</time></trkpt><trkpt lat="39.8357017" lon="9.1687767"><ele>771.0</ele><time>2026-04-23T14:40:27.501Z</time></trkpt><trkpt lat="39.83567" lon="9.16869"><ele>769.9999999999999</ele><time>2026-04-23T14:40:28.502Z</time></trkpt><trkpt lat="39.8356183" lon="9.1685383"><ele>769.0</ele><time>2026-04-23T14:40:30.502Z</time></trkpt><trkpt lat="39.835595" lon="9.1684583"><ele>768.9999999999999</ele><time>2026-04-23T14:40:31.501Z</time></trkpt><trkpt lat="39.8355683" lon="9.1683717"><ele>769.0</ele><time>2026-04-23T14:40:32.502Z</time></trkpt><trkpt lat="39.835545" lon="9.168275"><ele>769.0</ele><time>2026-04-23T14:40:33.502Z</time></trkpt><trkpt lat="39.83553" lon="9.168165"><ele>769.0</ele><time>2026-04-23T14:40:34.502Z</time></trkpt><trkpt lat="39.8355183" lon="9.168055"><ele>768.9999999999999</ele><time>2026-04-23T14:40:35.502Z</time></trkpt><trkpt lat="39.8355233" lon="9.1679567"><ele>769.0</ele><time>2026-04-23T14:40:36.502Z</time></trkpt><trkpt lat="39.83553" lon="9.16787"><ele>768.8000000000001</ele><time>2026-04-23T14:40:37.501Z</time></trkpt><trkpt lat="39.8355183" lon="9.1677283"><ele>768.6</ele><time>2026-04-23T14:40:39.501Z</time></trkpt><trkpt lat="39.835465" lon="9.1676267"><ele>768.4</ele><time>2026-04-23T14:40:41.501Z</time></trkpt><trkpt lat="39.8353917" lon="9.1675233"><ele>768.2</ele><time>2026-04-23T14:40:43.501Z</time></trkpt><trkpt lat="39.8353483" lon="9.1674517"><ele>768.0</ele><time>2026-04-23T14:40:44.501Z</time></trkpt><trkpt lat="39.83531" lon="9.1673767"><ele>767.9999999999999</ele><time>2026-04-23T14:40:45.502Z</time></trkpt><trkpt lat="39.8352667" lon="9.1673017"><ele>768.0</ele><time>2026-04-23T14:40:46.502Z</time></trkpt><trkpt lat="39.8352217" lon="9.1672417"><ele>768.0</ele><time>2026-04-23T14:40:47.501Z</time></trkpt><trkpt lat="39.8351667" lon="9.1671917"><ele>768.0</ele><time>2026-04-23T14:40:48.5Z</time></trkpt><trkpt lat="39.8351" lon="9.1671633"><ele>768.0</ele><time>2026-04-23T14:40:49.5Z</time></trkpt><trkpt lat="39.8350317" lon="9.1671567"><ele>767.9999999999999</ele><time>2026-04-23T14:40:50.5Z</time></trkpt><trkpt lat="39.83496" lon="9.1671667"><ele>768.0</ele><time>2026-04-23T14:40:51.5Z</time></trkpt><trkpt lat="39.8348767" lon="9.167185"><ele>768.1666666666666</ele><time>2026-04-23T14:40:52.5Z</time></trkpt><trkpt lat="39.8347933" lon="9.1672033"><ele>768.3333333333333</ele><time>2026-04-23T14:40:53.501Z</time></trkpt><trkpt lat="39.8347083" lon="9.1672433"><ele>768.5</ele><time>2026-04-23T14:40:54.501Z</time></trkpt><trkpt lat="39.834625" lon="9.16728"><ele>768.6666666666666</ele><time>2026-04-23T14:40:55.5Z</time></trkpt><trkpt lat="39.834535" lon="9.16731"><ele>768.8333333333333</ele><time>2026-04-23T14:40:56.5Z</time></trkpt><trkpt lat="39.8344483" lon="9.1673367"><ele>769.0</ele><time>2026-04-23T14:40:57.501Z</time></trkpt><trkpt lat="39.8343583" lon="9.16735"><ele>769.8000000000001</ele><time>2026-04-23T14:40:58.5Z</time></trkpt><trkpt lat="39.8342667" lon="9.16738"><ele>770.6</ele><time>2026-04-23T14:40:59.5Z</time></trkpt><trkpt lat="39.8341767" lon="9.1674133"><ele>771.4</ele><time>2026-04-23T14:41:00.501Z</time></trkpt><trkpt lat="39.8340833" lon="9.1674483"><ele>772.2</ele><time>2026-04-23T14:41:01.5Z</time></trkpt><trkpt lat="39.8339967" lon="9.16748"><ele>773.0</ele><time>2026-04-23T14:41:02.501Z</time></trkpt><trkpt lat="39.8339033" lon="9.1675017"><ele>773.0000000000001</ele><time>2026-04-23T14:41:03.501Z</time></trkpt><trkpt lat="39.83382" lon="9.1675317"><ele>773.0</ele><time>2026-04-23T14:41:04.501Z</time></trkpt><trkpt lat="39.83374" lon="9.1675483"><ele>773.0</ele><time>2026-04-23T14:41:05.501Z</time></trkpt><trkpt lat="39.8336533" lon="9.1675467"><ele>773.0</ele><time>2026-04-23T14:41:06.501Z</time></trkpt><trkpt lat="39.8335633" lon="9.16753"><ele>773.0000000000001</ele><time>2026-04-23T14:41:07.5Z</time></trkpt><trkpt lat="39.83347" lon="9.16751"><ele>773.0</ele><time>2026-04-23T14:41:08.501Z</time></trkpt><trkpt lat="39.8333667" lon="9.1674867"><ele>773.8</ele><time>2026-04-23T14:41:09.5Z</time></trkpt><trkpt lat="39.8332817" lon="9.16747"><ele>774.5999999999999</ele><time>2026-04-23T14:41:10.501Z</time></trkpt><trkpt lat="39.8332033" lon="9.1674583"><ele>775.4000000000001</ele><time>2026-04-23T14:41:11.501Z</time></trkpt><trkpt lat="39.8331" lon="9.1674367"><ele>776.2</ele><time>2026-04-23T14:41:13.501Z</time></trkpt><trkpt lat="39.8330283" lon="9.16737"><ele>777.0</ele><time>2026-04-23T14:41:15.501Z</time></trkpt><trkpt lat="39.8329967" lon="9.1672233"><ele>778.3333333333334</ele><time>2026-04-23T14:41:17.501Z</time></trkpt><trkpt lat="39.8329933" lon="9.1671133"><ele>779.6666666666667</ele><time>2026-04-23T14:41:18.5Z</time></trkpt><trkpt lat="39.8329917" lon="9.166995"><ele>781.0</ele><time>2026-04-23T14:41:19.5Z</time></trkpt><trkpt lat="39.8329883" lon="9.16689"><ele>782.3333333333334</ele><time>2026-04-23T14:41:20.501Z</time></trkpt><trkpt lat="39.8329833" lon="9.1667883"><ele>783.6666666666667</ele><time>2026-04-23T14:41:21.5Z</time></trkpt><trkpt lat="39.8329783" lon="9.1666883"><ele>785.0</ele><time>2026-04-23T14:41:22.5Z</time></trkpt><trkpt lat="39.832965" lon="9.1665933"><ele>784.4</ele><time>2026-04-23T14:41:23.501Z</time></trkpt><trkpt lat="39.83295" lon="9.1664967"><ele>783.8</ele><time>2026-04-23T14:41:24.501Z</time></trkpt><trkpt lat="39.8329217" lon="9.1663417"><ele>783.2</ele><time>2026-04-23T14:41:26.5Z</time></trkpt><trkpt lat="39.8328333" lon="9.1662483"><ele>782.6</ele><time>2026-04-23T14:41:28.501Z</time></trkpt><trkpt lat="39.8327217" lon="9.1662467"><ele>782.0</ele><time>2026-04-23T14:41:30.501Z</time></trkpt><trkpt lat="39.8326" lon="9.1662417"><ele>782.0000000000001</ele><time>2026-04-23T14:41:32.501Z</time></trkpt><trkpt lat="39.832535" lon="9.1662117"><ele>782.0</ele><time>2026-04-23T14:41:33.501Z</time></trkpt><trkpt lat="39.8324633" lon="9.1661683"><ele>782.0</ele><time>2026-04-23T14:41:34.5Z</time></trkpt><trkpt lat="39.8323883" lon="9.16612"><ele>782.0</ele><time>2026-04-23T14:41:35.5Z</time></trkpt><trkpt lat="39.8323283" lon="9.1660733"><ele>782.0000000000001</ele><time>2026-04-23T14:41:36.501Z</time></trkpt><trkpt lat="39.83223" lon="9.16604"><ele>782.0</ele><time>2026-04-23T14:41:38.5Z</time></trkpt><trkpt lat="39.8321617" lon="9.1661117"><ele>782.0000000000001</ele><time>2026-04-23T14:41:40.5Z</time></trkpt><trkpt lat="39.8321583" lon="9.166275"><ele>782.0</ele><time>2026-04-23T14:41:42.501Z</time></trkpt><trkpt lat="39.8321717" lon="9.1663683"><ele>782.0</ele><time>2026-04-23T14:41:43.501Z</time></trkpt><trkpt lat="39.83218" lon="9.1664633"><ele>782.0</ele><time>2026-04-23T14:41:44.501Z</time></trkpt><trkpt lat="39.832185" lon="9.1665617"><ele>782.0000000000001</ele><time>2026-04-23T14:41:45.5Z</time></trkpt><trkpt lat="39.8321833" lon="9.16665"><ele>782.0</ele><time>2026-04-23T14:41:46.5Z</time></trkpt><trkpt lat="39.8321583" lon="9.1668033"><ele>780.1666666666667</ele><time>2026-04-23T14:41:48.501Z</time></trkpt><trkpt lat="39.8321233" lon="9.16688"><ele>778.3333333333334</ele><time>2026-04-23T14:41:49.501Z</time></trkpt><trkpt lat="39.8320833" lon="9.166965"><ele>776.5</ele><time>2026-04-23T14:41:50.5Z</time></trkpt><trkpt lat="39.8320467" lon="9.1670567"><ele>774.6666666666667</ele><time>2026-04-23T14:41:51.5Z</time></trkpt><trkpt lat="39.8320133" lon="9.1671533"><ele>772.8333333333334</ele><time>2026-04-23T14:41:52.501Z</time></trkpt><trkpt lat="39.8319833" lon="9.16725"><ele>771.0</ele><time>2026-04-23T14:41:53.501Z</time></trkpt><trkpt lat="39.8319567" lon="9.16734"><ele>771.6666666666666</ele><time>2026-04-23T14:41:54.5Z</time></trkpt><trkpt lat="39.831935" lon="9.1674183"><ele>772.3333333333333</ele><time>2026-04-23T14:41:55.501Z</time></trkpt><trkpt lat="39.8319033" lon="9.16749"><ele>773.0</ele><time>2026-04-23T14:41:56.501Z</time></trkpt><trkpt lat="39.8318283" lon="9.167605"><ele>773.6666666666666</ele><time>2026-04-23T14:41:58.5Z</time></trkpt><trkpt lat="39.8317983" lon="9.1677133"><ele>774.3333333333333</ele><time>2026-04-23T14:42:00.5Z</time></trkpt><trkpt lat="39.8318483" lon="9.16782"><ele>775.0</ele><time>2026-04-23T14:42:02.501Z</time></trkpt><trkpt lat="39.831945" lon="9.167905"><ele>773.2857142857142</ele><time>2026-04-23T14:42:04.501Z</time></trkpt><trkpt lat="39.8319967" lon="9.1679583"><ele>771.5714285714286</ele><time>2026-04-23T14:42:05.501Z</time></trkpt><trkpt lat="39.8320417" lon="9.1680217"><ele>769.8571428571429</ele><time>2026-04-23T14:42:06.5Z</time></trkpt><trkpt lat="39.83208" lon="9.1680933"><ele>768.1428571428571</ele><time>2026-04-23T14:42:07.501Z</time></trkpt><trkpt lat="39.8321117" lon="9.1681767"><ele>766.4285714285714</ele><time>2026-04-23T14:42:08.501Z</time></trkpt><trkpt lat="39.832145" lon="9.1682717"><ele>764.7142857142857</ele><time>2026-04-23T14:42:09.501Z</time></trkpt><trkpt lat="39.8321833" lon="9.168365"><ele>763.0</ele><time>2026-04-23T14:42:10.501Z</time></trkpt><trkpt lat="39.832215" lon="9.1684467"><ele>762.0</ele><time>2026-04-23T14:42:11.5Z</time></trkpt><trkpt lat="39.8322367" lon="9.1685283"><ele>761.0</ele><time>2026-04-23T14:42:12.5Z</time></trkpt><trkpt lat="39.8322467" lon="9.168675"><ele>760.0</ele><time>2026-04-23T14:42:14.501Z</time></trkpt><trkpt lat="39.8322183" lon="9.168825"><ele>759.0</ele><time>2026-04-23T14:42:16.5Z</time></trkpt><trkpt lat="39.8321867" lon="9.1689117"><ele>758.0</ele><time>2026-04-23T14:42:17.501Z</time></trkpt><trkpt lat="39.8321433" lon="9.1690017"><ele>757.5999999999999</ele><time>2026-04-23T14:42:18.501Z</time></trkpt><trkpt lat="39.8320983" lon="9.1691033"><ele>757.1999999999999</ele><time>2026-04-23T14:42:19.501Z</time></trkpt><trkpt lat="39.832055" lon="9.1692033"><ele>756.8</ele><time>2026-04-23T14:42:20.501Z</time></trkpt><trkpt lat="39.83202" lon="9.169295"><ele>756.4</ele><time>2026-04-23T14:42:21.5Z</time></trkpt><trkpt lat="39.8319867" lon="9.169375"><ele>756.0</ele><time>2026-04-23T14:42:22.5Z</time></trkpt><trkpt lat="39.831925" lon="9.1695233"><ele>756.0</ele><time>2026-04-23T14:42:24.501Z</time></trkpt><trkpt lat="39.8318933" lon="9.1696017"><ele>756.0</ele><time>2026-04-23T14:42:25.501Z</time></trkpt><trkpt lat="39.8318633" lon="9.16969"><ele>756.0</ele><time>2026-04-23T14:42:26.501Z</time></trkpt><trkpt lat="39.831835" lon="9.1697733"><ele>756.0</ele><time>2026-04-23T14:42:27.5Z</time></trkpt><trkpt lat="39.8318117" lon="9.16985"><ele>756.0</ele><time>2026-04-23T14:42:28.5Z</time></trkpt><trkpt lat="39.831795" lon="9.1700183"><ele>756.0</ele><time>2026-04-23T14:42:30.501Z</time></trkpt><trkpt lat="39.8318017" lon="9.170105"><ele>754.5</ele><time>2026-04-23T14:42:31.501Z</time></trkpt><trkpt lat="39.831815" lon="9.1702017"><ele>753.0</ele><time>2026-04-23T14:42:32.5Z</time></trkpt><trkpt lat="39.8318283" lon="9.1702967"><ele>751.5</ele><time>2026-04-23T14:42:33.5Z</time></trkpt><trkpt lat="39.8318333" lon="9.1704033"><ele>750.0</ele><time>2026-04-23T14:42:34.5Z</time></trkpt><trkpt lat="39.8318233" lon="9.1705117"><ele>748.5</ele><time>2026-04-23T14:42:35.501Z</time></trkpt><trkpt lat="39.8318217" lon="9.1706267"><ele>747.0</ele><time>2026-04-23T14:42:36.5Z</time></trkpt><trkpt lat="39.8318333" lon="9.170755"><ele>745.3333333333334</ele><time>2026-04-23T14:42:37.501Z</time></trkpt><trkpt lat="39.83185" lon="9.1708717"><ele>743.6666666666666</ele><time>2026-04-23T14:42:38.501Z</time></trkpt><trkpt lat="39.831865" lon="9.1709783"><ele>742.0</ele><time>2026-04-23T14:42:39.501Z</time></trkpt><trkpt lat="39.831875" lon="9.171075"><ele>740.3333333333333</ele><time>2026-04-23T14:42:40.5Z</time></trkpt><trkpt lat="39.831875" lon="9.1711667"><ele>738.6666666666666</ele><time>2026-04-23T14:42:41.5Z</time></trkpt><trkpt lat="39.8318733" lon="9.171255"><ele>737.0</ele><time>2026-04-23T14:42:42.501Z</time></trkpt><trkpt lat="39.83186" lon="9.1713367"><ele>739.8333333333333</ele><time>2026-04-23T14:42:43.501Z</time></trkpt><trkpt lat="39.8317867" lon="9.1714633"><ele>742.6666666666666</ele><time>2026-04-23T14:42:45.5Z</time></trkpt><trkpt lat="39.8317317" lon="9.1715067"><ele>745.5</ele><time>2026-04-23T14:42:46.5Z</time></trkpt><trkpt lat="39.8316617" lon="9.1715383"><ele>748.3333333333334</ele><time>2026-04-23T14:42:47.5Z</time></trkpt><trkpt lat="39.8315767" lon="9.171575"><ele>751.1666666666667</ele><time>2026-04-23T14:42:48.501Z</time></trkpt><trkpt lat="39.831485" lon="9.1716217"><ele>754.0</ele><time>2026-04-23T14:42:49.501Z</time></trkpt><trkpt lat="39.8313867" lon="9.17168"><ele>754.0</ele><time>2026-04-23T14:42:50.501Z</time></trkpt><trkpt lat="39.8312983" lon="9.17175"><ele>754.0</ele><time>2026-04-23T14:42:51.501Z</time></trkpt><trkpt lat="39.831225" lon="9.1718217"><ele>754.0</ele><time>2026-04-23T14:42:52.5Z</time></trkpt><trkpt lat="39.8311617" lon="9.1719"><ele>754.0</ele><time>2026-04-23T14:42:53.5Z</time></trkpt><trkpt lat="39.8311" lon="9.1719767"><ele>754.0</ele><time>2026-04-23T14:42:54.501Z</time></trkpt><trkpt lat="39.8310383" lon="9.1720417"><ele>754.0</ele><time>2026-04-23T14:42:55.501Z</time></trkpt><trkpt lat="39.8309683" lon="9.1721"><ele>756.3333333333334</ele><time>2026-04-23T14:42:56.501Z</time></trkpt><trkpt lat="39.8308967" lon="9.1721417"><ele>758.6666666666667</ele><time>2026-04-23T14:42:57.501Z</time></trkpt><trkpt lat="39.830815" lon="9.172165"><ele>761.0</ele><time>2026-04-23T14:42:58.501Z</time></trkpt><trkpt lat="39.8307267" lon="9.172185"><ele>763.3333333333334</ele><time>2026-04-23T14:42:59.501Z</time></trkpt><trkpt lat="39.830645" lon="9.1721917"><ele>765.6666666666666</ele><time>2026-04-23T14:43:00.501Z</time></trkpt><trkpt lat="39.8305783" lon="9.1721867"><ele>768.0</ele><time>2026-04-23T14:43:01.501Z</time></trkpt><trkpt lat="39.8304817" lon="9.1722333"><ele>765.3333333333334</ele><time>2026-04-23T14:43:03.501Z</time></trkpt><trkpt lat="39.830445" lon="9.1723633"><ele>762.6666666666666</ele><time>2026-04-23T14:43:05.501Z</time></trkpt><trkpt lat="39.8304467" lon="9.17245"><ele>760.0</ele><time>2026-04-23T14:43:06.5Z</time></trkpt><trkpt lat="39.8304567" lon="9.172545"><ele>757.3333333333333</ele><time>2026-04-23T14:43:07.5Z</time></trkpt><trkpt lat="39.83047" lon="9.1726383"><ele>754.6666666666666</ele><time>2026-04-23T14:43:08.5Z</time></trkpt><trkpt lat="39.83049" lon="9.1727383"><ele>752.0</ele><time>2026-04-23T14:43:09.501Z</time></trkpt><trkpt lat="39.83052" lon="9.1728433"><ele>752.0</ele><time>2026-04-23T14:43:10.501Z</time></trkpt><trkpt lat="39.8305517" lon="9.1729517"><ele>752.0</ele><time>2026-04-23T14:43:11.5Z</time></trkpt><trkpt lat="39.8305867" lon="9.1730617"><ele>752.0</ele><time>2026-04-23T14:43:12.501Z</time></trkpt><trkpt lat="39.830615" lon="9.1731717"><ele>752.0</ele><time>2026-04-23T14:43:13.5Z</time></trkpt><trkpt lat="39.8306367" lon="9.173285"><ele>752.0</ele><time>2026-04-23T14:43:14.5Z</time></trkpt><trkpt lat="39.8306517" lon="9.17339"><ele>752.0</ele><time>2026-04-23T14:43:15.5Z</time></trkpt><trkpt lat="39.83067" lon="9.1735283"><ele>752.8333333333333</ele><time>2026-04-23T14:43:17.501Z</time></trkpt><trkpt lat="39.83069" lon="9.173625"><ele>753.6666666666666</ele><time>2026-04-23T14:43:19.5Z</time></trkpt><trkpt lat="39.83067" lon="9.1737533"><ele>754.5</ele><time>2026-04-23T14:43:21.5Z</time></trkpt><trkpt lat="39.8306183" lon="9.17382"><ele>755.3333333333334</ele><time>2026-04-23T14:43:22.501Z</time></trkpt><trkpt lat="39.8305533" lon="9.1738883"><ele>756.1666666666667</ele><time>2026-04-23T14:43:23.5Z</time></trkpt><trkpt lat="39.8304783" lon="9.1739533"><ele>757.0</ele><time>2026-04-23T14:43:24.5Z</time></trkpt><trkpt lat="39.8304033" lon="9.1740167"><ele>758.2</ele><time>2026-04-23T14:43:25.5Z</time></trkpt><trkpt lat="39.8303267" lon="9.1740833"><ele>759.4000000000001</ele><time>2026-04-23T14:43:26.501Z</time></trkpt><trkpt lat="39.830255" lon="9.17416"><ele>760.5999999999999</ele><time>2026-04-23T14:43:27.5Z</time></trkpt><trkpt lat="39.830195" lon="9.174255"><ele>761.8</ele><time>2026-04-23T14:43:28.501Z</time></trkpt><trkpt lat="39.830145" lon="9.1743633"><ele>763.0</ele><time>2026-04-23T14:43:29.5Z</time></trkpt><trkpt lat="39.8301017" lon="9.174485"><ele>763.0</ele><time>2026-04-23T14:43:30.501Z</time></trkpt><trkpt lat="39.830055" lon="9.174605"><ele>763.0</ele><time>2026-04-23T14:43:31.5Z</time></trkpt><trkpt lat="39.8300033" lon="9.1747167"><ele>763.0</ele><time>2026-04-23T14:43:32.501Z</time></trkpt><trkpt lat="39.8299433" lon="9.174825"><ele>763.0</ele><time>2026-04-23T14:43:33.501Z</time></trkpt><trkpt lat="39.829885" lon="9.17493"><ele>763.0</ele><time>2026-04-23T14:43:34.5Z</time></trkpt><trkpt lat="39.829825" lon="9.175035"><ele>761.6666666666667</ele><time>2026-04-23T14:43:35.5Z</time></trkpt><trkpt lat="39.8297583" lon="9.175125"><ele>760.3333333333334</ele><time>2026-04-23T14:43:36.5Z</time></trkpt><trkpt lat="39.8296933" lon="9.1752033"><ele>759.0</ele><time>2026-04-23T14:43:37.501Z</time></trkpt><trkpt lat="39.8296267" lon="9.1752717"><ele>757.6666666666666</ele><time>2026-04-23T14:43:38.501Z</time></trkpt><trkpt lat="39.8295567" lon="9.1753283"><ele>756.3333333333333</ele><time>2026-04-23T14:43:39.5Z</time></trkpt><trkpt lat="39.8294817" lon="9.1753867"><ele>755.0</ele><time>2026-04-23T14:43:40.5Z</time></trkpt><trkpt lat="39.8294017" lon="9.175435"><ele>755.0</ele><time>2026-04-23T14:43:41.5Z</time></trkpt><trkpt lat="39.829315" lon="9.1754683"><ele>755.0</ele><time>2026-04-23T14:43:42.5Z</time></trkpt><trkpt lat="39.8292283" lon="9.1754967"><ele>755.0</ele><time>2026-04-23T14:43:43.501Z</time></trkpt><trkpt lat="39.82915" lon="9.1755333"><ele>755.0</ele><time>2026-04-23T14:43:44.501Z</time></trkpt><trkpt lat="39.8290817" lon="9.1755717"><ele>755.0</ele><time>2026-04-23T14:43:45.501Z</time></trkpt><trkpt lat="39.8290233" lon="9.175615"><ele>755.0</ele><time>2026-04-23T14:43:46.5Z</time></trkpt><trkpt lat="39.8289733" lon="9.1756733"><ele>754.0</ele><time>2026-04-23T14:43:47.501Z</time></trkpt><trkpt lat="39.82893" lon="9.1757383"><ele>753.0</ele><time>2026-04-23T14:43:48.501Z</time></trkpt><trkpt lat="39.8288933" lon="9.1758317"><ele>752.0</ele><time>2026-04-23T14:43:49.5Z</time></trkpt><trkpt lat="39.8288667" lon="9.1759417"><ele>751.0</ele><time>2026-04-23T14:43:50.501Z</time></trkpt><trkpt lat="39.8288333" lon="9.17606"><ele>750.0</ele><time>2026-04-23T14:43:51.501Z</time></trkpt><trkpt lat="39.8287983" lon="9.1761783"><ele>749.0</ele><time>2026-04-23T14:43:52.5Z</time></trkpt><trkpt lat="39.8287633" lon="9.1762933"><ele>749.0</ele><time>2026-04-23T14:43:53.501Z</time></trkpt><trkpt lat="39.828725" lon="9.1764033"><ele>749.0</ele><time>2026-04-23T14:43:54.501Z</time></trkpt><trkpt lat="39.828695" lon="9.1765017"><ele>749.0</ele><time>2026-04-23T14:43:55.5Z</time></trkpt><trkpt lat="39.8286617" lon="9.1766017"><ele>749.0</ele><time>2026-04-23T14:43:56.5Z</time></trkpt><trkpt lat="39.828625" lon="9.1767117"><ele>749.0</ele><time>2026-04-23T14:43:57.501Z</time></trkpt><trkpt lat="39.828585" lon="9.1768333"><ele>748.8000000000001</ele><time>2026-04-23T14:43:58.5Z</time></trkpt><trkpt lat="39.8285483" lon="9.176965"><ele>748.6</ele><time>2026-04-23T14:43:59.501Z</time></trkpt><trkpt lat="39.828505" lon="9.17709"><ele>748.4</ele><time>2026-04-23T14:44:00.5Z</time></trkpt><trkpt lat="39.8284633" lon="9.1772167"><ele>748.2</ele><time>2026-04-23T14:44:01.5Z</time></trkpt><trkpt lat="39.8284217" lon="9.1773367"><ele>748.0</ele><time>2026-04-23T14:44:02.501Z</time></trkpt><trkpt lat="39.8283817" lon="9.1774467"><ele>746.4</ele><time>2026-04-23T14:44:03.501Z</time></trkpt><trkpt lat="39.82835" lon="9.1775633"><ele>744.8</ele><time>2026-04-23T14:44:04.501Z</time></trkpt><trkpt lat="39.82831" lon="9.1776783"><ele>743.2</ele><time>2026-04-23T14:44:05.5Z</time></trkpt><trkpt lat="39.8282767" lon="9.17779"><ele>741.6</ele><time>2026-04-23T14:44:06.5Z</time></trkpt><trkpt lat="39.8282467" lon="9.1779"><ele>740.0</ele><time>2026-04-23T14:44:07.501Z</time></trkpt><trkpt lat="39.8282183" lon="9.1780083"><ele>740.0</ele><time>2026-04-23T14:44:08.501Z</time></trkpt><trkpt lat="39.8282033" lon="9.1780933"><ele>740.0</ele><time>2026-04-23T14:44:09.501Z</time></trkpt><trkpt lat="39.8281767" lon="9.1781717"><ele>740.0</ele><time>2026-04-23T14:44:10.501Z</time></trkpt><trkpt lat="39.8281" lon="9.178285"><ele>740.0</ele><time>2026-04-23T14:44:12.5Z</time></trkpt><trkpt lat="39.828045" lon="9.1783617"><ele>740.0</ele><time>2026-04-23T14:44:14.501Z</time></trkpt><trkpt lat="39.828" lon="9.1784817"><ele>740.0</ele><time>2026-04-23T14:44:17.501Z</time></trkpt><trkpt lat="39.8279667" lon="9.1786017"><ele>738.6666666666666</ele><time>2026-04-23T14:44:19.5Z</time></trkpt><trkpt lat="39.8279117" lon="9.1786967"><ele>737.3333333333333</ele><time>2026-04-23T14:44:21.5Z</time></trkpt><trkpt lat="39.8278683" lon="9.17877"><ele>736.0</ele><time>2026-04-23T14:44:23.501Z</time></trkpt><trkpt lat="39.8278217" lon="9.1788617"><ele>734.6666666666666</ele><time>2026-04-23T14:44:26.5Z</time></trkpt><trkpt lat="39.8278017" lon="9.1789567"><ele>733.3333333333334</ele><time>2026-04-23T14:44:29.5Z</time></trkpt><trkpt lat="39.8277833" lon="9.1790833"><ele>732.0</ele><time>2026-04-23T14:44:32.5Z</time></trkpt><trkpt lat="39.8277617" lon="9.1791967"><ele>732.1666666666666</ele><time>2026-04-23T14:44:34.501Z</time></trkpt><trkpt lat="39.8277333" lon="9.17931"><ele>732.3333333333334</ele><time>2026-04-23T14:44:36.501Z</time></trkpt><trkpt lat="39.8277117" lon="9.1793933"><ele>732.5</ele><time>2026-04-23T14:44:38.501Z</time></trkpt><trkpt lat="39.82768" lon="9.1794867"><ele>732.6666666666667</ele><time>2026-04-23T14:44:41.501Z</time></trkpt><trkpt lat="39.8276217" lon="9.1795817"><ele>732.8333333333334</ele><time>2026-04-23T14:44:44.501Z</time></trkpt><trkpt lat="39.82755" lon="9.1796217"><ele>733.0</ele><time>2026-04-23T14:44:46.5Z</time></trkpt><trkpt lat="39.8275667" lon="9.1794917"><ele>733.0</ele><time>2026-04-23T14:44:50.5Z</time></trkpt><trkpt lat="39.8276" lon="9.179345"><ele>733.0</ele><time>2026-04-23T14:44:52.501Z</time></trkpt><trkpt lat="39.8276217" lon="9.1792633"><ele>733.0</ele><time>2026-04-23T14:44:53.5Z</time></trkpt><trkpt lat="39.827655" lon="9.179135"><ele>733.0</ele><time>2026-04-23T14:44:55.5Z</time></trkpt><trkpt lat="39.8276817" lon="9.1790433"><ele>733.0</ele><time>2026-04-23T14:44:57.5Z</time></trkpt><trkpt lat="39.82772" lon="9.1789583"><ele>733.0</ele><time>2026-04-23T14:45:00.501Z</time></trkpt><trkpt lat="39.82777" lon="9.1788483"><ele>732.8571428571428</ele><time>2026-04-23T14:45:12.5Z</time></trkpt><trkpt lat="39.8278033" lon="9.1787417"><ele>732.7142857142857</ele><time>2026-04-23T14:45:14.501Z</time></trkpt><trkpt lat="39.827835" lon="9.1786667"><ele>732.5714285714286</ele><time>2026-04-23T14:45:16.5Z</time></trkpt><trkpt lat="39.8278017" lon="9.178595"><ele>732.4285714285713</ele><time>2026-04-23T14:50:59.501Z</time></trkpt><trkpt lat="39.82774" lon="9.1785783"><ele>732.2857142857143</ele><time>2026-04-23T14:54:11.5Z</time></trkpt><trkpt lat="39.8277083" lon="9.17867"><ele>732.1428571428571</ele><time>2026-04-23T14:54:15.501Z</time></trkpt><trkpt lat="39.8276483" lon="9.1787317"><ele>732.0</ele><time>2026-04-23T14:54:18.5Z</time></trkpt><trkpt lat="39.827565" lon="9.17871"><ele>732.8333333333334</ele><time>2026-04-23T14:54:21.5Z</time></trkpt><trkpt lat="39.8275033" lon="9.17867"><ele>733.6666666666666</ele><time>2026-04-23T14:54:23.501Z</time></trkpt><trkpt lat="39.8274483" lon="9.1786233"><ele>734.5</ele><time>2026-04-23T14:54:25.501Z</time></trkpt><trkpt lat="39.8273533" lon="9.1785383"><ele>735.3333333333333</ele><time>2026-04-23T14:54:27.5Z</time></trkpt><trkpt lat="39.827295" lon="9.1784983"><ele>736.1666666666666</ele><time>2026-04-23T14:54:28.501Z</time></trkpt><trkpt lat="39.827205" lon="9.178435"><ele>737.0</ele><time>2026-04-23T14:54:30.501Z</time></trkpt><trkpt lat="39.8271017" lon="9.17836"><ele>737.0000000000001</ele><time>2026-04-23T14:54:32.5Z</time></trkpt><trkpt lat="39.8270383" lon="9.1783267"><ele>737.0</ele><time>2026-04-23T14:54:33.5Z</time></trkpt><trkpt lat="39.82697" lon="9.17829"><ele>737.0</ele><time>2026-04-23T14:54:34.501Z</time></trkpt><trkpt lat="39.8269067" lon="9.1782567"><ele>737.0</ele><time>2026-04-23T14:54:35.5Z</time></trkpt><trkpt lat="39.8268317" lon="9.178235"><ele>737.0</ele><time>2026-04-23T14:54:36.5Z</time></trkpt><trkpt lat="39.826755" lon="9.17821"><ele>737.0000000000001</ele><time>2026-04-23T14:54:37.501Z</time></trkpt><trkpt lat="39.8266817" lon="9.1781983"><ele>737.0</ele><time>2026-04-23T14:54:38.501Z</time></trkpt><trkpt lat="39.826605" lon="9.1781833"><ele>736.5</ele><time>2026-04-23T14:54:39.5Z</time></trkpt><trkpt lat="39.8265267" lon="9.1781867"><ele>736.0</ele><time>2026-04-23T14:54:40.501Z</time></trkpt><trkpt lat="39.8264417" lon="9.1781983"><ele>735.5</ele><time>2026-04-23T14:54:41.501Z</time></trkpt><trkpt lat="39.82635" lon="9.17821"><ele>735.0</ele><time>2026-04-23T14:54:42.5Z</time></trkpt><trkpt lat="39.82626" lon="9.1782217"><ele>734.5</ele><time>2026-04-23T14:54:43.501Z</time></trkpt><trkpt lat="39.8261667" lon="9.1782217"><ele>734.0</ele><time>2026-04-23T14:54:44.501Z</time></trkpt><trkpt lat="39.8260633" lon="9.1782083"><ele>735.1666666666666</ele><time>2026-04-23T14:54:45.5Z</time></trkpt><trkpt lat="39.825965" lon="9.1782"><ele>736.3333333333333</ele><time>2026-04-23T14:54:46.5Z</time></trkpt><trkpt lat="39.8258767" lon="9.1781933"><ele>737.5</ele><time>2026-04-23T14:54:47.501Z</time></trkpt><trkpt lat="39.8257917" lon="9.1781767"><ele>738.6666666666666</ele><time>2026-04-23T14:54:48.5Z</time></trkpt><trkpt lat="39.8257183" lon="9.1781733"><ele>739.8333333333334</ele><time>2026-04-23T14:54:49.5Z</time></trkpt><trkpt lat="39.8256467" lon="9.178175"><ele>741.0</ele><time>2026-04-23T14:54:50.501Z</time></trkpt><trkpt lat="39.82558" lon="9.1781917"><ele>741.0</ele><time>2026-04-23T14:54:51.501Z</time></trkpt><trkpt lat="39.8254917" lon="9.1782733"><ele>741.0</ele><time>2026-04-23T14:54:53.5Z</time></trkpt><trkpt lat="39.8254033" lon="9.17841"><ele>741.0</ele><time>2026-04-23T14:54:55.501Z</time></trkpt><trkpt lat="39.8253533" lon="9.1784967"><ele>741.0</ele><time>2026-04-23T14:54:56.501Z</time></trkpt><trkpt lat="39.825285" lon="9.1785767"><ele>741.0</ele><time>2026-04-23T14:54:57.5Z</time></trkpt><trkpt lat="39.8252133" lon="9.1786467"><ele>742.1666666666666</ele><time>2026-04-23T14:54:58.5Z</time></trkpt><trkpt lat="39.825145" lon="9.178705"><ele>743.3333333333334</ele><time>2026-04-23T14:54:59.5Z</time></trkpt><trkpt lat="39.82509" lon="9.1787667"><ele>744.5</ele><time>2026-04-23T14:55:00.501Z</time></trkpt><trkpt lat="39.8250433" lon="9.1788217"><ele>745.6666666666667</ele><time>2026-04-23T14:55:01.501Z</time></trkpt><trkpt lat="39.8250083" lon="9.1788917"><ele>746.8333333333334</ele><time>2026-04-23T14:55:02.5Z</time></trkpt><trkpt lat="39.824985" lon="9.1789683"><ele>748.0</ele><time>2026-04-23T14:55:03.501Z</time></trkpt><trkpt lat="39.8249783" lon="9.179125"><ele>748.0</ele><time>2026-04-23T14:55:05.5Z</time></trkpt><trkpt lat="39.8250133" lon="9.1792083"><ele>748.0</ele><time>2026-04-23T14:55:06.501Z</time></trkpt><trkpt lat="39.8250617" lon="9.17928"><ele>748.0</ele><time>2026-04-23T14:55:07.501Z</time></trkpt><trkpt lat="39.8251283" lon="9.1793933"><ele>748.0</ele><time>2026-04-23T14:55:09.501Z</time></trkpt><trkpt lat="39.8251267" lon="9.179535"><ele>748.0</ele><time>2026-04-23T14:55:11.5Z</time></trkpt><trkpt lat="39.8251033" lon="9.1796233"><ele>748.0</ele><time>2026-04-23T14:55:12.5Z</time></trkpt><trkpt lat="39.825075" lon="9.1797233"><ele>748.0</ele><time>2026-04-23T14:55:13.501Z</time></trkpt><trkpt lat="39.82505" lon="9.1798217"><ele>748.0</ele><time>2026-04-23T14:55:14.501Z</time></trkpt><trkpt lat="39.82503" lon="9.1799083"><ele>748.0</ele><time>2026-04-23T14:55:15.501Z</time></trkpt><trkpt lat="39.825035" lon="9.1800383"><ele>748.0</ele><time>2026-04-23T14:55:17.5Z</time></trkpt><trkpt lat="39.8250883" lon="9.18018"><ele>748.0</ele><time>2026-04-23T14:55:19.501Z</time></trkpt><trkpt lat="39.825135" lon="9.1802483"><ele>748.0</ele><time>2026-04-23T14:55:20.5Z</time></trkpt><trkpt lat="39.825195" lon="9.180315"><ele>747.3333333333334</ele><time>2026-04-23T14:55:21.5Z</time></trkpt><trkpt lat="39.8252517" lon="9.18037"><ele>746.6666666666667</ele><time>2026-04-23T14:55:22.501Z</time></trkpt><trkpt lat="39.8253133" lon="9.18044"><ele>746.0</ele><time>2026-04-23T14:55:23.5Z</time></trkpt><trkpt lat="39.825365" lon="9.1805167"><ele>745.3333333333334</ele><time>2026-04-23T14:55:24.501Z</time></trkpt><trkpt lat="39.8254167" lon="9.18062"><ele>744.6666666666666</ele><time>2026-04-23T14:55:25.5Z</time></trkpt><trkpt lat="39.8254633" lon="9.180715"><ele>744.0</ele><time>2026-04-23T14:55:26.501Z</time></trkpt><trkpt lat="39.82551" lon="9.1808217"><ele>744.0</ele><time>2026-04-23T14:55:27.5Z</time></trkpt><trkpt lat="39.8255533" lon="9.1809233"><ele>744.0</ele><time>2026-04-23T14:55:28.501Z</time></trkpt><trkpt lat="39.8256" lon="9.1810233"><ele>744.0</ele><time>2026-04-23T14:55:29.501Z</time></trkpt><trkpt lat="39.8256367" lon="9.1811217"><ele>744.0</ele><time>2026-04-23T14:55:30.501Z</time></trkpt><trkpt lat="39.82567" lon="9.181235"><ele>744.0</ele><time>2026-04-23T14:55:31.501Z</time></trkpt><trkpt lat="39.8256917" lon="9.181365"><ele>744.0</ele><time>2026-04-23T14:55:32.501Z</time></trkpt><trkpt lat="39.8257017" lon="9.18149"><ele>744.0</ele><time>2026-04-23T14:55:33.5Z</time></trkpt><trkpt lat="39.825705" lon="9.1816167"><ele>744.0</ele><time>2026-04-23T14:55:34.501Z</time></trkpt><trkpt lat="39.8257083" lon="9.1817383"><ele>744.0</ele><time>2026-04-23T14:55:35.5Z</time></trkpt><trkpt lat="39.8257083" lon="9.18185"><ele>744.0</ele><time>2026-04-23T14:55:36.5Z</time></trkpt><trkpt lat="39.8257033" lon="9.1819783"><ele>745.0</ele><time>2026-04-23T14:55:37.5Z</time></trkpt><trkpt lat="39.8256983" lon="9.182105"><ele>746.0</ele><time>2026-04-23T14:55:38.501Z</time></trkpt><trkpt lat="39.8256833" lon="9.18224"><ele>747.0</ele><time>2026-04-23T14:55:39.501Z</time></trkpt><trkpt lat="39.8256633" lon="9.18237"><ele>748.0</ele><time>2026-04-23T14:55:40.5Z</time></trkpt><trkpt lat="39.8256383" lon="9.1824967"><ele>749.0</ele><time>2026-04-23T14:55:41.501Z</time></trkpt><trkpt lat="39.82561" lon="9.1826183"><ele>749.2</ele><time>2026-04-23T14:55:42.5Z</time></trkpt><trkpt lat="39.8255783" lon="9.1827383"><ele>749.4000000000001</ele><time>2026-04-23T14:55:43.5Z</time></trkpt><trkpt lat="39.8255433" lon="9.18285"><ele>749.6</ele><time>2026-04-23T14:55:44.501Z</time></trkpt><trkpt lat="39.825505" lon="9.1829667"><ele>749.8</ele><time>2026-04-23T14:55:45.5Z</time></trkpt><trkpt lat="39.82547" lon="9.183085"><ele>750.0</ele><time>2026-04-23T14:55:46.5Z</time></trkpt><trkpt lat="39.8254383" lon="9.18322"><ele>749.6</ele><time>2026-04-23T14:55:47.5Z</time></trkpt><trkpt lat="39.8254017" lon="9.1833467"><ele>749.2</ele><time>2026-04-23T14:55:48.501Z</time></trkpt><trkpt lat="39.8253617" lon="9.1834683"><ele>748.8</ele><time>2026-04-23T14:55:49.5Z</time></trkpt><trkpt lat="39.825325" lon="9.1835933"><ele>748.4</ele><time>2026-04-23T14:55:50.5Z</time></trkpt><trkpt lat="39.825285" lon="9.18371"><ele>748.0</ele><time>2026-04-23T14:55:51.501Z</time></trkpt><trkpt lat="39.8252317" lon="9.18383"><ele>748.0</ele><time>2026-04-23T14:55:52.501Z</time></trkpt><trkpt lat="39.8251817" lon="9.1839433"><ele>748.0</ele><time>2026-04-23T14:55:53.5Z</time></trkpt><trkpt lat="39.82513" lon="9.1840583"><ele>748.0</ele><time>2026-04-23T14:55:54.5Z</time></trkpt><trkpt lat="39.8250667" lon="9.1841683"><ele>748.0</ele><time>2026-04-23T14:55:55.5Z</time></trkpt><trkpt lat="39.82499" lon="9.1842817"><ele>748.0</ele><time>2026-04-23T14:55:56.5Z</time></trkpt><trkpt lat="39.824905" lon="9.1843867"><ele>747.5</ele><time>2026-04-23T14:55:57.5Z</time></trkpt><trkpt lat="39.824825" lon="9.18449"><ele>747.0</ele><time>2026-04-23T14:55:58.501Z</time></trkpt><trkpt lat="39.8247417" lon="9.184605"><ele>746.5</ele><time>2026-04-23T14:55:59.5Z</time></trkpt><trkpt lat="39.8246567" lon="9.18474"><ele>746.0</ele><time>2026-04-23T14:56:00.501Z</time></trkpt><trkpt lat="39.8245817" lon="9.1848867"><ele>746.0</ele><time>2026-04-23T14:56:01.501Z</time></trkpt><trkpt lat="39.824515" lon="9.185035"><ele>746.0</ele><time>2026-04-23T14:56:02.501Z</time></trkpt><trkpt lat="39.8244417" lon="9.18519"><ele>746.0</ele><time>2026-04-23T14:56:03.5Z</time></trkpt><trkpt lat="39.8243817" lon="9.18534"><ele>746.0</ele><time>2026-04-23T14:56:04.5Z</time></trkpt><trkpt lat="39.8243117" lon="9.1854717"><ele>749.5</ele><time>2026-04-23T14:56:05.5Z</time></trkpt><trkpt lat="39.8242367" lon="9.1855883"><ele>753.0</ele><time>2026-04-23T14:56:06.5Z</time></trkpt><trkpt lat="39.8241733" lon="9.1857033"><ele>756.5</ele><time>2026-04-23T14:56:07.5Z</time></trkpt><trkpt lat="39.8240983" lon="9.1858267"><ele>760.0</ele><time>2026-04-23T14:56:08.501Z</time></trkpt><trkpt lat="39.82401" lon="9.185945"><ele>760.0</ele><time>2026-04-23T14:56:09.501Z</time></trkpt><trkpt lat="39.8239233" lon="9.1860617"><ele>760.0</ele><time>2026-04-23T14:56:10.5Z</time></trkpt><trkpt lat="39.8238367" lon="9.18617"><ele>760.0</ele><time>2026-04-23T14:56:11.501Z</time></trkpt><trkpt lat="39.8237583" lon="9.1862583"><ele>760.0</ele><time>2026-04-23T14:56:12.5Z</time></trkpt><trkpt lat="39.8236767" lon="9.1863283"><ele>760.0</ele><time>2026-04-23T14:56:13.501Z</time></trkpt><trkpt lat="39.8235933" lon="9.1863917"><ele>760.0</ele><time>2026-04-23T14:56:14.501Z</time></trkpt><trkpt lat="39.8235117" lon="9.18647"><ele>760.0</ele><time>2026-04-23T14:56:15.5Z</time></trkpt><trkpt lat="39.823435" lon="9.186555"><ele>760.0</ele><time>2026-04-23T14:56:16.5Z</time></trkpt><trkpt lat="39.8233633" lon="9.1866533"><ele>760.0</ele><time>2026-04-23T14:56:17.501Z</time></trkpt><trkpt lat="39.8233" lon="9.1867567"><ele>760.0</ele><time>2026-04-23T14:56:18.501Z</time></trkpt><trkpt lat="39.823235" lon="9.1868433"><ele>759.5</ele><time>2026-04-23T14:56:19.5Z</time></trkpt><trkpt lat="39.82317" lon="9.1869183"><ele>759.0</ele><time>2026-04-23T14:56:20.501Z</time></trkpt><trkpt lat="39.8230967" lon="9.1869733"><ele>758.5</ele><time>2026-04-23T14:56:21.5Z</time></trkpt><trkpt lat="39.82302" lon="9.187005"><ele>758.0</ele><time>2026-04-23T14:56:22.501Z</time></trkpt><trkpt lat="39.8229383" lon="9.1870317"><ele>757.5</ele><time>2026-04-23T14:56:23.501Z</time></trkpt><trkpt lat="39.82286" lon="9.1870717"><ele>757.0</ele><time>2026-04-23T14:56:24.501Z</time></trkpt><trkpt lat="39.8227867" lon="9.1871317"><ele>757.0</ele><time>2026-04-23T14:56:25.5Z</time></trkpt><trkpt lat="39.8227233" lon="9.1871883"><ele>757.0</ele><time>2026-04-23T14:56:26.5Z</time></trkpt><trkpt lat="39.8226633" lon="9.1872533"><ele>757.0</ele><time>2026-04-23T14:56:27.501Z</time></trkpt><trkpt lat="39.8226067" lon="9.187305"><ele>757.0</ele><time>2026-04-23T14:56:28.501Z</time></trkpt><trkpt lat="39.8224983" lon="9.1873483"><ele>757.0</ele><time>2026-04-23T14:56:30.501Z</time></trkpt><trkpt lat="39.8223767" lon="9.1872933"><ele>760.0</ele><time>2026-04-23T14:56:32.5Z</time></trkpt><trkpt lat="39.8223083" lon="9.1872567"><ele>763.0</ele><time>2026-04-23T14:56:33.501Z</time></trkpt><trkpt lat="39.822225" lon="9.1872333"><ele>766.0</ele><time>2026-04-23T14:56:34.501Z</time></trkpt><trkpt lat="39.8221317" lon="9.1872017"><ele>769.0</ele><time>2026-04-23T14:56:35.5Z</time></trkpt><trkpt lat="39.822035" lon="9.187175"><ele>772.0</ele><time>2026-04-23T14:56:36.501Z</time></trkpt><trkpt lat="39.8219333" lon="9.1871467"><ele>771.9999999999999</ele><time>2026-04-23T14:56:37.501Z</time></trkpt><trkpt lat="39.821845" lon="9.187125"><ele>772.0</ele><time>2026-04-23T14:56:38.5Z</time></trkpt><trkpt lat="39.82176" lon="9.187095"><ele>772.0</ele><time>2026-04-23T14:56:39.5Z</time></trkpt><trkpt lat="39.8216817" lon="9.18706"><ele>772.0</ele><time>2026-04-23T14:56:40.5Z</time></trkpt><trkpt lat="39.8216217" lon="9.187035"><ele>771.9999999999999</ele><time>2026-04-23T14:56:41.5Z</time></trkpt><trkpt lat="39.82156" lon="9.18701"><ele>772.0</ele><time>2026-04-23T14:56:42.501Z</time></trkpt><trkpt lat="39.8214533" lon="9.18694"><ele>772.3333333333333</ele><time>2026-04-23T14:56:44.501Z</time></trkpt><trkpt lat="39.8213967" lon="9.186885"><ele>772.6666666666666</ele><time>2026-04-23T14:56:45.501Z</time></trkpt><trkpt lat="39.8213467" lon="9.1868267"><ele>773.0</ele><time>2026-04-23T14:56:46.501Z</time></trkpt><trkpt lat="39.8212933" lon="9.1867683"><ele>773.3333333333333</ele><time>2026-04-23T14:56:47.501Z</time></trkpt><trkpt lat="39.8212533" lon="9.1867033"><ele>773.6666666666666</ele><time>2026-04-23T14:56:48.5Z</time></trkpt><trkpt lat="39.8211883" lon="9.1865583"><ele>774.0</ele><time>2026-04-23T14:56:50.501Z</time></trkpt><trkpt lat="39.8211683" lon="9.1864717"><ele>775.5</ele><time>2026-04-23T14:56:51.501Z</time></trkpt><trkpt lat="39.8211483" lon="9.1863733"><ele>777.0</ele><time>2026-04-23T14:56:52.501Z</time></trkpt><trkpt lat="39.8211167" lon="9.1862833"><ele>778.5</ele><time>2026-04-23T14:56:53.501Z</time></trkpt><trkpt lat="39.82108" lon="9.1862"><ele>780.0</ele><time>2026-04-23T14:56:54.5Z</time></trkpt><trkpt lat="39.8210333" lon="9.1861283"><ele>781.5</ele><time>2026-04-23T14:56:55.501Z</time></trkpt><trkpt lat="39.82094" lon="9.1860517"><ele>783.0</ele><time>2026-04-23T14:56:57.5Z</time></trkpt><trkpt lat="39.8208667" lon="9.18604"><ele>783.0</ele><time>2026-04-23T14:56:58.5Z</time></trkpt><trkpt lat="39.8207417" lon="9.1860617"><ele>783.0</ele><time>2026-04-23T14:57:00.5Z</time></trkpt><trkpt lat="39.820645" lon="9.186135"><ele>783.0</ele><time>2026-04-23T14:57:01.501Z</time></trkpt><trkpt lat="39.82052" lon="9.1862483"><ele>783.0</ele><time>2026-04-23T14:57:02.5Z</time></trkpt><trkpt lat="39.8203767" lon="9.18634"><ele>783.0</ele><time>2026-04-23T14:57:03.501Z</time></trkpt><trkpt lat="39.8202483" lon="9.186405"><ele>783.0</ele><time>2026-04-23T14:57:04.501Z</time></trkpt><trkpt lat="39.820125" lon="9.186455"><ele>783.0</ele><time>2026-04-23T14:57:05.5Z</time></trkpt><trkpt lat="39.820015" lon="9.1864883"><ele>783.0</ele><time>2026-04-23T14:57:06.501Z</time></trkpt><trkpt lat="39.8199183" lon="9.1865167"><ele>780.4</ele><time>2026-04-23T14:57:07.5Z</time></trkpt><trkpt lat="39.81982" lon="9.1865567"><ele>777.8</ele><time>2026-04-23T14:57:08.501Z</time></trkpt><trkpt lat="39.819725" lon="9.18662"><ele>775.2</ele><time>2026-04-23T14:57:09.5Z</time></trkpt><trkpt lat="39.819625" lon="9.1866883"><ele>772.6</ele><time>2026-04-23T14:57:10.5Z</time></trkpt><trkpt lat="39.819535" lon="9.18677"><ele>770.0</ele><time>2026-04-23T14:57:11.501Z</time></trkpt><trkpt lat="39.8194417" lon="9.1868583"><ele>770.0</ele><time>2026-04-23T14:57:12.501Z</time></trkpt><trkpt lat="39.81935" lon="9.1869483"><ele>770.0</ele><time>2026-04-23T14:57:13.501Z</time></trkpt><trkpt lat="39.8192583" lon="9.1870517"><ele>770.0</ele><time>2026-04-23T14:57:14.5Z</time></trkpt><trkpt lat="39.8191583" lon="9.1871583"><ele>770.0</ele><time>2026-04-23T14:57:15.5Z</time></trkpt><trkpt lat="39.81906" lon="9.1872817"><ele>770.5</ele><time>2026-04-23T14:57:16.501Z</time></trkpt><trkpt lat="39.818955" lon="9.1873733"><ele>771.0</ele><time>2026-04-23T14:57:17.501Z</time></trkpt><trkpt lat="39.8188517" lon="9.187475"><ele>771.5</ele><time>2026-04-23T14:57:18.5Z</time></trkpt><trkpt lat="39.8187533" lon="9.1875817"><ele>772.0</ele><time>2026-04-23T14:57:19.501Z</time></trkpt><trkpt lat="39.8186567" lon="9.1876917"><ele>772.0</ele><time>2026-04-23T14:57:20.5Z</time></trkpt><trkpt lat="39.8185617" lon="9.187795"><ele>772.0</ele><time>2026-04-23T14:57:21.501Z</time></trkpt><trkpt lat="39.8184617" lon="9.18789"><ele>772.0</ele><time>2026-04-23T14:57:22.5Z</time></trkpt><trkpt lat="39.8183767" lon="9.1879717"><ele>772.0</ele><time>2026-04-23T14:57:23.5Z</time></trkpt><trkpt lat="39.8182933" lon="9.1880417"><ele>773.6666666666666</ele><time>2026-04-23T14:57:24.501Z</time></trkpt><trkpt lat="39.8182083" lon="9.188095"><ele>775.3333333333333</ele><time>2026-04-23T14:57:25.5Z</time></trkpt><trkpt lat="39.8181283" lon="9.1881517"><ele>777.0</ele><time>2026-04-23T14:57:26.5Z</time></trkpt><trkpt lat="39.8180667" lon="9.1882083"><ele>778.6666666666667</ele><time>2026-04-23T14:57:27.501Z</time></trkpt><trkpt lat="39.8180067" lon="9.1882717"><ele>780.3333333333334</ele><time>2026-04-23T14:57:28.5Z</time></trkpt><trkpt lat="39.8179583" lon="9.188335"><ele>782.0</ele><time>2026-04-23T14:57:29.501Z</time></trkpt><trkpt lat="39.8179167" lon="9.1883983"><ele>782.0000000000001</ele><time>2026-04-23T14:57:30.501Z</time></trkpt><trkpt lat="39.8178717" lon="9.1884567"><ele>782.0</ele><time>2026-04-23T14:57:31.501Z</time></trkpt><trkpt lat="39.81782" lon="9.1885217"><ele>782.0</ele><time>2026-04-23T14:57:32.501Z</time></trkpt><trkpt lat="39.817755" lon="9.1885667"><ele>782.0</ele><time>2026-04-23T14:57:33.5Z</time></trkpt><trkpt lat="39.8176867" lon="9.1886067"><ele>782.0000000000001</ele><time>2026-04-23T14:57:34.5Z</time></trkpt><trkpt lat="39.8176117" lon="9.188645"><ele>782.0</ele><time>2026-04-23T14:57:35.5Z</time></trkpt><trkpt lat="39.81753" lon="9.1886767"><ele>784.6</ele><time>2026-04-23T14:57:36.5Z</time></trkpt><trkpt lat="39.81744" lon="9.188695"><ele>787.2</ele><time>2026-04-23T14:57:37.5Z</time></trkpt><trkpt lat="39.8173517" lon="9.1887017"><ele>789.8</ele><time>2026-04-23T14:57:38.501Z</time></trkpt><trkpt lat="39.8172683" lon="9.1886967"><ele>792.4</ele><time>2026-04-23T14:57:39.5Z</time></trkpt><trkpt lat="39.8171767" lon="9.1887017"><ele>795.0</ele><time>2026-04-23T14:57:40.501Z</time></trkpt><trkpt lat="39.817075" lon="9.188715"><ele>795.0</ele><time>2026-04-23T14:57:41.5Z</time></trkpt><trkpt lat="39.8169733" lon="9.1887333"><ele>795.0</ele><time>2026-04-23T14:57:42.501Z</time></trkpt><trkpt lat="39.8168683" lon="9.18877"><ele>795.0</ele><time>2026-04-23T14:57:43.501Z</time></trkpt><trkpt lat="39.8167667" lon="9.1888267"><ele>795.0</ele><time>2026-04-23T14:57:44.501Z</time></trkpt><trkpt lat="39.8166717" lon="9.1888983"><ele>795.0</ele><time>2026-04-23T14:57:45.5Z</time></trkpt><trkpt lat="39.8165767" lon="9.1889783"><ele>792.8</ele><time>2026-04-23T14:57:46.5Z</time></trkpt><trkpt lat="39.8164983" lon="9.1890567"><ele>790.6</ele><time>2026-04-23T14:57:47.5Z</time></trkpt><trkpt lat="39.81642" lon="9.1891417"><ele>788.4000000000001</ele><time>2026-04-23T14:57:48.501Z</time></trkpt><trkpt lat="39.8163567" lon="9.189245"><ele>786.2</ele><time>2026-04-23T14:57:49.501Z</time></trkpt><trkpt lat="39.81631" lon="9.1893567"><ele>784.0</ele><time>2026-04-23T14:57:50.501Z</time></trkpt><trkpt lat="39.8162583" lon="9.1894633"><ele>784.0</ele><time>2026-04-23T14:57:51.501Z</time></trkpt><trkpt lat="39.8161967" lon="9.18955"><ele>784.0</ele><time>2026-04-23T14:57:52.501Z</time></trkpt><trkpt lat="39.816125" lon="9.1896333"><ele>784.0</ele><time>2026-04-23T14:57:53.5Z</time></trkpt><trkpt lat="39.8160367" lon="9.1897183"><ele>784.0</ele><time>2026-04-23T14:57:54.501Z</time></trkpt><trkpt lat="39.81594" lon="9.18981"><ele>784.0</ele><time>2026-04-23T14:57:55.5Z</time></trkpt><trkpt lat="39.815855" lon="9.18989"><ele>783.4000000000001</ele><time>2026-04-23T14:57:56.5Z</time></trkpt><trkpt lat="39.8157717" lon="9.189975"><ele>782.8</ele><time>2026-04-23T14:57:57.5Z</time></trkpt><trkpt lat="39.81569" lon="9.19005"><ele>782.2</ele><time>2026-04-23T14:57:58.5Z</time></trkpt><trkpt lat="39.815615" lon="9.1901133"><ele>781.5999999999999</ele><time>2026-04-23T14:57:59.501Z</time></trkpt><trkpt lat="39.815535" lon="9.1901667"><ele>781.0</ele><time>2026-04-23T14:58:00.5Z</time></trkpt><trkpt lat="39.8154467" lon="9.1902083"><ele>781.0</ele><time>2026-04-23T14:58:01.501Z</time></trkpt><trkpt lat="39.8153467" lon="9.1902367"><ele>781.0</ele><time>2026-04-23T14:58:02.501Z</time></trkpt><trkpt lat="39.8152467" lon="9.1902733"><ele>781.0</ele><time>2026-04-23T14:58:03.501Z</time></trkpt><trkpt lat="39.8151467" lon="9.1903217"><ele>781.0</ele><time>2026-04-23T14:58:04.5Z</time></trkpt><trkpt lat="39.8150517" lon="9.1903933"><ele>781.0</ele><time>2026-04-23T14:58:05.501Z</time></trkpt><trkpt lat="39.8149567" lon="9.1904583"><ele>783.1999999999999</ele><time>2026-04-23T14:58:06.5Z</time></trkpt><trkpt lat="39.8148783" lon="9.19052"><ele>785.4</ele><time>2026-04-23T14:58:07.5Z</time></trkpt><trkpt lat="39.814795" lon="9.1905733"><ele>787.6</ele><time>2026-04-23T14:58:08.501Z</time></trkpt><trkpt lat="39.8147083" lon="9.1906133"><ele>789.8</ele><time>2026-04-23T14:58:09.5Z</time></trkpt><trkpt lat="39.8146183" lon="9.1906467"><ele>792.0</ele><time>2026-04-23T14:58:10.501Z</time></trkpt><trkpt lat="39.8145267" lon="9.19067"><ele>792.0</ele><time>2026-04-23T14:58:11.501Z</time></trkpt><trkpt lat="39.81442" lon="9.190665"><ele>792.0</ele><time>2026-04-23T14:58:12.501Z</time></trkpt><trkpt lat="39.8143183" lon="9.1906517"><ele>792.0</ele><time>2026-04-23T14:58:13.5Z</time></trkpt><trkpt lat="39.8142267" lon="9.1906283"><ele>792.0</ele><time>2026-04-23T14:58:14.5Z</time></trkpt><trkpt lat="39.8141417" lon="9.1905967"><ele>792.0</ele><time>2026-04-23T14:58:15.5Z</time></trkpt><trkpt lat="39.8140683" lon="9.190575"><ele>790.5</ele><time>2026-04-23T14:58:16.5Z</time></trkpt><trkpt lat="39.813995" lon="9.1905583"><ele>789.0</ele><time>2026-04-23T14:58:17.5Z</time></trkpt><trkpt lat="39.813925" lon="9.1905267"><ele>787.5</ele><time>2026-04-23T14:58:18.501Z</time></trkpt><trkpt lat="39.8138633" lon="9.1904833"><ele>786.0</ele><time>2026-04-23T14:58:19.501Z</time></trkpt><trkpt lat="39.8138033" lon="9.1904333"><ele>784.5</ele><time>2026-04-23T14:58:20.5Z</time></trkpt><trkpt lat="39.8137383" lon="9.1903767"><ele>783.0</ele><time>2026-04-23T14:58:21.5Z</time></trkpt><trkpt lat="39.8136717" lon="9.1903133"><ele>783.0</ele><time>2026-04-23T14:58:22.5Z</time></trkpt><trkpt lat="39.8136017" lon="9.19025"><ele>783.0</ele><time>2026-04-23T14:58:23.5Z</time></trkpt><trkpt lat="39.8135483" lon="9.190195"><ele>783.0</ele><time>2026-04-23T14:58:24.501Z</time></trkpt><trkpt lat="39.8134983" lon="9.1901167"><ele>783.0</ele><time>2026-04-23T14:58:25.501Z</time></trkpt><trkpt lat="39.8134567" lon="9.1900133"><ele>783.0</ele><time>2026-04-23T14:58:26.5Z</time></trkpt><trkpt lat="39.813425" lon="9.1899133"><ele>783.0</ele><time>2026-04-23T14:58:27.501Z</time></trkpt><trkpt lat="39.8133967" lon="9.1898233"><ele>782.0</ele><time>2026-04-23T14:58:28.501Z</time></trkpt><trkpt lat="39.81334" lon="9.1897517"><ele>781.0</ele><time>2026-04-23T14:58:30.5Z</time></trkpt><trkpt lat="39.813255" lon="9.1897933"><ele>780.0</ele><time>2026-04-23T14:58:32.501Z</time></trkpt><trkpt lat="39.8131717" lon="9.1899167"><ele>779.0</ele><time>2026-04-23T14:58:34.5Z</time></trkpt><trkpt lat="39.8131217" lon="9.189995"><ele>778.0</ele><time>2026-04-23T14:58:35.501Z</time></trkpt><trkpt lat="39.813075" lon="9.190105"><ele>775.8</ele><time>2026-04-23T14:58:36.5Z</time></trkpt><trkpt lat="39.8130217" lon="9.1902183"><ele>773.5999999999999</ele><time>2026-04-23T14:58:37.501Z</time></trkpt><trkpt lat="39.8129683" lon="9.1903433"><ele>771.4000000000001</ele><time>2026-04-23T14:58:38.501Z</time></trkpt><trkpt lat="39.8129067" lon="9.1904617"><ele>769.2</ele><time>2026-04-23T14:58:39.501Z</time></trkpt><trkpt lat="39.8128367" lon="9.190585"><ele>767.0</ele><time>2026-04-23T14:58:40.5Z</time></trkpt><trkpt lat="39.8127667" lon="9.1907133"><ele>769.0</ele><time>2026-04-23T14:58:41.5Z</time></trkpt><trkpt lat="39.8126917" lon="9.1908483"><ele>771.0</ele><time>2026-04-23T14:58:42.5Z</time></trkpt><trkpt lat="39.8126217" lon="9.1909917"><ele>773.0</ele><time>2026-04-23T14:58:43.501Z</time></trkpt><trkpt lat="39.8125567" lon="9.1911383"><ele>775.0</ele><time>2026-04-23T14:58:44.5Z</time></trkpt><trkpt lat="39.8125" lon="9.1912783"><ele>774.9999999999999</ele><time>2026-04-23T14:58:45.5Z</time></trkpt><trkpt lat="39.8124567" lon="9.1914067"><ele>775.0</ele><time>2026-04-23T14:58:46.5Z</time></trkpt><trkpt lat="39.8124317" lon="9.191525"><ele>775.0</ele><time>2026-04-23T14:58:47.501Z</time></trkpt><trkpt lat="39.8123967" lon="9.1916267"><ele>775.0</ele><time>2026-04-23T14:58:48.5Z</time></trkpt><trkpt lat="39.8123633" lon="9.1917067"><ele>774.9999999999999</ele><time>2026-04-23T14:58:49.5Z</time></trkpt><trkpt lat="39.8123217" lon="9.19178"><ele>775.0</ele><time>2026-04-23T14:58:50.5Z</time></trkpt><trkpt lat="39.8122583" lon="9.19184"><ele>772.2</ele><time>2026-04-23T14:58:51.5Z</time></trkpt><trkpt lat="39.8121833" lon="9.19189"><ele>769.4</ele><time>2026-04-23T14:58:52.501Z</time></trkpt><trkpt lat="39.8121067" lon="9.19194"><ele>766.5999999999999</ele><time>2026-04-23T14:58:53.5Z</time></trkpt><trkpt lat="39.81202" lon="9.19199"><ele>763.8</ele><time>2026-04-23T14:58:54.501Z</time></trkpt><trkpt lat="39.8119333" lon="9.1920267"><ele>761.0</ele><time>2026-04-23T14:58:55.5Z</time></trkpt><trkpt lat="39.8118383" lon="9.1920517"><ele>764.1999999999999</ele><time>2026-04-23T14:58:56.501Z</time></trkpt><trkpt lat="39.8117317" lon="9.192065"><ele>767.4</ele><time>2026-04-23T14:58:57.501Z</time></trkpt><trkpt lat="39.81162" lon="9.1920733"><ele>770.6</ele><time>2026-04-23T14:58:58.5Z</time></trkpt><trkpt lat="39.8115083" lon="9.19207"><ele>773.8</ele><time>2026-04-23T14:58:59.501Z</time></trkpt><trkpt lat="39.8114017" lon="9.1920633"><ele>777.0</ele><time>2026-04-23T14:59:00.501Z</time></trkpt><trkpt lat="39.8113033" lon="9.192055"><ele>777.0</ele><time>2026-04-23T14:59:01.5Z</time></trkpt><trkpt lat="39.8112067" lon="9.1920617"><ele>777.0</ele><time>2026-04-23T14:59:02.5Z</time></trkpt><trkpt lat="39.8111183" lon="9.1920667"><ele>777.0</ele><time>2026-04-23T14:59:03.501Z</time></trkpt><trkpt lat="39.8110317" lon="9.1920833"><ele>777.0</ele><time>2026-04-23T14:59:04.5Z</time></trkpt><trkpt lat="39.8109467" lon="9.19209"><ele>777.0</ele><time>2026-04-23T14:59:05.5Z</time></trkpt><trkpt lat="39.8108667" lon="9.1920967"><ele>777.0</ele><time>2026-04-23T14:59:06.5Z</time></trkpt><trkpt lat="39.810785" lon="9.1920817"><ele>774.4000000000001</ele><time>2026-04-23T14:59:07.5Z</time></trkpt><trkpt lat="39.810705" lon="9.1920417"><ele>771.8000000000001</ele><time>2026-04-23T14:59:08.5Z</time></trkpt><trkpt lat="39.81063" lon="9.1919933"><ele>769.2</ele><time>2026-04-23T14:59:09.501Z</time></trkpt><trkpt lat="39.8105517" lon="9.1919233"><ele>766.6</ele><time>2026-04-23T14:59:10.5Z</time></trkpt><trkpt lat="39.8104667" lon="9.1918333"><ele>764.0</ele><time>2026-04-23T14:59:11.501Z</time></trkpt><trkpt lat="39.8103717" lon="9.1917567"><ele>764.0</ele><time>2026-04-23T14:59:12.5Z</time></trkpt><trkpt lat="39.8102717" lon="9.1916983"><ele>764.0</ele><time>2026-04-23T14:59:13.501Z</time></trkpt><trkpt lat="39.8101733" lon="9.191655"><ele>764.0</ele><time>2026-04-23T14:59:14.501Z</time></trkpt><trkpt lat="39.8100783" lon="9.191625"><ele>764.0</ele><time>2026-04-23T14:59:15.501Z</time></trkpt><trkpt lat="39.809985" lon="9.1916233"><ele>764.0</ele><time>2026-04-23T14:59:16.501Z</time></trkpt><trkpt lat="39.8098983" lon="9.19163"><ele>764.0</ele><time>2026-04-23T14:59:17.501Z</time></trkpt><trkpt lat="39.8098217" lon="9.1916383"><ele>764.0</ele><time>2026-04-23T14:59:18.501Z</time></trkpt><trkpt lat="39.8097467" lon="9.1916317"><ele>764.0</ele><time>2026-04-23T14:59:19.5Z</time></trkpt><trkpt lat="39.8096617" lon="9.1915933"><ele>764.0</ele><time>2026-04-23T14:59:20.501Z</time></trkpt><trkpt lat="39.8095817" lon="9.19154"><ele>764.0</ele><time>2026-04-23T14:59:21.501Z</time></trkpt><trkpt lat="39.8095017" lon="9.1914733"><ele>764.0</ele><time>2026-04-23T14:59:22.501Z</time></trkpt><trkpt lat="39.8094167" lon="9.1913867"><ele>764.0</ele><time>2026-04-23T14:59:23.5Z</time></trkpt><trkpt lat="39.8093383" lon="9.191275"><ele>764.0</ele><time>2026-04-23T14:59:24.5Z</time></trkpt><trkpt lat="39.8092583" lon="9.1911717"><ele>764.0</ele><time>2026-04-23T14:59:25.501Z</time></trkpt><trkpt lat="39.8091783" lon="9.19108"><ele>764.0</ele><time>2026-04-23T14:59:26.5Z</time></trkpt><trkpt lat="39.809105" lon="9.1910033"><ele>764.0</ele><time>2026-04-23T14:59:27.501Z</time></trkpt><trkpt lat="39.8090233" lon="9.1909417"><ele>762.6</ele><time>2026-04-23T14:59:28.501Z</time></trkpt><trkpt lat="39.8089367" lon="9.19089"><ele>761.2</ele><time>2026-04-23T14:59:29.501Z</time></trkpt><trkpt lat="39.8088417" lon="9.1908517"><ele>759.8000000000001</ele><time>2026-04-23T14:59:30.5Z</time></trkpt><trkpt lat="39.8087433" lon="9.19082"><ele>758.4000000000001</ele><time>2026-04-23T14:59:31.501Z</time></trkpt><trkpt lat="39.8086467" lon="9.19079"><ele>757.0</ele><time>2026-04-23T14:59:32.501Z</time></trkpt><trkpt lat="39.8085617" lon="9.1907617"><ele>756.5</ele><time>2026-04-23T14:59:33.501Z</time></trkpt><trkpt lat="39.808475" lon="9.1907233"><ele>756.0</ele><time>2026-04-23T14:59:34.5Z</time></trkpt><trkpt lat="39.8084017" lon="9.1906783"><ele>755.5</ele><time>2026-04-23T14:59:35.5Z</time></trkpt><trkpt lat="39.80834" lon="9.1906233"><ele>755.0</ele><time>2026-04-23T14:59:36.501Z</time></trkpt><trkpt lat="39.808285" lon="9.190535"><ele>754.5</ele><time>2026-04-23T14:59:37.5Z</time></trkpt><trkpt lat="39.808235" lon="9.1904383"><ele>754.0</ele><time>2026-04-23T14:59:38.5Z</time></trkpt><trkpt lat="39.8081917" lon="9.1903433"><ele>755.2</ele><time>2026-04-23T14:59:39.501Z</time></trkpt><trkpt lat="39.808155" lon="9.1902417"><ele>756.4000000000001</ele><time>2026-04-23T14:59:40.5Z</time></trkpt><trkpt lat="39.808135" lon="9.1901283"><ele>757.6</ele><time>2026-04-23T14:59:41.501Z</time></trkpt><trkpt lat="39.8081167" lon="9.19"><ele>758.8</ele><time>2026-04-23T14:59:42.5Z</time></trkpt><trkpt lat="39.8080983" lon="9.1898683"><ele>760.0</ele><time>2026-04-23T14:59:43.5Z</time></trkpt><trkpt lat="39.80808" lon="9.18974"><ele>761.6</ele><time>2026-04-23T14:59:44.5Z</time></trkpt><trkpt lat="39.808065" lon="9.1896117"><ele>763.2</ele><time>2026-04-23T14:59:45.501Z</time></trkpt><trkpt lat="39.8080517" lon="9.1894933"><ele>764.8</ele><time>2026-04-23T14:59:46.5Z</time></trkpt><trkpt lat="39.8080467" lon="9.1893767"><ele>766.4</ele><time>2026-04-23T14:59:47.501Z</time></trkpt><trkpt lat="39.808045" lon="9.18926"><ele>768.0</ele><time>2026-04-23T14:59:48.5Z</time></trkpt><trkpt lat="39.8080367" lon="9.1891417"><ele>768.0</ele><time>2026-04-23T14:59:49.5Z</time></trkpt><trkpt lat="39.8080183" lon="9.18903"><ele>768.0</ele><time>2026-04-23T14:59:50.501Z</time></trkpt><trkpt lat="39.808" lon="9.188915"><ele>768.0</ele><time>2026-04-23T14:59:51.5Z</time></trkpt><trkpt lat="39.807975" lon="9.1888133"><ele>768.0</ele><time>2026-04-23T14:59:52.5Z</time></trkpt><trkpt lat="39.8079233" lon="9.1887217"><ele>768.0</ele><time>2026-04-23T14:59:53.5Z</time></trkpt><trkpt lat="39.807875" lon="9.188635"><ele>768.0</ele><time>2026-04-23T14:59:54.501Z</time></trkpt><trkpt lat="39.8078217" lon="9.188535"><ele>768.0</ele><time>2026-04-23T14:59:55.5Z</time></trkpt><trkpt lat="39.8077683" lon="9.1884217"><ele>768.0</ele><time>2026-04-23T14:59:56.5Z</time></trkpt><trkpt lat="39.807725" lon="9.1882967"><ele>768.0</ele><time>2026-04-23T14:59:57.5Z</time></trkpt><trkpt lat="39.807685" lon="9.1881717"><ele>768.0</ele><time>2026-04-23T14:59:58.501Z</time></trkpt><trkpt lat="39.8076367" lon="9.1880517"><ele>768.0</ele><time>2026-04-23T14:59:59.501Z</time></trkpt><trkpt lat="39.80759" lon="9.1879317"><ele>768.0</ele><time>2026-04-23T15:00:00.501Z</time></trkpt><trkpt lat="39.8075417" lon="9.1878067"><ele>768.0</ele><time>2026-04-23T15:00:01.5Z</time></trkpt><trkpt lat="39.8074917" lon="9.1876733"><ele>768.0</ele><time>2026-04-23T15:00:02.501Z</time></trkpt><trkpt lat="39.8074383" lon="9.1875267"><ele>768.0</ele><time>2026-04-23T15:00:03.501Z</time></trkpt><trkpt lat="39.80737" lon="9.1873867"><ele>769.5999999999999</ele><time>2026-04-23T15:00:04.501Z</time></trkpt><trkpt lat="39.8073083" lon="9.1872617"><ele>771.1999999999999</ele><time>2026-04-23T15:00:05.501Z</time></trkpt><trkpt lat="39.807255" lon="9.1871517"><ele>772.8</ele><time>2026-04-23T15:00:06.5Z</time></trkpt><trkpt lat="39.8072117" lon="9.1870483"><ele>774.4</ele><time>2026-04-23T15:00:07.501Z</time></trkpt><trkpt lat="39.80718" lon="9.1869383"><ele>776.0</ele><time>2026-04-23T15:00:08.501Z</time></trkpt><trkpt lat="39.8071417" lon="9.18683"><ele>776.0</ele><time>2026-04-23T15:00:09.5Z</time></trkpt><trkpt lat="39.807095" lon="9.1867133"><ele>776.0</ele><time>2026-04-23T15:00:10.501Z</time></trkpt><trkpt lat="39.8070383" lon="9.1866033"><ele>776.0</ele><time>2026-04-23T15:00:11.5Z</time></trkpt><trkpt lat="39.8069817" lon="9.1865017"><ele>776.0</ele><time>2026-04-23T15:00:12.5Z</time></trkpt><trkpt lat="39.8069267" lon="9.186415"><ele>776.0</ele><time>2026-04-23T15:00:13.5Z</time></trkpt><trkpt lat="39.8068683" lon="9.1863283"><ele>775.4</ele><time>2026-04-23T15:00:14.5Z</time></trkpt><trkpt lat="39.8068067" lon="9.18624"><ele>774.8</ele><time>2026-04-23T15:00:15.501Z</time></trkpt><trkpt lat="39.806735" lon="9.1861533"><ele>774.1999999999999</ele><time>2026-04-23T15:00:16.501Z</time></trkpt><trkpt lat="39.80667" lon="9.1860717"><ele>773.5999999999999</ele><time>2026-04-23T15:00:17.5Z</time></trkpt><trkpt lat="39.806595" lon="9.1860067"><ele>773.0</ele><time>2026-04-23T15:00:18.5Z</time></trkpt><trkpt lat="39.8065117" lon="9.1859533"><ele>773.0</ele><time>2026-04-23T15:00:19.5Z</time></trkpt><trkpt lat="39.80642" lon="9.1859283"><ele>773.0</ele><time>2026-04-23T15:00:20.501Z</time></trkpt><trkpt lat="39.8063283" lon="9.18592"><ele>773.0</ele><time>2026-04-23T15:00:21.5Z</time></trkpt><trkpt lat="39.806235" lon="9.1859317"><ele>773.0</ele><time>2026-04-23T15:00:22.501Z</time></trkpt><trkpt lat="39.80615" lon="9.1859483"><ele>773.0</ele><time>2026-04-23T15:00:23.5Z</time></trkpt><trkpt lat="39.80606" lon="9.1859833"><ele>772.8</ele><time>2026-04-23T15:00:24.5Z</time></trkpt><trkpt lat="39.80596" lon="9.18603"><ele>772.5999999999999</ele><time>2026-04-23T15:00:25.5Z</time></trkpt><trkpt lat="39.8058617" lon="9.18608"><ele>772.4000000000001</ele><time>2026-04-23T15:00:26.5Z</time></trkpt><trkpt lat="39.8057567" lon="9.1861467"><ele>772.2</ele><time>2026-04-23T15:00:27.5Z</time></trkpt><trkpt lat="39.8056533" lon="9.1862117"><ele>772.0</ele><time>2026-04-23T15:00:28.5Z</time></trkpt><trkpt lat="39.80555" lon="9.186285"><ele>772.0</ele><time>2026-04-23T15:00:29.5Z</time></trkpt><trkpt lat="39.8054517" lon="9.18635"><ele>772.0</ele><time>2026-04-23T15:00:30.5Z</time></trkpt><trkpt lat="39.8053433" lon="9.1864083"><ele>772.0</ele><time>2026-04-23T15:00:31.501Z</time></trkpt><trkpt lat="39.805235" lon="9.1864683"><ele>772.0</ele><time>2026-04-23T15:00:32.501Z</time></trkpt><trkpt lat="39.8051267" lon="9.1865183"><ele>772.25</ele><time>2026-04-23T15:00:33.501Z</time></trkpt><trkpt lat="39.80501" lon="9.186565"><ele>772.5</ele><time>2026-04-23T15:00:34.501Z</time></trkpt><trkpt lat="39.804895" lon="9.1866083"><ele>772.75</ele><time>2026-04-23T15:00:35.501Z</time></trkpt><trkpt lat="39.8047833" lon="9.1866583"><ele>773.0</ele><time>2026-04-23T15:00:36.5Z</time></trkpt><trkpt lat="39.8046817" lon="9.1867033"><ele>773.0</ele><time>2026-04-23T15:00:37.501Z</time></trkpt><trkpt lat="39.8045767" lon="9.18674"><ele>773.0</ele><time>2026-04-23T15:00:38.501Z</time></trkpt><trkpt lat="39.804475" lon="9.1867633"><ele>773.0</ele><time>2026-04-23T15:00:39.5Z</time></trkpt><trkpt lat="39.8043683" lon="9.1867833"><ele>773.0</ele><time>2026-04-23T15:00:40.501Z</time></trkpt><trkpt lat="39.8042567" lon="9.1868117"><ele>773.0</ele><time>2026-04-23T15:00:41.5Z</time></trkpt><trkpt lat="39.8041467" lon="9.1868367"><ele>773.25</ele><time>2026-04-23T15:00:42.501Z</time></trkpt><trkpt lat="39.80403" lon="9.1868733"><ele>773.5</ele><time>2026-04-23T15:00:43.5Z</time></trkpt><trkpt lat="39.8039083" lon="9.1869083"><ele>773.75</ele><time>2026-04-23T15:00:44.5Z</time></trkpt><trkpt lat="39.8037833" lon="9.1869433"><ele>774.0</ele><time>2026-04-23T15:00:45.501Z</time></trkpt><trkpt lat="39.803665" lon="9.1869783"><ele>774.0</ele><time>2026-04-23T15:00:46.5Z</time></trkpt><trkpt lat="39.8035483" lon="9.1870267"><ele>774.0</ele><time>2026-04-23T15:00:47.5Z</time></trkpt><trkpt lat="39.8034317" lon="9.1870717"><ele>774.0</ele><time>2026-04-23T15:00:48.501Z</time></trkpt><trkpt lat="39.8033183" lon="9.1871183"><ele>774.0</ele><time>2026-04-23T15:00:49.501Z</time></trkpt><trkpt lat="39.8032033" lon="9.1871683"><ele>772.75</ele><time>2026-04-23T15:00:50.5Z</time></trkpt><trkpt lat="39.8030883" lon="9.1872083"><ele>771.5</ele><time>2026-04-23T15:00:51.501Z</time></trkpt><trkpt lat="39.8029783" lon="9.1872383"><ele>770.25</ele><time>2026-04-23T15:00:52.501Z</time></trkpt><trkpt lat="39.80286" lon="9.1872767"><ele>769.0</ele><time>2026-04-23T15:00:53.501Z</time></trkpt><trkpt lat="39.80275" lon="9.1873"><ele>769.0</ele><time>2026-04-23T15:00:54.501Z</time></trkpt><trkpt lat="39.8026467" lon="9.1873267"><ele>769.0</ele><time>2026-04-23T15:00:55.501Z</time></trkpt><trkpt lat="39.8025467" lon="9.18735"><ele>769.0</ele><time>2026-04-23T15:00:56.501Z</time></trkpt><trkpt lat="39.80245" lon="9.18738"><ele>769.0</ele><time>2026-04-23T15:00:57.501Z</time></trkpt><trkpt lat="39.8023533" lon="9.187405"><ele>769.0</ele><time>2026-04-23T15:00:58.5Z</time></trkpt><trkpt lat="39.8022483" lon="9.1874383"><ele>767.0</ele><time>2026-04-23T15:00:59.5Z</time></trkpt><trkpt lat="39.8021367" lon="9.1874967"><ele>765.0</ele><time>2026-04-23T15:01:00.501Z</time></trkpt><trkpt lat="39.8020167" lon="9.187565"><ele>763.0</ele><time>2026-04-23T15:01:01.5Z</time></trkpt><trkpt lat="39.8018967" lon="9.1876483"><ele>761.0</ele><time>2026-04-23T15:01:02.5Z</time></trkpt><trkpt lat="39.8017817" lon="9.1877233"><ele>760.0</ele><time>2026-04-23T15:01:03.5Z</time></trkpt><trkpt lat="39.8016783" lon="9.1877983"><ele>759.0</ele><time>2026-04-23T15:01:04.5Z</time></trkpt><trkpt lat="39.8015733" lon="9.1878717"><ele>758.0</ele><time>2026-04-23T15:01:05.501Z</time></trkpt><trkpt lat="39.8014667" lon="9.1879417"><ele>757.0</ele><time>2026-04-23T15:01:06.501Z</time></trkpt><trkpt lat="39.8013483" lon="9.188"><ele>757.0</ele><time>2026-04-23T15:01:07.5Z</time></trkpt><trkpt lat="39.8012383" lon="9.18806"><ele>757.0</ele><time>2026-04-23T15:01:08.501Z</time></trkpt><trkpt lat="39.80113" lon="9.1881167"><ele>757.0</ele><time>2026-04-23T15:01:09.5Z</time></trkpt><trkpt lat="39.80101" lon="9.1881617"><ele>757.0</ele><time>2026-04-23T15:01:10.501Z</time></trkpt><trkpt lat="39.8008933" lon="9.1881933"><ele>754.8</ele><time>2026-04-23T15:01:11.501Z</time></trkpt><trkpt lat="39.8007817" lon="9.1882217"><ele>752.6</ele><time>2026-04-23T15:01:12.501Z</time></trkpt><trkpt lat="39.8006817" lon="9.1882483"><ele>750.4</ele><time>2026-04-23T15:01:13.5Z</time></trkpt><trkpt lat="39.80059" lon="9.1882767"><ele>748.1999999999999</ele><time>2026-04-23T15:01:14.5Z</time></trkpt><trkpt lat="39.8005017" lon="9.1882967"><ele>746.0</ele><time>2026-04-23T15:01:15.501Z</time></trkpt><trkpt lat="39.8004167" lon="9.1882967"><ele>746.0</ele><time>2026-04-23T15:01:16.5Z</time></trkpt><trkpt lat="39.800325" lon="9.1882783"><ele>746.0</ele><time>2026-04-23T15:01:17.5Z</time></trkpt><trkpt lat="39.8002317" lon="9.1882417"><ele>746.0</ele><time>2026-04-23T15:01:18.5Z</time></trkpt><trkpt lat="39.80013" lon="9.1881967"><ele>746.0</ele><time>2026-04-23T15:01:19.501Z</time></trkpt><trkpt lat="39.80003" lon="9.1881483"><ele>746.0</ele><time>2026-04-23T15:01:20.501Z</time></trkpt><trkpt lat="39.799935" lon="9.1881067"><ele>745.8333333333333</ele><time>2026-04-23T15:01:21.5Z</time></trkpt><trkpt lat="39.7998467" lon="9.1880817"><ele>745.6666666666666</ele><time>2026-04-23T15:01:22.5Z</time></trkpt><trkpt lat="39.7997617" lon="9.1880633"><ele>745.5</ele><time>2026-04-23T15:01:23.5Z</time></trkpt><trkpt lat="39.7996767" lon="9.1880433"><ele>745.3333333333334</ele><time>2026-04-23T15:01:24.501Z</time></trkpt><trkpt lat="39.799605" lon="9.18801"><ele>745.1666666666667</ele><time>2026-04-23T15:01:25.5Z</time></trkpt><trkpt lat="39.7995017" lon="9.1879683"><ele>745.0</ele><time>2026-04-23T15:01:27.5Z</time></trkpt><trkpt lat="39.7994317" lon="9.1879417"><ele>745.0</ele><time>2026-04-23T15:01:29.501Z</time></trkpt><trkpt lat="39.7993667" lon="9.1879"><ele>745.0</ele><time>2026-04-23T15:01:31.5Z</time></trkpt><trkpt lat="39.7992833" lon="9.1878533"><ele>745.0</ele><time>2026-04-23T15:01:34.5Z</time></trkpt><trkpt lat="39.79922" lon="9.1878267"><ele>745.0</ele><time>2026-04-23T15:01:37.5Z</time></trkpt><trkpt lat="39.7993033" lon="9.1878933"><ele>745.0</ele><time>2026-04-23T15:01:54.5Z</time></trkpt><trkpt lat="39.7993833" lon="9.1879483"><ele>745.0</ele><time>2026-04-23T15:01:56.5Z</time></trkpt><trkpt lat="39.7994417" lon="9.1879967"><ele>745.0</ele><time>2026-04-23T15:01:58.501Z</time></trkpt><trkpt lat="39.7994783" lon="9.1880833"><ele>745.0</ele><time>2026-04-23T15:02:00.5Z</time></trkpt><trkpt lat="39.7994967" lon="9.1882167"><ele>745.0</ele><time>2026-04-23T15:02:02.5Z</time></trkpt><trkpt lat="39.79953" lon="9.1883717"><ele>745.0</ele><time>2026-04-23T15:02:04.5Z</time></trkpt><trkpt lat="39.7995533" lon="9.188455"><ele>745.0</ele><time>2026-04-23T15:02:05.501Z</time></trkpt><trkpt lat="39.7995767" lon="9.1885483"><ele>745.0</ele><time>2026-04-23T15:02:06.5Z</time></trkpt><trkpt lat="39.7995917" lon="9.18864"><ele>744.8333333333334</ele><time>2026-04-23T15:02:07.5Z</time></trkpt><trkpt lat="39.799605" lon="9.188735"><ele>744.6666666666667</ele><time>2026-04-23T15:02:08.5Z</time></trkpt><trkpt lat="39.79962" lon="9.188835"><ele>744.5</ele><time>2026-04-23T15:02:09.5Z</time></trkpt><trkpt lat="39.79963" lon="9.1889333"><ele>744.3333333333334</ele><time>2026-04-23T15:02:10.501Z</time></trkpt><trkpt lat="39.7996467" lon="9.1890317"><ele>744.1666666666666</ele><time>2026-04-23T15:02:11.5Z</time></trkpt><trkpt lat="39.7996633" lon="9.189125"><ele>744.0</ele><time>2026-04-23T15:02:12.5Z</time></trkpt><trkpt lat="39.7996833" lon="9.18922"><ele>744.4285714285714</ele><time>2026-04-23T15:02:13.501Z</time></trkpt><trkpt lat="39.7996983" lon="9.1893133"><ele>744.8571428571429</ele><time>2026-04-23T15:02:14.5Z</time></trkpt><trkpt lat="39.7997133" lon="9.1894117"><ele>745.2857142857142</ele><time>2026-04-23T15:02:15.501Z</time></trkpt><trkpt lat="39.7997217" lon="9.1895083"><ele>745.7142857142858</ele><time>2026-04-23T15:02:16.5Z</time></trkpt><trkpt lat="39.7997333" lon="9.1896"><ele>746.1428571428571</ele><time>2026-04-23T15:02:17.501Z</time></trkpt><trkpt lat="39.799755" lon="9.1896867"><ele>746.5714285714286</ele><time>2026-04-23T15:02:18.501Z</time></trkpt><trkpt lat="39.7997933" lon="9.189775"><ele>747.0</ele><time>2026-04-23T15:02:19.5Z</time></trkpt><trkpt lat="39.7998483" lon="9.18986"><ele>748.2</ele><time>2026-04-23T15:02:20.5Z</time></trkpt><trkpt lat="39.7999233" lon="9.1899483"><ele>749.4000000000001</ele><time>2026-04-23T15:02:21.501Z</time></trkpt><trkpt lat="39.7999883" lon="9.1900167"><ele>750.5999999999999</ele><time>2026-04-23T15:02:22.5Z</time></trkpt><trkpt lat="39.80005" lon="9.1900717"><ele>751.8</ele><time>2026-04-23T15:02:23.501Z</time></trkpt><trkpt lat="39.8001583" lon="9.19015"><ele>753.0</ele><time>2026-04-23T15:02:25.5Z</time></trkpt><trkpt lat="39.8002233" lon="9.1901767"><ele>753.8571428571429</ele><time>2026-04-23T15:02:26.5Z</time></trkpt><trkpt lat="39.800295" lon="9.1902067"><ele>754.7142857142858</ele><time>2026-04-23T15:02:27.5Z</time></trkpt><trkpt lat="39.800365" lon="9.1902483"><ele>755.5714285714286</ele><time>2026-04-23T15:02:28.501Z</time></trkpt><trkpt lat="39.8004267" lon="9.1902933"><ele>756.4285714285714</ele><time>2026-04-23T15:02:29.501Z</time></trkpt><trkpt lat="39.800475" lon="9.19035"><ele>757.2857142857142</ele><time>2026-04-23T15:02:30.501Z</time></trkpt><trkpt lat="39.8005133" lon="9.19042"><ele>758.1428571428571</ele><time>2026-04-23T15:02:31.5Z</time></trkpt><trkpt lat="39.800555" lon="9.1905083"><ele>759.0</ele><time>2026-04-23T15:02:32.5Z</time></trkpt><trkpt lat="39.8006033" lon="9.1905883"><ele>759.0</ele><time>2026-04-23T15:02:33.501Z</time></trkpt><trkpt lat="39.8006583" lon="9.19066"><ele>759.0</ele><time>2026-04-23T15:02:34.5Z</time></trkpt><trkpt lat="39.800725" lon="9.19071"><ele>759.0</ele><time>2026-04-23T15:02:35.501Z</time></trkpt><trkpt lat="39.8008" lon="9.1907583"><ele>759.0</ele><time>2026-04-23T15:02:36.501Z</time></trkpt><trkpt lat="39.8008883" lon="9.19079"><ele>759.0</ele><time>2026-04-23T15:02:37.501Z</time></trkpt><trkpt lat="39.8009783" lon="9.1908333"><ele>759.0</ele><time>2026-04-23T15:02:38.5Z</time></trkpt><trkpt lat="39.8010683" lon="9.1908917"><ele>760.8571428571429</ele><time>2026-04-23T15:02:39.5Z</time></trkpt><trkpt lat="39.8011417" lon="9.190945"><ele>762.7142857142857</ele><time>2026-04-23T15:02:40.5Z</time></trkpt><trkpt lat="39.8012083" lon="9.1909883"><ele>764.5714285714287</ele><time>2026-04-23T15:02:41.501Z</time></trkpt><trkpt lat="39.801275" lon="9.1910117"><ele>766.4285714285714</ele><time>2026-04-23T15:02:42.5Z</time></trkpt><trkpt lat="39.8013433" lon="9.1910233"><ele>768.2857142857143</ele><time>2026-04-23T15:02:43.5Z</time></trkpt><trkpt lat="39.8014083" lon="9.1910517"><ele>770.1428571428572</ele><time>2026-04-23T15:02:44.5Z</time></trkpt><trkpt lat="39.801465" lon="9.1910917"><ele>772.0</ele><time>2026-04-23T15:02:45.5Z</time></trkpt><trkpt lat="39.8015183" lon="9.19115"><ele>772.0</ele><time>2026-04-23T15:02:46.5Z</time></trkpt><trkpt lat="39.80157" lon="9.1912267"><ele>772.0</ele><time>2026-04-23T15:02:47.501Z</time></trkpt><trkpt lat="39.801615" lon="9.1913333"><ele>772.0</ele><time>2026-04-23T15:02:48.501Z</time></trkpt><trkpt lat="39.801665" lon="9.1914483"><ele>772.0</ele><time>2026-04-23T15:02:49.501Z</time></trkpt><trkpt lat="39.8017067" lon="9.1915767"><ele>772.0</ele><time>2026-04-23T15:02:50.5Z</time></trkpt><trkpt lat="39.801755" lon="9.1917"><ele>773.0</ele><time>2026-04-23T15:02:51.501Z</time></trkpt><trkpt lat="39.8018133" lon="9.19184"><ele>774.0</ele><time>2026-04-23T15:02:52.501Z</time></trkpt><trkpt lat="39.801855" lon="9.1919483"><ele>775.0</ele><time>2026-04-23T15:02:53.5Z</time></trkpt><trkpt lat="39.80189" lon="9.1920383"><ele>776.0</ele><time>2026-04-23T15:02:54.501Z</time></trkpt><trkpt lat="39.801935" lon="9.192105"><ele>777.0</ele><time>2026-04-23T15:02:55.501Z</time></trkpt><trkpt lat="39.802" lon="9.1921883"><ele>778.1666666666666</ele><time>2026-04-23T15:02:57.5Z</time></trkpt><trkpt lat="39.8020917" lon="9.1922833"><ele>779.3333333333333</ele><time>2026-04-23T15:02:59.501Z</time></trkpt><trkpt lat="39.802145" lon="9.1923517"><ele>780.5</ele><time>2026-04-23T15:03:00.5Z</time></trkpt><trkpt lat="39.8021967" lon="9.19242"><ele>781.6666666666666</ele><time>2026-04-23T15:03:01.5Z</time></trkpt><trkpt lat="39.8022517" lon="9.1924933"><ele>782.8333333333333</ele><time>2026-04-23T15:03:02.5Z</time></trkpt><trkpt lat="39.8023083" lon="9.1925667"><ele>784.0</ele><time>2026-04-23T15:03:03.501Z</time></trkpt><trkpt lat="39.80237" lon="9.19264"><ele>784.8333333333333</ele><time>2026-04-23T15:03:04.501Z</time></trkpt><trkpt lat="39.80244" lon="9.192705"><ele>785.6666666666666</ele><time>2026-04-23T15:03:05.5Z</time></trkpt><trkpt lat="39.8025017" lon="9.1927817"><ele>786.5</ele><time>2026-04-23T15:03:06.501Z</time></trkpt><trkpt lat="39.8025617" lon="9.1928533"><ele>787.3333333333333</ele><time>2026-04-23T15:03:07.501Z</time></trkpt><trkpt lat="39.8026233" lon="9.1929267"><ele>788.1666666666666</ele><time>2026-04-23T15:03:08.501Z</time></trkpt><trkpt lat="39.8026717" lon="9.1930117"><ele>789.0</ele><time>2026-04-23T15:03:09.501Z</time></trkpt><trkpt lat="39.80272" lon="9.1931"><ele>791.1666666666666</ele><time>2026-04-23T15:03:10.501Z</time></trkpt><trkpt lat="39.8027583" lon="9.1931983"><ele>793.3333333333333</ele><time>2026-04-23T15:03:11.5Z</time></trkpt><trkpt lat="39.8027817" lon="9.193295"><ele>795.5</ele><time>2026-04-23T15:03:12.5Z</time></trkpt><trkpt lat="39.802795" lon="9.1933767"><ele>797.6666666666666</ele><time>2026-04-23T15:03:13.501Z</time></trkpt><trkpt lat="39.8027783" lon="9.1935267"><ele>799.8333333333333</ele><time>2026-04-23T15:03:15.501Z</time></trkpt><trkpt lat="39.8027567" lon="9.193615"><ele>802.0</ele><time>2026-04-23T15:03:16.501Z</time></trkpt><trkpt lat="39.8027283" lon="9.1937017"><ele>801.9999999999999</ele><time>2026-04-23T15:03:17.501Z</time></trkpt><trkpt lat="39.8026883" lon="9.19379"><ele>802.0</ele><time>2026-04-23T15:03:18.5Z</time></trkpt><trkpt lat="39.8026517" lon="9.1938833"><ele>802.0</ele><time>2026-04-23T15:03:19.501Z</time></trkpt><trkpt lat="39.8026167" lon="9.193975"><ele>802.0</ele><time>2026-04-23T15:03:20.5Z</time></trkpt><trkpt lat="39.8025883" lon="9.1940483"><ele>801.9999999999999</ele><time>2026-04-23T15:03:21.5Z</time></trkpt><trkpt lat="39.8025517" lon="9.1941683"><ele>802.0</ele><time>2026-04-23T15:03:23.5Z</time></trkpt><trkpt lat="39.8025433" lon="9.1942883"><ele>801.8</ele><time>2026-04-23T15:03:25.5Z</time></trkpt><trkpt lat="39.8025117" lon="9.1944183"><ele>801.6</ele><time>2026-04-23T15:03:27.501Z</time></trkpt><trkpt lat="39.8024667" lon="9.1945383"><ele>801.4</ele><time>2026-04-23T15:03:29.5Z</time></trkpt><trkpt lat="39.8023967" lon="9.1946317"><ele>801.1999999999999</ele><time>2026-04-23T15:03:31.5Z</time></trkpt><trkpt lat="39.80231" lon="9.1947167"><ele>801.0</ele><time>2026-04-23T15:03:33.501Z</time></trkpt><trkpt lat="39.802235" lon="9.1947733"><ele>801.0</ele><time>2026-04-23T15:03:35.501Z</time></trkpt><trkpt lat="39.8021433" lon="9.1948183"><ele>801.0</ele><time>2026-04-23T15:03:37.5Z</time></trkpt><trkpt lat="39.8020233" lon="9.1948533"><ele>801.0</ele><time>2026-04-23T15:03:39.5Z</time></trkpt><trkpt lat="39.80196" lon="9.1948667"><ele>801.0</ele><time>2026-04-23T15:03:40.501Z</time></trkpt><trkpt lat="39.801855" lon="9.1949167"><ele>801.0</ele><time>2026-04-23T15:03:42.5Z</time></trkpt><trkpt lat="39.8017867" lon="9.194985"><ele>800.0</ele><time>2026-04-23T15:03:44.501Z</time></trkpt><trkpt lat="39.801715" lon="9.1950683"><ele>799.0</ele><time>2026-04-23T15:03:46.5Z</time></trkpt><trkpt lat="39.801645" lon="9.1951667"><ele>798.0</ele><time>2026-04-23T15:03:48.5Z</time></trkpt><trkpt lat="39.8015567" lon="9.19525"><ele>797.0</ele><time>2026-04-23T15:03:50.501Z</time></trkpt><trkpt lat="39.8014467" lon="9.1953"><ele>796.0</ele><time>2026-04-23T15:03:52.5Z</time></trkpt><trkpt lat="39.8013467" lon="9.1953333"><ele>796.0</ele><time>2026-04-23T15:03:54.501Z</time></trkpt><trkpt lat="39.8012967" lon="9.1953917"><ele>796.0</ele><time>2026-04-23T15:03:56.5Z</time></trkpt><trkpt lat="39.8012867" lon="9.195505"><ele>796.0</ele><time>2026-04-23T15:03:58.501Z</time></trkpt><trkpt lat="39.8012967" lon="9.195645"><ele>796.0</ele><time>2026-04-23T15:04:00.5Z</time></trkpt><trkpt lat="39.8013333" lon="9.1958067"><ele>796.0</ele><time>2026-04-23T15:04:02.501Z</time></trkpt><trkpt lat="39.8013633" lon="9.195885"><ele>795.9999999999999</ele><time>2026-04-23T15:04:03.5Z</time></trkpt><trkpt lat="39.8013967" lon="9.19596"><ele>796.0</ele><time>2026-04-23T15:04:04.501Z</time></trkpt><trkpt lat="39.8014383" lon="9.1960283"><ele>796.0</ele><time>2026-04-23T15:04:05.501Z</time></trkpt><trkpt lat="39.80149" lon="9.1960783"><ele>796.0</ele><time>2026-04-23T15:04:06.501Z</time></trkpt><trkpt lat="39.80155" lon="9.19614"><ele>796.0</ele><time>2026-04-23T15:04:07.5Z</time></trkpt><trkpt lat="39.801605" lon="9.1962067"><ele>795.9999999999999</ele><time>2026-04-23T15:04:08.501Z</time></trkpt><trkpt lat="39.8016583" lon="9.1962783"><ele>796.0</ele><time>2026-04-23T15:04:09.501Z</time></trkpt><trkpt lat="39.801705" lon="9.196355"><ele>795.9999999999999</ele><time>2026-04-23T15:04:10.501Z</time></trkpt><trkpt lat="39.8017333" lon="9.1964483"><ele>796.0</ele><time>2026-04-23T15:04:11.501Z</time></trkpt><trkpt lat="39.801755" lon="9.1965517"><ele>796.0</ele><time>2026-04-23T15:04:12.501Z</time></trkpt><trkpt lat="39.8017633" lon="9.196655"><ele>796.0</ele><time>2026-04-23T15:04:13.501Z</time></trkpt><trkpt lat="39.8017583" lon="9.1967583"><ele>795.9999999999999</ele><time>2026-04-23T15:04:14.5Z</time></trkpt><trkpt lat="39.8017433" lon="9.1968667"><ele>796.0</ele><time>2026-04-23T15:04:15.5Z</time></trkpt><trkpt lat="39.80173" lon="9.1969867"><ele>796.8</ele><time>2026-04-23T15:04:16.501Z</time></trkpt><trkpt lat="39.8017317" lon="9.1971167"><ele>797.5999999999999</ele><time>2026-04-23T15:04:17.501Z</time></trkpt><trkpt lat="39.8017517" lon="9.1972517"><ele>798.4</ele><time>2026-04-23T15:04:18.501Z</time></trkpt><trkpt lat="39.80178" lon="9.1973883"><ele>799.2</ele><time>2026-04-23T15:04:19.5Z</time></trkpt><trkpt lat="39.801805" lon="9.1975267"><ele>800.0</ele><time>2026-04-23T15:04:20.501Z</time></trkpt><trkpt lat="39.8018317" lon="9.197655"><ele>801.0</ele><time>2026-04-23T15:04:21.501Z</time></trkpt><trkpt lat="39.8018433" lon="9.1977567"><ele>802.0</ele><time>2026-04-23T15:04:22.5Z</time></trkpt><trkpt lat="39.801885" lon="9.1978917"><ele>803.0</ele><time>2026-04-23T15:04:24.501Z</time></trkpt><trkpt lat="39.801955" lon="9.19801"><ele>804.0</ele><time>2026-04-23T15:04:26.501Z</time></trkpt><trkpt lat="39.802045" lon="9.19811"><ele>805.0</ele><time>2026-04-23T15:04:28.5Z</time></trkpt><trkpt lat="39.8021033" lon="9.198165"><ele>807.3333333333333</ele><time>2026-04-23T15:04:29.501Z</time></trkpt><trkpt lat="39.802165" lon="9.19822"><ele>809.6666666666666</ele><time>2026-04-23T15:04:30.501Z</time></trkpt><trkpt lat="39.80223" lon="9.1982733"><ele>812.0</ele><time>2026-04-23T15:04:31.501Z</time></trkpt><trkpt lat="39.8023" lon="9.1983417"><ele>814.3333333333333</ele><time>2026-04-23T15:04:32.501Z</time></trkpt><trkpt lat="39.8023817" lon="9.1983967"><ele>816.6666666666666</ele><time>2026-04-23T15:04:33.501Z</time></trkpt><trkpt lat="39.8024617" lon="9.19845"><ele>819.0</ele><time>2026-04-23T15:04:34.5Z</time></trkpt><trkpt lat="39.8025383" lon="9.1985033"><ele>819.0</ele><time>2026-04-23T15:04:35.501Z</time></trkpt><trkpt lat="39.802625" lon="9.1985417"><ele>819.0</ele><time>2026-04-23T15:04:36.501Z</time></trkpt><trkpt lat="39.802715" lon="9.19857"><ele>819.0</ele><time>2026-04-23T15:04:37.5Z</time></trkpt><trkpt lat="39.8027933" lon="9.1986067"><ele>819.0</ele><time>2026-04-23T15:04:38.501Z</time></trkpt><trkpt lat="39.8028683" lon="9.198645"><ele>819.0</ele><time>2026-04-23T15:04:39.5Z</time></trkpt><trkpt lat="39.8029417" lon="9.1986883"><ele>819.0</ele><time>2026-04-23T15:04:40.501Z</time></trkpt><trkpt lat="39.8030233" lon="9.1987283"><ele>819.6666666666666</ele><time>2026-04-23T15:04:41.501Z</time></trkpt><trkpt lat="39.8030967" lon="9.198755"><ele>820.3333333333333</ele><time>2026-04-23T15:04:42.501Z</time></trkpt><trkpt lat="39.8031667" lon="9.198795"><ele>821.0</ele><time>2026-04-23T15:04:43.501Z</time></trkpt><trkpt lat="39.80323" lon="9.1988267"><ele>821.6666666666666</ele><time>2026-04-23T15:04:44.5Z</time></trkpt><trkpt lat="39.803325" lon="9.198895"><ele>822.3333333333333</ele><time>2026-04-23T15:04:46.5Z</time></trkpt><trkpt lat="39.8033783" lon="9.19902"><ele>823.0</ele><time>2026-04-23T15:04:48.5Z</time></trkpt><trkpt lat="39.8033867" lon="9.1991133"><ele>824.4</ele><time>2026-04-23T15:04:49.5Z</time></trkpt><trkpt lat="39.8033933" lon="9.1991983"><ele>825.8</ele><time>2026-04-23T15:04:50.501Z</time></trkpt><trkpt lat="39.8033933" lon="9.1993333"><ele>827.2</ele><time>2026-04-23T15:04:52.501Z</time></trkpt><trkpt lat="39.80333" lon="9.199465"><ele>828.6</ele><time>2026-04-23T15:04:54.501Z</time></trkpt><trkpt lat="39.803265" lon="9.19956"><ele>830.0</ele><time>2026-04-23T15:04:56.501Z</time></trkpt><trkpt lat="39.8032033" lon="9.1996783"><ele>830.0</ele><time>2026-04-23T15:04:58.501Z</time></trkpt><trkpt lat="39.803175" lon="9.199785"><ele>830.0</ele><time>2026-04-23T15:05:00.5Z</time></trkpt><trkpt lat="39.803195" lon="9.199925"><ele>830.0</ele><time>2026-04-23T15:05:02.5Z</time></trkpt><trkpt lat="39.8031617" lon="9.2000467"><ele>830.0</ele><time>2026-04-23T15:05:04.5Z</time></trkpt><trkpt lat="39.803065" lon="9.2001267"><ele>830.0</ele><time>2026-04-23T15:05:06.501Z</time></trkpt><trkpt lat="39.8029983" lon="9.200135"><ele>830.5000000000001</ele><time>2026-04-23T15:05:07.5Z</time></trkpt><trkpt lat="39.80292" lon="9.2001367"><ele>831.0</ele><time>2026-04-23T15:05:08.501Z</time></trkpt><trkpt lat="39.80284" lon="9.2001383"><ele>831.5</ele><time>2026-04-23T15:05:09.501Z</time></trkpt><trkpt lat="39.802755" lon="9.2001367"><ele>832.0</ele><time>2026-04-23T15:05:10.5Z</time></trkpt><trkpt lat="39.8026683" lon="9.2001267"><ele>832.5000000000001</ele><time>2026-04-23T15:05:11.501Z</time></trkpt><trkpt lat="39.8025867" lon="9.2001067"><ele>833.0</ele><time>2026-04-23T15:05:12.5Z</time></trkpt><trkpt lat="39.8025067" lon="9.2000867"><ele>831.8333333333334</ele><time>2026-04-23T15:05:13.5Z</time></trkpt><trkpt lat="39.8024267" lon="9.2000733"><ele>830.6666666666667</ele><time>2026-04-23T15:05:14.5Z</time></trkpt><trkpt lat="39.80234" lon="9.2000767"><ele>829.5</ele><time>2026-04-23T15:05:15.501Z</time></trkpt><trkpt lat="39.8022567" lon="9.2000883"><ele>828.3333333333333</ele><time>2026-04-23T15:05:16.5Z</time></trkpt><trkpt lat="39.8021617" lon="9.2001033"><ele>827.1666666666666</ele><time>2026-04-23T15:05:17.501Z</time></trkpt><trkpt lat="39.8020683" lon="9.200135"><ele>826.0</ele><time>2026-04-23T15:05:18.5Z</time></trkpt><trkpt lat="39.80198" lon="9.2001667"><ele>825.9999999999999</ele><time>2026-04-23T15:05:19.5Z</time></trkpt><trkpt lat="39.8019017" lon="9.2002017"><ele>826.0</ele><time>2026-04-23T15:05:20.5Z</time></trkpt><trkpt lat="39.8018217" lon="9.2002317"><ele>826.0</ele><time>2026-04-23T15:05:21.501Z</time></trkpt><trkpt lat="39.80175" lon="9.2002617"><ele>826.0</ele><time>2026-04-23T15:05:22.5Z</time></trkpt><trkpt lat="39.8016767" lon="9.2002917"><ele>825.9999999999999</ele><time>2026-04-23T15:05:23.501Z</time></trkpt><trkpt lat="39.8016067" lon="9.2003367"><ele>826.0</ele><time>2026-04-23T15:05:24.501Z</time></trkpt><trkpt lat="39.80154" lon="9.20039"><ele>825.1999999999999</ele><time>2026-04-23T15:05:25.501Z</time></trkpt><trkpt lat="39.80147" lon="9.20045"><ele>824.4</ele><time>2026-04-23T15:05:26.5Z</time></trkpt><trkpt lat="39.8013917" lon="9.200515"><ele>823.6</ele><time>2026-04-23T15:05:27.501Z</time></trkpt><trkpt lat="39.8013083" lon="9.20059"><ele>822.8</ele><time>2026-04-23T15:05:28.501Z</time></trkpt><trkpt lat="39.8012283" lon="9.2006567"><ele>822.0</ele><time>2026-04-23T15:05:29.5Z</time></trkpt><trkpt lat="39.8011567" lon="9.2007183"><ele>821.4000000000001</ele><time>2026-04-23T15:05:30.5Z</time></trkpt><trkpt lat="39.8010883" lon="9.2007917"><ele>820.8000000000001</ele><time>2026-04-23T15:05:31.501Z</time></trkpt><trkpt lat="39.8010083" lon="9.200865"><ele>820.2</ele><time>2026-04-23T15:05:32.5Z</time></trkpt><trkpt lat="39.8009283" lon="9.200945"><ele>819.6</ele><time>2026-04-23T15:05:33.5Z</time></trkpt><trkpt lat="39.80085" lon="9.2010167"><ele>819.0</ele><time>2026-04-23T15:05:34.5Z</time></trkpt><trkpt lat="39.80078" lon="9.2010717"><ele>819.0</ele><time>2026-04-23T15:05:35.501Z</time></trkpt><trkpt lat="39.8007083" lon="9.2011317"><ele>819.0</ele><time>2026-04-23T15:05:36.5Z</time></trkpt><trkpt lat="39.800635" lon="9.2011833"><ele>819.0</ele><time>2026-04-23T15:05:37.501Z</time></trkpt><trkpt lat="39.800565" lon="9.2012367"><ele>819.0</ele><time>2026-04-23T15:05:38.501Z</time></trkpt><trkpt lat="39.8004933" lon="9.201295"><ele>819.0</ele><time>2026-04-23T15:05:39.501Z</time></trkpt><trkpt lat="39.8004283" lon="9.20135"><ele>819.0</ele><time>2026-04-23T15:05:40.5Z</time></trkpt><trkpt lat="39.8003617" lon="9.2013983"><ele>819.0</ele><time>2026-04-23T15:05:41.501Z</time></trkpt><trkpt lat="39.8003" lon="9.2014417"><ele>819.0</ele><time>2026-04-23T15:05:42.501Z</time></trkpt><trkpt lat="39.8002333" lon="9.2014883"><ele>819.0</ele><time>2026-04-23T15:05:43.5Z</time></trkpt><trkpt lat="39.8001717" lon="9.2015467"><ele>819.0</ele><time>2026-04-23T15:05:44.5Z</time></trkpt><trkpt lat="39.8001183" lon="9.2016233"><ele>819.0</ele><time>2026-04-23T15:05:45.5Z</time></trkpt><trkpt lat="39.8000617" lon="9.2016867"><ele>819.0</ele><time>2026-04-23T15:05:46.5Z</time></trkpt><trkpt lat="39.8000033" lon="9.2017417"><ele>819.0</ele><time>2026-04-23T15:05:47.501Z</time></trkpt><trkpt lat="39.7999433" lon="9.201775"><ele>817.0</ele><time>2026-04-23T15:05:48.5Z</time></trkpt><trkpt lat="39.7998083" lon="9.2017833"><ele>815.0</ele><time>2026-04-23T15:05:50.501Z</time></trkpt><trkpt lat="39.7997283" lon="9.2017633"><ele>813.0</ele><time>2026-04-23T15:05:51.501Z</time></trkpt><trkpt lat="39.79964" lon="9.2017283"><ele>811.0</ele><time>2026-04-23T15:05:52.501Z</time></trkpt><trkpt lat="39.7995517" lon="9.2017017"><ele>809.0</ele><time>2026-04-23T15:05:53.5Z</time></trkpt><trkpt lat="39.799465" lon="9.2016983"><ele>809.0</ele><time>2026-04-23T15:05:54.501Z</time></trkpt><trkpt lat="39.7993783" lon="9.2017017"><ele>809.0</ele><time>2026-04-23T15:05:55.5Z</time></trkpt><trkpt lat="39.7992867" lon="9.2017233"><ele>809.0</ele><time>2026-04-23T15:05:56.5Z</time></trkpt><trkpt lat="39.7991917" lon="9.20176"><ele>809.0</ele><time>2026-04-23T15:05:57.501Z</time></trkpt><trkpt lat="39.799105" lon="9.20179"><ele>809.0</ele><time>2026-04-23T15:05:58.5Z</time></trkpt><trkpt lat="39.7990183" lon="9.20182"><ele>807.6666666666667</ele><time>2026-04-23T15:05:59.501Z</time></trkpt><trkpt lat="39.7989367" lon="9.2018533"><ele>806.3333333333334</ele><time>2026-04-23T15:06:00.5Z</time></trkpt><trkpt lat="39.798855" lon="9.20189"><ele>805.0</ele><time>2026-04-23T15:06:01.501Z</time></trkpt><trkpt lat="39.798775" lon="9.2019317"><ele>803.6666666666667</ele><time>2026-04-23T15:06:02.501Z</time></trkpt><trkpt lat="39.7986983" lon="9.201975"><ele>802.3333333333334</ele><time>2026-04-23T15:06:03.501Z</time></trkpt><trkpt lat="39.7986217" lon="9.202015"><ele>801.0</ele><time>2026-04-23T15:06:04.501Z</time></trkpt><trkpt lat="39.7985433" lon="9.2020533"><ele>800.1666666666666</ele><time>2026-04-23T15:06:05.501Z</time></trkpt><trkpt lat="39.79847" lon="9.2020883"><ele>799.3333333333333</ele><time>2026-04-23T15:06:06.5Z</time></trkpt><trkpt lat="39.7984033" lon="9.2021117"><ele>798.5</ele><time>2026-04-23T15:06:07.501Z</time></trkpt><trkpt lat="39.7983367" lon="9.202125"><ele>797.6666666666666</ele><time>2026-04-23T15:06:08.5Z</time></trkpt><trkpt lat="39.7982217" lon="9.2020967"><ele>796.8333333333333</ele><time>2026-04-23T15:06:10.5Z</time></trkpt><trkpt lat="39.7981417" lon="9.202095"><ele>796.0</ele><time>2026-04-23T15:06:12.501Z</time></trkpt><trkpt lat="39.7980767" lon="9.202135"><ele>796.0</ele><time>2026-04-23T15:06:14.5Z</time></trkpt><trkpt lat="39.797985" lon="9.2021633"><ele>796.0</ele><time>2026-04-23T15:06:17.5Z</time></trkpt><trkpt lat="39.79789" lon="9.2021717"><ele>796.0</ele><time>2026-04-23T15:06:25.501Z</time></trkpt><trkpt lat="39.7978217" lon="9.202185"><ele>796.0</ele><time>2026-04-23T15:06:27.501Z</time></trkpt><trkpt lat="39.7977233" lon="9.20225"><ele>796.0</ele><time>2026-04-23T15:06:29.5Z</time></trkpt><trkpt lat="39.797635" lon="9.20231"><ele>795.1666666666666</ele><time>2026-04-23T15:06:31.5Z</time></trkpt><trkpt lat="39.7975683" lon="9.2023417"><ele>794.3333333333333</ele><time>2026-04-23T15:06:33.5Z</time></trkpt><trkpt lat="39.7974967" lon="9.2023433"><ele>793.5</ele><time>2026-04-23T15:06:35.501Z</time></trkpt><trkpt lat="39.79743" lon="9.20228"><ele>792.6666666666667</ele><time>2026-04-23T15:06:37.501Z</time></trkpt><trkpt lat="39.7973967" lon="9.202195"><ele>791.8333333333334</ele><time>2026-04-23T15:06:39.501Z</time></trkpt><trkpt lat="39.79736" lon="9.202115"><ele>791.0</ele><time>2026-04-23T15:06:41.501Z</time></trkpt><trkpt lat="39.7972533" lon="9.2021333"><ele>791.0</ele><time>2026-04-23T15:06:44.5Z</time></trkpt><trkpt lat="39.79714" lon="9.2021967"><ele>791.0</ele><time>2026-04-23T15:06:46.501Z</time></trkpt><trkpt lat="39.7970383" lon="9.2022533"><ele>791.0</ele><time>2026-04-23T15:06:48.5Z</time></trkpt><trkpt lat="39.7969467" lon="9.2022717"><ele>791.0</ele><time>2026-04-23T15:06:50.501Z</time></trkpt><trkpt lat="39.7968483" lon="9.2022533"><ele>791.0</ele><time>2026-04-23T15:06:52.5Z</time></trkpt><trkpt lat="39.7967517" lon="9.2022333"><ele>789.8</ele><time>2026-04-23T15:06:54.501Z</time></trkpt><trkpt lat="39.7966367" lon="9.2022583"><ele>788.5999999999999</ele><time>2026-04-23T15:06:56.501Z</time></trkpt><trkpt lat="39.7965767" lon="9.2022833"><ele>787.4</ele><time>2026-04-23T15:06:57.501Z</time></trkpt><trkpt lat="39.7964667" lon="9.202335"><ele>786.2</ele><time>2026-04-23T15:06:59.5Z</time></trkpt><trkpt lat="39.79636" lon="9.2023717"><ele>785.0</ele><time>2026-04-23T15:07:01.5Z</time></trkpt><trkpt lat="39.7962617" lon="9.202365"><ele>784.0</ele><time>2026-04-23T15:07:03.5Z</time></trkpt><trkpt lat="39.796165" lon="9.202385"><ele>783.0</ele><time>2026-04-23T15:07:05.5Z</time></trkpt><trkpt lat="39.79608" lon="9.2024183"><ele>782.0</ele><time>2026-04-23T15:07:07.5Z</time></trkpt><trkpt lat="39.7959983" lon="9.20247"><ele>781.0</ele><time>2026-04-23T15:07:09.5Z</time></trkpt><trkpt lat="39.7959217" lon="9.2025367"><ele>780.0</ele><time>2026-04-23T15:07:11.5Z</time></trkpt><trkpt lat="39.7958583" lon="9.2026083"><ele>778.0</ele><time>2026-04-23T15:07:13.501Z</time></trkpt><trkpt lat="39.7957883" lon="9.202685"><ele>776.0</ele><time>2026-04-23T15:07:15.501Z</time></trkpt><trkpt lat="39.7957067" lon="9.2027667"><ele>774.0</ele><time>2026-04-23T15:07:17.5Z</time></trkpt><trkpt lat="39.7956233" lon="9.2028667"><ele>772.0</ele><time>2026-04-23T15:07:19.501Z</time></trkpt><trkpt lat="39.7955317" lon="9.2029517"><ele>770.0</ele><time>2026-04-23T15:07:21.5Z</time></trkpt><trkpt lat="39.7954517" lon="9.2030383"><ele>770.0</ele><time>2026-04-23T15:07:23.5Z</time></trkpt><trkpt lat="39.7953733" lon="9.2031083"><ele>770.0</ele><time>2026-04-23T15:07:25.501Z</time></trkpt><trkpt lat="39.7953017" lon="9.203185"><ele>770.0</ele><time>2026-04-23T15:07:27.5Z</time></trkpt><trkpt lat="39.7952217" lon="9.2032683"><ele>770.0</ele><time>2026-04-23T15:07:29.5Z</time></trkpt><trkpt lat="39.7951467" lon="9.20333"><ele>770.0</ele><time>2026-04-23T15:07:31.5Z</time></trkpt><trkpt lat="39.7950717" lon="9.20341"><ele>764.5</ele><time>2026-04-23T15:07:33.501Z</time></trkpt><trkpt lat="39.79498" lon="9.2034983"><ele>759.0</ele><time>2026-04-23T15:07:35.5Z</time></trkpt><trkpt lat="39.7948833" lon="9.2035883"><ele>753.5</ele><time>2026-04-23T15:07:37.501Z</time></trkpt><trkpt lat="39.7947817" lon="9.2036967"><ele>748.0</ele><time>2026-04-23T15:07:39.5Z</time></trkpt><trkpt lat="39.7946883" lon="9.203795"><ele>748.0</ele><time>2026-04-23T15:07:41.501Z</time></trkpt><trkpt lat="39.7945967" lon="9.2038867"><ele>748.0</ele><time>2026-04-23T15:07:43.501Z</time></trkpt><trkpt lat="39.79452" lon="9.2039867"><ele>748.0</ele><time>2026-04-23T15:07:45.501Z</time></trkpt><trkpt lat="39.7944333" lon="9.2040867"><ele>748.0</ele><time>2026-04-23T15:07:47.5Z</time></trkpt><trkpt lat="39.794345" lon="9.2041883"><ele>743.5999999999999</ele><time>2026-04-23T15:07:49.501Z</time></trkpt><trkpt lat="39.7942583" lon="9.2042667"><ele>739.1999999999999</ele><time>2026-04-23T15:07:51.5Z</time></trkpt><trkpt lat="39.794165" lon="9.2043483"><ele>734.8</ele><time>2026-04-23T15:07:53.5Z</time></trkpt><trkpt lat="39.7940567" lon="9.2044083"><ele>730.4</ele><time>2026-04-23T15:07:55.5Z</time></trkpt><trkpt lat="39.7939833" lon="9.20443"><ele>726.0</ele><time>2026-04-23T15:07:56.5Z</time></trkpt><trkpt lat="39.7939183" lon="9.20444"><ele>726.0</ele><time>2026-04-23T15:07:57.5Z</time></trkpt><trkpt lat="39.7938567" lon="9.2044633"><ele>726.0</ele><time>2026-04-23T15:07:58.5Z</time></trkpt><trkpt lat="39.7937583" lon="9.204505"><ele>726.0</ele><time>2026-04-23T15:08:00.5Z</time></trkpt><trkpt lat="39.7936483" lon="9.204565"><ele>726.0</ele><time>2026-04-23T15:08:02.5Z</time></trkpt><trkpt lat="39.7935367" lon="9.204625"><ele>726.0</ele><time>2026-04-23T15:08:04.5Z</time></trkpt><trkpt lat="39.7934167" lon="9.2046767"><ele>725.3333333333334</ele><time>2026-04-23T15:08:06.501Z</time></trkpt><trkpt lat="39.793305" lon="9.2047333"><ele>724.6666666666666</ele><time>2026-04-23T15:08:08.5Z</time></trkpt><trkpt lat="39.7932333" lon="9.20476"><ele>724.0</ele><time>2026-04-23T15:08:09.501Z</time></trkpt><trkpt lat="39.7931633" lon="9.2047917"><ele>723.3333333333333</ele><time>2026-04-23T15:08:10.501Z</time></trkpt><trkpt lat="39.7930883" lon="9.2048067"><ele>722.6666666666666</ele><time>2026-04-23T15:08:11.5Z</time></trkpt><trkpt lat="39.7930167" lon="9.204835"><ele>722.0</ele><time>2026-04-23T15:08:12.5Z</time></trkpt><trkpt lat="39.79295" lon="9.2048633"><ele>720.5</ele><time>2026-04-23T15:08:13.501Z</time></trkpt><trkpt lat="39.7928833" lon="9.2048883"><ele>719.0</ele><time>2026-04-23T15:08:14.5Z</time></trkpt><trkpt lat="39.79282" lon="9.20491"><ele>717.5</ele><time>2026-04-23T15:08:15.5Z</time></trkpt><trkpt lat="39.79276" lon="9.2049467"><ele>716.0</ele><time>2026-04-23T15:08:16.501Z</time></trkpt><trkpt lat="39.7926917" lon="9.2049683"><ele>714.5</ele><time>2026-04-23T15:08:17.5Z</time></trkpt><trkpt lat="39.79257" lon="9.2050317"><ele>713.0</ele><time>2026-04-23T15:08:19.5Z</time></trkpt><trkpt lat="39.7924533" lon="9.2051"><ele>711.1428571428571</ele><time>2026-04-23T15:08:21.501Z</time></trkpt><trkpt lat="39.7923967" lon="9.205155"><ele>709.2857142857143</ele><time>2026-04-23T15:08:22.501Z</time></trkpt><trkpt lat="39.7923383" lon="9.2051983"><ele>707.4285714285714</ele><time>2026-04-23T15:08:23.501Z</time></trkpt><trkpt lat="39.7922733" lon="9.2052567"><ele>705.5714285714286</ele><time>2026-04-23T15:08:24.501Z</time></trkpt><trkpt lat="39.7922033" lon="9.205305"><ele>703.7142857142858</ele><time>2026-04-23T15:08:25.501Z</time></trkpt><trkpt lat="39.79214" lon="9.2053567"><ele>701.8571428571429</ele><time>2026-04-23T15:08:26.501Z</time></trkpt><trkpt lat="39.7920733" lon="9.2054033"><ele>700.0</ele><time>2026-04-23T15:08:27.5Z</time></trkpt><trkpt lat="39.7920217" lon="9.2054517"><ele>700.0</ele><time>2026-04-23T15:08:28.501Z</time></trkpt><trkpt lat="39.791915" lon="9.2055333"><ele>700.0</ele><time>2026-04-23T15:08:30.501Z</time></trkpt><trkpt lat="39.79186" lon="9.205585"><ele>700.0</ele><time>2026-04-23T15:08:31.5Z</time></trkpt><trkpt lat="39.7918017" lon="9.2056333"><ele>700.0</ele><time>2026-04-23T15:08:32.501Z</time></trkpt><trkpt lat="39.7917483" lon="9.2056883"><ele>700.0</ele><time>2026-04-23T15:08:33.501Z</time></trkpt><trkpt lat="39.79165" lon="9.2057817"><ele>697.2</ele><time>2026-04-23T15:08:35.5Z</time></trkpt><trkpt lat="39.7915583" lon="9.2058533"><ele>694.4</ele><time>2026-04-23T15:08:37.5Z</time></trkpt><trkpt lat="39.7914717" lon="9.2059533"><ele>691.5999999999999</ele><time>2026-04-23T15:08:39.501Z</time></trkpt><trkpt lat="39.791385" lon="9.2060867"><ele>688.8</ele><time>2026-04-23T15:08:41.5Z</time></trkpt><trkpt lat="39.791345" lon="9.206165"><ele>686.0</ele><time>2026-04-23T15:08:42.5Z</time></trkpt><trkpt lat="39.7913067" lon="9.206245"><ele>686.0</ele><time>2026-04-23T15:08:43.501Z</time></trkpt><trkpt lat="39.791265" lon="9.2063183"><ele>686.0</ele><time>2026-04-23T15:08:44.5Z</time></trkpt><trkpt lat="39.7912267" lon="9.2063917"><ele>686.0</ele><time>2026-04-23T15:08:45.501Z</time></trkpt><trkpt lat="39.791185" lon="9.2064667"><ele>686.0</ele><time>2026-04-23T15:08:46.5Z</time></trkpt><trkpt lat="39.79115" lon="9.2065417"><ele>686.0</ele><time>2026-04-23T15:08:47.5Z</time></trkpt><trkpt lat="39.7911183" lon="9.2066133"><ele>686.0</ele><time>2026-04-23T15:08:48.501Z</time></trkpt><trkpt lat="39.7910817" lon="9.20668"><ele>686.0</ele><time>2026-04-23T15:08:49.5Z</time></trkpt><trkpt lat="39.7910267" lon="9.2068017"><ele>683.0</ele><time>2026-04-23T15:08:51.501Z</time></trkpt><trkpt lat="39.791005" lon="9.2069133"><ele>680.0</ele><time>2026-04-23T15:08:53.501Z</time></trkpt><trkpt lat="39.7909567" lon="9.2069717"><ele>677.0</ele><time>2026-04-23T15:08:55.501Z</time></trkpt><trkpt lat="39.7909017" lon="9.2070617"><ele>674.0</ele><time>2026-04-23T15:12:10.502Z</time></trkpt><trkpt lat="39.790835" lon="9.2071583"><ele>671.0</ele><time>2026-04-23T15:12:13.502Z</time></trkpt><trkpt lat="39.7907717" lon="9.2072233"><ele>668.0</ele><time>2026-04-23T15:12:15.502Z</time></trkpt><trkpt lat="39.7906883" lon="9.207305"><ele>667.4</ele><time>2026-04-23T15:12:17.501Z</time></trkpt><trkpt lat="39.7906383" lon="9.207355"><ele>666.8</ele><time>2026-04-23T15:12:18.502Z</time></trkpt><trkpt lat="39.7905833" lon="9.2074033"><ele>666.2</ele><time>2026-04-23T15:12:19.501Z</time></trkpt><trkpt lat="39.790485" lon="9.20749"><ele>665.6</ele><time>2026-04-23T15:12:21.502Z</time></trkpt><trkpt lat="39.7903867" lon="9.2075617"><ele>665.0</ele><time>2026-04-23T15:12:23.501Z</time></trkpt><trkpt lat="39.7902917" lon="9.2076317"><ele>665.0</ele><time>2026-04-23T15:12:25.501Z</time></trkpt><trkpt lat="39.790195" lon="9.20771"><ele>665.0</ele><time>2026-04-23T15:12:27.502Z</time></trkpt><trkpt lat="39.7900867" lon="9.2077767"><ele>665.0</ele><time>2026-04-23T15:12:29.502Z</time></trkpt><trkpt lat="39.7899733" lon="9.20783"><ele>665.0</ele><time>2026-04-23T15:12:31.502Z</time></trkpt><trkpt lat="39.78986" lon="9.2078733"><ele>662.1666666666666</ele><time>2026-04-23T15:12:33.501Z</time></trkpt><trkpt lat="39.789735" lon="9.207895"><ele>659.3333333333333</ele><time>2026-04-23T15:12:35.501Z</time></trkpt><trkpt lat="39.789665" lon="9.2079133"><ele>656.5</ele><time>2026-04-23T15:12:36.502Z</time></trkpt><trkpt lat="39.7895933" lon="9.2079333"><ele>653.6666666666666</ele><time>2026-04-23T15:12:37.501Z</time></trkpt><trkpt lat="39.789525" lon="9.2079617"><ele>650.8333333333334</ele><time>2026-04-23T15:12:38.501Z</time></trkpt><trkpt lat="39.7894633" lon="9.2079867"><ele>648.0</ele><time>2026-04-23T15:12:39.502Z</time></trkpt><trkpt lat="39.7894" lon="9.208015"><ele>645.8</ele><time>2026-04-23T15:12:40.501Z</time></trkpt><trkpt lat="39.7892833" lon="9.2080483"><ele>643.5999999999999</ele><time>2026-04-23T15:12:42.501Z</time></trkpt><trkpt lat="39.78916" lon="9.208105"><ele>641.4000000000001</ele><time>2026-04-23T15:12:44.501Z</time></trkpt><trkpt lat="39.789095" lon="9.208145"><ele>639.2</ele><time>2026-04-23T15:12:45.502Z</time></trkpt><trkpt lat="39.7890333" lon="9.2081783"><ele>637.0</ele><time>2026-04-23T15:12:46.502Z</time></trkpt><trkpt lat="39.7889733" lon="9.20821"><ele>637.0</ele><time>2026-04-23T15:12:47.501Z</time></trkpt><trkpt lat="39.7889133" lon="9.208245"><ele>637.0</ele><time>2026-04-23T15:12:48.501Z</time></trkpt><trkpt lat="39.7888533" lon="9.20829"><ele>637.0</ele><time>2026-04-23T15:12:49.501Z</time></trkpt><trkpt lat="39.7887933" lon="9.2083167"><ele>637.0</ele><time>2026-04-23T15:12:50.502Z</time></trkpt><trkpt lat="39.788735" lon="9.2083533"><ele>637.0</ele><time>2026-04-23T15:12:51.502Z</time></trkpt><trkpt lat="39.788625" lon="9.2084033"><ele>637.0</ele><time>2026-04-23T15:12:53.501Z</time></trkpt><trkpt lat="39.7885217" lon="9.2084617"><ele>634.2</ele><time>2026-04-23T15:12:55.502Z</time></trkpt><trkpt lat="39.7884233" lon="9.2085383"><ele>631.4000000000001</ele><time>2026-04-23T15:12:57.501Z</time></trkpt><trkpt lat="39.7883267" lon="9.2086233"><ele>628.5999999999999</ele><time>2026-04-23T15:12:59.502Z</time></trkpt><trkpt lat="39.7882367" lon="9.20869"><ele>625.8</ele><time>2026-04-23T15:13:01.502Z</time></trkpt><trkpt lat="39.78815" lon="9.208765"><ele>623.0</ele><time>2026-04-23T15:13:03.501Z</time></trkpt><trkpt lat="39.78805" lon="9.2088433"><ele>623.0</ele><time>2026-04-23T15:13:05.501Z</time></trkpt><trkpt lat="39.787965" lon="9.2089333"><ele>623.0</ele><time>2026-04-23T15:13:07.502Z</time></trkpt><trkpt lat="39.78789" lon="9.20903"><ele>623.0</ele><time>2026-04-23T15:13:09.501Z</time></trkpt><trkpt lat="39.7878067" lon="9.2090817"><ele>623.0</ele><time>2026-04-23T15:13:11.501Z</time></trkpt><trkpt lat="39.7877183" lon="9.209135"><ele>623.0</ele><time>2026-04-23T15:13:13.502Z</time></trkpt><trkpt lat="39.78763" lon="9.2092167"><ele>620.25</ele><time>2026-04-23T15:13:15.501Z</time></trkpt><trkpt lat="39.78753" lon="9.2092783"><ele>617.5</ele><time>2026-04-23T15:13:17.502Z</time></trkpt><trkpt lat="39.7874283" lon="9.2093383"><ele>614.75</ele><time>2026-04-23T15:13:19.502Z</time></trkpt><trkpt lat="39.787315" lon="9.2093733"><ele>612.0</ele><time>2026-04-23T15:13:21.502Z</time></trkpt><trkpt lat="39.787205" lon="9.20943"><ele>612.0</ele><time>2026-04-23T15:13:23.501Z</time></trkpt><trkpt lat="39.7871117" lon="9.2094567"><ele>612.0</ele><time>2026-04-23T15:13:25.501Z</time></trkpt><trkpt lat="39.78699" lon="9.2094933"><ele>612.0</ele><time>2026-04-23T15:13:27.502Z</time></trkpt><trkpt lat="39.786925" lon="9.209525"><ele>612.0</ele><time>2026-04-23T15:13:28.502Z</time></trkpt><trkpt lat="39.7868567" lon="9.2095567"><ele>612.0</ele><time>2026-04-23T15:13:29.501Z</time></trkpt><trkpt lat="39.7867867" lon="9.2095917"><ele>612.0</ele><time>2026-04-23T15:13:30.501Z</time></trkpt><trkpt lat="39.7867133" lon="9.2096283"><ele>610.6666666666666</ele><time>2026-04-23T15:13:31.502Z</time></trkpt><trkpt lat="39.7866417" lon="9.2096633"><ele>609.3333333333334</ele><time>2026-04-23T15:13:32.501Z</time></trkpt><trkpt lat="39.7865683" lon="9.2096883"><ele>608.0</ele><time>2026-04-23T15:13:33.501Z</time></trkpt><trkpt lat="39.7864967" lon="9.2097217"><ele>606.6666666666667</ele><time>2026-04-23T15:13:34.501Z</time></trkpt><trkpt lat="39.78642" lon="9.2097483"><ele>605.3333333333334</ele><time>2026-04-23T15:13:35.502Z</time></trkpt><trkpt lat="39.7863367" lon="9.2097717"><ele>604.0</ele><time>2026-04-23T15:13:36.501Z</time></trkpt><trkpt lat="39.7862483" lon="9.20979"><ele>604.0000000000001</ele><time>2026-04-23T15:13:37.501Z</time></trkpt><trkpt lat="39.78617" lon="9.2098083"><ele>604.0</ele><time>2026-04-23T15:13:38.501Z</time></trkpt><trkpt lat="39.7861017" lon="9.209815"><ele>604.0</ele><time>2026-04-23T15:13:39.501Z</time></trkpt><trkpt lat="39.786035" lon="9.209815"><ele>604.0</ele><time>2026-04-23T15:13:40.501Z</time></trkpt><trkpt lat="39.78597" lon="9.2098183"><ele>604.0</ele><time>2026-04-23T15:13:41.501Z</time></trkpt><trkpt lat="39.7859067" lon="9.2098367"><ele>604.0000000000001</ele><time>2026-04-23T15:13:42.502Z</time></trkpt><trkpt lat="39.7858433" lon="9.2098567"><ele>604.0</ele><time>2026-04-23T15:13:43.502Z</time></trkpt><trkpt lat="39.7857567" lon="9.209915"><ele>603.0</ele><time>2026-04-23T15:13:45.501Z</time></trkpt><trkpt lat="39.7856883" lon="9.209965"><ele>602.0</ele><time>2026-04-23T15:13:47.502Z</time></trkpt><trkpt lat="39.785585" lon="9.2099933"><ele>601.0</ele><time>2026-04-23T15:13:49.501Z</time></trkpt><trkpt lat="39.7855217" lon="9.2100117"><ele>600.0</ele><time>2026-04-23T15:13:50.502Z</time></trkpt><trkpt lat="39.78545" lon="9.2100333"><ele>599.0</ele><time>2026-04-23T15:13:51.501Z</time></trkpt><trkpt lat="39.785375" lon="9.21006"><ele>598.0</ele><time>2026-04-23T15:13:52.501Z</time></trkpt><trkpt lat="39.785305" lon="9.2100867"><ele>598.0</ele><time>2026-04-23T15:13:53.501Z</time></trkpt><trkpt lat="39.7852367" lon="9.21012"><ele>598.0</ele><time>2026-04-23T15:13:54.502Z</time></trkpt><trkpt lat="39.785175" lon="9.2101517"><ele>598.0</ele><time>2026-04-23T15:13:55.502Z</time></trkpt><trkpt lat="39.7851133" lon="9.2101783"><ele>598.0</ele><time>2026-04-23T15:13:56.502Z</time></trkpt><trkpt lat="39.7850117" lon="9.2101983"><ele>598.0</ele><time>2026-04-23T15:13:58.501Z</time></trkpt><trkpt lat="39.7849233" lon="9.2101717"><ele>598.0</ele><time>2026-04-23T15:14:04.501Z</time></trkpt><trkpt lat="39.7848283" lon="9.2102117"><ele>597.5</ele><time>2026-04-23T15:14:06.502Z</time></trkpt><trkpt lat="39.78477" lon="9.21027"><ele>597.0</ele><time>2026-04-23T15:14:07.501Z</time></trkpt><trkpt lat="39.7846967" lon="9.2103267"><ele>596.5</ele><time>2026-04-23T15:14:08.502Z</time></trkpt><trkpt lat="39.7846217" lon="9.2103717"><ele>596.0</ele><time>2026-04-23T15:14:09.502Z</time></trkpt><trkpt lat="39.784545" lon="9.2104117"><ele>595.5</ele><time>2026-04-23T15:14:10.501Z</time></trkpt><trkpt lat="39.78447" lon="9.21044"><ele>595.0</ele><time>2026-04-23T15:14:11.501Z</time></trkpt><trkpt lat="39.784385" lon="9.2104583"><ele>594.1666666666667</ele><time>2026-04-23T15:14:12.502Z</time></trkpt><trkpt lat="39.784305" lon="9.2104717"><ele>593.3333333333334</ele><time>2026-04-23T15:14:13.501Z</time></trkpt><trkpt lat="39.7842283" lon="9.2104783"><ele>592.5</ele><time>2026-04-23T15:14:14.502Z</time></trkpt><trkpt lat="39.78415" lon="9.21048"><ele>591.6666666666666</ele><time>2026-04-23T15:14:15.502Z</time></trkpt><trkpt lat="39.784065" lon="9.2104733"><ele>590.8333333333333</ele><time>2026-04-23T15:14:16.501Z</time></trkpt><trkpt lat="39.7839717" lon="9.2104483"><ele>590.0</ele><time>2026-04-23T15:14:17.502Z</time></trkpt><trkpt lat="39.7838767" lon="9.2104033"><ele>590.0</ele><time>2026-04-23T15:14:18.501Z</time></trkpt><trkpt lat="39.7837767" lon="9.210355"><ele>590.0</ele><time>2026-04-23T15:14:19.502Z</time></trkpt><trkpt lat="39.7836683" lon="9.2103"><ele>590.0</ele><time>2026-04-23T15:14:20.502Z</time></trkpt><trkpt lat="39.7835567" lon="9.2102517"><ele>590.0</ele><time>2026-04-23T15:14:21.501Z</time></trkpt><trkpt lat="39.7834367" lon="9.2102033"><ele>590.25</ele><time>2026-04-23T15:14:22.501Z</time></trkpt><trkpt lat="39.7833183" lon="9.21015"><ele>590.5</ele><time>2026-04-23T15:14:23.501Z</time></trkpt><trkpt lat="39.7831917" lon="9.210105"><ele>590.75</ele><time>2026-04-23T15:14:24.502Z</time></trkpt><trkpt lat="39.7830617" lon="9.21005"><ele>591.0</ele><time>2026-04-23T15:14:25.502Z</time></trkpt><trkpt lat="39.7829317" lon="9.209995"><ele>591.0</ele><time>2026-04-23T15:14:26.502Z</time></trkpt><trkpt lat="39.7827983" lon="9.209935"><ele>591.0</ele><time>2026-04-23T15:14:27.502Z</time></trkpt><trkpt lat="39.7826667" lon="9.2098767"><ele>591.0</ele><time>2026-04-23T15:14:28.501Z</time></trkpt><trkpt lat="39.78253" lon="9.20982"><ele>591.0</ele><time>2026-04-23T15:14:29.502Z</time></trkpt><trkpt lat="39.782395" lon="9.2097633"><ele>592.0</ele><time>2026-04-23T15:14:30.501Z</time></trkpt><trkpt lat="39.7822583" lon="9.2097067"><ele>593.0</ele><time>2026-04-23T15:14:31.501Z</time></trkpt><trkpt lat="39.78212" lon="9.2096483"><ele>594.0</ele><time>2026-04-23T15:14:32.501Z</time></trkpt><trkpt lat="39.78198" lon="9.209585"><ele>595.0</ele><time>2026-04-23T15:14:33.502Z</time></trkpt><trkpt lat="39.781835" lon="9.20953"><ele>595.0</ele><time>2026-04-23T15:14:34.501Z</time></trkpt><trkpt lat="39.7816933" lon="9.20948"><ele>595.0</ele><time>2026-04-23T15:14:35.502Z</time></trkpt><trkpt lat="39.7815533" lon="9.2094217"><ele>595.0</ele><time>2026-04-23T15:14:36.502Z</time></trkpt><trkpt lat="39.7814067" lon="9.2093617"><ele>595.0</ele><time>2026-04-23T15:14:37.501Z</time></trkpt><trkpt lat="39.7812617" lon="9.2093033"><ele>595.0</ele><time>2026-04-23T15:14:38.501Z</time></trkpt><trkpt lat="39.7811067" lon="9.2092467"><ele>595.0</ele><time>2026-04-23T15:14:39.501Z</time></trkpt><trkpt lat="39.7809583" lon="9.20919"><ele>595.0</ele><time>2026-04-23T15:14:40.501Z</time></trkpt><trkpt lat="39.7808083" lon="9.209125"><ele>595.3333333333334</ele><time>2026-04-23T15:14:41.501Z</time></trkpt><trkpt lat="39.78066" lon="9.209065"><ele>595.6666666666666</ele><time>2026-04-23T15:14:42.501Z</time></trkpt><trkpt lat="39.7805133" lon="9.209"><ele>596.0</ele><time>2026-04-23T15:14:43.501Z</time></trkpt><trkpt lat="39.78037" lon="9.2089367"><ele>596.0</ele><time>2026-04-23T15:14:44.501Z</time></trkpt><trkpt lat="39.780215" lon="9.2088717"><ele>596.0</ele><time>2026-04-23T15:14:45.502Z</time></trkpt><trkpt lat="39.780065" lon="9.2087967"><ele>596.0</ele><time>2026-04-23T15:14:46.501Z</time></trkpt><trkpt lat="39.779915" lon="9.2087417"><ele>595.6666666666666</ele><time>2026-04-23T15:14:47.502Z</time></trkpt><trkpt lat="39.7797617" lon="9.20868"><ele>595.3333333333334</ele><time>2026-04-23T15:14:48.502Z</time></trkpt><trkpt lat="39.7796117" lon="9.20862"><ele>595.0</ele><time>2026-04-23T15:14:49.502Z</time></trkpt><trkpt lat="39.7794583" lon="9.2085583"><ele>594.0</ele><time>2026-04-23T15:14:50.501Z</time></trkpt><trkpt lat="39.779305" lon="9.208495"><ele>593.0</ele><time>2026-04-23T15:14:51.501Z</time></trkpt><trkpt lat="39.7791433" lon="9.2084283"><ele>592.0</ele><time>2026-04-23T15:14:52.502Z</time></trkpt><trkpt lat="39.7789817" lon="9.2083583"><ele>592.0</ele><time>2026-04-23T15:14:53.501Z</time></trkpt><trkpt lat="39.77882" lon="9.208295"><ele>592.0</ele><time>2026-04-23T15:14:54.502Z</time></trkpt><trkpt lat="39.7786633" lon="9.208225"><ele>592.0</ele><time>2026-04-23T15:14:55.501Z</time></trkpt><trkpt lat="39.7785033" lon="9.20816"><ele>589.3333333333334</ele><time>2026-04-23T15:14:56.502Z</time></trkpt><trkpt lat="39.7783433" lon="9.20809"><ele>586.6666666666666</ele><time>2026-04-23T15:14:57.501Z</time></trkpt><trkpt lat="39.778185" lon="9.2080183"><ele>584.0</ele><time>2026-04-23T15:14:58.502Z</time></trkpt><trkpt lat="39.7780217" lon="9.2079583"><ele>584.0</ele><time>2026-04-23T15:14:59.501Z</time></trkpt><trkpt lat="39.7778617" lon="9.2079083"><ele>584.0</ele><time>2026-04-23T15:15:00.501Z</time></trkpt><trkpt lat="39.777695" lon="9.2078783"><ele>584.0</ele><time>2026-04-23T15:15:01.502Z</time></trkpt><trkpt lat="39.7775283" lon="9.2078733"><ele>582.0</ele><time>2026-04-23T15:15:02.502Z</time></trkpt><trkpt lat="39.7773683" lon="9.2078833"><ele>580.0</ele><time>2026-04-23T15:15:03.502Z</time></trkpt><trkpt lat="39.7772067" lon="9.2079183"><ele>578.0</ele><time>2026-04-23T15:15:04.502Z</time></trkpt><trkpt lat="39.777055" lon="9.20797"><ele>578.0</ele><time>2026-04-23T15:15:05.502Z</time></trkpt><trkpt lat="39.7769" lon="9.2080517"><ele>578.0</ele><time>2026-04-23T15:15:06.501Z</time></trkpt><trkpt lat="39.7767517" lon="9.2081483"><ele>578.0</ele><time>2026-04-23T15:15:07.502Z</time></trkpt><trkpt lat="39.7766167" lon="9.208255"><ele>577.25</ele><time>2026-04-23T15:15:08.502Z</time></trkpt><trkpt lat="39.7764967" lon="9.20837"><ele>576.5</ele><time>2026-04-23T15:15:09.502Z</time></trkpt><trkpt lat="39.7763833" lon="9.2084917"><ele>575.75</ele><time>2026-04-23T15:15:10.501Z</time></trkpt><trkpt lat="39.776275" lon="9.2086033"><ele>575.0</ele><time>2026-04-23T15:15:11.501Z</time></trkpt><trkpt lat="39.7761717" lon="9.2087217"><ele>575.0</ele><time>2026-04-23T15:15:12.501Z</time></trkpt><trkpt lat="39.7760817" lon="9.2088333"><ele>575.0</ele><time>2026-04-23T15:15:13.501Z</time></trkpt><trkpt lat="39.7759883" lon="9.2089367"><ele>575.0</ele><time>2026-04-23T15:15:14.502Z</time></trkpt><trkpt lat="39.7758933" lon="9.2090333"><ele>575.0</ele><time>2026-04-23T15:15:15.501Z</time></trkpt><trkpt lat="39.7758033" lon="9.2091367"><ele>572.0</ele><time>2026-04-23T15:15:16.502Z</time></trkpt><trkpt lat="39.7757217" lon="9.2092383"><ele>569.0</ele><time>2026-04-23T15:15:17.502Z</time></trkpt><trkpt lat="39.77565" lon="9.2093533"><ele>566.0</ele><time>2026-04-23T15:15:18.502Z</time></trkpt><trkpt lat="39.7755917" lon="9.2094933"><ele>563.0</ele><time>2026-04-23T15:15:19.501Z</time></trkpt><trkpt lat="39.775545" lon="9.20964"><ele>563.0</ele><time>2026-04-23T15:15:20.502Z</time></trkpt><trkpt lat="39.7755133" lon="9.2097967"><ele>563.0</ele><time>2026-04-23T15:15:21.501Z</time></trkpt><trkpt lat="39.775505" lon="9.20997"><ele>563.0</ele><time>2026-04-23T15:15:22.501Z</time></trkpt><trkpt lat="39.77551" lon="9.210145"><ele>563.0</ele><time>2026-04-23T15:15:23.501Z</time></trkpt><trkpt lat="39.7755367" lon="9.21031"><ele>562.25</ele><time>2026-04-23T15:15:24.501Z</time></trkpt><trkpt lat="39.7755783" lon="9.2104717"><ele>561.5</ele><time>2026-04-23T15:15:25.502Z</time></trkpt><trkpt lat="39.7756367" lon="9.2106233"><ele>560.75</ele><time>2026-04-23T15:15:26.502Z</time></trkpt><trkpt lat="39.7757133" lon="9.210765"><ele>560.0</ele><time>2026-04-23T15:15:27.501Z</time></trkpt><trkpt lat="39.7758033" lon="9.210895"><ele>560.0</ele><time>2026-04-23T15:15:28.502Z</time></trkpt><trkpt lat="39.7759133" lon="9.2110117"><ele>560.0</ele><time>2026-04-23T15:15:29.502Z</time></trkpt><trkpt lat="39.7760283" lon="9.2111133"><ele>560.0</ele><time>2026-04-23T15:15:30.501Z</time></trkpt><trkpt lat="39.7761517" lon="9.211215"><ele>560.0</ele><time>2026-04-23T15:15:31.502Z</time></trkpt><trkpt lat="39.7762733" lon="9.2113083"><ele>559.5</ele><time>2026-04-23T15:15:32.502Z</time></trkpt><trkpt lat="39.776385" lon="9.2114083"><ele>559.0</ele><time>2026-04-23T15:15:33.501Z</time></trkpt><trkpt lat="39.7764933" lon="9.211505"><ele>558.5</ele><time>2026-04-23T15:15:34.502Z</time></trkpt><trkpt lat="39.7765983" lon="9.2115817"><ele>558.0</ele><time>2026-04-23T15:15:35.502Z</time></trkpt><trkpt lat="39.7766967" lon="9.2116517"><ele>558.0</ele><time>2026-04-23T15:15:36.502Z</time></trkpt><trkpt lat="39.7767867" lon="9.2117117"><ele>558.0</ele><time>2026-04-23T15:15:37.502Z</time></trkpt><trkpt lat="39.776875" lon="9.211765"><ele>558.0</ele><time>2026-04-23T15:15:38.502Z</time></trkpt><trkpt lat="39.77695" lon="9.2118067"><ele>558.0</ele><time>2026-04-23T15:15:39.501Z</time></trkpt><trkpt lat="39.7770183" lon="9.2118567"><ele>558.0</ele><time>2026-04-23T15:15:40.502Z</time></trkpt><trkpt lat="39.7770767" lon="9.2119017"><ele>558.0</ele><time>2026-04-23T15:15:41.502Z</time></trkpt><trkpt lat="39.7771233" lon="9.21205"><ele>558.0</ele><time>2026-04-23T15:15:43.502Z</time></trkpt><trkpt lat="39.7771117" lon="9.2121333"><ele>558.0</ele><time>2026-04-23T15:15:44.501Z</time></trkpt><trkpt lat="39.7770317" lon="9.2122367"><ele>558.0</ele><time>2026-04-23T15:15:46.501Z</time></trkpt><trkpt lat="39.7769017" lon="9.212225"><ele>558.0</ele><time>2026-04-23T15:15:52.502Z</time></trkpt><trkpt lat="39.776815" lon="9.2121883"><ele>558.0</ele><time>2026-04-23T15:15:53.501Z</time></trkpt><trkpt lat="39.77672" lon="9.21214"><ele>558.0</ele><time>2026-04-23T15:15:54.502Z</time></trkpt><trkpt lat="39.77663" lon="9.2120967"><ele>558.0</ele><time>2026-04-23T15:15:55.501Z</time></trkpt><trkpt lat="39.7765333" lon="9.2120533"><ele>558.0</ele><time>2026-04-23T15:15:56.501Z</time></trkpt><trkpt lat="39.7764433" lon="9.212015"><ele>558.0</ele><time>2026-04-23T15:15:57.501Z</time></trkpt><trkpt lat="39.7763517" lon="9.2119783"><ele>558.0</ele><time>2026-04-23T15:15:58.502Z</time></trkpt><trkpt lat="39.7762583" lon="9.21195"><ele>558.0</ele><time>2026-04-23T15:15:59.502Z</time></trkpt><trkpt lat="39.776155" lon="9.211935"><ele>558.0</ele><time>2026-04-23T15:16:00.501Z</time></trkpt><trkpt lat="39.7760483" lon="9.2119283"><ele>558.0</ele><time>2026-04-23T15:16:01.501Z</time></trkpt><trkpt lat="39.775945" lon="9.21192"><ele>558.0</ele><time>2026-04-23T15:16:02.502Z</time></trkpt><trkpt lat="39.7758383" lon="9.211915"><ele>558.0</ele><time>2026-04-23T15:16:03.501Z</time></trkpt><trkpt lat="39.7757283" lon="9.2119183"><ele>554.8</ele><time>2026-04-23T15:16:04.501Z</time></trkpt><trkpt lat="39.775625" lon="9.211915"><ele>551.5999999999999</ele><time>2026-04-23T15:16:05.502Z</time></trkpt><trkpt lat="39.7755233" lon="9.2119133"><ele>548.4000000000001</ele><time>2026-04-23T15:16:06.502Z</time></trkpt><trkpt lat="39.775415" lon="9.2119"><ele>545.2</ele><time>2026-04-23T15:16:07.501Z</time></trkpt><trkpt lat="39.7753067" lon="9.2118933"><ele>542.0</ele><time>2026-04-23T15:16:08.501Z</time></trkpt><trkpt lat="39.7751983" lon="9.2118917"><ele>539.6</ele><time>2026-04-23T15:16:09.501Z</time></trkpt><trkpt lat="39.7750917" lon="9.2118867"><ele>537.2</ele><time>2026-04-23T15:16:10.501Z</time></trkpt><trkpt lat="39.7749833" lon="9.2118717"><ele>534.8</ele><time>2026-04-23T15:16:11.502Z</time></trkpt><trkpt lat="39.7748817" lon="9.21185"><ele>532.4</ele><time>2026-04-23T15:16:12.501Z</time></trkpt><trkpt lat="39.7747933" lon="9.2118183"><ele>530.0</ele><time>2026-04-23T15:16:13.502Z</time></trkpt><trkpt lat="39.7747167" lon="9.2117467"><ele>530.0</ele><time>2026-04-23T15:16:14.501Z</time></trkpt><trkpt lat="39.7746467" lon="9.21167"><ele>530.0</ele><time>2026-04-23T15:16:15.501Z</time></trkpt><trkpt lat="39.77458" lon="9.2115917"><ele>530.0</ele><time>2026-04-23T15:16:16.501Z</time></trkpt><trkpt lat="39.77452" lon="9.211485"><ele>530.0</ele><time>2026-04-23T15:16:17.501Z</time></trkpt><trkpt lat="39.7744733" lon="9.2113667"><ele>530.0</ele><time>2026-04-23T15:16:18.502Z</time></trkpt><trkpt lat="39.77444" lon="9.21123"><ele>532.5</ele><time>2026-04-23T15:16:19.502Z</time></trkpt><trkpt lat="39.7744233" lon="9.2110733"><ele>535.0</ele><time>2026-04-23T15:16:20.501Z</time></trkpt><trkpt lat="39.774415" lon="9.2108967"><ele>537.5</ele><time>2026-04-23T15:16:21.501Z</time></trkpt><trkpt lat="39.77441" lon="9.2106933"><ele>540.0</ele><time>2026-04-23T15:16:22.501Z</time></trkpt><trkpt lat="39.7744067" lon="9.210475"><ele>540.3333333333334</ele><time>2026-04-23T15:16:23.502Z</time></trkpt><trkpt lat="39.7744083" lon="9.2102467"><ele>540.6666666666667</ele><time>2026-04-23T15:16:24.502Z</time></trkpt><trkpt lat="39.7744167" lon="9.2099983"><ele>541.0</ele><time>2026-04-23T15:16:25.502Z</time></trkpt><trkpt lat="39.774425" lon="9.2097467"><ele>538.6666666666667</ele><time>2026-04-23T15:16:26.501Z</time></trkpt><trkpt lat="39.7744367" lon="9.2094983"><ele>536.3333333333334</ele><time>2026-04-23T15:16:27.502Z</time></trkpt><trkpt lat="39.7744417" lon="9.2092533"><ele>534.0</ele><time>2026-04-23T15:16:28.502Z</time></trkpt><trkpt lat="39.7744467" lon="9.2090133"><ele>532.0</ele><time>2026-04-23T15:16:29.502Z</time></trkpt><trkpt lat="39.7744517" lon="9.208785"><ele>530.0</ele><time>2026-04-23T15:16:30.501Z</time></trkpt><trkpt lat="39.774455" lon="9.2085817"><ele>528.0</ele><time>2026-04-23T15:16:31.501Z</time></trkpt><trkpt lat="39.7744483" lon="9.2083933"><ele>528.0</ele><time>2026-04-23T15:16:32.501Z</time></trkpt><trkpt lat="39.7744217" lon="9.2082167"><ele>528.0</ele><time>2026-04-23T15:16:33.502Z</time></trkpt><trkpt lat="39.7743667" lon="9.20806"><ele>528.0</ele><time>2026-04-23T15:16:34.501Z</time></trkpt><trkpt lat="39.77428" lon="9.2079283"><ele>528.0</ele><time>2026-04-23T15:16:35.501Z</time></trkpt><trkpt lat="39.774155" lon="9.20784"><ele>525.0</ele><time>2026-04-23T15:16:36.501Z</time></trkpt><trkpt lat="39.774015" lon="9.20779"><ele>522.0</ele><time>2026-04-23T15:16:37.502Z</time></trkpt><trkpt lat="39.7738683" lon="9.20775"><ele>519.0</ele><time>2026-04-23T15:16:38.501Z</time></trkpt><trkpt lat="39.7737267" lon="9.2077"><ele>516.0</ele><time>2026-04-23T15:16:39.501Z</time></trkpt><trkpt lat="39.7735883" lon="9.20762"><ele>512.3333333333334</ele><time>2026-04-23T15:16:40.501Z</time></trkpt><trkpt lat="39.7734567" lon="9.2075067"><ele>508.6666666666667</ele><time>2026-04-23T15:16:41.502Z</time></trkpt><trkpt lat="39.7733233" lon="9.2073767"><ele>505.0</ele><time>2026-04-23T15:16:42.502Z</time></trkpt><trkpt lat="39.77319" lon="9.2072517"><ele>505.0</ele><time>2026-04-23T15:16:43.502Z</time></trkpt><trkpt lat="39.7730583" lon="9.2071217"><ele>505.0</ele><time>2026-04-23T15:16:44.501Z</time></trkpt><trkpt lat="39.7729333" lon="9.2070017"><ele>505.0</ele><time>2026-04-23T15:16:45.501Z</time></trkpt><trkpt lat="39.7728183" lon="9.2068883"><ele>505.0</ele><time>2026-04-23T15:16:46.501Z</time></trkpt><trkpt lat="39.7727017" lon="9.20676"><ele>505.0</ele><time>2026-04-23T15:16:47.502Z</time></trkpt><trkpt lat="39.7725833" lon="9.20662"><ele>505.0</ele><time>2026-04-23T15:16:48.502Z</time></trkpt><trkpt lat="39.7724733" lon="9.206465"><ele>498.0</ele><time>2026-04-23T15:16:49.501Z</time></trkpt><trkpt lat="39.7723667" lon="9.206295"><ele>491.0</ele><time>2026-04-23T15:16:50.501Z</time></trkpt><trkpt lat="39.7722567" lon="9.2061133"><ele>484.0</ele><time>2026-04-23T15:16:51.501Z</time></trkpt><trkpt lat="39.7721383" lon="9.205925"><ele>484.0</ele><time>2026-04-23T15:16:52.502Z</time></trkpt><trkpt lat="39.7720217" lon="9.20573"><ele>484.0</ele><time>2026-04-23T15:16:53.501Z</time></trkpt><trkpt lat="39.771905" lon="9.20554"><ele>484.0</ele><time>2026-04-23T15:16:54.502Z</time></trkpt><trkpt lat="39.7717883" lon="9.2053667"><ele>480.6666666666667</ele><time>2026-04-23T15:16:55.501Z</time></trkpt><trkpt lat="39.7716767" lon="9.2051983"><ele>477.33333333333337</ele><time>2026-04-23T15:16:56.501Z</time></trkpt><trkpt lat="39.77157" lon="9.205035"><ele>474.0</ele><time>2026-04-23T15:16:57.501Z</time></trkpt><trkpt lat="39.77147" lon="9.2048783"><ele>475.25</ele><time>2026-04-23T15:16:58.502Z</time></trkpt><trkpt lat="39.7713783" lon="9.2047283"><ele>476.5</ele><time>2026-04-23T15:16:59.501Z</time></trkpt><trkpt lat="39.7712883" lon="9.2045867"><ele>477.75</ele><time>2026-04-23T15:17:00.502Z</time></trkpt><trkpt lat="39.77121" lon="9.2044633"><ele>479.0</ele><time>2026-04-23T15:17:01.501Z</time></trkpt><trkpt lat="39.771125" lon="9.20438"><ele>478.99999999999994</ele><time>2026-04-23T15:17:02.502Z</time></trkpt><trkpt lat="39.7710367" lon="9.2043383"><ele>479.0</ele><time>2026-04-23T15:17:03.502Z</time></trkpt><trkpt lat="39.7709467" lon="9.2043467"><ele>479.0</ele><time>2026-04-23T15:17:04.502Z</time></trkpt><trkpt lat="39.7708667" lon="9.204405"><ele>479.0</ele><time>2026-04-23T15:17:05.501Z</time></trkpt><trkpt lat="39.770815" lon="9.20449"><ele>478.99999999999994</ele><time>2026-04-23T15:17:06.501Z</time></trkpt><trkpt lat="39.7708" lon="9.204595"><ele>479.0</ele><time>2026-04-23T15:17:07.502Z</time></trkpt><trkpt lat="39.7708467" lon="9.2047267"><ele>477.75</ele><time>2026-04-23T15:17:08.502Z</time></trkpt><trkpt lat="39.7709283" lon="9.204845"><ele>476.5</ele><time>2026-04-23T15:17:09.501Z</time></trkpt><trkpt lat="39.7710167" lon="9.2049567"><ele>475.25</ele><time>2026-04-23T15:17:10.502Z</time></trkpt><trkpt lat="39.7711133" lon="9.205075"><ele>474.0</ele><time>2026-04-23T15:17:11.501Z</time></trkpt><trkpt lat="39.7712017" lon="9.2052033"><ele>474.0</ele><time>2026-04-23T15:17:12.501Z</time></trkpt><trkpt lat="39.77126" lon="9.2053433"><ele>474.0</ele><time>2026-04-23T15:17:13.502Z</time></trkpt><trkpt lat="39.7712883" lon="9.2054883"><ele>474.0</ele><time>2026-04-23T15:17:14.501Z</time></trkpt><trkpt lat="39.771285" lon="9.205645"><ele>474.0</ele><time>2026-04-23T15:17:15.501Z</time></trkpt><trkpt lat="39.7712517" lon="9.20581"><ele>470.75</ele><time>2026-04-23T15:17:16.502Z</time></trkpt><trkpt lat="39.7712" lon="9.205975"><ele>467.5</ele><time>2026-04-23T15:17:17.501Z</time></trkpt><trkpt lat="39.7711467" lon="9.2061383"><ele>464.25</ele><time>2026-04-23T15:17:18.502Z</time></trkpt><trkpt lat="39.7711" lon="9.2062967"><ele>461.0</ele><time>2026-04-23T15:17:19.501Z</time></trkpt><trkpt lat="39.7710683" lon="9.2064683"><ele>459.5</ele><time>2026-04-23T15:17:20.502Z</time></trkpt><trkpt lat="39.7710467" lon="9.2066517"><ele>458.0</ele><time>2026-04-23T15:17:21.501Z</time></trkpt><trkpt lat="39.7710467" lon="9.2068467"><ele>456.5</ele><time>2026-04-23T15:17:22.502Z</time></trkpt><trkpt lat="39.7710717" lon="9.20704"><ele>455.0</ele><time>2026-04-23T15:17:23.502Z</time></trkpt><trkpt lat="39.77112" lon="9.2072367"><ele>452.0</ele><time>2026-04-23T15:17:24.502Z</time></trkpt><trkpt lat="39.7711917" lon="9.2074233"><ele>449.0</ele><time>2026-04-23T15:17:25.501Z</time></trkpt><trkpt lat="39.771265" lon="9.2075967"><ele>446.0</ele><time>2026-04-23T15:17:26.501Z</time></trkpt><trkpt lat="39.7713283" lon="9.20777"><ele>446.0</ele><time>2026-04-23T15:17:27.502Z</time></trkpt><trkpt lat="39.7713683" lon="9.2079533"><ele>446.0</ele><time>2026-04-23T15:17:28.501Z</time></trkpt><trkpt lat="39.7713833" lon="9.2081367"><ele>446.0</ele><time>2026-04-23T15:17:29.501Z</time></trkpt><trkpt lat="39.7713733" lon="9.20831"><ele>446.0</ele><time>2026-04-23T15:17:30.502Z</time></trkpt><trkpt lat="39.7713367" lon="9.2084867"><ele>443.0</ele><time>2026-04-23T15:17:31.502Z</time></trkpt><trkpt lat="39.7712733" lon="9.2086583"><ele>440.0</ele><time>2026-04-23T15:17:32.502Z</time></trkpt><trkpt lat="39.77118" lon="9.2088133"><ele>437.0</ele><time>2026-04-23T15:17:33.501Z</time></trkpt><trkpt lat="39.7710683" lon="9.208955"><ele>432.66666666666663</ele><time>2026-04-23T15:17:34.501Z</time></trkpt><trkpt lat="39.7709417" lon="9.2090967"><ele>428.33333333333337</ele><time>2026-04-23T15:17:35.501Z</time></trkpt><trkpt lat="39.7708117" lon="9.2092433"><ele>424.0</ele><time>2026-04-23T15:17:36.502Z</time></trkpt><trkpt lat="39.770685" lon="9.209395"><ele>424.0</ele><time>2026-04-23T15:17:37.501Z</time></trkpt><trkpt lat="39.7705567" lon="9.209555"><ele>424.0</ele><time>2026-04-23T15:17:38.501Z</time></trkpt><trkpt lat="39.77043" lon="9.2097083"><ele>424.0</ele><time>2026-04-23T15:17:39.501Z</time></trkpt><trkpt lat="39.7703033" lon="9.20986"><ele>422.33333333333337</ele><time>2026-04-23T15:17:40.501Z</time></trkpt><trkpt lat="39.7701733" lon="9.2100183"><ele>420.66666666666663</ele><time>2026-04-23T15:17:41.501Z</time></trkpt><trkpt lat="39.7700467" lon="9.2101767"><ele>419.0</ele><time>2026-04-23T15:17:42.502Z</time></trkpt><trkpt lat="39.7699183" lon="9.21033"><ele>419.0</ele><time>2026-04-23T15:17:43.502Z</time></trkpt><trkpt lat="39.7698" lon="9.21047"><ele>419.0</ele><time>2026-04-23T15:17:44.502Z</time></trkpt><trkpt lat="39.7696867" lon="9.2106"><ele>419.0</ele><time>2026-04-23T15:17:45.501Z</time></trkpt><trkpt lat="39.7695517" lon="9.2107367"><ele>416.66666666666663</ele><time>2026-04-23T15:17:46.502Z</time></trkpt><trkpt lat="39.7694083" lon="9.2108567"><ele>414.33333333333337</ele><time>2026-04-23T15:17:47.501Z</time></trkpt><trkpt lat="39.76925" lon="9.2109717"><ele>412.0</ele><time>2026-04-23T15:17:48.502Z</time></trkpt><trkpt lat="39.76909" lon="9.2110717"><ele>412.0</ele><time>2026-04-23T15:17:49.502Z</time></trkpt><trkpt lat="39.768925" lon="9.211175"><ele>412.0</ele><time>2026-04-23T15:17:50.502Z</time></trkpt><trkpt lat="39.7687717" lon="9.21127"><ele>412.0</ele><time>2026-04-23T15:17:51.501Z</time></trkpt><trkpt lat="39.76861" lon="9.2113733"><ele>414.0</ele><time>2026-04-23T15:17:52.501Z</time></trkpt><trkpt lat="39.76845" lon="9.2114683"><ele>416.0</ele><time>2026-04-23T15:17:53.501Z</time></trkpt><trkpt lat="39.768295" lon="9.211565"><ele>418.0</ele><time>2026-04-23T15:17:54.501Z</time></trkpt><trkpt lat="39.768135" lon="9.2116567"><ele>414.0</ele><time>2026-04-23T15:17:55.501Z</time></trkpt><trkpt lat="39.7679717" lon="9.2117533"><ele>410.0</ele><time>2026-04-23T15:17:56.501Z</time></trkpt><trkpt lat="39.7678117" lon="9.2118517"><ele>406.0</ele><time>2026-04-23T15:17:57.502Z</time></trkpt><trkpt lat="39.7676533" lon="9.2119467"><ele>406.0</ele><time>2026-04-23T15:17:58.502Z</time></trkpt><trkpt lat="39.7675033" lon="9.2120417"><ele>406.0</ele><time>2026-04-23T15:17:59.502Z</time></trkpt><trkpt lat="39.76737" lon="9.2121233"><ele>406.0</ele><time>2026-04-23T15:18:00.501Z</time></trkpt><trkpt lat="39.7672433" lon="9.212195"><ele>406.0</ele><time>2026-04-23T15:18:01.502Z</time></trkpt><trkpt lat="39.767115" lon="9.21225"><ele>406.0</ele><time>2026-04-23T15:18:02.501Z</time></trkpt><trkpt lat="39.76698" lon="9.2123017"><ele>406.0</ele><time>2026-04-23T15:18:03.501Z</time></trkpt><trkpt lat="39.7668367" lon="9.2123267"><ele>406.0</ele><time>2026-04-23T15:18:04.502Z</time></trkpt><trkpt lat="39.7666883" lon="9.21233"><ele>404.33333333333337</ele><time>2026-04-23T15:18:05.502Z</time></trkpt><trkpt lat="39.76653" lon="9.2123167"><ele>402.66666666666663</ele><time>2026-04-23T15:18:06.502Z</time></trkpt><trkpt lat="39.76637" lon="9.2123317"><ele>401.0</ele><time>2026-04-23T15:18:07.502Z</time></trkpt><trkpt lat="39.766205" lon="9.212385"><ele>398.66666666666663</ele><time>2026-04-23T15:18:08.501Z</time></trkpt><trkpt lat="39.7660483" lon="9.21247"><ele>396.33333333333337</ele><time>2026-04-23T15:18:09.501Z</time></trkpt><trkpt lat="39.7659" lon="9.2125833"><ele>394.0</ele><time>2026-04-23T15:18:10.501Z</time></trkpt><trkpt lat="39.7657683" lon="9.2127217"><ele>393.6666666666667</ele><time>2026-04-23T15:18:11.501Z</time></trkpt><trkpt lat="39.7656633" lon="9.212875"><ele>393.33333333333337</ele><time>2026-04-23T15:18:12.501Z</time></trkpt><trkpt lat="39.765575" lon="9.2130533"><ele>393.0</ele><time>2026-04-23T15:18:13.501Z</time></trkpt><trkpt lat="39.7655017" lon="9.2132533"><ele>391.33333333333337</ele><time>2026-04-23T15:18:14.502Z</time></trkpt><trkpt lat="39.7654433" lon="9.2134467"><ele>389.6666666666667</ele><time>2026-04-23T15:18:15.501Z</time></trkpt><trkpt lat="39.7654033" lon="9.2136283"><ele>388.0</ele><time>2026-04-23T15:18:16.501Z</time></trkpt><trkpt lat="39.7653617" lon="9.213815"><ele>385.75</ele><time>2026-04-23T15:18:17.502Z</time></trkpt><trkpt lat="39.7653217" lon="9.2139967"><ele>383.5</ele><time>2026-04-23T15:18:18.501Z</time></trkpt><trkpt lat="39.7652817" lon="9.2141767"><ele>381.25</ele><time>2026-04-23T15:18:19.502Z</time></trkpt><trkpt lat="39.7652417" lon="9.21436"><ele>379.0</ele><time>2026-04-23T15:18:20.501Z</time></trkpt><trkpt lat="39.7651967" lon="9.2145417"><ele>379.66666666666663</ele><time>2026-04-23T15:18:21.501Z</time></trkpt><trkpt lat="39.76512" lon="9.2147117"><ele>380.3333333333333</ele><time>2026-04-23T15:18:22.502Z</time></trkpt><trkpt lat="39.7650167" lon="9.21488"><ele>381.0</ele><time>2026-04-23T15:18:23.501Z</time></trkpt><trkpt lat="39.764885" lon="9.2150233"><ele>381.0</ele><time>2026-04-23T15:18:24.501Z</time></trkpt><trkpt lat="39.76474" lon="9.215135"><ele>381.0</ele><time>2026-04-23T15:18:25.502Z</time></trkpt><trkpt lat="39.76458" lon="9.2152183"><ele>381.0</ele><time>2026-04-23T15:18:26.501Z</time></trkpt><trkpt lat="39.7644317" lon="9.215275"><ele>380.75</ele><time>2026-04-23T15:18:27.502Z</time></trkpt><trkpt lat="39.7643017" lon="9.215315"><ele>380.5</ele><time>2026-04-23T15:18:28.502Z</time></trkpt><trkpt lat="39.7641817" lon="9.2153267"><ele>380.25</ele><time>2026-04-23T15:18:29.501Z</time></trkpt><trkpt lat="39.76407" lon="9.21531"><ele>380.0</ele><time>2026-04-23T15:18:30.502Z</time></trkpt><trkpt lat="39.76397" lon="9.215275"><ele>380.0</ele><time>2026-04-23T15:18:31.502Z</time></trkpt><trkpt lat="39.763885" lon="9.2152533"><ele>380.0</ele><time>2026-04-23T15:18:32.501Z</time></trkpt><trkpt lat="39.7638117" lon="9.2152517"><ele>380.0</ele><time>2026-04-23T15:18:33.501Z</time></trkpt><trkpt lat="39.763745" lon="9.21527"><ele>380.0</ele><time>2026-04-23T15:18:34.502Z</time></trkpt><trkpt lat="39.76365" lon="9.215345"><ele>380.0</ele><time>2026-04-23T15:18:36.502Z</time></trkpt><trkpt lat="39.7636017" lon="9.215445"><ele>380.0</ele><time>2026-04-23T15:18:38.502Z</time></trkpt><trkpt lat="39.7635883" lon="9.2155817"><ele>379.33333333333337</ele><time>2026-04-23T15:18:45.502Z</time></trkpt><trkpt lat="39.763605" lon="9.2156733"><ele>378.6666666666667</ele><time>2026-04-23T15:18:46.501Z</time></trkpt><trkpt lat="39.7636333" lon="9.2157717"><ele>378.0</ele><time>2026-04-23T15:18:47.501Z</time></trkpt><trkpt lat="39.76367" lon="9.2158817"><ele>377.3333333333333</ele><time>2026-04-23T15:18:48.501Z</time></trkpt><trkpt lat="39.763715" lon="9.2159917"><ele>376.66666666666663</ele><time>2026-04-23T15:18:49.502Z</time></trkpt><trkpt lat="39.7637683" lon="9.2161083"><ele>376.0</ele><time>2026-04-23T15:18:50.502Z</time></trkpt><trkpt lat="39.7638183" lon="9.2162217"><ele>376.0</ele><time>2026-04-23T15:18:51.501Z</time></trkpt><trkpt lat="39.7638683" lon="9.216345"><ele>376.0</ele><time>2026-04-23T15:18:52.502Z</time></trkpt><trkpt lat="39.763915" lon="9.21646"><ele>376.0</ele><time>2026-04-23T15:18:53.501Z</time></trkpt><trkpt lat="39.7639633" lon="9.2165733"><ele>376.0</ele><time>2026-04-23T15:18:54.501Z</time></trkpt><trkpt lat="39.7640083" lon="9.21669"><ele>376.0</ele><time>2026-04-23T15:18:55.502Z</time></trkpt><trkpt lat="39.764075" lon="9.216795"><ele>375.0</ele><time>2026-04-23T15:18:56.502Z</time></trkpt><trkpt lat="39.7641683" lon="9.2168933"><ele>374.0</ele><time>2026-04-23T15:18:57.501Z</time></trkpt><trkpt lat="39.7642833" lon="9.2169617"><ele>373.0</ele><time>2026-04-23T15:18:58.502Z</time></trkpt><trkpt lat="39.7644067" lon="9.2169883"><ele>372.0</ele><time>2026-04-23T15:18:59.501Z</time></trkpt><trkpt lat="39.7645233" lon="9.2169717"><ele>370.75</ele><time>2026-04-23T15:19:00.501Z</time></trkpt><trkpt lat="39.7646483" lon="9.2169183"><ele>369.5</ele><time>2026-04-23T15:19:01.501Z</time></trkpt><trkpt lat="39.7647583" lon="9.2168217"><ele>368.25</ele><time>2026-04-23T15:19:02.501Z</time></trkpt><trkpt lat="39.7648783" lon="9.2167067"><ele>367.0</ele><time>2026-04-23T15:19:03.501Z</time></trkpt><trkpt lat="39.7650017" lon="9.216605"><ele>367.0</ele><time>2026-04-23T15:19:04.502Z</time></trkpt><trkpt lat="39.7651317" lon="9.21652"><ele>367.0</ele><time>2026-04-23T15:19:05.502Z</time></trkpt><trkpt lat="39.76526" lon="9.2164617"><ele>367.0</ele><time>2026-04-23T15:19:06.502Z</time></trkpt><trkpt lat="39.765375" lon="9.21644"><ele>367.0</ele><time>2026-04-23T15:19:07.501Z</time></trkpt><trkpt lat="39.7654883" lon="9.21641"><ele>367.8</ele><time>2026-04-23T15:19:08.502Z</time></trkpt><trkpt lat="39.765605" lon="9.2163617"><ele>368.6</ele><time>2026-04-23T15:19:09.502Z</time></trkpt><trkpt lat="39.7656967" lon="9.21628"><ele>369.40000000000003</ele><time>2026-04-23T15:19:10.501Z</time></trkpt><trkpt lat="39.7657517" lon="9.2161617"><ele>370.20000000000005</ele><time>2026-04-23T15:19:11.502Z</time></trkpt><trkpt lat="39.7657967" lon="9.2160467"><ele>371.0</ele><time>2026-04-23T15:19:12.501Z</time></trkpt><trkpt lat="39.76584" lon="9.2159533"><ele>371.0</ele><time>2026-04-23T15:19:13.502Z</time></trkpt><trkpt lat="39.7658933" lon="9.2158833"><ele>371.0</ele><time>2026-04-23T15:19:14.501Z</time></trkpt><trkpt lat="39.7659533" lon="9.2158517"><ele>371.0</ele><time>2026-04-23T15:19:15.502Z</time></trkpt><trkpt lat="39.7660233" lon="9.21586"><ele>371.0</ele><time>2026-04-23T15:19:16.502Z</time></trkpt><trkpt lat="39.7660833" lon="9.21593"><ele>371.0</ele><time>2026-04-23T15:19:17.501Z</time></trkpt><trkpt lat="39.7661167" lon="9.216095"><ele>371.0</ele><time>2026-04-23T15:19:18.501Z</time></trkpt><trkpt lat="39.766135" lon="9.21627"><ele>371.0</ele><time>2026-04-23T15:19:19.501Z</time></trkpt><trkpt lat="39.76613" lon="9.2164433"><ele>371.0</ele><time>2026-04-23T15:19:20.502Z</time></trkpt><trkpt lat="39.7660983" lon="9.2166167"><ele>371.0</ele><time>2026-04-23T15:19:21.501Z</time></trkpt><trkpt lat="39.7660483" lon="9.2167683"><ele>371.0</ele><time>2026-04-23T15:19:22.502Z</time></trkpt><trkpt lat="39.765995" lon="9.2169"><ele>370.0</ele><time>2026-04-23T15:19:23.502Z</time></trkpt><trkpt lat="39.765965" lon="9.2170167"><ele>369.0</ele><time>2026-04-23T15:19:24.502Z</time></trkpt><trkpt lat="39.765975" lon="9.2171267"><ele>368.0</ele><time>2026-04-23T15:19:25.502Z</time></trkpt><trkpt lat="39.76602" lon="9.21723"><ele>367.0</ele><time>2026-04-23T15:19:26.501Z</time></trkpt><trkpt lat="39.7660983" lon="9.2173117"><ele>366.0</ele><time>2026-04-23T15:19:27.501Z</time></trkpt><trkpt lat="39.76621" lon="9.21738"><ele>363.25</ele><time>2026-04-23T15:19:28.501Z</time></trkpt><trkpt lat="39.7663267" lon="9.2174483"><ele>360.5</ele><time>2026-04-23T15:19:29.501Z</time></trkpt><trkpt lat="39.766445" lon="9.2175317"><ele>357.75</ele><time>2026-04-23T15:19:30.501Z</time></trkpt><trkpt lat="39.766565" lon="9.2176267"><ele>355.0</ele><time>2026-04-23T15:19:31.501Z</time></trkpt><trkpt lat="39.766685" lon="9.2176983"><ele>355.0</ele><time>2026-04-23T15:19:32.502Z</time></trkpt><trkpt lat="39.7668067" lon="9.21775"><ele>355.0</ele><time>2026-04-23T15:19:33.502Z</time></trkpt><trkpt lat="39.76693" lon="9.2177883"><ele>355.0</ele><time>2026-04-23T15:19:34.502Z</time></trkpt><trkpt lat="39.7670433" lon="9.2178283"><ele>355.0</ele><time>2026-04-23T15:19:35.502Z</time></trkpt><trkpt lat="39.76715" lon="9.217885"><ele>355.0</ele><time>2026-04-23T15:19:36.502Z</time></trkpt><trkpt lat="39.7672467" lon="9.2179483"><ele>355.0</ele><time>2026-04-23T15:19:37.501Z</time></trkpt><trkpt lat="39.767345" lon="9.218015"><ele>355.0</ele><time>2026-04-23T15:19:38.501Z</time></trkpt><trkpt lat="39.7674483" lon="9.21807"><ele>355.0</ele><time>2026-04-23T15:19:39.501Z</time></trkpt><trkpt lat="39.7675633" lon="9.2180933"><ele>355.0</ele><time>2026-04-23T15:19:40.501Z</time></trkpt><trkpt lat="39.7676817" lon="9.218095"><ele>353.25</ele><time>2026-04-23T15:19:41.501Z</time></trkpt><trkpt lat="39.7677933" lon="9.2180883"><ele>351.5</ele><time>2026-04-23T15:19:42.502Z</time></trkpt><trkpt lat="39.7679083" lon="9.2180633"><ele>349.75</ele><time>2026-04-23T15:19:43.501Z</time></trkpt><trkpt lat="39.76803" lon="9.218015"><ele>348.0</ele><time>2026-04-23T15:19:44.502Z</time></trkpt><trkpt lat="39.76815" lon="9.2179267"><ele>348.0</ele><time>2026-04-23T15:19:45.501Z</time></trkpt><trkpt lat="39.7682583" lon="9.217815"><ele>348.0</ele><time>2026-04-23T15:19:46.501Z</time></trkpt><trkpt lat="39.7683783" lon="9.2177217"><ele>348.0</ele><time>2026-04-23T15:19:47.501Z</time></trkpt><trkpt lat="39.7685067" lon="9.217655"><ele>348.0</ele><time>2026-04-23T15:19:48.501Z</time></trkpt><trkpt lat="39.768655" lon="9.2176267"><ele>346.6666666666667</ele><time>2026-04-23T15:19:49.501Z</time></trkpt><trkpt lat="39.7688217" lon="9.2176333"><ele>345.33333333333337</ele><time>2026-04-23T15:19:50.502Z</time></trkpt><trkpt lat="39.7689933" lon="9.2176567"><ele>344.0</ele><time>2026-04-23T15:19:51.501Z</time></trkpt><trkpt lat="39.769175" lon="9.2176933"><ele>344.0</ele><time>2026-04-23T15:19:52.501Z</time></trkpt><trkpt lat="39.769345" lon="9.2177317"><ele>344.0</ele><time>2026-04-23T15:19:53.501Z</time></trkpt><trkpt lat="39.7694933" lon="9.21776"><ele>344.0</ele><time>2026-04-23T15:19:54.501Z</time></trkpt><trkpt lat="39.769635" lon="9.2177833"><ele>344.0</ele><time>2026-04-23T15:19:55.501Z</time></trkpt><trkpt lat="39.7697517" lon="9.2178517"><ele>344.0</ele><time>2026-04-23T15:19:56.502Z</time></trkpt><trkpt lat="39.769845" lon="9.217965"><ele>344.0</ele><time>2026-04-23T15:19:57.501Z</time></trkpt><trkpt lat="39.76992" lon="9.2181417"><ele>344.0</ele><time>2026-04-23T15:19:58.501Z</time></trkpt><trkpt lat="39.7699883" lon="9.21834"><ele>341.33333333333337</ele><time>2026-04-23T15:19:59.501Z</time></trkpt><trkpt lat="39.77005" lon="9.2185467"><ele>338.6666666666667</ele><time>2026-04-23T15:20:00.502Z</time></trkpt><trkpt lat="39.7701133" lon="9.2187417"><ele>336.0</ele><time>2026-04-23T15:20:01.502Z</time></trkpt><trkpt lat="39.7701583" lon="9.2189533"><ele>333.3333333333333</ele><time>2026-04-23T15:20:02.501Z</time></trkpt><trkpt lat="39.7701717" lon="9.219175"><ele>330.66666666666663</ele><time>2026-04-23T15:20:03.502Z</time></trkpt><trkpt lat="39.7701633" lon="9.2194067"><ele>328.0</ele><time>2026-04-23T15:20:04.501Z</time></trkpt><trkpt lat="39.7701633" lon="9.2196383"><ele>329.3333333333333</ele><time>2026-04-23T15:20:05.502Z</time></trkpt><trkpt lat="39.7701867" lon="9.2198717"><ele>330.6666666666667</ele><time>2026-04-23T15:20:06.501Z</time></trkpt><trkpt lat="39.7702167" lon="9.2200767"><ele>332.0</ele><time>2026-04-23T15:20:07.502Z</time></trkpt><trkpt lat="39.7702433" lon="9.220265"><ele>332.0</ele><time>2026-04-23T15:20:08.502Z</time></trkpt><trkpt lat="39.7702733" lon="9.2204383"><ele>332.0</ele><time>2026-04-23T15:20:09.501Z</time></trkpt><trkpt lat="39.770315" lon="9.2205933"><ele>332.0</ele><time>2026-04-23T15:20:10.501Z</time></trkpt><trkpt lat="39.7703767" lon="9.2207233"><ele>332.0</ele><time>2026-04-23T15:20:11.502Z</time></trkpt><trkpt lat="39.7704517" lon="9.2208267"><ele>329.0</ele><time>2026-04-23T15:20:12.501Z</time></trkpt><trkpt lat="39.7705517" lon="9.22087"><ele>326.0</ele><time>2026-04-23T15:20:13.501Z</time></trkpt><trkpt lat="39.7706517" lon="9.2208467"><ele>323.0</ele><time>2026-04-23T15:20:14.501Z</time></trkpt><trkpt lat="39.7707383" lon="9.220785"><ele>320.0</ele><time>2026-04-23T15:20:15.501Z</time></trkpt><trkpt lat="39.77082" lon="9.2207017"><ele>317.0</ele><time>2026-04-23T15:20:16.502Z</time></trkpt><trkpt lat="39.770905" lon="9.2206617"><ele>317.0</ele><time>2026-04-23T15:20:17.502Z</time></trkpt><trkpt lat="39.7709783" lon="9.22067"><ele>317.0</ele><time>2026-04-23T15:20:18.501Z</time></trkpt><trkpt lat="39.7710383" lon="9.220725"><ele>317.0</ele><time>2026-04-23T15:20:19.501Z</time></trkpt><trkpt lat="39.7710617" lon="9.2208083"><ele>317.0</ele><time>2026-04-23T15:20:20.501Z</time></trkpt><trkpt lat="39.77104" lon="9.2209083"><ele>317.0</ele><time>2026-04-23T15:20:21.502Z</time></trkpt><trkpt lat="39.77097" lon="9.22098"><ele>317.0</ele><time>2026-04-23T15:20:22.501Z</time></trkpt><trkpt lat="39.770815" lon="9.2210233"><ele>317.0</ele><time>2026-04-23T15:20:23.501Z</time></trkpt><trkpt lat="39.7706833" lon="9.2210717"><ele>317.0</ele><time>2026-04-23T15:20:24.501Z</time></trkpt><trkpt lat="39.7705483" lon="9.2211133"><ele>317.0</ele><time>2026-04-23T15:20:25.502Z</time></trkpt><trkpt lat="39.7704067" lon="9.2211567"><ele>317.0</ele><time>2026-04-23T15:20:26.501Z</time></trkpt><trkpt lat="39.7702483" lon="9.22117"><ele>316.5</ele><time>2026-04-23T15:20:27.502Z</time></trkpt><trkpt lat="39.7701067" lon="9.221165"><ele>316.0</ele><time>2026-04-23T15:20:28.502Z</time></trkpt><trkpt lat="39.7699667" lon="9.221155"><ele>315.5</ele><time>2026-04-23T15:20:29.502Z</time></trkpt><trkpt lat="39.7698333" lon="9.2211467"><ele>315.0</ele><time>2026-04-23T15:20:30.502Z</time></trkpt><trkpt lat="39.7697033" lon="9.2211317"><ele>315.0</ele><time>2026-04-23T15:20:31.502Z</time></trkpt><trkpt lat="39.7695633" lon="9.22112"><ele>315.0</ele><time>2026-04-23T15:20:32.502Z</time></trkpt><trkpt lat="39.7694283" lon="9.22111"><ele>315.0</ele><time>2026-04-23T15:20:33.501Z</time></trkpt><trkpt lat="39.769305" lon="9.22111"><ele>315.0</ele><time>2026-04-23T15:20:34.502Z</time></trkpt><trkpt lat="39.7692017" lon="9.2211283"><ele>313.8</ele><time>2026-04-23T15:20:35.501Z</time></trkpt><trkpt lat="39.7691067" lon="9.2211767"><ele>312.6</ele><time>2026-04-23T15:20:36.501Z</time></trkpt><trkpt lat="39.76903" lon="9.22126"><ele>311.4</ele><time>2026-04-23T15:20:37.501Z</time></trkpt><trkpt lat="39.76899" lon="9.221365"><ele>310.2</ele><time>2026-04-23T15:20:38.501Z</time></trkpt><trkpt lat="39.7689883" lon="9.2214817"><ele>309.0</ele><time>2026-04-23T15:20:39.501Z</time></trkpt><trkpt lat="39.769035" lon="9.2216"><ele>307.75</ele><time>2026-04-23T15:20:40.502Z</time></trkpt><trkpt lat="39.76911" lon="9.221705"><ele>306.5</ele><time>2026-04-23T15:20:41.502Z</time></trkpt><trkpt lat="39.7692083" lon="9.2218"><ele>305.25</ele><time>2026-04-23T15:20:42.501Z</time></trkpt><trkpt lat="39.7693167" lon="9.2218883"><ele>304.0</ele><time>2026-04-23T15:20:43.501Z</time></trkpt><trkpt lat="39.76942" lon="9.22197"><ele>304.0</ele><time>2026-04-23T15:20:44.501Z</time></trkpt><trkpt lat="39.7695167" lon="9.2220517"><ele>304.0</ele><time>2026-04-23T15:20:45.502Z</time></trkpt><trkpt lat="39.769605" lon="9.2221217"><ele>304.0</ele><time>2026-04-23T15:20:46.501Z</time></trkpt><trkpt lat="39.7696883" lon="9.222185"><ele>304.0</ele><time>2026-04-23T15:20:47.501Z</time></trkpt><trkpt lat="39.7697767" lon="9.2222533"><ele>304.0</ele><time>2026-04-23T15:20:48.501Z</time></trkpt><trkpt lat="39.7698633" lon="9.222315"><ele>302.8333333333333</ele><time>2026-04-23T15:20:49.502Z</time></trkpt><trkpt lat="39.769945" lon="9.2223767"><ele>301.66666666666663</ele><time>2026-04-23T15:20:50.502Z</time></trkpt><trkpt lat="39.7700267" lon="9.22243"><ele>300.5</ele><time>2026-04-23T15:20:51.502Z</time></trkpt><trkpt lat="39.7700967" lon="9.222475"><ele>299.3333333333333</ele><time>2026-04-23T15:20:52.502Z</time></trkpt><trkpt lat="39.770155" lon="9.2225367"><ele>298.1666666666667</ele><time>2026-04-23T15:20:53.502Z</time></trkpt><trkpt lat="39.7701867" lon="9.2226083"><ele>297.0</ele><time>2026-04-23T15:20:54.501Z</time></trkpt><trkpt lat="39.7701883" lon="9.22276"><ele>297.0</ele><time>2026-04-23T15:20:56.501Z</time></trkpt><trkpt lat="39.770145" lon="9.2228233"><ele>297.0</ele><time>2026-04-23T15:20:57.502Z</time></trkpt><trkpt lat="39.77008" lon="9.2228633"><ele>297.0</ele><time>2026-04-23T15:20:58.501Z</time></trkpt><trkpt lat="39.77" lon="9.2228767"><ele>297.0</ele><time>2026-04-23T15:20:59.502Z</time></trkpt><trkpt lat="39.769915" lon="9.2228767"><ele>297.0</ele><time>2026-04-23T15:21:00.502Z</time></trkpt><trkpt lat="39.769825" lon="9.2228667"><ele>297.0</ele><time>2026-04-23T15:21:01.501Z</time></trkpt><trkpt lat="39.7697367" lon="9.2228567"><ele>297.0</ele><time>2026-04-23T15:21:02.501Z</time></trkpt><trkpt lat="39.76965" lon="9.2228567"><ele>297.0</ele><time>2026-04-23T15:21:03.502Z</time></trkpt><trkpt lat="39.7695667" lon="9.2228617"><ele>297.0</ele><time>2026-04-23T15:21:04.501Z</time></trkpt><trkpt lat="39.7694867" lon="9.2228833"><ele>297.0</ele><time>2026-04-23T15:21:05.501Z</time></trkpt><trkpt lat="39.76941" lon="9.2229167"><ele>297.0</ele><time>2026-04-23T15:21:06.502Z</time></trkpt><trkpt lat="39.7693367" lon="9.222965"><ele>297.0</ele><time>2026-04-23T15:21:07.501Z</time></trkpt><trkpt lat="39.7692683" lon="9.2230383"><ele>296.2</ele><time>2026-04-23T15:21:08.501Z</time></trkpt><trkpt lat="39.7692083" lon="9.2231333"><ele>295.4</ele><time>2026-04-23T15:21:09.502Z</time></trkpt><trkpt lat="39.769155" lon="9.2232333"><ele>294.6</ele><time>2026-04-23T15:21:10.502Z</time></trkpt><trkpt lat="39.7691017" lon="9.2233367"><ele>293.8</ele><time>2026-04-23T15:21:11.502Z</time></trkpt><trkpt lat="39.769045" lon="9.2234317"><ele>293.0</ele><time>2026-04-23T15:21:12.502Z</time></trkpt><trkpt lat="39.7689917" lon="9.223525"><ele>291.99999999999994</ele><time>2026-04-23T15:21:13.502Z</time></trkpt><trkpt lat="39.7689467" lon="9.2236117"><ele>291.0</ele><time>2026-04-23T15:21:14.501Z</time></trkpt><trkpt lat="39.7689067" lon="9.2236933"><ele>290.0</ele><time>2026-04-23T15:21:15.502Z</time></trkpt><trkpt lat="39.7688717" lon="9.2237683"><ele>289.0</ele><time>2026-04-23T15:21:16.501Z</time></trkpt><trkpt lat="39.7688367" lon="9.2238417"><ele>288.0</ele><time>2026-04-23T15:21:17.502Z</time></trkpt><trkpt lat="39.7688033" lon="9.2239217"><ele>286.99999999999994</ele><time>2026-04-23T15:21:18.502Z</time></trkpt><trkpt lat="39.7687717" lon="9.2240017"><ele>286.0</ele><time>2026-04-23T15:21:19.502Z</time></trkpt><trkpt lat="39.7687517" lon="9.2240933"><ele>285.1428571428571</ele><time>2026-04-23T15:21:20.502Z</time></trkpt><trkpt lat="39.7687417" lon="9.2241933"><ele>284.2857142857143</ele><time>2026-04-23T15:21:21.501Z</time></trkpt><trkpt lat="39.7687467" lon="9.22429"><ele>283.42857142857144</ele><time>2026-04-23T15:21:22.502Z</time></trkpt><trkpt lat="39.768765" lon="9.2243783"><ele>282.57142857142856</ele><time>2026-04-23T15:21:23.501Z</time></trkpt><trkpt lat="39.7687917" lon="9.2244633"><ele>281.7142857142857</ele><time>2026-04-23T15:21:24.501Z</time></trkpt><trkpt lat="39.7688267" lon="9.22454"><ele>280.85714285714283</ele><time>2026-04-23T15:21:25.502Z</time></trkpt><trkpt lat="39.768875" lon="9.2246067"><ele>280.0</ele><time>2026-04-23T15:21:26.502Z</time></trkpt><trkpt lat="39.7689367" lon="9.22467"><ele>280.0</ele><time>2026-04-23T15:21:27.502Z</time></trkpt><trkpt lat="39.7690083" lon="9.224715"><ele>280.0</ele><time>2026-04-23T15:21:28.502Z</time></trkpt><trkpt lat="39.7690917" lon="9.2247467"><ele>280.0</ele><time>2026-04-23T15:21:29.501Z</time></trkpt><trkpt lat="39.7691833" lon="9.2247583"><ele>280.0</ele><time>2026-04-23T15:21:30.501Z</time></trkpt><trkpt lat="39.7692883" lon="9.224735"><ele>280.0</ele><time>2026-04-23T15:21:31.502Z</time></trkpt><trkpt lat="39.769395" lon="9.2246883"><ele>280.0</ele><time>2026-04-23T15:21:32.502Z</time></trkpt><trkpt lat="39.7694867" lon="9.2246417"><ele>280.0</ele><time>2026-04-23T15:21:33.501Z</time></trkpt><trkpt lat="39.769575" lon="9.2245933"><ele>280.0</ele><time>2026-04-23T15:21:34.502Z</time></trkpt><trkpt lat="39.7696683" lon="9.2245433"><ele>280.0</ele><time>2026-04-23T15:21:35.501Z</time></trkpt><trkpt lat="39.769775" lon="9.2244933"><ele>280.0</ele><time>2026-04-23T15:21:36.501Z</time></trkpt><trkpt lat="39.7698917" lon="9.2244433"><ele>280.0</ele><time>2026-04-23T15:21:37.501Z</time></trkpt><trkpt lat="39.77002" lon="9.2243867"><ele>280.0</ele><time>2026-04-23T15:21:38.502Z</time></trkpt><trkpt lat="39.7701583" lon="9.2243317"><ele>280.0</ele><time>2026-04-23T15:21:39.502Z</time></trkpt><trkpt lat="39.7703" lon="9.2243033"><ele>280.0</ele><time>2026-04-23T15:21:40.501Z</time></trkpt><trkpt lat="39.7704383" lon="9.2242983"><ele>279.25</ele><time>2026-04-23T15:21:41.502Z</time></trkpt><trkpt lat="39.7705667" lon="9.2243283"><ele>278.5</ele><time>2026-04-23T15:21:42.502Z</time></trkpt><trkpt lat="39.7706917" lon="9.2244033"><ele>277.75</ele><time>2026-04-23T15:21:43.501Z</time></trkpt><trkpt lat="39.7708033" lon="9.2244967"><ele>277.0</ele><time>2026-04-23T15:21:44.501Z</time></trkpt><trkpt lat="39.7708933" lon="9.224615"><ele>277.0</ele><time>2026-04-23T15:21:45.501Z</time></trkpt><trkpt lat="39.7709633" lon="9.2247483"><ele>277.0</ele><time>2026-04-23T15:21:46.502Z</time></trkpt><trkpt lat="39.7710117" lon="9.2248983"><ele>277.0</ele><time>2026-04-23T15:21:47.502Z</time></trkpt><trkpt lat="39.7710517" lon="9.2250633"><ele>277.0</ele><time>2026-04-23T15:21:48.502Z</time></trkpt><trkpt lat="39.7710833" lon="9.22524"><ele>280.0</ele><time>2026-04-23T15:21:49.502Z</time></trkpt><trkpt lat="39.7711167" lon="9.2254167"><ele>283.0</ele><time>2026-04-23T15:21:50.501Z</time></trkpt><trkpt lat="39.771155" lon="9.2255833"><ele>286.0</ele><time>2026-04-23T15:21:51.502Z</time></trkpt><trkpt lat="39.771185" lon="9.225745"><ele>289.0</ele><time>2026-04-23T15:21:52.501Z</time></trkpt><trkpt lat="39.77121" lon="9.2259017"><ele>289.0</ele><time>2026-04-23T15:21:53.502Z</time></trkpt><trkpt lat="39.7712383" lon="9.2260483"><ele>289.0</ele><time>2026-04-23T15:21:54.502Z</time></trkpt><trkpt lat="39.771265" lon="9.2261917"><ele>289.0</ele><time>2026-04-23T15:21:55.501Z</time></trkpt><trkpt lat="39.7712983" lon="9.226335"><ele>289.0</ele><time>2026-04-23T15:21:56.502Z</time></trkpt><trkpt lat="39.77133" lon="9.2264767"><ele>288.5</ele><time>2026-04-23T15:21:57.501Z</time></trkpt><trkpt lat="39.7713683" lon="9.22662"><ele>288.0</ele><time>2026-04-23T15:21:58.501Z</time></trkpt><trkpt lat="39.7714167" lon="9.22676"><ele>287.5</ele><time>2026-04-23T15:21:59.502Z</time></trkpt><trkpt lat="39.771465" lon="9.2268933"><ele>287.0</ele><time>2026-04-23T15:22:00.501Z</time></trkpt><trkpt lat="39.7715117" lon="9.22702"><ele>287.0</ele><time>2026-04-23T15:22:01.502Z</time></trkpt><trkpt lat="39.7715517" lon="9.2271533"><ele>287.0</ele><time>2026-04-23T15:22:02.501Z</time></trkpt><trkpt lat="39.7715767" lon="9.2272867"><ele>287.0</ele><time>2026-04-23T15:22:03.502Z</time></trkpt><trkpt lat="39.77158" lon="9.2274133"><ele>287.0</ele><time>2026-04-23T15:22:04.502Z</time></trkpt><trkpt lat="39.7715683" lon="9.2275333"><ele>287.0</ele><time>2026-04-23T15:22:05.502Z</time></trkpt><trkpt lat="39.7715383" lon="9.2276567"><ele>283.6</ele><time>2026-04-23T15:22:06.501Z</time></trkpt><trkpt lat="39.7714967" lon="9.2277883"><ele>280.2</ele><time>2026-04-23T15:22:07.501Z</time></trkpt><trkpt lat="39.7714533" lon="9.22793"><ele>276.8</ele><time>2026-04-23T15:22:08.502Z</time></trkpt><trkpt lat="39.7714117" lon="9.2280633"><ele>273.4</ele><time>2026-04-23T15:22:09.502Z</time></trkpt><trkpt lat="39.77137" lon="9.2281883"><ele>270.0</ele><time>2026-04-23T15:22:10.502Z</time></trkpt><trkpt lat="39.7713383" lon="9.2283017"><ele>267.4</ele><time>2026-04-23T15:22:11.501Z</time></trkpt><trkpt lat="39.7713117" lon="9.2284117"><ele>264.8</ele><time>2026-04-23T15:22:12.502Z</time></trkpt><trkpt lat="39.7712833" lon="9.2285217"><ele>262.2</ele><time>2026-04-23T15:22:13.501Z</time></trkpt><trkpt lat="39.7712483" lon="9.228635"><ele>259.6</ele><time>2026-04-23T15:22:14.501Z</time></trkpt><trkpt lat="39.77121" lon="9.2287483"><ele>257.0</ele><time>2026-04-23T15:22:15.501Z</time></trkpt><trkpt lat="39.771175" lon="9.228865"><ele>257.8</ele><time>2026-04-23T15:22:16.501Z</time></trkpt><trkpt lat="39.771135" lon="9.2289833"><ele>258.6</ele><time>2026-04-23T15:22:17.501Z</time></trkpt><trkpt lat="39.771095" lon="9.2291033"><ele>259.40000000000003</ele><time>2026-04-23T15:22:18.502Z</time></trkpt><trkpt lat="39.771045" lon="9.22922"><ele>260.2</ele><time>2026-04-23T15:22:19.502Z</time></trkpt><trkpt lat="39.7709767" lon="9.2293367"><ele>261.0</ele><time>2026-04-23T15:22:20.501Z</time></trkpt><trkpt lat="39.770905" lon="9.22945"><ele>262.0</ele><time>2026-04-23T15:22:21.502Z</time></trkpt><trkpt lat="39.77083" lon="9.2295683"><ele>263.0</ele><time>2026-04-23T15:22:22.502Z</time></trkpt><trkpt lat="39.7707567" lon="9.2296817"><ele>264.0</ele><time>2026-04-23T15:22:23.501Z</time></trkpt><trkpt lat="39.7706733" lon="9.229785"><ele>265.0</ele><time>2026-04-23T15:22:24.501Z</time></trkpt><trkpt lat="39.7705933" lon="9.2298883"><ele>268.6</ele><time>2026-04-23T15:22:25.501Z</time></trkpt><trkpt lat="39.7705067" lon="9.2299967"><ele>272.2</ele><time>2026-04-23T15:22:26.501Z</time></trkpt><trkpt lat="39.7704183" lon="9.230095"><ele>275.8</ele><time>2026-04-23T15:22:27.502Z</time></trkpt><trkpt lat="39.7703417" lon="9.2301817"><ele>279.4</ele><time>2026-04-23T15:22:28.502Z</time></trkpt><trkpt lat="39.7702683" lon="9.2302583"><ele>283.0</ele><time>2026-04-23T15:22:29.501Z</time></trkpt><trkpt lat="39.770205" lon="9.230325"><ele>283.0</ele><time>2026-04-23T15:22:30.502Z</time></trkpt><trkpt lat="39.770155" lon="9.2303917"><ele>283.0</ele><time>2026-04-23T15:22:31.502Z</time></trkpt><trkpt lat="39.7700983" lon="9.2304983"><ele>283.0</ele><time>2026-04-23T15:22:33.501Z</time></trkpt><trkpt lat="39.7701683" lon="9.2305067"><ele>283.0</ele><time>2026-04-23T15:22:37.501Z</time></trkpt><trkpt lat="39.770215" lon="9.2304183"><ele>283.0</ele><time>2026-04-23T15:22:39.501Z</time></trkpt><trkpt lat="39.770315" lon="9.23029"><ele>283.0</ele><time>2026-04-23T15:22:41.502Z</time></trkpt><trkpt lat="39.770385" lon="9.230215"><ele>283.0</ele><time>2026-04-23T15:22:42.501Z</time></trkpt><trkpt lat="39.7704617" lon="9.2301217"><ele>283.0</ele><time>2026-04-23T15:22:43.502Z</time></trkpt><trkpt lat="39.77055" lon="9.23001"><ele>283.0</ele><time>2026-04-23T15:22:44.501Z</time></trkpt><trkpt lat="39.770635" lon="9.2299017"><ele>283.0</ele><time>2026-04-23T15:22:45.501Z</time></trkpt><trkpt lat="39.7707117" lon="9.2298033"><ele>278.5</ele><time>2026-04-23T15:22:46.502Z</time></trkpt><trkpt lat="39.77079" lon="9.2296983"><ele>274.0</ele><time>2026-04-23T15:22:47.502Z</time></trkpt><trkpt lat="39.7708667" lon="9.2295867"><ele>269.5</ele><time>2026-04-23T15:22:48.501Z</time></trkpt><trkpt lat="39.77095" lon="9.2294783"><ele>265.0</ele><time>2026-04-23T15:22:49.501Z</time></trkpt><trkpt lat="39.771035" lon="9.2293633"><ele>264.0</ele><time>2026-04-23T15:22:50.501Z</time></trkpt><trkpt lat="39.77111" lon="9.22923"><ele>263.0</ele><time>2026-04-23T15:22:51.502Z</time></trkpt><trkpt lat="39.771175" lon="9.2290783"><ele>262.0</ele><time>2026-04-23T15:22:52.502Z</time></trkpt><trkpt lat="39.771225" lon="9.228925"><ele>261.0</ele><time>2026-04-23T15:22:53.501Z</time></trkpt><trkpt lat="39.7712667" lon="9.2287617"><ele>260.0</ele><time>2026-04-23T15:22:54.501Z</time></trkpt><trkpt lat="39.7713117" lon="9.2285967"><ele>259.0</ele><time>2026-04-23T15:22:55.501Z</time></trkpt><trkpt lat="39.7713583" lon="9.22844"><ele>258.0</ele><time>2026-04-23T15:22:56.501Z</time></trkpt><trkpt lat="39.7714017" lon="9.22829"><ele>257.0</ele><time>2026-04-23T15:22:57.502Z</time></trkpt><trkpt lat="39.771445" lon="9.2281533"><ele>259.6</ele><time>2026-04-23T15:22:58.501Z</time></trkpt><trkpt lat="39.771485" lon="9.2280233"><ele>262.2</ele><time>2026-04-23T15:22:59.502Z</time></trkpt><trkpt lat="39.7715233" lon="9.2279017"><ele>264.8</ele><time>2026-04-23T15:23:00.502Z</time></trkpt><trkpt lat="39.77156" lon="9.227785"><ele>267.4</ele><time>2026-04-23T15:23:01.501Z</time></trkpt><trkpt lat="39.7715883" lon="9.22767"><ele>270.0</ele><time>2026-04-23T15:23:02.501Z</time></trkpt><trkpt lat="39.7716067" lon="9.2275567"><ele>270.0</ele><time>2026-04-23T15:23:03.501Z</time></trkpt><trkpt lat="39.7716233" lon="9.2274417"><ele>270.0</ele><time>2026-04-23T15:23:04.502Z</time></trkpt><trkpt lat="39.771625" lon="9.2273217"><ele>270.0</ele><time>2026-04-23T15:23:05.501Z</time></trkpt><trkpt lat="39.7716117" lon="9.2272033"><ele>270.0</ele><time>2026-04-23T15:23:06.501Z</time></trkpt><trkpt lat="39.771585" lon="9.2271033"><ele>270.0</ele><time>2026-04-23T15:23:07.502Z</time></trkpt><trkpt lat="39.7715533" lon="9.2270217"><ele>270.0</ele><time>2026-04-23T15:23:08.502Z</time></trkpt><trkpt lat="39.771485" lon="9.2269217"><ele>270.0</ele><time>2026-04-23T15:23:10.501Z</time></trkpt><trkpt lat="39.77142" lon="9.226915"><ele>270.0</ele><time>2026-04-23T15:23:12.502Z</time></trkpt><trkpt lat="39.77137" lon="9.2269867"><ele>270.0</ele><time>2026-04-23T15:23:15.501Z</time></trkpt><trkpt lat="39.7713883" lon="9.227095"><ele>270.0</ele><time>2026-04-23T15:23:17.502Z</time></trkpt><trkpt lat="39.77144" lon="9.2272483"><ele>270.0</ele><time>2026-04-23T15:23:19.502Z</time></trkpt><trkpt lat="39.77147" lon="9.2273233"><ele>270.0</ele><time>2026-04-23T15:23:20.502Z</time></trkpt><trkpt lat="39.7715467" lon="9.2274517"><ele>270.0</ele><time>2026-04-23T15:23:22.502Z</time></trkpt><trkpt lat="39.7716033" lon="9.2275117"><ele>270.0</ele><time>2026-04-23T15:23:23.501Z</time></trkpt><trkpt lat="39.7716733" lon="9.2275783"><ele>270.0</ele><time>2026-04-23T15:23:24.501Z</time></trkpt><trkpt lat="39.7717317" lon="9.22763"><ele>270.0</ele><time>2026-04-23T15:23:25.501Z</time></trkpt><trkpt lat="39.7718067" lon="9.2276767"><ele>270.0</ele><time>2026-04-23T15:23:26.501Z</time></trkpt><trkpt lat="39.771885" lon="9.2277217"><ele>270.0</ele><time>2026-04-23T15:23:27.501Z</time></trkpt><trkpt lat="39.77195" lon="9.2277583"><ele>276.0</ele><time>2026-04-23T15:23:28.501Z</time></trkpt><trkpt lat="39.772065" lon="9.2277867"><ele>282.0</ele><time>2026-04-23T15:23:30.502Z</time></trkpt><trkpt lat="39.77219" lon="9.2278117"><ele>288.0</ele><time>2026-04-23T15:23:32.501Z</time></trkpt><trkpt lat="39.7722517" lon="9.2278317"><ele>294.0</ele><time>2026-04-23T15:23:33.502Z</time></trkpt><trkpt lat="39.7723633" lon="9.2278867"><ele>300.0</ele><time>2026-04-23T15:23:35.502Z</time></trkpt><trkpt lat="39.7724633" lon="9.22792"><ele>300.0</ele><time>2026-04-23T15:23:37.502Z</time></trkpt><trkpt lat="39.772555" lon="9.22798"><ele>300.0</ele><time>2026-04-23T15:23:39.502Z</time></trkpt><trkpt lat="39.77265" lon="9.2280667"><ele>300.0</ele><time>2026-04-23T15:23:41.501Z</time></trkpt><trkpt lat="39.7726867" lon="9.22814"><ele>300.0</ele><time>2026-04-23T15:23:42.502Z</time></trkpt><trkpt lat="39.7727333" lon="9.22829"><ele>300.0</ele><time>2026-04-23T15:23:44.501Z</time></trkpt><trkpt lat="39.772745" lon="9.228375"><ele>300.5</ele><time>2026-04-23T15:23:45.501Z</time></trkpt><trkpt lat="39.7727517" lon="9.2284617"><ele>301.0</ele><time>2026-04-23T15:23:46.501Z</time></trkpt><trkpt lat="39.77277" lon="9.2285433"><ele>301.5</ele><time>2026-04-23T15:23:47.501Z</time></trkpt><trkpt lat="39.7728283" lon="9.2286833"><ele>302.0</ele><time>2026-04-23T15:23:49.501Z</time></trkpt><trkpt lat="39.7728917" lon="9.22879"><ele>302.5</ele><time>2026-04-23T15:23:51.502Z</time></trkpt><trkpt lat="39.7729517" lon="9.2288783"><ele>303.0</ele><time>2026-04-23T15:23:53.502Z</time></trkpt><trkpt lat="39.7730083" lon="9.228965"><ele>293.75</ele><time>2026-04-23T15:23:55.501Z</time></trkpt><trkpt lat="39.7730583" lon="9.2290583"><ele>284.5</ele><time>2026-04-23T15:23:57.501Z</time></trkpt><trkpt lat="39.77314" lon="9.2291717"><ele>275.25</ele><time>2026-04-23T15:23:59.502Z</time></trkpt><trkpt lat="39.77325" lon="9.2292283"><ele>266.0</ele><time>2026-04-23T15:24:01.501Z</time></trkpt><trkpt lat="39.77338" lon="9.2292033"><ele>266.0</ele><time>2026-04-23T15:24:03.502Z</time></trkpt><trkpt lat="39.7734583" lon="9.22916"><ele>266.0</ele><time>2026-04-23T15:24:04.501Z</time></trkpt><trkpt lat="39.7735417" lon="9.2291033"><ele>266.0</ele><time>2026-04-23T15:24:05.501Z</time></trkpt><trkpt lat="39.7736267" lon="9.2290483"><ele>266.0</ele><time>2026-04-23T15:24:06.501Z</time></trkpt><trkpt lat="39.7737183" lon="9.2290117"><ele>266.0</ele><time>2026-04-23T15:24:07.501Z</time></trkpt><trkpt lat="39.7738117" lon="9.2289867"><ele>267.6666666666667</ele><time>2026-04-23T15:24:08.501Z</time></trkpt><trkpt lat="39.7739017" lon="9.2289717"><ele>269.33333333333337</ele><time>2026-04-23T15:24:09.502Z</time></trkpt><trkpt lat="39.7739833" lon="9.2289583"><ele>271.0</ele><time>2026-04-23T15:24:10.501Z</time></trkpt><trkpt lat="39.7740633" lon="9.22894"><ele>272.6666666666667</ele><time>2026-04-23T15:24:11.502Z</time></trkpt><trkpt lat="39.77415" lon="9.228915"><ele>274.3333333333333</ele><time>2026-04-23T15:24:12.502Z</time></trkpt><trkpt lat="39.7742517" lon="9.2288783"><ele>276.0</ele><time>2026-04-23T15:24:13.501Z</time></trkpt><trkpt lat="39.7743583" lon="9.2288283"><ele>276.0</ele><time>2026-04-23T15:24:14.501Z</time></trkpt><trkpt lat="39.7744583" lon="9.2287883"><ele>276.0</ele><time>2026-04-23T15:24:15.501Z</time></trkpt><trkpt lat="39.7745467" lon="9.2287467"><ele>276.0</ele><time>2026-04-23T15:24:16.501Z</time></trkpt><trkpt lat="39.774625" lon="9.228715"><ele>276.0</ele><time>2026-04-23T15:24:17.502Z</time></trkpt><trkpt lat="39.7747" lon="9.2286667"><ele>276.0</ele><time>2026-04-23T15:24:18.502Z</time></trkpt><trkpt lat="39.77476" lon="9.2286033"><ele>276.0</ele><time>2026-04-23T15:24:19.502Z</time></trkpt><trkpt lat="39.7748033" lon="9.2285217"><ele>276.0</ele><time>2026-04-23T15:24:20.501Z</time></trkpt><trkpt lat="39.774835" lon="9.2284267"><ele>276.0</ele><time>2026-04-23T15:24:21.502Z</time></trkpt><trkpt lat="39.7748633" lon="9.2283283"><ele>276.0</ele><time>2026-04-23T15:24:22.502Z</time></trkpt><trkpt lat="39.77488" lon="9.2282283"><ele>276.0</ele><time>2026-04-23T15:24:23.502Z</time></trkpt><trkpt lat="39.7748883" lon="9.2281217"><ele>276.0</ele><time>2026-04-23T15:24:24.501Z</time></trkpt><trkpt lat="39.7749083" lon="9.2280167"><ele>276.0</ele><time>2026-04-23T15:24:25.501Z</time></trkpt><trkpt lat="39.7749367" lon="9.22792"><ele>275.6666666666667</ele><time>2026-04-23T15:24:26.502Z</time></trkpt><trkpt lat="39.77497" lon="9.227835"><ele>275.3333333333333</ele><time>2026-04-23T15:24:27.501Z</time></trkpt><trkpt lat="39.7750183" lon="9.2277717"><ele>275.0</ele><time>2026-04-23T15:24:28.502Z</time></trkpt><trkpt lat="39.77507" lon="9.22771"><ele>274.66666666666663</ele><time>2026-04-23T15:24:29.501Z</time></trkpt><trkpt lat="39.77513" lon="9.227635"><ele>274.3333333333333</ele><time>2026-04-23T15:24:30.501Z</time></trkpt><trkpt lat="39.7751933" lon="9.2275583"><ele>274.0</ele><time>2026-04-23T15:24:31.502Z</time></trkpt><trkpt lat="39.775265" lon="9.2274817"><ele>274.0</ele><time>2026-04-23T15:24:32.502Z</time></trkpt><trkpt lat="39.775335" lon="9.227425"><ele>274.0</ele><time>2026-04-23T15:24:33.501Z</time></trkpt><trkpt lat="39.7754117" lon="9.227375"><ele>274.0</ele><time>2026-04-23T15:24:34.501Z</time></trkpt><trkpt lat="39.7754767" lon="9.2273183"><ele>274.0</ele><time>2026-04-23T15:24:35.501Z</time></trkpt><trkpt lat="39.7755433" lon="9.227255"><ele>274.0</ele><time>2026-04-23T15:24:36.502Z</time></trkpt><trkpt lat="39.7755983" lon="9.2272067"><ele>274.0</ele><time>2026-04-23T15:24:37.501Z</time></trkpt><trkpt lat="39.775655" lon="9.2271667"><ele>276.0</ele><time>2026-04-23T15:24:38.501Z</time></trkpt><trkpt lat="39.7757233" lon="9.2271333"><ele>278.0</ele><time>2026-04-23T15:24:39.502Z</time></trkpt><trkpt lat="39.7757967" lon="9.2270817"><ele>280.0</ele><time>2026-04-23T15:24:40.502Z</time></trkpt><trkpt lat="39.7758733" lon="9.2270233"><ele>282.0</ele><time>2026-04-23T15:24:41.502Z</time></trkpt><trkpt lat="39.7759517" lon="9.22696"><ele>284.0</ele><time>2026-04-23T15:24:42.502Z</time></trkpt><trkpt lat="39.7760333" lon="9.2268917"><ele>286.0</ele><time>2026-04-23T15:24:43.502Z</time></trkpt><trkpt lat="39.77611" lon="9.226825"><ele>286.0</ele><time>2026-04-23T15:24:44.501Z</time></trkpt><trkpt lat="39.7761817" lon="9.226755"><ele>286.0</ele><time>2026-04-23T15:24:45.502Z</time></trkpt><trkpt lat="39.77625" lon="9.2266867"><ele>286.0</ele><time>2026-04-23T15:24:46.502Z</time></trkpt><trkpt lat="39.776325" lon="9.2266217"><ele>286.0</ele><time>2026-04-23T15:24:47.501Z</time></trkpt><trkpt lat="39.77641" lon="9.2265533"><ele>286.0</ele><time>2026-04-23T15:24:48.501Z</time></trkpt><trkpt lat="39.7765067" lon="9.22648"><ele>290.2</ele><time>2026-04-23T15:24:49.501Z</time></trkpt><trkpt lat="39.7766117" lon="9.2264117"><ele>294.40000000000003</ele><time>2026-04-23T15:24:50.502Z</time></trkpt><trkpt lat="39.7767017" lon="9.2263533"><ele>298.6</ele><time>2026-04-23T15:24:51.502Z</time></trkpt><trkpt lat="39.7767883" lon="9.2263017"><ele>302.8</ele><time>2026-04-23T15:24:52.502Z</time></trkpt><trkpt lat="39.776885" lon="9.2262517"><ele>307.0</ele><time>2026-04-23T15:24:53.502Z</time></trkpt><trkpt lat="39.776985" lon="9.2262033"><ele>307.0</ele><time>2026-04-23T15:24:54.501Z</time></trkpt><trkpt lat="39.7770733" lon="9.226155"><ele>307.0</ele><time>2026-04-23T15:24:55.502Z</time></trkpt><trkpt lat="39.7771567" lon="9.2261233"><ele>307.0</ele><time>2026-04-23T15:24:56.501Z</time></trkpt><trkpt lat="39.777235" lon="9.2260767"><ele>307.0</ele><time>2026-04-23T15:24:57.501Z</time></trkpt><trkpt lat="39.7773083" lon="9.2260183"><ele>307.0</ele><time>2026-04-23T15:24:58.502Z</time></trkpt><trkpt lat="39.7773817" lon="9.2259517"><ele>307.0</ele><time>2026-04-23T15:24:59.502Z</time></trkpt><trkpt lat="39.7774533" lon="9.2258633"><ele>307.0</ele><time>2026-04-23T15:25:00.501Z</time></trkpt><trkpt lat="39.777515" lon="9.2257583"><ele>307.0</ele><time>2026-04-23T15:25:01.501Z</time></trkpt><trkpt lat="39.777585" lon="9.2256533"><ele>307.0</ele><time>2026-04-23T15:25:02.502Z</time></trkpt><trkpt lat="39.7776617" lon="9.2255533"><ele>307.0</ele><time>2026-04-23T15:25:03.501Z</time></trkpt><trkpt lat="39.7777383" lon="9.22547"><ele>307.0</ele><time>2026-04-23T15:25:04.502Z</time></trkpt><trkpt lat="39.777815" lon="9.2254"><ele>309.5</ele><time>2026-04-23T15:25:05.501Z</time></trkpt><trkpt lat="39.777885" lon="9.2253583"><ele>312.0</ele><time>2026-04-23T15:25:06.501Z</time></trkpt><trkpt lat="39.77795" lon="9.2253233"><ele>314.5</ele><time>2026-04-23T15:25:07.501Z</time></trkpt><trkpt lat="39.7780533" lon="9.225325"><ele>317.0</ele><time>2026-04-23T15:25:09.501Z</time></trkpt><trkpt lat="39.7780933" lon="9.2254317"><ele>319.5</ele><time>2026-04-23T15:25:11.502Z</time></trkpt><trkpt lat="39.778115" lon="9.2255117"><ele>322.0</ele><time>2026-04-23T15:25:12.501Z</time></trkpt><trkpt lat="39.778155" lon="9.225575"><ele>322.0</ele><time>2026-04-23T15:25:13.501Z</time></trkpt><trkpt lat="39.7782183" lon="9.225615"><ele>322.0</ele><time>2026-04-23T15:25:14.501Z</time></trkpt><trkpt lat="39.7782917" lon="9.2256467"><ele>322.0</ele><time>2026-04-23T15:25:15.501Z</time></trkpt><trkpt lat="39.7783767" lon="9.22568"><ele>322.0</ele><time>2026-04-23T15:25:16.502Z</time></trkpt><trkpt lat="39.7784633" lon="9.2257217"><ele>322.0</ele><time>2026-04-23T15:25:17.501Z</time></trkpt><trkpt lat="39.778555" lon="9.2257533"><ele>322.0</ele><time>2026-04-23T15:25:18.501Z</time></trkpt><trkpt lat="39.7786483" lon="9.2257783"><ele>323.0</ele><time>2026-04-23T15:25:19.501Z</time></trkpt><trkpt lat="39.778735" lon="9.2258017"><ele>324.0</ele><time>2026-04-23T15:25:20.502Z</time></trkpt><trkpt lat="39.7788183" lon="9.22584"><ele>325.0</ele><time>2026-04-23T15:25:21.502Z</time></trkpt><trkpt lat="39.7788967" lon="9.2258833"><ele>326.0</ele><time>2026-04-23T15:25:22.502Z</time></trkpt><trkpt lat="39.7789717" lon="9.2259383"><ele>327.0</ele><time>2026-04-23T15:25:23.502Z</time></trkpt><trkpt lat="39.7790517" lon="9.225995"><ele>328.0</ele><time>2026-04-23T15:25:24.501Z</time></trkpt><trkpt lat="39.77913" lon="9.2260533"><ele>328.0</ele><time>2026-04-23T15:25:25.501Z</time></trkpt><trkpt lat="39.7792133" lon="9.2261017"><ele>328.0</ele><time>2026-04-23T15:25:26.501Z</time></trkpt><trkpt lat="39.7792983" lon="9.2261333"><ele>328.0</ele><time>2026-04-23T15:25:27.502Z</time></trkpt><trkpt lat="39.7793767" lon="9.2261533"><ele>328.0</ele><time>2026-04-23T15:25:28.501Z</time></trkpt><trkpt lat="39.779455" lon="9.2261833"><ele>328.0</ele><time>2026-04-23T15:25:29.502Z</time></trkpt><trkpt lat="39.779525" lon="9.2262317"><ele>328.0</ele><time>2026-04-23T15:25:30.501Z</time></trkpt><trkpt lat="39.7795917" lon="9.22628"><ele>325.3333333333333</ele><time>2026-04-23T15:25:31.501Z</time></trkpt><trkpt lat="39.7796533" lon="9.226335"><ele>322.66666666666663</ele><time>2026-04-23T15:25:32.501Z</time></trkpt><trkpt lat="39.7797" lon="9.2264017"><ele>320.0</ele><time>2026-04-23T15:25:33.502Z</time></trkpt><trkpt lat="39.7797583" lon="9.2264717"><ele>317.3333333333333</ele><time>2026-04-23T15:25:34.501Z</time></trkpt><trkpt lat="39.7798367" lon="9.22653"><ele>314.6666666666667</ele><time>2026-04-23T15:25:35.501Z</time></trkpt><trkpt lat="39.7799217" lon="9.2265633"><ele>312.0</ele><time>2026-04-23T15:25:36.501Z</time></trkpt><trkpt lat="39.780005" lon="9.22657"><ele>312.0</ele><time>2026-04-23T15:25:37.502Z</time></trkpt><trkpt lat="39.78008" lon="9.2265433"><ele>312.0</ele><time>2026-04-23T15:25:38.501Z</time></trkpt><trkpt lat="39.7801533" lon="9.2265"><ele>312.0</ele><time>2026-04-23T15:25:39.502Z</time></trkpt><trkpt lat="39.7802317" lon="9.22646"><ele>312.0</ele><time>2026-04-23T15:25:40.502Z</time></trkpt><trkpt lat="39.780325" lon="9.2264367"><ele>312.0</ele><time>2026-04-23T15:25:41.501Z</time></trkpt><trkpt lat="39.7804217" lon="9.2264317"><ele>312.0</ele><time>2026-04-23T15:25:42.501Z</time></trkpt><trkpt lat="39.7805167" lon="9.2264617"><ele>314.5</ele><time>2026-04-23T15:25:43.502Z</time></trkpt><trkpt lat="39.7806017" lon="9.2265033"><ele>317.0</ele><time>2026-04-23T15:25:44.501Z</time></trkpt><trkpt lat="39.780665" lon="9.22656"><ele>319.5</ele><time>2026-04-23T15:25:45.501Z</time></trkpt><trkpt lat="39.7807167" lon="9.22663"><ele>322.0</ele><time>2026-04-23T15:25:46.502Z</time></trkpt><trkpt lat="39.7807667" lon="9.2266933"><ele>324.5</ele><time>2026-04-23T15:25:47.502Z</time></trkpt><trkpt lat="39.7808283" lon="9.22674"><ele>327.0</ele><time>2026-04-23T15:25:48.501Z</time></trkpt><trkpt lat="39.7808983" lon="9.2267667"><ele>327.0</ele><time>2026-04-23T15:25:49.501Z</time></trkpt><trkpt lat="39.780975" lon="9.226775"><ele>327.0</ele><time>2026-04-23T15:25:50.502Z</time></trkpt><trkpt lat="39.7810633" lon="9.226775"><ele>327.0</ele><time>2026-04-23T15:25:51.501Z</time></trkpt><trkpt lat="39.78116" lon="9.22679"><ele>327.0</ele><time>2026-04-23T15:25:52.502Z</time></trkpt><trkpt lat="39.78126" lon="9.226815"><ele>327.0</ele><time>2026-04-23T15:25:53.502Z</time></trkpt><trkpt lat="39.7813667" lon="9.2268383"><ele>330.20000000000005</ele><time>2026-04-23T15:25:54.502Z</time></trkpt><trkpt lat="39.78148" lon="9.226865"><ele>333.4</ele><time>2026-04-23T15:25:55.502Z</time></trkpt><trkpt lat="39.7815833" lon="9.226895"><ele>336.6</ele><time>2026-04-23T15:25:56.501Z</time></trkpt><trkpt lat="39.78167" lon="9.226925"><ele>339.79999999999995</ele><time>2026-04-23T15:25:57.501Z</time></trkpt><trkpt lat="39.7817483" lon="9.22695"><ele>343.0</ele><time>2026-04-23T15:25:58.501Z</time></trkpt><trkpt lat="39.78182" lon="9.2269567"><ele>343.3333333333333</ele><time>2026-04-23T15:25:59.501Z</time></trkpt><trkpt lat="39.78189" lon="9.2269417"><ele>343.66666666666663</ele><time>2026-04-23T15:26:00.502Z</time></trkpt><trkpt lat="39.7819617" lon="9.2269"><ele>344.0</ele><time>2026-04-23T15:26:01.502Z</time></trkpt><trkpt lat="39.78204" lon="9.22685"><ele>344.3333333333333</ele><time>2026-04-23T15:26:02.502Z</time></trkpt><trkpt lat="39.7821017" lon="9.2268133"><ele>344.6666666666667</ele><time>2026-04-23T15:26:03.501Z</time></trkpt><trkpt lat="39.7822" lon="9.22678"><ele>345.0</ele><time>2026-04-23T15:26:05.501Z</time></trkpt><trkpt lat="39.782325" lon="9.2267867"><ele>345.0</ele><time>2026-04-23T15:26:07.502Z</time></trkpt><trkpt lat="39.7823917" lon="9.2267967"><ele>345.0</ele><time>2026-04-23T15:26:08.502Z</time></trkpt><trkpt lat="39.7824667" lon="9.2268233"><ele>345.0</ele><time>2026-04-23T15:26:09.501Z</time></trkpt><trkpt lat="39.7825383" lon="9.22685"><ele>345.0</ele><time>2026-04-23T15:26:10.501Z</time></trkpt><trkpt lat="39.7826133" lon="9.2268767"><ele>345.0</ele><time>2026-04-23T15:26:11.501Z</time></trkpt><trkpt lat="39.7826833" lon="9.2268933"><ele>345.0</ele><time>2026-04-23T15:26:12.502Z</time></trkpt><trkpt lat="39.7827517" lon="9.226885"><ele>345.0</ele><time>2026-04-23T15:26:13.502Z</time></trkpt><trkpt lat="39.7828217" lon="9.2268567"><ele>345.5</ele><time>2026-04-23T15:26:14.502Z</time></trkpt><trkpt lat="39.7829017" lon="9.2268267"><ele>346.0</ele><time>2026-04-23T15:26:15.502Z</time></trkpt><trkpt lat="39.7829867" lon="9.22681"><ele>346.5</ele><time>2026-04-23T15:26:16.501Z</time></trkpt><trkpt lat="39.7830683" lon="9.2267883"><ele>347.0</ele><time>2026-04-23T15:26:17.501Z</time></trkpt><trkpt lat="39.7831533" lon="9.2267733"><ele>347.5</ele><time>2026-04-23T15:26:18.501Z</time></trkpt><trkpt lat="39.7832483" lon="9.2267717"><ele>348.0</ele><time>2026-04-23T15:26:19.501Z</time></trkpt><trkpt lat="39.7833417" lon="9.2267733"><ele>348.0</ele><time>2026-04-23T15:26:20.502Z</time></trkpt><trkpt lat="39.7834317" lon="9.2267633"><ele>348.0</ele><time>2026-04-23T15:26:21.501Z</time></trkpt><trkpt lat="39.7835183" lon="9.2267467"><ele>348.0</ele><time>2026-04-23T15:26:22.502Z</time></trkpt><trkpt lat="39.7835967" lon="9.226725"><ele>348.0</ele><time>2026-04-23T15:26:23.501Z</time></trkpt><trkpt lat="39.7837017" lon="9.2267183"><ele>348.0</ele><time>2026-04-23T15:26:25.501Z</time></trkpt><trkpt lat="39.7838217" lon="9.2267583"><ele>350.3333333333333</ele><time>2026-04-23T15:26:27.501Z</time></trkpt><trkpt lat="39.78389" lon="9.2267917"><ele>352.6666666666667</ele><time>2026-04-23T15:26:28.501Z</time></trkpt><trkpt lat="39.7839633" lon="9.2268383"><ele>355.0</ele><time>2026-04-23T15:26:29.502Z</time></trkpt><trkpt lat="39.7840283" lon="9.2268983"><ele>357.33333333333337</ele><time>2026-04-23T15:26:30.502Z</time></trkpt><trkpt lat="39.78409" lon="9.2269667"><ele>359.6666666666667</ele><time>2026-04-23T15:26:31.501Z</time></trkpt><trkpt lat="39.7841417" lon="9.227035"><ele>362.0</ele><time>2026-04-23T15:26:32.502Z</time></trkpt><trkpt lat="39.7841933" lon="9.22709"><ele>362.0</ele><time>2026-04-23T15:26:33.502Z</time></trkpt><trkpt lat="39.7842933" lon="9.22713"><ele>362.0</ele><time>2026-04-23T15:26:35.501Z</time></trkpt><trkpt lat="39.7843567" lon="9.2271033"><ele>362.0</ele><time>2026-04-23T15:26:36.502Z</time></trkpt><trkpt lat="39.7844233" lon="9.2270633"><ele>362.0</ele><time>2026-04-23T15:26:37.502Z</time></trkpt><trkpt lat="39.7844933" lon="9.22701"><ele>362.0</ele><time>2026-04-23T15:26:38.501Z</time></trkpt><trkpt lat="39.78457" lon="9.226945"><ele>362.0</ele><time>2026-04-23T15:26:39.501Z</time></trkpt><trkpt lat="39.7846467" lon="9.2268883"><ele>360.33333333333337</ele><time>2026-04-23T15:26:40.502Z</time></trkpt><trkpt lat="39.7847217" lon="9.226835"><ele>358.6666666666667</ele><time>2026-04-23T15:26:41.502Z</time></trkpt><trkpt lat="39.7847967" lon="9.2267933"><ele>357.0</ele><time>2026-04-23T15:26:42.502Z</time></trkpt><trkpt lat="39.7848617" lon="9.22676"><ele>355.3333333333333</ele><time>2026-04-23T15:26:43.501Z</time></trkpt><trkpt lat="39.7849283" lon="9.2267167"><ele>353.66666666666663</ele><time>2026-04-23T15:26:44.501Z</time></trkpt><trkpt lat="39.785005" lon="9.226675"><ele>352.0</ele><time>2026-04-23T15:26:45.502Z</time></trkpt><trkpt lat="39.7850883" lon="9.2266233"><ele>352.0</ele><time>2026-04-23T15:26:46.501Z</time></trkpt><trkpt lat="39.7851767" lon="9.22655"><ele>352.0</ele><time>2026-04-23T15:26:47.501Z</time></trkpt><trkpt lat="39.7852767" lon="9.2264733"><ele>352.0</ele><time>2026-04-23T15:26:48.501Z</time></trkpt><trkpt lat="39.7853817" lon="9.2264133"><ele>352.0</ele><time>2026-04-23T15:26:49.501Z</time></trkpt><trkpt lat="39.785495" lon="9.2263533"><ele>357.20000000000005</ele><time>2026-04-23T15:26:50.502Z</time></trkpt><trkpt lat="39.7855983" lon="9.2262917"><ele>362.4</ele><time>2026-04-23T15:26:51.501Z</time></trkpt><trkpt lat="39.785695" lon="9.2262233"><ele>367.6</ele><time>2026-04-23T15:26:52.502Z</time></trkpt><trkpt lat="39.785785" lon="9.2261517"><ele>372.79999999999995</ele><time>2026-04-23T15:26:53.501Z</time></trkpt><trkpt lat="39.7858767" lon="9.22609"><ele>378.0</ele><time>2026-04-23T15:26:54.502Z</time></trkpt><trkpt lat="39.7859683" lon="9.2260283"><ele>373.3333333333333</ele><time>2026-04-23T15:26:55.501Z</time></trkpt><trkpt lat="39.7860567" lon="9.2259683"><ele>368.6666666666667</ele><time>2026-04-23T15:26:56.502Z</time></trkpt><trkpt lat="39.7861367" lon="9.22592"><ele>364.0</ele><time>2026-04-23T15:26:57.501Z</time></trkpt><trkpt lat="39.7862133" lon="9.2258767"><ele>359.33333333333337</ele><time>2026-04-23T15:26:58.502Z</time></trkpt><trkpt lat="39.786285" lon="9.22583"><ele>354.6666666666667</ele><time>2026-04-23T15:26:59.501Z</time></trkpt><trkpt lat="39.786365" lon="9.2258017"><ele>350.0</ele><time>2026-04-23T15:27:00.501Z</time></trkpt><trkpt lat="39.786445" lon="9.22579"><ele>350.0</ele><time>2026-04-23T15:27:01.502Z</time></trkpt><trkpt lat="39.7865267" lon="9.2258017"><ele>350.0</ele><time>2026-04-23T15:27:02.501Z</time></trkpt><trkpt lat="39.7865967" lon="9.2258367"><ele>350.0</ele><time>2026-04-23T15:27:03.502Z</time></trkpt><trkpt lat="39.7866617" lon="9.2258817"><ele>350.0</ele><time>2026-04-23T15:27:04.501Z</time></trkpt><trkpt lat="39.7867317" lon="9.22592"><ele>350.0</ele><time>2026-04-23T15:27:05.502Z</time></trkpt><trkpt lat="39.7868033" lon="9.2259583"><ele>350.0</ele><time>2026-04-23T15:27:06.501Z</time></trkpt><trkpt lat="39.7868767" lon="9.2259667"><ele>343.83333333333337</ele><time>2026-04-23T15:27:07.501Z</time></trkpt><trkpt lat="39.7869517" lon="9.2259533"><ele>337.6666666666667</ele><time>2026-04-23T15:27:08.502Z</time></trkpt><trkpt lat="39.787025" lon="9.2259067"><ele>331.5</ele><time>2026-04-23T15:27:09.502Z</time></trkpt><trkpt lat="39.7870983" lon="9.22585"><ele>325.3333333333333</ele><time>2026-04-23T15:27:10.501Z</time></trkpt><trkpt lat="39.7871683" lon="9.2257933"><ele>319.16666666666663</ele><time>2026-04-23T15:27:11.502Z</time></trkpt><trkpt lat="39.787235" lon="9.22573"><ele>313.0</ele><time>2026-04-23T15:27:12.502Z</time></trkpt><trkpt lat="39.78729" lon="9.225685"><ele>313.0</ele><time>2026-04-23T15:27:13.501Z</time></trkpt><trkpt lat="39.7873533" lon="9.2256317"><ele>313.0</ele><time>2026-04-23T15:27:15.502Z</time></trkpt><trkpt lat="39.7872883" lon="9.22566"><ele>313.0</ele><time>2026-04-23T15:51:30.5Z</time></trkpt><trkpt lat="39.7871817" lon="9.22574"><ele>313.0</ele><time>2026-04-23T15:51:32.5Z</time></trkpt><trkpt lat="39.7871067" lon="9.2257917"><ele>313.0</ele><time>2026-04-23T15:51:33.5Z</time></trkpt><trkpt lat="39.78704" lon="9.2258417"><ele>313.0</ele><time>2026-04-23T15:51:34.5Z</time></trkpt><trkpt lat="39.7869783" lon="9.2258867"><ele>313.0</ele><time>2026-04-23T15:51:35.499Z</time></trkpt><trkpt lat="39.7868783" lon="9.225935"><ele>313.0</ele><time>2026-04-23T15:51:37.5Z</time></trkpt><trkpt lat="39.7867783" lon="9.2259217"><ele>313.0</ele><time>2026-04-23T15:51:39.499Z</time></trkpt><trkpt lat="39.7866783" lon="9.22587"><ele>313.0</ele><time>2026-04-23T15:51:41.5Z</time></trkpt><trkpt lat="39.7865733" lon="9.2257967"><ele>313.0</ele><time>2026-04-23T15:51:43.5Z</time></trkpt><trkpt lat="39.7864533" lon="9.225755"><ele>319.16666666666663</ele><time>2026-04-23T15:51:45.5Z</time></trkpt><trkpt lat="39.78639" lon="9.2257483"><ele>325.3333333333333</ele><time>2026-04-23T15:51:46.5Z</time></trkpt><trkpt lat="39.7862717" lon="9.22579"><ele>331.5</ele><time>2026-04-23T15:51:48.5Z</time></trkpt><trkpt lat="39.7862083" lon="9.225825"><ele>337.6666666666667</ele><time>2026-04-23T15:51:49.499Z</time></trkpt><trkpt lat="39.7861383" lon="9.2258783"><ele>343.83333333333337</ele><time>2026-04-23T15:51:50.5Z</time></trkpt><trkpt lat="39.7860717" lon="9.2259317"><ele>350.0</ele><time>2026-04-23T15:51:51.499Z</time></trkpt><trkpt lat="39.7859917" lon="9.2259833"><ele>354.6666666666667</ele><time>2026-04-23T15:51:52.5Z</time></trkpt><trkpt lat="39.785915" lon="9.226035"><ele>359.33333333333337</ele><time>2026-04-23T15:51:53.499Z</time></trkpt><trkpt lat="39.7858433" lon="9.2260817"><ele>364.0</ele><time>2026-04-23T15:51:54.5Z</time></trkpt><trkpt lat="39.7857883" lon="9.22613"><ele>368.6666666666667</ele><time>2026-04-23T15:51:55.5Z</time></trkpt><trkpt lat="39.7857333" lon="9.226175"><ele>373.3333333333333</ele><time>2026-04-23T15:51:56.499Z</time></trkpt><trkpt lat="39.7856133" lon="9.2262617"><ele>378.0</ele><time>2026-04-23T15:51:58.5Z</time></trkpt><trkpt lat="39.7855367" lon="9.2263033"><ele>378.0</ele><time>2026-04-23T15:51:59.499Z</time></trkpt><trkpt lat="39.7854567" lon="9.226345"><ele>378.0</ele><time>2026-04-23T15:52:00.5Z</time></trkpt><trkpt lat="39.78538" lon="9.2263933"><ele>378.0</ele><time>2026-04-23T15:52:01.499Z</time></trkpt><trkpt lat="39.785305" lon="9.22644"><ele>378.0</ele><time>2026-04-23T15:52:02.499Z</time></trkpt><trkpt lat="39.7852267" lon="9.2264817"><ele>378.0</ele><time>2026-04-23T15:52:03.499Z</time></trkpt><trkpt lat="39.7851517" lon="9.22653"><ele>378.0</ele><time>2026-04-23T15:52:04.5Z</time></trkpt><trkpt lat="39.785075" lon="9.2265783"><ele>373.6666666666667</ele><time>2026-04-23T15:52:05.5Z</time></trkpt><trkpt lat="39.784995" lon="9.2266317"><ele>369.3333333333333</ele><time>2026-04-23T15:52:06.499Z</time></trkpt><trkpt lat="39.7849183" lon="9.2266717"><ele>365.0</ele><time>2026-04-23T15:52:07.499Z</time></trkpt><trkpt lat="39.7848483" lon="9.2267117"><ele>360.66666666666663</ele><time>2026-04-23T15:52:08.499Z</time></trkpt><trkpt lat="39.7847867" lon="9.2267533"><ele>356.3333333333333</ele><time>2026-04-23T15:52:09.499Z</time></trkpt><trkpt lat="39.7847167" lon="9.2268017"><ele>352.0</ele><time>2026-04-23T15:52:10.499Z</time></trkpt><trkpt lat="39.7846433" lon="9.2268567"><ele>352.0</ele><time>2026-04-23T15:52:11.5Z</time></trkpt><trkpt lat="39.7845767" lon="9.22691"><ele>352.0</ele><time>2026-04-23T15:52:12.5Z</time></trkpt><trkpt lat="39.784515" lon="9.226955"><ele>352.0</ele><time>2026-04-23T15:52:13.5Z</time></trkpt><trkpt lat="39.7844567" lon="9.2270067"><ele>352.0</ele><time>2026-04-23T15:52:14.499Z</time></trkpt><trkpt lat="39.7844" lon="9.227045"><ele>352.0</ele><time>2026-04-23T15:52:15.499Z</time></trkpt><trkpt lat="39.784295" lon="9.22708"><ele>352.0</ele><time>2026-04-23T15:52:17.499Z</time></trkpt><trkpt lat="39.784205" lon="9.227055"><ele>354.0</ele><time>2026-04-23T15:52:19.5Z</time></trkpt><trkpt lat="39.784135" lon="9.22699"><ele>356.0</ele><time>2026-04-23T15:52:21.5Z</time></trkpt><trkpt lat="39.7840483" lon="9.2268983"><ele>358.0</ele><time>2026-04-23T15:52:23.499Z</time></trkpt><trkpt lat="39.7839567" lon="9.2268067"><ele>360.0</ele><time>2026-04-23T15:52:25.499Z</time></trkpt><trkpt lat="39.78386" lon="9.2267467"><ele>362.0</ele><time>2026-04-23T15:52:27.499Z</time></trkpt><trkpt lat="39.7838" lon="9.22672"><ele>362.0</ele><time>2026-04-23T15:52:28.5Z</time></trkpt><trkpt lat="39.7836883" lon="9.2266933"><ele>362.0</ele><time>2026-04-23T15:52:30.5Z</time></trkpt><trkpt lat="39.7835817" lon="9.2267117"><ele>362.0</ele><time>2026-04-23T15:52:32.5Z</time></trkpt><trkpt lat="39.7834717" lon="9.2267417"><ele>362.0</ele><time>2026-04-23T15:52:34.499Z</time></trkpt><trkpt lat="39.7833583" lon="9.2267433"><ele>362.0</ele><time>2026-04-23T15:52:36.499Z</time></trkpt><trkpt lat="39.7832883" lon="9.2267467"><ele>359.20000000000005</ele><time>2026-04-23T15:52:37.5Z</time></trkpt><trkpt lat="39.7831683" lon="9.22675"><ele>356.4</ele><time>2026-04-23T15:52:39.499Z</time></trkpt><trkpt lat="39.7830533" lon="9.2267483"><ele>353.6</ele><time>2026-04-23T15:52:41.5Z</time></trkpt><trkpt lat="39.78299" lon="9.2267633"><ele>350.79999999999995</ele><time>2026-04-23T15:52:42.499Z</time></trkpt><trkpt lat="39.7829267" lon="9.2267867"><ele>348.0</ele><time>2026-04-23T15:52:43.5Z</time></trkpt><trkpt lat="39.782815" lon="9.226825"><ele>348.0</ele><time>2026-04-23T15:52:45.499Z</time></trkpt><trkpt lat="39.782705" lon="9.2268617"><ele>348.0</ele><time>2026-04-23T15:52:47.499Z</time></trkpt><trkpt lat="39.78259" lon="9.2268617"><ele>348.0</ele><time>2026-04-23T15:52:49.499Z</time></trkpt><trkpt lat="39.7824783" lon="9.22681"><ele>348.0</ele><time>2026-04-23T15:52:51.5Z</time></trkpt><trkpt lat="39.7823583" lon="9.2267717"><ele>347.5</ele><time>2026-04-23T15:52:53.499Z</time></trkpt><trkpt lat="39.78229" lon="9.226765"><ele>347.0</ele><time>2026-04-23T15:52:54.5Z</time></trkpt><trkpt lat="39.7822267" lon="9.226765"><ele>346.5</ele><time>2026-04-23T15:52:55.5Z</time></trkpt><trkpt lat="39.7821067" lon="9.2267933"><ele>346.0</ele><time>2026-04-23T15:52:57.5Z</time></trkpt><trkpt lat="39.782045" lon="9.2268183"><ele>345.5</ele><time>2026-04-23T15:52:58.5Z</time></trkpt><trkpt lat="39.781935" lon="9.22688"><ele>345.0</ele><time>2026-04-23T15:53:00.5Z</time></trkpt><trkpt lat="39.7818317" lon="9.2269133"><ele>344.6666666666667</ele><time>2026-04-23T15:53:02.5Z</time></trkpt><trkpt lat="39.7817183" lon="9.2269083"><ele>344.3333333333333</ele><time>2026-04-23T15:53:04.499Z</time></trkpt><trkpt lat="39.7816533" lon="9.2268917"><ele>344.0</ele><time>2026-04-23T15:53:05.499Z</time></trkpt><trkpt lat="39.7815833" lon="9.22687"><ele>343.66666666666663</ele><time>2026-04-23T15:53:06.499Z</time></trkpt><trkpt lat="39.7815117" lon="9.2268467"><ele>343.3333333333333</ele><time>2026-04-23T15:53:07.5Z</time></trkpt><trkpt lat="39.7814467" lon="9.22682"><ele>343.0</ele><time>2026-04-23T15:53:08.498Z</time></trkpt><trkpt lat="39.7813767" lon="9.2268017"><ele>343.0</ele><time>2026-04-23T15:53:09.499Z</time></trkpt><trkpt lat="39.7813033" lon="9.2267817"><ele>343.0</ele><time>2026-04-23T15:53:10.498Z</time></trkpt><trkpt lat="39.78123" lon="9.2267617"><ele>343.0</ele><time>2026-04-23T15:53:11.498Z</time></trkpt><trkpt lat="39.7811583" lon="9.2267417"><ele>343.0</ele><time>2026-04-23T15:53:12.499Z</time></trkpt><trkpt lat="39.7810867" lon="9.2267283"><ele>343.0</ele><time>2026-04-23T15:53:13.499Z</time></trkpt><trkpt lat="39.7810183" lon="9.2267233"><ele>343.0</ele><time>2026-04-23T15:53:14.499Z</time></trkpt><trkpt lat="39.7809" lon="9.2267183"><ele>340.3333333333333</ele><time>2026-04-23T15:53:16.499Z</time></trkpt><trkpt lat="39.7808" lon="9.2267"><ele>337.66666666666663</ele><time>2026-04-23T15:53:18.498Z</time></trkpt><trkpt lat="39.78072" lon="9.226645"><ele>335.0</ele><time>2026-04-23T15:53:20.498Z</time></trkpt><trkpt lat="39.7806767" lon="9.2265717"><ele>332.3333333333333</ele><time>2026-04-23T15:53:21.499Z</time></trkpt><trkpt lat="39.78063" lon="9.2265117"><ele>329.6666666666667</ele><time>2026-04-23T15:53:22.499Z</time></trkpt><trkpt lat="39.7805767" lon="9.2264633"><ele>327.0</ele><time>2026-04-23T15:53:23.499Z</time></trkpt><trkpt lat="39.780515" lon="9.226435"><ele>324.5</ele><time>2026-04-23T15:53:24.498Z</time></trkpt><trkpt lat="39.7804467" lon="9.22642"><ele>322.0</ele><time>2026-04-23T15:53:25.499Z</time></trkpt><trkpt lat="39.78038" lon="9.22641"><ele>319.5</ele><time>2026-04-23T15:53:26.499Z</time></trkpt><trkpt lat="39.7803083" lon="9.2264"><ele>317.0</ele><time>2026-04-23T15:53:27.499Z</time></trkpt><trkpt lat="39.7802383" lon="9.2264067"><ele>314.5</ele><time>2026-04-23T15:53:28.498Z</time></trkpt><trkpt lat="39.78012" lon="9.2264517"><ele>312.0</ele><time>2026-04-23T15:53:30.499Z</time></trkpt><trkpt lat="39.7800117" lon="9.2265183"><ele>312.0</ele><time>2026-04-23T15:53:32.498Z</time></trkpt><trkpt lat="39.7799067" lon="9.2265233"><ele>312.0</ele><time>2026-04-23T15:53:34.498Z</time></trkpt><trkpt lat="39.7798067" lon="9.22647"><ele>312.0</ele><time>2026-04-23T15:53:36.498Z</time></trkpt><trkpt lat="39.7797183" lon="9.22639"><ele>312.0</ele><time>2026-04-23T15:53:38.498Z</time></trkpt><trkpt lat="39.7796467" lon="9.2262967"><ele>312.0</ele><time>2026-04-23T15:53:40.498Z</time></trkpt><trkpt lat="39.7795583" lon="9.2262233"><ele>316.0</ele><time>2026-04-23T15:53:42.498Z</time></trkpt><trkpt lat="39.779465" lon="9.226155"><ele>320.0</ele><time>2026-04-23T15:53:44.498Z</time></trkpt><trkpt lat="39.7793483" lon="9.2261033"><ele>324.0</ele><time>2026-04-23T15:53:46.498Z</time></trkpt><trkpt lat="39.7792383" lon="9.2260717"><ele>328.0</ele><time>2026-04-23T15:53:48.499Z</time></trkpt><trkpt lat="39.7791367" lon="9.2260183"><ele>328.0</ele><time>2026-04-23T15:53:50.499Z</time></trkpt><trkpt lat="39.7790433" lon="9.2259467"><ele>328.0</ele><time>2026-04-23T15:53:52.499Z</time></trkpt><trkpt lat="39.7789433" lon="9.22589"><ele>328.0</ele><time>2026-04-23T15:53:54.498Z</time></trkpt><trkpt lat="39.7788433" lon="9.2258383"><ele>328.0</ele><time>2026-04-23T15:53:56.498Z</time></trkpt><trkpt lat="39.7787517" lon="9.2257983"><ele>328.0</ele><time>2026-04-23T15:53:58.498Z</time></trkpt><trkpt lat="39.77865" lon="9.2257633"><ele>328.0</ele><time>2026-04-23T15:54:00.498Z</time></trkpt><trkpt lat="39.7785417" lon="9.2257383"><ele>328.0</ele><time>2026-04-23T15:54:02.499Z</time></trkpt><trkpt lat="39.7784817" lon="9.2257083"><ele>328.0</ele><time>2026-04-23T15:54:03.498Z</time></trkpt><trkpt lat="39.77837" lon="9.2256583"><ele>328.0</ele><time>2026-04-23T15:54:05.498Z</time></trkpt><trkpt lat="39.7782617" lon="9.2256117"><ele>328.0</ele><time>2026-04-23T15:54:07.499Z</time></trkpt><trkpt lat="39.7781533" lon="9.225565"><ele>327.0</ele><time>2026-04-23T15:54:09.498Z</time></trkpt><trkpt lat="39.77809" lon="9.2254833"><ele>326.0</ele><time>2026-04-23T15:54:11.498Z</time></trkpt><trkpt lat="39.7780467" lon="9.22537"><ele>325.0</ele><time>2026-04-23T15:54:13.499Z</time></trkpt><trkpt lat="39.7779833" lon="9.2253083"><ele>324.0</ele><time>2026-04-23T15:54:15.498Z</time></trkpt><trkpt lat="39.7778967" lon="9.2253233"><ele>323.0</ele><time>2026-04-23T15:54:17.499Z</time></trkpt><trkpt lat="39.7778167" lon="9.2253667"><ele>322.0</ele><time>2026-04-23T15:54:19.498Z</time></trkpt><trkpt lat="39.7777417" lon="9.225435"><ele>324.3333333333333</ele><time>2026-04-23T15:54:21.498Z</time></trkpt><trkpt lat="39.777655" lon="9.225535"><ele>326.66666666666663</ele><time>2026-04-23T15:54:23.499Z</time></trkpt><trkpt lat="39.7776083" lon="9.2255933"><ele>329.0</ele><time>2026-04-23T15:54:24.498Z</time></trkpt><trkpt lat="39.7775583" lon="9.2256533"><ele>331.3333333333333</ele><time>2026-04-23T15:54:25.499Z</time></trkpt><trkpt lat="39.77751" lon="9.2257133"><ele>333.6666666666667</ele><time>2026-04-23T15:54:26.498Z</time></trkpt><trkpt lat="39.7774233" lon="9.225835"><ele>336.0</ele><time>2026-04-23T15:54:28.499Z</time></trkpt><trkpt lat="39.7773717" lon="9.2258933"><ele>331.1666666666667</ele><time>2026-04-23T15:54:29.499Z</time></trkpt><trkpt lat="39.7773083" lon="9.2259417"><ele>326.3333333333333</ele><time>2026-04-23T15:54:30.499Z</time></trkpt><trkpt lat="39.7772583" lon="9.2259983"><ele>321.5</ele><time>2026-04-23T15:54:31.498Z</time></trkpt><trkpt lat="39.7772067" lon="9.22605"><ele>316.66666666666663</ele><time>2026-04-23T15:54:32.498Z</time></trkpt><trkpt lat="39.7771183" lon="9.2260767"><ele>311.8333333333333</ele><time>2026-04-23T15:54:33.498Z</time></trkpt><trkpt lat="39.7770533" lon="9.226115"><ele>307.0</ele><time>2026-04-23T15:54:34.499Z</time></trkpt><trkpt lat="39.7769767" lon="9.226155"><ele>307.0</ele><time>2026-04-23T15:54:35.498Z</time></trkpt><trkpt lat="39.7768917" lon="9.2262017"><ele>307.0</ele><time>2026-04-23T15:54:36.499Z</time></trkpt><trkpt lat="39.77681" lon="9.2262417"><ele>307.0</ele><time>2026-04-23T15:54:37.498Z</time></trkpt><trkpt lat="39.77673" lon="9.2262883"><ele>307.0</ele><time>2026-04-23T15:54:38.499Z</time></trkpt><trkpt lat="39.7766517" lon="9.2263317"><ele>307.0</ele><time>2026-04-23T15:54:39.499Z</time></trkpt><trkpt lat="39.7765767" lon="9.2263767"><ele>307.0</ele><time>2026-04-23T15:54:40.498Z</time></trkpt><trkpt lat="39.776505" lon="9.226435"><ele>303.5</ele><time>2026-04-23T15:54:41.498Z</time></trkpt><trkpt lat="39.776425" lon="9.226495"><ele>300.0</ele><time>2026-04-23T15:54:42.498Z</time></trkpt><trkpt lat="39.776355" lon="9.2265517"><ele>296.5</ele><time>2026-04-23T15:54:43.498Z</time></trkpt><trkpt lat="39.7762867" lon="9.2266133"><ele>293.0</ele><time>2026-04-23T15:54:44.499Z</time></trkpt><trkpt lat="39.77622" lon="9.2266683"><ele>289.5</ele><time>2026-04-23T15:54:45.499Z</time></trkpt><trkpt lat="39.7761533" lon="9.2267383"><ele>286.0</ele><time>2026-04-23T15:54:46.498Z</time></trkpt><trkpt lat="39.7760867" lon="9.2268017"><ele>286.0</ele><time>2026-04-23T15:54:47.499Z</time></trkpt><trkpt lat="39.776025" lon="9.2268733"><ele>286.0</ele><time>2026-04-23T15:54:48.499Z</time></trkpt><trkpt lat="39.7759567" lon="9.226935"><ele>286.0</ele><time>2026-04-23T15:54:49.498Z</time></trkpt><trkpt lat="39.7758933" lon="9.2269933"><ele>286.0</ele><time>2026-04-23T15:54:50.498Z</time></trkpt><trkpt lat="39.7758267" lon="9.2270467"><ele>286.0</ele><time>2026-04-23T15:54:51.499Z</time></trkpt><trkpt lat="39.7757617" lon="9.2271033"><ele>286.0</ele><time>2026-04-23T15:54:52.499Z</time></trkpt><trkpt lat="39.7756967" lon="9.2271483"><ele>284.2857142857143</ele><time>2026-04-23T15:54:53.499Z</time></trkpt><trkpt lat="39.7756317" lon="9.2271883"><ele>282.57142857142856</ele><time>2026-04-23T15:54:54.498Z</time></trkpt><trkpt lat="39.7755683" lon="9.22722"><ele>280.8571428571429</ele><time>2026-04-23T15:54:55.499Z</time></trkpt><trkpt lat="39.7755067" lon="9.2272583"><ele>279.1428571428571</ele><time>2026-04-23T15:54:56.499Z</time></trkpt><trkpt lat="39.7754517" lon="9.22731"><ele>277.42857142857144</ele><time>2026-04-23T15:54:57.498Z</time></trkpt><trkpt lat="39.77539" lon="9.2273633"><ele>275.7142857142857</ele><time>2026-04-23T15:54:58.499Z</time></trkpt><trkpt lat="39.7753233" lon="9.227415"><ele>274.0</ele><time>2026-04-23T15:54:59.499Z</time></trkpt><trkpt lat="39.775265" lon="9.2274617"><ele>274.00000000000006</ele><time>2026-04-23T15:55:00.498Z</time></trkpt><trkpt lat="39.77521" lon="9.2275033"><ele>274.0</ele><time>2026-04-23T15:55:01.499Z</time></trkpt><trkpt lat="39.77516" lon="9.227555"><ele>274.0</ele><time>2026-04-23T15:55:02.498Z</time></trkpt><trkpt lat="39.77511" lon="9.2276233"><ele>274.0</ele><time>2026-04-23T15:55:03.499Z</time></trkpt><trkpt lat="39.775065" lon="9.22769"><ele>274.0</ele><time>2026-04-23T15:55:04.498Z</time></trkpt><trkpt lat="39.7750133" lon="9.2277533"><ele>274.00000000000006</ele><time>2026-04-23T15:55:05.498Z</time></trkpt><trkpt lat="39.7749617" lon="9.2278067"><ele>274.0</ele><time>2026-04-23T15:55:06.499Z</time></trkpt><trkpt lat="39.774915" lon="9.2278833"><ele>274.3333333333333</ele><time>2026-04-23T15:55:07.498Z</time></trkpt><trkpt lat="39.7748867" lon="9.227975"><ele>274.66666666666663</ele><time>2026-04-23T15:55:08.499Z</time></trkpt><trkpt lat="39.774865" lon="9.2280717"><ele>275.0</ele><time>2026-04-23T15:55:09.498Z</time></trkpt><trkpt lat="39.77485" lon="9.2281733"><ele>275.3333333333333</ele><time>2026-04-23T15:55:10.499Z</time></trkpt><trkpt lat="39.7748417" lon="9.22826"><ele>275.6666666666667</ele><time>2026-04-23T15:55:11.499Z</time></trkpt><trkpt lat="39.77481" lon="9.2284133"><ele>276.0</ele><time>2026-04-23T15:55:13.498Z</time></trkpt><trkpt lat="39.774755" lon="9.2285433"><ele>276.0</ele><time>2026-04-23T15:55:15.498Z</time></trkpt><trkpt lat="39.77469" lon="9.2286433"><ele>276.0</ele><time>2026-04-23T15:55:17.498Z</time></trkpt><trkpt lat="39.7745767" lon="9.22873"><ele>276.0</ele><time>2026-04-23T15:55:19.498Z</time></trkpt><trkpt lat="39.7745083" lon="9.2287683"><ele>276.0</ele><time>2026-04-23T15:55:20.499Z</time></trkpt><trkpt lat="39.7744333" lon="9.228795"><ele>276.0</ele><time>2026-04-23T15:55:21.499Z</time></trkpt><trkpt lat="39.7743533" lon="9.2288233"><ele>280.5</ele><time>2026-04-23T15:55:22.498Z</time></trkpt><trkpt lat="39.7742683" lon="9.2288583"><ele>285.0</ele><time>2026-04-23T15:55:23.499Z</time></trkpt><trkpt lat="39.77419" lon="9.2288983"><ele>289.5</ele><time>2026-04-23T15:55:24.498Z</time></trkpt><trkpt lat="39.7741083" lon="9.2289217"><ele>294.0</ele><time>2026-04-23T15:55:25.498Z</time></trkpt><trkpt lat="39.7740283" lon="9.2289417"><ele>298.5</ele><time>2026-04-23T15:55:26.499Z</time></trkpt><trkpt lat="39.7739417" lon="9.22895"><ele>303.0</ele><time>2026-04-23T15:55:27.499Z</time></trkpt><trkpt lat="39.7738617" lon="9.2289533"><ele>303.0</ele><time>2026-04-23T15:55:28.498Z</time></trkpt><trkpt lat="39.7737783" lon="9.2289683"><ele>303.0</ele><time>2026-04-23T15:55:29.498Z</time></trkpt><trkpt lat="39.7736983" lon="9.2289967"><ele>303.0</ele><time>2026-04-23T15:55:30.499Z</time></trkpt><trkpt lat="39.773615" lon="9.22903"><ele>303.0</ele><time>2026-04-23T15:55:31.498Z</time></trkpt><trkpt lat="39.7735433" lon="9.229075"><ele>303.0</ele><time>2026-04-23T15:55:32.498Z</time></trkpt><trkpt lat="39.7734767" lon="9.2291133"><ele>303.0</ele><time>2026-04-23T15:55:33.498Z</time></trkpt><trkpt lat="39.7734133" lon="9.2291583"><ele>303.0</ele><time>2026-04-23T15:55:34.499Z</time></trkpt><trkpt lat="39.7733433" lon="9.22919"><ele>303.0</ele><time>2026-04-23T15:55:35.499Z</time></trkpt><trkpt lat="39.77323" lon="9.229195"><ele>303.0</ele><time>2026-04-23T15:55:37.498Z</time></trkpt><trkpt lat="39.7731467" lon="9.2291533"><ele>303.0</ele><time>2026-04-23T15:55:39.499Z</time></trkpt><trkpt lat="39.7730733" lon="9.2290733"><ele>303.0</ele><time>2026-04-23T15:55:41.498Z</time></trkpt><trkpt lat="39.7729983" lon="9.2289583"><ele>303.0</ele><time>2026-04-23T15:55:43.499Z</time></trkpt><trkpt lat="39.772965" lon="9.2288817"><ele>303.0</ele><time>2026-04-23T15:55:44.498Z</time></trkpt><trkpt lat="39.77292" lon="9.2288033"><ele>303.0</ele><time>2026-04-23T15:55:45.499Z</time></trkpt><trkpt lat="39.7728683" lon="9.228725"><ele>303.0</ele><time>2026-04-23T15:55:46.498Z</time></trkpt><trkpt lat="39.7728183" lon="9.2286533"><ele>303.0</ele><time>2026-04-23T15:55:47.499Z</time></trkpt><trkpt lat="39.7727817" lon="9.2285817"><ele>303.0</ele><time>2026-04-23T15:55:48.498Z</time></trkpt><trkpt lat="39.7727533" lon="9.2284467"><ele>303.0</ele><time>2026-04-23T15:55:50.499Z</time></trkpt><trkpt lat="39.7727233" lon="9.2282967"><ele>303.0</ele><time>2026-04-23T15:55:52.498Z</time></trkpt><trkpt lat="39.772675" lon="9.22816"><ele>303.0</ele><time>2026-04-23T15:55:54.499Z</time></trkpt><trkpt lat="39.7726217" lon="9.22803"><ele>303.0</ele><time>2026-04-23T15:55:56.498Z</time></trkpt><trkpt lat="39.7725617" lon="9.2278917"><ele>302.4</ele><time>2026-04-23T15:55:58.498Z</time></trkpt><trkpt lat="39.7724717" lon="9.2278317"><ele>301.8</ele><time>2026-04-23T15:56:00.498Z</time></trkpt><trkpt lat="39.772355" lon="9.227815"><ele>301.2</ele><time>2026-04-23T15:56:02.498Z</time></trkpt><trkpt lat="39.7722283" lon="9.2277683"><ele>300.6</ele><time>2026-04-23T15:56:04.499Z</time></trkpt><trkpt lat="39.7721533" lon="9.2277417"><ele>300.0</ele><time>2026-04-23T15:56:05.499Z</time></trkpt><trkpt lat="39.77208" lon="9.2277233"><ele>300.0</ele><time>2026-04-23T15:56:06.499Z</time></trkpt><trkpt lat="39.772015" lon="9.227725"><ele>300.0</ele><time>2026-04-23T15:56:07.499Z</time></trkpt><trkpt lat="39.7718917" lon="9.2276883"><ele>300.0</ele><time>2026-04-23T15:56:09.498Z</time></trkpt><trkpt lat="39.77182" lon="9.2276533"><ele>300.0</ele><time>2026-04-23T15:56:10.499Z</time></trkpt><trkpt lat="39.7717517" lon="9.2276117"><ele>300.0</ele><time>2026-04-23T15:56:11.499Z</time></trkpt><trkpt lat="39.7716917" lon="9.2275567"><ele>300.0</ele><time>2026-04-23T15:56:12.499Z</time></trkpt><trkpt lat="39.7715567" lon="9.2274383"><ele>270.0</ele><time>2026-04-23T15:56:14.499Z</time></trkpt><trkpt lat="39.7715083" lon="9.2273767"><ele>270.0</ele><time>2026-04-23T15:56:15.498Z</time></trkpt><trkpt lat="39.7714567" lon="9.2272667"><ele>287.0</ele><time>2026-04-23T15:56:17.498Z</time></trkpt><trkpt lat="39.7714133" lon="9.2271083"><ele>287.0</ele><time>2026-04-23T15:56:19.498Z</time></trkpt><trkpt lat="39.7713917" lon="9.2269933"><ele>287.0</ele><time>2026-04-23T15:56:21.498Z</time></trkpt></trkseg></trk></gpx>